<?xml version="1.0" encoding="UTF-8" standalone="no" ?>
<gpx xmlns="http://www.topografix.com/GPX/1/1" xmlns:xsi="http://www.w3.org/2001/XMLSchema-instance" xsi:schemaLocation="http://www.topografix.com/GPX/1/1 http://www.topografix.com/GPX/1/1/gpx.xsd" version="1.1" creator="VisuGPX - https://www.visugpx.com">
  <metadata>
    <name>Trek 5 jours dans l'Yonne  J 2 - Auxerre - Bessy sur Cure</name>
    <desc><![CDATA[Trek avec le Rando Club Yerrois
Animateur Jean Luc
Participants 18

Seconde Journée d'Auxerre à Bessy sur Cure
Gite Bessy sur Cure 107 grande rue]]></desc>
  </metadata>
  <trk>
    <name><![CDATA[Trek 5 jours dans l'Yonne  J 2 - Auxerre - Bessy sur Cure_1]]></name>
    <trkseg>
      <trkpt lat="47.79346" lon="3.57286">
        <ele>110.8</ele>
        <time>2019-04-02T06:03:55Z</time>
      </trkpt>
      <trkpt lat="47.79346" lon="3.57286">
        <ele>167</ele>
        <time>2019-04-02T06:04:05Z</time>
      </trkpt>
      <trkpt lat="47.79346" lon="3.57279">
        <ele>176</ele>
        <time>2019-04-02T06:05:59Z</time>
      </trkpt>
      <trkpt lat="47.79347" lon="3.57275">
        <ele>176</ele>
        <time>2019-04-02T06:06:02Z</time>
      </trkpt>
      <trkpt lat="47.79347" lon="3.57268">
        <ele>176</ele>
        <time>2019-04-02T06:06:05Z</time>
      </trkpt>
      <trkpt lat="47.79347" lon="3.57261">
        <ele>175</ele>
        <time>2019-04-02T06:06:08Z</time>
      </trkpt>
      <trkpt lat="47.79348" lon="3.5725">
        <ele>173</ele>
        <time>2019-04-02T06:06:13Z</time>
      </trkpt>
      <trkpt lat="47.7935" lon="3.57242">
        <ele>171</ele>
        <time>2019-04-02T06:06:17Z</time>
      </trkpt>
      <trkpt lat="47.79349" lon="3.57235">
        <ele>172</ele>
        <time>2019-04-02T06:06:20Z</time>
      </trkpt>
      <trkpt lat="47.79348" lon="3.57228">
        <ele>171</ele>
        <time>2019-04-02T06:06:23Z</time>
      </trkpt>
      <trkpt lat="47.79348" lon="3.57222">
        <ele>170</ele>
        <time>2019-04-02T06:06:26Z</time>
      </trkpt>
      <trkpt lat="47.79347" lon="3.57217">
        <ele>170</ele>
        <time>2019-04-02T06:06:29Z</time>
      </trkpt>
      <trkpt lat="47.79347" lon="3.5721">
        <ele>169</ele>
        <time>2019-04-02T06:06:34Z</time>
      </trkpt>
      <trkpt lat="47.79348" lon="3.57203">
        <ele>170</ele>
        <time>2019-04-02T06:06:40Z</time>
      </trkpt>
      <trkpt lat="47.79345" lon="3.57197">
        <ele>170</ele>
        <time>2019-04-02T06:06:45Z</time>
      </trkpt>
      <trkpt lat="47.79341" lon="3.57189">
        <ele>167</ele>
        <time>2019-04-02T06:06:49Z</time>
      </trkpt>
      <trkpt lat="47.79343" lon="3.57179">
        <ele>168</ele>
        <time>2019-04-02T06:06:55Z</time>
      </trkpt>
      <trkpt lat="47.79346" lon="3.57174">
        <ele>169</ele>
        <time>2019-04-02T06:07:01Z</time>
      </trkpt>
      <trkpt lat="47.79352" lon="3.57172">
        <ele>171</ele>
        <time>2019-04-02T06:07:07Z</time>
      </trkpt>
      <trkpt lat="47.79356" lon="3.57177">
        <ele>171</ele>
        <time>2019-04-02T06:07:12Z</time>
      </trkpt>
      <trkpt lat="47.79358" lon="3.57184">
        <ele>171</ele>
        <time>2019-04-02T06:07:16Z</time>
      </trkpt>
      <trkpt lat="47.79361" lon="3.57189">
        <ele>169</ele>
        <time>2019-04-02T06:07:20Z</time>
      </trkpt>
      <trkpt lat="47.79366" lon="3.57187">
        <ele>171</ele>
        <time>2019-04-02T06:07:29Z</time>
      </trkpt>
      <trkpt lat="47.79375" lon="3.57187">
        <ele>173</ele>
        <time>2019-04-02T06:07:39Z</time>
      </trkpt>
      <trkpt lat="47.79377" lon="3.57194">
        <ele>175</ele>
        <time>2019-04-02T06:07:44Z</time>
      </trkpt>
      <trkpt lat="47.79382" lon="3.57199">
        <ele>175</ele>
        <time>2019-04-02T06:07:48Z</time>
      </trkpt>
      <trkpt lat="47.79386" lon="3.57202">
        <ele>176</ele>
        <time>2019-04-02T06:07:51Z</time>
      </trkpt>
      <trkpt lat="47.79389" lon="3.5721">
        <ele>176</ele>
        <time>2019-04-02T06:07:54Z</time>
      </trkpt>
      <trkpt lat="47.79395" lon="3.57208">
        <ele>175</ele>
        <time>2019-04-02T06:08:00Z</time>
      </trkpt>
      <trkpt lat="47.79401" lon="3.57208">
        <ele>177</ele>
        <time>2019-04-02T06:08:04Z</time>
      </trkpt>
      <trkpt lat="47.79404" lon="3.57213">
        <ele>177</ele>
        <time>2019-04-02T06:08:07Z</time>
      </trkpt>
      <trkpt lat="47.79411" lon="3.57214">
        <ele>178</ele>
        <time>2019-04-02T06:08:12Z</time>
      </trkpt>
      <trkpt lat="47.79415" lon="3.57214">
        <ele>178</ele>
        <time>2019-04-02T06:08:14Z</time>
      </trkpt>
      <trkpt lat="47.7942" lon="3.57217">
        <ele>177</ele>
        <time>2019-04-02T06:08:18Z</time>
      </trkpt>
      <trkpt lat="47.79423" lon="3.57222">
        <ele>178</ele>
        <time>2019-04-02T06:08:22Z</time>
      </trkpt>
      <trkpt lat="47.79431" lon="3.57227">
        <ele>180</ele>
        <time>2019-04-02T06:08:29Z</time>
      </trkpt>
      <trkpt lat="47.79431" lon="3.57234">
        <ele>178</ele>
        <time>2019-04-02T06:08:32Z</time>
      </trkpt>
      <trkpt lat="47.79436" lon="3.57241">
        <ele>180</ele>
        <time>2019-04-02T06:08:38Z</time>
      </trkpt>
      <trkpt lat="47.79439" lon="3.57247">
        <ele>179</ele>
        <time>2019-04-02T06:08:42Z</time>
      </trkpt>
      <trkpt lat="47.79442" lon="3.57252">
        <ele>179</ele>
        <time>2019-04-02T06:08:45Z</time>
      </trkpt>
      <trkpt lat="47.79446" lon="3.57258">
        <ele>177</ele>
        <time>2019-04-02T06:08:49Z</time>
      </trkpt>
      <trkpt lat="47.79445" lon="3.57267">
        <ele>175</ele>
        <time>2019-04-02T06:08:55Z</time>
      </trkpt>
      <trkpt lat="47.79445" lon="3.57272">
        <ele>174</ele>
        <time>2019-04-02T06:08:57Z</time>
      </trkpt>
      <trkpt lat="47.79448" lon="3.5728">
        <ele>173</ele>
        <time>2019-04-02T06:09:01Z</time>
      </trkpt>
      <trkpt lat="47.79451" lon="3.57285">
        <ele>172</ele>
        <time>2019-04-02T06:09:04Z</time>
      </trkpt>
      <trkpt lat="47.79453" lon="3.57293">
        <ele>172</ele>
        <time>2019-04-02T06:09:08Z</time>
      </trkpt>
      <trkpt lat="47.79454" lon="3.573">
        <ele>171</ele>
        <time>2019-04-02T06:09:12Z</time>
      </trkpt>
      <trkpt lat="47.79458" lon="3.57306">
        <ele>171</ele>
        <time>2019-04-02T06:09:16Z</time>
      </trkpt>
      <trkpt lat="47.79457" lon="3.57314">
        <ele>171</ele>
        <time>2019-04-02T06:09:19Z</time>
      </trkpt>
      <trkpt lat="47.79457" lon="3.57318">
        <ele>170</ele>
        <time>2019-04-02T06:09:21Z</time>
      </trkpt>
      <trkpt lat="47.79457" lon="3.57324">
        <ele>170</ele>
        <time>2019-04-02T06:09:24Z</time>
      </trkpt>
      <trkpt lat="47.79457" lon="3.57333">
        <ele>168</ele>
        <time>2019-04-02T06:09:28Z</time>
      </trkpt>
      <trkpt lat="47.7946" lon="3.5734">
        <ele>164</ele>
        <time>2019-04-02T06:09:32Z</time>
      </trkpt>
      <trkpt lat="47.79459" lon="3.57348">
        <ele>164</ele>
        <time>2019-04-02T06:09:36Z</time>
      </trkpt>
      <trkpt lat="47.79461" lon="3.57355">
        <ele>163</ele>
        <time>2019-04-02T06:09:40Z</time>
      </trkpt>
      <trkpt lat="47.79464" lon="3.57361">
        <ele>162</ele>
        <time>2019-04-02T06:09:43Z</time>
      </trkpt>
      <trkpt lat="47.79464" lon="3.57369">
        <ele>162</ele>
        <time>2019-04-02T06:09:47Z</time>
      </trkpt>
      <trkpt lat="47.79465" lon="3.57377">
        <ele>162</ele>
        <time>2019-04-02T06:09:51Z</time>
      </trkpt>
      <trkpt lat="47.79463" lon="3.57383">
        <ele>163</ele>
        <time>2019-04-02T06:09:55Z</time>
      </trkpt>
      <trkpt lat="47.79462" lon="3.57388">
        <ele>164</ele>
        <time>2019-04-02T06:09:57Z</time>
      </trkpt>
      <trkpt lat="47.79461" lon="3.57395">
        <ele>165</ele>
        <time>2019-04-02T06:10:00Z</time>
      </trkpt>
      <trkpt lat="47.79461" lon="3.57401">
        <ele>165</ele>
        <time>2019-04-02T06:10:04Z</time>
      </trkpt>
      <trkpt lat="47.79459" lon="3.57408">
        <ele>165</ele>
        <time>2019-04-02T06:10:08Z</time>
      </trkpt>
      <trkpt lat="47.79455" lon="3.57412">
        <ele>166</ele>
        <time>2019-04-02T06:10:11Z</time>
      </trkpt>
      <trkpt lat="47.79452" lon="3.57419">
        <ele>167</ele>
        <time>2019-04-02T06:10:16Z</time>
      </trkpt>
      <trkpt lat="47.7945" lon="3.57425">
        <ele>169</ele>
        <time>2019-04-02T06:10:20Z</time>
      </trkpt>
      <trkpt lat="47.7945" lon="3.57432">
        <ele>168</ele>
        <time>2019-04-02T06:10:24Z</time>
      </trkpt>
      <trkpt lat="47.79448" lon="3.57439">
        <ele>168</ele>
        <time>2019-04-02T06:10:28Z</time>
      </trkpt>
      <trkpt lat="47.79446" lon="3.57445">
        <ele>168</ele>
        <time>2019-04-02T06:10:32Z</time>
      </trkpt>
      <trkpt lat="47.79448" lon="3.57452">
        <ele>168</ele>
        <time>2019-04-02T06:10:37Z</time>
      </trkpt>
      <trkpt lat="47.79448" lon="3.57461">
        <ele>167</ele>
        <time>2019-04-02T06:10:42Z</time>
      </trkpt>
      <trkpt lat="47.79449" lon="3.57469">
        <ele>165</ele>
        <time>2019-04-02T06:10:46Z</time>
      </trkpt>
      <trkpt lat="47.7945" lon="3.57475">
        <ele>166</ele>
        <time>2019-04-02T06:10:51Z</time>
      </trkpt>
      <trkpt lat="47.79447" lon="3.57482">
        <ele>167</ele>
        <time>2019-04-02T06:10:55Z</time>
      </trkpt>
      <trkpt lat="47.79447" lon="3.5749">
        <ele>166</ele>
        <time>2019-04-02T06:10:59Z</time>
      </trkpt>
      <trkpt lat="47.79447" lon="3.57493">
        <ele>165</ele>
        <time>2019-04-02T06:11:01Z</time>
      </trkpt>
      <trkpt lat="47.79447" lon="3.57499">
        <ele>165</ele>
        <time>2019-04-02T06:11:03Z</time>
      </trkpt>
      <trkpt lat="47.79447" lon="3.57507">
        <ele>161</ele>
        <time>2019-04-02T06:11:08Z</time>
      </trkpt>
      <trkpt lat="47.79448" lon="3.57515">
        <ele>159</ele>
        <time>2019-04-02T06:11:13Z</time>
      </trkpt>
      <trkpt lat="47.79448" lon="3.57522">
        <ele>158</ele>
        <time>2019-04-02T06:11:17Z</time>
      </trkpt>
      <trkpt lat="47.79445" lon="3.57531">
        <ele>155</ele>
        <time>2019-04-02T06:11:22Z</time>
      </trkpt>
      <trkpt lat="47.79443" lon="3.57541">
        <ele>154</ele>
        <time>2019-04-02T06:11:27Z</time>
      </trkpt>
      <trkpt lat="47.79441" lon="3.57548">
        <ele>155</ele>
        <time>2019-04-02T06:11:31Z</time>
      </trkpt>
      <trkpt lat="47.79441" lon="3.5755">
        <ele>155</ele>
        <time>2019-04-02T06:11:41Z</time>
      </trkpt>
      <trkpt lat="47.79444" lon="3.57554">
        <ele>167</ele>
        <time>2019-04-02T06:17:28Z</time>
      </trkpt>
      <trkpt lat="47.79445" lon="3.57564">
        <ele>167</ele>
        <time>2019-04-02T06:17:34Z</time>
      </trkpt>
      <trkpt lat="47.79448" lon="3.57569">
        <ele>166</ele>
        <time>2019-04-02T06:17:39Z</time>
      </trkpt>
      <trkpt lat="47.79448" lon="3.57576">
        <ele>166</ele>
        <time>2019-04-02T06:17:43Z</time>
      </trkpt>
      <trkpt lat="47.7945" lon="3.57584">
        <ele>166</ele>
        <time>2019-04-02T06:17:47Z</time>
      </trkpt>
      <trkpt lat="47.79453" lon="3.5759">
        <ele>166</ele>
        <time>2019-04-02T06:17:51Z</time>
      </trkpt>
      <trkpt lat="47.79455" lon="3.57594">
        <ele>166</ele>
        <time>2019-04-02T06:17:54Z</time>
      </trkpt>
      <trkpt lat="47.79459" lon="3.57598">
        <ele>166</ele>
        <time>2019-04-02T06:17:57Z</time>
      </trkpt>
      <trkpt lat="47.79462" lon="3.57606">
        <ele>165</ele>
        <time>2019-04-02T06:18:03Z</time>
      </trkpt>
      <trkpt lat="47.79463" lon="3.57612">
        <ele>165</ele>
        <time>2019-04-02T06:18:07Z</time>
      </trkpt>
      <trkpt lat="47.79464" lon="3.5762">
        <ele>164</ele>
        <time>2019-04-02T06:18:11Z</time>
      </trkpt>
      <trkpt lat="47.79466" lon="3.57626">
        <ele>165</ele>
        <time>2019-04-02T06:18:14Z</time>
      </trkpt>
      <trkpt lat="47.79467" lon="3.5763">
        <ele>165</ele>
        <time>2019-04-02T06:18:16Z</time>
      </trkpt>
      <trkpt lat="47.79469" lon="3.57636">
        <ele>163</ele>
        <time>2019-04-02T06:18:20Z</time>
      </trkpt>
      <trkpt lat="47.79469" lon="3.57644">
        <ele>162</ele>
        <time>2019-04-02T06:18:24Z</time>
      </trkpt>
      <trkpt lat="47.79467" lon="3.57651">
        <ele>161</ele>
        <time>2019-04-02T06:18:28Z</time>
      </trkpt>
      <trkpt lat="47.79469" lon="3.57661">
        <ele>161</ele>
        <time>2019-04-02T06:18:33Z</time>
      </trkpt>
      <trkpt lat="47.79473" lon="3.5767">
        <ele>161</ele>
        <time>2019-04-02T06:18:38Z</time>
      </trkpt>
      <trkpt lat="47.79477" lon="3.57677">
        <ele>161</ele>
        <time>2019-04-02T06:18:41Z</time>
      </trkpt>
      <trkpt lat="47.79477" lon="3.57685">
        <ele>160</ele>
        <time>2019-04-02T06:18:45Z</time>
      </trkpt>
      <trkpt lat="47.79478" lon="3.5769">
        <ele>161</ele>
        <time>2019-04-02T06:18:48Z</time>
      </trkpt>
      <trkpt lat="47.79479" lon="3.57699">
        <ele>161</ele>
        <time>2019-04-02T06:18:53Z</time>
      </trkpt>
      <trkpt lat="47.79479" lon="3.57706">
        <ele>161</ele>
        <time>2019-04-02T06:18:56Z</time>
      </trkpt>
      <trkpt lat="47.79474" lon="3.57712">
        <ele>161</ele>
        <time>2019-04-02T06:18:59Z</time>
      </trkpt>
      <trkpt lat="47.79467" lon="3.57716">
        <ele>162</ele>
        <time>2019-04-02T06:19:03Z</time>
      </trkpt>
      <trkpt lat="47.79464" lon="3.57718">
        <ele>162</ele>
        <time>2019-04-02T06:19:05Z</time>
      </trkpt>
      <trkpt lat="47.7947" lon="3.57718">
        <ele>162</ele>
        <time>2019-04-02T06:19:13Z</time>
      </trkpt>
      <trkpt lat="47.79478" lon="3.5772">
        <ele>165</ele>
        <time>2019-04-02T06:19:23Z</time>
      </trkpt>
      <trkpt lat="47.79482" lon="3.57724">
        <ele>166</ele>
        <time>2019-04-02T06:19:27Z</time>
      </trkpt>
      <trkpt lat="47.79486" lon="3.57729">
        <ele>167</ele>
        <time>2019-04-02T06:19:32Z</time>
      </trkpt>
      <trkpt lat="47.79491" lon="3.57733">
        <ele>169</ele>
        <time>2019-04-02T06:19:40Z</time>
      </trkpt>
      <trkpt lat="47.79496" lon="3.5774">
        <ele>168</ele>
        <time>2019-04-02T06:19:43Z</time>
      </trkpt>
      <trkpt lat="47.79497" lon="3.57751">
        <ele>167</ele>
        <time>2019-04-02T06:19:46Z</time>
      </trkpt>
      <trkpt lat="47.79499" lon="3.57758">
        <ele>162</ele>
        <time>2019-04-02T06:19:49Z</time>
      </trkpt>
      <trkpt lat="47.79503" lon="3.57766">
        <ele>161</ele>
        <time>2019-04-02T06:19:52Z</time>
      </trkpt>
      <trkpt lat="47.79508" lon="3.57772">
        <ele>160</ele>
        <time>2019-04-02T06:19:56Z</time>
      </trkpt>
      <trkpt lat="47.79508" lon="3.5778">
        <ele>160</ele>
        <time>2019-04-02T06:20:03Z</time>
      </trkpt>
      <trkpt lat="47.79508" lon="3.57786">
        <ele>157</ele>
        <time>2019-04-02T06:20:11Z</time>
      </trkpt>
      <trkpt lat="47.79516" lon="3.57789">
        <ele>147</ele>
        <time>2019-04-02T06:22:46Z</time>
      </trkpt>
      <trkpt lat="47.79518" lon="3.57796">
        <ele>149</ele>
        <time>2019-04-02T06:22:53Z</time>
      </trkpt>
      <trkpt lat="47.79519" lon="3.57801">
        <ele>148</ele>
        <time>2019-04-02T06:22:56Z</time>
      </trkpt>
      <trkpt lat="47.79519" lon="3.57801">
        <ele>148</ele>
        <time>2019-04-02T06:23:03Z</time>
      </trkpt>
      <trkpt lat="47.79521" lon="3.57808">
        <ele>150</ele>
        <time>2019-04-02T06:23:04Z</time>
      </trkpt>
      <trkpt lat="47.79518" lon="3.57814">
        <ele>150</ele>
        <time>2019-04-02T06:23:08Z</time>
      </trkpt>
      <trkpt lat="47.79516" lon="3.57817">
        <ele>151</ele>
        <time>2019-04-02T06:23:11Z</time>
      </trkpt>
      <trkpt lat="47.79515" lon="3.57825">
        <ele>151</ele>
        <time>2019-04-02T06:23:16Z</time>
      </trkpt>
      <trkpt lat="47.79514" lon="3.57831">
        <ele>151</ele>
        <time>2019-04-02T06:23:20Z</time>
      </trkpt>
      <trkpt lat="47.79511" lon="3.5784">
        <ele>150</ele>
        <time>2019-04-02T06:23:27Z</time>
      </trkpt>
      <trkpt lat="47.79509" lon="3.57844">
        <ele>151</ele>
        <time>2019-04-02T06:23:30Z</time>
      </trkpt>
      <trkpt lat="47.79506" lon="3.57849">
        <ele>151</ele>
        <time>2019-04-02T06:23:33Z</time>
      </trkpt>
      <trkpt lat="47.79503" lon="3.57855">
        <ele>152</ele>
        <time>2019-04-02T06:23:38Z</time>
      </trkpt>
      <trkpt lat="47.79501" lon="3.57858">
        <ele>151</ele>
        <time>2019-04-02T06:23:41Z</time>
      </trkpt>
      <trkpt lat="47.79501" lon="3.57864">
        <ele>154</ele>
        <time>2019-04-02T06:23:49Z</time>
      </trkpt>
      <trkpt lat="47.79503" lon="3.57872">
        <ele>153</ele>
        <time>2019-04-02T06:23:56Z</time>
      </trkpt>
      <trkpt lat="47.79503" lon="3.5788">
        <ele>151</ele>
        <time>2019-04-02T06:24:00Z</time>
      </trkpt>
      <trkpt lat="47.79501" lon="3.57887">
        <ele>152</ele>
        <time>2019-04-02T06:24:03Z</time>
      </trkpt>
      <trkpt lat="47.79499" lon="3.57895">
        <ele>151</ele>
        <time>2019-04-02T06:24:08Z</time>
      </trkpt>
      <trkpt lat="47.79498" lon="3.57902">
        <ele>150</ele>
        <time>2019-04-02T06:24:12Z</time>
      </trkpt>
      <trkpt lat="47.79497" lon="3.5791">
        <ele>149</ele>
        <time>2019-04-02T06:24:16Z</time>
      </trkpt>
      <trkpt lat="47.79494" lon="3.57916">
        <ele>147</ele>
        <time>2019-04-02T06:24:20Z</time>
      </trkpt>
      <trkpt lat="47.79492" lon="3.5792">
        <ele>146</ele>
        <time>2019-04-02T06:24:23Z</time>
      </trkpt>
      <trkpt lat="47.7949" lon="3.57923">
        <ele>147</ele>
        <time>2019-04-02T06:24:26Z</time>
      </trkpt>
      <trkpt lat="47.79489" lon="3.57928">
        <ele>148</ele>
        <time>2019-04-02T06:24:29Z</time>
      </trkpt>
      <trkpt lat="47.79487" lon="3.57936">
        <ele>148</ele>
        <time>2019-04-02T06:24:34Z</time>
      </trkpt>
      <trkpt lat="47.79485" lon="3.57942">
        <ele>146</ele>
        <time>2019-04-02T06:24:38Z</time>
      </trkpt>
      <trkpt lat="47.79484" lon="3.57949">
        <ele>146</ele>
        <time>2019-04-02T06:24:41Z</time>
      </trkpt>
      <trkpt lat="47.79482" lon="3.57955">
        <ele>146</ele>
        <time>2019-04-02T06:24:44Z</time>
      </trkpt>
      <trkpt lat="47.79479" lon="3.5796">
        <ele>145</ele>
        <time>2019-04-02T06:24:48Z</time>
      </trkpt>
      <trkpt lat="47.79477" lon="3.57963">
        <ele>146</ele>
        <time>2019-04-02T06:24:50Z</time>
      </trkpt>
      <trkpt lat="47.79474" lon="3.5797">
        <ele>146</ele>
        <time>2019-04-02T06:24:53Z</time>
      </trkpt>
      <trkpt lat="47.79472" lon="3.57977">
        <ele>147</ele>
        <time>2019-04-02T06:24:57Z</time>
      </trkpt>
      <trkpt lat="47.7947" lon="3.57981">
        <ele>147</ele>
        <time>2019-04-02T06:25:00Z</time>
      </trkpt>
      <trkpt lat="47.79469" lon="3.57991">
        <ele>147</ele>
        <time>2019-04-02T06:25:06Z</time>
      </trkpt>
      <trkpt lat="47.79466" lon="3.57998">
        <ele>147</ele>
        <time>2019-04-02T06:25:10Z</time>
      </trkpt>
      <trkpt lat="47.79462" lon="3.58004">
        <ele>146</ele>
        <time>2019-04-02T06:25:14Z</time>
      </trkpt>
      <trkpt lat="47.7946" lon="3.58011">
        <ele>147</ele>
        <time>2019-04-02T06:25:18Z</time>
      </trkpt>
      <trkpt lat="47.79458" lon="3.58018">
        <ele>147</ele>
        <time>2019-04-02T06:25:22Z</time>
      </trkpt>
      <trkpt lat="47.79455" lon="3.58023">
        <ele>146</ele>
        <time>2019-04-02T06:25:25Z</time>
      </trkpt>
      <trkpt lat="47.79452" lon="3.5803">
        <ele>145</ele>
        <time>2019-04-02T06:25:29Z</time>
      </trkpt>
      <trkpt lat="47.7945" lon="3.58038">
        <ele>145</ele>
        <time>2019-04-02T06:25:34Z</time>
      </trkpt>
      <trkpt lat="47.79448" lon="3.58045">
        <ele>147</ele>
        <time>2019-04-02T06:25:41Z</time>
      </trkpt>
      <trkpt lat="47.79448" lon="3.58053">
        <ele>148</ele>
        <time>2019-04-02T06:25:46Z</time>
      </trkpt>
      <trkpt lat="47.79449" lon="3.5806">
        <ele>151</ele>
        <time>2019-04-02T06:25:52Z</time>
      </trkpt>
      <trkpt lat="47.7945" lon="3.58068">
        <ele>152</ele>
        <time>2019-04-02T06:25:56Z</time>
      </trkpt>
      <trkpt lat="47.79447" lon="3.58076">
        <ele>153</ele>
        <time>2019-04-02T06:26:01Z</time>
      </trkpt>
      <trkpt lat="47.79445" lon="3.58085">
        <ele>152</ele>
        <time>2019-04-02T06:26:05Z</time>
      </trkpt>
      <trkpt lat="47.79441" lon="3.58092">
        <ele>151</ele>
        <time>2019-04-02T06:26:09Z</time>
      </trkpt>
      <trkpt lat="47.79439" lon="3.58095">
        <ele>150</ele>
        <time>2019-04-02T06:26:11Z</time>
      </trkpt>
      <trkpt lat="47.79436" lon="3.581">
        <ele>150</ele>
        <time>2019-04-02T06:26:14Z</time>
      </trkpt>
      <trkpt lat="47.79434" lon="3.58107">
        <ele>148</ele>
        <time>2019-04-02T06:26:19Z</time>
      </trkpt>
      <trkpt lat="47.7943" lon="3.58113">
        <ele>148</ele>
        <time>2019-04-02T06:26:23Z</time>
      </trkpt>
      <trkpt lat="47.79426" lon="3.58122">
        <ele>148</ele>
        <time>2019-04-02T06:26:28Z</time>
      </trkpt>
      <trkpt lat="47.79423" lon="3.58128">
        <ele>148</ele>
        <time>2019-04-02T06:26:32Z</time>
      </trkpt>
      <trkpt lat="47.79421" lon="3.58134">
        <ele>148</ele>
        <time>2019-04-02T06:26:35Z</time>
      </trkpt>
      <trkpt lat="47.79419" lon="3.58145">
        <ele>149</ele>
        <time>2019-04-02T06:26:42Z</time>
      </trkpt>
      <trkpt lat="47.79416" lon="3.58151">
        <ele>148</ele>
        <time>2019-04-02T06:26:46Z</time>
      </trkpt>
      <trkpt lat="47.79415" lon="3.58158">
        <ele>148</ele>
        <time>2019-04-02T06:26:50Z</time>
      </trkpt>
      <trkpt lat="47.79413" lon="3.58164">
        <ele>150</ele>
        <time>2019-04-02T06:26:53Z</time>
      </trkpt>
      <trkpt lat="47.79411" lon="3.58171">
        <ele>150</ele>
        <time>2019-04-02T06:26:56Z</time>
      </trkpt>
      <trkpt lat="47.7941" lon="3.58178">
        <ele>149</ele>
        <time>2019-04-02T06:27:00Z</time>
      </trkpt>
      <trkpt lat="47.79407" lon="3.58185">
        <ele>150</ele>
        <time>2019-04-02T06:27:04Z</time>
      </trkpt>
      <trkpt lat="47.79412" lon="3.58191">
        <ele>148</ele>
        <time>2019-04-02T06:27:09Z</time>
      </trkpt>
      <trkpt lat="47.79413" lon="3.58192">
        <ele>148</ele>
        <time>2019-04-02T06:27:18Z</time>
      </trkpt>
      <trkpt lat="47.79413" lon="3.582">
        <ele>145</ele>
        <time>2019-04-02T06:27:51Z</time>
      </trkpt>
      <trkpt lat="47.79404" lon="3.58199">
        <ele>146</ele>
        <time>2019-04-02T06:27:59Z</time>
      </trkpt>
      <trkpt lat="47.79399" lon="3.58202">
        <ele>146</ele>
        <time>2019-04-02T06:28:05Z</time>
      </trkpt>
      <trkpt lat="47.79395" lon="3.58206">
        <ele>146</ele>
        <time>2019-04-02T06:28:10Z</time>
      </trkpt>
      <trkpt lat="47.7939" lon="3.58209">
        <ele>142</ele>
        <time>2019-04-02T06:28:15Z</time>
      </trkpt>
      <trkpt lat="47.79387" lon="3.5821">
        <ele>142</ele>
        <time>2019-04-02T06:28:17Z</time>
      </trkpt>
      <trkpt lat="47.79384" lon="3.58212">
        <ele>141</ele>
        <time>2019-04-02T06:28:19Z</time>
      </trkpt>
      <trkpt lat="47.79381" lon="3.58214">
        <ele>142</ele>
        <time>2019-04-02T06:28:21Z</time>
      </trkpt>
      <trkpt lat="47.79375" lon="3.58219">
        <ele>141</ele>
        <time>2019-04-02T06:28:25Z</time>
      </trkpt>
      <trkpt lat="47.79373" lon="3.58221">
        <ele>142</ele>
        <time>2019-04-02T06:28:27Z</time>
      </trkpt>
      <trkpt lat="47.79372" lon="3.58229">
        <ele>141</ele>
        <time>2019-04-02T06:28:31Z</time>
      </trkpt>
      <trkpt lat="47.79371" lon="3.58233">
        <ele>140</ele>
        <time>2019-04-02T06:28:33Z</time>
      </trkpt>
      <trkpt lat="47.79369" lon="3.5824">
        <ele>141</ele>
        <time>2019-04-02T06:28:37Z</time>
      </trkpt>
      <trkpt lat="47.79366" lon="3.58245">
        <ele>143</ele>
        <time>2019-04-02T06:28:41Z</time>
      </trkpt>
      <trkpt lat="47.79364" lon="3.58248">
        <ele>144</ele>
        <time>2019-04-02T06:28:43Z</time>
      </trkpt>
      <trkpt lat="47.79362" lon="3.58251">
        <ele>145</ele>
        <time>2019-04-02T06:28:45Z</time>
      </trkpt>
      <trkpt lat="47.7936" lon="3.58254">
        <ele>146</ele>
        <time>2019-04-02T06:28:47Z</time>
      </trkpt>
      <trkpt lat="47.79358" lon="3.58257">
        <ele>146</ele>
        <time>2019-04-02T06:28:49Z</time>
      </trkpt>
      <trkpt lat="47.79354" lon="3.58262">
        <ele>146</ele>
        <time>2019-04-02T06:28:53Z</time>
      </trkpt>
      <trkpt lat="47.7935" lon="3.58266">
        <ele>147</ele>
        <time>2019-04-02T06:28:57Z</time>
      </trkpt>
      <trkpt lat="47.79346" lon="3.5827">
        <ele>147</ele>
        <time>2019-04-02T06:29:02Z</time>
      </trkpt>
      <trkpt lat="47.79342" lon="3.58275">
        <ele>148</ele>
        <time>2019-04-02T06:29:06Z</time>
      </trkpt>
      <trkpt lat="47.79338" lon="3.58279">
        <ele>147</ele>
        <time>2019-04-02T06:29:10Z</time>
      </trkpt>
      <trkpt lat="47.79333" lon="3.58282">
        <ele>146</ele>
        <time>2019-04-02T06:29:13Z</time>
      </trkpt>
      <trkpt lat="47.7933" lon="3.58284">
        <ele>146</ele>
        <time>2019-04-02T06:29:15Z</time>
      </trkpt>
      <trkpt lat="47.79327" lon="3.58285">
        <ele>147</ele>
        <time>2019-04-02T06:29:17Z</time>
      </trkpt>
      <trkpt lat="47.79324" lon="3.5829">
        <ele>149</ele>
        <time>2019-04-02T06:29:20Z</time>
      </trkpt>
      <trkpt lat="47.79318" lon="3.58293">
        <ele>148</ele>
        <time>2019-04-02T06:29:26Z</time>
      </trkpt>
      <trkpt lat="47.79315" lon="3.58303">
        <ele>147</ele>
        <time>2019-04-02T06:29:31Z</time>
      </trkpt>
      <trkpt lat="47.79308" lon="3.58305">
        <ele>147</ele>
        <time>2019-04-02T06:29:36Z</time>
      </trkpt>
      <trkpt lat="47.793" lon="3.58304">
        <ele>147</ele>
        <time>2019-04-02T06:29:40Z</time>
      </trkpt>
      <trkpt lat="47.79297" lon="3.58304">
        <ele>149</ele>
        <time>2019-04-02T06:29:43Z</time>
      </trkpt>
      <trkpt lat="47.79294" lon="3.58311">
        <ele>150</ele>
        <time>2019-04-02T06:29:49Z</time>
      </trkpt>
      <trkpt lat="47.7929" lon="3.58316">
        <ele>149</ele>
        <time>2019-04-02T06:29:53Z</time>
      </trkpt>
      <trkpt lat="47.79286" lon="3.5832">
        <ele>149</ele>
        <time>2019-04-02T06:29:57Z</time>
      </trkpt>
      <trkpt lat="47.79281" lon="3.58322">
        <ele>149</ele>
        <time>2019-04-02T06:30:00Z</time>
      </trkpt>
      <trkpt lat="47.79277" lon="3.58327">
        <ele>148</ele>
        <time>2019-04-02T06:30:04Z</time>
      </trkpt>
      <trkpt lat="47.79273" lon="3.58336">
        <ele>145</ele>
        <time>2019-04-02T06:30:10Z</time>
      </trkpt>
      <trkpt lat="47.7927" lon="3.58342">
        <ele>144</ele>
        <time>2019-04-02T06:30:13Z</time>
      </trkpt>
      <trkpt lat="47.79269" lon="3.58346">
        <ele>142</ele>
        <time>2019-04-02T06:30:15Z</time>
      </trkpt>
      <trkpt lat="47.79267" lon="3.58349">
        <ele>141</ele>
        <time>2019-04-02T06:30:17Z</time>
      </trkpt>
      <trkpt lat="47.79265" lon="3.58355">
        <ele>142</ele>
        <time>2019-04-02T06:30:21Z</time>
      </trkpt>
      <trkpt lat="47.79264" lon="3.58362">
        <ele>142</ele>
        <time>2019-04-02T06:30:25Z</time>
      </trkpt>
      <trkpt lat="47.79262" lon="3.5837">
        <ele>142</ele>
        <time>2019-04-02T06:30:30Z</time>
      </trkpt>
      <trkpt lat="47.79261" lon="3.58378">
        <ele>143</ele>
        <time>2019-04-02T06:30:33Z</time>
      </trkpt>
      <trkpt lat="47.7926" lon="3.58382">
        <ele>143</ele>
        <time>2019-04-02T06:30:35Z</time>
      </trkpt>
      <trkpt lat="47.79255" lon="3.58388">
        <ele>142</ele>
        <time>2019-04-02T06:30:38Z</time>
      </trkpt>
      <trkpt lat="47.79253" lon="3.5839">
        <ele>142</ele>
        <time>2019-04-02T06:30:40Z</time>
      </trkpt>
      <trkpt lat="47.7925" lon="3.58398">
        <ele>143</ele>
        <time>2019-04-02T06:30:45Z</time>
      </trkpt>
      <trkpt lat="47.79249" lon="3.58402">
        <ele>143</ele>
        <time>2019-04-02T06:30:48Z</time>
      </trkpt>
      <trkpt lat="47.79244" lon="3.58412">
        <ele>143</ele>
        <time>2019-04-02T06:30:54Z</time>
      </trkpt>
      <trkpt lat="47.79242" lon="3.58419">
        <ele>143</ele>
        <time>2019-04-02T06:30:58Z</time>
      </trkpt>
      <trkpt lat="47.7924" lon="3.58428">
        <ele>144</ele>
        <time>2019-04-02T06:31:02Z</time>
      </trkpt>
      <trkpt lat="47.7924" lon="3.58435">
        <ele>143</ele>
        <time>2019-04-02T06:31:05Z</time>
      </trkpt>
      <trkpt lat="47.79239" lon="3.58444">
        <ele>143</ele>
        <time>2019-04-02T06:31:09Z</time>
      </trkpt>
      <trkpt lat="47.79236" lon="3.5845">
        <ele>143</ele>
        <time>2019-04-02T06:31:12Z</time>
      </trkpt>
      <trkpt lat="47.79232" lon="3.58456">
        <ele>142</ele>
        <time>2019-04-02T06:31:16Z</time>
      </trkpt>
      <trkpt lat="47.79227" lon="3.58463">
        <ele>141</ele>
        <time>2019-04-02T06:31:20Z</time>
      </trkpt>
      <trkpt lat="47.79223" lon="3.58469">
        <ele>139</ele>
        <time>2019-04-02T06:31:23Z</time>
      </trkpt>
      <trkpt lat="47.79221" lon="3.58476">
        <ele>142</ele>
        <time>2019-04-02T06:31:28Z</time>
      </trkpt>
      <trkpt lat="47.79218" lon="3.58483">
        <ele>143</ele>
        <time>2019-04-02T06:31:33Z</time>
      </trkpt>
      <trkpt lat="47.79215" lon="3.5849">
        <ele>145</ele>
        <time>2019-04-02T06:31:37Z</time>
      </trkpt>
      <trkpt lat="47.79213" lon="3.58497">
        <ele>146</ele>
        <time>2019-04-02T06:31:40Z</time>
      </trkpt>
      <trkpt lat="47.79211" lon="3.58503">
        <ele>146</ele>
        <time>2019-04-02T06:31:44Z</time>
      </trkpt>
      <trkpt lat="47.79209" lon="3.58511">
        <ele>146</ele>
        <time>2019-04-02T06:31:48Z</time>
      </trkpt>
      <trkpt lat="47.79206" lon="3.58517">
        <ele>147</ele>
        <time>2019-04-02T06:31:53Z</time>
      </trkpt>
      <trkpt lat="47.79202" lon="3.58525">
        <ele>147</ele>
        <time>2019-04-02T06:31:59Z</time>
      </trkpt>
      <trkpt lat="47.792" lon="3.58531">
        <ele>146</ele>
        <time>2019-04-02T06:32:02Z</time>
      </trkpt>
      <trkpt lat="47.79197" lon="3.58538">
        <ele>146</ele>
        <time>2019-04-02T06:32:05Z</time>
      </trkpt>
      <trkpt lat="47.79194" lon="3.58544">
        <ele>145</ele>
        <time>2019-04-02T06:32:08Z</time>
      </trkpt>
      <trkpt lat="47.79193" lon="3.58547">
        <ele>145</ele>
        <time>2019-04-02T06:32:10Z</time>
      </trkpt>
      <trkpt lat="47.79192" lon="3.5855">
        <ele>144</ele>
        <time>2019-04-02T06:32:12Z</time>
      </trkpt>
      <trkpt lat="47.79189" lon="3.58556">
        <ele>146</ele>
        <time>2019-04-02T06:32:16Z</time>
      </trkpt>
      <trkpt lat="47.79188" lon="3.5856">
        <ele>147</ele>
        <time>2019-04-02T06:32:18Z</time>
      </trkpt>
      <trkpt lat="47.79182" lon="3.58567">
        <ele>147</ele>
        <time>2019-04-02T06:32:23Z</time>
      </trkpt>
      <trkpt lat="47.79179" lon="3.58573">
        <ele>147</ele>
        <time>2019-04-02T06:32:26Z</time>
      </trkpt>
      <trkpt lat="47.79176" lon="3.58581">
        <ele>147</ele>
        <time>2019-04-02T06:32:29Z</time>
      </trkpt>
      <trkpt lat="47.79173" lon="3.58586">
        <ele>146</ele>
        <time>2019-04-02T06:32:34Z</time>
      </trkpt>
      <trkpt lat="47.7917" lon="3.58592">
        <ele>145</ele>
        <time>2019-04-02T06:32:38Z</time>
      </trkpt>
      <trkpt lat="47.79167" lon="3.58597">
        <ele>145</ele>
        <time>2019-04-02T06:32:42Z</time>
      </trkpt>
      <trkpt lat="47.79164" lon="3.58602">
        <ele>144</ele>
        <time>2019-04-02T06:32:45Z</time>
      </trkpt>
      <trkpt lat="47.79161" lon="3.58608">
        <ele>144</ele>
        <time>2019-04-02T06:32:48Z</time>
      </trkpt>
      <trkpt lat="47.79158" lon="3.58614">
        <ele>144</ele>
        <time>2019-04-02T06:32:52Z</time>
      </trkpt>
      <trkpt lat="47.79153" lon="3.58622">
        <ele>145</ele>
        <time>2019-04-02T06:32:56Z</time>
      </trkpt>
      <trkpt lat="47.7915" lon="3.58628">
        <ele>146</ele>
        <time>2019-04-02T06:33:00Z</time>
      </trkpt>
      <trkpt lat="47.79147" lon="3.58633">
        <ele>147</ele>
        <time>2019-04-02T06:33:03Z</time>
      </trkpt>
      <trkpt lat="47.79143" lon="3.58638">
        <ele>146</ele>
        <time>2019-04-02T06:33:06Z</time>
      </trkpt>
      <trkpt lat="47.79139" lon="3.58645">
        <ele>147</ele>
        <time>2019-04-02T06:33:10Z</time>
      </trkpt>
      <trkpt lat="47.79137" lon="3.58648">
        <ele>147</ele>
        <time>2019-04-02T06:33:12Z</time>
      </trkpt>
      <trkpt lat="47.79135" lon="3.58654">
        <ele>147</ele>
        <time>2019-04-02T06:33:16Z</time>
      </trkpt>
      <trkpt lat="47.79131" lon="3.58659">
        <ele>148</ele>
        <time>2019-04-02T06:33:20Z</time>
      </trkpt>
      <trkpt lat="47.79127" lon="3.58662">
        <ele>148</ele>
        <time>2019-04-02T06:33:23Z</time>
      </trkpt>
      <trkpt lat="47.79123" lon="3.58665">
        <ele>148</ele>
        <time>2019-04-02T06:33:26Z</time>
      </trkpt>
      <trkpt lat="47.79119" lon="3.58669">
        <ele>147</ele>
        <time>2019-04-02T06:33:29Z</time>
      </trkpt>
      <trkpt lat="47.79117" lon="3.58672">
        <ele>146</ele>
        <time>2019-04-02T06:33:31Z</time>
      </trkpt>
      <trkpt lat="47.79113" lon="3.58678">
        <ele>146</ele>
        <time>2019-04-02T06:33:35Z</time>
      </trkpt>
      <trkpt lat="47.79111" lon="3.58681">
        <ele>147</ele>
        <time>2019-04-02T06:33:38Z</time>
      </trkpt>
      <trkpt lat="47.79107" lon="3.58685">
        <ele>147</ele>
        <time>2019-04-02T06:33:42Z</time>
      </trkpt>
      <trkpt lat="47.79104" lon="3.58692">
        <ele>146</ele>
        <time>2019-04-02T06:33:47Z</time>
      </trkpt>
      <trkpt lat="47.79099" lon="3.58697">
        <ele>146</ele>
        <time>2019-04-02T06:33:51Z</time>
      </trkpt>
      <trkpt lat="47.79096" lon="3.58701">
        <ele>145</ele>
        <time>2019-04-02T06:33:54Z</time>
      </trkpt>
      <trkpt lat="47.79094" lon="3.58704">
        <ele>146</ele>
        <time>2019-04-02T06:33:56Z</time>
      </trkpt>
      <trkpt lat="47.7909" lon="3.58708">
        <ele>145</ele>
        <time>2019-04-02T06:34:00Z</time>
      </trkpt>
      <trkpt lat="47.79086" lon="3.58712">
        <ele>143</ele>
        <time>2019-04-02T06:34:04Z</time>
      </trkpt>
      <trkpt lat="47.79083" lon="3.58715">
        <ele>143</ele>
        <time>2019-04-02T06:34:06Z</time>
      </trkpt>
      <trkpt lat="47.79079" lon="3.5872">
        <ele>144</ele>
        <time>2019-04-02T06:34:09Z</time>
      </trkpt>
      <trkpt lat="47.79077" lon="3.58722">
        <ele>144</ele>
        <time>2019-04-02T06:34:11Z</time>
      </trkpt>
      <trkpt lat="47.79072" lon="3.58724">
        <ele>145</ele>
        <time>2019-04-02T06:34:14Z</time>
      </trkpt>
      <trkpt lat="47.79065" lon="3.5873">
        <ele>145</ele>
        <time>2019-04-02T06:34:18Z</time>
      </trkpt>
      <trkpt lat="47.7906" lon="3.58732">
        <ele>145</ele>
        <time>2019-04-02T06:34:23Z</time>
      </trkpt>
      <trkpt lat="47.79055" lon="3.58737">
        <ele>145</ele>
        <time>2019-04-02T06:34:27Z</time>
      </trkpt>
      <trkpt lat="47.79052" lon="3.58739">
        <ele>145</ele>
        <time>2019-04-02T06:34:30Z</time>
      </trkpt>
      <trkpt lat="47.79048" lon="3.58744">
        <ele>146</ele>
        <time>2019-04-02T06:34:34Z</time>
      </trkpt>
      <trkpt lat="47.79045" lon="3.58748">
        <ele>146</ele>
        <time>2019-04-02T06:34:37Z</time>
      </trkpt>
      <trkpt lat="47.79041" lon="3.58751">
        <ele>147</ele>
        <time>2019-04-02T06:34:40Z</time>
      </trkpt>
      <trkpt lat="47.79036" lon="3.58753">
        <ele>147</ele>
        <time>2019-04-02T06:34:43Z</time>
      </trkpt>
      <trkpt lat="47.7903" lon="3.58759">
        <ele>147</ele>
        <time>2019-04-02T06:34:49Z</time>
      </trkpt>
      <trkpt lat="47.79026" lon="3.58762">
        <ele>147</ele>
        <time>2019-04-02T06:34:52Z</time>
      </trkpt>
      <trkpt lat="47.79024" lon="3.58764">
        <ele>147</ele>
        <time>2019-04-02T06:34:53Z</time>
      </trkpt>
      <trkpt lat="47.79019" lon="3.58768">
        <ele>147</ele>
        <time>2019-04-02T06:34:58Z</time>
      </trkpt>
      <trkpt lat="47.79017" lon="3.58771">
        <ele>147</ele>
        <time>2019-04-02T06:35:00Z</time>
      </trkpt>
      <trkpt lat="47.79015" lon="3.58773">
        <ele>146</ele>
        <time>2019-04-02T06:35:02Z</time>
      </trkpt>
      <trkpt lat="47.79011" lon="3.58775">
        <ele>147</ele>
        <time>2019-04-02T06:35:05Z</time>
      </trkpt>
      <trkpt lat="47.79006" lon="3.58779">
        <ele>147</ele>
        <time>2019-04-02T06:35:09Z</time>
      </trkpt>
      <trkpt lat="47.79003" lon="3.58783">
        <ele>147</ele>
        <time>2019-04-02T06:35:12Z</time>
      </trkpt>
      <trkpt lat="47.78999" lon="3.58786">
        <ele>147</ele>
        <time>2019-04-02T06:35:15Z</time>
      </trkpt>
      <trkpt lat="47.78996" lon="3.58789">
        <ele>147</ele>
        <time>2019-04-02T06:35:17Z</time>
      </trkpt>
      <trkpt lat="47.78993" lon="3.58792">
        <ele>147</ele>
        <time>2019-04-02T06:35:20Z</time>
      </trkpt>
      <trkpt lat="47.7899" lon="3.58797">
        <ele>147</ele>
        <time>2019-04-02T06:35:24Z</time>
      </trkpt>
      <trkpt lat="47.78989" lon="3.588">
        <ele>148</ele>
        <time>2019-04-02T06:35:26Z</time>
      </trkpt>
      <trkpt lat="47.78985" lon="3.58804">
        <ele>148</ele>
        <time>2019-04-02T06:35:29Z</time>
      </trkpt>
      <trkpt lat="47.78982" lon="3.58807">
        <ele>149</ele>
        <time>2019-04-02T06:35:31Z</time>
      </trkpt>
      <trkpt lat="47.78976" lon="3.58811">
        <ele>150</ele>
        <time>2019-04-02T06:35:35Z</time>
      </trkpt>
      <trkpt lat="47.78971" lon="3.58817">
        <ele>150</ele>
        <time>2019-04-02T06:35:40Z</time>
      </trkpt>
      <trkpt lat="47.78969" lon="3.58819">
        <ele>150</ele>
        <time>2019-04-02T06:35:42Z</time>
      </trkpt>
      <trkpt lat="47.78967" lon="3.58823">
        <ele>151</ele>
        <time>2019-04-02T06:35:44Z</time>
      </trkpt>
      <trkpt lat="47.78963" lon="3.58829">
        <ele>152</ele>
        <time>2019-04-02T06:35:48Z</time>
      </trkpt>
      <trkpt lat="47.78959" lon="3.58833">
        <ele>152</ele>
        <time>2019-04-02T06:35:51Z</time>
      </trkpt>
      <trkpt lat="47.78955" lon="3.58836">
        <ele>150</ele>
        <time>2019-04-02T06:35:54Z</time>
      </trkpt>
      <trkpt lat="47.78952" lon="3.58842">
        <ele>149</ele>
        <time>2019-04-02T06:35:58Z</time>
      </trkpt>
      <trkpt lat="47.78947" lon="3.58846">
        <ele>149</ele>
        <time>2019-04-02T06:36:02Z</time>
      </trkpt>
      <trkpt lat="47.78945" lon="3.58847">
        <ele>148</ele>
        <time>2019-04-02T06:36:04Z</time>
      </trkpt>
      <trkpt lat="47.78941" lon="3.58853">
        <ele>148</ele>
        <time>2019-04-02T06:36:08Z</time>
      </trkpt>
      <trkpt lat="47.78937" lon="3.58857">
        <ele>148</ele>
        <time>2019-04-02T06:36:12Z</time>
      </trkpt>
      <trkpt lat="47.78934" lon="3.58864">
        <ele>147</ele>
        <time>2019-04-02T06:36:16Z</time>
      </trkpt>
      <trkpt lat="47.78933" lon="3.58867">
        <ele>148</ele>
        <time>2019-04-02T06:36:18Z</time>
      </trkpt>
      <trkpt lat="47.78931" lon="3.5887">
        <ele>149</ele>
        <time>2019-04-02T06:36:20Z</time>
      </trkpt>
      <trkpt lat="47.7893" lon="3.58873">
        <ele>149</ele>
        <time>2019-04-02T06:36:22Z</time>
      </trkpt>
      <trkpt lat="47.78926" lon="3.58879">
        <ele>151</ele>
        <time>2019-04-02T06:36:25Z</time>
      </trkpt>
      <trkpt lat="47.78921" lon="3.58884">
        <ele>150</ele>
        <time>2019-04-02T06:36:28Z</time>
      </trkpt>
      <trkpt lat="47.78919" lon="3.5889">
        <ele>151</ele>
        <time>2019-04-02T06:36:32Z</time>
      </trkpt>
      <trkpt lat="47.78917" lon="3.58893">
        <ele>151</ele>
        <time>2019-04-02T06:36:33Z</time>
      </trkpt>
      <trkpt lat="47.78913" lon="3.58897">
        <ele>151</ele>
        <time>2019-04-02T06:36:37Z</time>
      </trkpt>
      <trkpt lat="47.78911" lon="3.589">
        <ele>151</ele>
        <time>2019-04-02T06:36:39Z</time>
      </trkpt>
      <trkpt lat="47.78908" lon="3.58903">
        <ele>151</ele>
        <time>2019-04-02T06:36:41Z</time>
      </trkpt>
      <trkpt lat="47.78904" lon="3.58906">
        <ele>151</ele>
        <time>2019-04-02T06:36:44Z</time>
      </trkpt>
      <trkpt lat="47.78899" lon="3.58909">
        <ele>151</ele>
        <time>2019-04-02T06:36:48Z</time>
      </trkpt>
      <trkpt lat="47.78896" lon="3.58914">
        <ele>152</ele>
        <time>2019-04-02T06:36:51Z</time>
      </trkpt>
      <trkpt lat="47.78892" lon="3.58918">
        <ele>151</ele>
        <time>2019-04-02T06:36:53Z</time>
      </trkpt>
      <trkpt lat="47.78887" lon="3.58923">
        <ele>152</ele>
        <time>2019-04-02T06:36:58Z</time>
      </trkpt>
      <trkpt lat="47.78882" lon="3.58926">
        <ele>151</ele>
        <time>2019-04-02T06:37:01Z</time>
      </trkpt>
      <trkpt lat="47.78878" lon="3.5893">
        <ele>152</ele>
        <time>2019-04-02T06:37:04Z</time>
      </trkpt>
      <trkpt lat="47.78876" lon="3.58933">
        <ele>151</ele>
        <time>2019-04-02T06:37:06Z</time>
      </trkpt>
      <trkpt lat="47.7887" lon="3.58938">
        <ele>151</ele>
        <time>2019-04-02T06:37:11Z</time>
      </trkpt>
      <trkpt lat="47.78866" lon="3.58943">
        <ele>149</ele>
        <time>2019-04-02T06:37:15Z</time>
      </trkpt>
      <trkpt lat="47.78864" lon="3.58946">
        <ele>150</ele>
        <time>2019-04-02T06:37:18Z</time>
      </trkpt>
      <trkpt lat="47.78861" lon="3.58949">
        <ele>151</ele>
        <time>2019-04-02T06:37:20Z</time>
      </trkpt>
      <trkpt lat="47.78857" lon="3.58953">
        <ele>150</ele>
        <time>2019-04-02T06:37:22Z</time>
      </trkpt>
      <trkpt lat="47.78853" lon="3.58955">
        <ele>150</ele>
        <time>2019-04-02T06:37:25Z</time>
      </trkpt>
      <trkpt lat="47.78848" lon="3.58959">
        <ele>150</ele>
        <time>2019-04-02T06:37:29Z</time>
      </trkpt>
      <trkpt lat="47.78844" lon="3.58964">
        <ele>150</ele>
        <time>2019-04-02T06:37:34Z</time>
      </trkpt>
      <trkpt lat="47.7884" lon="3.58968">
        <ele>150</ele>
        <time>2019-04-02T06:37:38Z</time>
      </trkpt>
      <trkpt lat="47.78835" lon="3.5897">
        <ele>149</ele>
        <time>2019-04-02T06:37:41Z</time>
      </trkpt>
      <trkpt lat="47.78832" lon="3.58972">
        <ele>148</ele>
        <time>2019-04-02T06:37:44Z</time>
      </trkpt>
      <trkpt lat="47.78828" lon="3.58977">
        <ele>148</ele>
        <time>2019-04-02T06:37:48Z</time>
      </trkpt>
      <trkpt lat="47.78826" lon="3.58979">
        <ele>148</ele>
        <time>2019-04-02T06:37:50Z</time>
      </trkpt>
      <trkpt lat="47.78821" lon="3.58982">
        <ele>148</ele>
        <time>2019-04-02T06:37:53Z</time>
      </trkpt>
      <trkpt lat="47.78817" lon="3.58985">
        <ele>148</ele>
        <time>2019-04-02T06:37:55Z</time>
      </trkpt>
      <trkpt lat="47.78815" lon="3.58987">
        <ele>148</ele>
        <time>2019-04-02T06:37:57Z</time>
      </trkpt>
      <trkpt lat="47.78812" lon="3.5899">
        <ele>148</ele>
        <time>2019-04-02T06:38:00Z</time>
      </trkpt>
      <trkpt lat="47.7881" lon="3.58992">
        <ele>148</ele>
        <time>2019-04-02T06:38:02Z</time>
      </trkpt>
      <trkpt lat="47.78808" lon="3.58994">
        <ele>149</ele>
        <time>2019-04-02T06:38:04Z</time>
      </trkpt>
      <trkpt lat="47.78806" lon="3.58997">
        <ele>149</ele>
        <time>2019-04-02T06:38:06Z</time>
      </trkpt>
      <trkpt lat="47.78803" lon="3.59">
        <ele>149</ele>
        <time>2019-04-02T06:38:09Z</time>
      </trkpt>
      <trkpt lat="47.78801" lon="3.59003">
        <ele>148</ele>
        <time>2019-04-02T06:38:11Z</time>
      </trkpt>
      <trkpt lat="47.78797" lon="3.59007">
        <ele>147</ele>
        <time>2019-04-02T06:38:15Z</time>
      </trkpt>
      <trkpt lat="47.78795" lon="3.59008">
        <ele>147</ele>
        <time>2019-04-02T06:38:17Z</time>
      </trkpt>
      <trkpt lat="47.78792" lon="3.59011">
        <ele>148</ele>
        <time>2019-04-02T06:38:19Z</time>
      </trkpt>
      <trkpt lat="47.78789" lon="3.59014">
        <ele>149</ele>
        <time>2019-04-02T06:38:22Z</time>
      </trkpt>
      <trkpt lat="47.78787" lon="3.59016">
        <ele>148</ele>
        <time>2019-04-02T06:38:24Z</time>
      </trkpt>
      <trkpt lat="47.78783" lon="3.5902">
        <ele>146</ele>
        <time>2019-04-02T06:38:28Z</time>
      </trkpt>
      <trkpt lat="47.78778" lon="3.59024">
        <ele>146</ele>
        <time>2019-04-02T06:38:31Z</time>
      </trkpt>
      <trkpt lat="47.78774" lon="3.59028">
        <ele>146</ele>
        <time>2019-04-02T06:38:34Z</time>
      </trkpt>
      <trkpt lat="47.78771" lon="3.5903">
        <ele>146</ele>
        <time>2019-04-02T06:38:36Z</time>
      </trkpt>
      <trkpt lat="47.78766" lon="3.59035">
        <ele>147</ele>
        <time>2019-04-02T06:38:40Z</time>
      </trkpt>
      <trkpt lat="47.78763" lon="3.59037">
        <ele>147</ele>
        <time>2019-04-02T06:38:43Z</time>
      </trkpt>
      <trkpt lat="47.78758" lon="3.5904">
        <ele>147</ele>
        <time>2019-04-02T06:38:47Z</time>
      </trkpt>
      <trkpt lat="47.78754" lon="3.59046">
        <ele>148</ele>
        <time>2019-04-02T06:38:51Z</time>
      </trkpt>
      <trkpt lat="47.78749" lon="3.5905">
        <ele>151</ele>
        <time>2019-04-02T06:38:56Z</time>
      </trkpt>
      <trkpt lat="47.78744" lon="3.59053">
        <ele>150</ele>
        <time>2019-04-02T06:39:00Z</time>
      </trkpt>
      <trkpt lat="47.78739" lon="3.59057">
        <ele>149</ele>
        <time>2019-04-02T06:39:03Z</time>
      </trkpt>
      <trkpt lat="47.78734" lon="3.5906">
        <ele>149</ele>
        <time>2019-04-02T06:39:07Z</time>
      </trkpt>
      <trkpt lat="47.78729" lon="3.59064">
        <ele>150</ele>
        <time>2019-04-02T06:39:12Z</time>
      </trkpt>
      <trkpt lat="47.78727" lon="3.59066">
        <ele>150</ele>
        <time>2019-04-02T06:39:14Z</time>
      </trkpt>
      <trkpt lat="47.78723" lon="3.59071">
        <ele>150</ele>
        <time>2019-04-02T06:39:17Z</time>
      </trkpt>
      <trkpt lat="47.78719" lon="3.59074">
        <ele>150</ele>
        <time>2019-04-02T06:39:20Z</time>
      </trkpt>
      <trkpt lat="47.78717" lon="3.59075">
        <ele>149</ele>
        <time>2019-04-02T06:39:22Z</time>
      </trkpt>
      <trkpt lat="47.78714" lon="3.59077">
        <ele>148</ele>
        <time>2019-04-02T06:39:24Z</time>
      </trkpt>
      <trkpt lat="47.78712" lon="3.59079">
        <ele>147</ele>
        <time>2019-04-02T06:39:26Z</time>
      </trkpt>
      <trkpt lat="47.78709" lon="3.59081">
        <ele>147</ele>
        <time>2019-04-02T06:39:28Z</time>
      </trkpt>
      <trkpt lat="47.78707" lon="3.59082">
        <ele>146</ele>
        <time>2019-04-02T06:39:30Z</time>
      </trkpt>
      <trkpt lat="47.78704" lon="3.59085">
        <ele>146</ele>
        <time>2019-04-02T06:39:32Z</time>
      </trkpt>
      <trkpt lat="47.78702" lon="3.59087">
        <ele>147</ele>
        <time>2019-04-02T06:39:34Z</time>
      </trkpt>
      <trkpt lat="47.78699" lon="3.59089">
        <ele>146</ele>
        <time>2019-04-02T06:39:37Z</time>
      </trkpt>
      <trkpt lat="47.78695" lon="3.59091">
        <ele>146</ele>
        <time>2019-04-02T06:39:40Z</time>
      </trkpt>
      <trkpt lat="47.7869" lon="3.59095">
        <ele>146</ele>
        <time>2019-04-02T06:39:44Z</time>
      </trkpt>
      <trkpt lat="47.78686" lon="3.59099">
        <ele>146</ele>
        <time>2019-04-02T06:39:48Z</time>
      </trkpt>
      <trkpt lat="47.78682" lon="3.59104">
        <ele>147</ele>
        <time>2019-04-02T06:39:52Z</time>
      </trkpt>
      <trkpt lat="47.78679" lon="3.59107">
        <ele>147</ele>
        <time>2019-04-02T06:39:55Z</time>
      </trkpt>
      <trkpt lat="47.78675" lon="3.59111">
        <ele>147</ele>
        <time>2019-04-02T06:39:58Z</time>
      </trkpt>
      <trkpt lat="47.78672" lon="3.59114">
        <ele>147</ele>
        <time>2019-04-02T06:40:00Z</time>
      </trkpt>
      <trkpt lat="47.7867" lon="3.59116">
        <ele>146</ele>
        <time>2019-04-02T06:40:02Z</time>
      </trkpt>
      <trkpt lat="47.78666" lon="3.59121">
        <ele>145</ele>
        <time>2019-04-02T06:40:05Z</time>
      </trkpt>
      <trkpt lat="47.78661" lon="3.59123">
        <ele>144</ele>
        <time>2019-04-02T06:40:08Z</time>
      </trkpt>
      <trkpt lat="47.78655" lon="3.59129">
        <ele>143</ele>
        <time>2019-04-02T06:40:13Z</time>
      </trkpt>
      <trkpt lat="47.78648" lon="3.59132">
        <ele>142</ele>
        <time>2019-04-02T06:40:18Z</time>
      </trkpt>
      <trkpt lat="47.78645" lon="3.59134">
        <ele>141</ele>
        <time>2019-04-02T06:40:21Z</time>
      </trkpt>
      <trkpt lat="47.78641" lon="3.59138">
        <ele>142</ele>
        <time>2019-04-02T06:40:24Z</time>
      </trkpt>
      <trkpt lat="47.78636" lon="3.59143">
        <ele>145</ele>
        <time>2019-04-02T06:40:28Z</time>
      </trkpt>
      <trkpt lat="47.78634" lon="3.59146">
        <ele>145</ele>
        <time>2019-04-02T06:40:30Z</time>
      </trkpt>
      <trkpt lat="47.78629" lon="3.5915">
        <ele>145</ele>
        <time>2019-04-02T06:40:33Z</time>
      </trkpt>
      <trkpt lat="47.78626" lon="3.59154">
        <ele>146</ele>
        <time>2019-04-02T06:40:36Z</time>
      </trkpt>
      <trkpt lat="47.78623" lon="3.59159">
        <ele>147</ele>
        <time>2019-04-02T06:40:39Z</time>
      </trkpt>
      <trkpt lat="47.78621" lon="3.59162">
        <ele>147</ele>
        <time>2019-04-02T06:40:41Z</time>
      </trkpt>
      <trkpt lat="47.78618" lon="3.59169">
        <ele>146</ele>
        <time>2019-04-02T06:40:45Z</time>
      </trkpt>
      <trkpt lat="47.78616" lon="3.59172">
        <ele>147</ele>
        <time>2019-04-02T06:40:47Z</time>
      </trkpt>
      <trkpt lat="47.78612" lon="3.59176">
        <ele>146</ele>
        <time>2019-04-02T06:40:50Z</time>
      </trkpt>
      <trkpt lat="47.7861" lon="3.59179">
        <ele>147</ele>
        <time>2019-04-02T06:40:52Z</time>
      </trkpt>
      <trkpt lat="47.78608" lon="3.59183">
        <ele>147</ele>
        <time>2019-04-02T06:40:55Z</time>
      </trkpt>
      <trkpt lat="47.78604" lon="3.5919">
        <ele>148</ele>
        <time>2019-04-02T06:40:59Z</time>
      </trkpt>
      <trkpt lat="47.78599" lon="3.59196">
        <ele>147</ele>
        <time>2019-04-02T06:41:03Z</time>
      </trkpt>
      <trkpt lat="47.78595" lon="3.59203">
        <ele>148</ele>
        <time>2019-04-02T06:41:08Z</time>
      </trkpt>
      <trkpt lat="47.78592" lon="3.59208">
        <ele>148</ele>
        <time>2019-04-02T06:41:11Z</time>
      </trkpt>
      <trkpt lat="47.78591" lon="3.59212">
        <ele>149</ele>
        <time>2019-04-02T06:41:14Z</time>
      </trkpt>
      <trkpt lat="47.78587" lon="3.59215">
        <ele>147</ele>
        <time>2019-04-02T06:41:18Z</time>
      </trkpt>
      <trkpt lat="47.78584" lon="3.59218">
        <ele>147</ele>
        <time>2019-04-02T06:41:20Z</time>
      </trkpt>
      <trkpt lat="47.78581" lon="3.59224">
        <ele>148</ele>
        <time>2019-04-02T06:41:24Z</time>
      </trkpt>
      <trkpt lat="47.78578" lon="3.5923">
        <ele>148</ele>
        <time>2019-04-02T06:41:28Z</time>
      </trkpt>
      <trkpt lat="47.78575" lon="3.59236">
        <ele>148</ele>
        <time>2019-04-02T06:41:33Z</time>
      </trkpt>
      <trkpt lat="47.78573" lon="3.59241">
        <ele>149</ele>
        <time>2019-04-02T06:41:37Z</time>
      </trkpt>
      <trkpt lat="47.78571" lon="3.59244">
        <ele>150</ele>
        <time>2019-04-02T06:41:39Z</time>
      </trkpt>
      <trkpt lat="47.78569" lon="3.59247">
        <ele>149</ele>
        <time>2019-04-02T06:41:41Z</time>
      </trkpt>
      <trkpt lat="47.78568" lon="3.59255">
        <ele>150</ele>
        <time>2019-04-02T06:41:45Z</time>
      </trkpt>
      <trkpt lat="47.78566" lon="3.59262">
        <ele>149</ele>
        <time>2019-04-02T06:41:49Z</time>
      </trkpt>
      <trkpt lat="47.78564" lon="3.59269">
        <ele>149</ele>
        <time>2019-04-02T06:41:55Z</time>
      </trkpt>
      <trkpt lat="47.78561" lon="3.59275">
        <ele>147</ele>
        <time>2019-04-02T06:42:00Z</time>
      </trkpt>
      <trkpt lat="47.78559" lon="3.59278">
        <ele>148</ele>
        <time>2019-04-02T06:42:02Z</time>
      </trkpt>
      <trkpt lat="47.78557" lon="3.59281">
        <ele>148</ele>
        <time>2019-04-02T06:42:04Z</time>
      </trkpt>
      <trkpt lat="47.78552" lon="3.59286">
        <ele>148</ele>
        <time>2019-04-02T06:42:09Z</time>
      </trkpt>
      <trkpt lat="47.78549" lon="3.59291">
        <ele>148</ele>
        <time>2019-04-02T06:42:13Z</time>
      </trkpt>
      <trkpt lat="47.78546" lon="3.59297">
        <ele>149</ele>
        <time>2019-04-02T06:42:17Z</time>
      </trkpt>
      <trkpt lat="47.78541" lon="3.59301">
        <ele>149</ele>
        <time>2019-04-02T06:42:21Z</time>
      </trkpt>
      <trkpt lat="47.78537" lon="3.59306">
        <ele>148</ele>
        <time>2019-04-02T06:42:26Z</time>
      </trkpt>
      <trkpt lat="47.78534" lon="3.5931">
        <ele>148</ele>
        <time>2019-04-02T06:42:29Z</time>
      </trkpt>
      <trkpt lat="47.78532" lon="3.59312">
        <ele>148</ele>
        <time>2019-04-02T06:42:31Z</time>
      </trkpt>
      <trkpt lat="47.78528" lon="3.59316">
        <ele>149</ele>
        <time>2019-04-02T06:42:35Z</time>
      </trkpt>
      <trkpt lat="47.78525" lon="3.59321">
        <ele>149</ele>
        <time>2019-04-02T06:42:38Z</time>
      </trkpt>
      <trkpt lat="47.78521" lon="3.59326">
        <ele>148</ele>
        <time>2019-04-02T06:42:43Z</time>
      </trkpt>
      <trkpt lat="47.78518" lon="3.59331">
        <ele>147</ele>
        <time>2019-04-02T06:42:48Z</time>
      </trkpt>
      <trkpt lat="47.78515" lon="3.59334">
        <ele>148</ele>
        <time>2019-04-02T06:42:51Z</time>
      </trkpt>
      <trkpt lat="47.7851" lon="3.59336">
        <ele>149</ele>
        <time>2019-04-02T06:42:56Z</time>
      </trkpt>
      <trkpt lat="47.78506" lon="3.5934">
        <ele>150</ele>
        <time>2019-04-02T06:42:59Z</time>
      </trkpt>
      <trkpt lat="47.78504" lon="3.59342">
        <ele>149</ele>
        <time>2019-04-02T06:43:03Z</time>
      </trkpt>
      <trkpt lat="47.78503" lon="3.59349">
        <ele>147</ele>
        <time>2019-04-02T06:43:12Z</time>
      </trkpt>
      <trkpt lat="47.78497" lon="3.59353">
        <ele>146</ele>
        <time>2019-04-02T06:43:49Z</time>
      </trkpt>
      <trkpt lat="47.78493" lon="3.59356">
        <ele>145</ele>
        <time>2019-04-02T06:43:53Z</time>
      </trkpt>
      <trkpt lat="47.78487" lon="3.59363">
        <ele>145</ele>
        <time>2019-04-02T06:44:00Z</time>
      </trkpt>
      <trkpt lat="47.78482" lon="3.59367">
        <ele>145</ele>
        <time>2019-04-02T06:44:04Z</time>
      </trkpt>
      <trkpt lat="47.78479" lon="3.59369">
        <ele>145</ele>
        <time>2019-04-02T06:44:06Z</time>
      </trkpt>
      <trkpt lat="47.78474" lon="3.59374">
        <ele>145</ele>
        <time>2019-04-02T06:44:11Z</time>
      </trkpt>
      <trkpt lat="47.7847" lon="3.59379">
        <ele>147</ele>
        <time>2019-04-02T06:44:15Z</time>
      </trkpt>
      <trkpt lat="47.78466" lon="3.59383">
        <ele>148</ele>
        <time>2019-04-02T06:44:19Z</time>
      </trkpt>
      <trkpt lat="47.78464" lon="3.59386">
        <ele>147</ele>
        <time>2019-04-02T06:44:22Z</time>
      </trkpt>
      <trkpt lat="47.7846" lon="3.5939">
        <ele>147</ele>
        <time>2019-04-02T06:44:25Z</time>
      </trkpt>
      <trkpt lat="47.78455" lon="3.59396">
        <ele>147</ele>
        <time>2019-04-02T06:44:29Z</time>
      </trkpt>
      <trkpt lat="47.7845" lon="3.594">
        <ele>145</ele>
        <time>2019-04-02T06:44:34Z</time>
      </trkpt>
      <trkpt lat="47.78445" lon="3.59403">
        <ele>145</ele>
        <time>2019-04-02T06:44:37Z</time>
      </trkpt>
      <trkpt lat="47.78442" lon="3.59405">
        <ele>145</ele>
        <time>2019-04-02T06:44:39Z</time>
      </trkpt>
      <trkpt lat="47.78438" lon="3.5941">
        <ele>144</ele>
        <time>2019-04-02T06:44:43Z</time>
      </trkpt>
      <trkpt lat="47.78436" lon="3.59416">
        <ele>144</ele>
        <time>2019-04-02T06:44:46Z</time>
      </trkpt>
      <trkpt lat="47.78431" lon="3.5942">
        <ele>146</ele>
        <time>2019-04-02T06:44:51Z</time>
      </trkpt>
      <trkpt lat="47.78428" lon="3.59425">
        <ele>147</ele>
        <time>2019-04-02T06:44:55Z</time>
      </trkpt>
      <trkpt lat="47.78424" lon="3.59428">
        <ele>148</ele>
        <time>2019-04-02T06:44:59Z</time>
      </trkpt>
      <trkpt lat="47.78419" lon="3.59433">
        <ele>149</ele>
        <time>2019-04-02T06:45:03Z</time>
      </trkpt>
      <trkpt lat="47.78416" lon="3.59437">
        <ele>149</ele>
        <time>2019-04-02T06:45:06Z</time>
      </trkpt>
      <trkpt lat="47.78411" lon="3.59442">
        <ele>148</ele>
        <time>2019-04-02T06:45:09Z</time>
      </trkpt>
      <trkpt lat="47.78406" lon="3.59446">
        <ele>149</ele>
        <time>2019-04-02T06:45:13Z</time>
      </trkpt>
      <trkpt lat="47.78403" lon="3.59449">
        <ele>148</ele>
        <time>2019-04-02T06:45:16Z</time>
      </trkpt>
      <trkpt lat="47.78399" lon="3.59453">
        <ele>148</ele>
        <time>2019-04-02T06:45:19Z</time>
      </trkpt>
      <trkpt lat="47.78394" lon="3.59456">
        <ele>147</ele>
        <time>2019-04-02T06:45:23Z</time>
      </trkpt>
      <trkpt lat="47.78389" lon="3.59463">
        <ele>147</ele>
        <time>2019-04-02T06:45:28Z</time>
      </trkpt>
      <trkpt lat="47.78385" lon="3.59472">
        <ele>148</ele>
        <time>2019-04-02T06:45:33Z</time>
      </trkpt>
      <trkpt lat="47.78381" lon="3.59477">
        <ele>148</ele>
        <time>2019-04-02T06:45:37Z</time>
      </trkpt>
      <trkpt lat="47.78379" lon="3.5948">
        <ele>149</ele>
        <time>2019-04-02T06:45:39Z</time>
      </trkpt>
      <trkpt lat="47.78377" lon="3.59485">
        <ele>148</ele>
        <time>2019-04-02T06:45:42Z</time>
      </trkpt>
      <trkpt lat="47.78372" lon="3.5949">
        <ele>148</ele>
        <time>2019-04-02T06:45:46Z</time>
      </trkpt>
      <trkpt lat="47.78366" lon="3.59492">
        <ele>147</ele>
        <time>2019-04-02T06:45:51Z</time>
      </trkpt>
      <trkpt lat="47.78363" lon="3.59493">
        <ele>147</ele>
        <time>2019-04-02T06:45:53Z</time>
      </trkpt>
      <trkpt lat="47.78359" lon="3.59497">
        <ele>147</ele>
        <time>2019-04-02T06:45:56Z</time>
      </trkpt>
      <trkpt lat="47.78356" lon="3.59503">
        <ele>146</ele>
        <time>2019-04-02T06:45:59Z</time>
      </trkpt>
      <trkpt lat="47.78353" lon="3.5951">
        <ele>148</ele>
        <time>2019-04-02T06:46:03Z</time>
      </trkpt>
      <trkpt lat="47.78349" lon="3.59513">
        <ele>146</ele>
        <time>2019-04-02T06:46:08Z</time>
      </trkpt>
      <trkpt lat="47.78346" lon="3.59521">
        <ele>146</ele>
        <time>2019-04-02T06:46:12Z</time>
      </trkpt>
      <trkpt lat="47.78343" lon="3.59529">
        <ele>148</ele>
        <time>2019-04-02T06:46:16Z</time>
      </trkpt>
      <trkpt lat="47.78341" lon="3.5954">
        <ele>148</ele>
        <time>2019-04-02T06:46:22Z</time>
      </trkpt>
      <trkpt lat="47.78339" lon="3.59548">
        <ele>149</ele>
        <time>2019-04-02T06:46:26Z</time>
      </trkpt>
      <trkpt lat="47.78338" lon="3.59551">
        <ele>148</ele>
        <time>2019-04-02T06:46:28Z</time>
      </trkpt>
      <trkpt lat="47.78336" lon="3.59558">
        <ele>149</ele>
        <time>2019-04-02T06:46:31Z</time>
      </trkpt>
      <trkpt lat="47.78335" lon="3.59563">
        <ele>148</ele>
        <time>2019-04-02T06:46:34Z</time>
      </trkpt>
      <trkpt lat="47.78334" lon="3.59568">
        <ele>148</ele>
        <time>2019-04-02T06:46:37Z</time>
      </trkpt>
      <trkpt lat="47.78332" lon="3.59576">
        <ele>148</ele>
        <time>2019-04-02T06:46:42Z</time>
      </trkpt>
      <trkpt lat="47.7833" lon="3.59582">
        <ele>149</ele>
        <time>2019-04-02T06:46:46Z</time>
      </trkpt>
      <trkpt lat="47.78329" lon="3.59585">
        <ele>148</ele>
        <time>2019-04-02T06:46:48Z</time>
      </trkpt>
      <trkpt lat="47.78328" lon="3.59589">
        <ele>149</ele>
        <time>2019-04-02T06:46:50Z</time>
      </trkpt>
      <trkpt lat="47.78325" lon="3.59598">
        <ele>149</ele>
        <time>2019-04-02T06:46:55Z</time>
      </trkpt>
      <trkpt lat="47.78323" lon="3.59601">
        <ele>150</ele>
        <time>2019-04-02T06:46:57Z</time>
      </trkpt>
      <trkpt lat="47.78322" lon="3.59604">
        <ele>151</ele>
        <time>2019-04-02T06:46:59Z</time>
      </trkpt>
      <trkpt lat="47.78321" lon="3.59607">
        <ele>152</ele>
        <time>2019-04-02T06:47:01Z</time>
      </trkpt>
      <trkpt lat="47.78319" lon="3.59611">
        <ele>152</ele>
        <time>2019-04-02T06:47:04Z</time>
      </trkpt>
      <trkpt lat="47.78317" lon="3.5962">
        <ele>152</ele>
        <time>2019-04-02T06:47:08Z</time>
      </trkpt>
      <trkpt lat="47.78315" lon="3.59627">
        <ele>153</ele>
        <time>2019-04-02T06:47:11Z</time>
      </trkpt>
      <trkpt lat="47.78313" lon="3.59633">
        <ele>153</ele>
        <time>2019-04-02T06:47:14Z</time>
      </trkpt>
      <trkpt lat="47.78311" lon="3.59638">
        <ele>153</ele>
        <time>2019-04-02T06:47:16Z</time>
      </trkpt>
      <trkpt lat="47.7831" lon="3.59643">
        <ele>153</ele>
        <time>2019-04-02T06:47:18Z</time>
      </trkpt>
      <trkpt lat="47.78308" lon="3.59647">
        <ele>152</ele>
        <time>2019-04-02T06:47:20Z</time>
      </trkpt>
      <trkpt lat="47.78306" lon="3.59652">
        <ele>152</ele>
        <time>2019-04-02T06:47:23Z</time>
      </trkpt>
      <trkpt lat="47.78304" lon="3.59658">
        <ele>153</ele>
        <time>2019-04-02T06:47:27Z</time>
      </trkpt>
      <trkpt lat="47.78301" lon="3.59663">
        <ele>153</ele>
        <time>2019-04-02T06:47:31Z</time>
      </trkpt>
      <trkpt lat="47.78298" lon="3.59669">
        <ele>153</ele>
        <time>2019-04-02T06:47:35Z</time>
      </trkpt>
      <trkpt lat="47.78295" lon="3.59675">
        <ele>153</ele>
        <time>2019-04-02T06:47:38Z</time>
      </trkpt>
      <trkpt lat="47.78292" lon="3.59685">
        <ele>153</ele>
        <time>2019-04-02T06:47:43Z</time>
      </trkpt>
      <trkpt lat="47.7829" lon="3.59688">
        <ele>153</ele>
        <time>2019-04-02T06:47:45Z</time>
      </trkpt>
      <trkpt lat="47.78289" lon="3.59695">
        <ele>153</ele>
        <time>2019-04-02T06:47:48Z</time>
      </trkpt>
      <trkpt lat="47.78287" lon="3.59702">
        <ele>152</ele>
        <time>2019-04-02T06:47:52Z</time>
      </trkpt>
      <trkpt lat="47.78284" lon="3.59708">
        <ele>152</ele>
        <time>2019-04-02T06:47:54Z</time>
      </trkpt>
      <trkpt lat="47.78282" lon="3.59718">
        <ele>151</ele>
        <time>2019-04-02T06:48:00Z</time>
      </trkpt>
      <trkpt lat="47.78281" lon="3.59722">
        <ele>150</ele>
        <time>2019-04-02T06:48:02Z</time>
      </trkpt>
      <trkpt lat="47.7828" lon="3.59726">
        <ele>150</ele>
        <time>2019-04-02T06:48:04Z</time>
      </trkpt>
      <trkpt lat="47.78279" lon="3.5973">
        <ele>149</ele>
        <time>2019-04-02T06:48:06Z</time>
      </trkpt>
      <trkpt lat="47.78278" lon="3.59734">
        <ele>148</ele>
        <time>2019-04-02T06:48:08Z</time>
      </trkpt>
      <trkpt lat="47.78277" lon="3.59738">
        <ele>148</ele>
        <time>2019-04-02T06:48:10Z</time>
      </trkpt>
      <trkpt lat="47.78276" lon="3.59742">
        <ele>148</ele>
        <time>2019-04-02T06:48:12Z</time>
      </trkpt>
      <trkpt lat="47.78274" lon="3.59749">
        <ele>148</ele>
        <time>2019-04-02T06:48:15Z</time>
      </trkpt>
      <trkpt lat="47.78273" lon="3.59752">
        <ele>148</ele>
        <time>2019-04-02T06:48:17Z</time>
      </trkpt>
      <trkpt lat="47.78271" lon="3.59759">
        <ele>148</ele>
        <time>2019-04-02T06:48:22Z</time>
      </trkpt>
      <trkpt lat="47.7827" lon="3.59764">
        <ele>147</ele>
        <time>2019-04-02T06:48:24Z</time>
      </trkpt>
      <trkpt lat="47.78269" lon="3.59768">
        <ele>147</ele>
        <time>2019-04-02T06:48:26Z</time>
      </trkpt>
      <trkpt lat="47.78266" lon="3.59776">
        <ele>148</ele>
        <time>2019-04-02T06:48:30Z</time>
      </trkpt>
      <trkpt lat="47.78264" lon="3.59785">
        <ele>148</ele>
        <time>2019-04-02T06:48:34Z</time>
      </trkpt>
      <trkpt lat="47.78262" lon="3.59792">
        <ele>147</ele>
        <time>2019-04-02T06:48:38Z</time>
      </trkpt>
      <trkpt lat="47.78261" lon="3.59799">
        <ele>148</ele>
        <time>2019-04-02T06:48:41Z</time>
      </trkpt>
      <trkpt lat="47.78259" lon="3.59804">
        <ele>148</ele>
        <time>2019-04-02T06:48:44Z</time>
      </trkpt>
      <trkpt lat="47.78258" lon="3.59808">
        <ele>149</ele>
        <time>2019-04-02T06:48:46Z</time>
      </trkpt>
      <trkpt lat="47.78257" lon="3.59812">
        <ele>149</ele>
        <time>2019-04-02T06:48:49Z</time>
      </trkpt>
      <trkpt lat="47.78255" lon="3.59816">
        <ele>149</ele>
        <time>2019-04-02T06:48:51Z</time>
      </trkpt>
      <trkpt lat="47.78254" lon="3.59821">
        <ele>150</ele>
        <time>2019-04-02T06:48:53Z</time>
      </trkpt>
      <trkpt lat="47.78253" lon="3.59828">
        <ele>149</ele>
        <time>2019-04-02T06:48:56Z</time>
      </trkpt>
      <trkpt lat="47.78252" lon="3.59831">
        <ele>150</ele>
        <time>2019-04-02T06:48:58Z</time>
      </trkpt>
      <trkpt lat="47.78252" lon="3.59835">
        <ele>150</ele>
        <time>2019-04-02T06:49:00Z</time>
      </trkpt>
      <trkpt lat="47.78249" lon="3.59841">
        <ele>149</ele>
        <time>2019-04-02T06:49:04Z</time>
      </trkpt>
      <trkpt lat="47.78248" lon="3.59848">
        <ele>149</ele>
        <time>2019-04-02T06:49:07Z</time>
      </trkpt>
      <trkpt lat="47.78245" lon="3.59855">
        <ele>150</ele>
        <time>2019-04-02T06:49:11Z</time>
      </trkpt>
      <trkpt lat="47.78243" lon="3.59865">
        <ele>149</ele>
        <time>2019-04-02T06:49:15Z</time>
      </trkpt>
      <trkpt lat="47.78241" lon="3.59872">
        <ele>149</ele>
        <time>2019-04-02T06:49:19Z</time>
      </trkpt>
      <trkpt lat="47.78239" lon="3.59875">
        <ele>149</ele>
        <time>2019-04-02T06:49:21Z</time>
      </trkpt>
      <trkpt lat="47.78237" lon="3.59881">
        <ele>149</ele>
        <time>2019-04-02T06:49:24Z</time>
      </trkpt>
      <trkpt lat="47.78236" lon="3.59885">
        <ele>148</ele>
        <time>2019-04-02T06:49:26Z</time>
      </trkpt>
      <trkpt lat="47.78234" lon="3.59891">
        <ele>149</ele>
        <time>2019-04-02T06:49:29Z</time>
      </trkpt>
      <trkpt lat="47.78233" lon="3.59895">
        <ele>149</ele>
        <time>2019-04-02T06:49:31Z</time>
      </trkpt>
      <trkpt lat="47.7823" lon="3.599">
        <ele>148</ele>
        <time>2019-04-02T06:49:34Z</time>
      </trkpt>
      <trkpt lat="47.78228" lon="3.59904">
        <ele>148</ele>
        <time>2019-04-02T06:49:37Z</time>
      </trkpt>
      <trkpt lat="47.78227" lon="3.59907">
        <ele>147</ele>
        <time>2019-04-02T06:49:39Z</time>
      </trkpt>
      <trkpt lat="47.78225" lon="3.59912">
        <ele>147</ele>
        <time>2019-04-02T06:49:42Z</time>
      </trkpt>
      <trkpt lat="47.78223" lon="3.59917">
        <ele>147</ele>
        <time>2019-04-02T06:49:46Z</time>
      </trkpt>
      <trkpt lat="47.78222" lon="3.59924">
        <ele>146</ele>
        <time>2019-04-02T06:49:50Z</time>
      </trkpt>
      <trkpt lat="47.78218" lon="3.59933">
        <ele>146</ele>
        <time>2019-04-02T06:49:55Z</time>
      </trkpt>
      <trkpt lat="47.78215" lon="3.5994">
        <ele>146</ele>
        <time>2019-04-02T06:50:00Z</time>
      </trkpt>
      <trkpt lat="47.78214" lon="3.59944">
        <ele>145</ele>
        <time>2019-04-02T06:50:02Z</time>
      </trkpt>
      <trkpt lat="47.78212" lon="3.59948">
        <ele>146</ele>
        <time>2019-04-02T06:50:04Z</time>
      </trkpt>
      <trkpt lat="47.7821" lon="3.59951">
        <ele>146</ele>
        <time>2019-04-02T06:50:06Z</time>
      </trkpt>
      <trkpt lat="47.78208" lon="3.59955">
        <ele>146</ele>
        <time>2019-04-02T06:50:09Z</time>
      </trkpt>
      <trkpt lat="47.78206" lon="3.59961">
        <ele>146</ele>
        <time>2019-04-02T06:50:13Z</time>
      </trkpt>
      <trkpt lat="47.78204" lon="3.59964">
        <ele>146</ele>
        <time>2019-04-02T06:50:15Z</time>
      </trkpt>
      <trkpt lat="47.78202" lon="3.5997">
        <ele>145</ele>
        <time>2019-04-02T06:50:19Z</time>
      </trkpt>
      <trkpt lat="47.78199" lon="3.59975">
        <ele>146</ele>
        <time>2019-04-02T06:50:22Z</time>
      </trkpt>
      <trkpt lat="47.78197" lon="3.59979">
        <ele>146</ele>
        <time>2019-04-02T06:50:25Z</time>
      </trkpt>
      <trkpt lat="47.78194" lon="3.59984">
        <ele>146</ele>
        <time>2019-04-02T06:50:28Z</time>
      </trkpt>
      <trkpt lat="47.7819" lon="3.5999">
        <ele>147</ele>
        <time>2019-04-02T06:50:33Z</time>
      </trkpt>
      <trkpt lat="47.78187" lon="3.59995">
        <ele>147</ele>
        <time>2019-04-02T06:50:37Z</time>
      </trkpt>
      <trkpt lat="47.78185" lon="3.60002">
        <ele>148</ele>
        <time>2019-04-02T06:50:41Z</time>
      </trkpt>
      <trkpt lat="47.78178" lon="3.6001">
        <ele>147</ele>
        <time>2019-04-02T06:50:47Z</time>
      </trkpt>
      <trkpt lat="47.78174" lon="3.60016">
        <ele>147</ele>
        <time>2019-04-02T06:50:50Z</time>
      </trkpt>
      <trkpt lat="47.78169" lon="3.6002">
        <ele>147</ele>
        <time>2019-04-02T06:50:54Z</time>
      </trkpt>
      <trkpt lat="47.78166" lon="3.60026">
        <ele>148</ele>
        <time>2019-04-02T06:50:58Z</time>
      </trkpt>
      <trkpt lat="47.78163" lon="3.6003">
        <ele>150</ele>
        <time>2019-04-02T06:51:02Z</time>
      </trkpt>
      <trkpt lat="47.78158" lon="3.60031">
        <ele>150</ele>
        <time>2019-04-02T06:51:06Z</time>
      </trkpt>
      <trkpt lat="47.78154" lon="3.60039">
        <ele>150</ele>
        <time>2019-04-02T06:51:11Z</time>
      </trkpt>
      <trkpt lat="47.78151" lon="3.60043">
        <ele>151</ele>
        <time>2019-04-02T06:51:14Z</time>
      </trkpt>
      <trkpt lat="47.78149" lon="3.60046">
        <ele>151</ele>
        <time>2019-04-02T06:51:16Z</time>
      </trkpt>
      <trkpt lat="47.78145" lon="3.60052">
        <ele>150</ele>
        <time>2019-04-02T06:51:20Z</time>
      </trkpt>
      <trkpt lat="47.78143" lon="3.60055">
        <ele>151</ele>
        <time>2019-04-02T06:51:22Z</time>
      </trkpt>
      <trkpt lat="47.7814" lon="3.6006">
        <ele>151</ele>
        <time>2019-04-02T06:51:25Z</time>
      </trkpt>
      <trkpt lat="47.78136" lon="3.60065">
        <ele>151</ele>
        <time>2019-04-02T06:51:28Z</time>
      </trkpt>
      <trkpt lat="47.78133" lon="3.60072">
        <ele>152</ele>
        <time>2019-04-02T06:51:33Z</time>
      </trkpt>
      <trkpt lat="47.7813" lon="3.60077">
        <ele>154</ele>
        <time>2019-04-02T06:51:37Z</time>
      </trkpt>
      <trkpt lat="47.78128" lon="3.60082">
        <ele>154</ele>
        <time>2019-04-02T06:51:39Z</time>
      </trkpt>
      <trkpt lat="47.78124" lon="3.60087">
        <ele>154</ele>
        <time>2019-04-02T06:51:42Z</time>
      </trkpt>
      <trkpt lat="47.78122" lon="3.60089">
        <ele>153</ele>
        <time>2019-04-02T06:51:44Z</time>
      </trkpt>
      <trkpt lat="47.78119" lon="3.60093">
        <ele>151</ele>
        <time>2019-04-02T06:51:47Z</time>
      </trkpt>
      <trkpt lat="47.78114" lon="3.601">
        <ele>152</ele>
        <time>2019-04-02T06:51:51Z</time>
      </trkpt>
      <trkpt lat="47.78112" lon="3.60102">
        <ele>151</ele>
        <time>2019-04-02T06:51:53Z</time>
      </trkpt>
      <trkpt lat="47.78107" lon="3.60107">
        <ele>152</ele>
        <time>2019-04-02T06:51:58Z</time>
      </trkpt>
      <trkpt lat="47.78103" lon="3.60111">
        <ele>154</ele>
        <time>2019-04-02T06:52:01Z</time>
      </trkpt>
      <trkpt lat="47.78099" lon="3.60117">
        <ele>153</ele>
        <time>2019-04-02T06:52:05Z</time>
      </trkpt>
      <trkpt lat="47.78096" lon="3.60122">
        <ele>152</ele>
        <time>2019-04-02T06:52:09Z</time>
      </trkpt>
      <trkpt lat="47.78093" lon="3.60125">
        <ele>152</ele>
        <time>2019-04-02T06:52:11Z</time>
      </trkpt>
      <trkpt lat="47.78089" lon="3.60132">
        <ele>151</ele>
        <time>2019-04-02T06:52:17Z</time>
      </trkpt>
      <trkpt lat="47.78084" lon="3.60137">
        <ele>150</ele>
        <time>2019-04-02T06:52:20Z</time>
      </trkpt>
      <trkpt lat="47.7808" lon="3.60142">
        <ele>150</ele>
        <time>2019-04-02T06:52:24Z</time>
      </trkpt>
      <trkpt lat="47.78078" lon="3.60144">
        <ele>151</ele>
        <time>2019-04-02T06:52:26Z</time>
      </trkpt>
      <trkpt lat="47.78075" lon="3.60152">
        <ele>152</ele>
        <time>2019-04-02T06:52:30Z</time>
      </trkpt>
      <trkpt lat="47.78072" lon="3.60157">
        <ele>152</ele>
        <time>2019-04-02T06:52:33Z</time>
      </trkpt>
      <trkpt lat="47.7807" lon="3.60161">
        <ele>154</ele>
        <time>2019-04-02T06:52:35Z</time>
      </trkpt>
      <trkpt lat="47.78065" lon="3.60169">
        <ele>153</ele>
        <time>2019-04-02T06:52:41Z</time>
      </trkpt>
      <trkpt lat="47.78061" lon="3.60174">
        <ele>153</ele>
        <time>2019-04-02T06:52:44Z</time>
      </trkpt>
      <trkpt lat="47.78059" lon="3.60178">
        <ele>153</ele>
        <time>2019-04-02T06:52:46Z</time>
      </trkpt>
      <trkpt lat="47.78057" lon="3.60184">
        <ele>154</ele>
        <time>2019-04-02T06:52:50Z</time>
      </trkpt>
      <trkpt lat="47.78056" lon="3.60191">
        <ele>155</ele>
        <time>2019-04-02T06:52:53Z</time>
      </trkpt>
      <trkpt lat="47.78053" lon="3.60199">
        <ele>156</ele>
        <time>2019-04-02T06:52:57Z</time>
      </trkpt>
      <trkpt lat="47.7805" lon="3.60204">
        <ele>156</ele>
        <time>2019-04-02T06:53:00Z</time>
      </trkpt>
      <trkpt lat="47.78048" lon="3.60207">
        <ele>156</ele>
        <time>2019-04-02T06:53:02Z</time>
      </trkpt>
      <trkpt lat="47.78046" lon="3.60214">
        <ele>156</ele>
        <time>2019-04-02T06:53:06Z</time>
      </trkpt>
      <trkpt lat="47.78043" lon="3.60219">
        <ele>154</ele>
        <time>2019-04-02T06:53:09Z</time>
      </trkpt>
      <trkpt lat="47.7804" lon="3.60225">
        <ele>154</ele>
        <time>2019-04-02T06:53:13Z</time>
      </trkpt>
      <trkpt lat="47.78038" lon="3.60229">
        <ele>153</ele>
        <time>2019-04-02T06:53:15Z</time>
      </trkpt>
      <trkpt lat="47.78035" lon="3.60237">
        <ele>153</ele>
        <time>2019-04-02T06:53:19Z</time>
      </trkpt>
      <trkpt lat="47.7803" lon="3.6024">
        <ele>152</ele>
        <time>2019-04-02T06:53:22Z</time>
      </trkpt>
      <trkpt lat="47.78026" lon="3.60245">
        <ele>152</ele>
        <time>2019-04-02T06:53:25Z</time>
      </trkpt>
      <trkpt lat="47.78023" lon="3.60255">
        <ele>153</ele>
        <time>2019-04-02T06:53:30Z</time>
      </trkpt>
      <trkpt lat="47.78022" lon="3.60258">
        <ele>153</ele>
        <time>2019-04-02T06:53:32Z</time>
      </trkpt>
      <trkpt lat="47.78019" lon="3.60265">
        <ele>152</ele>
        <time>2019-04-02T06:53:36Z</time>
      </trkpt>
      <trkpt lat="47.78017" lon="3.60272">
        <ele>153</ele>
        <time>2019-04-02T06:53:41Z</time>
      </trkpt>
      <trkpt lat="47.78013" lon="3.60281">
        <ele>154</ele>
        <time>2019-04-02T06:53:46Z</time>
      </trkpt>
      <trkpt lat="47.78011" lon="3.60289">
        <ele>154</ele>
        <time>2019-04-02T06:53:50Z</time>
      </trkpt>
      <trkpt lat="47.78007" lon="3.60297">
        <ele>153</ele>
        <time>2019-04-02T06:53:54Z</time>
      </trkpt>
      <trkpt lat="47.78003" lon="3.60303">
        <ele>152</ele>
        <time>2019-04-02T06:53:58Z</time>
      </trkpt>
      <trkpt lat="47.78" lon="3.60309">
        <ele>151</ele>
        <time>2019-04-02T06:54:02Z</time>
      </trkpt>
      <trkpt lat="47.77997" lon="3.60314">
        <ele>150</ele>
        <time>2019-04-02T06:54:05Z</time>
      </trkpt>
      <trkpt lat="47.77995" lon="3.6032">
        <ele>150</ele>
        <time>2019-04-02T06:54:08Z</time>
      </trkpt>
      <trkpt lat="47.77993" lon="3.60327">
        <ele>150</ele>
        <time>2019-04-02T06:54:12Z</time>
      </trkpt>
      <trkpt lat="47.7799" lon="3.60334">
        <ele>150</ele>
        <time>2019-04-02T06:54:17Z</time>
      </trkpt>
      <trkpt lat="47.77988" lon="3.60337">
        <ele>150</ele>
        <time>2019-04-02T06:54:20Z</time>
      </trkpt>
      <trkpt lat="47.77987" lon="3.6034">
        <ele>149</ele>
        <time>2019-04-02T06:54:22Z</time>
      </trkpt>
      <trkpt lat="47.77987" lon="3.60347">
        <ele>149</ele>
        <time>2019-04-02T06:54:26Z</time>
      </trkpt>
      <trkpt lat="47.77984" lon="3.60356">
        <ele>150</ele>
        <time>2019-04-02T06:54:30Z</time>
      </trkpt>
      <trkpt lat="47.77983" lon="3.60361">
        <ele>150</ele>
        <time>2019-04-02T06:54:32Z</time>
      </trkpt>
      <trkpt lat="47.77981" lon="3.60368">
        <ele>150</ele>
        <time>2019-04-02T06:54:35Z</time>
      </trkpt>
      <trkpt lat="47.77979" lon="3.60374">
        <ele>150</ele>
        <time>2019-04-02T06:54:38Z</time>
      </trkpt>
      <trkpt lat="47.77976" lon="3.60383">
        <ele>149</ele>
        <time>2019-04-02T06:54:42Z</time>
      </trkpt>
      <trkpt lat="47.77975" lon="3.60387">
        <ele>150</ele>
        <time>2019-04-02T06:54:44Z</time>
      </trkpt>
      <trkpt lat="47.77972" lon="3.60393">
        <ele>149</ele>
        <time>2019-04-02T06:54:48Z</time>
      </trkpt>
      <trkpt lat="47.77971" lon="3.60399">
        <ele>149</ele>
        <time>2019-04-02T06:54:51Z</time>
      </trkpt>
      <trkpt lat="47.77969" lon="3.60407">
        <ele>149</ele>
        <time>2019-04-02T06:54:54Z</time>
      </trkpt>
      <trkpt lat="47.77967" lon="3.60413">
        <ele>149</ele>
        <time>2019-04-02T06:54:57Z</time>
      </trkpt>
      <trkpt lat="47.77965" lon="3.6042">
        <ele>149</ele>
        <time>2019-04-02T06:55:02Z</time>
      </trkpt>
      <trkpt lat="47.77963" lon="3.60427">
        <ele>149</ele>
        <time>2019-04-02T06:55:06Z</time>
      </trkpt>
      <trkpt lat="47.77959" lon="3.60436">
        <ele>148</ele>
        <time>2019-04-02T06:55:10Z</time>
      </trkpt>
      <trkpt lat="47.77956" lon="3.60443">
        <ele>148</ele>
        <time>2019-04-02T06:55:14Z</time>
      </trkpt>
      <trkpt lat="47.77954" lon="3.60449">
        <ele>148</ele>
        <time>2019-04-02T06:55:18Z</time>
      </trkpt>
      <trkpt lat="47.77953" lon="3.60457">
        <ele>148</ele>
        <time>2019-04-02T06:55:22Z</time>
      </trkpt>
      <trkpt lat="47.77951" lon="3.60463">
        <ele>148</ele>
        <time>2019-04-02T06:55:25Z</time>
      </trkpt>
      <trkpt lat="47.77949" lon="3.60469">
        <ele>149</ele>
        <time>2019-04-02T06:55:29Z</time>
      </trkpt>
      <trkpt lat="47.77947" lon="3.60475">
        <ele>150</ele>
        <time>2019-04-02T06:55:32Z</time>
      </trkpt>
      <trkpt lat="47.77945" lon="3.60478">
        <ele>150</ele>
        <time>2019-04-02T06:55:34Z</time>
      </trkpt>
      <trkpt lat="47.77943" lon="3.60484">
        <ele>150</ele>
        <time>2019-04-02T06:55:38Z</time>
      </trkpt>
      <trkpt lat="47.77941" lon="3.60492">
        <ele>150</ele>
        <time>2019-04-02T06:55:42Z</time>
      </trkpt>
      <trkpt lat="47.7794" lon="3.60496">
        <ele>149</ele>
        <time>2019-04-02T06:55:44Z</time>
      </trkpt>
      <trkpt lat="47.77939" lon="3.60503">
        <ele>151</ele>
        <time>2019-04-02T06:55:48Z</time>
      </trkpt>
      <trkpt lat="47.77937" lon="3.6051">
        <ele>151</ele>
        <time>2019-04-02T06:55:52Z</time>
      </trkpt>
      <trkpt lat="47.77936" lon="3.60515">
        <ele>152</ele>
        <time>2019-04-02T06:55:54Z</time>
      </trkpt>
      <trkpt lat="47.77933" lon="3.60522">
        <ele>151</ele>
        <time>2019-04-02T06:55:57Z</time>
      </trkpt>
      <trkpt lat="47.7793" lon="3.60528">
        <ele>151</ele>
        <time>2019-04-02T06:56:01Z</time>
      </trkpt>
      <trkpt lat="47.77929" lon="3.60532">
        <ele>151</ele>
        <time>2019-04-02T06:56:04Z</time>
      </trkpt>
      <trkpt lat="47.77926" lon="3.60541">
        <ele>152</ele>
        <time>2019-04-02T06:56:08Z</time>
      </trkpt>
      <trkpt lat="47.77923" lon="3.60547">
        <ele>151</ele>
        <time>2019-04-02T06:56:12Z</time>
      </trkpt>
      <trkpt lat="47.77921" lon="3.60554">
        <ele>151</ele>
        <time>2019-04-02T06:56:15Z</time>
      </trkpt>
      <trkpt lat="47.7792" lon="3.60558">
        <ele>151</ele>
        <time>2019-04-02T06:56:18Z</time>
      </trkpt>
      <trkpt lat="47.77918" lon="3.60565">
        <ele>152</ele>
        <time>2019-04-02T06:56:21Z</time>
      </trkpt>
      <trkpt lat="47.77916" lon="3.60572">
        <ele>152</ele>
        <time>2019-04-02T06:56:25Z</time>
      </trkpt>
      <trkpt lat="47.77912" lon="3.60583">
        <ele>151</ele>
        <time>2019-04-02T06:56:31Z</time>
      </trkpt>
      <trkpt lat="47.77909" lon="3.6059">
        <ele>151</ele>
        <time>2019-04-02T06:56:35Z</time>
      </trkpt>
      <trkpt lat="47.77907" lon="3.60597">
        <ele>151</ele>
        <time>2019-04-02T06:56:38Z</time>
      </trkpt>
      <trkpt lat="47.77905" lon="3.60603">
        <ele>152</ele>
        <time>2019-04-02T06:56:41Z</time>
      </trkpt>
      <trkpt lat="47.77901" lon="3.60609">
        <ele>151</ele>
        <time>2019-04-02T06:56:45Z</time>
      </trkpt>
      <trkpt lat="47.77897" lon="3.60616">
        <ele>151</ele>
        <time>2019-04-02T06:56:49Z</time>
      </trkpt>
      <trkpt lat="47.77894" lon="3.60623">
        <ele>151</ele>
        <time>2019-04-02T06:56:52Z</time>
      </trkpt>
      <trkpt lat="47.77893" lon="3.60626">
        <ele>150</ele>
        <time>2019-04-02T06:56:54Z</time>
      </trkpt>
      <trkpt lat="47.7789" lon="3.6063">
        <ele>149</ele>
        <time>2019-04-02T06:56:57Z</time>
      </trkpt>
      <trkpt lat="47.77888" lon="3.60639">
        <ele>150</ele>
        <time>2019-04-02T06:57:01Z</time>
      </trkpt>
      <trkpt lat="47.77886" lon="3.60644">
        <ele>149</ele>
        <time>2019-04-02T06:57:04Z</time>
      </trkpt>
      <trkpt lat="47.77883" lon="3.6065">
        <ele>149</ele>
        <time>2019-04-02T06:57:08Z</time>
      </trkpt>
      <trkpt lat="47.77881" lon="3.60657">
        <ele>148</ele>
        <time>2019-04-02T06:57:11Z</time>
      </trkpt>
      <trkpt lat="47.77879" lon="3.60665">
        <ele>147</ele>
        <time>2019-04-02T06:57:15Z</time>
      </trkpt>
      <trkpt lat="47.77878" lon="3.60669">
        <ele>148</ele>
        <time>2019-04-02T06:57:17Z</time>
      </trkpt>
      <trkpt lat="47.77876" lon="3.60677">
        <ele>148</ele>
        <time>2019-04-02T06:57:22Z</time>
      </trkpt>
      <trkpt lat="47.77875" lon="3.60681">
        <ele>148</ele>
        <time>2019-04-02T06:57:24Z</time>
      </trkpt>
      <trkpt lat="47.77874" lon="3.6069">
        <ele>148</ele>
        <time>2019-04-02T06:57:28Z</time>
      </trkpt>
      <trkpt lat="47.77871" lon="3.60696">
        <ele>148</ele>
        <time>2019-04-02T06:57:31Z</time>
      </trkpt>
      <trkpt lat="47.7787" lon="3.60703">
        <ele>148</ele>
        <time>2019-04-02T06:57:34Z</time>
      </trkpt>
      <trkpt lat="47.77869" lon="3.6071">
        <ele>148</ele>
        <time>2019-04-02T06:57:37Z</time>
      </trkpt>
      <trkpt lat="47.77867" lon="3.60718">
        <ele>147</ele>
        <time>2019-04-02T06:57:41Z</time>
      </trkpt>
      <trkpt lat="47.77866" lon="3.60722">
        <ele>147</ele>
        <time>2019-04-02T06:57:43Z</time>
      </trkpt>
      <trkpt lat="47.77864" lon="3.60728">
        <ele>147</ele>
        <time>2019-04-02T06:57:47Z</time>
      </trkpt>
      <trkpt lat="47.77862" lon="3.60733">
        <ele>147</ele>
        <time>2019-04-02T06:57:50Z</time>
      </trkpt>
      <trkpt lat="47.7786" lon="3.60737">
        <ele>146</ele>
        <time>2019-04-02T06:57:52Z</time>
      </trkpt>
      <trkpt lat="47.77857" lon="3.60743">
        <ele>147</ele>
        <time>2019-04-02T06:57:56Z</time>
      </trkpt>
      <trkpt lat="47.77855" lon="3.60747">
        <ele>146</ele>
        <time>2019-04-02T06:57:58Z</time>
      </trkpt>
      <trkpt lat="47.77853" lon="3.60755">
        <ele>146</ele>
        <time>2019-04-02T06:58:02Z</time>
      </trkpt>
      <trkpt lat="47.77849" lon="3.60761">
        <ele>147</ele>
        <time>2019-04-02T06:58:06Z</time>
      </trkpt>
      <trkpt lat="47.77847" lon="3.60767">
        <ele>148</ele>
        <time>2019-04-02T06:58:10Z</time>
      </trkpt>
      <trkpt lat="47.77845" lon="3.60771">
        <ele>149</ele>
        <time>2019-04-02T06:58:12Z</time>
      </trkpt>
      <trkpt lat="47.77842" lon="3.60776">
        <ele>148</ele>
        <time>2019-04-02T06:58:15Z</time>
      </trkpt>
      <trkpt lat="47.7784" lon="3.6078">
        <ele>148</ele>
        <time>2019-04-02T06:58:17Z</time>
      </trkpt>
      <trkpt lat="47.77838" lon="3.60783">
        <ele>149</ele>
        <time>2019-04-02T06:58:19Z</time>
      </trkpt>
      <trkpt lat="47.77836" lon="3.6079">
        <ele>148</ele>
        <time>2019-04-02T06:58:23Z</time>
      </trkpt>
      <trkpt lat="47.77834" lon="3.60795">
        <ele>147</ele>
        <time>2019-04-02T06:58:26Z</time>
      </trkpt>
      <trkpt lat="47.77831" lon="3.60801">
        <ele>147</ele>
        <time>2019-04-02T06:58:30Z</time>
      </trkpt>
      <trkpt lat="47.77829" lon="3.60805">
        <ele>147</ele>
        <time>2019-04-02T06:58:33Z</time>
      </trkpt>
      <trkpt lat="47.77827" lon="3.6081">
        <ele>147</ele>
        <time>2019-04-02T06:58:36Z</time>
      </trkpt>
      <trkpt lat="47.77825" lon="3.60813">
        <ele>147</ele>
        <time>2019-04-02T06:58:38Z</time>
      </trkpt>
      <trkpt lat="47.77823" lon="3.60817">
        <ele>147</ele>
        <time>2019-04-02T06:58:40Z</time>
      </trkpt>
      <trkpt lat="47.77821" lon="3.6082">
        <ele>147</ele>
        <time>2019-04-02T06:58:42Z</time>
      </trkpt>
      <trkpt lat="47.77819" lon="3.60827">
        <ele>146</ele>
        <time>2019-04-02T06:58:46Z</time>
      </trkpt>
      <trkpt lat="47.77816" lon="3.60833">
        <ele>148</ele>
        <time>2019-04-02T06:58:50Z</time>
      </trkpt>
      <trkpt lat="47.77815" lon="3.6084">
        <ele>148</ele>
        <time>2019-04-02T06:58:53Z</time>
      </trkpt>
      <trkpt lat="47.77811" lon="3.60846">
        <ele>148</ele>
        <time>2019-04-02T06:58:57Z</time>
      </trkpt>
      <trkpt lat="47.77809" lon="3.60854">
        <ele>147</ele>
        <time>2019-04-02T06:59:01Z</time>
      </trkpt>
      <trkpt lat="47.77805" lon="3.60859">
        <ele>147</ele>
        <time>2019-04-02T06:59:05Z</time>
      </trkpt>
      <trkpt lat="47.77802" lon="3.60864">
        <ele>148</ele>
        <time>2019-04-02T06:59:08Z</time>
      </trkpt>
      <trkpt lat="47.77798" lon="3.60869">
        <ele>147</ele>
        <time>2019-04-02T06:59:12Z</time>
      </trkpt>
      <trkpt lat="47.77794" lon="3.60874">
        <ele>146</ele>
        <time>2019-04-02T06:59:16Z</time>
      </trkpt>
      <trkpt lat="47.77791" lon="3.60878">
        <ele>146</ele>
        <time>2019-04-02T06:59:18Z</time>
      </trkpt>
      <trkpt lat="47.77788" lon="3.60881">
        <ele>146</ele>
        <time>2019-04-02T06:59:21Z</time>
      </trkpt>
      <trkpt lat="47.77783" lon="3.60886">
        <ele>146</ele>
        <time>2019-04-02T06:59:26Z</time>
      </trkpt>
      <trkpt lat="47.77779" lon="3.60891">
        <ele>146</ele>
        <time>2019-04-02T06:59:30Z</time>
      </trkpt>
      <trkpt lat="47.77775" lon="3.60899">
        <ele>147</ele>
        <time>2019-04-02T06:59:35Z</time>
      </trkpt>
      <trkpt lat="47.77772" lon="3.60904">
        <ele>146</ele>
        <time>2019-04-02T06:59:39Z</time>
      </trkpt>
      <trkpt lat="47.7777" lon="3.60906">
        <ele>146</ele>
        <time>2019-04-02T06:59:41Z</time>
      </trkpt>
      <trkpt lat="47.77768" lon="3.60909">
        <ele>147</ele>
        <time>2019-04-02T06:59:43Z</time>
      </trkpt>
      <trkpt lat="47.77764" lon="3.60915">
        <ele>147</ele>
        <time>2019-04-02T06:59:47Z</time>
      </trkpt>
      <trkpt lat="47.7776" lon="3.6092">
        <ele>147</ele>
        <time>2019-04-02T06:59:51Z</time>
      </trkpt>
      <trkpt lat="47.77757" lon="3.60926">
        <ele>148</ele>
        <time>2019-04-02T06:59:55Z</time>
      </trkpt>
      <trkpt lat="47.77752" lon="3.60929">
        <ele>148</ele>
        <time>2019-04-02T06:59:59Z</time>
      </trkpt>
      <trkpt lat="47.77749" lon="3.60935">
        <ele>149</ele>
        <time>2019-04-02T07:00:02Z</time>
      </trkpt>
      <trkpt lat="47.77745" lon="3.6094">
        <ele>148</ele>
        <time>2019-04-02T07:00:05Z</time>
      </trkpt>
      <trkpt lat="47.77741" lon="3.60946">
        <ele>147</ele>
        <time>2019-04-02T07:00:10Z</time>
      </trkpt>
      <trkpt lat="47.77739" lon="3.60952">
        <ele>147</ele>
        <time>2019-04-02T07:00:14Z</time>
      </trkpt>
      <trkpt lat="47.77735" lon="3.60958">
        <ele>147</ele>
        <time>2019-04-02T07:00:18Z</time>
      </trkpt>
      <trkpt lat="47.77732" lon="3.60965">
        <ele>148</ele>
        <time>2019-04-02T07:00:22Z</time>
      </trkpt>
      <trkpt lat="47.77727" lon="3.6097">
        <ele>148</ele>
        <time>2019-04-02T07:00:26Z</time>
      </trkpt>
      <trkpt lat="47.77725" lon="3.60972">
        <ele>147</ele>
        <time>2019-04-02T07:00:28Z</time>
      </trkpt>
      <trkpt lat="47.77723" lon="3.60976">
        <ele>148</ele>
        <time>2019-04-02T07:00:30Z</time>
      </trkpt>
      <trkpt lat="47.77721" lon="3.60979">
        <ele>148</ele>
        <time>2019-04-02T07:00:32Z</time>
      </trkpt>
      <trkpt lat="47.77715" lon="3.60983">
        <ele>148</ele>
        <time>2019-04-02T07:00:36Z</time>
      </trkpt>
      <trkpt lat="47.77711" lon="3.60988">
        <ele>147</ele>
        <time>2019-04-02T07:00:39Z</time>
      </trkpt>
      <trkpt lat="47.77709" lon="3.6099">
        <ele>147</ele>
        <time>2019-04-02T07:00:41Z</time>
      </trkpt>
      <trkpt lat="47.77705" lon="3.60994">
        <ele>147</ele>
        <time>2019-04-02T07:00:45Z</time>
      </trkpt>
      <trkpt lat="47.77703" lon="3.60996">
        <ele>146</ele>
        <time>2019-04-02T07:00:47Z</time>
      </trkpt>
      <trkpt lat="47.777" lon="3.60999">
        <ele>146</ele>
        <time>2019-04-02T07:00:50Z</time>
      </trkpt>
      <trkpt lat="47.77697" lon="3.61004">
        <ele>146</ele>
        <time>2019-04-02T07:00:54Z</time>
      </trkpt>
      <trkpt lat="47.77693" lon="3.61008">
        <ele>146</ele>
        <time>2019-04-02T07:00:59Z</time>
      </trkpt>
      <trkpt lat="47.77687" lon="3.61011">
        <ele>146</ele>
        <time>2019-04-02T07:01:04Z</time>
      </trkpt>
      <trkpt lat="47.77683" lon="3.61015">
        <ele>145</ele>
        <time>2019-04-02T07:01:08Z</time>
      </trkpt>
      <trkpt lat="47.77678" lon="3.61015">
        <ele>146</ele>
        <time>2019-04-02T07:01:12Z</time>
      </trkpt>
      <trkpt lat="47.77675" lon="3.61016">
        <ele>147</ele>
        <time>2019-04-02T07:01:14Z</time>
      </trkpt>
      <trkpt lat="47.77672" lon="3.61017">
        <ele>147</ele>
        <time>2019-04-02T07:01:16Z</time>
      </trkpt>
      <trkpt lat="47.77665" lon="3.61017">
        <ele>147</ele>
        <time>2019-04-02T07:01:19Z</time>
      </trkpt>
      <trkpt lat="47.77659" lon="3.61018">
        <ele>147</ele>
        <time>2019-04-02T07:01:24Z</time>
      </trkpt>
      <trkpt lat="47.77657" lon="3.61019">
        <ele>147</ele>
        <time>2019-04-02T07:01:26Z</time>
      </trkpt>
      <trkpt lat="47.7765" lon="3.61018">
        <ele>146</ele>
        <time>2019-04-02T07:01:31Z</time>
      </trkpt>
      <trkpt lat="47.77644" lon="3.61019">
        <ele>145</ele>
        <time>2019-04-02T07:01:35Z</time>
      </trkpt>
      <trkpt lat="47.7764" lon="3.61019">
        <ele>145</ele>
        <time>2019-04-02T07:01:38Z</time>
      </trkpt>
      <trkpt lat="47.77635" lon="3.61021">
        <ele>146</ele>
        <time>2019-04-02T07:01:42Z</time>
      </trkpt>
      <trkpt lat="47.7763" lon="3.61023">
        <ele>147</ele>
        <time>2019-04-02T07:01:47Z</time>
      </trkpt>
      <trkpt lat="47.77628" lon="3.61025">
        <ele>147</ele>
        <time>2019-04-02T07:01:49Z</time>
      </trkpt>
      <trkpt lat="47.77621" lon="3.61024">
        <ele>147</ele>
        <time>2019-04-02T07:01:54Z</time>
      </trkpt>
      <trkpt lat="47.77616" lon="3.61025">
        <ele>147</ele>
        <time>2019-04-02T07:01:59Z</time>
      </trkpt>
      <trkpt lat="47.77613" lon="3.61025">
        <ele>148</ele>
        <time>2019-04-02T07:02:01Z</time>
      </trkpt>
      <trkpt lat="47.77609" lon="3.61025">
        <ele>148</ele>
        <time>2019-04-02T07:02:04Z</time>
      </trkpt>
      <trkpt lat="47.77603" lon="3.61027">
        <ele>149</ele>
        <time>2019-04-02T07:02:09Z</time>
      </trkpt>
      <trkpt lat="47.77601" lon="3.61028">
        <ele>149</ele>
        <time>2019-04-02T07:02:11Z</time>
      </trkpt>
      <trkpt lat="47.77593" lon="3.61027">
        <ele>150</ele>
        <time>2019-04-02T07:02:17Z</time>
      </trkpt>
      <trkpt lat="47.7759" lon="3.61027">
        <ele>150</ele>
        <time>2019-04-02T07:02:20Z</time>
      </trkpt>
      <trkpt lat="47.77585" lon="3.61029">
        <ele>150</ele>
        <time>2019-04-02T07:02:24Z</time>
      </trkpt>
      <trkpt lat="47.7758" lon="3.61028">
        <ele>149</ele>
        <time>2019-04-02T07:02:30Z</time>
      </trkpt>
      <trkpt lat="47.77575" lon="3.61027">
        <ele>150</ele>
        <time>2019-04-02T07:02:33Z</time>
      </trkpt>
      <trkpt lat="47.7757" lon="3.61028">
        <ele>151</ele>
        <time>2019-04-02T07:02:36Z</time>
      </trkpt>
      <trkpt lat="47.77567" lon="3.61029">
        <ele>151</ele>
        <time>2019-04-02T07:02:38Z</time>
      </trkpt>
      <trkpt lat="47.77563" lon="3.6103">
        <ele>150</ele>
        <time>2019-04-02T07:02:41Z</time>
      </trkpt>
      <trkpt lat="47.7756" lon="3.61031">
        <ele>150</ele>
        <time>2019-04-02T07:02:43Z</time>
      </trkpt>
      <trkpt lat="47.77555" lon="3.61031">
        <ele>149</ele>
        <time>2019-04-02T07:02:46Z</time>
      </trkpt>
      <trkpt lat="47.77549" lon="3.61034">
        <ele>149</ele>
        <time>2019-04-02T07:02:51Z</time>
      </trkpt>
      <trkpt lat="47.77543" lon="3.61033">
        <ele>149</ele>
        <time>2019-04-02T07:02:56Z</time>
      </trkpt>
      <trkpt lat="47.77539" lon="3.61033">
        <ele>149</ele>
        <time>2019-04-02T07:03:00Z</time>
      </trkpt>
      <trkpt lat="47.77534" lon="3.61034">
        <ele>150</ele>
        <time>2019-04-02T07:03:04Z</time>
      </trkpt>
      <trkpt lat="47.77532" lon="3.61035">
        <ele>151</ele>
        <time>2019-04-02T07:03:06Z</time>
      </trkpt>
      <trkpt lat="47.77527" lon="3.61035">
        <ele>150</ele>
        <time>2019-04-02T07:03:10Z</time>
      </trkpt>
      <trkpt lat="47.77524" lon="3.61035">
        <ele>149</ele>
        <time>2019-04-02T07:03:13Z</time>
      </trkpt>
      <trkpt lat="47.77519" lon="3.61034">
        <ele>150</ele>
        <time>2019-04-02T07:03:16Z</time>
      </trkpt>
      <trkpt lat="47.77517" lon="3.61034">
        <ele>150</ele>
        <time>2019-04-02T07:03:18Z</time>
      </trkpt>
      <trkpt lat="47.77511" lon="3.61034">
        <ele>151</ele>
        <time>2019-04-02T07:03:23Z</time>
      </trkpt>
      <trkpt lat="47.77507" lon="3.61033">
        <ele>151</ele>
        <time>2019-04-02T07:03:26Z</time>
      </trkpt>
      <trkpt lat="47.77502" lon="3.61033">
        <ele>150</ele>
        <time>2019-04-02T07:03:30Z</time>
      </trkpt>
      <trkpt lat="47.77499" lon="3.61032">
        <ele>150</ele>
        <time>2019-04-02T07:03:33Z</time>
      </trkpt>
      <trkpt lat="47.77494" lon="3.61029">
        <ele>151</ele>
        <time>2019-04-02T07:03:37Z</time>
      </trkpt>
      <trkpt lat="47.7749" lon="3.61028">
        <ele>151</ele>
        <time>2019-04-02T07:03:41Z</time>
      </trkpt>
      <trkpt lat="47.77486" lon="3.61024">
        <ele>151</ele>
        <time>2019-04-02T07:03:44Z</time>
      </trkpt>
      <trkpt lat="47.77483" lon="3.61021">
        <ele>152</ele>
        <time>2019-04-02T07:03:47Z</time>
      </trkpt>
      <trkpt lat="47.77478" lon="3.61019">
        <ele>152</ele>
        <time>2019-04-02T07:03:51Z</time>
      </trkpt>
      <trkpt lat="47.77474" lon="3.61016">
        <ele>153</ele>
        <time>2019-04-02T07:03:54Z</time>
      </trkpt>
      <trkpt lat="47.77467" lon="3.61013">
        <ele>156</ele>
        <time>2019-04-02T07:03:59Z</time>
      </trkpt>
      <trkpt lat="47.77463" lon="3.6101">
        <ele>156</ele>
        <time>2019-04-02T07:04:03Z</time>
      </trkpt>
      <trkpt lat="47.77459" lon="3.61006">
        <ele>156</ele>
        <time>2019-04-02T07:04:06Z</time>
      </trkpt>
      <trkpt lat="47.77456" lon="3.61003">
        <ele>156</ele>
        <time>2019-04-02T07:04:09Z</time>
      </trkpt>
      <trkpt lat="47.77451" lon="3.60999">
        <ele>155</ele>
        <time>2019-04-02T07:04:14Z</time>
      </trkpt>
      <trkpt lat="47.77446" lon="3.60995">
        <ele>155</ele>
        <time>2019-04-02T07:04:18Z</time>
      </trkpt>
      <trkpt lat="47.7744" lon="3.60994">
        <ele>156</ele>
        <time>2019-04-02T07:04:22Z</time>
      </trkpt>
      <trkpt lat="47.77436" lon="3.60989">
        <ele>157</ele>
        <time>2019-04-02T07:04:26Z</time>
      </trkpt>
      <trkpt lat="47.77432" lon="3.60985">
        <ele>157</ele>
        <time>2019-04-02T07:04:30Z</time>
      </trkpt>
      <trkpt lat="47.7743" lon="3.60984">
        <ele>158</ele>
        <time>2019-04-02T07:04:32Z</time>
      </trkpt>
      <trkpt lat="47.77425" lon="3.60979">
        <ele>159</ele>
        <time>2019-04-02T07:04:36Z</time>
      </trkpt>
      <trkpt lat="47.77422" lon="3.60974">
        <ele>159</ele>
        <time>2019-04-02T07:04:41Z</time>
      </trkpt>
      <trkpt lat="47.7742" lon="3.60971">
        <ele>159</ele>
        <time>2019-04-02T07:04:43Z</time>
      </trkpt>
      <trkpt lat="47.77417" lon="3.60966">
        <ele>159</ele>
        <time>2019-04-02T07:04:47Z</time>
      </trkpt>
      <trkpt lat="47.77412" lon="3.60962">
        <ele>159</ele>
        <time>2019-04-02T07:04:51Z</time>
      </trkpt>
      <trkpt lat="47.77407" lon="3.60956">
        <ele>159</ele>
        <time>2019-04-02T07:04:56Z</time>
      </trkpt>
      <trkpt lat="47.77403" lon="3.60953">
        <ele>158</ele>
        <time>2019-04-02T07:05:01Z</time>
      </trkpt>
      <trkpt lat="47.77399" lon="3.60951">
        <ele>159</ele>
        <time>2019-04-02T07:05:03Z</time>
      </trkpt>
      <trkpt lat="47.77395" lon="3.60946">
        <ele>159</ele>
        <time>2019-04-02T07:05:07Z</time>
      </trkpt>
      <trkpt lat="47.77392" lon="3.60942">
        <ele>160</ele>
        <time>2019-04-02T07:05:10Z</time>
      </trkpt>
      <trkpt lat="47.77387" lon="3.60938">
        <ele>161</ele>
        <time>2019-04-02T07:05:14Z</time>
      </trkpt>
      <trkpt lat="47.77381" lon="3.60934">
        <ele>161</ele>
        <time>2019-04-02T07:05:17Z</time>
      </trkpt>
      <trkpt lat="47.77375" lon="3.6093">
        <ele>161</ele>
        <time>2019-04-02T07:05:23Z</time>
      </trkpt>
      <trkpt lat="47.77371" lon="3.60925">
        <ele>161</ele>
        <time>2019-04-02T07:05:27Z</time>
      </trkpt>
      <trkpt lat="47.77369" lon="3.60923">
        <ele>159</ele>
        <time>2019-04-02T07:05:30Z</time>
      </trkpt>
      <trkpt lat="47.77364" lon="3.6092">
        <ele>159</ele>
        <time>2019-04-02T07:05:34Z</time>
      </trkpt>
      <trkpt lat="47.77359" lon="3.60917">
        <ele>157</ele>
        <time>2019-04-02T07:05:38Z</time>
      </trkpt>
      <trkpt lat="47.77355" lon="3.60912">
        <ele>156</ele>
        <time>2019-04-02T07:05:43Z</time>
      </trkpt>
      <trkpt lat="47.77352" lon="3.60909">
        <ele>155</ele>
        <time>2019-04-02T07:05:46Z</time>
      </trkpt>
      <trkpt lat="47.77348" lon="3.60906">
        <ele>154</ele>
        <time>2019-04-02T07:05:49Z</time>
      </trkpt>
      <trkpt lat="47.77344" lon="3.60899">
        <ele>154</ele>
        <time>2019-04-02T07:05:53Z</time>
      </trkpt>
      <trkpt lat="47.77342" lon="3.60896">
        <ele>154</ele>
        <time>2019-04-02T07:05:55Z</time>
      </trkpt>
      <trkpt lat="47.7734" lon="3.60893">
        <ele>154</ele>
        <time>2019-04-02T07:05:57Z</time>
      </trkpt>
      <trkpt lat="47.77336" lon="3.60889">
        <ele>154</ele>
        <time>2019-04-02T07:06:00Z</time>
      </trkpt>
      <trkpt lat="47.77332" lon="3.60885">
        <ele>153</ele>
        <time>2019-04-02T07:06:04Z</time>
      </trkpt>
      <trkpt lat="47.7733" lon="3.60883">
        <ele>153</ele>
        <time>2019-04-02T07:06:06Z</time>
      </trkpt>
      <trkpt lat="47.77324" lon="3.6088">
        <ele>153</ele>
        <time>2019-04-02T07:06:10Z</time>
      </trkpt>
      <trkpt lat="47.77321" lon="3.60875">
        <ele>153</ele>
        <time>2019-04-02T07:06:14Z</time>
      </trkpt>
      <trkpt lat="47.77318" lon="3.60871">
        <ele>154</ele>
        <time>2019-04-02T07:06:17Z</time>
      </trkpt>
      <trkpt lat="47.77313" lon="3.60867">
        <ele>154</ele>
        <time>2019-04-02T07:06:21Z</time>
      </trkpt>
      <trkpt lat="47.77311" lon="3.60866">
        <ele>155</ele>
        <time>2019-04-02T07:06:23Z</time>
      </trkpt>
      <trkpt lat="47.77307" lon="3.60861">
        <ele>155</ele>
        <time>2019-04-02T07:06:27Z</time>
      </trkpt>
      <trkpt lat="47.77303" lon="3.60858">
        <ele>156</ele>
        <time>2019-04-02T07:06:30Z</time>
      </trkpt>
      <trkpt lat="47.77299" lon="3.60856">
        <ele>155</ele>
        <time>2019-04-02T07:06:32Z</time>
      </trkpt>
      <trkpt lat="47.77297" lon="3.60854">
        <ele>155</ele>
        <time>2019-04-02T07:06:34Z</time>
      </trkpt>
      <trkpt lat="47.77292" lon="3.60848">
        <ele>156</ele>
        <time>2019-04-02T07:06:39Z</time>
      </trkpt>
      <trkpt lat="47.77288" lon="3.60845">
        <ele>157</ele>
        <time>2019-04-02T07:06:43Z</time>
      </trkpt>
      <trkpt lat="47.77284" lon="3.60843">
        <ele>157</ele>
        <time>2019-04-02T07:06:46Z</time>
      </trkpt>
      <trkpt lat="47.77282" lon="3.60841">
        <ele>157</ele>
        <time>2019-04-02T07:06:48Z</time>
      </trkpt>
      <trkpt lat="47.7728" lon="3.60839">
        <ele>157</ele>
        <time>2019-04-02T07:06:50Z</time>
      </trkpt>
      <trkpt lat="47.77275" lon="3.60836">
        <ele>156</ele>
        <time>2019-04-02T07:06:53Z</time>
      </trkpt>
      <trkpt lat="47.77271" lon="3.60833">
        <ele>156</ele>
        <time>2019-04-02T07:06:56Z</time>
      </trkpt>
      <trkpt lat="47.77269" lon="3.60831">
        <ele>156</ele>
        <time>2019-04-02T07:06:58Z</time>
      </trkpt>
      <trkpt lat="47.77266" lon="3.60825">
        <ele>157</ele>
        <time>2019-04-02T07:07:02Z</time>
      </trkpt>
      <trkpt lat="47.77264" lon="3.60822">
        <ele>157</ele>
        <time>2019-04-02T07:07:04Z</time>
      </trkpt>
      <trkpt lat="47.77259" lon="3.60817">
        <ele>157</ele>
        <time>2019-04-02T07:07:09Z</time>
      </trkpt>
      <trkpt lat="47.77257" lon="3.60814">
        <ele>157</ele>
        <time>2019-04-02T07:07:12Z</time>
      </trkpt>
      <trkpt lat="47.77255" lon="3.60811">
        <ele>158</ele>
        <time>2019-04-02T07:07:14Z</time>
      </trkpt>
      <trkpt lat="47.77252" lon="3.60808">
        <ele>158</ele>
        <time>2019-04-02T07:07:16Z</time>
      </trkpt>
      <trkpt lat="47.77248" lon="3.60805">
        <ele>158</ele>
        <time>2019-04-02T07:07:19Z</time>
      </trkpt>
      <trkpt lat="47.77244" lon="3.60799">
        <ele>158</ele>
        <time>2019-04-02T07:07:24Z</time>
      </trkpt>
      <trkpt lat="47.7724" lon="3.60796">
        <ele>158</ele>
        <time>2019-04-02T07:07:27Z</time>
      </trkpt>
      <trkpt lat="47.77236" lon="3.60791">
        <ele>157</ele>
        <time>2019-04-02T07:07:31Z</time>
      </trkpt>
      <trkpt lat="47.77234" lon="3.60788">
        <ele>157</ele>
        <time>2019-04-02T07:07:33Z</time>
      </trkpt>
      <trkpt lat="47.77232" lon="3.60786">
        <ele>157</ele>
        <time>2019-04-02T07:07:35Z</time>
      </trkpt>
      <trkpt lat="47.7723" lon="3.60784">
        <ele>156</ele>
        <time>2019-04-02T07:07:37Z</time>
      </trkpt>
      <trkpt lat="47.77226" lon="3.60776">
        <ele>156</ele>
        <time>2019-04-02T07:07:42Z</time>
      </trkpt>
      <trkpt lat="47.77222" lon="3.60771">
        <ele>156</ele>
        <time>2019-04-02T07:07:46Z</time>
      </trkpt>
      <trkpt lat="47.77218" lon="3.60768">
        <ele>156</ele>
        <time>2019-04-02T07:07:49Z</time>
      </trkpt>
      <trkpt lat="47.77213" lon="3.60763">
        <ele>157</ele>
        <time>2019-04-02T07:07:53Z</time>
      </trkpt>
      <trkpt lat="47.77209" lon="3.60757">
        <ele>156</ele>
        <time>2019-04-02T07:07:58Z</time>
      </trkpt>
      <trkpt lat="47.77205" lon="3.60752">
        <ele>156</ele>
        <time>2019-04-02T07:08:02Z</time>
      </trkpt>
      <trkpt lat="47.77203" lon="3.6075">
        <ele>156</ele>
        <time>2019-04-02T07:08:04Z</time>
      </trkpt>
      <trkpt lat="47.772" lon="3.60744">
        <ele>155</ele>
        <time>2019-04-02T07:08:08Z</time>
      </trkpt>
      <trkpt lat="47.77197" lon="3.60739">
        <ele>155</ele>
        <time>2019-04-02T07:08:12Z</time>
      </trkpt>
      <trkpt lat="47.77194" lon="3.60735">
        <ele>155</ele>
        <time>2019-04-02T07:08:16Z</time>
      </trkpt>
      <trkpt lat="47.77191" lon="3.60732">
        <ele>155</ele>
        <time>2019-04-02T07:08:18Z</time>
      </trkpt>
      <trkpt lat="47.77188" lon="3.60728">
        <ele>155</ele>
        <time>2019-04-02T07:08:21Z</time>
      </trkpt>
      <trkpt lat="47.77185" lon="3.60725">
        <ele>154</ele>
        <time>2019-04-02T07:08:24Z</time>
      </trkpt>
      <trkpt lat="47.77182" lon="3.60719">
        <ele>154</ele>
        <time>2019-04-02T07:08:28Z</time>
      </trkpt>
      <trkpt lat="47.77178" lon="3.60713">
        <ele>154</ele>
        <time>2019-04-02T07:08:32Z</time>
      </trkpt>
      <trkpt lat="47.77176" lon="3.6071">
        <ele>154</ele>
        <time>2019-04-02T07:08:34Z</time>
      </trkpt>
      <trkpt lat="47.77174" lon="3.60707">
        <ele>154</ele>
        <time>2019-04-02T07:08:37Z</time>
      </trkpt>
      <trkpt lat="47.7717" lon="3.60703">
        <ele>155</ele>
        <time>2019-04-02T07:08:40Z</time>
      </trkpt>
      <trkpt lat="47.77166" lon="3.60698">
        <ele>155</ele>
        <time>2019-04-02T07:08:45Z</time>
      </trkpt>
      <trkpt lat="47.77163" lon="3.60696">
        <ele>155</ele>
        <time>2019-04-02T07:08:47Z</time>
      </trkpt>
      <trkpt lat="47.77161" lon="3.60693">
        <ele>155</ele>
        <time>2019-04-02T07:08:50Z</time>
      </trkpt>
      <trkpt lat="47.77158" lon="3.60687">
        <ele>156</ele>
        <time>2019-04-02T07:08:54Z</time>
      </trkpt>
      <trkpt lat="47.77154" lon="3.60683">
        <ele>157</ele>
        <time>2019-04-02T07:08:58Z</time>
      </trkpt>
      <trkpt lat="47.7715" lon="3.60679">
        <ele>156</ele>
        <time>2019-04-02T07:09:01Z</time>
      </trkpt>
      <trkpt lat="47.77146" lon="3.60675">
        <ele>158</ele>
        <time>2019-04-02T07:09:05Z</time>
      </trkpt>
      <trkpt lat="47.77143" lon="3.60671">
        <ele>158</ele>
        <time>2019-04-02T07:09:08Z</time>
      </trkpt>
      <trkpt lat="47.77141" lon="3.60668">
        <ele>159</ele>
        <time>2019-04-02T07:09:10Z</time>
      </trkpt>
      <trkpt lat="47.77136" lon="3.60666">
        <ele>160</ele>
        <time>2019-04-02T07:09:14Z</time>
      </trkpt>
      <trkpt lat="47.77132" lon="3.60661">
        <ele>159</ele>
        <time>2019-04-02T07:09:18Z</time>
      </trkpt>
      <trkpt lat="47.77129" lon="3.60658">
        <ele>160</ele>
        <time>2019-04-02T07:09:21Z</time>
      </trkpt>
      <trkpt lat="47.77126" lon="3.60656">
        <ele>160</ele>
        <time>2019-04-02T07:09:24Z</time>
      </trkpt>
      <trkpt lat="47.77123" lon="3.60653">
        <ele>160</ele>
        <time>2019-04-02T07:09:26Z</time>
      </trkpt>
      <trkpt lat="47.7712" lon="3.60651">
        <ele>159</ele>
        <time>2019-04-02T07:09:28Z</time>
      </trkpt>
      <trkpt lat="47.77118" lon="3.6065">
        <ele>160</ele>
        <time>2019-04-02T07:09:30Z</time>
      </trkpt>
      <trkpt lat="47.77115" lon="3.60648">
        <ele>160</ele>
        <time>2019-04-02T07:09:32Z</time>
      </trkpt>
      <trkpt lat="47.7711" lon="3.60645">
        <ele>160</ele>
        <time>2019-04-02T07:09:35Z</time>
      </trkpt>
      <trkpt lat="47.77107" lon="3.60641">
        <ele>160</ele>
        <time>2019-04-02T07:09:40Z</time>
      </trkpt>
      <trkpt lat="47.77102" lon="3.60638">
        <ele>160</ele>
        <time>2019-04-02T07:09:44Z</time>
      </trkpt>
      <trkpt lat="47.771" lon="3.60637">
        <ele>161</ele>
        <time>2019-04-02T07:09:46Z</time>
      </trkpt>
      <trkpt lat="47.77097" lon="3.60636">
        <ele>161</ele>
        <time>2019-04-02T07:09:47Z</time>
      </trkpt>
      <trkpt lat="47.77095" lon="3.60635">
        <ele>160</ele>
        <time>2019-04-02T07:09:49Z</time>
      </trkpt>
      <trkpt lat="47.77093" lon="3.60634">
        <ele>161</ele>
        <time>2019-04-02T07:09:51Z</time>
      </trkpt>
      <trkpt lat="47.77089" lon="3.6063">
        <ele>161</ele>
        <time>2019-04-02T07:09:56Z</time>
      </trkpt>
      <trkpt lat="47.77086" lon="3.60629">
        <ele>161</ele>
        <time>2019-04-02T07:09:58Z</time>
      </trkpt>
      <trkpt lat="47.77084" lon="3.60627">
        <ele>161</ele>
        <time>2019-04-02T07:10:00Z</time>
      </trkpt>
      <trkpt lat="47.77079" lon="3.60624">
        <ele>162</ele>
        <time>2019-04-02T07:10:04Z</time>
      </trkpt>
      <trkpt lat="47.77075" lon="3.6062">
        <ele>161</ele>
        <time>2019-04-02T07:10:08Z</time>
      </trkpt>
      <trkpt lat="47.77072" lon="3.60618">
        <ele>161</ele>
        <time>2019-04-02T07:10:10Z</time>
      </trkpt>
      <trkpt lat="47.7707" lon="3.60616">
        <ele>161</ele>
        <time>2019-04-02T07:10:12Z</time>
      </trkpt>
      <trkpt lat="47.77065" lon="3.60614">
        <ele>161</ele>
        <time>2019-04-02T07:10:17Z</time>
      </trkpt>
      <trkpt lat="47.77061" lon="3.60609">
        <ele>161</ele>
        <time>2019-04-02T07:10:21Z</time>
      </trkpt>
      <trkpt lat="47.77056" lon="3.60606">
        <ele>162</ele>
        <time>2019-04-02T07:10:24Z</time>
      </trkpt>
      <trkpt lat="47.77052" lon="3.60602">
        <ele>162</ele>
        <time>2019-04-02T07:10:29Z</time>
      </trkpt>
      <trkpt lat="47.77049" lon="3.60599">
        <ele>162</ele>
        <time>2019-04-02T07:10:32Z</time>
      </trkpt>
      <trkpt lat="47.77046" lon="3.60597">
        <ele>163</ele>
        <time>2019-04-02T07:10:35Z</time>
      </trkpt>
      <trkpt lat="47.77041" lon="3.60593">
        <ele>164</ele>
        <time>2019-04-02T07:10:37Z</time>
      </trkpt>
      <trkpt lat="47.77037" lon="3.6059">
        <ele>164</ele>
        <time>2019-04-02T07:10:41Z</time>
      </trkpt>
      <trkpt lat="47.77032" lon="3.60586">
        <ele>163</ele>
        <time>2019-04-02T07:10:45Z</time>
      </trkpt>
      <trkpt lat="47.77028" lon="3.6058">
        <ele>165</ele>
        <time>2019-04-02T07:10:50Z</time>
      </trkpt>
      <trkpt lat="47.77024" lon="3.60577">
        <ele>165</ele>
        <time>2019-04-02T07:10:53Z</time>
      </trkpt>
      <trkpt lat="47.7702" lon="3.60573">
        <ele>166</ele>
        <time>2019-04-02T07:10:58Z</time>
      </trkpt>
      <trkpt lat="47.77015" lon="3.60567">
        <ele>167</ele>
        <time>2019-04-02T07:11:03Z</time>
      </trkpt>
      <trkpt lat="47.77011" lon="3.60564">
        <ele>166</ele>
        <time>2019-04-02T07:11:07Z</time>
      </trkpt>
      <trkpt lat="47.77008" lon="3.60561">
        <ele>166</ele>
        <time>2019-04-02T07:11:10Z</time>
      </trkpt>
      <trkpt lat="47.77003" lon="3.60556">
        <ele>165</ele>
        <time>2019-04-02T07:11:14Z</time>
      </trkpt>
      <trkpt lat="47.76999" lon="3.60553">
        <ele>164</ele>
        <time>2019-04-02T07:11:17Z</time>
      </trkpt>
      <trkpt lat="47.76994" lon="3.60549">
        <ele>164</ele>
        <time>2019-04-02T07:11:21Z</time>
      </trkpt>
      <trkpt lat="47.76989" lon="3.60545">
        <ele>164</ele>
        <time>2019-04-02T07:11:25Z</time>
      </trkpt>
      <trkpt lat="47.76986" lon="3.60544">
        <ele>164</ele>
        <time>2019-04-02T07:11:27Z</time>
      </trkpt>
      <trkpt lat="47.76983" lon="3.60539">
        <ele>164</ele>
        <time>2019-04-02T07:11:30Z</time>
      </trkpt>
      <trkpt lat="47.7698" lon="3.60535">
        <ele>165</ele>
        <time>2019-04-02T07:11:34Z</time>
      </trkpt>
      <trkpt lat="47.76975" lon="3.60532">
        <ele>165</ele>
        <time>2019-04-02T07:11:37Z</time>
      </trkpt>
      <trkpt lat="47.76971" lon="3.6053">
        <ele>165</ele>
        <time>2019-04-02T07:11:41Z</time>
      </trkpt>
      <trkpt lat="47.76967" lon="3.60527">
        <ele>164</ele>
        <time>2019-04-02T07:11:45Z</time>
      </trkpt>
      <trkpt lat="47.76963" lon="3.60524">
        <ele>164</ele>
        <time>2019-04-02T07:11:48Z</time>
      </trkpt>
      <trkpt lat="47.76958" lon="3.60519">
        <ele>162</ele>
        <time>2019-04-02T07:11:53Z</time>
      </trkpt>
      <trkpt lat="47.76956" lon="3.60516">
        <ele>163</ele>
        <time>2019-04-02T07:11:55Z</time>
      </trkpt>
      <trkpt lat="47.76951" lon="3.60514">
        <ele>161</ele>
        <time>2019-04-02T07:11:59Z</time>
      </trkpt>
      <trkpt lat="47.76948" lon="3.60508">
        <ele>160</ele>
        <time>2019-04-02T07:12:03Z</time>
      </trkpt>
      <trkpt lat="47.76945" lon="3.60501">
        <ele>157</ele>
        <time>2019-04-02T07:12:08Z</time>
      </trkpt>
      <trkpt lat="47.7694" lon="3.605">
        <ele>155</ele>
        <time>2019-04-02T07:12:13Z</time>
      </trkpt>
      <trkpt lat="47.76936" lon="3.60494">
        <ele>155</ele>
        <time>2019-04-02T07:12:17Z</time>
      </trkpt>
      <trkpt lat="47.76932" lon="3.60488">
        <ele>156</ele>
        <time>2019-04-02T07:12:21Z</time>
      </trkpt>
      <trkpt lat="47.7693" lon="3.60485">
        <ele>155</ele>
        <time>2019-04-02T07:12:23Z</time>
      </trkpt>
      <trkpt lat="47.76926" lon="3.60484">
        <ele>153</ele>
        <time>2019-04-02T07:12:31Z</time>
      </trkpt>
      <trkpt lat="47.76924" lon="3.60478">
        <ele>155</ele>
        <time>2019-04-02T07:17:33Z</time>
      </trkpt>
      <trkpt lat="47.7692" lon="3.6047">
        <ele>156</ele>
        <time>2019-04-02T07:17:41Z</time>
      </trkpt>
      <trkpt lat="47.76916" lon="3.60464">
        <ele>157</ele>
        <time>2019-04-02T07:17:45Z</time>
      </trkpt>
      <trkpt lat="47.76912" lon="3.60459">
        <ele>157</ele>
        <time>2019-04-02T07:17:50Z</time>
      </trkpt>
      <trkpt lat="47.7691" lon="3.60454">
        <ele>155</ele>
        <time>2019-04-02T07:17:55Z</time>
      </trkpt>
      <trkpt lat="47.76907" lon="3.60448">
        <ele>155</ele>
        <time>2019-04-02T07:17:59Z</time>
      </trkpt>
      <trkpt lat="47.76905" lon="3.60445">
        <ele>155</ele>
        <time>2019-04-02T07:18:01Z</time>
      </trkpt>
      <trkpt lat="47.769" lon="3.60439">
        <ele>157</ele>
        <time>2019-04-02T07:18:06Z</time>
      </trkpt>
      <trkpt lat="47.76896" lon="3.60431">
        <ele>157</ele>
        <time>2019-04-02T07:18:10Z</time>
      </trkpt>
      <trkpt lat="47.76894" lon="3.60427">
        <ele>156</ele>
        <time>2019-04-02T07:18:12Z</time>
      </trkpt>
      <trkpt lat="47.7689" lon="3.60423">
        <ele>157</ele>
        <time>2019-04-02T07:18:16Z</time>
      </trkpt>
      <trkpt lat="47.76887" lon="3.60416">
        <ele>157</ele>
        <time>2019-04-02T07:18:20Z</time>
      </trkpt>
      <trkpt lat="47.76884" lon="3.6041">
        <ele>156</ele>
        <time>2019-04-02T07:18:25Z</time>
      </trkpt>
      <trkpt lat="47.76881" lon="3.60404">
        <ele>156</ele>
        <time>2019-04-02T07:18:29Z</time>
      </trkpt>
      <trkpt lat="47.76879" lon="3.604">
        <ele>156</ele>
        <time>2019-04-02T07:18:32Z</time>
      </trkpt>
      <trkpt lat="47.76874" lon="3.60396">
        <ele>156</ele>
        <time>2019-04-02T07:18:36Z</time>
      </trkpt>
      <trkpt lat="47.76869" lon="3.60392">
        <ele>156</ele>
        <time>2019-04-02T07:18:41Z</time>
      </trkpt>
      <trkpt lat="47.76865" lon="3.60384">
        <ele>158</ele>
        <time>2019-04-02T07:18:46Z</time>
      </trkpt>
      <trkpt lat="47.76863" lon="3.60378">
        <ele>157</ele>
        <time>2019-04-02T07:18:49Z</time>
      </trkpt>
      <trkpt lat="47.76861" lon="3.60372">
        <ele>158</ele>
        <time>2019-04-02T07:18:53Z</time>
      </trkpt>
      <trkpt lat="47.76858" lon="3.60366">
        <ele>158</ele>
        <time>2019-04-02T07:18:56Z</time>
      </trkpt>
      <trkpt lat="47.76856" lon="3.60359">
        <ele>158</ele>
        <time>2019-04-02T07:19:00Z</time>
      </trkpt>
      <trkpt lat="47.76853" lon="3.60353">
        <ele>158</ele>
        <time>2019-04-02T07:19:04Z</time>
      </trkpt>
      <trkpt lat="47.7685" lon="3.60346">
        <ele>157</ele>
        <time>2019-04-02T07:19:08Z</time>
      </trkpt>
      <trkpt lat="47.76849" lon="3.60339">
        <ele>157</ele>
        <time>2019-04-02T07:19:12Z</time>
      </trkpt>
      <trkpt lat="47.76846" lon="3.60332">
        <ele>157</ele>
        <time>2019-04-02T07:19:16Z</time>
      </trkpt>
      <trkpt lat="47.76841" lon="3.60325">
        <ele>157</ele>
        <time>2019-04-02T07:19:21Z</time>
      </trkpt>
      <trkpt lat="47.76838" lon="3.6032">
        <ele>157</ele>
        <time>2019-04-02T07:19:24Z</time>
      </trkpt>
      <trkpt lat="47.76835" lon="3.60312">
        <ele>157</ele>
        <time>2019-04-02T07:19:28Z</time>
      </trkpt>
      <trkpt lat="47.76831" lon="3.60307">
        <ele>158</ele>
        <time>2019-04-02T07:19:32Z</time>
      </trkpt>
      <trkpt lat="47.76828" lon="3.60301">
        <ele>158</ele>
        <time>2019-04-02T07:19:36Z</time>
      </trkpt>
      <trkpt lat="47.76826" lon="3.60298">
        <ele>157</ele>
        <time>2019-04-02T07:19:38Z</time>
      </trkpt>
      <trkpt lat="47.76824" lon="3.60294">
        <ele>157</ele>
        <time>2019-04-02T07:19:41Z</time>
      </trkpt>
      <trkpt lat="47.76822" lon="3.60288">
        <ele>157</ele>
        <time>2019-04-02T07:19:45Z</time>
      </trkpt>
      <trkpt lat="47.76817" lon="3.60281">
        <ele>156</ele>
        <time>2019-04-02T07:19:51Z</time>
      </trkpt>
      <trkpt lat="47.76814" lon="3.60275">
        <ele>156</ele>
        <time>2019-04-02T07:19:55Z</time>
      </trkpt>
      <trkpt lat="47.76813" lon="3.60272">
        <ele>155</ele>
        <time>2019-04-02T07:19:57Z</time>
      </trkpt>
      <trkpt lat="47.76809" lon="3.60267">
        <ele>155</ele>
        <time>2019-04-02T07:20:01Z</time>
      </trkpt>
      <trkpt lat="47.76807" lon="3.60261">
        <ele>155</ele>
        <time>2019-04-02T07:20:05Z</time>
      </trkpt>
      <trkpt lat="47.76802" lon="3.60258">
        <ele>156</ele>
        <time>2019-04-02T07:20:08Z</time>
      </trkpt>
      <trkpt lat="47.76799" lon="3.60253">
        <ele>155</ele>
        <time>2019-04-02T07:20:11Z</time>
      </trkpt>
      <trkpt lat="47.76797" lon="3.60245">
        <ele>155</ele>
        <time>2019-04-02T07:20:15Z</time>
      </trkpt>
      <trkpt lat="47.76793" lon="3.60239">
        <ele>156</ele>
        <time>2019-04-02T07:20:19Z</time>
      </trkpt>
      <trkpt lat="47.76791" lon="3.60236">
        <ele>156</ele>
        <time>2019-04-02T07:20:22Z</time>
      </trkpt>
      <trkpt lat="47.76786" lon="3.60227">
        <ele>158</ele>
        <time>2019-04-02T07:20:27Z</time>
      </trkpt>
      <trkpt lat="47.76783" lon="3.60223">
        <ele>158</ele>
        <time>2019-04-02T07:20:30Z</time>
      </trkpt>
      <trkpt lat="47.76781" lon="3.6022">
        <ele>157</ele>
        <time>2019-04-02T07:20:32Z</time>
      </trkpt>
      <trkpt lat="47.76779" lon="3.60215">
        <ele>158</ele>
        <time>2019-04-02T07:20:35Z</time>
      </trkpt>
      <trkpt lat="47.76775" lon="3.60208">
        <ele>158</ele>
        <time>2019-04-02T07:20:39Z</time>
      </trkpt>
      <trkpt lat="47.76772" lon="3.602">
        <ele>158</ele>
        <time>2019-04-02T07:20:43Z</time>
      </trkpt>
      <trkpt lat="47.76768" lon="3.60193">
        <ele>158</ele>
        <time>2019-04-02T07:20:47Z</time>
      </trkpt>
      <trkpt lat="47.76766" lon="3.6019">
        <ele>158</ele>
        <time>2019-04-02T07:20:49Z</time>
      </trkpt>
      <trkpt lat="47.76762" lon="3.60185">
        <ele>158</ele>
        <time>2019-04-02T07:20:53Z</time>
      </trkpt>
      <trkpt lat="47.76759" lon="3.6018">
        <ele>158</ele>
        <time>2019-04-02T07:20:57Z</time>
      </trkpt>
      <trkpt lat="47.76757" lon="3.60177">
        <ele>157</ele>
        <time>2019-04-02T07:20:59Z</time>
      </trkpt>
      <trkpt lat="47.76753" lon="3.60173">
        <ele>157</ele>
        <time>2019-04-02T07:21:03Z</time>
      </trkpt>
      <trkpt lat="47.76751" lon="3.6017">
        <ele>157</ele>
        <time>2019-04-02T07:21:05Z</time>
      </trkpt>
      <trkpt lat="47.76747" lon="3.60164">
        <ele>156</ele>
        <time>2019-04-02T07:21:09Z</time>
      </trkpt>
      <trkpt lat="47.76745" lon="3.6016">
        <ele>156</ele>
        <time>2019-04-02T07:21:12Z</time>
      </trkpt>
      <trkpt lat="47.76742" lon="3.60153">
        <ele>156</ele>
        <time>2019-04-02T07:21:15Z</time>
      </trkpt>
      <trkpt lat="47.76738" lon="3.60147">
        <ele>156</ele>
        <time>2019-04-02T07:21:19Z</time>
      </trkpt>
      <trkpt lat="47.76735" lon="3.60139">
        <ele>157</ele>
        <time>2019-04-02T07:21:25Z</time>
      </trkpt>
      <trkpt lat="47.76732" lon="3.60133">
        <ele>157</ele>
        <time>2019-04-02T07:21:29Z</time>
      </trkpt>
      <trkpt lat="47.7673" lon="3.60129">
        <ele>156</ele>
        <time>2019-04-02T07:21:31Z</time>
      </trkpt>
      <trkpt lat="47.76726" lon="3.60124">
        <ele>154</ele>
        <time>2019-04-02T07:21:35Z</time>
      </trkpt>
      <trkpt lat="47.76724" lon="3.60121">
        <ele>154</ele>
        <time>2019-04-02T07:21:38Z</time>
      </trkpt>
      <trkpt lat="47.76721" lon="3.60114">
        <ele>154</ele>
        <time>2019-04-02T07:21:43Z</time>
      </trkpt>
      <trkpt lat="47.76717" lon="3.60109">
        <ele>155</ele>
        <time>2019-04-02T07:21:47Z</time>
      </trkpt>
      <trkpt lat="47.76714" lon="3.60105">
        <ele>156</ele>
        <time>2019-04-02T07:21:50Z</time>
      </trkpt>
      <trkpt lat="47.7671" lon="3.601">
        <ele>156</ele>
        <time>2019-04-02T07:21:54Z</time>
      </trkpt>
      <trkpt lat="47.76705" lon="3.60093">
        <ele>157</ele>
        <time>2019-04-02T07:21:59Z</time>
      </trkpt>
      <trkpt lat="47.76702" lon="3.60087">
        <ele>157</ele>
        <time>2019-04-02T07:22:02Z</time>
      </trkpt>
      <trkpt lat="47.76701" lon="3.60083">
        <ele>158</ele>
        <time>2019-04-02T07:22:04Z</time>
      </trkpt>
      <trkpt lat="47.76697" lon="3.60079">
        <ele>158</ele>
        <time>2019-04-02T07:22:09Z</time>
      </trkpt>
      <trkpt lat="47.76693" lon="3.60074">
        <ele>158</ele>
        <time>2019-04-02T07:22:13Z</time>
      </trkpt>
      <trkpt lat="47.76689" lon="3.60068">
        <ele>158</ele>
        <time>2019-04-02T07:22:17Z</time>
      </trkpt>
      <trkpt lat="47.76686" lon="3.60065">
        <ele>158</ele>
        <time>2019-04-02T07:22:19Z</time>
      </trkpt>
      <trkpt lat="47.76684" lon="3.60063">
        <ele>158</ele>
        <time>2019-04-02T07:22:21Z</time>
      </trkpt>
      <trkpt lat="47.76681" lon="3.60056">
        <ele>159</ele>
        <time>2019-04-02T07:22:25Z</time>
      </trkpt>
      <trkpt lat="47.76677" lon="3.60052">
        <ele>158</ele>
        <time>2019-04-02T07:22:28Z</time>
      </trkpt>
      <trkpt lat="47.76673" lon="3.60047">
        <ele>158</ele>
        <time>2019-04-02T07:22:31Z</time>
      </trkpt>
      <trkpt lat="47.76669" lon="3.60043">
        <ele>158</ele>
        <time>2019-04-02T07:22:34Z</time>
      </trkpt>
      <trkpt lat="47.76667" lon="3.6004">
        <ele>158</ele>
        <time>2019-04-02T07:22:36Z</time>
      </trkpt>
      <trkpt lat="47.76662" lon="3.60036">
        <ele>159</ele>
        <time>2019-04-02T07:22:41Z</time>
      </trkpt>
      <trkpt lat="47.76659" lon="3.60032">
        <ele>157</ele>
        <time>2019-04-02T07:22:44Z</time>
      </trkpt>
      <trkpt lat="47.76656" lon="3.60028">
        <ele>158</ele>
        <time>2019-04-02T07:22:47Z</time>
      </trkpt>
      <trkpt lat="47.76653" lon="3.60025">
        <ele>158</ele>
        <time>2019-04-02T07:22:49Z</time>
      </trkpt>
      <trkpt lat="47.7665" lon="3.6002">
        <ele>159</ele>
        <time>2019-04-02T07:22:53Z</time>
      </trkpt>
      <trkpt lat="47.76646" lon="3.60014">
        <ele>158</ele>
        <time>2019-04-02T07:22:57Z</time>
      </trkpt>
      <trkpt lat="47.76644" lon="3.6001">
        <ele>157</ele>
        <time>2019-04-02T07:23:00Z</time>
      </trkpt>
      <trkpt lat="47.7664" lon="3.60007">
        <ele>157</ele>
        <time>2019-04-02T07:23:04Z</time>
      </trkpt>
      <trkpt lat="47.76637" lon="3.60004">
        <ele>157</ele>
        <time>2019-04-02T07:23:07Z</time>
      </trkpt>
      <trkpt lat="47.76633" lon="3.59997">
        <ele>157</ele>
        <time>2019-04-02T07:23:11Z</time>
      </trkpt>
      <trkpt lat="47.76629" lon="3.59993">
        <ele>158</ele>
        <time>2019-04-02T07:23:14Z</time>
      </trkpt>
      <trkpt lat="47.76627" lon="3.5999">
        <ele>157</ele>
        <time>2019-04-02T07:23:16Z</time>
      </trkpt>
      <trkpt lat="47.76623" lon="3.59986">
        <ele>157</ele>
        <time>2019-04-02T07:23:20Z</time>
      </trkpt>
      <trkpt lat="47.76621" lon="3.59983">
        <ele>157</ele>
        <time>2019-04-02T07:23:22Z</time>
      </trkpt>
      <trkpt lat="47.76618" lon="3.59979">
        <ele>157</ele>
        <time>2019-04-02T07:23:25Z</time>
      </trkpt>
      <trkpt lat="47.76615" lon="3.59972">
        <ele>158</ele>
        <time>2019-04-02T07:23:29Z</time>
      </trkpt>
      <trkpt lat="47.76611" lon="3.59967">
        <ele>158</ele>
        <time>2019-04-02T07:23:33Z</time>
      </trkpt>
      <trkpt lat="47.76609" lon="3.59964">
        <ele>157</ele>
        <time>2019-04-02T07:23:35Z</time>
      </trkpt>
      <trkpt lat="47.76605" lon="3.59959">
        <ele>156</ele>
        <time>2019-04-02T07:23:40Z</time>
      </trkpt>
      <trkpt lat="47.76601" lon="3.59953">
        <ele>156</ele>
        <time>2019-04-02T07:23:43Z</time>
      </trkpt>
      <trkpt lat="47.76598" lon="3.59949">
        <ele>156</ele>
        <time>2019-04-02T07:23:46Z</time>
      </trkpt>
      <trkpt lat="47.76594" lon="3.59944">
        <ele>156</ele>
        <time>2019-04-02T07:23:50Z</time>
      </trkpt>
      <trkpt lat="47.76592" lon="3.59942">
        <ele>157</ele>
        <time>2019-04-02T07:23:52Z</time>
      </trkpt>
      <trkpt lat="47.76589" lon="3.59939">
        <ele>157</ele>
        <time>2019-04-02T07:23:54Z</time>
      </trkpt>
      <trkpt lat="47.76587" lon="3.59935">
        <ele>156</ele>
        <time>2019-04-02T07:23:56Z</time>
      </trkpt>
      <trkpt lat="47.76583" lon="3.5993">
        <ele>156</ele>
        <time>2019-04-02T07:24:00Z</time>
      </trkpt>
      <trkpt lat="47.76581" lon="3.59928">
        <ele>156</ele>
        <time>2019-04-02T07:24:02Z</time>
      </trkpt>
      <trkpt lat="47.76579" lon="3.59925">
        <ele>156</ele>
        <time>2019-04-02T07:24:04Z</time>
      </trkpt>
      <trkpt lat="47.76577" lon="3.59922">
        <ele>156</ele>
        <time>2019-04-02T07:24:06Z</time>
      </trkpt>
      <trkpt lat="47.76572" lon="3.59918">
        <ele>156</ele>
        <time>2019-04-02T07:24:09Z</time>
      </trkpt>
      <trkpt lat="47.76568" lon="3.59913">
        <ele>157</ele>
        <time>2019-04-02T07:24:13Z</time>
      </trkpt>
      <trkpt lat="47.76566" lon="3.5991">
        <ele>157</ele>
        <time>2019-04-02T07:24:15Z</time>
      </trkpt>
      <trkpt lat="47.76564" lon="3.59907">
        <ele>157</ele>
        <time>2019-04-02T07:24:17Z</time>
      </trkpt>
      <trkpt lat="47.7656" lon="3.59902">
        <ele>156</ele>
        <time>2019-04-02T07:24:21Z</time>
      </trkpt>
      <trkpt lat="47.76556" lon="3.59898">
        <ele>156</ele>
        <time>2019-04-02T07:24:25Z</time>
      </trkpt>
      <trkpt lat="47.76553" lon="3.59895">
        <ele>157</ele>
        <time>2019-04-02T07:24:28Z</time>
      </trkpt>
      <trkpt lat="47.7655" lon="3.59891">
        <ele>157</ele>
        <time>2019-04-02T07:24:31Z</time>
      </trkpt>
      <trkpt lat="47.76548" lon="3.59889">
        <ele>156</ele>
        <time>2019-04-02T07:24:33Z</time>
      </trkpt>
      <trkpt lat="47.76547" lon="3.59887">
        <ele>156</ele>
        <time>2019-04-02T07:24:35Z</time>
      </trkpt>
      <trkpt lat="47.76544" lon="3.59884">
        <ele>157</ele>
        <time>2019-04-02T07:24:37Z</time>
      </trkpt>
      <trkpt lat="47.7654" lon="3.59879">
        <ele>156</ele>
        <time>2019-04-02T07:24:41Z</time>
      </trkpt>
      <trkpt lat="47.76537" lon="3.59875">
        <ele>157</ele>
        <time>2019-04-02T07:24:44Z</time>
      </trkpt>
      <trkpt lat="47.76535" lon="3.59872">
        <ele>157</ele>
        <time>2019-04-02T07:24:45Z</time>
      </trkpt>
      <trkpt lat="47.76531" lon="3.59869">
        <ele>157</ele>
        <time>2019-04-02T07:24:48Z</time>
      </trkpt>
      <trkpt lat="47.76527" lon="3.59863">
        <ele>158</ele>
        <time>2019-04-02T07:24:52Z</time>
      </trkpt>
      <trkpt lat="47.76523" lon="3.59859">
        <ele>158</ele>
        <time>2019-04-02T07:24:55Z</time>
      </trkpt>
      <trkpt lat="47.76519" lon="3.59853">
        <ele>158</ele>
        <time>2019-04-02T07:24:59Z</time>
      </trkpt>
      <trkpt lat="47.76515" lon="3.59849">
        <ele>158</ele>
        <time>2019-04-02T07:25:03Z</time>
      </trkpt>
      <trkpt lat="47.7651" lon="3.59845">
        <ele>158</ele>
        <time>2019-04-02T07:25:07Z</time>
      </trkpt>
      <trkpt lat="47.76508" lon="3.59842">
        <ele>158</ele>
        <time>2019-04-02T07:25:09Z</time>
      </trkpt>
      <trkpt lat="47.76504" lon="3.59838">
        <ele>159</ele>
        <time>2019-04-02T07:25:13Z</time>
      </trkpt>
      <trkpt lat="47.765" lon="3.59834">
        <ele>158</ele>
        <time>2019-04-02T07:25:16Z</time>
      </trkpt>
      <trkpt lat="47.76498" lon="3.59828">
        <ele>158</ele>
        <time>2019-04-02T07:25:20Z</time>
      </trkpt>
      <trkpt lat="47.76495" lon="3.59821">
        <ele>157</ele>
        <time>2019-04-02T07:25:24Z</time>
      </trkpt>
      <trkpt lat="47.7649" lon="3.59816">
        <ele>157</ele>
        <time>2019-04-02T07:25:28Z</time>
      </trkpt>
      <trkpt lat="47.76488" lon="3.59813">
        <ele>158</ele>
        <time>2019-04-02T07:25:31Z</time>
      </trkpt>
      <trkpt lat="47.76482" lon="3.59809">
        <ele>158</ele>
        <time>2019-04-02T07:25:35Z</time>
      </trkpt>
      <trkpt lat="47.76478" lon="3.59806">
        <ele>158</ele>
        <time>2019-04-02T07:25:38Z</time>
      </trkpt>
      <trkpt lat="47.76475" lon="3.59801">
        <ele>158</ele>
        <time>2019-04-02T07:25:42Z</time>
      </trkpt>
      <trkpt lat="47.76468" lon="3.598">
        <ele>158</ele>
        <time>2019-04-02T07:25:46Z</time>
      </trkpt>
      <trkpt lat="47.76468" lon="3.598">
        <ele>158</ele>
        <time>2019-04-02T07:25:54Z</time>
      </trkpt>
      <trkpt lat="47.76468" lon="3.598">
        <ele>158</ele>
        <time>2019-04-02T07:25:56Z</time>
      </trkpt>
      <trkpt lat="47.76463" lon="3.598">
        <ele>156</ele>
        <time>2019-04-02T07:26:00Z</time>
      </trkpt>
      <trkpt lat="47.76459" lon="3.59804">
        <ele>156</ele>
        <time>2019-04-02T07:26:09Z</time>
      </trkpt>
      <trkpt lat="47.76455" lon="3.59793">
        <ele>156</ele>
        <time>2019-04-02T07:26:18Z</time>
      </trkpt>
      <trkpt lat="47.7645" lon="3.59788">
        <ele>156</ele>
        <time>2019-04-02T07:26:23Z</time>
      </trkpt>
      <trkpt lat="47.76447" lon="3.59783">
        <ele>156</ele>
        <time>2019-04-02T07:26:28Z</time>
      </trkpt>
      <trkpt lat="47.76444" lon="3.59779">
        <ele>156</ele>
        <time>2019-04-02T07:26:31Z</time>
      </trkpt>
      <trkpt lat="47.7644" lon="3.59774">
        <ele>156</ele>
        <time>2019-04-02T07:26:35Z</time>
      </trkpt>
      <trkpt lat="47.76437" lon="3.59767">
        <ele>156</ele>
        <time>2019-04-02T07:26:39Z</time>
      </trkpt>
      <trkpt lat="47.76433" lon="3.59761">
        <ele>156</ele>
        <time>2019-04-02T07:26:43Z</time>
      </trkpt>
      <trkpt lat="47.76429" lon="3.59755">
        <ele>155</ele>
        <time>2019-04-02T07:26:47Z</time>
      </trkpt>
      <trkpt lat="47.76426" lon="3.59751">
        <ele>155</ele>
        <time>2019-04-02T07:26:50Z</time>
      </trkpt>
      <trkpt lat="47.76422" lon="3.59745">
        <ele>155</ele>
        <time>2019-04-02T07:26:54Z</time>
      </trkpt>
      <trkpt lat="47.76417" lon="3.5974">
        <ele>154</ele>
        <time>2019-04-02T07:26:58Z</time>
      </trkpt>
      <trkpt lat="47.76415" lon="3.59738">
        <ele>155</ele>
        <time>2019-04-02T07:27:00Z</time>
      </trkpt>
      <trkpt lat="47.76412" lon="3.59733">
        <ele>156</ele>
        <time>2019-04-02T07:27:03Z</time>
      </trkpt>
      <trkpt lat="47.76409" lon="3.59726">
        <ele>155</ele>
        <time>2019-04-02T07:27:08Z</time>
      </trkpt>
      <trkpt lat="47.76402" lon="3.5972">
        <ele>155</ele>
        <time>2019-04-02T07:27:14Z</time>
      </trkpt>
      <trkpt lat="47.76398" lon="3.59717">
        <ele>156</ele>
        <time>2019-04-02T07:27:17Z</time>
      </trkpt>
      <trkpt lat="47.76394" lon="3.59711">
        <ele>156</ele>
        <time>2019-04-02T07:27:21Z</time>
      </trkpt>
      <trkpt lat="47.76392" lon="3.59709">
        <ele>156</ele>
        <time>2019-04-02T07:27:23Z</time>
      </trkpt>
      <trkpt lat="47.76389" lon="3.59704">
        <ele>155</ele>
        <time>2019-04-02T07:27:26Z</time>
      </trkpt>
      <trkpt lat="47.76387" lon="3.59702">
        <ele>155</ele>
        <time>2019-04-02T07:27:28Z</time>
      </trkpt>
      <trkpt lat="47.76385" lon="3.59699">
        <ele>156</ele>
        <time>2019-04-02T07:27:30Z</time>
      </trkpt>
      <trkpt lat="47.76381" lon="3.59695">
        <ele>155</ele>
        <time>2019-04-02T07:27:33Z</time>
      </trkpt>
      <trkpt lat="47.76379" lon="3.59692">
        <ele>155</ele>
        <time>2019-04-02T07:27:35Z</time>
      </trkpt>
      <trkpt lat="47.76375" lon="3.59689">
        <ele>155</ele>
        <time>2019-04-02T07:27:39Z</time>
      </trkpt>
      <trkpt lat="47.76372" lon="3.59685">
        <ele>155</ele>
        <time>2019-04-02T07:27:43Z</time>
      </trkpt>
      <trkpt lat="47.76367" lon="3.5968">
        <ele>154</ele>
        <time>2019-04-02T07:27:47Z</time>
      </trkpt>
      <trkpt lat="47.76363" lon="3.59674">
        <ele>155</ele>
        <time>2019-04-02T07:27:51Z</time>
      </trkpt>
      <trkpt lat="47.76356" lon="3.59669">
        <ele>155</ele>
        <time>2019-04-02T07:27:55Z</time>
      </trkpt>
      <trkpt lat="47.76354" lon="3.59667">
        <ele>155</ele>
        <time>2019-04-02T07:27:57Z</time>
      </trkpt>
      <trkpt lat="47.76351" lon="3.59664">
        <ele>154</ele>
        <time>2019-04-02T07:27:59Z</time>
      </trkpt>
      <trkpt lat="47.76347" lon="3.5966">
        <ele>154</ele>
        <time>2019-04-02T07:28:02Z</time>
      </trkpt>
      <trkpt lat="47.76344" lon="3.59656">
        <ele>155</ele>
        <time>2019-04-02T07:28:06Z</time>
      </trkpt>
      <trkpt lat="47.7634" lon="3.59652">
        <ele>155</ele>
        <time>2019-04-02T07:28:09Z</time>
      </trkpt>
      <trkpt lat="47.76337" lon="3.59649">
        <ele>155</ele>
        <time>2019-04-02T07:28:12Z</time>
      </trkpt>
      <trkpt lat="47.76333" lon="3.59644">
        <ele>155</ele>
        <time>2019-04-02T07:28:16Z</time>
      </trkpt>
      <trkpt lat="47.76328" lon="3.59641">
        <ele>156</ele>
        <time>2019-04-02T07:28:21Z</time>
      </trkpt>
      <trkpt lat="47.76322" lon="3.59636">
        <ele>156</ele>
        <time>2019-04-02T07:28:26Z</time>
      </trkpt>
      <trkpt lat="47.76318" lon="3.59634">
        <ele>156</ele>
        <time>2019-04-02T07:28:29Z</time>
      </trkpt>
      <trkpt lat="47.76314" lon="3.59629">
        <ele>157</ele>
        <time>2019-04-02T07:28:33Z</time>
      </trkpt>
      <trkpt lat="47.76312" lon="3.59625">
        <ele>159</ele>
        <time>2019-04-02T07:28:36Z</time>
      </trkpt>
      <trkpt lat="47.7631" lon="3.59622">
        <ele>159</ele>
        <time>2019-04-02T07:28:38Z</time>
      </trkpt>
      <trkpt lat="47.76308" lon="3.59619">
        <ele>159</ele>
        <time>2019-04-02T07:28:40Z</time>
      </trkpt>
      <trkpt lat="47.76304" lon="3.59616">
        <ele>159</ele>
        <time>2019-04-02T07:28:43Z</time>
      </trkpt>
      <trkpt lat="47.763" lon="3.59611">
        <ele>160</ele>
        <time>2019-04-02T07:28:47Z</time>
      </trkpt>
      <trkpt lat="47.76297" lon="3.59606">
        <ele>160</ele>
        <time>2019-04-02T07:28:51Z</time>
      </trkpt>
      <trkpt lat="47.76292" lon="3.59603">
        <ele>160</ele>
        <time>2019-04-02T07:28:55Z</time>
      </trkpt>
      <trkpt lat="47.76289" lon="3.59602">
        <ele>161</ele>
        <time>2019-04-02T07:28:57Z</time>
      </trkpt>
      <trkpt lat="47.76285" lon="3.59598">
        <ele>160</ele>
        <time>2019-04-02T07:29:01Z</time>
      </trkpt>
      <trkpt lat="47.76283" lon="3.59595">
        <ele>161</ele>
        <time>2019-04-02T07:29:03Z</time>
      </trkpt>
      <trkpt lat="47.7628" lon="3.59592">
        <ele>162</ele>
        <time>2019-04-02T07:29:06Z</time>
      </trkpt>
      <trkpt lat="47.76276" lon="3.59588">
        <ele>162</ele>
        <time>2019-04-02T07:29:09Z</time>
      </trkpt>
      <trkpt lat="47.76271" lon="3.59585">
        <ele>162</ele>
        <time>2019-04-02T07:29:13Z</time>
      </trkpt>
      <trkpt lat="47.76267" lon="3.59581">
        <ele>162</ele>
        <time>2019-04-02T07:29:16Z</time>
      </trkpt>
      <trkpt lat="47.76262" lon="3.59578">
        <ele>162</ele>
        <time>2019-04-02T07:29:20Z</time>
      </trkpt>
      <trkpt lat="47.76257" lon="3.59575">
        <ele>162</ele>
        <time>2019-04-02T07:29:24Z</time>
      </trkpt>
      <trkpt lat="47.76253" lon="3.59573">
        <ele>162</ele>
        <time>2019-04-02T07:29:27Z</time>
      </trkpt>
      <trkpt lat="47.76249" lon="3.59569">
        <ele>161</ele>
        <time>2019-04-02T07:29:31Z</time>
      </trkpt>
      <trkpt lat="47.76245" lon="3.59564">
        <ele>163</ele>
        <time>2019-04-02T07:29:35Z</time>
      </trkpt>
      <trkpt lat="47.7624" lon="3.59562">
        <ele>162</ele>
        <time>2019-04-02T07:29:39Z</time>
      </trkpt>
      <trkpt lat="47.76237" lon="3.5956">
        <ele>161</ele>
        <time>2019-04-02T07:29:42Z</time>
      </trkpt>
      <trkpt lat="47.76234" lon="3.59559">
        <ele>161</ele>
        <time>2019-04-02T07:29:44Z</time>
      </trkpt>
      <trkpt lat="47.76231" lon="3.59553">
        <ele>159</ele>
        <time>2019-04-02T07:29:50Z</time>
      </trkpt>
      <trkpt lat="47.76226" lon="3.5955">
        <ele>159</ele>
        <time>2019-04-02T07:29:53Z</time>
      </trkpt>
      <trkpt lat="47.76223" lon="3.59547">
        <ele>159</ele>
        <time>2019-04-02T07:29:55Z</time>
      </trkpt>
      <trkpt lat="47.76221" lon="3.59545">
        <ele>158</ele>
        <time>2019-04-02T07:29:57Z</time>
      </trkpt>
      <trkpt lat="47.76216" lon="3.59541">
        <ele>159</ele>
        <time>2019-04-02T07:30:01Z</time>
      </trkpt>
      <trkpt lat="47.76212" lon="3.59539">
        <ele>159</ele>
        <time>2019-04-02T07:30:06Z</time>
      </trkpt>
      <trkpt lat="47.76207" lon="3.59536">
        <ele>158</ele>
        <time>2019-04-02T07:30:10Z</time>
      </trkpt>
      <trkpt lat="47.76204" lon="3.59535">
        <ele>158</ele>
        <time>2019-04-02T07:30:12Z</time>
      </trkpt>
      <trkpt lat="47.762" lon="3.59531">
        <ele>159</ele>
        <time>2019-04-02T07:30:16Z</time>
      </trkpt>
      <trkpt lat="47.76196" lon="3.59525">
        <ele>156</ele>
        <time>2019-04-02T07:30:21Z</time>
      </trkpt>
      <trkpt lat="47.76192" lon="3.59521">
        <ele>156</ele>
        <time>2019-04-02T07:30:25Z</time>
      </trkpt>
      <trkpt lat="47.76186" lon="3.59516">
        <ele>156</ele>
        <time>2019-04-02T07:30:29Z</time>
      </trkpt>
      <trkpt lat="47.76183" lon="3.59514">
        <ele>156</ele>
        <time>2019-04-02T07:30:31Z</time>
      </trkpt>
      <trkpt lat="47.76178" lon="3.59512">
        <ele>157</ele>
        <time>2019-04-02T07:30:34Z</time>
      </trkpt>
      <trkpt lat="47.76169" lon="3.59514">
        <ele>159</ele>
        <time>2019-04-02T07:30:39Z</time>
      </trkpt>
      <trkpt lat="47.76166" lon="3.59521">
        <ele>159</ele>
        <time>2019-04-02T07:30:44Z</time>
      </trkpt>
      <trkpt lat="47.76162" lon="3.59526">
        <ele>157</ele>
        <time>2019-04-02T07:30:52Z</time>
      </trkpt>
      <trkpt lat="47.76158" lon="3.59527">
        <ele>158</ele>
        <time>2019-04-02T07:30:56Z</time>
      </trkpt>
      <trkpt lat="47.76155" lon="3.59527">
        <ele>160</ele>
        <time>2019-04-02T07:30:59Z</time>
      </trkpt>
      <trkpt lat="47.7615" lon="3.5953">
        <ele>158</ele>
        <time>2019-04-02T07:31:05Z</time>
      </trkpt>
      <trkpt lat="47.76145" lon="3.59531">
        <ele>155</ele>
        <time>2019-04-02T07:31:14Z</time>
      </trkpt>
      <trkpt lat="47.76139" lon="3.59531">
        <ele>154</ele>
        <time>2019-04-02T07:31:19Z</time>
      </trkpt>
      <trkpt lat="47.76134" lon="3.59531">
        <ele>154</ele>
        <time>2019-04-02T07:31:23Z</time>
      </trkpt>
      <trkpt lat="47.7613" lon="3.59532">
        <ele>154</ele>
        <time>2019-04-02T07:31:31Z</time>
      </trkpt>
      <trkpt lat="47.76125" lon="3.59534">
        <ele>155</ele>
        <time>2019-04-02T07:31:36Z</time>
      </trkpt>
      <trkpt lat="47.76119" lon="3.59534">
        <ele>156</ele>
        <time>2019-04-02T07:31:41Z</time>
      </trkpt>
      <trkpt lat="47.76115" lon="3.59534">
        <ele>156</ele>
        <time>2019-04-02T07:31:46Z</time>
      </trkpt>
      <trkpt lat="47.76112" lon="3.59541">
        <ele>157</ele>
        <time>2019-04-02T07:31:52Z</time>
      </trkpt>
      <trkpt lat="47.76107" lon="3.59542">
        <ele>155</ele>
        <time>2019-04-02T07:31:57Z</time>
      </trkpt>
      <trkpt lat="47.76102" lon="3.59544">
        <ele>156</ele>
        <time>2019-04-02T07:32:02Z</time>
      </trkpt>
      <trkpt lat="47.76098" lon="3.59544">
        <ele>155</ele>
        <time>2019-04-02T07:32:07Z</time>
      </trkpt>
      <trkpt lat="47.76093" lon="3.59543">
        <ele>155</ele>
        <time>2019-04-02T07:32:13Z</time>
      </trkpt>
      <trkpt lat="47.76089" lon="3.59543">
        <ele>156</ele>
        <time>2019-04-02T07:32:16Z</time>
      </trkpt>
      <trkpt lat="47.76087" lon="3.59542">
        <ele>155</ele>
        <time>2019-04-02T07:32:19Z</time>
      </trkpt>
      <trkpt lat="47.7608" lon="3.59542">
        <ele>154</ele>
        <time>2019-04-02T07:32:23Z</time>
      </trkpt>
      <trkpt lat="47.76078" lon="3.59541">
        <ele>154</ele>
        <time>2019-04-02T07:32:25Z</time>
      </trkpt>
      <trkpt lat="47.76073" lon="3.5954">
        <ele>155</ele>
        <time>2019-04-02T07:32:28Z</time>
      </trkpt>
      <trkpt lat="47.76069" lon="3.59541">
        <ele>157</ele>
        <time>2019-04-02T07:32:31Z</time>
      </trkpt>
      <trkpt lat="47.76066" lon="3.59542">
        <ele>157</ele>
        <time>2019-04-02T07:32:33Z</time>
      </trkpt>
      <trkpt lat="47.76056" lon="3.59542">
        <ele>158</ele>
        <time>2019-04-02T07:32:38Z</time>
      </trkpt>
      <trkpt lat="47.76051" lon="3.59541">
        <ele>157</ele>
        <time>2019-04-02T07:32:43Z</time>
      </trkpt>
      <trkpt lat="47.76046" lon="3.59539">
        <ele>154</ele>
        <time>2019-04-02T07:32:49Z</time>
      </trkpt>
      <trkpt lat="47.76043" lon="3.59536">
        <ele>152</ele>
        <time>2019-04-02T07:32:53Z</time>
      </trkpt>
      <trkpt lat="47.76038" lon="3.59536">
        <ele>152</ele>
        <time>2019-04-02T07:32:58Z</time>
      </trkpt>
      <trkpt lat="47.76033" lon="3.59534">
        <ele>150</ele>
        <time>2019-04-02T07:33:03Z</time>
      </trkpt>
      <trkpt lat="47.76028" lon="3.59531">
        <ele>151</ele>
        <time>2019-04-02T07:33:08Z</time>
      </trkpt>
      <trkpt lat="47.76025" lon="3.59529">
        <ele>151</ele>
        <time>2019-04-02T07:33:11Z</time>
      </trkpt>
      <trkpt lat="47.76019" lon="3.59526">
        <ele>151</ele>
        <time>2019-04-02T07:33:16Z</time>
      </trkpt>
      <trkpt lat="47.76013" lon="3.59524">
        <ele>151</ele>
        <time>2019-04-02T07:33:21Z</time>
      </trkpt>
      <trkpt lat="47.76008" lon="3.59521">
        <ele>152</ele>
        <time>2019-04-02T07:33:26Z</time>
      </trkpt>
      <trkpt lat="47.76002" lon="3.59515">
        <ele>154</ele>
        <time>2019-04-02T07:33:31Z</time>
      </trkpt>
      <trkpt lat="47.75997" lon="3.59512">
        <ele>155</ele>
        <time>2019-04-02T07:33:35Z</time>
      </trkpt>
      <trkpt lat="47.75994" lon="3.59511">
        <ele>156</ele>
        <time>2019-04-02T07:33:37Z</time>
      </trkpt>
      <trkpt lat="47.75991" lon="3.59509">
        <ele>156</ele>
        <time>2019-04-02T07:33:39Z</time>
      </trkpt>
      <trkpt lat="47.75987" lon="3.59506">
        <ele>157</ele>
        <time>2019-04-02T07:33:42Z</time>
      </trkpt>
      <trkpt lat="47.75983" lon="3.59501">
        <ele>156</ele>
        <time>2019-04-02T07:33:46Z</time>
      </trkpt>
      <trkpt lat="47.75978" lon="3.59498">
        <ele>156</ele>
        <time>2019-04-02T07:33:49Z</time>
      </trkpt>
      <trkpt lat="47.75973" lon="3.59497">
        <ele>157</ele>
        <time>2019-04-02T07:33:53Z</time>
      </trkpt>
      <trkpt lat="47.7597" lon="3.59496">
        <ele>157</ele>
        <time>2019-04-02T07:33:56Z</time>
      </trkpt>
      <trkpt lat="47.75967" lon="3.59495">
        <ele>157</ele>
        <time>2019-04-02T07:33:58Z</time>
      </trkpt>
      <trkpt lat="47.75962" lon="3.5949">
        <ele>157</ele>
        <time>2019-04-02T07:34:02Z</time>
      </trkpt>
      <trkpt lat="47.75958" lon="3.59486">
        <ele>156</ele>
        <time>2019-04-02T07:34:07Z</time>
      </trkpt>
      <trkpt lat="47.75955" lon="3.59483">
        <ele>155</ele>
        <time>2019-04-02T07:34:09Z</time>
      </trkpt>
      <trkpt lat="47.75953" lon="3.5948">
        <ele>156</ele>
        <time>2019-04-02T07:34:11Z</time>
      </trkpt>
      <trkpt lat="47.75951" lon="3.59478">
        <ele>156</ele>
        <time>2019-04-02T07:34:13Z</time>
      </trkpt>
      <trkpt lat="47.75946" lon="3.59472">
        <ele>156</ele>
        <time>2019-04-02T07:34:18Z</time>
      </trkpt>
      <trkpt lat="47.75942" lon="3.59468">
        <ele>156</ele>
        <time>2019-04-02T07:34:22Z</time>
      </trkpt>
      <trkpt lat="47.75935" lon="3.59465">
        <ele>156</ele>
        <time>2019-04-02T07:34:27Z</time>
      </trkpt>
      <trkpt lat="47.75932" lon="3.59463">
        <ele>156</ele>
        <time>2019-04-02T07:34:30Z</time>
      </trkpt>
      <trkpt lat="47.75927" lon="3.59458">
        <ele>155</ele>
        <time>2019-04-02T07:34:34Z</time>
      </trkpt>
      <trkpt lat="47.75925" lon="3.59456">
        <ele>155</ele>
        <time>2019-04-02T07:34:37Z</time>
      </trkpt>
      <trkpt lat="47.7592" lon="3.59453">
        <ele>155</ele>
        <time>2019-04-02T07:34:43Z</time>
      </trkpt>
      <trkpt lat="47.75918" lon="3.59451">
        <ele>155</ele>
        <time>2019-04-02T07:34:46Z</time>
      </trkpt>
      <trkpt lat="47.75913" lon="3.59447">
        <ele>154</ele>
        <time>2019-04-02T07:34:51Z</time>
      </trkpt>
      <trkpt lat="47.75909" lon="3.59443">
        <ele>155</ele>
        <time>2019-04-02T07:34:55Z</time>
      </trkpt>
      <trkpt lat="47.75907" lon="3.59441">
        <ele>155</ele>
        <time>2019-04-02T07:34:57Z</time>
      </trkpt>
      <trkpt lat="47.75903" lon="3.59438">
        <ele>156</ele>
        <time>2019-04-02T07:35:00Z</time>
      </trkpt>
      <trkpt lat="47.75897" lon="3.59435">
        <ele>156</ele>
        <time>2019-04-02T07:35:04Z</time>
      </trkpt>
      <trkpt lat="47.75892" lon="3.59432">
        <ele>155</ele>
        <time>2019-04-02T07:35:07Z</time>
      </trkpt>
      <trkpt lat="47.75888" lon="3.59429">
        <ele>155</ele>
        <time>2019-04-02T07:35:10Z</time>
      </trkpt>
      <trkpt lat="47.75885" lon="3.59427">
        <ele>155</ele>
        <time>2019-04-02T07:35:12Z</time>
      </trkpt>
      <trkpt lat="47.75881" lon="3.59423">
        <ele>155</ele>
        <time>2019-04-02T07:35:15Z</time>
      </trkpt>
      <trkpt lat="47.75879" lon="3.59422">
        <ele>155</ele>
        <time>2019-04-02T07:35:17Z</time>
      </trkpt>
      <trkpt lat="47.75876" lon="3.59419">
        <ele>155</ele>
        <time>2019-04-02T07:35:19Z</time>
      </trkpt>
      <trkpt lat="47.75873" lon="3.59416">
        <ele>154</ele>
        <time>2019-04-02T07:35:22Z</time>
      </trkpt>
      <trkpt lat="47.75869" lon="3.59413">
        <ele>155</ele>
        <time>2019-04-02T07:35:25Z</time>
      </trkpt>
      <trkpt lat="47.75866" lon="3.59411">
        <ele>155</ele>
        <time>2019-04-02T07:35:27Z</time>
      </trkpt>
      <trkpt lat="47.75861" lon="3.59409">
        <ele>155</ele>
        <time>2019-04-02T07:35:31Z</time>
      </trkpt>
      <trkpt lat="47.75858" lon="3.59408">
        <ele>155</ele>
        <time>2019-04-02T07:35:33Z</time>
      </trkpt>
      <trkpt lat="47.75853" lon="3.59405">
        <ele>156</ele>
        <time>2019-04-02T07:35:37Z</time>
      </trkpt>
      <trkpt lat="47.75851" lon="3.59403">
        <ele>154</ele>
        <time>2019-04-02T07:35:39Z</time>
      </trkpt>
      <trkpt lat="47.75846" lon="3.594">
        <ele>155</ele>
        <time>2019-04-02T07:35:43Z</time>
      </trkpt>
      <trkpt lat="47.75843" lon="3.59398">
        <ele>155</ele>
        <time>2019-04-02T07:35:45Z</time>
      </trkpt>
      <trkpt lat="47.75839" lon="3.59396">
        <ele>155</ele>
        <time>2019-04-02T07:35:49Z</time>
      </trkpt>
      <trkpt lat="47.75835" lon="3.59392">
        <ele>157</ele>
        <time>2019-04-02T07:35:55Z</time>
      </trkpt>
      <trkpt lat="47.75831" lon="3.59387">
        <ele>156</ele>
        <time>2019-04-02T07:35:59Z</time>
      </trkpt>
      <trkpt lat="47.75826" lon="3.59383">
        <ele>156</ele>
        <time>2019-04-02T07:36:03Z</time>
      </trkpt>
      <trkpt lat="47.75822" lon="3.59381">
        <ele>156</ele>
        <time>2019-04-02T07:36:05Z</time>
      </trkpt>
      <trkpt lat="47.75817" lon="3.59378">
        <ele>157</ele>
        <time>2019-04-02T07:36:09Z</time>
      </trkpt>
      <trkpt lat="47.75815" lon="3.59376">
        <ele>156</ele>
        <time>2019-04-02T07:36:11Z</time>
      </trkpt>
      <trkpt lat="47.75812" lon="3.59373">
        <ele>156</ele>
        <time>2019-04-02T07:36:13Z</time>
      </trkpt>
      <trkpt lat="47.75808" lon="3.59369">
        <ele>156</ele>
        <time>2019-04-02T07:36:17Z</time>
      </trkpt>
      <trkpt lat="47.75803" lon="3.59367">
        <ele>157</ele>
        <time>2019-04-02T07:36:20Z</time>
      </trkpt>
      <trkpt lat="47.75801" lon="3.59365">
        <ele>157</ele>
        <time>2019-04-02T07:36:22Z</time>
      </trkpt>
      <trkpt lat="47.75797" lon="3.59362">
        <ele>156</ele>
        <time>2019-04-02T07:36:26Z</time>
      </trkpt>
      <trkpt lat="47.75792" lon="3.59359">
        <ele>155</ele>
        <time>2019-04-02T07:36:30Z</time>
      </trkpt>
      <trkpt lat="47.75788" lon="3.59356">
        <ele>155</ele>
        <time>2019-04-02T07:36:33Z</time>
      </trkpt>
      <trkpt lat="47.75784" lon="3.59354">
        <ele>155</ele>
        <time>2019-04-02T07:36:36Z</time>
      </trkpt>
      <trkpt lat="47.7578" lon="3.59353">
        <ele>155</ele>
        <time>2019-04-02T07:36:40Z</time>
      </trkpt>
      <trkpt lat="47.75775" lon="3.59349">
        <ele>156</ele>
        <time>2019-04-02T07:36:44Z</time>
      </trkpt>
      <trkpt lat="47.7577" lon="3.59345">
        <ele>156</ele>
        <time>2019-04-02T07:36:48Z</time>
      </trkpt>
      <trkpt lat="47.75767" lon="3.59343">
        <ele>155</ele>
        <time>2019-04-02T07:36:50Z</time>
      </trkpt>
      <trkpt lat="47.75764" lon="3.59341">
        <ele>155</ele>
        <time>2019-04-02T07:36:52Z</time>
      </trkpt>
      <trkpt lat="47.75759" lon="3.59339">
        <ele>154</ele>
        <time>2019-04-02T07:36:55Z</time>
      </trkpt>
      <trkpt lat="47.75756" lon="3.59338">
        <ele>154</ele>
        <time>2019-04-02T07:36:57Z</time>
      </trkpt>
      <trkpt lat="47.7575" lon="3.59335">
        <ele>153</ele>
        <time>2019-04-02T07:37:01Z</time>
      </trkpt>
      <trkpt lat="47.75748" lon="3.59333">
        <ele>153</ele>
        <time>2019-04-02T07:37:03Z</time>
      </trkpt>
      <trkpt lat="47.75743" lon="3.59328">
        <ele>154</ele>
        <time>2019-04-02T07:37:07Z</time>
      </trkpt>
      <trkpt lat="47.75739" lon="3.59325">
        <ele>154</ele>
        <time>2019-04-02T07:37:10Z</time>
      </trkpt>
      <trkpt lat="47.75735" lon="3.59322">
        <ele>154</ele>
        <time>2019-04-02T07:37:14Z</time>
      </trkpt>
      <trkpt lat="47.75729" lon="3.59319">
        <ele>152</ele>
        <time>2019-04-02T07:37:19Z</time>
      </trkpt>
      <trkpt lat="47.75725" lon="3.59316">
        <ele>152</ele>
        <time>2019-04-02T07:37:22Z</time>
      </trkpt>
      <trkpt lat="47.75721" lon="3.59312">
        <ele>151</ele>
        <time>2019-04-02T07:37:25Z</time>
      </trkpt>
      <trkpt lat="47.75719" lon="3.59309">
        <ele>152</ele>
        <time>2019-04-02T07:37:28Z</time>
      </trkpt>
      <trkpt lat="47.75714" lon="3.59306">
        <ele>151</ele>
        <time>2019-04-02T07:37:32Z</time>
      </trkpt>
      <trkpt lat="47.75709" lon="3.59303">
        <ele>150</ele>
        <time>2019-04-02T07:37:36Z</time>
      </trkpt>
      <trkpt lat="47.75705" lon="3.59301">
        <ele>151</ele>
        <time>2019-04-02T07:37:40Z</time>
      </trkpt>
      <trkpt lat="47.757" lon="3.59299">
        <ele>150</ele>
        <time>2019-04-02T07:37:45Z</time>
      </trkpt>
      <trkpt lat="47.75695" lon="3.59295">
        <ele>150</ele>
        <time>2019-04-02T07:37:50Z</time>
      </trkpt>
      <trkpt lat="47.75691" lon="3.59293">
        <ele>151</ele>
        <time>2019-04-02T07:37:53Z</time>
      </trkpt>
      <trkpt lat="47.75687" lon="3.59291">
        <ele>151</ele>
        <time>2019-04-02T07:37:55Z</time>
      </trkpt>
      <trkpt lat="47.75685" lon="3.59289">
        <ele>151</ele>
        <time>2019-04-02T07:37:57Z</time>
      </trkpt>
      <trkpt lat="47.75679" lon="3.59286">
        <ele>151</ele>
        <time>2019-04-02T07:38:01Z</time>
      </trkpt>
      <trkpt lat="47.75677" lon="3.59284">
        <ele>151</ele>
        <time>2019-04-02T07:38:03Z</time>
      </trkpt>
      <trkpt lat="47.75674" lon="3.59282">
        <ele>151</ele>
        <time>2019-04-02T07:38:05Z</time>
      </trkpt>
      <trkpt lat="47.75671" lon="3.59279">
        <ele>151</ele>
        <time>2019-04-02T07:38:08Z</time>
      </trkpt>
      <trkpt lat="47.75667" lon="3.59275">
        <ele>151</ele>
        <time>2019-04-02T07:38:12Z</time>
      </trkpt>
      <trkpt lat="47.75665" lon="3.59272">
        <ele>151</ele>
        <time>2019-04-02T07:38:14Z</time>
      </trkpt>
      <trkpt lat="47.7566" lon="3.59269">
        <ele>151</ele>
        <time>2019-04-02T07:38:18Z</time>
      </trkpt>
      <trkpt lat="47.75657" lon="3.59267">
        <ele>151</ele>
        <time>2019-04-02T07:38:20Z</time>
      </trkpt>
      <trkpt lat="47.75655" lon="3.59266">
        <ele>151</ele>
        <time>2019-04-02T07:38:22Z</time>
      </trkpt>
      <trkpt lat="47.75651" lon="3.59264">
        <ele>151</ele>
        <time>2019-04-02T07:38:24Z</time>
      </trkpt>
      <trkpt lat="47.75647" lon="3.59262">
        <ele>151</ele>
        <time>2019-04-02T07:38:27Z</time>
      </trkpt>
      <trkpt lat="47.75643" lon="3.59258">
        <ele>151</ele>
        <time>2019-04-02T07:38:32Z</time>
      </trkpt>
      <trkpt lat="47.75638" lon="3.59254">
        <ele>152</ele>
        <time>2019-04-02T07:38:37Z</time>
      </trkpt>
      <trkpt lat="47.75636" lon="3.59252">
        <ele>153</ele>
        <time>2019-04-02T07:38:39Z</time>
      </trkpt>
      <trkpt lat="47.75632" lon="3.59249">
        <ele>153</ele>
        <time>2019-04-02T07:38:42Z</time>
      </trkpt>
      <trkpt lat="47.7563" lon="3.59246">
        <ele>152</ele>
        <time>2019-04-02T07:38:44Z</time>
      </trkpt>
      <trkpt lat="47.75627" lon="3.59241">
        <ele>153</ele>
        <time>2019-04-02T07:38:48Z</time>
      </trkpt>
      <trkpt lat="47.75622" lon="3.59236">
        <ele>153</ele>
        <time>2019-04-02T07:38:53Z</time>
      </trkpt>
      <trkpt lat="47.7562" lon="3.59234">
        <ele>153</ele>
        <time>2019-04-02T07:38:55Z</time>
      </trkpt>
      <trkpt lat="47.75616" lon="3.59229">
        <ele>154</ele>
        <time>2019-04-02T07:38:59Z</time>
      </trkpt>
      <trkpt lat="47.75613" lon="3.59227">
        <ele>154</ele>
        <time>2019-04-02T07:39:01Z</time>
      </trkpt>
      <trkpt lat="47.75609" lon="3.59224">
        <ele>153</ele>
        <time>2019-04-02T07:39:04Z</time>
      </trkpt>
      <trkpt lat="47.75606" lon="3.59222">
        <ele>153</ele>
        <time>2019-04-02T07:39:06Z</time>
      </trkpt>
      <trkpt lat="47.75601" lon="3.59216">
        <ele>153</ele>
        <time>2019-04-02T07:39:10Z</time>
      </trkpt>
      <trkpt lat="47.75599" lon="3.59209">
        <ele>152</ele>
        <time>2019-04-02T07:39:14Z</time>
      </trkpt>
      <trkpt lat="47.75597" lon="3.59204">
        <ele>151</ele>
        <time>2019-04-02T07:39:17Z</time>
      </trkpt>
      <trkpt lat="47.75592" lon="3.59202">
        <ele>151</ele>
        <time>2019-04-02T07:39:21Z</time>
      </trkpt>
      <trkpt lat="47.75588" lon="3.59198">
        <ele>152</ele>
        <time>2019-04-02T07:39:24Z</time>
      </trkpt>
      <trkpt lat="47.75584" lon="3.59191">
        <ele>152</ele>
        <time>2019-04-02T07:39:28Z</time>
      </trkpt>
      <trkpt lat="47.75581" lon="3.59186">
        <ele>151</ele>
        <time>2019-04-02T07:39:31Z</time>
      </trkpt>
      <trkpt lat="47.75579" lon="3.59183">
        <ele>151</ele>
        <time>2019-04-02T07:39:33Z</time>
      </trkpt>
      <trkpt lat="47.75575" lon="3.59179">
        <ele>151</ele>
        <time>2019-04-02T07:39:36Z</time>
      </trkpt>
      <trkpt lat="47.75573" lon="3.59177">
        <ele>152</ele>
        <time>2019-04-02T07:39:38Z</time>
      </trkpt>
      <trkpt lat="47.75569" lon="3.59173">
        <ele>152</ele>
        <time>2019-04-02T07:39:41Z</time>
      </trkpt>
      <trkpt lat="47.75565" lon="3.59167">
        <ele>154</ele>
        <time>2019-04-02T07:39:46Z</time>
      </trkpt>
      <trkpt lat="47.75561" lon="3.59163">
        <ele>154</ele>
        <time>2019-04-02T07:39:50Z</time>
      </trkpt>
      <trkpt lat="47.75557" lon="3.59157">
        <ele>152</ele>
        <time>2019-04-02T07:39:54Z</time>
      </trkpt>
      <trkpt lat="47.75555" lon="3.5915">
        <ele>153</ele>
        <time>2019-04-02T07:39:59Z</time>
      </trkpt>
      <trkpt lat="47.75556" lon="3.59143">
        <ele>154</ele>
        <time>2019-04-02T07:40:03Z</time>
      </trkpt>
      <trkpt lat="47.75556" lon="3.59139">
        <ele>154</ele>
        <time>2019-04-02T07:40:05Z</time>
      </trkpt>
      <trkpt lat="47.75558" lon="3.59131">
        <ele>154</ele>
        <time>2019-04-02T07:40:09Z</time>
      </trkpt>
      <trkpt lat="47.7556" lon="3.59126">
        <ele>155</ele>
        <time>2019-04-02T07:40:12Z</time>
      </trkpt>
      <trkpt lat="47.75562" lon="3.59118">
        <ele>157</ele>
        <time>2019-04-02T07:40:16Z</time>
      </trkpt>
      <trkpt lat="47.75563" lon="3.59114">
        <ele>157</ele>
        <time>2019-04-02T07:40:18Z</time>
      </trkpt>
      <trkpt lat="47.75565" lon="3.59107">
        <ele>157</ele>
        <time>2019-04-02T07:40:22Z</time>
      </trkpt>
      <trkpt lat="47.75567" lon="3.591">
        <ele>156</ele>
        <time>2019-04-02T07:40:25Z</time>
      </trkpt>
      <trkpt lat="47.75569" lon="3.59093">
        <ele>157</ele>
        <time>2019-04-02T07:40:29Z</time>
      </trkpt>
      <trkpt lat="47.7557" lon="3.5909">
        <ele>157</ele>
        <time>2019-04-02T07:40:31Z</time>
      </trkpt>
      <trkpt lat="47.75572" lon="3.59086">
        <ele>157</ele>
        <time>2019-04-02T07:40:33Z</time>
      </trkpt>
      <trkpt lat="47.75573" lon="3.59083">
        <ele>157</ele>
        <time>2019-04-02T07:40:35Z</time>
      </trkpt>
      <trkpt lat="47.75574" lon="3.59079">
        <ele>158</ele>
        <time>2019-04-02T07:40:38Z</time>
      </trkpt>
      <trkpt lat="47.75575" lon="3.59075">
        <ele>159</ele>
        <time>2019-04-02T07:40:40Z</time>
      </trkpt>
      <trkpt lat="47.75577" lon="3.59068">
        <ele>158</ele>
        <time>2019-04-02T07:40:44Z</time>
      </trkpt>
      <trkpt lat="47.7558" lon="3.59062">
        <ele>158</ele>
        <time>2019-04-02T07:40:47Z</time>
      </trkpt>
      <trkpt lat="47.75581" lon="3.59055">
        <ele>158</ele>
        <time>2019-04-02T07:40:51Z</time>
      </trkpt>
      <trkpt lat="47.75584" lon="3.59049">
        <ele>158</ele>
        <time>2019-04-02T07:40:54Z</time>
      </trkpt>
      <trkpt lat="47.75587" lon="3.59044">
        <ele>159</ele>
        <time>2019-04-02T07:40:58Z</time>
      </trkpt>
      <trkpt lat="47.75588" lon="3.59037">
        <ele>159</ele>
        <time>2019-04-02T07:41:02Z</time>
      </trkpt>
      <trkpt lat="47.75588" lon="3.59033">
        <ele>160</ele>
        <time>2019-04-02T07:41:04Z</time>
      </trkpt>
      <trkpt lat="47.75589" lon="3.59028">
        <ele>160</ele>
        <time>2019-04-02T07:41:07Z</time>
      </trkpt>
      <trkpt lat="47.75588" lon="3.5902">
        <ele>160</ele>
        <time>2019-04-02T07:41:12Z</time>
      </trkpt>
      <trkpt lat="47.75588" lon="3.59013">
        <ele>160</ele>
        <time>2019-04-02T07:41:16Z</time>
      </trkpt>
      <trkpt lat="47.75588" lon="3.59009">
        <ele>160</ele>
        <time>2019-04-02T07:41:18Z</time>
      </trkpt>
      <trkpt lat="47.75586" lon="3.59002">
        <ele>161</ele>
        <time>2019-04-02T07:41:21Z</time>
      </trkpt>
      <trkpt lat="47.75581" lon="3.58997">
        <ele>160</ele>
        <time>2019-04-02T07:41:25Z</time>
      </trkpt>
      <trkpt lat="47.75577" lon="3.58994">
        <ele>159</ele>
        <time>2019-04-02T07:41:30Z</time>
      </trkpt>
      <trkpt lat="47.75574" lon="3.58992">
        <ele>159</ele>
        <time>2019-04-02T07:41:32Z</time>
      </trkpt>
      <trkpt lat="47.7557" lon="3.5899">
        <ele>160</ele>
        <time>2019-04-02T07:41:36Z</time>
      </trkpt>
      <trkpt lat="47.75564" lon="3.58986">
        <ele>162</ele>
        <time>2019-04-02T07:41:41Z</time>
      </trkpt>
      <trkpt lat="47.75557" lon="3.58985">
        <ele>163</ele>
        <time>2019-04-02T07:41:47Z</time>
      </trkpt>
      <trkpt lat="47.75552" lon="3.58984">
        <ele>163</ele>
        <time>2019-04-02T07:41:50Z</time>
      </trkpt>
      <trkpt lat="47.75548" lon="3.58988">
        <ele>162</ele>
        <time>2019-04-02T07:41:55Z</time>
      </trkpt>
      <trkpt lat="47.75541" lon="3.58989">
        <ele>159</ele>
        <time>2019-04-02T07:42:00Z</time>
      </trkpt>
      <trkpt lat="47.75537" lon="3.5899">
        <ele>156</ele>
        <time>2019-04-02T07:42:04Z</time>
      </trkpt>
      <trkpt lat="47.75532" lon="3.5899">
        <ele>153</ele>
        <time>2019-04-02T07:42:11Z</time>
      </trkpt>
      <trkpt lat="47.75532" lon="3.5899">
        <ele>153</ele>
        <time>2019-04-02T07:46:01Z</time>
      </trkpt>
      <trkpt lat="47.75524" lon="3.58994">
        <ele>152</ele>
        <time>2019-04-02T07:50:50Z</time>
      </trkpt>
      <trkpt lat="47.7552" lon="3.58992">
        <ele>151</ele>
        <time>2019-04-02T07:50:54Z</time>
      </trkpt>
      <trkpt lat="47.75517" lon="3.5899">
        <ele>151</ele>
        <time>2019-04-02T07:50:56Z</time>
      </trkpt>
      <trkpt lat="47.75514" lon="3.58989">
        <ele>151</ele>
        <time>2019-04-02T07:50:58Z</time>
      </trkpt>
      <trkpt lat="47.7551" lon="3.58986">
        <ele>152</ele>
        <time>2019-04-02T07:51:01Z</time>
      </trkpt>
      <trkpt lat="47.75507" lon="3.58984">
        <ele>153</ele>
        <time>2019-04-02T07:51:03Z</time>
      </trkpt>
      <trkpt lat="47.75502" lon="3.58982">
        <ele>155</ele>
        <time>2019-04-02T07:51:07Z</time>
      </trkpt>
      <trkpt lat="47.75498" lon="3.58979">
        <ele>156</ele>
        <time>2019-04-02T07:51:10Z</time>
      </trkpt>
      <trkpt lat="47.75495" lon="3.58978">
        <ele>157</ele>
        <time>2019-04-02T07:51:12Z</time>
      </trkpt>
      <trkpt lat="47.75492" lon="3.58977">
        <ele>159</ele>
        <time>2019-04-02T07:51:15Z</time>
      </trkpt>
      <trkpt lat="47.75488" lon="3.58974">
        <ele>161</ele>
        <time>2019-04-02T07:51:18Z</time>
      </trkpt>
      <trkpt lat="47.75482" lon="3.58975">
        <ele>163</ele>
        <time>2019-04-02T07:51:22Z</time>
      </trkpt>
      <trkpt lat="47.75478" lon="3.58979">
        <ele>164</ele>
        <time>2019-04-02T07:51:26Z</time>
      </trkpt>
      <trkpt lat="47.75472" lon="3.58983">
        <ele>163</ele>
        <time>2019-04-02T07:51:30Z</time>
      </trkpt>
      <trkpt lat="47.75469" lon="3.58991">
        <ele>163</ele>
        <time>2019-04-02T07:51:34Z</time>
      </trkpt>
      <trkpt lat="47.75468" lon="3.58999">
        <ele>162</ele>
        <time>2019-04-02T07:51:38Z</time>
      </trkpt>
      <trkpt lat="47.75467" lon="3.59003">
        <ele>162</ele>
        <time>2019-04-02T07:51:40Z</time>
      </trkpt>
      <trkpt lat="47.75465" lon="3.59008">
        <ele>162</ele>
        <time>2019-04-02T07:51:42Z</time>
      </trkpt>
      <trkpt lat="47.75463" lon="3.59017">
        <ele>160</ele>
        <time>2019-04-02T07:51:47Z</time>
      </trkpt>
      <trkpt lat="47.75461" lon="3.59023">
        <ele>160</ele>
        <time>2019-04-02T07:51:50Z</time>
      </trkpt>
      <trkpt lat="47.75458" lon="3.59029">
        <ele>160</ele>
        <time>2019-04-02T07:51:54Z</time>
      </trkpt>
      <trkpt lat="47.75457" lon="3.59032">
        <ele>160</ele>
        <time>2019-04-02T07:51:56Z</time>
      </trkpt>
      <trkpt lat="47.75455" lon="3.59039">
        <ele>161</ele>
        <time>2019-04-02T07:52:00Z</time>
      </trkpt>
      <trkpt lat="47.75453" lon="3.59045">
        <ele>161</ele>
        <time>2019-04-02T07:52:04Z</time>
      </trkpt>
      <trkpt lat="47.75451" lon="3.59053">
        <ele>160</ele>
        <time>2019-04-02T07:52:07Z</time>
      </trkpt>
      <trkpt lat="47.7545" lon="3.5906">
        <ele>159</ele>
        <time>2019-04-02T07:52:11Z</time>
      </trkpt>
      <trkpt lat="47.75449" lon="3.59064">
        <ele>159</ele>
        <time>2019-04-02T07:52:13Z</time>
      </trkpt>
      <trkpt lat="47.75448" lon="3.59068">
        <ele>158</ele>
        <time>2019-04-02T07:52:15Z</time>
      </trkpt>
      <trkpt lat="47.75447" lon="3.59074">
        <ele>158</ele>
        <time>2019-04-02T07:52:19Z</time>
      </trkpt>
      <trkpt lat="47.75444" lon="3.59081">
        <ele>157</ele>
        <time>2019-04-02T07:52:23Z</time>
      </trkpt>
      <trkpt lat="47.75442" lon="3.59085">
        <ele>157</ele>
        <time>2019-04-02T07:52:26Z</time>
      </trkpt>
      <trkpt lat="47.75441" lon="3.59092">
        <ele>157</ele>
        <time>2019-04-02T07:52:30Z</time>
      </trkpt>
      <trkpt lat="47.75441" lon="3.59098">
        <ele>158</ele>
        <time>2019-04-02T07:52:33Z</time>
      </trkpt>
      <trkpt lat="47.75438" lon="3.59103">
        <ele>157</ele>
        <time>2019-04-02T07:52:36Z</time>
      </trkpt>
      <trkpt lat="47.75437" lon="3.5911">
        <ele>158</ele>
        <time>2019-04-02T07:52:41Z</time>
      </trkpt>
      <trkpt lat="47.75434" lon="3.59115">
        <ele>158</ele>
        <time>2019-04-02T07:52:46Z</time>
      </trkpt>
      <trkpt lat="47.75431" lon="3.59123">
        <ele>160</ele>
        <time>2019-04-02T07:52:51Z</time>
      </trkpt>
      <trkpt lat="47.75428" lon="3.59131">
        <ele>159</ele>
        <time>2019-04-02T07:52:55Z</time>
      </trkpt>
      <trkpt lat="47.75425" lon="3.59137">
        <ele>160</ele>
        <time>2019-04-02T07:52:59Z</time>
      </trkpt>
      <trkpt lat="47.75422" lon="3.59141">
        <ele>158</ele>
        <time>2019-04-02T07:53:01Z</time>
      </trkpt>
      <trkpt lat="47.7542" lon="3.59147">
        <ele>158</ele>
        <time>2019-04-02T07:53:05Z</time>
      </trkpt>
      <trkpt lat="47.75418" lon="3.59152">
        <ele>157</ele>
        <time>2019-04-02T07:53:08Z</time>
      </trkpt>
      <trkpt lat="47.75416" lon="3.59159">
        <ele>156</ele>
        <time>2019-04-02T07:53:11Z</time>
      </trkpt>
      <trkpt lat="47.75413" lon="3.59165">
        <ele>156</ele>
        <time>2019-04-02T07:53:15Z</time>
      </trkpt>
      <trkpt lat="47.75412" lon="3.59167">
        <ele>157</ele>
        <time>2019-04-02T07:53:17Z</time>
      </trkpt>
      <trkpt lat="47.75409" lon="3.59172">
        <ele>156</ele>
        <time>2019-04-02T07:53:20Z</time>
      </trkpt>
      <trkpt lat="47.75407" lon="3.59169">
        <ele>153</ele>
        <time>2019-04-02T07:53:28Z</time>
      </trkpt>
      <trkpt lat="47.75405" lon="3.59162">
        <ele>151</ele>
        <time>2019-04-02T07:53:39Z</time>
      </trkpt>
      <trkpt lat="47.75405" lon="3.59155">
        <ele>150</ele>
        <time>2019-04-02T07:53:44Z</time>
      </trkpt>
      <trkpt lat="47.75401" lon="3.59151">
        <ele>148</ele>
        <time>2019-04-02T07:53:49Z</time>
      </trkpt>
      <trkpt lat="47.75398" lon="3.59146">
        <ele>147</ele>
        <time>2019-04-02T07:53:53Z</time>
      </trkpt>
      <trkpt lat="47.75392" lon="3.59141">
        <ele>147</ele>
        <time>2019-04-02T07:53:57Z</time>
      </trkpt>
      <trkpt lat="47.75389" lon="3.59139">
        <ele>147</ele>
        <time>2019-04-02T07:53:59Z</time>
      </trkpt>
      <trkpt lat="47.75385" lon="3.59137">
        <ele>148</ele>
        <time>2019-04-02T07:54:03Z</time>
      </trkpt>
      <trkpt lat="47.7538" lon="3.59134">
        <ele>145</ele>
        <time>2019-04-02T07:54:06Z</time>
      </trkpt>
      <trkpt lat="47.75376" lon="3.5913">
        <ele>142</ele>
        <time>2019-04-02T07:54:09Z</time>
      </trkpt>
      <trkpt lat="47.75373" lon="3.59127">
        <ele>142</ele>
        <time>2019-04-02T07:54:12Z</time>
      </trkpt>
      <trkpt lat="47.7537" lon="3.59125">
        <ele>142</ele>
        <time>2019-04-02T07:54:14Z</time>
      </trkpt>
      <trkpt lat="47.75366" lon="3.59122">
        <ele>144</ele>
        <time>2019-04-02T07:54:18Z</time>
      </trkpt>
      <trkpt lat="47.75363" lon="3.59118">
        <ele>145</ele>
        <time>2019-04-02T07:54:23Z</time>
      </trkpt>
      <trkpt lat="47.75358" lon="3.59116">
        <ele>144</ele>
        <time>2019-04-02T07:54:27Z</time>
      </trkpt>
      <trkpt lat="47.75355" lon="3.59114">
        <ele>143</ele>
        <time>2019-04-02T07:54:30Z</time>
      </trkpt>
      <trkpt lat="47.75351" lon="3.59108">
        <ele>143</ele>
        <time>2019-04-02T07:54:34Z</time>
      </trkpt>
      <trkpt lat="47.75347" lon="3.59103">
        <ele>142</ele>
        <time>2019-04-02T07:54:37Z</time>
      </trkpt>
      <trkpt lat="47.75342" lon="3.59099">
        <ele>143</ele>
        <time>2019-04-02T07:54:41Z</time>
      </trkpt>
      <trkpt lat="47.75339" lon="3.59094">
        <ele>147</ele>
        <time>2019-04-02T07:54:48Z</time>
      </trkpt>
      <trkpt lat="47.75335" lon="3.5909">
        <ele>145</ele>
        <time>2019-04-02T07:54:51Z</time>
      </trkpt>
      <trkpt lat="47.7533" lon="3.59091">
        <ele>144</ele>
        <time>2019-04-02T07:54:54Z</time>
      </trkpt>
      <trkpt lat="47.75325" lon="3.59086">
        <ele>145</ele>
        <time>2019-04-02T07:54:58Z</time>
      </trkpt>
      <trkpt lat="47.75322" lon="3.59084">
        <ele>145</ele>
        <time>2019-04-02T07:55:00Z</time>
      </trkpt>
      <trkpt lat="47.7532" lon="3.59081">
        <ele>145</ele>
        <time>2019-04-02T07:55:02Z</time>
      </trkpt>
      <trkpt lat="47.75316" lon="3.59076">
        <ele>146</ele>
        <time>2019-04-02T07:55:06Z</time>
      </trkpt>
      <trkpt lat="47.75312" lon="3.5907">
        <ele>147</ele>
        <time>2019-04-02T07:55:10Z</time>
      </trkpt>
      <trkpt lat="47.75311" lon="3.59067">
        <ele>146</ele>
        <time>2019-04-02T07:55:12Z</time>
      </trkpt>
      <trkpt lat="47.75306" lon="3.59064">
        <ele>147</ele>
        <time>2019-04-02T07:55:17Z</time>
      </trkpt>
      <trkpt lat="47.75303" lon="3.59062">
        <ele>145</ele>
        <time>2019-04-02T07:55:20Z</time>
      </trkpt>
      <trkpt lat="47.75301" lon="3.5906">
        <ele>146</ele>
        <time>2019-04-02T07:55:23Z</time>
      </trkpt>
      <trkpt lat="47.75296" lon="3.59055">
        <ele>147</ele>
        <time>2019-04-02T07:55:29Z</time>
      </trkpt>
      <trkpt lat="47.75291" lon="3.59052">
        <ele>146</ele>
        <time>2019-04-02T07:55:33Z</time>
      </trkpt>
      <trkpt lat="47.75286" lon="3.59046">
        <ele>146</ele>
        <time>2019-04-02T07:55:37Z</time>
      </trkpt>
      <trkpt lat="47.75279" lon="3.59041">
        <ele>144</ele>
        <time>2019-04-02T07:55:42Z</time>
      </trkpt>
      <trkpt lat="47.75276" lon="3.59039">
        <ele>145</ele>
        <time>2019-04-02T07:55:44Z</time>
      </trkpt>
      <trkpt lat="47.75272" lon="3.59035">
        <ele>146</ele>
        <time>2019-04-02T07:55:49Z</time>
      </trkpt>
      <trkpt lat="47.75267" lon="3.59031">
        <ele>148</ele>
        <time>2019-04-02T07:55:56Z</time>
      </trkpt>
      <trkpt lat="47.75263" lon="3.59027">
        <ele>149</ele>
        <time>2019-04-02T07:56:00Z</time>
      </trkpt>
      <trkpt lat="47.75259" lon="3.59024">
        <ele>149</ele>
        <time>2019-04-02T07:56:03Z</time>
      </trkpt>
      <trkpt lat="47.75255" lon="3.59019">
        <ele>150</ele>
        <time>2019-04-02T07:56:06Z</time>
      </trkpt>
      <trkpt lat="47.75249" lon="3.59018">
        <ele>150</ele>
        <time>2019-04-02T07:56:09Z</time>
      </trkpt>
      <trkpt lat="47.75244" lon="3.59019">
        <ele>151</ele>
        <time>2019-04-02T07:56:13Z</time>
      </trkpt>
      <trkpt lat="47.7524" lon="3.59017">
        <ele>151</ele>
        <time>2019-04-02T07:56:17Z</time>
      </trkpt>
      <trkpt lat="47.75237" lon="3.59015">
        <ele>149</ele>
        <time>2019-04-02T07:56:19Z</time>
      </trkpt>
      <trkpt lat="47.75235" lon="3.59014">
        <ele>149</ele>
        <time>2019-04-02T07:56:22Z</time>
      </trkpt>
      <trkpt lat="47.7523" lon="3.59012">
        <ele>149</ele>
        <time>2019-04-02T07:56:25Z</time>
      </trkpt>
      <trkpt lat="47.75225" lon="3.59006">
        <ele>151</ele>
        <time>2019-04-02T07:56:29Z</time>
      </trkpt>
      <trkpt lat="47.7522" lon="3.59005">
        <ele>151</ele>
        <time>2019-04-02T07:56:33Z</time>
      </trkpt>
      <trkpt lat="47.75214" lon="3.59001">
        <ele>150</ele>
        <time>2019-04-02T07:56:39Z</time>
      </trkpt>
      <trkpt lat="47.7521" lon="3.58998">
        <ele>150</ele>
        <time>2019-04-02T07:56:45Z</time>
      </trkpt>
      <trkpt lat="47.75207" lon="3.58992">
        <ele>150</ele>
        <time>2019-04-02T07:56:49Z</time>
      </trkpt>
      <trkpt lat="47.75201" lon="3.58989">
        <ele>151</ele>
        <time>2019-04-02T07:56:54Z</time>
      </trkpt>
      <trkpt lat="47.75197" lon="3.58984">
        <ele>154</ele>
        <time>2019-04-02T07:56:58Z</time>
      </trkpt>
      <trkpt lat="47.75192" lon="3.58981">
        <ele>154</ele>
        <time>2019-04-02T07:57:02Z</time>
      </trkpt>
      <trkpt lat="47.7519" lon="3.58979">
        <ele>154</ele>
        <time>2019-04-02T07:57:04Z</time>
      </trkpt>
      <trkpt lat="47.75185" lon="3.58976">
        <ele>154</ele>
        <time>2019-04-02T07:57:08Z</time>
      </trkpt>
      <trkpt lat="47.75181" lon="3.58972">
        <ele>152</ele>
        <time>2019-04-02T07:57:11Z</time>
      </trkpt>
      <trkpt lat="47.75177" lon="3.58967">
        <ele>154</ele>
        <time>2019-04-02T07:57:15Z</time>
      </trkpt>
      <trkpt lat="47.75173" lon="3.58964">
        <ele>155</ele>
        <time>2019-04-02T07:57:18Z</time>
      </trkpt>
      <trkpt lat="47.75171" lon="3.58961">
        <ele>154</ele>
        <time>2019-04-02T07:57:20Z</time>
      </trkpt>
      <trkpt lat="47.75165" lon="3.58961">
        <ele>154</ele>
        <time>2019-04-02T07:57:24Z</time>
      </trkpt>
      <trkpt lat="47.7516" lon="3.58956">
        <ele>155</ele>
        <time>2019-04-02T07:57:29Z</time>
      </trkpt>
      <trkpt lat="47.75157" lon="3.58954">
        <ele>154</ele>
        <time>2019-04-02T07:57:32Z</time>
      </trkpt>
      <trkpt lat="47.75153" lon="3.5895">
        <ele>154</ele>
        <time>2019-04-02T07:57:38Z</time>
      </trkpt>
      <trkpt lat="47.7515" lon="3.58947">
        <ele>154</ele>
        <time>2019-04-02T07:57:40Z</time>
      </trkpt>
      <trkpt lat="47.75148" lon="3.58944">
        <ele>156</ele>
        <time>2019-04-02T07:57:43Z</time>
      </trkpt>
      <trkpt lat="47.75143" lon="3.58942">
        <ele>155</ele>
        <time>2019-04-02T07:57:47Z</time>
      </trkpt>
      <trkpt lat="47.75138" lon="3.58942">
        <ele>155</ele>
        <time>2019-04-02T07:57:51Z</time>
      </trkpt>
      <trkpt lat="47.75133" lon="3.58939">
        <ele>155</ele>
        <time>2019-04-02T07:57:55Z</time>
      </trkpt>
      <trkpt lat="47.75128" lon="3.58934">
        <ele>155</ele>
        <time>2019-04-02T07:57:59Z</time>
      </trkpt>
      <trkpt lat="47.75124" lon="3.58931">
        <ele>155</ele>
        <time>2019-04-02T07:58:02Z</time>
      </trkpt>
      <trkpt lat="47.75118" lon="3.58931">
        <ele>153</ele>
        <time>2019-04-02T07:58:06Z</time>
      </trkpt>
      <trkpt lat="47.75114" lon="3.58929">
        <ele>154</ele>
        <time>2019-04-02T07:58:10Z</time>
      </trkpt>
      <trkpt lat="47.75108" lon="3.58928">
        <ele>150</ele>
        <time>2019-04-02T07:58:16Z</time>
      </trkpt>
      <trkpt lat="47.75103" lon="3.58927">
        <ele>150</ele>
        <time>2019-04-02T07:58:19Z</time>
      </trkpt>
      <trkpt lat="47.75097" lon="3.58926">
        <ele>148</ele>
        <time>2019-04-02T07:58:23Z</time>
      </trkpt>
      <trkpt lat="47.75094" lon="3.58926">
        <ele>146</ele>
        <time>2019-04-02T07:58:26Z</time>
      </trkpt>
      <trkpt lat="47.7509" lon="3.58924">
        <ele>144</ele>
        <time>2019-04-02T07:58:31Z</time>
      </trkpt>
      <trkpt lat="47.75085" lon="3.58924">
        <ele>143</ele>
        <time>2019-04-02T07:58:35Z</time>
      </trkpt>
      <trkpt lat="47.75078" lon="3.58923">
        <ele>143</ele>
        <time>2019-04-02T07:58:41Z</time>
      </trkpt>
      <trkpt lat="47.75075" lon="3.58922">
        <ele>145</ele>
        <time>2019-04-02T07:58:43Z</time>
      </trkpt>
      <trkpt lat="47.7507" lon="3.58918">
        <ele>147</ele>
        <time>2019-04-02T07:58:48Z</time>
      </trkpt>
      <trkpt lat="47.75065" lon="3.58917">
        <ele>149</ele>
        <time>2019-04-02T07:58:55Z</time>
      </trkpt>
      <trkpt lat="47.75059" lon="3.58913">
        <ele>151</ele>
        <time>2019-04-02T07:59:04Z</time>
      </trkpt>
      <trkpt lat="47.75054" lon="3.58913">
        <ele>149</ele>
        <time>2019-04-02T07:59:10Z</time>
      </trkpt>
      <trkpt lat="47.75046" lon="3.5891">
        <ele>152</ele>
        <time>2019-04-02T07:59:16Z</time>
      </trkpt>
      <trkpt lat="47.75042" lon="3.58909">
        <ele>149</ele>
        <time>2019-04-02T07:59:22Z</time>
      </trkpt>
      <trkpt lat="47.75038" lon="3.58907">
        <ele>149</ele>
        <time>2019-04-02T07:59:24Z</time>
      </trkpt>
      <trkpt lat="47.75035" lon="3.58907">
        <ele>150</ele>
        <time>2019-04-02T07:59:26Z</time>
      </trkpt>
      <trkpt lat="47.75032" lon="3.58906">
        <ele>151</ele>
        <time>2019-04-02T07:59:28Z</time>
      </trkpt>
      <trkpt lat="47.75026" lon="3.58904">
        <ele>150</ele>
        <time>2019-04-02T07:59:32Z</time>
      </trkpt>
      <trkpt lat="47.75019" lon="3.58901">
        <ele>151</ele>
        <time>2019-04-02T07:59:38Z</time>
      </trkpt>
      <trkpt lat="47.75016" lon="3.589">
        <ele>151</ele>
        <time>2019-04-02T07:59:40Z</time>
      </trkpt>
      <trkpt lat="47.7501" lon="3.58899">
        <ele>152</ele>
        <time>2019-04-02T07:59:44Z</time>
      </trkpt>
      <trkpt lat="47.75003" lon="3.58896">
        <ele>153</ele>
        <time>2019-04-02T07:59:49Z</time>
      </trkpt>
      <trkpt lat="47.74998" lon="3.58897">
        <ele>152</ele>
        <time>2019-04-02T07:59:53Z</time>
      </trkpt>
      <trkpt lat="47.74995" lon="3.58898">
        <ele>152</ele>
        <time>2019-04-02T07:59:55Z</time>
      </trkpt>
      <trkpt lat="47.7499" lon="3.58897">
        <ele>154</ele>
        <time>2019-04-02T07:59:58Z</time>
      </trkpt>
      <trkpt lat="47.74987" lon="3.58896">
        <ele>154</ele>
        <time>2019-04-02T08:00:00Z</time>
      </trkpt>
      <trkpt lat="47.74985" lon="3.58894">
        <ele>155</ele>
        <time>2019-04-02T08:00:02Z</time>
      </trkpt>
      <trkpt lat="47.74981" lon="3.58892">
        <ele>156</ele>
        <time>2019-04-02T08:00:06Z</time>
      </trkpt>
      <trkpt lat="47.74976" lon="3.58888">
        <ele>155</ele>
        <time>2019-04-02T08:00:11Z</time>
      </trkpt>
      <trkpt lat="47.74971" lon="3.58886">
        <ele>153</ele>
        <time>2019-04-02T08:00:16Z</time>
      </trkpt>
      <trkpt lat="47.74964" lon="3.58884">
        <ele>153</ele>
        <time>2019-04-02T08:00:22Z</time>
      </trkpt>
      <trkpt lat="47.74959" lon="3.58885">
        <ele>154</ele>
        <time>2019-04-02T08:00:25Z</time>
      </trkpt>
      <trkpt lat="47.74956" lon="3.58885">
        <ele>153</ele>
        <time>2019-04-02T08:00:27Z</time>
      </trkpt>
      <trkpt lat="47.7495" lon="3.58884">
        <ele>152</ele>
        <time>2019-04-02T08:00:31Z</time>
      </trkpt>
      <trkpt lat="47.74946" lon="3.58882">
        <ele>151</ele>
        <time>2019-04-02T08:00:36Z</time>
      </trkpt>
      <trkpt lat="47.74942" lon="3.58876">
        <ele>151</ele>
        <time>2019-04-02T08:00:40Z</time>
      </trkpt>
      <trkpt lat="47.7494" lon="3.58874">
        <ele>152</ele>
        <time>2019-04-02T08:00:43Z</time>
      </trkpt>
      <trkpt lat="47.74936" lon="3.58869">
        <ele>152</ele>
        <time>2019-04-02T08:00:48Z</time>
      </trkpt>
      <trkpt lat="47.74932" lon="3.58865">
        <ele>153</ele>
        <time>2019-04-02T08:00:52Z</time>
      </trkpt>
      <trkpt lat="47.74927" lon="3.58863">
        <ele>155</ele>
        <time>2019-04-02T08:00:56Z</time>
      </trkpt>
      <trkpt lat="47.74923" lon="3.58861">
        <ele>155</ele>
        <time>2019-04-02T08:00:59Z</time>
      </trkpt>
      <trkpt lat="47.7492" lon="3.58857">
        <ele>155</ele>
        <time>2019-04-02T08:01:03Z</time>
      </trkpt>
      <trkpt lat="47.74915" lon="3.58854">
        <ele>153</ele>
        <time>2019-04-02T08:01:08Z</time>
      </trkpt>
      <trkpt lat="47.74912" lon="3.58853">
        <ele>153</ele>
        <time>2019-04-02T08:01:11Z</time>
      </trkpt>
      <trkpt lat="47.7491" lon="3.58852">
        <ele>153</ele>
        <time>2019-04-02T08:01:15Z</time>
      </trkpt>
      <trkpt lat="47.74905" lon="3.58848">
        <ele>154</ele>
        <time>2019-04-02T08:01:19Z</time>
      </trkpt>
      <trkpt lat="47.749" lon="3.58847">
        <ele>153</ele>
        <time>2019-04-02T08:01:22Z</time>
      </trkpt>
      <trkpt lat="47.74896" lon="3.58846">
        <ele>153</ele>
        <time>2019-04-02T08:01:25Z</time>
      </trkpt>
      <trkpt lat="47.74891" lon="3.58845">
        <ele>152</ele>
        <time>2019-04-02T08:01:28Z</time>
      </trkpt>
      <trkpt lat="47.74885" lon="3.58841">
        <ele>153</ele>
        <time>2019-04-02T08:01:32Z</time>
      </trkpt>
      <trkpt lat="47.74882" lon="3.58839">
        <ele>154</ele>
        <time>2019-04-02T08:01:35Z</time>
      </trkpt>
      <trkpt lat="47.74878" lon="3.58836">
        <ele>153</ele>
        <time>2019-04-02T08:01:39Z</time>
      </trkpt>
      <trkpt lat="47.74875" lon="3.58834">
        <ele>154</ele>
        <time>2019-04-02T08:01:41Z</time>
      </trkpt>
      <trkpt lat="47.74875" lon="3.58834">
        <ele>154</ele>
        <time>2019-04-02T08:01:46Z</time>
      </trkpt>
      <trkpt lat="47.74875" lon="3.58834">
        <ele>154</ele>
        <time>2019-04-02T08:01:47Z</time>
      </trkpt>
      <trkpt lat="47.74871" lon="3.58829">
        <ele>153</ele>
        <time>2019-04-02T08:01:49Z</time>
      </trkpt>
      <trkpt lat="47.74866" lon="3.58827">
        <ele>154</ele>
        <time>2019-04-02T08:01:53Z</time>
      </trkpt>
      <trkpt lat="47.74861" lon="3.58827">
        <ele>153</ele>
        <time>2019-04-02T08:01:57Z</time>
      </trkpt>
      <trkpt lat="47.74855" lon="3.58824">
        <ele>153</ele>
        <time>2019-04-02T08:02:02Z</time>
      </trkpt>
      <trkpt lat="47.74852" lon="3.58822">
        <ele>153</ele>
        <time>2019-04-02T08:02:04Z</time>
      </trkpt>
      <trkpt lat="47.74847" lon="3.58821">
        <ele>152</ele>
        <time>2019-04-02T08:02:08Z</time>
      </trkpt>
      <trkpt lat="47.74841" lon="3.58816">
        <ele>152</ele>
        <time>2019-04-02T08:02:11Z</time>
      </trkpt>
      <trkpt lat="47.74837" lon="3.58813">
        <ele>153</ele>
        <time>2019-04-02T08:02:15Z</time>
      </trkpt>
      <trkpt lat="47.74833" lon="3.58811">
        <ele>152</ele>
        <time>2019-04-02T08:02:18Z</time>
      </trkpt>
      <trkpt lat="47.74828" lon="3.5881">
        <ele>152</ele>
        <time>2019-04-02T08:02:23Z</time>
      </trkpt>
      <trkpt lat="47.74824" lon="3.58804">
        <ele>152</ele>
        <time>2019-04-02T08:02:29Z</time>
      </trkpt>
      <trkpt lat="47.7482" lon="3.588">
        <ele>151</ele>
        <time>2019-04-02T08:02:33Z</time>
      </trkpt>
      <trkpt lat="47.74814" lon="3.58799">
        <ele>152</ele>
        <time>2019-04-02T08:02:36Z</time>
      </trkpt>
      <trkpt lat="47.74809" lon="3.58797">
        <ele>151</ele>
        <time>2019-04-02T08:02:41Z</time>
      </trkpt>
      <trkpt lat="47.74805" lon="3.58794">
        <ele>152</ele>
        <time>2019-04-02T08:02:46Z</time>
      </trkpt>
      <trkpt lat="47.74799" lon="3.58795">
        <ele>153</ele>
        <time>2019-04-02T08:02:50Z</time>
      </trkpt>
      <trkpt lat="47.74795" lon="3.58792">
        <ele>153</ele>
        <time>2019-04-02T08:02:53Z</time>
      </trkpt>
      <trkpt lat="47.74791" lon="3.58789">
        <ele>154</ele>
        <time>2019-04-02T08:02:57Z</time>
      </trkpt>
      <trkpt lat="47.74787" lon="3.58786">
        <ele>154</ele>
        <time>2019-04-02T08:03:00Z</time>
      </trkpt>
      <trkpt lat="47.74783" lon="3.58784">
        <ele>154</ele>
        <time>2019-04-02T08:03:02Z</time>
      </trkpt>
      <trkpt lat="47.7478" lon="3.58781">
        <ele>154</ele>
        <time>2019-04-02T08:03:04Z</time>
      </trkpt>
      <trkpt lat="47.74777" lon="3.58779">
        <ele>153</ele>
        <time>2019-04-02T08:03:06Z</time>
      </trkpt>
      <trkpt lat="47.74772" lon="3.58776">
        <ele>153</ele>
        <time>2019-04-02T08:03:10Z</time>
      </trkpt>
      <trkpt lat="47.74769" lon="3.58776">
        <ele>154</ele>
        <time>2019-04-02T08:03:13Z</time>
      </trkpt>
      <trkpt lat="47.74764" lon="3.58771">
        <ele>153</ele>
        <time>2019-04-02T08:03:17Z</time>
      </trkpt>
      <trkpt lat="47.74758" lon="3.58769">
        <ele>153</ele>
        <time>2019-04-02T08:03:21Z</time>
      </trkpt>
      <trkpt lat="47.74753" lon="3.58765">
        <ele>155</ele>
        <time>2019-04-02T08:03:26Z</time>
      </trkpt>
      <trkpt lat="47.74748" lon="3.58762">
        <ele>153</ele>
        <time>2019-04-02T08:03:30Z</time>
      </trkpt>
      <trkpt lat="47.74746" lon="3.58761">
        <ele>154</ele>
        <time>2019-04-02T08:03:33Z</time>
      </trkpt>
      <trkpt lat="47.74742" lon="3.58756">
        <ele>155</ele>
        <time>2019-04-02T08:03:40Z</time>
      </trkpt>
      <trkpt lat="47.74737" lon="3.58755">
        <ele>155</ele>
        <time>2019-04-02T08:03:43Z</time>
      </trkpt>
      <trkpt lat="47.74732" lon="3.58753">
        <ele>154</ele>
        <time>2019-04-02T08:03:49Z</time>
      </trkpt>
      <trkpt lat="47.7473" lon="3.58746">
        <ele>155</ele>
        <time>2019-04-02T08:03:57Z</time>
      </trkpt>
      <trkpt lat="47.74727" lon="3.58739">
        <ele>154</ele>
        <time>2019-04-02T08:04:01Z</time>
      </trkpt>
      <trkpt lat="47.74721" lon="3.58734">
        <ele>152</ele>
        <time>2019-04-02T08:04:06Z</time>
      </trkpt>
      <trkpt lat="47.74717" lon="3.5873">
        <ele>151</ele>
        <time>2019-04-02T08:04:09Z</time>
      </trkpt>
      <trkpt lat="47.7471" lon="3.58731">
        <ele>152</ele>
        <time>2019-04-02T08:04:14Z</time>
      </trkpt>
      <trkpt lat="47.74705" lon="3.5873">
        <ele>152</ele>
        <time>2019-04-02T08:04:17Z</time>
      </trkpt>
      <trkpt lat="47.74701" lon="3.58728">
        <ele>151</ele>
        <time>2019-04-02T08:04:22Z</time>
      </trkpt>
      <trkpt lat="47.74697" lon="3.58724">
        <ele>151</ele>
        <time>2019-04-02T08:04:25Z</time>
      </trkpt>
      <trkpt lat="47.74692" lon="3.58722">
        <ele>148</ele>
        <time>2019-04-02T08:04:29Z</time>
      </trkpt>
      <trkpt lat="47.74686" lon="3.58722">
        <ele>146</ele>
        <time>2019-04-02T08:04:33Z</time>
      </trkpt>
      <trkpt lat="47.7468" lon="3.58724">
        <ele>144</ele>
        <time>2019-04-02T08:04:37Z</time>
      </trkpt>
      <trkpt lat="47.74676" lon="3.58725">
        <ele>144</ele>
        <time>2019-04-02T08:04:39Z</time>
      </trkpt>
      <trkpt lat="47.74674" lon="3.58725">
        <ele>145</ele>
        <time>2019-04-02T08:04:44Z</time>
      </trkpt>
      <trkpt lat="47.74669" lon="3.58722">
        <ele>143</ele>
        <time>2019-04-02T08:04:57Z</time>
      </trkpt>
      <trkpt lat="47.74662" lon="3.5872">
        <ele>144</ele>
        <time>2019-04-02T08:05:02Z</time>
      </trkpt>
      <trkpt lat="47.74656" lon="3.58717">
        <ele>142</ele>
        <time>2019-04-02T08:05:07Z</time>
      </trkpt>
      <trkpt lat="47.74653" lon="3.58716">
        <ele>142</ele>
        <time>2019-04-02T08:05:09Z</time>
      </trkpt>
      <trkpt lat="47.74647" lon="3.58717">
        <ele>140</ele>
        <time>2019-04-02T08:05:15Z</time>
      </trkpt>
      <trkpt lat="47.74644" lon="3.58718">
        <ele>140</ele>
        <time>2019-04-02T08:05:17Z</time>
      </trkpt>
      <trkpt lat="47.7464" lon="3.58716">
        <ele>142</ele>
        <time>2019-04-02T08:05:21Z</time>
      </trkpt>
      <trkpt lat="47.74635" lon="3.58718">
        <ele>141</ele>
        <time>2019-04-02T08:05:25Z</time>
      </trkpt>
      <trkpt lat="47.7463" lon="3.58716">
        <ele>142</ele>
        <time>2019-04-02T08:05:29Z</time>
      </trkpt>
      <trkpt lat="47.74625" lon="3.58714">
        <ele>141</ele>
        <time>2019-04-02T08:05:32Z</time>
      </trkpt>
      <trkpt lat="47.74621" lon="3.58713">
        <ele>141</ele>
        <time>2019-04-02T08:05:35Z</time>
      </trkpt>
      <trkpt lat="47.74618" lon="3.58712">
        <ele>142</ele>
        <time>2019-04-02T08:05:37Z</time>
      </trkpt>
      <trkpt lat="47.74613" lon="3.58712">
        <ele>142</ele>
        <time>2019-04-02T08:05:41Z</time>
      </trkpt>
      <trkpt lat="47.74608" lon="3.58715">
        <ele>141</ele>
        <time>2019-04-02T08:05:45Z</time>
      </trkpt>
      <trkpt lat="47.74605" lon="3.58716">
        <ele>140</ele>
        <time>2019-04-02T08:05:47Z</time>
      </trkpt>
      <trkpt lat="47.74599" lon="3.58717">
        <ele>140</ele>
        <time>2019-04-02T08:05:53Z</time>
      </trkpt>
      <trkpt lat="47.74592" lon="3.58716">
        <ele>138</ele>
        <time>2019-04-02T08:05:59Z</time>
      </trkpt>
      <trkpt lat="47.74586" lon="3.58715">
        <ele>138</ele>
        <time>2019-04-02T08:06:02Z</time>
      </trkpt>
      <trkpt lat="47.74581" lon="3.58717">
        <ele>139</ele>
        <time>2019-04-02T08:06:06Z</time>
      </trkpt>
      <trkpt lat="47.74579" lon="3.58718">
        <ele>139</ele>
        <time>2019-04-02T08:06:09Z</time>
      </trkpt>
      <trkpt lat="47.74576" lon="3.58718">
        <ele>138</ele>
        <time>2019-04-02T08:06:10Z</time>
      </trkpt>
      <trkpt lat="47.7457" lon="3.58719">
        <ele>139</ele>
        <time>2019-04-02T08:06:15Z</time>
      </trkpt>
      <trkpt lat="47.74567" lon="3.5872">
        <ele>138</ele>
        <time>2019-04-02T08:06:17Z</time>
      </trkpt>
      <trkpt lat="47.74563" lon="3.58722">
        <ele>140</ele>
        <time>2019-04-02T08:06:21Z</time>
      </trkpt>
      <trkpt lat="47.74556" lon="3.58724">
        <ele>140</ele>
        <time>2019-04-02T08:06:26Z</time>
      </trkpt>
      <trkpt lat="47.7455" lon="3.58724">
        <ele>140</ele>
        <time>2019-04-02T08:06:30Z</time>
      </trkpt>
      <trkpt lat="47.74546" lon="3.5873">
        <ele>137</ele>
        <time>2019-04-02T08:06:34Z</time>
      </trkpt>
      <trkpt lat="47.7454" lon="3.58731">
        <ele>137</ele>
        <time>2019-04-02T08:06:40Z</time>
      </trkpt>
      <trkpt lat="47.74536" lon="3.58733">
        <ele>136</ele>
        <time>2019-04-02T08:06:43Z</time>
      </trkpt>
      <trkpt lat="47.74531" lon="3.58734">
        <ele>134</ele>
        <time>2019-04-02T08:06:47Z</time>
      </trkpt>
      <trkpt lat="47.74527" lon="3.58733">
        <ele>133</ele>
        <time>2019-04-02T08:06:49Z</time>
      </trkpt>
      <trkpt lat="47.74523" lon="3.58737">
        <ele>133</ele>
        <time>2019-04-02T08:06:52Z</time>
      </trkpt>
      <trkpt lat="47.7452" lon="3.5874">
        <ele>134</ele>
        <time>2019-04-02T08:06:56Z</time>
      </trkpt>
      <trkpt lat="47.74515" lon="3.58741">
        <ele>130</ele>
        <time>2019-04-02T08:07:02Z</time>
      </trkpt>
      <trkpt lat="47.7451" lon="3.58745">
        <ele>131</ele>
        <time>2019-04-02T08:07:06Z</time>
      </trkpt>
      <trkpt lat="47.74504" lon="3.58742">
        <ele>133</ele>
        <time>2019-04-02T08:07:13Z</time>
      </trkpt>
      <trkpt lat="47.74497" lon="3.58745">
        <ele>131</ele>
        <time>2019-04-02T08:07:17Z</time>
      </trkpt>
      <trkpt lat="47.74492" lon="3.58748">
        <ele>130</ele>
        <time>2019-04-02T08:07:22Z</time>
      </trkpt>
      <trkpt lat="47.74488" lon="3.5875">
        <ele>126</ele>
        <time>2019-04-02T08:07:25Z</time>
      </trkpt>
      <trkpt lat="47.74485" lon="3.58751">
        <ele>126</ele>
        <time>2019-04-02T08:07:27Z</time>
      </trkpt>
      <trkpt lat="47.7448" lon="3.58754">
        <ele>125</ele>
        <time>2019-04-02T08:07:30Z</time>
      </trkpt>
      <trkpt lat="47.74477" lon="3.58755">
        <ele>124</ele>
        <time>2019-04-02T08:07:32Z</time>
      </trkpt>
      <trkpt lat="47.74474" lon="3.58757">
        <ele>123</ele>
        <time>2019-04-02T08:07:34Z</time>
      </trkpt>
      <trkpt lat="47.74469" lon="3.58762">
        <ele>117</ele>
        <time>2019-04-02T08:07:41Z</time>
      </trkpt>
      <trkpt lat="47.74466" lon="3.58768">
        <ele>119</ele>
        <time>2019-04-02T08:07:44Z</time>
      </trkpt>
      <trkpt lat="47.74462" lon="3.58771">
        <ele>121</ele>
        <time>2019-04-02T08:07:49Z</time>
      </trkpt>
      <trkpt lat="47.74456" lon="3.58772">
        <ele>124</ele>
        <time>2019-04-02T08:07:54Z</time>
      </trkpt>
      <trkpt lat="47.74451" lon="3.58775">
        <ele>126</ele>
        <time>2019-04-02T08:07:59Z</time>
      </trkpt>
      <trkpt lat="47.74445" lon="3.58775">
        <ele>126</ele>
        <time>2019-04-02T08:08:03Z</time>
      </trkpt>
      <trkpt lat="47.7444" lon="3.58778">
        <ele>125</ele>
        <time>2019-04-02T08:08:07Z</time>
      </trkpt>
      <trkpt lat="47.74435" lon="3.58781">
        <ele>126</ele>
        <time>2019-04-02T08:08:11Z</time>
      </trkpt>
      <trkpt lat="47.74432" lon="3.5879">
        <ele>128</ele>
        <time>2019-04-02T08:08:16Z</time>
      </trkpt>
      <trkpt lat="47.74429" lon="3.58794">
        <ele>131</ele>
        <time>2019-04-02T08:08:21Z</time>
      </trkpt>
      <trkpt lat="47.74424" lon="3.58797">
        <ele>131</ele>
        <time>2019-04-02T08:08:25Z</time>
      </trkpt>
      <trkpt lat="47.74419" lon="3.58797">
        <ele>135</ele>
        <time>2019-04-02T08:08:30Z</time>
      </trkpt>
      <trkpt lat="47.74414" lon="3.588">
        <ele>134</ele>
        <time>2019-04-02T08:08:34Z</time>
      </trkpt>
      <trkpt lat="47.74411" lon="3.58802">
        <ele>134</ele>
        <time>2019-04-02T08:08:36Z</time>
      </trkpt>
      <trkpt lat="47.74408" lon="3.58804">
        <ele>133</ele>
        <time>2019-04-02T08:08:38Z</time>
      </trkpt>
      <trkpt lat="47.74401" lon="3.58805">
        <ele>133</ele>
        <time>2019-04-02T08:08:43Z</time>
      </trkpt>
      <trkpt lat="47.74395" lon="3.58807">
        <ele>132</ele>
        <time>2019-04-02T08:08:46Z</time>
      </trkpt>
      <trkpt lat="47.74392" lon="3.58808">
        <ele>132</ele>
        <time>2019-04-02T08:08:50Z</time>
      </trkpt>
      <trkpt lat="47.74389" lon="3.58809">
        <ele>132</ele>
        <time>2019-04-02T08:08:53Z</time>
      </trkpt>
      <trkpt lat="47.74383" lon="3.58808">
        <ele>131</ele>
        <time>2019-04-02T08:08:59Z</time>
      </trkpt>
      <trkpt lat="47.74379" lon="3.58815">
        <ele>131</ele>
        <time>2019-04-02T08:09:03Z</time>
      </trkpt>
      <trkpt lat="47.74377" lon="3.58819">
        <ele>130</ele>
        <time>2019-04-02T08:09:05Z</time>
      </trkpt>
      <trkpt lat="47.74373" lon="3.58822">
        <ele>130</ele>
        <time>2019-04-02T08:09:09Z</time>
      </trkpt>
      <trkpt lat="47.74368" lon="3.58822">
        <ele>133</ele>
        <time>2019-04-02T08:09:14Z</time>
      </trkpt>
      <trkpt lat="47.74363" lon="3.58824">
        <ele>135</ele>
        <time>2019-04-02T08:09:18Z</time>
      </trkpt>
      <trkpt lat="47.74357" lon="3.58825">
        <ele>137</ele>
        <time>2019-04-02T08:09:23Z</time>
      </trkpt>
      <trkpt lat="47.7435" lon="3.58827">
        <ele>140</ele>
        <time>2019-04-02T08:09:30Z</time>
      </trkpt>
      <trkpt lat="47.74345" lon="3.58832">
        <ele>141</ele>
        <time>2019-04-02T08:09:34Z</time>
      </trkpt>
      <trkpt lat="47.74341" lon="3.58837">
        <ele>141</ele>
        <time>2019-04-02T08:09:37Z</time>
      </trkpt>
      <trkpt lat="47.74337" lon="3.5884">
        <ele>141</ele>
        <time>2019-04-02T08:09:41Z</time>
      </trkpt>
      <trkpt lat="47.74333" lon="3.58839">
        <ele>141</ele>
        <time>2019-04-02T08:09:45Z</time>
      </trkpt>
      <trkpt lat="47.7433" lon="3.58838">
        <ele>142</ele>
        <time>2019-04-02T08:09:47Z</time>
      </trkpt>
      <trkpt lat="47.74325" lon="3.58841">
        <ele>144</ele>
        <time>2019-04-02T08:09:52Z</time>
      </trkpt>
      <trkpt lat="47.74321" lon="3.58845">
        <ele>146</ele>
        <time>2019-04-02T08:09:56Z</time>
      </trkpt>
      <trkpt lat="47.74314" lon="3.58847">
        <ele>147</ele>
        <time>2019-04-02T08:10:01Z</time>
      </trkpt>
      <trkpt lat="47.74308" lon="3.58856">
        <ele>146</ele>
        <time>2019-04-02T08:10:07Z</time>
      </trkpt>
      <trkpt lat="47.74304" lon="3.58859">
        <ele>146</ele>
        <time>2019-04-02T08:10:10Z</time>
      </trkpt>
      <trkpt lat="47.74298" lon="3.58861">
        <ele>149</ele>
        <time>2019-04-02T08:10:16Z</time>
      </trkpt>
      <trkpt lat="47.74294" lon="3.58866">
        <ele>148</ele>
        <time>2019-04-02T08:10:20Z</time>
      </trkpt>
      <trkpt lat="47.74291" lon="3.58868">
        <ele>146</ele>
        <time>2019-04-02T08:10:28Z</time>
      </trkpt>
      <trkpt lat="47.74286" lon="3.5887">
        <ele>144</ele>
        <time>2019-04-02T08:10:34Z</time>
      </trkpt>
      <trkpt lat="47.74282" lon="3.58872">
        <ele>144</ele>
        <time>2019-04-02T08:10:37Z</time>
      </trkpt>
      <trkpt lat="47.7428" lon="3.58874">
        <ele>143</ele>
        <time>2019-04-02T08:10:39Z</time>
      </trkpt>
      <trkpt lat="47.74275" lon="3.58878">
        <ele>143</ele>
        <time>2019-04-02T08:10:43Z</time>
      </trkpt>
      <trkpt lat="47.74272" lon="3.58883">
        <ele>143</ele>
        <time>2019-04-02T08:10:47Z</time>
      </trkpt>
      <trkpt lat="47.74267" lon="3.58884">
        <ele>144</ele>
        <time>2019-04-02T08:10:52Z</time>
      </trkpt>
      <trkpt lat="47.74261" lon="3.58886">
        <ele>147</ele>
        <time>2019-04-02T08:10:57Z</time>
      </trkpt>
      <trkpt lat="47.74258" lon="3.58891">
        <ele>149</ele>
        <time>2019-04-02T08:11:02Z</time>
      </trkpt>
      <trkpt lat="47.74256" lon="3.58894">
        <ele>149</ele>
        <time>2019-04-02T08:11:04Z</time>
      </trkpt>
      <trkpt lat="47.74251" lon="3.58897">
        <ele>149</ele>
        <time>2019-04-02T08:11:08Z</time>
      </trkpt>
      <trkpt lat="47.74246" lon="3.589">
        <ele>147</ele>
        <time>2019-04-02T08:11:12Z</time>
      </trkpt>
      <trkpt lat="47.74243" lon="3.58902">
        <ele>148</ele>
        <time>2019-04-02T08:11:14Z</time>
      </trkpt>
      <trkpt lat="47.7424" lon="3.58903">
        <ele>149</ele>
        <time>2019-04-02T08:11:17Z</time>
      </trkpt>
      <trkpt lat="47.74235" lon="3.58905">
        <ele>148</ele>
        <time>2019-04-02T08:11:20Z</time>
      </trkpt>
      <trkpt lat="47.74231" lon="3.5891">
        <ele>148</ele>
        <time>2019-04-02T08:11:24Z</time>
      </trkpt>
      <trkpt lat="47.74229" lon="3.58913">
        <ele>147</ele>
        <time>2019-04-02T08:11:26Z</time>
      </trkpt>
      <trkpt lat="47.74224" lon="3.58915">
        <ele>148</ele>
        <time>2019-04-02T08:11:30Z</time>
      </trkpt>
      <trkpt lat="47.74219" lon="3.58919">
        <ele>147</ele>
        <time>2019-04-02T08:11:35Z</time>
      </trkpt>
      <trkpt lat="47.74214" lon="3.58921">
        <ele>147</ele>
        <time>2019-04-02T08:11:38Z</time>
      </trkpt>
      <trkpt lat="47.7421" lon="3.58926">
        <ele>147</ele>
        <time>2019-04-02T08:11:43Z</time>
      </trkpt>
      <trkpt lat="47.74207" lon="3.58931">
        <ele>146</ele>
        <time>2019-04-02T08:11:47Z</time>
      </trkpt>
      <trkpt lat="47.74201" lon="3.58934">
        <ele>145</ele>
        <time>2019-04-02T08:11:52Z</time>
      </trkpt>
      <trkpt lat="47.74196" lon="3.58937">
        <ele>146</ele>
        <time>2019-04-02T08:11:55Z</time>
      </trkpt>
      <trkpt lat="47.74191" lon="3.58939">
        <ele>146</ele>
        <time>2019-04-02T08:11:59Z</time>
      </trkpt>
      <trkpt lat="47.74188" lon="3.5894">
        <ele>146</ele>
        <time>2019-04-02T08:12:02Z</time>
      </trkpt>
      <trkpt lat="47.74184" lon="3.58944">
        <ele>145</ele>
        <time>2019-04-02T08:12:06Z</time>
      </trkpt>
      <trkpt lat="47.74181" lon="3.58951">
        <ele>144</ele>
        <time>2019-04-02T08:12:10Z</time>
      </trkpt>
      <trkpt lat="47.74175" lon="3.58957">
        <ele>144</ele>
        <time>2019-04-02T08:12:15Z</time>
      </trkpt>
      <trkpt lat="47.74171" lon="3.58961">
        <ele>142</ele>
        <time>2019-04-02T08:12:20Z</time>
      </trkpt>
      <trkpt lat="47.74168" lon="3.58965">
        <ele>140</ele>
        <time>2019-04-02T08:12:23Z</time>
      </trkpt>
      <trkpt lat="47.74161" lon="3.58969">
        <ele>142</ele>
        <time>2019-04-02T08:12:28Z</time>
      </trkpt>
      <trkpt lat="47.74159" lon="3.58971">
        <ele>142</ele>
        <time>2019-04-02T08:12:30Z</time>
      </trkpt>
      <trkpt lat="47.74155" lon="3.58974">
        <ele>142</ele>
        <time>2019-04-02T08:12:33Z</time>
      </trkpt>
      <trkpt lat="47.74152" lon="3.58975">
        <ele>143</ele>
        <time>2019-04-02T08:12:35Z</time>
      </trkpt>
      <trkpt lat="47.74149" lon="3.58977">
        <ele>143</ele>
        <time>2019-04-02T08:12:37Z</time>
      </trkpt>
      <trkpt lat="47.74144" lon="3.58979">
        <ele>144</ele>
        <time>2019-04-02T08:12:41Z</time>
      </trkpt>
      <trkpt lat="47.7414" lon="3.58984">
        <ele>145</ele>
        <time>2019-04-02T08:12:46Z</time>
      </trkpt>
      <trkpt lat="47.74135" lon="3.58987">
        <ele>146</ele>
        <time>2019-04-02T08:12:50Z</time>
      </trkpt>
      <trkpt lat="47.74133" lon="3.58989">
        <ele>147</ele>
        <time>2019-04-02T08:12:52Z</time>
      </trkpt>
      <trkpt lat="47.74129" lon="3.58994">
        <ele>145</ele>
        <time>2019-04-02T08:12:57Z</time>
      </trkpt>
      <trkpt lat="47.74124" lon="3.59">
        <ele>144</ele>
        <time>2019-04-02T08:13:00Z</time>
      </trkpt>
      <trkpt lat="47.74122" lon="3.59002">
        <ele>144</ele>
        <time>2019-04-02T08:13:03Z</time>
      </trkpt>
      <trkpt lat="47.74118" lon="3.59008">
        <ele>146</ele>
        <time>2019-04-02T08:13:07Z</time>
      </trkpt>
      <trkpt lat="47.74113" lon="3.59011">
        <ele>146</ele>
        <time>2019-04-02T08:13:11Z</time>
      </trkpt>
      <trkpt lat="47.74109" lon="3.59013">
        <ele>146</ele>
        <time>2019-04-02T08:13:13Z</time>
      </trkpt>
      <trkpt lat="47.74103" lon="3.59013">
        <ele>146</ele>
        <time>2019-04-02T08:13:17Z</time>
      </trkpt>
      <trkpt lat="47.741" lon="3.59013">
        <ele>146</ele>
        <time>2019-04-02T08:13:19Z</time>
      </trkpt>
      <trkpt lat="47.741" lon="3.59023">
        <ele>144</ele>
        <time>2019-04-02T08:13:25Z</time>
      </trkpt>
      <trkpt lat="47.741" lon="3.59023">
        <ele>144</ele>
        <time>2019-04-02T08:13:32Z</time>
      </trkpt>
      <trkpt lat="47.741" lon="3.59023">
        <ele>144</ele>
        <time>2019-04-02T08:13:34Z</time>
      </trkpt>
      <trkpt lat="47.74097" lon="3.59034">
        <ele>142</ele>
        <time>2019-04-02T08:16:45Z</time>
      </trkpt>
      <trkpt lat="47.74097" lon="3.59041">
        <ele>141</ele>
        <time>2019-04-02T08:16:51Z</time>
      </trkpt>
      <trkpt lat="47.74097" lon="3.59048">
        <ele>145</ele>
        <time>2019-04-02T08:16:57Z</time>
      </trkpt>
      <trkpt lat="47.74097" lon="3.59056">
        <ele>148</ele>
        <time>2019-04-02T08:17:02Z</time>
      </trkpt>
      <trkpt lat="47.74098" lon="3.59063">
        <ele>149</ele>
        <time>2019-04-02T08:17:07Z</time>
      </trkpt>
      <trkpt lat="47.74099" lon="3.59071">
        <ele>149</ele>
        <time>2019-04-02T08:17:11Z</time>
      </trkpt>
      <trkpt lat="47.74099" lon="3.59076">
        <ele>150</ele>
        <time>2019-04-02T08:17:13Z</time>
      </trkpt>
      <trkpt lat="47.741" lon="3.59083">
        <ele>150</ele>
        <time>2019-04-02T08:17:17Z</time>
      </trkpt>
      <trkpt lat="47.74101" lon="3.59087">
        <ele>151</ele>
        <time>2019-04-02T08:17:19Z</time>
      </trkpt>
      <trkpt lat="47.74101" lon="3.59091">
        <ele>150</ele>
        <time>2019-04-02T08:17:21Z</time>
      </trkpt>
      <trkpt lat="47.74102" lon="3.591">
        <ele>150</ele>
        <time>2019-04-02T08:17:25Z</time>
      </trkpt>
      <trkpt lat="47.74103" lon="3.59107">
        <ele>150</ele>
        <time>2019-04-02T08:17:28Z</time>
      </trkpt>
      <trkpt lat="47.74104" lon="3.59112">
        <ele>151</ele>
        <time>2019-04-02T08:17:30Z</time>
      </trkpt>
      <trkpt lat="47.74104" lon="3.59119">
        <ele>151</ele>
        <time>2019-04-02T08:17:33Z</time>
      </trkpt>
      <trkpt lat="47.74104" lon="3.59123">
        <ele>152</ele>
        <time>2019-04-02T08:17:35Z</time>
      </trkpt>
      <trkpt lat="47.74104" lon="3.5913">
        <ele>152</ele>
        <time>2019-04-02T08:17:39Z</time>
      </trkpt>
      <trkpt lat="47.74104" lon="3.59137">
        <ele>153</ele>
        <time>2019-04-02T08:17:43Z</time>
      </trkpt>
      <trkpt lat="47.74105" lon="3.59145">
        <ele>152</ele>
        <time>2019-04-02T08:17:47Z</time>
      </trkpt>
      <trkpt lat="47.74105" lon="3.59152">
        <ele>153</ele>
        <time>2019-04-02T08:17:51Z</time>
      </trkpt>
      <trkpt lat="47.74105" lon="3.59155">
        <ele>154</ele>
        <time>2019-04-02T08:17:53Z</time>
      </trkpt>
      <trkpt lat="47.74105" lon="3.59159">
        <ele>153</ele>
        <time>2019-04-02T08:17:55Z</time>
      </trkpt>
      <trkpt lat="47.74105" lon="3.59168">
        <ele>154</ele>
        <time>2019-04-02T08:17:59Z</time>
      </trkpt>
      <trkpt lat="47.74106" lon="3.59176">
        <ele>154</ele>
        <time>2019-04-02T08:18:03Z</time>
      </trkpt>
      <trkpt lat="47.74107" lon="3.59184">
        <ele>154</ele>
        <time>2019-04-02T08:18:07Z</time>
      </trkpt>
      <trkpt lat="47.74109" lon="3.59191">
        <ele>154</ele>
        <time>2019-04-02T08:18:11Z</time>
      </trkpt>
      <trkpt lat="47.74109" lon="3.59198">
        <ele>154</ele>
        <time>2019-04-02T08:18:14Z</time>
      </trkpt>
      <trkpt lat="47.74109" lon="3.59202">
        <ele>155</ele>
        <time>2019-04-02T08:18:16Z</time>
      </trkpt>
      <trkpt lat="47.74109" lon="3.59208">
        <ele>155</ele>
        <time>2019-04-02T08:18:19Z</time>
      </trkpt>
      <trkpt lat="47.74109" lon="3.59216">
        <ele>156</ele>
        <time>2019-04-02T08:18:24Z</time>
      </trkpt>
      <trkpt lat="47.74109" lon="3.59219">
        <ele>157</ele>
        <time>2019-04-02T08:18:26Z</time>
      </trkpt>
      <trkpt lat="47.74109" lon="3.59224">
        <ele>156</ele>
        <time>2019-04-02T08:18:29Z</time>
      </trkpt>
      <trkpt lat="47.74108" lon="3.59228">
        <ele>156</ele>
        <time>2019-04-02T08:18:31Z</time>
      </trkpt>
      <trkpt lat="47.74109" lon="3.59239">
        <ele>157</ele>
        <time>2019-04-02T08:18:37Z</time>
      </trkpt>
      <trkpt lat="47.74111" lon="3.59248">
        <ele>157</ele>
        <time>2019-04-02T08:18:42Z</time>
      </trkpt>
      <trkpt lat="47.74112" lon="3.59256">
        <ele>157</ele>
        <time>2019-04-02T08:18:46Z</time>
      </trkpt>
      <trkpt lat="47.74113" lon="3.59259">
        <ele>157</ele>
        <time>2019-04-02T08:18:48Z</time>
      </trkpt>
      <trkpt lat="47.74112" lon="3.59268">
        <ele>155</ele>
        <time>2019-04-02T08:18:53Z</time>
      </trkpt>
      <trkpt lat="47.74112" lon="3.59275">
        <ele>157</ele>
        <time>2019-04-02T08:18:58Z</time>
      </trkpt>
      <trkpt lat="47.74106" lon="3.59279">
        <ele>157</ele>
        <time>2019-04-02T08:19:05Z</time>
      </trkpt>
      <trkpt lat="47.74102" lon="3.59281">
        <ele>156</ele>
        <time>2019-04-02T08:19:08Z</time>
      </trkpt>
      <trkpt lat="47.74097" lon="3.59282">
        <ele>154</ele>
        <time>2019-04-02T08:19:13Z</time>
      </trkpt>
      <trkpt lat="47.74094" lon="3.59283">
        <ele>154</ele>
        <time>2019-04-02T08:19:16Z</time>
      </trkpt>
      <trkpt lat="47.74087" lon="3.59284">
        <ele>153</ele>
        <time>2019-04-02T08:19:21Z</time>
      </trkpt>
      <trkpt lat="47.74082" lon="3.59286">
        <ele>153</ele>
        <time>2019-04-02T08:19:26Z</time>
      </trkpt>
      <trkpt lat="47.74074" lon="3.59289">
        <ele>153</ele>
        <time>2019-04-02T08:19:31Z</time>
      </trkpt>
      <trkpt lat="47.74072" lon="3.59291">
        <ele>153</ele>
        <time>2019-04-02T08:19:32Z</time>
      </trkpt>
      <trkpt lat="47.74067" lon="3.5929">
        <ele>151</ele>
        <time>2019-04-02T08:19:35Z</time>
      </trkpt>
      <trkpt lat="47.74063" lon="3.59292">
        <ele>152</ele>
        <time>2019-04-02T08:19:39Z</time>
      </trkpt>
      <trkpt lat="47.74058" lon="3.59293">
        <ele>152</ele>
        <time>2019-04-02T08:19:43Z</time>
      </trkpt>
      <trkpt lat="47.74055" lon="3.59295">
        <ele>153</ele>
        <time>2019-04-02T08:19:46Z</time>
      </trkpt>
      <trkpt lat="47.74052" lon="3.59295">
        <ele>154</ele>
        <time>2019-04-02T08:19:49Z</time>
      </trkpt>
      <trkpt lat="47.74046" lon="3.59297">
        <ele>154</ele>
        <time>2019-04-02T08:19:52Z</time>
      </trkpt>
      <trkpt lat="47.74042" lon="3.59296">
        <ele>154</ele>
        <time>2019-04-02T08:19:55Z</time>
      </trkpt>
      <trkpt lat="47.74037" lon="3.59296">
        <ele>154</ele>
        <time>2019-04-02T08:19:58Z</time>
      </trkpt>
      <trkpt lat="47.74032" lon="3.59302">
        <ele>155</ele>
        <time>2019-04-02T08:20:02Z</time>
      </trkpt>
      <trkpt lat="47.74031" lon="3.5931">
        <ele>154</ele>
        <time>2019-04-02T08:20:05Z</time>
      </trkpt>
      <trkpt lat="47.74029" lon="3.59317">
        <ele>154</ele>
        <time>2019-04-02T08:20:08Z</time>
      </trkpt>
      <trkpt lat="47.74027" lon="3.59326">
        <ele>154</ele>
        <time>2019-04-02T08:20:12Z</time>
      </trkpt>
      <trkpt lat="47.74022" lon="3.59334">
        <ele>153</ele>
        <time>2019-04-02T08:20:18Z</time>
      </trkpt>
      <trkpt lat="47.74017" lon="3.59341">
        <ele>154</ele>
        <time>2019-04-02T08:20:21Z</time>
      </trkpt>
      <trkpt lat="47.74015" lon="3.59344">
        <ele>153</ele>
        <time>2019-04-02T08:20:24Z</time>
      </trkpt>
      <trkpt lat="47.74013" lon="3.59347">
        <ele>153</ele>
        <time>2019-04-02T08:20:26Z</time>
      </trkpt>
      <trkpt lat="47.7401" lon="3.59354">
        <ele>154</ele>
        <time>2019-04-02T08:20:30Z</time>
      </trkpt>
      <trkpt lat="47.74006" lon="3.5936">
        <ele>154</ele>
        <time>2019-04-02T08:20:34Z</time>
      </trkpt>
      <trkpt lat="47.74003" lon="3.59364">
        <ele>153</ele>
        <time>2019-04-02T08:20:37Z</time>
      </trkpt>
      <trkpt lat="47.73998" lon="3.59369">
        <ele>152</ele>
        <time>2019-04-02T08:20:41Z</time>
      </trkpt>
      <trkpt lat="47.73995" lon="3.59372">
        <ele>151</ele>
        <time>2019-04-02T08:20:43Z</time>
      </trkpt>
      <trkpt lat="47.73992" lon="3.59378">
        <ele>151</ele>
        <time>2019-04-02T08:20:47Z</time>
      </trkpt>
      <trkpt lat="47.73987" lon="3.59382">
        <ele>150</ele>
        <time>2019-04-02T08:20:51Z</time>
      </trkpt>
      <trkpt lat="47.73984" lon="3.59384">
        <ele>149</ele>
        <time>2019-04-02T08:20:53Z</time>
      </trkpt>
      <trkpt lat="47.73979" lon="3.59389">
        <ele>150</ele>
        <time>2019-04-02T08:20:58Z</time>
      </trkpt>
      <trkpt lat="47.73974" lon="3.59393">
        <ele>151</ele>
        <time>2019-04-02T08:21:03Z</time>
      </trkpt>
      <trkpt lat="47.73969" lon="3.59404">
        <ele>152</ele>
        <time>2019-04-02T08:21:08Z</time>
      </trkpt>
      <trkpt lat="47.73965" lon="3.59409">
        <ele>152</ele>
        <time>2019-04-02T08:21:12Z</time>
      </trkpt>
      <trkpt lat="47.73961" lon="3.59413">
        <ele>152</ele>
        <time>2019-04-02T08:21:15Z</time>
      </trkpt>
      <trkpt lat="47.73957" lon="3.59417">
        <ele>152</ele>
        <time>2019-04-02T08:21:20Z</time>
      </trkpt>
      <trkpt lat="47.73955" lon="3.59419">
        <ele>152</ele>
        <time>2019-04-02T08:21:22Z</time>
      </trkpt>
      <trkpt lat="47.73953" lon="3.59421">
        <ele>152</ele>
        <time>2019-04-02T08:21:24Z</time>
      </trkpt>
      <trkpt lat="47.73948" lon="3.59427">
        <ele>151</ele>
        <time>2019-04-02T08:21:28Z</time>
      </trkpt>
      <trkpt lat="47.73944" lon="3.59429">
        <ele>151</ele>
        <time>2019-04-02T08:21:31Z</time>
      </trkpt>
      <trkpt lat="47.7394" lon="3.59433">
        <ele>150</ele>
        <time>2019-04-02T08:21:34Z</time>
      </trkpt>
      <trkpt lat="47.73937" lon="3.59439">
        <ele>151</ele>
        <time>2019-04-02T08:21:39Z</time>
      </trkpt>
      <trkpt lat="47.73933" lon="3.59444">
        <ele>152</ele>
        <time>2019-04-02T08:21:42Z</time>
      </trkpt>
      <trkpt lat="47.73931" lon="3.59446">
        <ele>152</ele>
        <time>2019-04-02T08:21:44Z</time>
      </trkpt>
      <trkpt lat="47.73929" lon="3.59449">
        <ele>151</ele>
        <time>2019-04-02T08:21:46Z</time>
      </trkpt>
      <trkpt lat="47.73926" lon="3.59452">
        <ele>151</ele>
        <time>2019-04-02T08:21:48Z</time>
      </trkpt>
      <trkpt lat="47.73924" lon="3.59456">
        <ele>151</ele>
        <time>2019-04-02T08:21:50Z</time>
      </trkpt>
      <trkpt lat="47.73922" lon="3.59459">
        <ele>151</ele>
        <time>2019-04-02T08:21:52Z</time>
      </trkpt>
      <trkpt lat="47.73917" lon="3.59464">
        <ele>151</ele>
        <time>2019-04-02T08:21:56Z</time>
      </trkpt>
      <trkpt lat="47.73915" lon="3.59467">
        <ele>150</ele>
        <time>2019-04-02T08:21:58Z</time>
      </trkpt>
      <trkpt lat="47.73912" lon="3.59471">
        <ele>151</ele>
        <time>2019-04-02T08:22:01Z</time>
      </trkpt>
      <trkpt lat="47.73907" lon="3.59474">
        <ele>151</ele>
        <time>2019-04-02T08:22:05Z</time>
      </trkpt>
      <trkpt lat="47.73905" lon="3.59477">
        <ele>152</ele>
        <time>2019-04-02T08:22:07Z</time>
      </trkpt>
      <trkpt lat="47.73901" lon="3.59483">
        <ele>150</ele>
        <time>2019-04-02T08:22:12Z</time>
      </trkpt>
      <trkpt lat="47.73896" lon="3.59488">
        <ele>151</ele>
        <time>2019-04-02T08:22:16Z</time>
      </trkpt>
      <trkpt lat="47.73894" lon="3.59491">
        <ele>151</ele>
        <time>2019-04-02T08:22:18Z</time>
      </trkpt>
      <trkpt lat="47.73889" lon="3.59496">
        <ele>151</ele>
        <time>2019-04-02T08:22:22Z</time>
      </trkpt>
      <trkpt lat="47.73885" lon="3.595">
        <ele>150</ele>
        <time>2019-04-02T08:22:25Z</time>
      </trkpt>
      <trkpt lat="47.73881" lon="3.59504">
        <ele>150</ele>
        <time>2019-04-02T08:22:29Z</time>
      </trkpt>
      <trkpt lat="47.73877" lon="3.5951">
        <ele>149</ele>
        <time>2019-04-02T08:22:34Z</time>
      </trkpt>
      <trkpt lat="47.73875" lon="3.59512">
        <ele>150</ele>
        <time>2019-04-02T08:22:36Z</time>
      </trkpt>
      <trkpt lat="47.73873" lon="3.59515">
        <ele>150</ele>
        <time>2019-04-02T08:22:38Z</time>
      </trkpt>
      <trkpt lat="47.7387" lon="3.5952">
        <ele>150</ele>
        <time>2019-04-02T08:22:42Z</time>
      </trkpt>
      <trkpt lat="47.73866" lon="3.59524">
        <ele>149</ele>
        <time>2019-04-02T08:22:45Z</time>
      </trkpt>
      <trkpt lat="47.73864" lon="3.59526">
        <ele>150</ele>
        <time>2019-04-02T08:22:47Z</time>
      </trkpt>
      <trkpt lat="47.7386" lon="3.59529">
        <ele>150</ele>
        <time>2019-04-02T08:22:51Z</time>
      </trkpt>
      <trkpt lat="47.73854" lon="3.59537">
        <ele>149</ele>
        <time>2019-04-02T08:22:56Z</time>
      </trkpt>
      <trkpt lat="47.73852" lon="3.59541">
        <ele>149</ele>
        <time>2019-04-02T08:22:58Z</time>
      </trkpt>
      <trkpt lat="47.73847" lon="3.59545">
        <ele>149</ele>
        <time>2019-04-02T08:23:02Z</time>
      </trkpt>
      <trkpt lat="47.73844" lon="3.59549">
        <ele>149</ele>
        <time>2019-04-02T08:23:06Z</time>
      </trkpt>
      <trkpt lat="47.73841" lon="3.59553">
        <ele>148</ele>
        <time>2019-04-02T08:23:09Z</time>
      </trkpt>
      <trkpt lat="47.73836" lon="3.5956">
        <ele>148</ele>
        <time>2019-04-02T08:23:13Z</time>
      </trkpt>
      <trkpt lat="47.73831" lon="3.59565">
        <ele>147</ele>
        <time>2019-04-02T08:23:18Z</time>
      </trkpt>
      <trkpt lat="47.73827" lon="3.59568">
        <ele>145</ele>
        <time>2019-04-02T08:23:21Z</time>
      </trkpt>
      <trkpt lat="47.73823" lon="3.59572">
        <ele>146</ele>
        <time>2019-04-02T08:23:25Z</time>
      </trkpt>
      <trkpt lat="47.7382" lon="3.59575">
        <ele>145</ele>
        <time>2019-04-02T08:23:28Z</time>
      </trkpt>
      <trkpt lat="47.73818" lon="3.59577">
        <ele>145</ele>
        <time>2019-04-02T08:23:30Z</time>
      </trkpt>
      <trkpt lat="47.73813" lon="3.59583">
        <ele>147</ele>
        <time>2019-04-02T08:23:34Z</time>
      </trkpt>
      <trkpt lat="47.73809" lon="3.59587">
        <ele>147</ele>
        <time>2019-04-02T08:23:39Z</time>
      </trkpt>
      <trkpt lat="47.73805" lon="3.59593">
        <ele>148</ele>
        <time>2019-04-02T08:23:43Z</time>
      </trkpt>
      <trkpt lat="47.73802" lon="3.59599">
        <ele>148</ele>
        <time>2019-04-02T08:23:46Z</time>
      </trkpt>
      <trkpt lat="47.73799" lon="3.59605">
        <ele>149</ele>
        <time>2019-04-02T08:23:49Z</time>
      </trkpt>
      <trkpt lat="47.73797" lon="3.59609">
        <ele>150</ele>
        <time>2019-04-02T08:23:51Z</time>
      </trkpt>
      <trkpt lat="47.73796" lon="3.59614">
        <ele>150</ele>
        <time>2019-04-02T08:23:53Z</time>
      </trkpt>
      <trkpt lat="47.73795" lon="3.59623">
        <ele>153</ele>
        <time>2019-04-02T08:23:57Z</time>
      </trkpt>
      <trkpt lat="47.73795" lon="3.59631">
        <ele>153</ele>
        <time>2019-04-02T08:24:01Z</time>
      </trkpt>
      <trkpt lat="47.73797" lon="3.59638">
        <ele>155</ele>
        <time>2019-04-02T08:24:05Z</time>
      </trkpt>
      <trkpt lat="47.73798" lon="3.59646">
        <ele>155</ele>
        <time>2019-04-02T08:24:09Z</time>
      </trkpt>
      <trkpt lat="47.73799" lon="3.5965">
        <ele>155</ele>
        <time>2019-04-02T08:24:11Z</time>
      </trkpt>
      <trkpt lat="47.73799" lon="3.59656">
        <ele>155</ele>
        <time>2019-04-02T08:24:14Z</time>
      </trkpt>
      <trkpt lat="47.738" lon="3.5966">
        <ele>155</ele>
        <time>2019-04-02T08:24:16Z</time>
      </trkpt>
      <trkpt lat="47.73801" lon="3.59666">
        <ele>156</ele>
        <time>2019-04-02T08:24:19Z</time>
      </trkpt>
      <trkpt lat="47.73803" lon="3.59674">
        <ele>156</ele>
        <time>2019-04-02T08:24:24Z</time>
      </trkpt>
      <trkpt lat="47.73804" lon="3.59678">
        <ele>157</ele>
        <time>2019-04-02T08:24:27Z</time>
      </trkpt>
      <trkpt lat="47.73806" lon="3.59686">
        <ele>156</ele>
        <time>2019-04-02T08:24:31Z</time>
      </trkpt>
      <trkpt lat="47.73806" lon="3.59689">
        <ele>157</ele>
        <time>2019-04-02T08:24:33Z</time>
      </trkpt>
      <trkpt lat="47.73807" lon="3.59695">
        <ele>157</ele>
        <time>2019-04-02T08:24:37Z</time>
      </trkpt>
      <trkpt lat="47.73806" lon="3.59703">
        <ele>158</ele>
        <time>2019-04-02T08:24:42Z</time>
      </trkpt>
      <trkpt lat="47.73804" lon="3.59711">
        <ele>159</ele>
        <time>2019-04-02T08:24:47Z</time>
      </trkpt>
      <trkpt lat="47.73802" lon="3.59716">
        <ele>159</ele>
        <time>2019-04-02T08:24:51Z</time>
      </trkpt>
      <trkpt lat="47.738" lon="3.59721">
        <ele>160</ele>
        <time>2019-04-02T08:24:54Z</time>
      </trkpt>
      <trkpt lat="47.73798" lon="3.59726">
        <ele>160</ele>
        <time>2019-04-02T08:24:58Z</time>
      </trkpt>
      <trkpt lat="47.73796" lon="3.59729">
        <ele>160</ele>
        <time>2019-04-02T08:25:00Z</time>
      </trkpt>
      <trkpt lat="47.73793" lon="3.59736">
        <ele>161</ele>
        <time>2019-04-02T08:25:05Z</time>
      </trkpt>
      <trkpt lat="47.73789" lon="3.59742">
        <ele>161</ele>
        <time>2019-04-02T08:25:09Z</time>
      </trkpt>
      <trkpt lat="47.73787" lon="3.59747">
        <ele>161</ele>
        <time>2019-04-02T08:25:12Z</time>
      </trkpt>
      <trkpt lat="47.73784" lon="3.59754">
        <ele>161</ele>
        <time>2019-04-02T08:25:15Z</time>
      </trkpt>
      <trkpt lat="47.73782" lon="3.59761">
        <ele>161</ele>
        <time>2019-04-02T08:25:18Z</time>
      </trkpt>
      <trkpt lat="47.73778" lon="3.59765">
        <ele>161</ele>
        <time>2019-04-02T08:25:23Z</time>
      </trkpt>
      <trkpt lat="47.73775" lon="3.59773">
        <ele>159</ele>
        <time>2019-04-02T08:25:27Z</time>
      </trkpt>
      <trkpt lat="47.73773" lon="3.5978">
        <ele>159</ele>
        <time>2019-04-02T08:25:31Z</time>
      </trkpt>
      <trkpt lat="47.7377" lon="3.59786">
        <ele>158</ele>
        <time>2019-04-02T08:25:35Z</time>
      </trkpt>
      <trkpt lat="47.73767" lon="3.59792">
        <ele>157</ele>
        <time>2019-04-02T08:25:38Z</time>
      </trkpt>
      <trkpt lat="47.73766" lon="3.59798">
        <ele>156</ele>
        <time>2019-04-02T08:25:42Z</time>
      </trkpt>
      <trkpt lat="47.73765" lon="3.59807">
        <ele>154</ele>
        <time>2019-04-02T08:25:47Z</time>
      </trkpt>
      <trkpt lat="47.73761" lon="3.59812">
        <ele>153</ele>
        <time>2019-04-02T08:25:52Z</time>
      </trkpt>
      <trkpt lat="47.73756" lon="3.59816">
        <ele>151</ele>
        <time>2019-04-02T08:25:56Z</time>
      </trkpt>
      <trkpt lat="47.73753" lon="3.59821">
        <ele>153</ele>
        <time>2019-04-02T08:26:01Z</time>
      </trkpt>
      <trkpt lat="47.7375" lon="3.59828">
        <ele>153</ele>
        <time>2019-04-02T08:26:05Z</time>
      </trkpt>
      <trkpt lat="47.73748" lon="3.59837">
        <ele>154</ele>
        <time>2019-04-02T08:26:10Z</time>
      </trkpt>
      <trkpt lat="47.73746" lon="3.59843">
        <ele>154</ele>
        <time>2019-04-02T08:26:13Z</time>
      </trkpt>
      <trkpt lat="47.73745" lon="3.59846">
        <ele>155</ele>
        <time>2019-04-02T08:26:15Z</time>
      </trkpt>
      <trkpt lat="47.73741" lon="3.59851">
        <ele>155</ele>
        <time>2019-04-02T08:26:19Z</time>
      </trkpt>
      <trkpt lat="47.73737" lon="3.59856">
        <ele>155</ele>
        <time>2019-04-02T08:26:24Z</time>
      </trkpt>
      <trkpt lat="47.73733" lon="3.59863">
        <ele>156</ele>
        <time>2019-04-02T08:26:28Z</time>
      </trkpt>
      <trkpt lat="47.73729" lon="3.59867">
        <ele>157</ele>
        <time>2019-04-02T08:26:31Z</time>
      </trkpt>
      <trkpt lat="47.73722" lon="3.59866">
        <ele>155</ele>
        <time>2019-04-02T08:26:33Z</time>
      </trkpt>
      <trkpt lat="47.73717" lon="3.59864">
        <ele>154</ele>
        <time>2019-04-02T08:26:36Z</time>
      </trkpt>
      <trkpt lat="47.73717" lon="3.59856">
        <ele>154</ele>
        <time>2019-04-02T08:26:42Z</time>
      </trkpt>
      <trkpt lat="47.73729" lon="3.59851">
        <ele>163</ele>
        <time>2019-04-02T08:44:57Z</time>
      </trkpt>
      <trkpt lat="47.73733" lon="3.59846">
        <ele>164</ele>
        <time>2019-04-02T08:45:02Z</time>
      </trkpt>
      <trkpt lat="47.73737" lon="3.59843">
        <ele>164</ele>
        <time>2019-04-02T08:45:05Z</time>
      </trkpt>
      <trkpt lat="47.73739" lon="3.59841">
        <ele>164</ele>
        <time>2019-04-02T08:45:07Z</time>
      </trkpt>
      <trkpt lat="47.73743" lon="3.59839">
        <ele>163</ele>
        <time>2019-04-02T08:45:11Z</time>
      </trkpt>
      <trkpt lat="47.73747" lon="3.59833">
        <ele>163</ele>
        <time>2019-04-02T08:45:16Z</time>
      </trkpt>
      <trkpt lat="47.73753" lon="3.59841">
        <ele>157</ele>
        <time>2019-04-02T08:45:21Z</time>
      </trkpt>
      <trkpt lat="47.73758" lon="3.59841">
        <ele>153</ele>
        <time>2019-04-02T08:45:26Z</time>
      </trkpt>
      <trkpt lat="47.73761" lon="3.59841">
        <ele>152</ele>
        <time>2019-04-02T08:45:31Z</time>
      </trkpt>
      <trkpt lat="47.73764" lon="3.59848">
        <ele>153</ele>
        <time>2019-04-02T08:45:37Z</time>
      </trkpt>
      <trkpt lat="47.73767" lon="3.59852">
        <ele>152</ele>
        <time>2019-04-02T08:45:42Z</time>
      </trkpt>
      <trkpt lat="47.7377" lon="3.59858">
        <ele>153</ele>
        <time>2019-04-02T08:45:48Z</time>
      </trkpt>
      <trkpt lat="47.73773" lon="3.59863">
        <ele>154</ele>
        <time>2019-04-02T08:45:51Z</time>
      </trkpt>
      <trkpt lat="47.73777" lon="3.5987">
        <ele>155</ele>
        <time>2019-04-02T08:45:56Z</time>
      </trkpt>
      <trkpt lat="47.73779" lon="3.59876">
        <ele>155</ele>
        <time>2019-04-02T08:46:00Z</time>
      </trkpt>
      <trkpt lat="47.73781" lon="3.59883">
        <ele>155</ele>
        <time>2019-04-02T08:46:03Z</time>
      </trkpt>
      <trkpt lat="47.73784" lon="3.5989">
        <ele>155</ele>
        <time>2019-04-02T08:46:07Z</time>
      </trkpt>
      <trkpt lat="47.73787" lon="3.59897">
        <ele>155</ele>
        <time>2019-04-02T08:46:11Z</time>
      </trkpt>
      <trkpt lat="47.73787" lon="3.59901">
        <ele>154</ele>
        <time>2019-04-02T08:46:14Z</time>
      </trkpt>
      <trkpt lat="47.73788" lon="3.59904">
        <ele>153</ele>
        <time>2019-04-02T08:46:16Z</time>
      </trkpt>
      <trkpt lat="47.73792" lon="3.59909">
        <ele>153</ele>
        <time>2019-04-02T08:46:20Z</time>
      </trkpt>
      <trkpt lat="47.73794" lon="3.59916">
        <ele>152</ele>
        <time>2019-04-02T08:46:25Z</time>
      </trkpt>
      <trkpt lat="47.73795" lon="3.5992">
        <ele>153</ele>
        <time>2019-04-02T08:46:28Z</time>
      </trkpt>
      <trkpt lat="47.73797" lon="3.59925">
        <ele>153</ele>
        <time>2019-04-02T08:46:32Z</time>
      </trkpt>
      <trkpt lat="47.73799" lon="3.59928">
        <ele>154</ele>
        <time>2019-04-02T08:46:34Z</time>
      </trkpt>
      <trkpt lat="47.73799" lon="3.59935">
        <ele>153</ele>
        <time>2019-04-02T08:46:40Z</time>
      </trkpt>
      <trkpt lat="47.738" lon="3.59944">
        <ele>153</ele>
        <time>2019-04-02T08:46:44Z</time>
      </trkpt>
      <trkpt lat="47.738" lon="3.5995">
        <ele>152</ele>
        <time>2019-04-02T08:46:49Z</time>
      </trkpt>
      <trkpt lat="47.73802" lon="3.59958">
        <ele>154</ele>
        <time>2019-04-02T08:46:53Z</time>
      </trkpt>
      <trkpt lat="47.73804" lon="3.59966">
        <ele>155</ele>
        <time>2019-04-02T08:46:57Z</time>
      </trkpt>
      <trkpt lat="47.73805" lon="3.59974">
        <ele>156</ele>
        <time>2019-04-02T08:47:02Z</time>
      </trkpt>
      <trkpt lat="47.73805" lon="3.59981">
        <ele>157</ele>
        <time>2019-04-02T08:47:06Z</time>
      </trkpt>
      <trkpt lat="47.73806" lon="3.59988">
        <ele>155</ele>
        <time>2019-04-02T08:47:10Z</time>
      </trkpt>
      <trkpt lat="47.73807" lon="3.59993">
        <ele>155</ele>
        <time>2019-04-02T08:47:13Z</time>
      </trkpt>
      <trkpt lat="47.73808" lon="3.59997">
        <ele>155</ele>
        <time>2019-04-02T08:47:15Z</time>
      </trkpt>
      <trkpt lat="47.73809" lon="3.6">
        <ele>155</ele>
        <time>2019-04-02T08:47:17Z</time>
      </trkpt>
      <trkpt lat="47.7381" lon="3.60008">
        <ele>155</ele>
        <time>2019-04-02T08:47:21Z</time>
      </trkpt>
      <trkpt lat="47.73811" lon="3.60013">
        <ele>156</ele>
        <time>2019-04-02T08:47:23Z</time>
      </trkpt>
      <trkpt lat="47.73811" lon="3.60017">
        <ele>156</ele>
        <time>2019-04-02T08:47:26Z</time>
      </trkpt>
      <trkpt lat="47.73812" lon="3.60025">
        <ele>156</ele>
        <time>2019-04-02T08:47:31Z</time>
      </trkpt>
      <trkpt lat="47.73814" lon="3.60034">
        <ele>157</ele>
        <time>2019-04-02T08:47:36Z</time>
      </trkpt>
      <trkpt lat="47.73814" lon="3.60037">
        <ele>157</ele>
        <time>2019-04-02T08:47:38Z</time>
      </trkpt>
      <trkpt lat="47.73815" lon="3.6004">
        <ele>157</ele>
        <time>2019-04-02T08:47:40Z</time>
      </trkpt>
      <trkpt lat="47.73816" lon="3.60044">
        <ele>157</ele>
        <time>2019-04-02T08:47:42Z</time>
      </trkpt>
      <trkpt lat="47.73817" lon="3.60048">
        <ele>157</ele>
        <time>2019-04-02T08:47:44Z</time>
      </trkpt>
      <trkpt lat="47.7382" lon="3.60054">
        <ele>158</ele>
        <time>2019-04-02T08:47:49Z</time>
      </trkpt>
      <trkpt lat="47.73822" lon="3.60057">
        <ele>158</ele>
        <time>2019-04-02T08:47:51Z</time>
      </trkpt>
      <trkpt lat="47.73824" lon="3.60065">
        <ele>158</ele>
        <time>2019-04-02T08:47:55Z</time>
      </trkpt>
      <trkpt lat="47.73826" lon="3.60071">
        <ele>158</ele>
        <time>2019-04-02T08:47:59Z</time>
      </trkpt>
      <trkpt lat="47.73829" lon="3.60079">
        <ele>159</ele>
        <time>2019-04-02T08:48:02Z</time>
      </trkpt>
      <trkpt lat="47.73831" lon="3.60086">
        <ele>158</ele>
        <time>2019-04-02T08:48:05Z</time>
      </trkpt>
      <trkpt lat="47.73834" lon="3.60092">
        <ele>157</ele>
        <time>2019-04-02T08:48:09Z</time>
      </trkpt>
      <trkpt lat="47.73835" lon="3.60099">
        <ele>157</ele>
        <time>2019-04-02T08:48:13Z</time>
      </trkpt>
      <trkpt lat="47.73838" lon="3.60104">
        <ele>157</ele>
        <time>2019-04-02T08:48:17Z</time>
      </trkpt>
      <trkpt lat="47.7384" lon="3.60112">
        <ele>155</ele>
        <time>2019-04-02T08:48:22Z</time>
      </trkpt>
      <trkpt lat="47.73841" lon="3.60119">
        <ele>156</ele>
        <time>2019-04-02T08:48:26Z</time>
      </trkpt>
      <trkpt lat="47.73843" lon="3.60126">
        <ele>155</ele>
        <time>2019-04-02T08:48:30Z</time>
      </trkpt>
      <trkpt lat="47.73845" lon="3.6013">
        <ele>155</ele>
        <time>2019-04-02T08:48:32Z</time>
      </trkpt>
      <trkpt lat="47.73846" lon="3.60137">
        <ele>154</ele>
        <time>2019-04-02T08:48:35Z</time>
      </trkpt>
      <trkpt lat="47.73849" lon="3.60146">
        <ele>154</ele>
        <time>2019-04-02T08:48:40Z</time>
      </trkpt>
      <trkpt lat="47.73851" lon="3.60151">
        <ele>154</ele>
        <time>2019-04-02T08:48:42Z</time>
      </trkpt>
      <trkpt lat="47.73854" lon="3.60159">
        <ele>153</ele>
        <time>2019-04-02T08:48:46Z</time>
      </trkpt>
      <trkpt lat="47.73856" lon="3.60167">
        <ele>153</ele>
        <time>2019-04-02T08:48:51Z</time>
      </trkpt>
      <trkpt lat="47.73857" lon="3.6017">
        <ele>153</ele>
        <time>2019-04-02T08:48:54Z</time>
      </trkpt>
      <trkpt lat="47.73858" lon="3.60174">
        <ele>153</ele>
        <time>2019-04-02T08:48:55Z</time>
      </trkpt>
      <trkpt lat="47.73859" lon="3.60177">
        <ele>153</ele>
        <time>2019-04-02T08:48:57Z</time>
      </trkpt>
      <trkpt lat="47.73861" lon="3.60185">
        <ele>154</ele>
        <time>2019-04-02T08:49:02Z</time>
      </trkpt>
      <trkpt lat="47.73863" lon="3.60188">
        <ele>153</ele>
        <time>2019-04-02T08:49:04Z</time>
      </trkpt>
      <trkpt lat="47.73864" lon="3.60193">
        <ele>154</ele>
        <time>2019-04-02T08:49:06Z</time>
      </trkpt>
      <trkpt lat="47.73867" lon="3.60199">
        <ele>154</ele>
        <time>2019-04-02T08:49:10Z</time>
      </trkpt>
      <trkpt lat="47.73869" lon="3.60209">
        <ele>153</ele>
        <time>2019-04-02T08:49:16Z</time>
      </trkpt>
      <trkpt lat="47.7387" lon="3.60212">
        <ele>152</ele>
        <time>2019-04-02T08:49:18Z</time>
      </trkpt>
      <trkpt lat="47.73873" lon="3.60219">
        <ele>152</ele>
        <time>2019-04-02T08:49:21Z</time>
      </trkpt>
      <trkpt lat="47.73875" lon="3.60224">
        <ele>151</ele>
        <time>2019-04-02T08:49:24Z</time>
      </trkpt>
      <trkpt lat="47.73875" lon="3.60231">
        <ele>154</ele>
        <time>2019-04-02T08:49:28Z</time>
      </trkpt>
      <trkpt lat="47.73878" lon="3.60239">
        <ele>154</ele>
        <time>2019-04-02T08:49:33Z</time>
      </trkpt>
      <trkpt lat="47.7388" lon="3.60247">
        <ele>152</ele>
        <time>2019-04-02T08:49:37Z</time>
      </trkpt>
      <trkpt lat="47.73884" lon="3.60253">
        <ele>153</ele>
        <time>2019-04-02T08:49:44Z</time>
      </trkpt>
      <trkpt lat="47.73886" lon="3.60258">
        <ele>153</ele>
        <time>2019-04-02T08:49:47Z</time>
      </trkpt>
      <trkpt lat="47.73888" lon="3.60261">
        <ele>155</ele>
        <time>2019-04-02T08:49:50Z</time>
      </trkpt>
      <trkpt lat="47.7389" lon="3.60266">
        <ele>156</ele>
        <time>2019-04-02T08:49:54Z</time>
      </trkpt>
      <trkpt lat="47.73891" lon="3.6027">
        <ele>158</ele>
        <time>2019-04-02T08:49:56Z</time>
      </trkpt>
      <trkpt lat="47.73893" lon="3.60273">
        <ele>158</ele>
        <time>2019-04-02T08:49:58Z</time>
      </trkpt>
      <trkpt lat="47.73897" lon="3.6028">
        <ele>158</ele>
        <time>2019-04-02T08:50:03Z</time>
      </trkpt>
      <trkpt lat="47.73898" lon="3.60283">
        <ele>157</ele>
        <time>2019-04-02T08:50:05Z</time>
      </trkpt>
      <trkpt lat="47.739" lon="3.6029">
        <ele>157</ele>
        <time>2019-04-02T08:50:09Z</time>
      </trkpt>
      <trkpt lat="47.73904" lon="3.60298">
        <ele>157</ele>
        <time>2019-04-02T08:50:13Z</time>
      </trkpt>
      <trkpt lat="47.73905" lon="3.60303">
        <ele>158</ele>
        <time>2019-04-02T08:50:16Z</time>
      </trkpt>
      <trkpt lat="47.73908" lon="3.60308">
        <ele>158</ele>
        <time>2019-04-02T08:50:19Z</time>
      </trkpt>
      <trkpt lat="47.73911" lon="3.6031">
        <ele>159</ele>
        <time>2019-04-02T08:50:27Z</time>
      </trkpt>
      <trkpt lat="47.73914" lon="3.60316">
        <ele>160</ele>
        <time>2019-04-02T08:50:49Z</time>
      </trkpt>
      <trkpt lat="47.73915" lon="3.60319">
        <ele>160</ele>
        <time>2019-04-02T08:50:52Z</time>
      </trkpt>
      <trkpt lat="47.73918" lon="3.60324">
        <ele>160</ele>
        <time>2019-04-02T08:50:56Z</time>
      </trkpt>
      <trkpt lat="47.73922" lon="3.60327">
        <ele>159</ele>
        <time>2019-04-02T08:51:01Z</time>
      </trkpt>
      <trkpt lat="47.73925" lon="3.60329">
        <ele>159</ele>
        <time>2019-04-02T08:51:04Z</time>
      </trkpt>
      <trkpt lat="47.73927" lon="3.60331">
        <ele>159</ele>
        <time>2019-04-02T08:51:07Z</time>
      </trkpt>
      <trkpt lat="47.7393" lon="3.60338">
        <ele>157</ele>
        <time>2019-04-02T08:51:13Z</time>
      </trkpt>
      <trkpt lat="47.73932" lon="3.60341">
        <ele>158</ele>
        <time>2019-04-02T08:51:15Z</time>
      </trkpt>
      <trkpt lat="47.73933" lon="3.60348">
        <ele>157</ele>
        <time>2019-04-02T08:51:19Z</time>
      </trkpt>
      <trkpt lat="47.73933" lon="3.60354">
        <ele>157</ele>
        <time>2019-04-02T08:51:22Z</time>
      </trkpt>
      <trkpt lat="47.73934" lon="3.60358">
        <ele>157</ele>
        <time>2019-04-02T08:51:24Z</time>
      </trkpt>
      <trkpt lat="47.73936" lon="3.60364">
        <ele>157</ele>
        <time>2019-04-02T08:51:27Z</time>
      </trkpt>
      <trkpt lat="47.73937" lon="3.60368">
        <ele>157</ele>
        <time>2019-04-02T08:51:30Z</time>
      </trkpt>
      <trkpt lat="47.73939" lon="3.60375">
        <ele>157</ele>
        <time>2019-04-02T08:51:33Z</time>
      </trkpt>
      <trkpt lat="47.73941" lon="3.6038">
        <ele>155</ele>
        <time>2019-04-02T08:51:36Z</time>
      </trkpt>
      <trkpt lat="47.73942" lon="3.60387">
        <ele>157</ele>
        <time>2019-04-02T08:51:41Z</time>
      </trkpt>
      <trkpt lat="47.73944" lon="3.60394">
        <ele>157</ele>
        <time>2019-04-02T08:51:45Z</time>
      </trkpt>
      <trkpt lat="47.73946" lon="3.60401">
        <ele>155</ele>
        <time>2019-04-02T08:51:49Z</time>
      </trkpt>
      <trkpt lat="47.73949" lon="3.60407">
        <ele>154</ele>
        <time>2019-04-02T08:51:53Z</time>
      </trkpt>
      <trkpt lat="47.7395" lon="3.60415">
        <ele>154</ele>
        <time>2019-04-02T08:51:56Z</time>
      </trkpt>
      <trkpt lat="47.73951" lon="3.6042">
        <ele>155</ele>
        <time>2019-04-02T08:51:58Z</time>
      </trkpt>
      <trkpt lat="47.73952" lon="3.60423">
        <ele>155</ele>
        <time>2019-04-02T08:52:00Z</time>
      </trkpt>
      <trkpt lat="47.73954" lon="3.6043">
        <ele>155</ele>
        <time>2019-04-02T08:52:05Z</time>
      </trkpt>
      <trkpt lat="47.73955" lon="3.60438">
        <ele>155</ele>
        <time>2019-04-02T08:52:09Z</time>
      </trkpt>
      <trkpt lat="47.73955" lon="3.60442">
        <ele>154</ele>
        <time>2019-04-02T08:52:11Z</time>
      </trkpt>
      <trkpt lat="47.73956" lon="3.60445">
        <ele>154</ele>
        <time>2019-04-02T08:52:13Z</time>
      </trkpt>
      <trkpt lat="47.73958" lon="3.60452">
        <ele>154</ele>
        <time>2019-04-02T08:52:16Z</time>
      </trkpt>
      <trkpt lat="47.73961" lon="3.60458">
        <ele>154</ele>
        <time>2019-04-02T08:52:20Z</time>
      </trkpt>
      <trkpt lat="47.73963" lon="3.60467">
        <ele>154</ele>
        <time>2019-04-02T08:52:24Z</time>
      </trkpt>
      <trkpt lat="47.73964" lon="3.60472">
        <ele>154</ele>
        <time>2019-04-02T08:52:27Z</time>
      </trkpt>
      <trkpt lat="47.73959" lon="3.60477">
        <ele>154</ele>
        <time>2019-04-02T08:52:32Z</time>
      </trkpt>
      <trkpt lat="47.73954" lon="3.60478">
        <ele>155</ele>
        <time>2019-04-02T08:52:37Z</time>
      </trkpt>
      <trkpt lat="47.73949" lon="3.60481">
        <ele>156</ele>
        <time>2019-04-02T08:52:42Z</time>
      </trkpt>
      <trkpt lat="47.73947" lon="3.60482">
        <ele>156</ele>
        <time>2019-04-02T08:52:44Z</time>
      </trkpt>
      <trkpt lat="47.73943" lon="3.60485">
        <ele>156</ele>
        <time>2019-04-02T08:52:46Z</time>
      </trkpt>
      <trkpt lat="47.73941" lon="3.60487">
        <ele>155</ele>
        <time>2019-04-02T08:52:48Z</time>
      </trkpt>
      <trkpt lat="47.73934" lon="3.6049">
        <ele>156</ele>
        <time>2019-04-02T08:52:53Z</time>
      </trkpt>
      <trkpt lat="47.73931" lon="3.60492">
        <ele>156</ele>
        <time>2019-04-02T08:52:56Z</time>
      </trkpt>
      <trkpt lat="47.73928" lon="3.60494">
        <ele>156</ele>
        <time>2019-04-02T08:52:58Z</time>
      </trkpt>
      <trkpt lat="47.73925" lon="3.60495">
        <ele>155</ele>
        <time>2019-04-02T08:53:00Z</time>
      </trkpt>
      <trkpt lat="47.73921" lon="3.60497">
        <ele>155</ele>
        <time>2019-04-02T08:53:03Z</time>
      </trkpt>
      <trkpt lat="47.73916" lon="3.605">
        <ele>155</ele>
        <time>2019-04-02T08:53:07Z</time>
      </trkpt>
      <trkpt lat="47.73913" lon="3.60502">
        <ele>155</ele>
        <time>2019-04-02T08:53:09Z</time>
      </trkpt>
      <trkpt lat="47.73908" lon="3.60504">
        <ele>155</ele>
        <time>2019-04-02T08:53:13Z</time>
      </trkpt>
      <trkpt lat="47.73904" lon="3.60505">
        <ele>154</ele>
        <time>2019-04-02T08:53:16Z</time>
      </trkpt>
      <trkpt lat="47.73902" lon="3.60506">
        <ele>155</ele>
        <time>2019-04-02T08:53:18Z</time>
      </trkpt>
      <trkpt lat="47.739" lon="3.60507">
        <ele>155</ele>
        <time>2019-04-02T08:53:20Z</time>
      </trkpt>
      <trkpt lat="47.73894" lon="3.60508">
        <ele>155</ele>
        <time>2019-04-02T08:53:25Z</time>
      </trkpt>
      <trkpt lat="47.73887" lon="3.60512">
        <ele>156</ele>
        <time>2019-04-02T08:53:32Z</time>
      </trkpt>
      <trkpt lat="47.73884" lon="3.60513">
        <ele>156</ele>
        <time>2019-04-02T08:53:34Z</time>
      </trkpt>
      <trkpt lat="47.73879" lon="3.60516">
        <ele>156</ele>
        <time>2019-04-02T08:53:38Z</time>
      </trkpt>
      <trkpt lat="47.73877" lon="3.60518">
        <ele>156</ele>
        <time>2019-04-02T08:53:40Z</time>
      </trkpt>
      <trkpt lat="47.7387" lon="3.60521">
        <ele>155</ele>
        <time>2019-04-02T08:53:45Z</time>
      </trkpt>
      <trkpt lat="47.73865" lon="3.60524">
        <ele>155</ele>
        <time>2019-04-02T08:53:50Z</time>
      </trkpt>
      <trkpt lat="47.7386" lon="3.60525">
        <ele>153</ele>
        <time>2019-04-02T08:53:54Z</time>
      </trkpt>
      <trkpt lat="47.73855" lon="3.60528">
        <ele>153</ele>
        <time>2019-04-02T08:53:58Z</time>
      </trkpt>
      <trkpt lat="47.73852" lon="3.60529">
        <ele>153</ele>
        <time>2019-04-02T08:54:00Z</time>
      </trkpt>
      <trkpt lat="47.73849" lon="3.6053">
        <ele>154</ele>
        <time>2019-04-02T08:54:02Z</time>
      </trkpt>
      <trkpt lat="47.73846" lon="3.60533">
        <ele>154</ele>
        <time>2019-04-02T08:54:05Z</time>
      </trkpt>
      <trkpt lat="47.73843" lon="3.60539">
        <ele>156</ele>
        <time>2019-04-02T08:54:09Z</time>
      </trkpt>
      <trkpt lat="47.73844" lon="3.60547">
        <ele>155</ele>
        <time>2019-04-02T08:54:13Z</time>
      </trkpt>
      <trkpt lat="47.73844" lon="3.60551">
        <ele>154</ele>
        <time>2019-04-02T08:54:15Z</time>
      </trkpt>
      <trkpt lat="47.73845" lon="3.60555">
        <ele>155</ele>
        <time>2019-04-02T08:54:17Z</time>
      </trkpt>
      <trkpt lat="47.73845" lon="3.60558">
        <ele>154</ele>
        <time>2019-04-02T08:54:19Z</time>
      </trkpt>
      <trkpt lat="47.73848" lon="3.60565">
        <ele>154</ele>
        <time>2019-04-02T08:54:23Z</time>
      </trkpt>
      <trkpt lat="47.7385" lon="3.60568">
        <ele>154</ele>
        <time>2019-04-02T08:54:25Z</time>
      </trkpt>
      <trkpt lat="47.73848" lon="3.60572">
        <ele>154</ele>
        <time>2019-04-02T08:54:33Z</time>
      </trkpt>
      <trkpt lat="47.73843" lon="3.60578">
        <ele>156</ele>
        <time>2019-04-02T08:55:05Z</time>
      </trkpt>
      <trkpt lat="47.73841" lon="3.60585">
        <ele>156</ele>
        <time>2019-04-02T08:55:10Z</time>
      </trkpt>
      <trkpt lat="47.73839" lon="3.60589">
        <ele>155</ele>
        <time>2019-04-02T08:55:13Z</time>
      </trkpt>
      <trkpt lat="47.73835" lon="3.60593">
        <ele>155</ele>
        <time>2019-04-02T08:55:20Z</time>
      </trkpt>
      <trkpt lat="47.7383" lon="3.60595">
        <ele>156</ele>
        <time>2019-04-02T08:55:26Z</time>
      </trkpt>
      <trkpt lat="47.73826" lon="3.60599">
        <ele>156</ele>
        <time>2019-04-02T08:55:31Z</time>
      </trkpt>
      <trkpt lat="47.73821" lon="3.60602">
        <ele>155</ele>
        <time>2019-04-02T08:55:35Z</time>
      </trkpt>
      <trkpt lat="47.73816" lon="3.60603">
        <ele>156</ele>
        <time>2019-04-02T08:55:37Z</time>
      </trkpt>
      <trkpt lat="47.73813" lon="3.60604">
        <ele>156</ele>
        <time>2019-04-02T08:55:40Z</time>
      </trkpt>
      <trkpt lat="47.73811" lon="3.60604">
        <ele>156</ele>
        <time>2019-04-02T08:55:42Z</time>
      </trkpt>
      <trkpt lat="47.73808" lon="3.60605">
        <ele>157</ele>
        <time>2019-04-02T08:55:44Z</time>
      </trkpt>
      <trkpt lat="47.73805" lon="3.60605">
        <ele>157</ele>
        <time>2019-04-02T08:55:46Z</time>
      </trkpt>
      <trkpt lat="47.73803" lon="3.60605">
        <ele>157</ele>
        <time>2019-04-02T08:55:48Z</time>
      </trkpt>
      <trkpt lat="47.73798" lon="3.60605">
        <ele>158</ele>
        <time>2019-04-02T08:55:51Z</time>
      </trkpt>
      <trkpt lat="47.73794" lon="3.60605">
        <ele>158</ele>
        <time>2019-04-02T08:55:54Z</time>
      </trkpt>
      <trkpt lat="47.7379" lon="3.60605">
        <ele>158</ele>
        <time>2019-04-02T08:55:56Z</time>
      </trkpt>
      <trkpt lat="47.73786" lon="3.60604">
        <ele>158</ele>
        <time>2019-04-02T08:55:59Z</time>
      </trkpt>
      <trkpt lat="47.73781" lon="3.60605">
        <ele>158</ele>
        <time>2019-04-02T08:56:03Z</time>
      </trkpt>
      <trkpt lat="47.73776" lon="3.60605">
        <ele>159</ele>
        <time>2019-04-02T08:56:07Z</time>
      </trkpt>
      <trkpt lat="47.73771" lon="3.60604">
        <ele>158</ele>
        <time>2019-04-02T08:56:11Z</time>
      </trkpt>
      <trkpt lat="47.73768" lon="3.60603">
        <ele>159</ele>
        <time>2019-04-02T08:56:13Z</time>
      </trkpt>
      <trkpt lat="47.73763" lon="3.60604">
        <ele>159</ele>
        <time>2019-04-02T08:56:17Z</time>
      </trkpt>
      <trkpt lat="47.7376" lon="3.60604">
        <ele>160</ele>
        <time>2019-04-02T08:56:19Z</time>
      </trkpt>
      <trkpt lat="47.73755" lon="3.60604">
        <ele>159</ele>
        <time>2019-04-02T08:56:23Z</time>
      </trkpt>
      <trkpt lat="47.7375" lon="3.60603">
        <ele>159</ele>
        <time>2019-04-02T08:56:27Z</time>
      </trkpt>
      <trkpt lat="47.73746" lon="3.60603">
        <ele>160</ele>
        <time>2019-04-02T08:56:30Z</time>
      </trkpt>
      <trkpt lat="47.7374" lon="3.60602">
        <ele>160</ele>
        <time>2019-04-02T08:56:35Z</time>
      </trkpt>
      <trkpt lat="47.73733" lon="3.60604">
        <ele>160</ele>
        <time>2019-04-02T08:56:40Z</time>
      </trkpt>
      <trkpt lat="47.7373" lon="3.60609">
        <ele>159</ele>
        <time>2019-04-02T08:56:43Z</time>
      </trkpt>
      <trkpt lat="47.73729" lon="3.60619">
        <ele>159</ele>
        <time>2019-04-02T08:56:47Z</time>
      </trkpt>
      <trkpt lat="47.73728" lon="3.60622">
        <ele>159</ele>
        <time>2019-04-02T08:56:49Z</time>
      </trkpt>
      <trkpt lat="47.73728" lon="3.60626">
        <ele>159</ele>
        <time>2019-04-02T08:56:51Z</time>
      </trkpt>
      <trkpt lat="47.73728" lon="3.60634">
        <ele>159</ele>
        <time>2019-04-02T08:56:55Z</time>
      </trkpt>
      <trkpt lat="47.73728" lon="3.60641">
        <ele>159</ele>
        <time>2019-04-02T08:56:59Z</time>
      </trkpt>
      <trkpt lat="47.73729" lon="3.60645">
        <ele>159</ele>
        <time>2019-04-02T08:57:01Z</time>
      </trkpt>
      <trkpt lat="47.73729" lon="3.60652">
        <ele>160</ele>
        <time>2019-04-02T08:57:05Z</time>
      </trkpt>
      <trkpt lat="47.73732" lon="3.60663">
        <ele>160</ele>
        <time>2019-04-02T08:57:12Z</time>
      </trkpt>
      <trkpt lat="47.73733" lon="3.6067">
        <ele>161</ele>
        <time>2019-04-02T08:57:16Z</time>
      </trkpt>
      <trkpt lat="47.73734" lon="3.60679">
        <ele>162</ele>
        <time>2019-04-02T08:57:20Z</time>
      </trkpt>
      <trkpt lat="47.73734" lon="3.60686">
        <ele>161</ele>
        <time>2019-04-02T08:57:23Z</time>
      </trkpt>
      <trkpt lat="47.73737" lon="3.60698">
        <ele>161</ele>
        <time>2019-04-02T08:57:29Z</time>
      </trkpt>
      <trkpt lat="47.73738" lon="3.60704">
        <ele>161</ele>
        <time>2019-04-02T08:57:32Z</time>
      </trkpt>
      <trkpt lat="47.73739" lon="3.60713">
        <ele>162</ele>
        <time>2019-04-02T08:57:36Z</time>
      </trkpt>
      <trkpt lat="47.7374" lon="3.60718">
        <ele>161</ele>
        <time>2019-04-02T08:57:38Z</time>
      </trkpt>
      <trkpt lat="47.7374" lon="3.60722">
        <ele>162</ele>
        <time>2019-04-02T08:57:40Z</time>
      </trkpt>
      <trkpt lat="47.73741" lon="3.60726">
        <ele>161</ele>
        <time>2019-04-02T08:57:42Z</time>
      </trkpt>
      <trkpt lat="47.73742" lon="3.60733">
        <ele>161</ele>
        <time>2019-04-02T08:57:45Z</time>
      </trkpt>
      <trkpt lat="47.73743" lon="3.60737">
        <ele>161</ele>
        <time>2019-04-02T08:57:47Z</time>
      </trkpt>
      <trkpt lat="47.73743" lon="3.60741">
        <ele>162</ele>
        <time>2019-04-02T08:57:49Z</time>
      </trkpt>
      <trkpt lat="47.73745" lon="3.60748">
        <ele>162</ele>
        <time>2019-04-02T08:57:53Z</time>
      </trkpt>
      <trkpt lat="47.73745" lon="3.60754">
        <ele>162</ele>
        <time>2019-04-02T08:57:58Z</time>
      </trkpt>
      <trkpt lat="47.73744" lon="3.60763">
        <ele>160</ele>
        <time>2019-04-02T08:58:03Z</time>
      </trkpt>
      <trkpt lat="47.73744" lon="3.60767">
        <ele>161</ele>
        <time>2019-04-02T08:58:05Z</time>
      </trkpt>
      <trkpt lat="47.73744" lon="3.60774">
        <ele>161</ele>
        <time>2019-04-02T08:58:08Z</time>
      </trkpt>
      <trkpt lat="47.73744" lon="3.60779">
        <ele>163</ele>
        <time>2019-04-02T08:58:11Z</time>
      </trkpt>
      <trkpt lat="47.73744" lon="3.60784">
        <ele>163</ele>
        <time>2019-04-02T08:58:13Z</time>
      </trkpt>
      <trkpt lat="47.73744" lon="3.60788">
        <ele>163</ele>
        <time>2019-04-02T08:58:15Z</time>
      </trkpt>
      <trkpt lat="47.73745" lon="3.60792">
        <ele>164</ele>
        <time>2019-04-02T08:58:17Z</time>
      </trkpt>
      <trkpt lat="47.73745" lon="3.60795">
        <ele>164</ele>
        <time>2019-04-02T08:58:19Z</time>
      </trkpt>
      <trkpt lat="47.73745" lon="3.60803">
        <ele>164</ele>
        <time>2019-04-02T08:58:24Z</time>
      </trkpt>
      <trkpt lat="47.73745" lon="3.60812">
        <ele>165</ele>
        <time>2019-04-02T08:58:28Z</time>
      </trkpt>
      <trkpt lat="47.73745" lon="3.60816">
        <ele>164</ele>
        <time>2019-04-02T08:58:30Z</time>
      </trkpt>
      <trkpt lat="47.73746" lon="3.60824">
        <ele>165</ele>
        <time>2019-04-02T08:58:34Z</time>
      </trkpt>
      <trkpt lat="47.73746" lon="3.60832">
        <ele>164</ele>
        <time>2019-04-02T08:58:38Z</time>
      </trkpt>
      <trkpt lat="47.73746" lon="3.60835">
        <ele>164</ele>
        <time>2019-04-02T08:58:40Z</time>
      </trkpt>
      <trkpt lat="47.73746" lon="3.60843">
        <ele>164</ele>
        <time>2019-04-02T08:58:44Z</time>
      </trkpt>
      <trkpt lat="47.73745" lon="3.6085">
        <ele>164</ele>
        <time>2019-04-02T08:58:48Z</time>
      </trkpt>
      <trkpt lat="47.73745" lon="3.60855">
        <ele>165</ele>
        <time>2019-04-02T08:58:51Z</time>
      </trkpt>
      <trkpt lat="47.73745" lon="3.60862">
        <ele>166</ele>
        <time>2019-04-02T08:58:55Z</time>
      </trkpt>
      <trkpt lat="47.73745" lon="3.60869">
        <ele>167</ele>
        <time>2019-04-02T08:58:59Z</time>
      </trkpt>
      <trkpt lat="47.73745" lon="3.60875">
        <ele>169</ele>
        <time>2019-04-02T08:59:04Z</time>
      </trkpt>
      <trkpt lat="47.73745" lon="3.60882">
        <ele>170</ele>
        <time>2019-04-02T08:59:08Z</time>
      </trkpt>
      <trkpt lat="47.73745" lon="3.60889">
        <ele>169</ele>
        <time>2019-04-02T08:59:12Z</time>
      </trkpt>
      <trkpt lat="47.73745" lon="3.60897">
        <ele>168</ele>
        <time>2019-04-02T08:59:16Z</time>
      </trkpt>
      <trkpt lat="47.73745" lon="3.60902">
        <ele>167</ele>
        <time>2019-04-02T08:59:18Z</time>
      </trkpt>
      <trkpt lat="47.73744" lon="3.60908">
        <ele>168</ele>
        <time>2019-04-02T08:59:21Z</time>
      </trkpt>
      <trkpt lat="47.73744" lon="3.60914">
        <ele>170</ele>
        <time>2019-04-02T08:59:24Z</time>
      </trkpt>
      <trkpt lat="47.73744" lon="3.60922">
        <ele>169</ele>
        <time>2019-04-02T08:59:28Z</time>
      </trkpt>
      <trkpt lat="47.73743" lon="3.60928">
        <ele>170</ele>
        <time>2019-04-02T08:59:31Z</time>
      </trkpt>
      <trkpt lat="47.73743" lon="3.60933">
        <ele>170</ele>
        <time>2019-04-02T08:59:34Z</time>
      </trkpt>
      <trkpt lat="47.73742" lon="3.6094">
        <ele>171</ele>
        <time>2019-04-02T08:59:38Z</time>
      </trkpt>
      <trkpt lat="47.73741" lon="3.60943">
        <ele>171</ele>
        <time>2019-04-02T08:59:40Z</time>
      </trkpt>
      <trkpt lat="47.73741" lon="3.60948">
        <ele>171</ele>
        <time>2019-04-02T08:59:43Z</time>
      </trkpt>
      <trkpt lat="47.7374" lon="3.60954">
        <ele>172</ele>
        <time>2019-04-02T08:59:47Z</time>
      </trkpt>
      <trkpt lat="47.73739" lon="3.60961">
        <ele>173</ele>
        <time>2019-04-02T08:59:51Z</time>
      </trkpt>
      <trkpt lat="47.7374" lon="3.60968">
        <ele>174</ele>
        <time>2019-04-02T08:59:55Z</time>
      </trkpt>
      <trkpt lat="47.7374" lon="3.60976">
        <ele>175</ele>
        <time>2019-04-02T08:59:59Z</time>
      </trkpt>
      <trkpt lat="47.7374" lon="3.60981">
        <ele>176</ele>
        <time>2019-04-02T09:00:02Z</time>
      </trkpt>
      <trkpt lat="47.7374" lon="3.60984">
        <ele>176</ele>
        <time>2019-04-02T09:00:04Z</time>
      </trkpt>
      <trkpt lat="47.7374" lon="3.60989">
        <ele>176</ele>
        <time>2019-04-02T09:00:06Z</time>
      </trkpt>
      <trkpt lat="47.7374" lon="3.60993">
        <ele>176</ele>
        <time>2019-04-02T09:00:08Z</time>
      </trkpt>
      <trkpt lat="47.73739" lon="3.60996">
        <ele>177</ele>
        <time>2019-04-02T09:00:10Z</time>
      </trkpt>
      <trkpt lat="47.7374" lon="3.61003">
        <ele>177</ele>
        <time>2019-04-02T09:00:13Z</time>
      </trkpt>
      <trkpt lat="47.73739" lon="3.61007">
        <ele>178</ele>
        <time>2019-04-02T09:00:15Z</time>
      </trkpt>
      <trkpt lat="47.7374" lon="3.61011">
        <ele>178</ele>
        <time>2019-04-02T09:00:17Z</time>
      </trkpt>
      <trkpt lat="47.7374" lon="3.61015">
        <ele>178</ele>
        <time>2019-04-02T09:00:19Z</time>
      </trkpt>
      <trkpt lat="47.73738" lon="3.61022">
        <ele>179</ele>
        <time>2019-04-02T09:00:23Z</time>
      </trkpt>
      <trkpt lat="47.73738" lon="3.61029">
        <ele>179</ele>
        <time>2019-04-02T09:00:27Z</time>
      </trkpt>
      <trkpt lat="47.73737" lon="3.61033">
        <ele>179</ele>
        <time>2019-04-02T09:00:29Z</time>
      </trkpt>
      <trkpt lat="47.73737" lon="3.6104">
        <ele>180</ele>
        <time>2019-04-02T09:00:33Z</time>
      </trkpt>
      <trkpt lat="47.73736" lon="3.61048">
        <ele>181</ele>
        <time>2019-04-02T09:00:37Z</time>
      </trkpt>
      <trkpt lat="47.73736" lon="3.61053">
        <ele>181</ele>
        <time>2019-04-02T09:00:39Z</time>
      </trkpt>
      <trkpt lat="47.73736" lon="3.61059">
        <ele>182</ele>
        <time>2019-04-02T09:00:43Z</time>
      </trkpt>
      <trkpt lat="47.73735" lon="3.61067">
        <ele>183</ele>
        <time>2019-04-02T09:00:47Z</time>
      </trkpt>
      <trkpt lat="47.73734" lon="3.61072">
        <ele>182</ele>
        <time>2019-04-02T09:00:50Z</time>
      </trkpt>
      <trkpt lat="47.73734" lon="3.6108">
        <ele>184</ele>
        <time>2019-04-02T09:00:56Z</time>
      </trkpt>
      <trkpt lat="47.73733" lon="3.61086">
        <ele>184</ele>
        <time>2019-04-02T09:01:00Z</time>
      </trkpt>
      <trkpt lat="47.73733" lon="3.61091">
        <ele>184</ele>
        <time>2019-04-02T09:01:03Z</time>
      </trkpt>
      <trkpt lat="47.73732" lon="3.61099">
        <ele>184</ele>
        <time>2019-04-02T09:01:07Z</time>
      </trkpt>
      <trkpt lat="47.73732" lon="3.61102">
        <ele>184</ele>
        <time>2019-04-02T09:01:09Z</time>
      </trkpt>
      <trkpt lat="47.73732" lon="3.61106">
        <ele>184</ele>
        <time>2019-04-02T09:01:11Z</time>
      </trkpt>
      <trkpt lat="47.73731" lon="3.6111">
        <ele>184</ele>
        <time>2019-04-02T09:01:14Z</time>
      </trkpt>
      <trkpt lat="47.73727" lon="3.61115">
        <ele>184</ele>
        <time>2019-04-02T09:01:19Z</time>
      </trkpt>
      <trkpt lat="47.73723" lon="3.61118">
        <ele>185</ele>
        <time>2019-04-02T09:01:24Z</time>
      </trkpt>
      <trkpt lat="47.73718" lon="3.61119">
        <ele>186</ele>
        <time>2019-04-02T09:01:28Z</time>
      </trkpt>
      <trkpt lat="47.73715" lon="3.61119">
        <ele>186</ele>
        <time>2019-04-02T09:01:30Z</time>
      </trkpt>
      <trkpt lat="47.7371" lon="3.61117">
        <ele>186</ele>
        <time>2019-04-02T09:01:34Z</time>
      </trkpt>
      <trkpt lat="47.73706" lon="3.61116">
        <ele>186</ele>
        <time>2019-04-02T09:01:38Z</time>
      </trkpt>
      <trkpt lat="47.73701" lon="3.61117">
        <ele>187</ele>
        <time>2019-04-02T09:01:41Z</time>
      </trkpt>
      <trkpt lat="47.73699" lon="3.61118">
        <ele>188</ele>
        <time>2019-04-02T09:01:43Z</time>
      </trkpt>
      <trkpt lat="47.73694" lon="3.61121">
        <ele>187</ele>
        <time>2019-04-02T09:01:47Z</time>
      </trkpt>
      <trkpt lat="47.73689" lon="3.61126">
        <ele>187</ele>
        <time>2019-04-02T09:01:51Z</time>
      </trkpt>
      <trkpt lat="47.73686" lon="3.61132">
        <ele>187</ele>
        <time>2019-04-02T09:01:55Z</time>
      </trkpt>
      <trkpt lat="47.73684" lon="3.61141">
        <ele>187</ele>
        <time>2019-04-02T09:01:59Z</time>
      </trkpt>
      <trkpt lat="47.73684" lon="3.61147">
        <ele>187</ele>
        <time>2019-04-02T09:02:03Z</time>
      </trkpt>
      <trkpt lat="47.73683" lon="3.61155">
        <ele>188</ele>
        <time>2019-04-02T09:02:07Z</time>
      </trkpt>
      <trkpt lat="47.73683" lon="3.61159">
        <ele>188</ele>
        <time>2019-04-02T09:02:09Z</time>
      </trkpt>
      <trkpt lat="47.73682" lon="3.61163">
        <ele>189</ele>
        <time>2019-04-02T09:02:11Z</time>
      </trkpt>
      <trkpt lat="47.73682" lon="3.61168">
        <ele>190</ele>
        <time>2019-04-02T09:02:15Z</time>
      </trkpt>
      <trkpt lat="47.73681" lon="3.61172">
        <ele>190</ele>
        <time>2019-04-02T09:02:18Z</time>
      </trkpt>
      <trkpt lat="47.73681" lon="3.61175">
        <ele>191</ele>
        <time>2019-04-02T09:02:20Z</time>
      </trkpt>
      <trkpt lat="47.7368" lon="3.61183">
        <ele>191</ele>
        <time>2019-04-02T09:02:25Z</time>
      </trkpt>
      <trkpt lat="47.7368" lon="3.6119">
        <ele>191</ele>
        <time>2019-04-02T09:02:29Z</time>
      </trkpt>
      <trkpt lat="47.73678" lon="3.61197">
        <ele>192</ele>
        <time>2019-04-02T09:02:33Z</time>
      </trkpt>
      <trkpt lat="47.73678" lon="3.61202">
        <ele>193</ele>
        <time>2019-04-02T09:02:36Z</time>
      </trkpt>
      <trkpt lat="47.73677" lon="3.61206">
        <ele>192</ele>
        <time>2019-04-02T09:02:38Z</time>
      </trkpt>
      <trkpt lat="47.73677" lon="3.61211">
        <ele>193</ele>
        <time>2019-04-02T09:02:41Z</time>
      </trkpt>
      <trkpt lat="47.73676" lon="3.61216">
        <ele>194</ele>
        <time>2019-04-02T09:02:43Z</time>
      </trkpt>
      <trkpt lat="47.73676" lon="3.6122">
        <ele>194</ele>
        <time>2019-04-02T09:02:47Z</time>
      </trkpt>
      <trkpt lat="47.73676" lon="3.61228">
        <ele>195</ele>
        <time>2019-04-02T09:02:52Z</time>
      </trkpt>
      <trkpt lat="47.73676" lon="3.61233">
        <ele>194</ele>
        <time>2019-04-02T09:02:55Z</time>
      </trkpt>
      <trkpt lat="47.73676" lon="3.61241">
        <ele>195</ele>
        <time>2019-04-02T09:02:59Z</time>
      </trkpt>
      <trkpt lat="47.73674" lon="3.61248">
        <ele>196</ele>
        <time>2019-04-02T09:03:05Z</time>
      </trkpt>
      <trkpt lat="47.73674" lon="3.61255">
        <ele>197</ele>
        <time>2019-04-02T09:03:09Z</time>
      </trkpt>
      <trkpt lat="47.73674" lon="3.61262">
        <ele>198</ele>
        <time>2019-04-02T09:03:13Z</time>
      </trkpt>
      <trkpt lat="47.73673" lon="3.6127">
        <ele>199</ele>
        <time>2019-04-02T09:03:18Z</time>
      </trkpt>
      <trkpt lat="47.73672" lon="3.61276">
        <ele>200</ele>
        <time>2019-04-02T09:03:22Z</time>
      </trkpt>
      <trkpt lat="47.73671" lon="3.6128">
        <ele>201</ele>
        <time>2019-04-02T09:03:25Z</time>
      </trkpt>
      <trkpt lat="47.73671" lon="3.61288">
        <ele>202</ele>
        <time>2019-04-02T09:03:30Z</time>
      </trkpt>
      <trkpt lat="47.7367" lon="3.61293">
        <ele>202</ele>
        <time>2019-04-02T09:03:33Z</time>
      </trkpt>
      <trkpt lat="47.73669" lon="3.613">
        <ele>203</ele>
        <time>2019-04-02T09:03:37Z</time>
      </trkpt>
      <trkpt lat="47.73668" lon="3.61308">
        <ele>203</ele>
        <time>2019-04-02T09:03:42Z</time>
      </trkpt>
      <trkpt lat="47.73668" lon="3.61312">
        <ele>204</ele>
        <time>2019-04-02T09:03:44Z</time>
      </trkpt>
      <trkpt lat="47.73667" lon="3.61316">
        <ele>205</ele>
        <time>2019-04-02T09:03:47Z</time>
      </trkpt>
      <trkpt lat="47.73665" lon="3.61323">
        <ele>206</ele>
        <time>2019-04-02T09:03:52Z</time>
      </trkpt>
      <trkpt lat="47.73665" lon="3.6133">
        <ele>207</ele>
        <time>2019-04-02T09:03:57Z</time>
      </trkpt>
      <trkpt lat="47.73665" lon="3.61334">
        <ele>208</ele>
        <time>2019-04-02T09:03:59Z</time>
      </trkpt>
      <trkpt lat="47.73664" lon="3.61342">
        <ele>208</ele>
        <time>2019-04-02T09:04:04Z</time>
      </trkpt>
      <trkpt lat="47.73663" lon="3.6135">
        <ele>208</ele>
        <time>2019-04-02T09:04:09Z</time>
      </trkpt>
      <trkpt lat="47.73661" lon="3.61358">
        <ele>211</ele>
        <time>2019-04-02T09:04:16Z</time>
      </trkpt>
      <trkpt lat="47.7366" lon="3.61366">
        <ele>212</ele>
        <time>2019-04-02T09:04:21Z</time>
      </trkpt>
      <trkpt lat="47.73659" lon="3.61373">
        <ele>214</ele>
        <time>2019-04-02T09:04:25Z</time>
      </trkpt>
      <trkpt lat="47.73659" lon="3.61376">
        <ele>214</ele>
        <time>2019-04-02T09:04:27Z</time>
      </trkpt>
      <trkpt lat="47.73658" lon="3.6138">
        <ele>215</ele>
        <time>2019-04-02T09:04:29Z</time>
      </trkpt>
      <trkpt lat="47.73657" lon="3.61387">
        <ele>216</ele>
        <time>2019-04-02T09:04:33Z</time>
      </trkpt>
      <trkpt lat="47.73656" lon="3.61391">
        <ele>217</ele>
        <time>2019-04-02T09:04:35Z</time>
      </trkpt>
      <trkpt lat="47.73656" lon="3.61398">
        <ele>218</ele>
        <time>2019-04-02T09:04:38Z</time>
      </trkpt>
      <trkpt lat="47.73654" lon="3.61406">
        <ele>219</ele>
        <time>2019-04-02T09:04:42Z</time>
      </trkpt>
      <trkpt lat="47.73654" lon="3.61413">
        <ele>221</ele>
        <time>2019-04-02T09:04:48Z</time>
      </trkpt>
      <trkpt lat="47.73654" lon="3.61418">
        <ele>222</ele>
        <time>2019-04-02T09:04:51Z</time>
      </trkpt>
      <trkpt lat="47.73653" lon="3.61425">
        <ele>222</ele>
        <time>2019-04-02T09:04:55Z</time>
      </trkpt>
      <trkpt lat="47.73652" lon="3.6143">
        <ele>221</ele>
        <time>2019-04-02T09:05:05Z</time>
      </trkpt>
      <trkpt lat="47.73647" lon="3.61427">
        <ele>225</ele>
        <time>2019-04-02T09:10:32Z</time>
      </trkpt>
      <trkpt lat="47.73642" lon="3.61426">
        <ele>224</ele>
        <time>2019-04-02T09:10:37Z</time>
      </trkpt>
      <trkpt lat="47.73636" lon="3.61427">
        <ele>225</ele>
        <time>2019-04-02T09:10:41Z</time>
      </trkpt>
      <trkpt lat="47.73631" lon="3.61427">
        <ele>226</ele>
        <time>2019-04-02T09:10:45Z</time>
      </trkpt>
      <trkpt lat="47.73626" lon="3.61427">
        <ele>226</ele>
        <time>2019-04-02T09:10:49Z</time>
      </trkpt>
      <trkpt lat="47.73621" lon="3.61426">
        <ele>226</ele>
        <time>2019-04-02T09:10:53Z</time>
      </trkpt>
      <trkpt lat="47.73618" lon="3.61426">
        <ele>226</ele>
        <time>2019-04-02T09:10:55Z</time>
      </trkpt>
      <trkpt lat="47.73614" lon="3.61426">
        <ele>227</ele>
        <time>2019-04-02T09:10:59Z</time>
      </trkpt>
      <trkpt lat="47.7361" lon="3.61425">
        <ele>227</ele>
        <time>2019-04-02T09:11:02Z</time>
      </trkpt>
      <trkpt lat="47.73605" lon="3.61427">
        <ele>227</ele>
        <time>2019-04-02T09:11:06Z</time>
      </trkpt>
      <trkpt lat="47.73601" lon="3.61431">
        <ele>227</ele>
        <time>2019-04-02T09:11:10Z</time>
      </trkpt>
      <trkpt lat="47.73597" lon="3.61438">
        <ele>228</ele>
        <time>2019-04-02T09:11:15Z</time>
      </trkpt>
      <trkpt lat="47.73595" lon="3.61443">
        <ele>228</ele>
        <time>2019-04-02T09:11:18Z</time>
      </trkpt>
      <trkpt lat="47.73593" lon="3.61451">
        <ele>229</ele>
        <time>2019-04-02T09:11:22Z</time>
      </trkpt>
      <trkpt lat="47.73593" lon="3.61455">
        <ele>229</ele>
        <time>2019-04-02T09:11:24Z</time>
      </trkpt>
      <trkpt lat="47.73592" lon="3.6146">
        <ele>229</ele>
        <time>2019-04-02T09:11:27Z</time>
      </trkpt>
      <trkpt lat="47.7359" lon="3.61467">
        <ele>228</ele>
        <time>2019-04-02T09:11:31Z</time>
      </trkpt>
      <trkpt lat="47.73589" lon="3.61472">
        <ele>228</ele>
        <time>2019-04-02T09:11:34Z</time>
      </trkpt>
      <trkpt lat="47.73587" lon="3.6148">
        <ele>229</ele>
        <time>2019-04-02T09:11:39Z</time>
      </trkpt>
      <trkpt lat="47.73586" lon="3.61485">
        <ele>229</ele>
        <time>2019-04-02T09:11:42Z</time>
      </trkpt>
      <trkpt lat="47.73586" lon="3.61493">
        <ele>229</ele>
        <time>2019-04-02T09:11:46Z</time>
      </trkpt>
      <trkpt lat="47.73585" lon="3.61496">
        <ele>230</ele>
        <time>2019-04-02T09:11:48Z</time>
      </trkpt>
      <trkpt lat="47.73585" lon="3.615">
        <ele>230</ele>
        <time>2019-04-02T09:11:50Z</time>
      </trkpt>
      <trkpt lat="47.73584" lon="3.61504">
        <ele>231</ele>
        <time>2019-04-02T09:11:52Z</time>
      </trkpt>
      <trkpt lat="47.73583" lon="3.6151">
        <ele>230</ele>
        <time>2019-04-02T09:11:55Z</time>
      </trkpt>
      <trkpt lat="47.73582" lon="3.61514">
        <ele>230</ele>
        <time>2019-04-02T09:11:57Z</time>
      </trkpt>
      <trkpt lat="47.73581" lon="3.61518">
        <ele>231</ele>
        <time>2019-04-02T09:12:00Z</time>
      </trkpt>
      <trkpt lat="47.7358" lon="3.61522">
        <ele>231</ele>
        <time>2019-04-02T09:12:02Z</time>
      </trkpt>
      <trkpt lat="47.73579" lon="3.61527">
        <ele>231</ele>
        <time>2019-04-02T09:12:05Z</time>
      </trkpt>
      <trkpt lat="47.73578" lon="3.61533">
        <ele>232</ele>
        <time>2019-04-02T09:12:08Z</time>
      </trkpt>
      <trkpt lat="47.73577" lon="3.61538">
        <ele>232</ele>
        <time>2019-04-02T09:12:11Z</time>
      </trkpt>
      <trkpt lat="47.73576" lon="3.61544">
        <ele>232</ele>
        <time>2019-04-02T09:12:14Z</time>
      </trkpt>
      <trkpt lat="47.73576" lon="3.61548">
        <ele>232</ele>
        <time>2019-04-02T09:12:16Z</time>
      </trkpt>
      <trkpt lat="47.73575" lon="3.61553">
        <ele>233</ele>
        <time>2019-04-02T09:12:18Z</time>
      </trkpt>
      <trkpt lat="47.73574" lon="3.61557">
        <ele>232</ele>
        <time>2019-04-02T09:12:20Z</time>
      </trkpt>
      <trkpt lat="47.73573" lon="3.6156">
        <ele>233</ele>
        <time>2019-04-02T09:12:22Z</time>
      </trkpt>
      <trkpt lat="47.73573" lon="3.61564">
        <ele>233</ele>
        <time>2019-04-02T09:12:24Z</time>
      </trkpt>
      <trkpt lat="47.73572" lon="3.61568">
        <ele>233</ele>
        <time>2019-04-02T09:12:26Z</time>
      </trkpt>
      <trkpt lat="47.73571" lon="3.61571">
        <ele>233</ele>
        <time>2019-04-02T09:12:28Z</time>
      </trkpt>
      <trkpt lat="47.7357" lon="3.61577">
        <ele>232</ele>
        <time>2019-04-02T09:12:31Z</time>
      </trkpt>
      <trkpt lat="47.7357" lon="3.61581">
        <ele>233</ele>
        <time>2019-04-02T09:12:33Z</time>
      </trkpt>
      <trkpt lat="47.7357" lon="3.61584">
        <ele>233</ele>
        <time>2019-04-02T09:12:35Z</time>
      </trkpt>
      <trkpt lat="47.73569" lon="3.61589">
        <ele>233</ele>
        <time>2019-04-02T09:12:38Z</time>
      </trkpt>
      <trkpt lat="47.7357" lon="3.61598">
        <ele>233</ele>
        <time>2019-04-02T09:12:42Z</time>
      </trkpt>
      <trkpt lat="47.73573" lon="3.61604">
        <ele>233</ele>
        <time>2019-04-02T09:12:45Z</time>
      </trkpt>
      <trkpt lat="47.73578" lon="3.61611">
        <ele>233</ele>
        <time>2019-04-02T09:12:50Z</time>
      </trkpt>
      <trkpt lat="47.73584" lon="3.61615">
        <ele>233</ele>
        <time>2019-04-02T09:12:55Z</time>
      </trkpt>
      <trkpt lat="47.73589" lon="3.61617">
        <ele>232</ele>
        <time>2019-04-02T09:12:59Z</time>
      </trkpt>
      <trkpt lat="47.73592" lon="3.61622">
        <ele>233</ele>
        <time>2019-04-02T09:13:03Z</time>
      </trkpt>
      <trkpt lat="47.73593" lon="3.61629">
        <ele>233</ele>
        <time>2019-04-02T09:13:09Z</time>
      </trkpt>
      <trkpt lat="47.73592" lon="3.61638">
        <ele>233</ele>
        <time>2019-04-02T09:13:14Z</time>
      </trkpt>
      <trkpt lat="47.73591" lon="3.61643">
        <ele>233</ele>
        <time>2019-04-02T09:13:17Z</time>
      </trkpt>
      <trkpt lat="47.7359" lon="3.61651">
        <ele>234</ele>
        <time>2019-04-02T09:13:21Z</time>
      </trkpt>
      <trkpt lat="47.73587" lon="3.61658">
        <ele>234</ele>
        <time>2019-04-02T09:13:26Z</time>
      </trkpt>
      <trkpt lat="47.73586" lon="3.61661">
        <ele>234</ele>
        <time>2019-04-02T09:13:28Z</time>
      </trkpt>
      <trkpt lat="47.73585" lon="3.61665">
        <ele>235</ele>
        <time>2019-04-02T09:13:31Z</time>
      </trkpt>
      <trkpt lat="47.73584" lon="3.61668">
        <ele>235</ele>
        <time>2019-04-02T09:13:33Z</time>
      </trkpt>
      <trkpt lat="47.73582" lon="3.61673">
        <ele>235</ele>
        <time>2019-04-02T09:13:36Z</time>
      </trkpt>
      <trkpt lat="47.7358" lon="3.61676">
        <ele>235</ele>
        <time>2019-04-02T09:13:38Z</time>
      </trkpt>
      <trkpt lat="47.73579" lon="3.61682">
        <ele>235</ele>
        <time>2019-04-02T09:13:41Z</time>
      </trkpt>
      <trkpt lat="47.73576" lon="3.61689">
        <ele>235</ele>
        <time>2019-04-02T09:13:45Z</time>
      </trkpt>
      <trkpt lat="47.73574" lon="3.61696">
        <ele>235</ele>
        <time>2019-04-02T09:13:49Z</time>
      </trkpt>
      <trkpt lat="47.73572" lon="3.61703">
        <ele>234</ele>
        <time>2019-04-02T09:13:53Z</time>
      </trkpt>
      <trkpt lat="47.73569" lon="3.6171">
        <ele>234</ele>
        <time>2019-04-02T09:13:58Z</time>
      </trkpt>
      <trkpt lat="47.73567" lon="3.61715">
        <ele>235</ele>
        <time>2019-04-02T09:14:01Z</time>
      </trkpt>
      <trkpt lat="47.73565" lon="3.61721">
        <ele>234</ele>
        <time>2019-04-02T09:14:04Z</time>
      </trkpt>
      <trkpt lat="47.73561" lon="3.61726">
        <ele>235</ele>
        <time>2019-04-02T09:14:08Z</time>
      </trkpt>
      <trkpt lat="47.73559" lon="3.61732">
        <ele>236</ele>
        <time>2019-04-02T09:14:12Z</time>
      </trkpt>
      <trkpt lat="47.73558" lon="3.61735">
        <ele>235</ele>
        <time>2019-04-02T09:14:14Z</time>
      </trkpt>
      <trkpt lat="47.73554" lon="3.61741">
        <ele>235</ele>
        <time>2019-04-02T09:14:19Z</time>
      </trkpt>
      <trkpt lat="47.73553" lon="3.61743">
        <ele>235</ele>
        <time>2019-04-02T09:14:21Z</time>
      </trkpt>
      <trkpt lat="47.73551" lon="3.61746">
        <ele>234</ele>
        <time>2019-04-02T09:14:23Z</time>
      </trkpt>
      <trkpt lat="47.73549" lon="3.61749">
        <ele>234</ele>
        <time>2019-04-02T09:14:25Z</time>
      </trkpt>
      <trkpt lat="47.73547" lon="3.61755">
        <ele>234</ele>
        <time>2019-04-02T09:14:29Z</time>
      </trkpt>
      <trkpt lat="47.73545" lon="3.61761">
        <ele>234</ele>
        <time>2019-04-02T09:14:32Z</time>
      </trkpt>
      <trkpt lat="47.73541" lon="3.61766">
        <ele>235</ele>
        <time>2019-04-02T09:14:36Z</time>
      </trkpt>
      <trkpt lat="47.73539" lon="3.61772">
        <ele>235</ele>
        <time>2019-04-02T09:14:40Z</time>
      </trkpt>
      <trkpt lat="47.73535" lon="3.61779">
        <ele>235</ele>
        <time>2019-04-02T09:14:45Z</time>
      </trkpt>
      <trkpt lat="47.73532" lon="3.61786">
        <ele>234</ele>
        <time>2019-04-02T09:14:49Z</time>
      </trkpt>
      <trkpt lat="47.7353" lon="3.61793">
        <ele>235</ele>
        <time>2019-04-02T09:14:53Z</time>
      </trkpt>
      <trkpt lat="47.73526" lon="3.61798">
        <ele>235</ele>
        <time>2019-04-02T09:14:57Z</time>
      </trkpt>
      <trkpt lat="47.73524" lon="3.61801">
        <ele>234</ele>
        <time>2019-04-02T09:14:59Z</time>
      </trkpt>
      <trkpt lat="47.73521" lon="3.61805">
        <ele>234</ele>
        <time>2019-04-02T09:15:02Z</time>
      </trkpt>
      <trkpt lat="47.73521" lon="3.61812">
        <ele>235</ele>
        <time>2019-04-02T09:15:07Z</time>
      </trkpt>
      <trkpt lat="47.73519" lon="3.61819">
        <ele>233</ele>
        <time>2019-04-02T09:15:12Z</time>
      </trkpt>
      <trkpt lat="47.73517" lon="3.61824">
        <ele>232</ele>
        <time>2019-04-02T09:15:15Z</time>
      </trkpt>
      <trkpt lat="47.73515" lon="3.6183">
        <ele>231</ele>
        <time>2019-04-02T09:15:19Z</time>
      </trkpt>
      <trkpt lat="47.73513" lon="3.61837">
        <ele>232</ele>
        <time>2019-04-02T09:15:23Z</time>
      </trkpt>
      <trkpt lat="47.7351" lon="3.61844">
        <ele>232</ele>
        <time>2019-04-02T09:15:28Z</time>
      </trkpt>
      <trkpt lat="47.73508" lon="3.6185">
        <ele>231</ele>
        <time>2019-04-02T09:15:32Z</time>
      </trkpt>
      <trkpt lat="47.73506" lon="3.61857">
        <ele>231</ele>
        <time>2019-04-02T09:15:36Z</time>
      </trkpt>
      <trkpt lat="47.73505" lon="3.6186">
        <ele>232</ele>
        <time>2019-04-02T09:15:38Z</time>
      </trkpt>
      <trkpt lat="47.73504" lon="3.61864">
        <ele>231</ele>
        <time>2019-04-02T09:15:40Z</time>
      </trkpt>
      <trkpt lat="47.73503" lon="3.61867">
        <ele>231</ele>
        <time>2019-04-02T09:15:42Z</time>
      </trkpt>
      <trkpt lat="47.73502" lon="3.61873">
        <ele>230</ele>
        <time>2019-04-02T09:15:46Z</time>
      </trkpt>
      <trkpt lat="47.73499" lon="3.6188">
        <ele>230</ele>
        <time>2019-04-02T09:15:50Z</time>
      </trkpt>
      <trkpt lat="47.73497" lon="3.61886">
        <ele>230</ele>
        <time>2019-04-02T09:15:54Z</time>
      </trkpt>
      <trkpt lat="47.73496" lon="3.6189">
        <ele>230</ele>
        <time>2019-04-02T09:15:56Z</time>
      </trkpt>
      <trkpt lat="47.73495" lon="3.61894">
        <ele>231</ele>
        <time>2019-04-02T09:15:58Z</time>
      </trkpt>
      <trkpt lat="47.73493" lon="3.619">
        <ele>231</ele>
        <time>2019-04-02T09:16:01Z</time>
      </trkpt>
      <trkpt lat="47.73492" lon="3.61904">
        <ele>230</ele>
        <time>2019-04-02T09:16:04Z</time>
      </trkpt>
      <trkpt lat="47.7349" lon="3.61912">
        <ele>229</ele>
        <time>2019-04-02T09:16:08Z</time>
      </trkpt>
      <trkpt lat="47.73489" lon="3.61915">
        <ele>229</ele>
        <time>2019-04-02T09:16:10Z</time>
      </trkpt>
      <trkpt lat="47.73487" lon="3.61919">
        <ele>229</ele>
        <time>2019-04-02T09:16:13Z</time>
      </trkpt>
      <trkpt lat="47.73486" lon="3.61926">
        <ele>229</ele>
        <time>2019-04-02T09:16:17Z</time>
      </trkpt>
      <trkpt lat="47.73485" lon="3.61936">
        <ele>229</ele>
        <time>2019-04-02T09:16:22Z</time>
      </trkpt>
      <trkpt lat="47.73485" lon="3.61943">
        <ele>228</ele>
        <time>2019-04-02T09:16:26Z</time>
      </trkpt>
      <trkpt lat="47.73485" lon="3.61948">
        <ele>228</ele>
        <time>2019-04-02T09:16:28Z</time>
      </trkpt>
      <trkpt lat="47.73484" lon="3.61951">
        <ele>228</ele>
        <time>2019-04-02T09:16:30Z</time>
      </trkpt>
      <trkpt lat="47.73484" lon="3.61958">
        <ele>228</ele>
        <time>2019-04-02T09:16:33Z</time>
      </trkpt>
      <trkpt lat="47.73483" lon="3.61965">
        <ele>228</ele>
        <time>2019-04-02T09:16:36Z</time>
      </trkpt>
      <trkpt lat="47.73483" lon="3.61969">
        <ele>228</ele>
        <time>2019-04-02T09:16:38Z</time>
      </trkpt>
      <trkpt lat="47.73481" lon="3.61977">
        <ele>228</ele>
        <time>2019-04-02T09:16:43Z</time>
      </trkpt>
      <trkpt lat="47.7348" lon="3.61985">
        <ele>228</ele>
        <time>2019-04-02T09:16:47Z</time>
      </trkpt>
      <trkpt lat="47.7348" lon="3.61989">
        <ele>228</ele>
        <time>2019-04-02T09:16:49Z</time>
      </trkpt>
      <trkpt lat="47.7348" lon="3.61994">
        <ele>228</ele>
        <time>2019-04-02T09:16:51Z</time>
      </trkpt>
      <trkpt lat="47.7348" lon="3.61997">
        <ele>228</ele>
        <time>2019-04-02T09:16:53Z</time>
      </trkpt>
      <trkpt lat="47.7348" lon="3.62006">
        <ele>228</ele>
        <time>2019-04-02T09:16:57Z</time>
      </trkpt>
      <trkpt lat="47.73478" lon="3.62013">
        <ele>229</ele>
        <time>2019-04-02T09:17:01Z</time>
      </trkpt>
      <trkpt lat="47.73479" lon="3.62021">
        <ele>228</ele>
        <time>2019-04-02T09:17:05Z</time>
      </trkpt>
      <trkpt lat="47.73478" lon="3.6203">
        <ele>228</ele>
        <time>2019-04-02T09:17:09Z</time>
      </trkpt>
      <trkpt lat="47.73478" lon="3.62035">
        <ele>228</ele>
        <time>2019-04-02T09:17:12Z</time>
      </trkpt>
      <trkpt lat="47.73476" lon="3.62043">
        <ele>227</ele>
        <time>2019-04-02T09:17:16Z</time>
      </trkpt>
      <trkpt lat="47.73475" lon="3.62049">
        <ele>226</ele>
        <time>2019-04-02T09:17:19Z</time>
      </trkpt>
      <trkpt lat="47.73475" lon="3.62053">
        <ele>226</ele>
        <time>2019-04-02T09:17:21Z</time>
      </trkpt>
      <trkpt lat="47.73474" lon="3.6206">
        <ele>225</ele>
        <time>2019-04-02T09:17:25Z</time>
      </trkpt>
      <trkpt lat="47.73472" lon="3.62067">
        <ele>225</ele>
        <time>2019-04-02T09:17:29Z</time>
      </trkpt>
      <trkpt lat="47.73471" lon="3.62072">
        <ele>225</ele>
        <time>2019-04-02T09:17:31Z</time>
      </trkpt>
      <trkpt lat="47.7347" lon="3.62076">
        <ele>225</ele>
        <time>2019-04-02T09:17:34Z</time>
      </trkpt>
      <trkpt lat="47.73469" lon="3.62081">
        <ele>225</ele>
        <time>2019-04-02T09:17:37Z</time>
      </trkpt>
      <trkpt lat="47.73468" lon="3.62086">
        <ele>225</ele>
        <time>2019-04-02T09:17:40Z</time>
      </trkpt>
      <trkpt lat="47.73465" lon="3.62093">
        <ele>225</ele>
        <time>2019-04-02T09:17:44Z</time>
      </trkpt>
      <trkpt lat="47.73463" lon="3.621">
        <ele>225</ele>
        <time>2019-04-02T09:17:48Z</time>
      </trkpt>
      <trkpt lat="47.73461" lon="3.62106">
        <ele>225</ele>
        <time>2019-04-02T09:17:52Z</time>
      </trkpt>
      <trkpt lat="47.73458" lon="3.62113">
        <ele>225</ele>
        <time>2019-04-02T09:17:56Z</time>
      </trkpt>
      <trkpt lat="47.73456" lon="3.6212">
        <ele>226</ele>
        <time>2019-04-02T09:18:00Z</time>
      </trkpt>
      <trkpt lat="47.73455" lon="3.62124">
        <ele>226</ele>
        <time>2019-04-02T09:18:02Z</time>
      </trkpt>
      <trkpt lat="47.73454" lon="3.62129">
        <ele>227</ele>
        <time>2019-04-02T09:18:04Z</time>
      </trkpt>
      <trkpt lat="47.73453" lon="3.62137">
        <ele>227</ele>
        <time>2019-04-02T09:18:08Z</time>
      </trkpt>
      <trkpt lat="47.73455" lon="3.62144">
        <ele>227</ele>
        <time>2019-04-02T09:18:13Z</time>
      </trkpt>
      <trkpt lat="47.73456" lon="3.62149">
        <ele>228</ele>
        <time>2019-04-02T09:18:16Z</time>
      </trkpt>
      <trkpt lat="47.73456" lon="3.62156">
        <ele>228</ele>
        <time>2019-04-02T09:18:20Z</time>
      </trkpt>
      <trkpt lat="47.73455" lon="3.62163">
        <ele>228</ele>
        <time>2019-04-02T09:18:24Z</time>
      </trkpt>
      <trkpt lat="47.73453" lon="3.6217">
        <ele>229</ele>
        <time>2019-04-02T09:18:28Z</time>
      </trkpt>
      <trkpt lat="47.7345" lon="3.62176">
        <ele>230</ele>
        <time>2019-04-02T09:18:33Z</time>
      </trkpt>
      <trkpt lat="47.73446" lon="3.62181">
        <ele>230</ele>
        <time>2019-04-02T09:18:38Z</time>
      </trkpt>
      <trkpt lat="47.73442" lon="3.62187">
        <ele>231</ele>
        <time>2019-04-02T09:18:42Z</time>
      </trkpt>
      <trkpt lat="47.73438" lon="3.62192">
        <ele>231</ele>
        <time>2019-04-02T09:18:46Z</time>
      </trkpt>
      <trkpt lat="47.73435" lon="3.62197">
        <ele>231</ele>
        <time>2019-04-02T09:18:50Z</time>
      </trkpt>
      <trkpt lat="47.73434" lon="3.622">
        <ele>232</ele>
        <time>2019-04-02T09:18:52Z</time>
      </trkpt>
      <trkpt lat="47.73429" lon="3.62206">
        <ele>231</ele>
        <time>2019-04-02T09:18:57Z</time>
      </trkpt>
      <trkpt lat="47.73426" lon="3.62211">
        <ele>232</ele>
        <time>2019-04-02T09:19:01Z</time>
      </trkpt>
      <trkpt lat="47.73422" lon="3.62216">
        <ele>233</ele>
        <time>2019-04-02T09:19:05Z</time>
      </trkpt>
      <trkpt lat="47.73419" lon="3.6222">
        <ele>234</ele>
        <time>2019-04-02T09:19:09Z</time>
      </trkpt>
      <trkpt lat="47.73417" lon="3.62223">
        <ele>234</ele>
        <time>2019-04-02T09:19:11Z</time>
      </trkpt>
      <trkpt lat="47.73414" lon="3.62227">
        <ele>234</ele>
        <time>2019-04-02T09:19:14Z</time>
      </trkpt>
      <trkpt lat="47.73412" lon="3.62229">
        <ele>235</ele>
        <time>2019-04-02T09:19:16Z</time>
      </trkpt>
      <trkpt lat="47.73409" lon="3.62234">
        <ele>235</ele>
        <time>2019-04-02T09:19:20Z</time>
      </trkpt>
      <trkpt lat="47.73406" lon="3.62239">
        <ele>235</ele>
        <time>2019-04-02T09:19:24Z</time>
      </trkpt>
      <trkpt lat="47.73402" lon="3.62245">
        <ele>235</ele>
        <time>2019-04-02T09:19:29Z</time>
      </trkpt>
      <trkpt lat="47.73398" lon="3.62249">
        <ele>235</ele>
        <time>2019-04-02T09:19:33Z</time>
      </trkpt>
      <trkpt lat="47.73394" lon="3.62255">
        <ele>236</ele>
        <time>2019-04-02T09:19:37Z</time>
      </trkpt>
      <trkpt lat="47.7339" lon="3.62259">
        <ele>237</ele>
        <time>2019-04-02T09:19:42Z</time>
      </trkpt>
      <trkpt lat="47.73388" lon="3.62262">
        <ele>237</ele>
        <time>2019-04-02T09:19:45Z</time>
      </trkpt>
      <trkpt lat="47.73385" lon="3.62265">
        <ele>237</ele>
        <time>2019-04-02T09:19:48Z</time>
      </trkpt>
      <trkpt lat="47.73381" lon="3.62271">
        <ele>238</ele>
        <time>2019-04-02T09:19:53Z</time>
      </trkpt>
      <trkpt lat="47.73379" lon="3.62273">
        <ele>238</ele>
        <time>2019-04-02T09:19:55Z</time>
      </trkpt>
      <trkpt lat="47.73376" lon="3.62279">
        <ele>238</ele>
        <time>2019-04-02T09:19:59Z</time>
      </trkpt>
      <trkpt lat="47.73374" lon="3.62282">
        <ele>238</ele>
        <time>2019-04-02T09:20:01Z</time>
      </trkpt>
      <trkpt lat="47.7337" lon="3.62285">
        <ele>239</ele>
        <time>2019-04-02T09:20:05Z</time>
      </trkpt>
      <trkpt lat="47.73367" lon="3.62291">
        <ele>240</ele>
        <time>2019-04-02T09:20:09Z</time>
      </trkpt>
      <trkpt lat="47.73363" lon="3.62297">
        <ele>240</ele>
        <time>2019-04-02T09:20:14Z</time>
      </trkpt>
      <trkpt lat="47.73361" lon="3.62299">
        <ele>241</ele>
        <time>2019-04-02T09:20:16Z</time>
      </trkpt>
      <trkpt lat="47.73357" lon="3.62303">
        <ele>242</ele>
        <time>2019-04-02T09:20:21Z</time>
      </trkpt>
      <trkpt lat="47.73353" lon="3.62309">
        <ele>241</ele>
        <time>2019-04-02T09:20:26Z</time>
      </trkpt>
      <trkpt lat="47.73348" lon="3.62313">
        <ele>242</ele>
        <time>2019-04-02T09:20:31Z</time>
      </trkpt>
      <trkpt lat="47.73344" lon="3.62318">
        <ele>243</ele>
        <time>2019-04-02T09:20:36Z</time>
      </trkpt>
      <trkpt lat="47.73341" lon="3.62322">
        <ele>243</ele>
        <time>2019-04-02T09:20:40Z</time>
      </trkpt>
      <trkpt lat="47.73337" lon="3.62326">
        <ele>244</ele>
        <time>2019-04-02T09:20:44Z</time>
      </trkpt>
      <trkpt lat="47.73335" lon="3.6233">
        <ele>244</ele>
        <time>2019-04-02T09:20:48Z</time>
      </trkpt>
      <trkpt lat="47.73335" lon="3.6233">
        <ele>244</ele>
        <time>2019-04-02T09:20:56Z</time>
      </trkpt>
      <trkpt lat="47.73335" lon="3.6233">
        <ele>244</ele>
        <time>2019-04-02T09:20:58Z</time>
      </trkpt>
      <trkpt lat="47.73329" lon="3.62333">
        <ele>248</ele>
        <time>2019-04-02T09:21:39Z</time>
      </trkpt>
      <trkpt lat="47.73325" lon="3.62335">
        <ele>249</ele>
        <time>2019-04-02T09:21:42Z</time>
      </trkpt>
      <trkpt lat="47.7332" lon="3.62339">
        <ele>249</ele>
        <time>2019-04-02T09:21:46Z</time>
      </trkpt>
      <trkpt lat="47.73317" lon="3.62346">
        <ele>250</ele>
        <time>2019-04-02T09:21:51Z</time>
      </trkpt>
      <trkpt lat="47.73312" lon="3.62353">
        <ele>250</ele>
        <time>2019-04-02T09:21:56Z</time>
      </trkpt>
      <trkpt lat="47.73308" lon="3.62358">
        <ele>251</ele>
        <time>2019-04-02T09:22:00Z</time>
      </trkpt>
      <trkpt lat="47.73306" lon="3.62362">
        <ele>252</ele>
        <time>2019-04-02T09:22:03Z</time>
      </trkpt>
      <trkpt lat="47.73302" lon="3.62367">
        <ele>253</ele>
        <time>2019-04-02T09:22:08Z</time>
      </trkpt>
      <trkpt lat="47.73299" lon="3.62369">
        <ele>253</ele>
        <time>2019-04-02T09:22:11Z</time>
      </trkpt>
      <trkpt lat="47.73295" lon="3.62376">
        <ele>254</ele>
        <time>2019-04-02T09:22:15Z</time>
      </trkpt>
      <trkpt lat="47.73293" lon="3.62379">
        <ele>254</ele>
        <time>2019-04-02T09:22:18Z</time>
      </trkpt>
      <trkpt lat="47.73291" lon="3.62382">
        <ele>254</ele>
        <time>2019-04-02T09:22:20Z</time>
      </trkpt>
      <trkpt lat="47.73287" lon="3.62388">
        <ele>255</ele>
        <time>2019-04-02T09:22:25Z</time>
      </trkpt>
      <trkpt lat="47.73285" lon="3.62391">
        <ele>256</ele>
        <time>2019-04-02T09:22:27Z</time>
      </trkpt>
      <trkpt lat="47.73282" lon="3.62397">
        <ele>256</ele>
        <time>2019-04-02T09:22:31Z</time>
      </trkpt>
      <trkpt lat="47.73277" lon="3.62401">
        <ele>257</ele>
        <time>2019-04-02T09:22:36Z</time>
      </trkpt>
      <trkpt lat="47.73274" lon="3.62406">
        <ele>257</ele>
        <time>2019-04-02T09:22:40Z</time>
      </trkpt>
      <trkpt lat="47.73271" lon="3.62409">
        <ele>257</ele>
        <time>2019-04-02T09:22:43Z</time>
      </trkpt>
      <trkpt lat="47.73269" lon="3.62411">
        <ele>257</ele>
        <time>2019-04-02T09:22:45Z</time>
      </trkpt>
      <trkpt lat="47.73267" lon="3.62414">
        <ele>257</ele>
        <time>2019-04-02T09:22:47Z</time>
      </trkpt>
      <trkpt lat="47.73264" lon="3.62419">
        <ele>258</ele>
        <time>2019-04-02T09:22:51Z</time>
      </trkpt>
      <trkpt lat="47.73261" lon="3.62422">
        <ele>258</ele>
        <time>2019-04-02T09:22:53Z</time>
      </trkpt>
      <trkpt lat="47.7326" lon="3.62424">
        <ele>258</ele>
        <time>2019-04-02T09:22:55Z</time>
      </trkpt>
      <trkpt lat="47.73256" lon="3.6243">
        <ele>259</ele>
        <time>2019-04-02T09:23:00Z</time>
      </trkpt>
      <trkpt lat="47.73252" lon="3.62434">
        <ele>260</ele>
        <time>2019-04-02T09:23:04Z</time>
      </trkpt>
      <trkpt lat="47.73248" lon="3.6244">
        <ele>261</ele>
        <time>2019-04-02T09:23:09Z</time>
      </trkpt>
      <trkpt lat="47.73244" lon="3.62446">
        <ele>262</ele>
        <time>2019-04-02T09:23:14Z</time>
      </trkpt>
      <trkpt lat="47.73241" lon="3.62451">
        <ele>261</ele>
        <time>2019-04-02T09:23:18Z</time>
      </trkpt>
      <trkpt lat="47.73238" lon="3.62455">
        <ele>262</ele>
        <time>2019-04-02T09:23:21Z</time>
      </trkpt>
      <trkpt lat="47.73234" lon="3.62461">
        <ele>263</ele>
        <time>2019-04-02T09:23:25Z</time>
      </trkpt>
      <trkpt lat="47.73231" lon="3.62465">
        <ele>262</ele>
        <time>2019-04-02T09:23:30Z</time>
      </trkpt>
      <trkpt lat="47.73227" lon="3.6247">
        <ele>263</ele>
        <time>2019-04-02T09:23:34Z</time>
      </trkpt>
      <trkpt lat="47.73225" lon="3.62473">
        <ele>263</ele>
        <time>2019-04-02T09:23:36Z</time>
      </trkpt>
      <trkpt lat="47.73221" lon="3.62478">
        <ele>264</ele>
        <time>2019-04-02T09:23:40Z</time>
      </trkpt>
      <trkpt lat="47.73218" lon="3.62483">
        <ele>264</ele>
        <time>2019-04-02T09:23:44Z</time>
      </trkpt>
      <trkpt lat="47.73213" lon="3.62488">
        <ele>265</ele>
        <time>2019-04-02T09:23:49Z</time>
      </trkpt>
      <trkpt lat="47.73211" lon="3.62491">
        <ele>265</ele>
        <time>2019-04-02T09:23:52Z</time>
      </trkpt>
      <trkpt lat="47.73207" lon="3.62496">
        <ele>265</ele>
        <time>2019-04-02T09:23:56Z</time>
      </trkpt>
      <trkpt lat="47.73203" lon="3.62502">
        <ele>266</ele>
        <time>2019-04-02T09:24:01Z</time>
      </trkpt>
      <trkpt lat="47.73198" lon="3.62506">
        <ele>266</ele>
        <time>2019-04-02T09:24:06Z</time>
      </trkpt>
      <trkpt lat="47.73196" lon="3.62508">
        <ele>266</ele>
        <time>2019-04-02T09:24:08Z</time>
      </trkpt>
      <trkpt lat="47.73192" lon="3.62512">
        <ele>266</ele>
        <time>2019-04-02T09:24:12Z</time>
      </trkpt>
      <trkpt lat="47.73189" lon="3.62519">
        <ele>268</ele>
        <time>2019-04-02T09:24:16Z</time>
      </trkpt>
      <trkpt lat="47.73189" lon="3.62521">
        <ele>269</ele>
        <time>2019-04-02T09:24:24Z</time>
      </trkpt>
      <trkpt lat="47.73185" lon="3.62517">
        <ele>269</ele>
        <time>2019-04-02T09:24:45Z</time>
      </trkpt>
      <trkpt lat="47.7318" lon="3.62513">
        <ele>269</ele>
        <time>2019-04-02T09:24:50Z</time>
      </trkpt>
      <trkpt lat="47.73178" lon="3.62512">
        <ele>269</ele>
        <time>2019-04-02T09:24:52Z</time>
      </trkpt>
      <trkpt lat="47.73174" lon="3.62509">
        <ele>269</ele>
        <time>2019-04-02T09:24:55Z</time>
      </trkpt>
      <trkpt lat="47.73168" lon="3.62508">
        <ele>270</ele>
        <time>2019-04-02T09:24:59Z</time>
      </trkpt>
      <trkpt lat="47.73163" lon="3.62504">
        <ele>270</ele>
        <time>2019-04-02T09:25:03Z</time>
      </trkpt>
      <trkpt lat="47.7316" lon="3.62502">
        <ele>270</ele>
        <time>2019-04-02T09:25:06Z</time>
      </trkpt>
      <trkpt lat="47.73158" lon="3.625">
        <ele>270</ele>
        <time>2019-04-02T09:25:08Z</time>
      </trkpt>
      <trkpt lat="47.73155" lon="3.62496">
        <ele>271</ele>
        <time>2019-04-02T09:25:12Z</time>
      </trkpt>
      <trkpt lat="47.73154" lon="3.62497">
        <ele>271</ele>
        <time>2019-04-02T09:25:20Z</time>
      </trkpt>
      <trkpt lat="47.73149" lon="3.62493">
        <ele>271</ele>
        <time>2019-04-02T09:28:10Z</time>
      </trkpt>
      <trkpt lat="47.73144" lon="3.62488">
        <ele>270</ele>
        <time>2019-04-02T09:28:16Z</time>
      </trkpt>
      <trkpt lat="47.73141" lon="3.62486">
        <ele>270</ele>
        <time>2019-04-02T09:28:19Z</time>
      </trkpt>
      <trkpt lat="47.73136" lon="3.62483">
        <ele>270</ele>
        <time>2019-04-02T09:28:23Z</time>
      </trkpt>
      <trkpt lat="47.73132" lon="3.6248">
        <ele>270</ele>
        <time>2019-04-02T09:28:27Z</time>
      </trkpt>
      <trkpt lat="47.73126" lon="3.62476">
        <ele>269</ele>
        <time>2019-04-02T09:28:32Z</time>
      </trkpt>
      <trkpt lat="47.73121" lon="3.62473">
        <ele>269</ele>
        <time>2019-04-02T09:28:36Z</time>
      </trkpt>
      <trkpt lat="47.73116" lon="3.6247">
        <ele>270</ele>
        <time>2019-04-02T09:28:40Z</time>
      </trkpt>
      <trkpt lat="47.73114" lon="3.62468">
        <ele>270</ele>
        <time>2019-04-02T09:28:42Z</time>
      </trkpt>
      <trkpt lat="47.73111" lon="3.62467">
        <ele>269</ele>
        <time>2019-04-02T09:28:45Z</time>
      </trkpt>
      <trkpt lat="47.73105" lon="3.62466">
        <ele>270</ele>
        <time>2019-04-02T09:28:49Z</time>
      </trkpt>
      <trkpt lat="47.73103" lon="3.62465">
        <ele>270</ele>
        <time>2019-04-02T09:28:51Z</time>
      </trkpt>
      <trkpt lat="47.731" lon="3.62465">
        <ele>269</ele>
        <time>2019-04-02T09:28:53Z</time>
      </trkpt>
      <trkpt lat="47.73097" lon="3.62464">
        <ele>269</ele>
        <time>2019-04-02T09:28:55Z</time>
      </trkpt>
      <trkpt lat="47.73092" lon="3.62463">
        <ele>269</ele>
        <time>2019-04-02T09:28:59Z</time>
      </trkpt>
      <trkpt lat="47.73087" lon="3.62463">
        <ele>268</ele>
        <time>2019-04-02T09:29:04Z</time>
      </trkpt>
      <trkpt lat="47.73082" lon="3.62462">
        <ele>267</ele>
        <time>2019-04-02T09:29:08Z</time>
      </trkpt>
      <trkpt lat="47.7308" lon="3.62462">
        <ele>268</ele>
        <time>2019-04-02T09:29:10Z</time>
      </trkpt>
      <trkpt lat="47.73077" lon="3.62462">
        <ele>268</ele>
        <time>2019-04-02T09:29:12Z</time>
      </trkpt>
      <trkpt lat="47.73072" lon="3.62461">
        <ele>267</ele>
        <time>2019-04-02T09:29:16Z</time>
      </trkpt>
      <trkpt lat="47.73066" lon="3.6246">
        <ele>267</ele>
        <time>2019-04-02T09:29:20Z</time>
      </trkpt>
      <trkpt lat="47.73064" lon="3.6246">
        <ele>267</ele>
        <time>2019-04-02T09:29:22Z</time>
      </trkpt>
      <trkpt lat="47.73059" lon="3.62459">
        <ele>267</ele>
        <time>2019-04-02T09:29:26Z</time>
      </trkpt>
      <trkpt lat="47.73054" lon="3.62459">
        <ele>266</ele>
        <time>2019-04-02T09:29:30Z</time>
      </trkpt>
      <trkpt lat="47.73052" lon="3.6246">
        <ele>265</ele>
        <time>2019-04-02T09:29:32Z</time>
      </trkpt>
      <trkpt lat="47.73049" lon="3.62459">
        <ele>265</ele>
        <time>2019-04-02T09:29:34Z</time>
      </trkpt>
      <trkpt lat="47.73046" lon="3.6246">
        <ele>265</ele>
        <time>2019-04-02T09:29:37Z</time>
      </trkpt>
      <trkpt lat="47.73042" lon="3.6246">
        <ele>265</ele>
        <time>2019-04-02T09:29:40Z</time>
      </trkpt>
      <trkpt lat="47.73037" lon="3.6246">
        <ele>265</ele>
        <time>2019-04-02T09:29:45Z</time>
      </trkpt>
      <trkpt lat="47.73031" lon="3.62462">
        <ele>264</ele>
        <time>2019-04-02T09:29:49Z</time>
      </trkpt>
      <trkpt lat="47.73029" lon="3.62469">
        <ele>264</ele>
        <time>2019-04-02T09:29:53Z</time>
      </trkpt>
      <trkpt lat="47.73027" lon="3.62476">
        <ele>263</ele>
        <time>2019-04-02T09:29:57Z</time>
      </trkpt>
      <trkpt lat="47.73026" lon="3.6248">
        <ele>264</ele>
        <time>2019-04-02T09:29:59Z</time>
      </trkpt>
      <trkpt lat="47.73027" lon="3.62487">
        <ele>264</ele>
        <time>2019-04-02T09:30:03Z</time>
      </trkpt>
      <trkpt lat="47.73027" lon="3.62491">
        <ele>264</ele>
        <time>2019-04-02T09:30:05Z</time>
      </trkpt>
      <trkpt lat="47.73027" lon="3.62496">
        <ele>264</ele>
        <time>2019-04-02T09:30:07Z</time>
      </trkpt>
      <trkpt lat="47.73028" lon="3.62503">
        <ele>264</ele>
        <time>2019-04-02T09:30:11Z</time>
      </trkpt>
      <trkpt lat="47.73029" lon="3.62509">
        <ele>263</ele>
        <time>2019-04-02T09:30:14Z</time>
      </trkpt>
      <trkpt lat="47.73029" lon="3.62513">
        <ele>263</ele>
        <time>2019-04-02T09:30:16Z</time>
      </trkpt>
      <trkpt lat="47.7303" lon="3.62521">
        <ele>263</ele>
        <time>2019-04-02T09:30:20Z</time>
      </trkpt>
      <trkpt lat="47.7303" lon="3.62528">
        <ele>263</ele>
        <time>2019-04-02T09:30:24Z</time>
      </trkpt>
      <trkpt lat="47.7303" lon="3.62534">
        <ele>263</ele>
        <time>2019-04-02T09:30:28Z</time>
      </trkpt>
      <trkpt lat="47.73028" lon="3.62541">
        <ele>263</ele>
        <time>2019-04-02T09:30:32Z</time>
      </trkpt>
      <trkpt lat="47.73027" lon="3.62549">
        <ele>262</ele>
        <time>2019-04-02T09:30:36Z</time>
      </trkpt>
      <trkpt lat="47.73027" lon="3.62556">
        <ele>261</ele>
        <time>2019-04-02T09:30:40Z</time>
      </trkpt>
      <trkpt lat="47.73026" lon="3.62563">
        <ele>260</ele>
        <time>2019-04-02T09:30:44Z</time>
      </trkpt>
      <trkpt lat="47.73025" lon="3.62568">
        <ele>259</ele>
        <time>2019-04-02T09:30:47Z</time>
      </trkpt>
      <trkpt lat="47.73022" lon="3.62576">
        <ele>260</ele>
        <time>2019-04-02T09:30:51Z</time>
      </trkpt>
      <trkpt lat="47.73021" lon="3.62583">
        <ele>260</ele>
        <time>2019-04-02T09:30:55Z</time>
      </trkpt>
      <trkpt lat="47.7302" lon="3.62587">
        <ele>260</ele>
        <time>2019-04-02T09:30:57Z</time>
      </trkpt>
      <trkpt lat="47.73019" lon="3.62591">
        <ele>260</ele>
        <time>2019-04-02T09:30:59Z</time>
      </trkpt>
      <trkpt lat="47.73019" lon="3.62594">
        <ele>259</ele>
        <time>2019-04-02T09:31:01Z</time>
      </trkpt>
      <trkpt lat="47.73017" lon="3.62601">
        <ele>259</ele>
        <time>2019-04-02T09:31:05Z</time>
      </trkpt>
      <trkpt lat="47.73015" lon="3.62604">
        <ele>259</ele>
        <time>2019-04-02T09:31:07Z</time>
      </trkpt>
      <trkpt lat="47.73014" lon="3.62609">
        <ele>258</ele>
        <time>2019-04-02T09:31:10Z</time>
      </trkpt>
      <trkpt lat="47.73012" lon="3.62614">
        <ele>258</ele>
        <time>2019-04-02T09:31:13Z</time>
      </trkpt>
      <trkpt lat="47.7301" lon="3.62619">
        <ele>258</ele>
        <time>2019-04-02T09:31:16Z</time>
      </trkpt>
      <trkpt lat="47.73009" lon="3.62625">
        <ele>257</ele>
        <time>2019-04-02T09:31:19Z</time>
      </trkpt>
      <trkpt lat="47.73007" lon="3.62632">
        <ele>257</ele>
        <time>2019-04-02T09:31:23Z</time>
      </trkpt>
      <trkpt lat="47.73005" lon="3.62639">
        <ele>256</ele>
        <time>2019-04-02T09:31:27Z</time>
      </trkpt>
      <trkpt lat="47.73004" lon="3.62644">
        <ele>256</ele>
        <time>2019-04-02T09:31:30Z</time>
      </trkpt>
      <trkpt lat="47.73002" lon="3.62651">
        <ele>256</ele>
        <time>2019-04-02T09:31:34Z</time>
      </trkpt>
      <trkpt lat="47.73" lon="3.62657">
        <ele>256</ele>
        <time>2019-04-02T09:31:38Z</time>
      </trkpt>
      <trkpt lat="47.72999" lon="3.62665">
        <ele>256</ele>
        <time>2019-04-02T09:31:43Z</time>
      </trkpt>
      <trkpt lat="47.72997" lon="3.62676">
        <ele>255</ele>
        <time>2019-04-02T09:31:48Z</time>
      </trkpt>
      <trkpt lat="47.72994" lon="3.62684">
        <ele>255</ele>
        <time>2019-04-02T09:31:53Z</time>
      </trkpt>
      <trkpt lat="47.72994" lon="3.62692">
        <ele>254</ele>
        <time>2019-04-02T09:31:58Z</time>
      </trkpt>
      <trkpt lat="47.72993" lon="3.62696">
        <ele>254</ele>
        <time>2019-04-02T09:32:01Z</time>
      </trkpt>
      <trkpt lat="47.72992" lon="3.627">
        <ele>254</ele>
        <time>2019-04-02T09:32:03Z</time>
      </trkpt>
      <trkpt lat="47.72991" lon="3.62704">
        <ele>254</ele>
        <time>2019-04-02T09:32:05Z</time>
      </trkpt>
      <trkpt lat="47.72991" lon="3.62708">
        <ele>254</ele>
        <time>2019-04-02T09:32:08Z</time>
      </trkpt>
      <trkpt lat="47.7299" lon="3.62713">
        <ele>254</ele>
        <time>2019-04-02T09:32:10Z</time>
      </trkpt>
      <trkpt lat="47.7299" lon="3.62717">
        <ele>254</ele>
        <time>2019-04-02T09:32:12Z</time>
      </trkpt>
      <trkpt lat="47.72989" lon="3.62721">
        <ele>254</ele>
        <time>2019-04-02T09:32:14Z</time>
      </trkpt>
      <trkpt lat="47.72989" lon="3.62725">
        <ele>254</ele>
        <time>2019-04-02T09:32:16Z</time>
      </trkpt>
      <trkpt lat="47.72988" lon="3.62731">
        <ele>254</ele>
        <time>2019-04-02T09:32:19Z</time>
      </trkpt>
      <trkpt lat="47.72988" lon="3.62738">
        <ele>254</ele>
        <time>2019-04-02T09:32:22Z</time>
      </trkpt>
      <trkpt lat="47.72988" lon="3.62741">
        <ele>253</ele>
        <time>2019-04-02T09:32:24Z</time>
      </trkpt>
      <trkpt lat="47.72987" lon="3.62748">
        <ele>253</ele>
        <time>2019-04-02T09:32:28Z</time>
      </trkpt>
      <trkpt lat="47.72987" lon="3.62755">
        <ele>253</ele>
        <time>2019-04-02T09:32:32Z</time>
      </trkpt>
      <trkpt lat="47.72987" lon="3.62759">
        <ele>252</ele>
        <time>2019-04-02T09:32:34Z</time>
      </trkpt>
      <trkpt lat="47.72987" lon="3.62763">
        <ele>252</ele>
        <time>2019-04-02T09:32:36Z</time>
      </trkpt>
      <trkpt lat="47.72989" lon="3.62771">
        <ele>252</ele>
        <time>2019-04-02T09:32:40Z</time>
      </trkpt>
      <trkpt lat="47.7299" lon="3.6278">
        <ele>252</ele>
        <time>2019-04-02T09:32:44Z</time>
      </trkpt>
      <trkpt lat="47.72991" lon="3.62787">
        <ele>252</ele>
        <time>2019-04-02T09:32:47Z</time>
      </trkpt>
      <trkpt lat="47.72993" lon="3.62792">
        <ele>251</ele>
        <time>2019-04-02T09:32:50Z</time>
      </trkpt>
      <trkpt lat="47.72994" lon="3.62795">
        <ele>252</ele>
        <time>2019-04-02T09:32:52Z</time>
      </trkpt>
      <trkpt lat="47.72995" lon="3.628">
        <ele>252</ele>
        <time>2019-04-02T09:32:54Z</time>
      </trkpt>
      <trkpt lat="47.72997" lon="3.62806">
        <ele>251</ele>
        <time>2019-04-02T09:32:57Z</time>
      </trkpt>
      <trkpt lat="47.72999" lon="3.62811">
        <ele>251</ele>
        <time>2019-04-02T09:32:59Z</time>
      </trkpt>
      <trkpt lat="47.73" lon="3.62814">
        <ele>251</ele>
        <time>2019-04-02T09:33:01Z</time>
      </trkpt>
      <trkpt lat="47.73003" lon="3.62823">
        <ele>250</ele>
        <time>2019-04-02T09:33:06Z</time>
      </trkpt>
      <trkpt lat="47.73005" lon="3.62827">
        <ele>250</ele>
        <time>2019-04-02T09:33:08Z</time>
      </trkpt>
      <trkpt lat="47.73008" lon="3.62834">
        <ele>251</ele>
        <time>2019-04-02T09:33:13Z</time>
      </trkpt>
      <trkpt lat="47.7301" lon="3.62837">
        <ele>251</ele>
        <time>2019-04-02T09:33:15Z</time>
      </trkpt>
      <trkpt lat="47.73013" lon="3.62843">
        <ele>251</ele>
        <time>2019-04-02T09:33:19Z</time>
      </trkpt>
      <trkpt lat="47.73016" lon="3.62849">
        <ele>251</ele>
        <time>2019-04-02T09:33:22Z</time>
      </trkpt>
      <trkpt lat="47.73018" lon="3.62852">
        <ele>252</ele>
        <time>2019-04-02T09:33:24Z</time>
      </trkpt>
      <trkpt lat="47.73021" lon="3.62859">
        <ele>251</ele>
        <time>2019-04-02T09:33:28Z</time>
      </trkpt>
      <trkpt lat="47.73022" lon="3.62862">
        <ele>252</ele>
        <time>2019-04-02T09:33:30Z</time>
      </trkpt>
      <trkpt lat="47.73025" lon="3.62869">
        <ele>252</ele>
        <time>2019-04-02T09:33:34Z</time>
      </trkpt>
      <trkpt lat="47.73027" lon="3.62874">
        <ele>251</ele>
        <time>2019-04-02T09:33:37Z</time>
      </trkpt>
      <trkpt lat="47.73032" lon="3.62881">
        <ele>251</ele>
        <time>2019-04-02T09:33:42Z</time>
      </trkpt>
      <trkpt lat="47.73034" lon="3.62885">
        <ele>252</ele>
        <time>2019-04-02T09:33:44Z</time>
      </trkpt>
      <trkpt lat="47.73037" lon="3.62891">
        <ele>251</ele>
        <time>2019-04-02T09:33:48Z</time>
      </trkpt>
      <trkpt lat="47.7304" lon="3.62898">
        <ele>251</ele>
        <time>2019-04-02T09:33:52Z</time>
      </trkpt>
      <trkpt lat="47.73041" lon="3.62902">
        <ele>250</ele>
        <time>2019-04-02T09:33:54Z</time>
      </trkpt>
      <trkpt lat="47.73044" lon="3.62908">
        <ele>250</ele>
        <time>2019-04-02T09:33:58Z</time>
      </trkpt>
      <trkpt lat="47.73045" lon="3.62912">
        <ele>250</ele>
        <time>2019-04-02T09:34:00Z</time>
      </trkpt>
      <trkpt lat="47.73046" lon="3.62915">
        <ele>251</ele>
        <time>2019-04-02T09:34:02Z</time>
      </trkpt>
      <trkpt lat="47.7305" lon="3.62923">
        <ele>250</ele>
        <time>2019-04-02T09:34:06Z</time>
      </trkpt>
      <trkpt lat="47.73052" lon="3.62929">
        <ele>250</ele>
        <time>2019-04-02T09:34:10Z</time>
      </trkpt>
      <trkpt lat="47.73056" lon="3.62934">
        <ele>250</ele>
        <time>2019-04-02T09:34:14Z</time>
      </trkpt>
      <trkpt lat="47.7306" lon="3.6294">
        <ele>250</ele>
        <time>2019-04-02T09:34:18Z</time>
      </trkpt>
      <trkpt lat="47.73063" lon="3.62945">
        <ele>250</ele>
        <time>2019-04-02T09:34:21Z</time>
      </trkpt>
      <trkpt lat="47.73065" lon="3.62948">
        <ele>250</ele>
        <time>2019-04-02T09:34:23Z</time>
      </trkpt>
      <trkpt lat="47.73067" lon="3.62952">
        <ele>251</ele>
        <time>2019-04-02T09:34:25Z</time>
      </trkpt>
      <trkpt lat="47.73069" lon="3.62956">
        <ele>251</ele>
        <time>2019-04-02T09:34:27Z</time>
      </trkpt>
      <trkpt lat="47.7307" lon="3.62959">
        <ele>251</ele>
        <time>2019-04-02T09:34:29Z</time>
      </trkpt>
      <trkpt lat="47.73073" lon="3.62963">
        <ele>251</ele>
        <time>2019-04-02T09:34:32Z</time>
      </trkpt>
      <trkpt lat="47.73075" lon="3.62966">
        <ele>250</ele>
        <time>2019-04-02T09:34:34Z</time>
      </trkpt>
      <trkpt lat="47.73077" lon="3.62968">
        <ele>251</ele>
        <time>2019-04-02T09:34:36Z</time>
      </trkpt>
      <trkpt lat="47.7308" lon="3.62974">
        <ele>251</ele>
        <time>2019-04-02T09:34:40Z</time>
      </trkpt>
      <trkpt lat="47.73081" lon="3.62976">
        <ele>251</ele>
        <time>2019-04-02T09:34:42Z</time>
      </trkpt>
      <trkpt lat="47.73085" lon="3.62984">
        <ele>252</ele>
        <time>2019-04-02T09:34:46Z</time>
      </trkpt>
      <trkpt lat="47.73088" lon="3.62988">
        <ele>252</ele>
        <time>2019-04-02T09:34:49Z</time>
      </trkpt>
      <trkpt lat="47.73091" lon="3.62995">
        <ele>252</ele>
        <time>2019-04-02T09:34:53Z</time>
      </trkpt>
      <trkpt lat="47.73093" lon="3.62998">
        <ele>251</ele>
        <time>2019-04-02T09:34:55Z</time>
      </trkpt>
      <trkpt lat="47.73096" lon="3.63004">
        <ele>250</ele>
        <time>2019-04-02T09:34:59Z</time>
      </trkpt>
      <trkpt lat="47.73097" lon="3.63007">
        <ele>250</ele>
        <time>2019-04-02T09:35:01Z</time>
      </trkpt>
      <trkpt lat="47.73101" lon="3.63013">
        <ele>251</ele>
        <time>2019-04-02T09:35:05Z</time>
      </trkpt>
      <trkpt lat="47.73103" lon="3.63017">
        <ele>251</ele>
        <time>2019-04-02T09:35:08Z</time>
      </trkpt>
      <trkpt lat="47.73106" lon="3.63023">
        <ele>251</ele>
        <time>2019-04-02T09:35:11Z</time>
      </trkpt>
      <trkpt lat="47.73109" lon="3.63029">
        <ele>252</ele>
        <time>2019-04-02T09:35:15Z</time>
      </trkpt>
      <trkpt lat="47.73113" lon="3.63034">
        <ele>251</ele>
        <time>2019-04-02T09:35:19Z</time>
      </trkpt>
      <trkpt lat="47.73116" lon="3.63041">
        <ele>251</ele>
        <time>2019-04-02T09:35:23Z</time>
      </trkpt>
      <trkpt lat="47.73117" lon="3.63045">
        <ele>251</ele>
        <time>2019-04-02T09:35:25Z</time>
      </trkpt>
      <trkpt lat="47.73118" lon="3.63049">
        <ele>251</ele>
        <time>2019-04-02T09:35:27Z</time>
      </trkpt>
      <trkpt lat="47.7312" lon="3.63053">
        <ele>250</ele>
        <time>2019-04-02T09:35:30Z</time>
      </trkpt>
      <trkpt lat="47.73123" lon="3.6306">
        <ele>250</ele>
        <time>2019-04-02T09:35:34Z</time>
      </trkpt>
      <trkpt lat="47.73126" lon="3.63066">
        <ele>249</ele>
        <time>2019-04-02T09:35:38Z</time>
      </trkpt>
      <trkpt lat="47.73128" lon="3.63069">
        <ele>250</ele>
        <time>2019-04-02T09:35:40Z</time>
      </trkpt>
      <trkpt lat="47.7313" lon="3.63072">
        <ele>250</ele>
        <time>2019-04-02T09:35:42Z</time>
      </trkpt>
      <trkpt lat="47.73133" lon="3.63078">
        <ele>249</ele>
        <time>2019-04-02T09:35:46Z</time>
      </trkpt>
      <trkpt lat="47.73137" lon="3.63084">
        <ele>249</ele>
        <time>2019-04-02T09:35:50Z</time>
      </trkpt>
      <trkpt lat="47.7314" lon="3.63089">
        <ele>250</ele>
        <time>2019-04-02T09:35:54Z</time>
      </trkpt>
      <trkpt lat="47.73142" lon="3.63095">
        <ele>250</ele>
        <time>2019-04-02T09:35:58Z</time>
      </trkpt>
      <trkpt lat="47.73144" lon="3.63098">
        <ele>250</ele>
        <time>2019-04-02T09:36:00Z</time>
      </trkpt>
      <trkpt lat="47.73145" lon="3.63102">
        <ele>249</ele>
        <time>2019-04-02T09:36:02Z</time>
      </trkpt>
      <trkpt lat="47.73148" lon="3.63108">
        <ele>249</ele>
        <time>2019-04-02T09:36:06Z</time>
      </trkpt>
      <trkpt lat="47.7315" lon="3.63114">
        <ele>248</ele>
        <time>2019-04-02T09:36:10Z</time>
      </trkpt>
      <trkpt lat="47.73151" lon="3.63118">
        <ele>248</ele>
        <time>2019-04-02T09:36:12Z</time>
      </trkpt>
      <trkpt lat="47.73153" lon="3.63128">
        <ele>248</ele>
        <time>2019-04-02T09:36:17Z</time>
      </trkpt>
      <trkpt lat="47.73155" lon="3.63134">
        <ele>247</ele>
        <time>2019-04-02T09:36:21Z</time>
      </trkpt>
      <trkpt lat="47.73158" lon="3.63141">
        <ele>246</ele>
        <time>2019-04-02T09:36:25Z</time>
      </trkpt>
      <trkpt lat="47.73159" lon="3.63145">
        <ele>246</ele>
        <time>2019-04-02T09:36:27Z</time>
      </trkpt>
      <trkpt lat="47.7316" lon="3.6315">
        <ele>246</ele>
        <time>2019-04-02T09:36:30Z</time>
      </trkpt>
      <trkpt lat="47.73161" lon="3.63153">
        <ele>246</ele>
        <time>2019-04-02T09:36:32Z</time>
      </trkpt>
      <trkpt lat="47.73162" lon="3.6316">
        <ele>244</ele>
        <time>2019-04-02T09:36:36Z</time>
      </trkpt>
      <trkpt lat="47.73165" lon="3.63167">
        <ele>242</ele>
        <time>2019-04-02T09:36:40Z</time>
      </trkpt>
      <trkpt lat="47.73167" lon="3.63175">
        <ele>243</ele>
        <time>2019-04-02T09:36:44Z</time>
      </trkpt>
      <trkpt lat="47.7317" lon="3.63181">
        <ele>242</ele>
        <time>2019-04-02T09:36:48Z</time>
      </trkpt>
      <trkpt lat="47.73172" lon="3.63185">
        <ele>243</ele>
        <time>2019-04-02T09:36:50Z</time>
      </trkpt>
      <trkpt lat="47.73175" lon="3.63191">
        <ele>243</ele>
        <time>2019-04-02T09:36:53Z</time>
      </trkpt>
      <trkpt lat="47.73176" lon="3.63194">
        <ele>242</ele>
        <time>2019-04-02T09:36:55Z</time>
      </trkpt>
      <trkpt lat="47.73177" lon="3.63202">
        <ele>242</ele>
        <time>2019-04-02T09:36:59Z</time>
      </trkpt>
      <trkpt lat="47.7318" lon="3.63212">
        <ele>241</ele>
        <time>2019-04-02T09:37:04Z</time>
      </trkpt>
      <trkpt lat="47.73181" lon="3.63215">
        <ele>241</ele>
        <time>2019-04-02T09:37:06Z</time>
      </trkpt>
      <trkpt lat="47.73184" lon="3.63222">
        <ele>240</ele>
        <time>2019-04-02T09:37:10Z</time>
      </trkpt>
      <trkpt lat="47.73186" lon="3.63231">
        <ele>241</ele>
        <time>2019-04-02T09:37:14Z</time>
      </trkpt>
      <trkpt lat="47.73188" lon="3.63236">
        <ele>240</ele>
        <time>2019-04-02T09:37:17Z</time>
      </trkpt>
      <trkpt lat="47.73188" lon="3.6324">
        <ele>240</ele>
        <time>2019-04-02T09:37:19Z</time>
      </trkpt>
      <trkpt lat="47.7319" lon="3.63245">
        <ele>240</ele>
        <time>2019-04-02T09:37:22Z</time>
      </trkpt>
      <trkpt lat="47.7319" lon="3.63249">
        <ele>240</ele>
        <time>2019-04-02T09:37:24Z</time>
      </trkpt>
      <trkpt lat="47.73192" lon="3.63255">
        <ele>239</ele>
        <time>2019-04-02T09:37:27Z</time>
      </trkpt>
      <trkpt lat="47.73195" lon="3.6326">
        <ele>239</ele>
        <time>2019-04-02T09:37:30Z</time>
      </trkpt>
      <trkpt lat="47.73196" lon="3.63267">
        <ele>240</ele>
        <time>2019-04-02T09:37:34Z</time>
      </trkpt>
      <trkpt lat="47.73199" lon="3.63273">
        <ele>240</ele>
        <time>2019-04-02T09:37:38Z</time>
      </trkpt>
      <trkpt lat="47.73201" lon="3.6328">
        <ele>238</ele>
        <time>2019-04-02T09:37:42Z</time>
      </trkpt>
      <trkpt lat="47.73202" lon="3.63286">
        <ele>239</ele>
        <time>2019-04-02T09:37:45Z</time>
      </trkpt>
      <trkpt lat="47.73203" lon="3.6329">
        <ele>238</ele>
        <time>2019-04-02T09:37:47Z</time>
      </trkpt>
      <trkpt lat="47.73203" lon="3.63297">
        <ele>238</ele>
        <time>2019-04-02T09:37:50Z</time>
      </trkpt>
      <trkpt lat="47.73204" lon="3.63305">
        <ele>238</ele>
        <time>2019-04-02T09:37:54Z</time>
      </trkpt>
      <trkpt lat="47.73205" lon="3.63313">
        <ele>238</ele>
        <time>2019-04-02T09:37:58Z</time>
      </trkpt>
      <trkpt lat="47.73207" lon="3.63322">
        <ele>239</ele>
        <time>2019-04-02T09:38:02Z</time>
      </trkpt>
      <trkpt lat="47.73208" lon="3.63328">
        <ele>238</ele>
        <time>2019-04-02T09:38:06Z</time>
      </trkpt>
      <trkpt lat="47.7321" lon="3.63336">
        <ele>238</ele>
        <time>2019-04-02T09:38:10Z</time>
      </trkpt>
      <trkpt lat="47.73213" lon="3.63342">
        <ele>239</ele>
        <time>2019-04-02T09:38:14Z</time>
      </trkpt>
      <trkpt lat="47.73217" lon="3.63347">
        <ele>238</ele>
        <time>2019-04-02T09:38:18Z</time>
      </trkpt>
      <trkpt lat="47.7322" lon="3.63352">
        <ele>238</ele>
        <time>2019-04-02T09:38:21Z</time>
      </trkpt>
      <trkpt lat="47.73224" lon="3.63357">
        <ele>238</ele>
        <time>2019-04-02T09:38:25Z</time>
      </trkpt>
      <trkpt lat="47.73229" lon="3.63362">
        <ele>238</ele>
        <time>2019-04-02T09:38:29Z</time>
      </trkpt>
      <trkpt lat="47.73233" lon="3.63367">
        <ele>238</ele>
        <time>2019-04-02T09:38:33Z</time>
      </trkpt>
      <trkpt lat="47.73236" lon="3.63369">
        <ele>237</ele>
        <time>2019-04-02T09:38:35Z</time>
      </trkpt>
      <trkpt lat="47.73238" lon="3.63372">
        <ele>237</ele>
        <time>2019-04-02T09:38:39Z</time>
      </trkpt>
      <trkpt lat="47.73241" lon="3.63377">
        <ele>236</ele>
        <time>2019-04-02T09:38:43Z</time>
      </trkpt>
      <trkpt lat="47.73239" lon="3.63385">
        <ele>237</ele>
        <time>2019-04-02T09:38:50Z</time>
      </trkpt>
      <trkpt lat="47.73236" lon="3.63388">
        <ele>237</ele>
        <time>2019-04-02T09:38:56Z</time>
      </trkpt>
      <trkpt lat="47.73236" lon="3.63388">
        <ele>237</ele>
        <time>2019-04-02T09:39:03Z</time>
      </trkpt>
      <trkpt lat="47.73236" lon="3.63388">
        <ele>237</ele>
        <time>2019-04-02T09:39:04Z</time>
      </trkpt>
      <trkpt lat="47.7323" lon="3.63386">
        <ele>236</ele>
        <time>2019-04-02T09:39:54Z</time>
      </trkpt>
      <trkpt lat="47.73226" lon="3.63382">
        <ele>235</ele>
        <time>2019-04-02T09:39:59Z</time>
      </trkpt>
      <trkpt lat="47.73221" lon="3.6338">
        <ele>236</ele>
        <time>2019-04-02T09:40:03Z</time>
      </trkpt>
      <trkpt lat="47.73218" lon="3.63378">
        <ele>236</ele>
        <time>2019-04-02T09:40:07Z</time>
      </trkpt>
      <trkpt lat="47.73212" lon="3.63375">
        <ele>235</ele>
        <time>2019-04-02T09:40:12Z</time>
      </trkpt>
      <trkpt lat="47.73209" lon="3.63374">
        <ele>235</ele>
        <time>2019-04-02T09:40:15Z</time>
      </trkpt>
      <trkpt lat="47.73205" lon="3.63373">
        <ele>236</ele>
        <time>2019-04-02T09:40:19Z</time>
      </trkpt>
      <trkpt lat="47.73201" lon="3.63372">
        <ele>238</ele>
        <time>2019-04-02T09:40:23Z</time>
      </trkpt>
      <trkpt lat="47.73198" lon="3.63372">
        <ele>238</ele>
        <time>2019-04-02T09:40:25Z</time>
      </trkpt>
      <trkpt lat="47.73193" lon="3.63372">
        <ele>240</ele>
        <time>2019-04-02T09:40:29Z</time>
      </trkpt>
      <trkpt lat="47.73188" lon="3.63373">
        <ele>241</ele>
        <time>2019-04-02T09:40:33Z</time>
      </trkpt>
      <trkpt lat="47.73183" lon="3.63375">
        <ele>242</ele>
        <time>2019-04-02T09:40:37Z</time>
      </trkpt>
      <trkpt lat="47.73179" lon="3.63379">
        <ele>242</ele>
        <time>2019-04-02T09:40:42Z</time>
      </trkpt>
      <trkpt lat="47.73175" lon="3.6338">
        <ele>242</ele>
        <time>2019-04-02T09:40:46Z</time>
      </trkpt>
      <trkpt lat="47.7317" lon="3.63386">
        <ele>243</ele>
        <time>2019-04-02T09:40:51Z</time>
      </trkpt>
      <trkpt lat="47.73164" lon="3.63389">
        <ele>243</ele>
        <time>2019-04-02T09:40:55Z</time>
      </trkpt>
      <trkpt lat="47.73162" lon="3.6339">
        <ele>243</ele>
        <time>2019-04-02T09:40:57Z</time>
      </trkpt>
      <trkpt lat="47.7316" lon="3.63392">
        <ele>243</ele>
        <time>2019-04-02T09:40:59Z</time>
      </trkpt>
      <trkpt lat="47.73156" lon="3.63395">
        <ele>242</ele>
        <time>2019-04-02T09:41:02Z</time>
      </trkpt>
      <trkpt lat="47.7315" lon="3.634">
        <ele>243</ele>
        <time>2019-04-02T09:41:07Z</time>
      </trkpt>
      <trkpt lat="47.73147" lon="3.63405">
        <ele>244</ele>
        <time>2019-04-02T09:41:11Z</time>
      </trkpt>
      <trkpt lat="47.73141" lon="3.63411">
        <ele>244</ele>
        <time>2019-04-02T09:41:16Z</time>
      </trkpt>
      <trkpt lat="47.73138" lon="3.63413">
        <ele>244</ele>
        <time>2019-04-02T09:41:19Z</time>
      </trkpt>
      <trkpt lat="47.73136" lon="3.63415">
        <ele>244</ele>
        <time>2019-04-02T09:41:21Z</time>
      </trkpt>
      <trkpt lat="47.7313" lon="3.63418">
        <ele>244</ele>
        <time>2019-04-02T09:41:26Z</time>
      </trkpt>
      <trkpt lat="47.73125" lon="3.63419">
        <ele>244</ele>
        <time>2019-04-02T09:41:30Z</time>
      </trkpt>
      <trkpt lat="47.7312" lon="3.63421">
        <ele>243</ele>
        <time>2019-04-02T09:41:34Z</time>
      </trkpt>
      <trkpt lat="47.73116" lon="3.63422">
        <ele>243</ele>
        <time>2019-04-02T09:41:37Z</time>
      </trkpt>
      <trkpt lat="47.73114" lon="3.63423">
        <ele>243</ele>
        <time>2019-04-02T09:41:39Z</time>
      </trkpt>
      <trkpt lat="47.7311" lon="3.63425">
        <ele>243</ele>
        <time>2019-04-02T09:41:42Z</time>
      </trkpt>
      <trkpt lat="47.73104" lon="3.63426">
        <ele>243</ele>
        <time>2019-04-02T09:41:45Z</time>
      </trkpt>
      <trkpt lat="47.731" lon="3.63427">
        <ele>243</ele>
        <time>2019-04-02T09:41:48Z</time>
      </trkpt>
      <trkpt lat="47.73096" lon="3.63428">
        <ele>243</ele>
        <time>2019-04-02T09:41:51Z</time>
      </trkpt>
      <trkpt lat="47.73093" lon="3.63429">
        <ele>244</ele>
        <time>2019-04-02T09:41:53Z</time>
      </trkpt>
      <trkpt lat="47.73089" lon="3.63428">
        <ele>244</ele>
        <time>2019-04-02T09:41:57Z</time>
      </trkpt>
      <trkpt lat="47.73085" lon="3.63428">
        <ele>243</ele>
        <time>2019-04-02T09:42:00Z</time>
      </trkpt>
      <trkpt lat="47.73082" lon="3.63429">
        <ele>243</ele>
        <time>2019-04-02T09:42:02Z</time>
      </trkpt>
      <trkpt lat="47.7308" lon="3.63429">
        <ele>244</ele>
        <time>2019-04-02T09:42:04Z</time>
      </trkpt>
      <trkpt lat="47.73075" lon="3.63429">
        <ele>244</ele>
        <time>2019-04-02T09:42:08Z</time>
      </trkpt>
      <trkpt lat="47.73072" lon="3.63429">
        <ele>245</ele>
        <time>2019-04-02T09:42:10Z</time>
      </trkpt>
      <trkpt lat="47.73069" lon="3.63429">
        <ele>245</ele>
        <time>2019-04-02T09:42:13Z</time>
      </trkpt>
      <trkpt lat="47.73065" lon="3.6343">
        <ele>246</ele>
        <time>2019-04-02T09:42:16Z</time>
      </trkpt>
      <trkpt lat="47.73062" lon="3.6343">
        <ele>246</ele>
        <time>2019-04-02T09:42:18Z</time>
      </trkpt>
      <trkpt lat="47.73056" lon="3.63431">
        <ele>247</ele>
        <time>2019-04-02T09:42:23Z</time>
      </trkpt>
      <trkpt lat="47.73053" lon="3.63431">
        <ele>247</ele>
        <time>2019-04-02T09:42:26Z</time>
      </trkpt>
      <trkpt lat="47.7305" lon="3.63431">
        <ele>247</ele>
        <time>2019-04-02T09:42:28Z</time>
      </trkpt>
      <trkpt lat="47.73046" lon="3.63431">
        <ele>248</ele>
        <time>2019-04-02T09:42:30Z</time>
      </trkpt>
      <trkpt lat="47.73043" lon="3.63431">
        <ele>247</ele>
        <time>2019-04-02T09:42:32Z</time>
      </trkpt>
      <trkpt lat="47.7304" lon="3.6343">
        <ele>247</ele>
        <time>2019-04-02T09:42:35Z</time>
      </trkpt>
      <trkpt lat="47.73037" lon="3.6343">
        <ele>247</ele>
        <time>2019-04-02T09:42:38Z</time>
      </trkpt>
      <trkpt lat="47.73033" lon="3.6343">
        <ele>248</ele>
        <time>2019-04-02T09:42:41Z</time>
      </trkpt>
      <trkpt lat="47.73029" lon="3.63431">
        <ele>249</ele>
        <time>2019-04-02T09:42:45Z</time>
      </trkpt>
      <trkpt lat="47.73024" lon="3.63431">
        <ele>251</ele>
        <time>2019-04-02T09:42:49Z</time>
      </trkpt>
      <trkpt lat="47.73021" lon="3.63431">
        <ele>251</ele>
        <time>2019-04-02T09:42:51Z</time>
      </trkpt>
      <trkpt lat="47.73017" lon="3.6343">
        <ele>250</ele>
        <time>2019-04-02T09:42:55Z</time>
      </trkpt>
      <trkpt lat="47.73012" lon="3.63428">
        <ele>250</ele>
        <time>2019-04-02T09:43:00Z</time>
      </trkpt>
      <trkpt lat="47.73006" lon="3.63428">
        <ele>250</ele>
        <time>2019-04-02T09:43:04Z</time>
      </trkpt>
      <trkpt lat="47.73003" lon="3.63428">
        <ele>250</ele>
        <time>2019-04-02T09:43:07Z</time>
      </trkpt>
      <trkpt lat="47.72999" lon="3.63426">
        <ele>250</ele>
        <time>2019-04-02T09:43:13Z</time>
      </trkpt>
      <trkpt lat="47.72995" lon="3.63424">
        <ele>251</ele>
        <time>2019-04-02T09:43:17Z</time>
      </trkpt>
      <trkpt lat="47.72991" lon="3.63424">
        <ele>251</ele>
        <time>2019-04-02T09:43:20Z</time>
      </trkpt>
      <trkpt lat="47.72987" lon="3.63424">
        <ele>251</ele>
        <time>2019-04-02T09:43:22Z</time>
      </trkpt>
      <trkpt lat="47.72982" lon="3.63423">
        <ele>252</ele>
        <time>2019-04-02T09:43:25Z</time>
      </trkpt>
      <trkpt lat="47.72979" lon="3.63422">
        <ele>252</ele>
        <time>2019-04-02T09:43:28Z</time>
      </trkpt>
      <trkpt lat="47.72977" lon="3.63421">
        <ele>251</ele>
        <time>2019-04-02T09:43:30Z</time>
      </trkpt>
      <trkpt lat="47.72973" lon="3.63419">
        <ele>250</ele>
        <time>2019-04-02T09:43:33Z</time>
      </trkpt>
      <trkpt lat="47.72971" lon="3.63418">
        <ele>250</ele>
        <time>2019-04-02T09:43:35Z</time>
      </trkpt>
      <trkpt lat="47.72965" lon="3.63419">
        <ele>251</ele>
        <time>2019-04-02T09:43:39Z</time>
      </trkpt>
      <trkpt lat="47.7296" lon="3.63417">
        <ele>250</ele>
        <time>2019-04-02T09:43:43Z</time>
      </trkpt>
      <trkpt lat="47.72956" lon="3.63415">
        <ele>250</ele>
        <time>2019-04-02T09:43:46Z</time>
      </trkpt>
      <trkpt lat="47.72951" lon="3.63413">
        <ele>250</ele>
        <time>2019-04-02T09:43:50Z</time>
      </trkpt>
      <trkpt lat="47.72946" lon="3.63412">
        <ele>251</ele>
        <time>2019-04-02T09:43:54Z</time>
      </trkpt>
      <trkpt lat="47.72939" lon="3.6341">
        <ele>251</ele>
        <time>2019-04-02T09:43:59Z</time>
      </trkpt>
      <trkpt lat="47.72937" lon="3.63409">
        <ele>250</ele>
        <time>2019-04-02T09:44:01Z</time>
      </trkpt>
      <trkpt lat="47.72933" lon="3.63407">
        <ele>250</ele>
        <time>2019-04-02T09:44:05Z</time>
      </trkpt>
      <trkpt lat="47.7293" lon="3.63406">
        <ele>250</ele>
        <time>2019-04-02T09:44:08Z</time>
      </trkpt>
      <trkpt lat="47.72925" lon="3.63406">
        <ele>251</ele>
        <time>2019-04-02T09:44:11Z</time>
      </trkpt>
      <trkpt lat="47.72922" lon="3.63405">
        <ele>250</ele>
        <time>2019-04-02T09:44:13Z</time>
      </trkpt>
      <trkpt lat="47.72916" lon="3.63403">
        <ele>251</ele>
        <time>2019-04-02T09:44:18Z</time>
      </trkpt>
      <trkpt lat="47.72912" lon="3.63402">
        <ele>252</ele>
        <time>2019-04-02T09:44:21Z</time>
      </trkpt>
      <trkpt lat="47.72908" lon="3.634">
        <ele>253</ele>
        <time>2019-04-02T09:44:25Z</time>
      </trkpt>
      <trkpt lat="47.72905" lon="3.634">
        <ele>253</ele>
        <time>2019-04-02T09:44:28Z</time>
      </trkpt>
      <trkpt lat="47.72902" lon="3.63399">
        <ele>253</ele>
        <time>2019-04-02T09:44:29Z</time>
      </trkpt>
      <trkpt lat="47.72897" lon="3.63397">
        <ele>253</ele>
        <time>2019-04-02T09:44:34Z</time>
      </trkpt>
      <trkpt lat="47.72892" lon="3.63394">
        <ele>253</ele>
        <time>2019-04-02T09:44:37Z</time>
      </trkpt>
      <trkpt lat="47.7289" lon="3.63392">
        <ele>253</ele>
        <time>2019-04-02T09:44:40Z</time>
      </trkpt>
      <trkpt lat="47.72887" lon="3.6339">
        <ele>253</ele>
        <time>2019-04-02T09:44:42Z</time>
      </trkpt>
      <trkpt lat="47.72883" lon="3.63387">
        <ele>253</ele>
        <time>2019-04-02T09:44:46Z</time>
      </trkpt>
      <trkpt lat="47.72881" lon="3.63385">
        <ele>253</ele>
        <time>2019-04-02T09:44:48Z</time>
      </trkpt>
      <trkpt lat="47.72876" lon="3.6338">
        <ele>251</ele>
        <time>2019-04-02T09:44:53Z</time>
      </trkpt>
      <trkpt lat="47.72873" lon="3.63376">
        <ele>251</ele>
        <time>2019-04-02T09:44:56Z</time>
      </trkpt>
      <trkpt lat="47.72869" lon="3.63372">
        <ele>251</ele>
        <time>2019-04-02T09:45:00Z</time>
      </trkpt>
      <trkpt lat="47.72865" lon="3.63369">
        <ele>250</ele>
        <time>2019-04-02T09:45:04Z</time>
      </trkpt>
      <trkpt lat="47.72861" lon="3.63364">
        <ele>250</ele>
        <time>2019-04-02T09:45:08Z</time>
      </trkpt>
      <trkpt lat="47.72856" lon="3.63359">
        <ele>251</ele>
        <time>2019-04-02T09:45:13Z</time>
      </trkpt>
      <trkpt lat="47.72853" lon="3.63357">
        <ele>250</ele>
        <time>2019-04-02T09:45:14Z</time>
      </trkpt>
      <trkpt lat="47.72849" lon="3.63353">
        <ele>249</ele>
        <time>2019-04-02T09:45:18Z</time>
      </trkpt>
      <trkpt lat="47.72847" lon="3.6335">
        <ele>249</ele>
        <time>2019-04-02T09:45:21Z</time>
      </trkpt>
      <trkpt lat="47.72844" lon="3.63346">
        <ele>250</ele>
        <time>2019-04-02T09:45:24Z</time>
      </trkpt>
      <trkpt lat="47.72839" lon="3.63343">
        <ele>250</ele>
        <time>2019-04-02T09:45:28Z</time>
      </trkpt>
      <trkpt lat="47.72836" lon="3.6334">
        <ele>250</ele>
        <time>2019-04-02T09:45:31Z</time>
      </trkpt>
      <trkpt lat="47.72832" lon="3.63337">
        <ele>250</ele>
        <time>2019-04-02T09:45:34Z</time>
      </trkpt>
      <trkpt lat="47.7283" lon="3.63335">
        <ele>251</ele>
        <time>2019-04-02T09:45:36Z</time>
      </trkpt>
      <trkpt lat="47.72825" lon="3.63332">
        <ele>252</ele>
        <time>2019-04-02T09:45:40Z</time>
      </trkpt>
      <trkpt lat="47.72821" lon="3.63327">
        <ele>251</ele>
        <time>2019-04-02T09:45:43Z</time>
      </trkpt>
      <trkpt lat="47.72817" lon="3.63324">
        <ele>251</ele>
        <time>2019-04-02T09:45:47Z</time>
      </trkpt>
      <trkpt lat="47.72812" lon="3.63319">
        <ele>252</ele>
        <time>2019-04-02T09:45:52Z</time>
      </trkpt>
      <trkpt lat="47.7281" lon="3.63317">
        <ele>251</ele>
        <time>2019-04-02T09:45:54Z</time>
      </trkpt>
      <trkpt lat="47.72807" lon="3.63315">
        <ele>250</ele>
        <time>2019-04-02T09:45:56Z</time>
      </trkpt>
      <trkpt lat="47.72805" lon="3.63313">
        <ele>251</ele>
        <time>2019-04-02T09:45:58Z</time>
      </trkpt>
      <trkpt lat="47.728" lon="3.63307">
        <ele>250</ele>
        <time>2019-04-02T09:46:01Z</time>
      </trkpt>
      <trkpt lat="47.72798" lon="3.63305">
        <ele>250</ele>
        <time>2019-04-02T09:46:03Z</time>
      </trkpt>
      <trkpt lat="47.72793" lon="3.63301">
        <ele>249</ele>
        <time>2019-04-02T09:46:08Z</time>
      </trkpt>
      <trkpt lat="47.72789" lon="3.63297">
        <ele>249</ele>
        <time>2019-04-02T09:46:12Z</time>
      </trkpt>
      <trkpt lat="47.72787" lon="3.63294">
        <ele>250</ele>
        <time>2019-04-02T09:46:14Z</time>
      </trkpt>
      <trkpt lat="47.72782" lon="3.6329">
        <ele>250</ele>
        <time>2019-04-02T09:46:18Z</time>
      </trkpt>
      <trkpt lat="47.72779" lon="3.63288">
        <ele>250</ele>
        <time>2019-04-02T09:46:20Z</time>
      </trkpt>
      <trkpt lat="47.72775" lon="3.63284">
        <ele>250</ele>
        <time>2019-04-02T09:46:24Z</time>
      </trkpt>
      <trkpt lat="47.72772" lon="3.63282">
        <ele>250</ele>
        <time>2019-04-02T09:46:27Z</time>
      </trkpt>
      <trkpt lat="47.72769" lon="3.63278">
        <ele>251</ele>
        <time>2019-04-02T09:46:31Z</time>
      </trkpt>
      <trkpt lat="47.72764" lon="3.63276">
        <ele>251</ele>
        <time>2019-04-02T09:46:36Z</time>
      </trkpt>
      <trkpt lat="47.72759" lon="3.63278">
        <ele>251</ele>
        <time>2019-04-02T09:46:39Z</time>
      </trkpt>
      <trkpt lat="47.72754" lon="3.63279">
        <ele>251</ele>
        <time>2019-04-02T09:46:42Z</time>
      </trkpt>
      <trkpt lat="47.72751" lon="3.6328">
        <ele>252</ele>
        <time>2019-04-02T09:46:44Z</time>
      </trkpt>
      <trkpt lat="47.72747" lon="3.63284">
        <ele>252</ele>
        <time>2019-04-02T09:46:48Z</time>
      </trkpt>
      <trkpt lat="47.72743" lon="3.6329">
        <ele>251</ele>
        <time>2019-04-02T09:46:52Z</time>
      </trkpt>
      <trkpt lat="47.72741" lon="3.63294">
        <ele>250</ele>
        <time>2019-04-02T09:46:56Z</time>
      </trkpt>
      <trkpt lat="47.72739" lon="3.63301">
        <ele>250</ele>
        <time>2019-04-02T09:47:01Z</time>
      </trkpt>
      <trkpt lat="47.72739" lon="3.63307">
        <ele>250</ele>
        <time>2019-04-02T09:47:05Z</time>
      </trkpt>
      <trkpt lat="47.72738" lon="3.63312">
        <ele>251</ele>
        <time>2019-04-02T09:47:09Z</time>
      </trkpt>
      <trkpt lat="47.72738" lon="3.63322">
        <ele>250</ele>
        <time>2019-04-02T09:47:14Z</time>
      </trkpt>
      <trkpt lat="47.72736" lon="3.6333">
        <ele>252</ele>
        <time>2019-04-02T09:47:20Z</time>
      </trkpt>
      <trkpt lat="47.72735" lon="3.63338">
        <ele>253</ele>
        <time>2019-04-02T09:47:25Z</time>
      </trkpt>
      <trkpt lat="47.72734" lon="3.63344">
        <ele>252</ele>
        <time>2019-04-02T09:47:27Z</time>
      </trkpt>
      <trkpt lat="47.72734" lon="3.63348">
        <ele>252</ele>
        <time>2019-04-02T09:47:29Z</time>
      </trkpt>
      <trkpt lat="47.72733" lon="3.63355">
        <ele>253</ele>
        <time>2019-04-02T09:47:33Z</time>
      </trkpt>
      <trkpt lat="47.72732" lon="3.63359">
        <ele>253</ele>
        <time>2019-04-02T09:47:37Z</time>
      </trkpt>
      <trkpt lat="47.72731" lon="3.63363">
        <ele>252</ele>
        <time>2019-04-02T09:47:39Z</time>
      </trkpt>
      <trkpt lat="47.72729" lon="3.63371">
        <ele>252</ele>
        <time>2019-04-02T09:47:44Z</time>
      </trkpt>
      <trkpt lat="47.72727" lon="3.63378">
        <ele>253</ele>
        <time>2019-04-02T09:47:49Z</time>
      </trkpt>
      <trkpt lat="47.72726" lon="3.63385">
        <ele>254</ele>
        <time>2019-04-02T09:47:53Z</time>
      </trkpt>
      <trkpt lat="47.72722" lon="3.63391">
        <ele>255</ele>
        <time>2019-04-02T09:47:58Z</time>
      </trkpt>
      <trkpt lat="47.7272" lon="3.63395">
        <ele>255</ele>
        <time>2019-04-02T09:48:01Z</time>
      </trkpt>
      <trkpt lat="47.72718" lon="3.63398">
        <ele>254</ele>
        <time>2019-04-02T09:48:03Z</time>
      </trkpt>
      <trkpt lat="47.72715" lon="3.63405">
        <ele>255</ele>
        <time>2019-04-02T09:48:08Z</time>
      </trkpt>
      <trkpt lat="47.72713" lon="3.6341">
        <ele>254</ele>
        <time>2019-04-02T09:48:10Z</time>
      </trkpt>
      <trkpt lat="47.72711" lon="3.63418">
        <ele>254</ele>
        <time>2019-04-02T09:48:14Z</time>
      </trkpt>
      <trkpt lat="47.72709" lon="3.63424">
        <ele>254</ele>
        <time>2019-04-02T09:48:17Z</time>
      </trkpt>
      <trkpt lat="47.72708" lon="3.63427">
        <ele>254</ele>
        <time>2019-04-02T09:48:19Z</time>
      </trkpt>
      <trkpt lat="47.72706" lon="3.63433">
        <ele>254</ele>
        <time>2019-04-02T09:48:23Z</time>
      </trkpt>
      <trkpt lat="47.72704" lon="3.6344">
        <ele>254</ele>
        <time>2019-04-02T09:48:27Z</time>
      </trkpt>
      <trkpt lat="47.72704" lon="3.63445">
        <ele>254</ele>
        <time>2019-04-02T09:48:29Z</time>
      </trkpt>
      <trkpt lat="47.72703" lon="3.63448">
        <ele>254</ele>
        <time>2019-04-02T09:48:31Z</time>
      </trkpt>
      <trkpt lat="47.72702" lon="3.63452">
        <ele>254</ele>
        <time>2019-04-02T09:48:34Z</time>
      </trkpt>
      <trkpt lat="47.72701" lon="3.63456">
        <ele>254</ele>
        <time>2019-04-02T09:48:36Z</time>
      </trkpt>
      <trkpt lat="47.727" lon="3.63459">
        <ele>254</ele>
        <time>2019-04-02T09:48:38Z</time>
      </trkpt>
      <trkpt lat="47.72699" lon="3.63463">
        <ele>254</ele>
        <time>2019-04-02T09:48:41Z</time>
      </trkpt>
      <trkpt lat="47.72697" lon="3.63471">
        <ele>254</ele>
        <time>2019-04-02T09:48:44Z</time>
      </trkpt>
      <trkpt lat="47.72695" lon="3.6348">
        <ele>253</ele>
        <time>2019-04-02T09:48:50Z</time>
      </trkpt>
      <trkpt lat="47.72694" lon="3.63484">
        <ele>253</ele>
        <time>2019-04-02T09:48:52Z</time>
      </trkpt>
      <trkpt lat="47.72692" lon="3.6349">
        <ele>253</ele>
        <time>2019-04-02T09:48:56Z</time>
      </trkpt>
      <trkpt lat="47.72691" lon="3.63493">
        <ele>253</ele>
        <time>2019-04-02T09:48:58Z</time>
      </trkpt>
      <trkpt lat="47.7269" lon="3.63497">
        <ele>253</ele>
        <time>2019-04-02T09:49:00Z</time>
      </trkpt>
      <trkpt lat="47.72688" lon="3.63503">
        <ele>253</ele>
        <time>2019-04-02T09:49:04Z</time>
      </trkpt>
      <trkpt lat="47.72686" lon="3.6351">
        <ele>253</ele>
        <time>2019-04-02T09:49:07Z</time>
      </trkpt>
      <trkpt lat="47.72684" lon="3.63514">
        <ele>254</ele>
        <time>2019-04-02T09:49:10Z</time>
      </trkpt>
      <trkpt lat="47.72683" lon="3.63518">
        <ele>254</ele>
        <time>2019-04-02T09:49:12Z</time>
      </trkpt>
      <trkpt lat="47.72681" lon="3.63522">
        <ele>253</ele>
        <time>2019-04-02T09:49:14Z</time>
      </trkpt>
      <trkpt lat="47.7268" lon="3.63526">
        <ele>253</ele>
        <time>2019-04-02T09:49:16Z</time>
      </trkpt>
      <trkpt lat="47.72678" lon="3.6353">
        <ele>253</ele>
        <time>2019-04-02T09:49:20Z</time>
      </trkpt>
      <trkpt lat="47.72677" lon="3.63533">
        <ele>253</ele>
        <time>2019-04-02T09:49:22Z</time>
      </trkpt>
      <trkpt lat="47.72675" lon="3.6354">
        <ele>253</ele>
        <time>2019-04-02T09:49:26Z</time>
      </trkpt>
      <trkpt lat="47.72673" lon="3.63543">
        <ele>254</ele>
        <time>2019-04-02T09:49:28Z</time>
      </trkpt>
      <trkpt lat="47.72671" lon="3.63549">
        <ele>254</ele>
        <time>2019-04-02T09:49:31Z</time>
      </trkpt>
      <trkpt lat="47.72669" lon="3.63557">
        <ele>254</ele>
        <time>2019-04-02T09:49:35Z</time>
      </trkpt>
      <trkpt lat="47.72668" lon="3.6356">
        <ele>254</ele>
        <time>2019-04-02T09:49:37Z</time>
      </trkpt>
      <trkpt lat="47.72665" lon="3.63567">
        <ele>254</ele>
        <time>2019-04-02T09:49:41Z</time>
      </trkpt>
      <trkpt lat="47.72662" lon="3.63575">
        <ele>254</ele>
        <time>2019-04-02T09:49:45Z</time>
      </trkpt>
      <trkpt lat="47.7266" lon="3.6358">
        <ele>255</ele>
        <time>2019-04-02T09:49:47Z</time>
      </trkpt>
      <trkpt lat="47.72658" lon="3.63585">
        <ele>254</ele>
        <time>2019-04-02T09:49:50Z</time>
      </trkpt>
      <trkpt lat="47.72656" lon="3.63589">
        <ele>254</ele>
        <time>2019-04-02T09:49:52Z</time>
      </trkpt>
      <trkpt lat="47.72654" lon="3.63593">
        <ele>255</ele>
        <time>2019-04-02T09:49:55Z</time>
      </trkpt>
      <trkpt lat="47.72652" lon="3.63599">
        <ele>255</ele>
        <time>2019-04-02T09:49:59Z</time>
      </trkpt>
      <trkpt lat="47.7265" lon="3.63603">
        <ele>255</ele>
        <time>2019-04-02T09:50:01Z</time>
      </trkpt>
      <trkpt lat="47.72649" lon="3.63607">
        <ele>255</ele>
        <time>2019-04-02T09:50:03Z</time>
      </trkpt>
      <trkpt lat="47.72647" lon="3.63616">
        <ele>255</ele>
        <time>2019-04-02T09:50:07Z</time>
      </trkpt>
      <trkpt lat="47.72645" lon="3.63623">
        <ele>255</ele>
        <time>2019-04-02T09:50:11Z</time>
      </trkpt>
      <trkpt lat="47.72644" lon="3.63629">
        <ele>255</ele>
        <time>2019-04-02T09:50:14Z</time>
      </trkpt>
      <trkpt lat="47.72643" lon="3.63638">
        <ele>255</ele>
        <time>2019-04-02T09:50:19Z</time>
      </trkpt>
      <trkpt lat="47.72642" lon="3.63646">
        <ele>255</ele>
        <time>2019-04-02T09:50:23Z</time>
      </trkpt>
      <trkpt lat="47.72641" lon="3.6365">
        <ele>255</ele>
        <time>2019-04-02T09:50:25Z</time>
      </trkpt>
      <trkpt lat="47.7264" lon="3.63656">
        <ele>255</ele>
        <time>2019-04-02T09:50:28Z</time>
      </trkpt>
      <trkpt lat="47.72639" lon="3.63664">
        <ele>254</ele>
        <time>2019-04-02T09:50:32Z</time>
      </trkpt>
      <trkpt lat="47.72638" lon="3.63673">
        <ele>255</ele>
        <time>2019-04-02T09:50:36Z</time>
      </trkpt>
      <trkpt lat="47.72637" lon="3.63679">
        <ele>255</ele>
        <time>2019-04-02T09:50:40Z</time>
      </trkpt>
      <trkpt lat="47.72636" lon="3.63687">
        <ele>256</ele>
        <time>2019-04-02T09:50:44Z</time>
      </trkpt>
      <trkpt lat="47.72636" lon="3.63692">
        <ele>256</ele>
        <time>2019-04-02T09:50:47Z</time>
      </trkpt>
      <trkpt lat="47.72636" lon="3.637">
        <ele>255</ele>
        <time>2019-04-02T09:50:51Z</time>
      </trkpt>
      <trkpt lat="47.72636" lon="3.63704">
        <ele>255</ele>
        <time>2019-04-02T09:50:52Z</time>
      </trkpt>
      <trkpt lat="47.72635" lon="3.63713">
        <ele>256</ele>
        <time>2019-04-02T09:50:56Z</time>
      </trkpt>
      <trkpt lat="47.72636" lon="3.6372">
        <ele>255</ele>
        <time>2019-04-02T09:51:00Z</time>
      </trkpt>
      <trkpt lat="47.72636" lon="3.63727">
        <ele>255</ele>
        <time>2019-04-02T09:51:03Z</time>
      </trkpt>
      <trkpt lat="47.72636" lon="3.63731">
        <ele>255</ele>
        <time>2019-04-02T09:51:05Z</time>
      </trkpt>
      <trkpt lat="47.72636" lon="3.63735">
        <ele>255</ele>
        <time>2019-04-02T09:51:07Z</time>
      </trkpt>
      <trkpt lat="47.72636" lon="3.6374">
        <ele>255</ele>
        <time>2019-04-02T09:51:09Z</time>
      </trkpt>
      <trkpt lat="47.72636" lon="3.63744">
        <ele>254</ele>
        <time>2019-04-02T09:51:11Z</time>
      </trkpt>
      <trkpt lat="47.72637" lon="3.63755">
        <ele>255</ele>
        <time>2019-04-02T09:51:16Z</time>
      </trkpt>
      <trkpt lat="47.72637" lon="3.63763">
        <ele>255</ele>
        <time>2019-04-02T09:51:20Z</time>
      </trkpt>
      <trkpt lat="47.72637" lon="3.6377">
        <ele>255</ele>
        <time>2019-04-02T09:51:24Z</time>
      </trkpt>
      <trkpt lat="47.72637" lon="3.63774">
        <ele>255</ele>
        <time>2019-04-02T09:51:26Z</time>
      </trkpt>
      <trkpt lat="47.72637" lon="3.63782">
        <ele>255</ele>
        <time>2019-04-02T09:51:30Z</time>
      </trkpt>
      <trkpt lat="47.72637" lon="3.63788">
        <ele>254</ele>
        <time>2019-04-02T09:51:33Z</time>
      </trkpt>
      <trkpt lat="47.72637" lon="3.63792">
        <ele>254</ele>
        <time>2019-04-02T09:51:35Z</time>
      </trkpt>
      <trkpt lat="47.72637" lon="3.63797">
        <ele>254</ele>
        <time>2019-04-02T09:51:38Z</time>
      </trkpt>
      <trkpt lat="47.72637" lon="3.63806">
        <ele>253</ele>
        <time>2019-04-02T09:51:42Z</time>
      </trkpt>
      <trkpt lat="47.72638" lon="3.63813">
        <ele>253</ele>
        <time>2019-04-02T09:51:46Z</time>
      </trkpt>
      <trkpt lat="47.72639" lon="3.6382">
        <ele>253</ele>
        <time>2019-04-02T09:51:49Z</time>
      </trkpt>
      <trkpt lat="47.72639" lon="3.63824">
        <ele>253</ele>
        <time>2019-04-02T09:51:51Z</time>
      </trkpt>
      <trkpt lat="47.72639" lon="3.63831">
        <ele>253</ele>
        <time>2019-04-02T09:51:54Z</time>
      </trkpt>
      <trkpt lat="47.72639" lon="3.63835">
        <ele>252</ele>
        <time>2019-04-02T09:51:56Z</time>
      </trkpt>
      <trkpt lat="47.72639" lon="3.63839">
        <ele>252</ele>
        <time>2019-04-02T09:51:58Z</time>
      </trkpt>
      <trkpt lat="47.7264" lon="3.63842">
        <ele>251</ele>
        <time>2019-04-02T09:52:00Z</time>
      </trkpt>
      <trkpt lat="47.7264" lon="3.63846">
        <ele>251</ele>
        <time>2019-04-02T09:52:02Z</time>
      </trkpt>
      <trkpt lat="47.7264" lon="3.6385">
        <ele>252</ele>
        <time>2019-04-02T09:52:04Z</time>
      </trkpt>
      <trkpt lat="47.7264" lon="3.6386">
        <ele>252</ele>
        <time>2019-04-02T09:52:08Z</time>
      </trkpt>
      <trkpt lat="47.72641" lon="3.63864">
        <ele>252</ele>
        <time>2019-04-02T09:52:10Z</time>
      </trkpt>
      <trkpt lat="47.72641" lon="3.6387">
        <ele>253</ele>
        <time>2019-04-02T09:52:14Z</time>
      </trkpt>
      <trkpt lat="47.72642" lon="3.63876">
        <ele>254</ele>
        <time>2019-04-02T09:52:17Z</time>
      </trkpt>
      <trkpt lat="47.72644" lon="3.63882">
        <ele>253</ele>
        <time>2019-04-02T09:52:20Z</time>
      </trkpt>
      <trkpt lat="47.72646" lon="3.63891">
        <ele>253</ele>
        <time>2019-04-02T09:52:24Z</time>
      </trkpt>
      <trkpt lat="47.72647" lon="3.63898">
        <ele>254</ele>
        <time>2019-04-02T09:52:28Z</time>
      </trkpt>
      <trkpt lat="47.72651" lon="3.63905">
        <ele>254</ele>
        <time>2019-04-02T09:52:32Z</time>
      </trkpt>
      <trkpt lat="47.72652" lon="3.63909">
        <ele>254</ele>
        <time>2019-04-02T09:52:34Z</time>
      </trkpt>
      <trkpt lat="47.72654" lon="3.63913">
        <ele>253</ele>
        <time>2019-04-02T09:52:37Z</time>
      </trkpt>
      <trkpt lat="47.72657" lon="3.63918">
        <ele>254</ele>
        <time>2019-04-02T09:52:40Z</time>
      </trkpt>
      <trkpt lat="47.72659" lon="3.63926">
        <ele>255</ele>
        <time>2019-04-02T09:52:45Z</time>
      </trkpt>
      <trkpt lat="47.7266" lon="3.63929">
        <ele>256</ele>
        <time>2019-04-02T09:52:47Z</time>
      </trkpt>
      <trkpt lat="47.72663" lon="3.63935">
        <ele>257</ele>
        <time>2019-04-02T09:52:51Z</time>
      </trkpt>
      <trkpt lat="47.72665" lon="3.63939">
        <ele>257</ele>
        <time>2019-04-02T09:52:53Z</time>
      </trkpt>
      <trkpt lat="47.72668" lon="3.63945">
        <ele>258</ele>
        <time>2019-04-02T09:52:57Z</time>
      </trkpt>
      <trkpt lat="47.7267" lon="3.63948">
        <ele>258</ele>
        <time>2019-04-02T09:52:59Z</time>
      </trkpt>
      <trkpt lat="47.72672" lon="3.63954">
        <ele>258</ele>
        <time>2019-04-02T09:53:02Z</time>
      </trkpt>
      <trkpt lat="47.72676" lon="3.6396">
        <ele>259</ele>
        <time>2019-04-02T09:53:06Z</time>
      </trkpt>
      <trkpt lat="47.72679" lon="3.63967">
        <ele>259</ele>
        <time>2019-04-02T09:53:09Z</time>
      </trkpt>
      <trkpt lat="47.72682" lon="3.63973">
        <ele>260</ele>
        <time>2019-04-02T09:53:13Z</time>
      </trkpt>
      <trkpt lat="47.72685" lon="3.63979">
        <ele>259</ele>
        <time>2019-04-02T09:53:16Z</time>
      </trkpt>
      <trkpt lat="47.72688" lon="3.63984">
        <ele>260</ele>
        <time>2019-04-02T09:53:19Z</time>
      </trkpt>
      <trkpt lat="47.72692" lon="3.63991">
        <ele>260</ele>
        <time>2019-04-02T09:53:23Z</time>
      </trkpt>
      <trkpt lat="47.72694" lon="3.63999">
        <ele>260</ele>
        <time>2019-04-02T09:53:27Z</time>
      </trkpt>
      <trkpt lat="47.72697" lon="3.64005">
        <ele>260</ele>
        <time>2019-04-02T09:53:31Z</time>
      </trkpt>
      <trkpt lat="47.72698" lon="3.64008">
        <ele>260</ele>
        <time>2019-04-02T09:53:33Z</time>
      </trkpt>
      <trkpt lat="47.72701" lon="3.64014">
        <ele>260</ele>
        <time>2019-04-02T09:53:37Z</time>
      </trkpt>
      <trkpt lat="47.72702" lon="3.64022">
        <ele>260</ele>
        <time>2019-04-02T09:53:42Z</time>
      </trkpt>
      <trkpt lat="47.72703" lon="3.64032">
        <ele>260</ele>
        <time>2019-04-02T09:53:48Z</time>
      </trkpt>
      <trkpt lat="47.72703" lon="3.64036">
        <ele>261</ele>
        <time>2019-04-02T09:53:50Z</time>
      </trkpt>
      <trkpt lat="47.72704" lon="3.6404">
        <ele>261</ele>
        <time>2019-04-02T09:53:52Z</time>
      </trkpt>
      <trkpt lat="47.72704" lon="3.64046">
        <ele>261</ele>
        <time>2019-04-02T09:53:55Z</time>
      </trkpt>
      <trkpt lat="47.72705" lon="3.64054">
        <ele>261</ele>
        <time>2019-04-02T09:54:00Z</time>
      </trkpt>
      <trkpt lat="47.72705" lon="3.64061">
        <ele>259</ele>
        <time>2019-04-02T09:54:04Z</time>
      </trkpt>
      <trkpt lat="47.72705" lon="3.64067">
        <ele>260</ele>
        <time>2019-04-02T09:54:07Z</time>
      </trkpt>
      <trkpt lat="47.72704" lon="3.64074">
        <ele>260</ele>
        <time>2019-04-02T09:54:11Z</time>
      </trkpt>
      <trkpt lat="47.72704" lon="3.64079">
        <ele>260</ele>
        <time>2019-04-02T09:54:13Z</time>
      </trkpt>
      <trkpt lat="47.72704" lon="3.64083">
        <ele>260</ele>
        <time>2019-04-02T09:54:15Z</time>
      </trkpt>
      <trkpt lat="47.72702" lon="3.64091">
        <ele>259</ele>
        <time>2019-04-02T09:54:19Z</time>
      </trkpt>
      <trkpt lat="47.72701" lon="3.64095">
        <ele>259</ele>
        <time>2019-04-02T09:54:21Z</time>
      </trkpt>
      <trkpt lat="47.72701" lon="3.64105">
        <ele>259</ele>
        <time>2019-04-02T09:54:26Z</time>
      </trkpt>
      <trkpt lat="47.72701" lon="3.64113">
        <ele>260</ele>
        <time>2019-04-02T09:54:29Z</time>
      </trkpt>
      <trkpt lat="47.727" lon="3.64117">
        <ele>259</ele>
        <time>2019-04-02T09:54:31Z</time>
      </trkpt>
      <trkpt lat="47.727" lon="3.64124">
        <ele>259</ele>
        <time>2019-04-02T09:54:35Z</time>
      </trkpt>
      <trkpt lat="47.727" lon="3.64127">
        <ele>259</ele>
        <time>2019-04-02T09:54:37Z</time>
      </trkpt>
      <trkpt lat="47.727" lon="3.64136">
        <ele>258</ele>
        <time>2019-04-02T09:54:41Z</time>
      </trkpt>
      <trkpt lat="47.727" lon="3.64142">
        <ele>257</ele>
        <time>2019-04-02T09:54:44Z</time>
      </trkpt>
      <trkpt lat="47.72699" lon="3.64149">
        <ele>258</ele>
        <time>2019-04-02T09:54:47Z</time>
      </trkpt>
      <trkpt lat="47.72701" lon="3.64155">
        <ele>258</ele>
        <time>2019-04-02T09:54:53Z</time>
      </trkpt>
      <trkpt lat="47.72701" lon="3.64155">
        <ele>258</ele>
        <time>2019-04-02T09:55:01Z</time>
      </trkpt>
      <trkpt lat="47.72701" lon="3.64155">
        <ele>258</ele>
        <time>2019-04-02T09:55:02Z</time>
      </trkpt>
      <trkpt lat="47.72699" lon="3.64163">
        <ele>256</ele>
        <time>2019-04-02T09:56:32Z</time>
      </trkpt>
      <trkpt lat="47.72696" lon="3.6417">
        <ele>255</ele>
        <time>2019-04-02T09:56:37Z</time>
      </trkpt>
      <trkpt lat="47.72694" lon="3.64173">
        <ele>254</ele>
        <time>2019-04-02T09:56:39Z</time>
      </trkpt>
      <trkpt lat="47.72691" lon="3.64183">
        <ele>255</ele>
        <time>2019-04-02T09:56:44Z</time>
      </trkpt>
      <trkpt lat="47.7269" lon="3.64187">
        <ele>255</ele>
        <time>2019-04-02T09:56:46Z</time>
      </trkpt>
      <trkpt lat="47.72689" lon="3.6419">
        <ele>255</ele>
        <time>2019-04-02T09:56:48Z</time>
      </trkpt>
      <trkpt lat="47.72688" lon="3.64197">
        <ele>255</ele>
        <time>2019-04-02T09:56:52Z</time>
      </trkpt>
      <trkpt lat="47.72686" lon="3.64204">
        <ele>255</ele>
        <time>2019-04-02T09:56:56Z</time>
      </trkpt>
      <trkpt lat="47.72684" lon="3.64208">
        <ele>255</ele>
        <time>2019-04-02T09:56:59Z</time>
      </trkpt>
      <trkpt lat="47.72682" lon="3.64215">
        <ele>255</ele>
        <time>2019-04-02T09:57:03Z</time>
      </trkpt>
      <trkpt lat="47.72681" lon="3.6422">
        <ele>254</ele>
        <time>2019-04-02T09:57:06Z</time>
      </trkpt>
      <trkpt lat="47.7268" lon="3.64223">
        <ele>254</ele>
        <time>2019-04-02T09:57:08Z</time>
      </trkpt>
      <trkpt lat="47.72677" lon="3.6423">
        <ele>255</ele>
        <time>2019-04-02T09:57:12Z</time>
      </trkpt>
      <trkpt lat="47.72675" lon="3.64233">
        <ele>255</ele>
        <time>2019-04-02T09:57:14Z</time>
      </trkpt>
      <trkpt lat="47.72673" lon="3.64239">
        <ele>254</ele>
        <time>2019-04-02T09:57:18Z</time>
      </trkpt>
      <trkpt lat="47.72671" lon="3.64243">
        <ele>254</ele>
        <time>2019-04-02T09:57:21Z</time>
      </trkpt>
      <trkpt lat="47.7267" lon="3.64247">
        <ele>254</ele>
        <time>2019-04-02T09:57:23Z</time>
      </trkpt>
      <trkpt lat="47.72669" lon="3.6425">
        <ele>254</ele>
        <time>2019-04-02T09:57:25Z</time>
      </trkpt>
      <trkpt lat="47.72666" lon="3.64256">
        <ele>253</ele>
        <time>2019-04-02T09:57:29Z</time>
      </trkpt>
      <trkpt lat="47.72664" lon="3.64259">
        <ele>254</ele>
        <time>2019-04-02T09:57:32Z</time>
      </trkpt>
      <trkpt lat="47.72663" lon="3.64262">
        <ele>253</ele>
        <time>2019-04-02T09:57:34Z</time>
      </trkpt>
      <trkpt lat="47.72659" lon="3.64268">
        <ele>253</ele>
        <time>2019-04-02T09:57:38Z</time>
      </trkpt>
      <trkpt lat="47.72656" lon="3.64273">
        <ele>252</ele>
        <time>2019-04-02T09:57:41Z</time>
      </trkpt>
      <trkpt lat="47.72654" lon="3.64277">
        <ele>252</ele>
        <time>2019-04-02T09:57:44Z</time>
      </trkpt>
      <trkpt lat="47.72653" lon="3.6428">
        <ele>252</ele>
        <time>2019-04-02T09:57:46Z</time>
      </trkpt>
      <trkpt lat="47.72651" lon="3.64283">
        <ele>252</ele>
        <time>2019-04-02T09:57:48Z</time>
      </trkpt>
      <trkpt lat="47.72649" lon="3.6429">
        <ele>252</ele>
        <time>2019-04-02T09:57:52Z</time>
      </trkpt>
      <trkpt lat="47.72648" lon="3.64294">
        <ele>252</ele>
        <time>2019-04-02T09:57:54Z</time>
      </trkpt>
      <trkpt lat="47.72647" lon="3.64301">
        <ele>251</ele>
        <time>2019-04-02T09:57:58Z</time>
      </trkpt>
      <trkpt lat="47.72646" lon="3.6431">
        <ele>251</ele>
        <time>2019-04-02T09:58:02Z</time>
      </trkpt>
      <trkpt lat="47.72646" lon="3.64316">
        <ele>251</ele>
        <time>2019-04-02T09:58:04Z</time>
      </trkpt>
      <trkpt lat="47.72646" lon="3.6432">
        <ele>251</ele>
        <time>2019-04-02T09:58:06Z</time>
      </trkpt>
      <trkpt lat="47.72645" lon="3.64325">
        <ele>251</ele>
        <time>2019-04-02T09:58:09Z</time>
      </trkpt>
      <trkpt lat="47.72645" lon="3.64331">
        <ele>252</ele>
        <time>2019-04-02T09:58:12Z</time>
      </trkpt>
      <trkpt lat="47.72647" lon="3.64342">
        <ele>252</ele>
        <time>2019-04-02T09:58:18Z</time>
      </trkpt>
      <trkpt lat="47.72648" lon="3.64347">
        <ele>252</ele>
        <time>2019-04-02T09:58:22Z</time>
      </trkpt>
      <trkpt lat="47.7265" lon="3.64354">
        <ele>252</ele>
        <time>2019-04-02T09:58:24Z</time>
      </trkpt>
      <trkpt lat="47.7265" lon="3.64357">
        <ele>252</ele>
        <time>2019-04-02T09:58:26Z</time>
      </trkpt>
      <trkpt lat="47.72652" lon="3.64366">
        <ele>252</ele>
        <time>2019-04-02T09:58:30Z</time>
      </trkpt>
      <trkpt lat="47.72654" lon="3.64373">
        <ele>252</ele>
        <time>2019-04-02T09:58:34Z</time>
      </trkpt>
      <trkpt lat="47.72656" lon="3.64381">
        <ele>253</ele>
        <time>2019-04-02T09:58:38Z</time>
      </trkpt>
      <trkpt lat="47.72657" lon="3.64386">
        <ele>252</ele>
        <time>2019-04-02T09:58:41Z</time>
      </trkpt>
      <trkpt lat="47.72659" lon="3.64392">
        <ele>253</ele>
        <time>2019-04-02T09:58:44Z</time>
      </trkpt>
      <trkpt lat="47.7266" lon="3.64395">
        <ele>253</ele>
        <time>2019-04-02T09:58:46Z</time>
      </trkpt>
      <trkpt lat="47.72663" lon="3.64401">
        <ele>253</ele>
        <time>2019-04-02T09:58:50Z</time>
      </trkpt>
      <trkpt lat="47.72665" lon="3.64409">
        <ele>252</ele>
        <time>2019-04-02T09:58:53Z</time>
      </trkpt>
      <trkpt lat="47.72666" lon="3.64412">
        <ele>252</ele>
        <time>2019-04-02T09:58:56Z</time>
      </trkpt>
      <trkpt lat="47.72668" lon="3.6442">
        <ele>252</ele>
        <time>2019-04-02T09:58:59Z</time>
      </trkpt>
      <trkpt lat="47.72671" lon="3.64426">
        <ele>252</ele>
        <time>2019-04-02T09:59:04Z</time>
      </trkpt>
      <trkpt lat="47.72672" lon="3.64429">
        <ele>253</ele>
        <time>2019-04-02T09:59:06Z</time>
      </trkpt>
      <trkpt lat="47.72676" lon="3.64434">
        <ele>252</ele>
        <time>2019-04-02T09:59:10Z</time>
      </trkpt>
      <trkpt lat="47.72679" lon="3.64441">
        <ele>251</ele>
        <time>2019-04-02T09:59:14Z</time>
      </trkpt>
      <trkpt lat="47.72682" lon="3.64449">
        <ele>252</ele>
        <time>2019-04-02T09:59:18Z</time>
      </trkpt>
      <trkpt lat="47.72683" lon="3.64452">
        <ele>252</ele>
        <time>2019-04-02T09:59:20Z</time>
      </trkpt>
      <trkpt lat="47.72685" lon="3.64456">
        <ele>251</ele>
        <time>2019-04-02T09:59:22Z</time>
      </trkpt>
      <trkpt lat="47.72686" lon="3.64459">
        <ele>252</ele>
        <time>2019-04-02T09:59:24Z</time>
      </trkpt>
      <trkpt lat="47.72687" lon="3.64463">
        <ele>252</ele>
        <time>2019-04-02T09:59:26Z</time>
      </trkpt>
      <trkpt lat="47.72688" lon="3.64467">
        <ele>252</ele>
        <time>2019-04-02T09:59:29Z</time>
      </trkpt>
      <trkpt lat="47.7269" lon="3.64475">
        <ele>253</ele>
        <time>2019-04-02T09:59:33Z</time>
      </trkpt>
      <trkpt lat="47.72692" lon="3.64482">
        <ele>253</ele>
        <time>2019-04-02T09:59:37Z</time>
      </trkpt>
      <trkpt lat="47.72692" lon="3.64489">
        <ele>253</ele>
        <time>2019-04-02T09:59:41Z</time>
      </trkpt>
      <trkpt lat="47.72692" lon="3.64493">
        <ele>253</ele>
        <time>2019-04-02T09:59:43Z</time>
      </trkpt>
      <trkpt lat="47.72693" lon="3.64501">
        <ele>252</ele>
        <time>2019-04-02T09:59:48Z</time>
      </trkpt>
      <trkpt lat="47.72693" lon="3.64505">
        <ele>252</ele>
        <time>2019-04-02T09:59:50Z</time>
      </trkpt>
      <trkpt lat="47.72693" lon="3.64509">
        <ele>251</ele>
        <time>2019-04-02T09:59:52Z</time>
      </trkpt>
      <trkpt lat="47.72694" lon="3.64516">
        <ele>251</ele>
        <time>2019-04-02T09:59:56Z</time>
      </trkpt>
      <trkpt lat="47.72694" lon="3.6452">
        <ele>251</ele>
        <time>2019-04-02T09:59:58Z</time>
      </trkpt>
      <trkpt lat="47.72694" lon="3.64524">
        <ele>251</ele>
        <time>2019-04-02T10:00:00Z</time>
      </trkpt>
      <trkpt lat="47.72696" lon="3.64531">
        <ele>251</ele>
        <time>2019-04-02T10:00:03Z</time>
      </trkpt>
      <trkpt lat="47.72696" lon="3.64538">
        <ele>251</ele>
        <time>2019-04-02T10:00:07Z</time>
      </trkpt>
      <trkpt lat="47.72698" lon="3.64545">
        <ele>250</ele>
        <time>2019-04-02T10:00:13Z</time>
      </trkpt>
      <trkpt lat="47.72702" lon="3.64551">
        <ele>250</ele>
        <time>2019-04-02T10:00:20Z</time>
      </trkpt>
      <trkpt lat="47.72706" lon="3.64555">
        <ele>250</ele>
        <time>2019-04-02T10:00:25Z</time>
      </trkpt>
      <trkpt lat="47.72711" lon="3.6456">
        <ele>251</ele>
        <time>2019-04-02T10:00:29Z</time>
      </trkpt>
      <trkpt lat="47.72716" lon="3.64563">
        <ele>251</ele>
        <time>2019-04-02T10:00:33Z</time>
      </trkpt>
      <trkpt lat="47.7272" lon="3.64566">
        <ele>251</ele>
        <time>2019-04-02T10:00:36Z</time>
      </trkpt>
      <trkpt lat="47.72723" lon="3.64568">
        <ele>251</ele>
        <time>2019-04-02T10:00:38Z</time>
      </trkpt>
      <trkpt lat="47.72725" lon="3.6457">
        <ele>251</ele>
        <time>2019-04-02T10:00:40Z</time>
      </trkpt>
      <trkpt lat="47.72727" lon="3.64572">
        <ele>251</ele>
        <time>2019-04-02T10:00:42Z</time>
      </trkpt>
      <trkpt lat="47.72732" lon="3.64577">
        <ele>250</ele>
        <time>2019-04-02T10:00:46Z</time>
      </trkpt>
      <trkpt lat="47.72734" lon="3.6458">
        <ele>251</ele>
        <time>2019-04-02T10:00:49Z</time>
      </trkpt>
      <trkpt lat="47.72739" lon="3.64584">
        <ele>251</ele>
        <time>2019-04-02T10:00:52Z</time>
      </trkpt>
      <trkpt lat="47.72742" lon="3.64588">
        <ele>251</ele>
        <time>2019-04-02T10:00:55Z</time>
      </trkpt>
      <trkpt lat="47.72744" lon="3.64591">
        <ele>252</ele>
        <time>2019-04-02T10:00:58Z</time>
      </trkpt>
      <trkpt lat="47.72748" lon="3.64596">
        <ele>251</ele>
        <time>2019-04-02T10:01:02Z</time>
      </trkpt>
      <trkpt lat="47.72751" lon="3.64598">
        <ele>252</ele>
        <time>2019-04-02T10:01:04Z</time>
      </trkpt>
      <trkpt lat="47.72753" lon="3.64601">
        <ele>252</ele>
        <time>2019-04-02T10:01:07Z</time>
      </trkpt>
      <trkpt lat="47.72756" lon="3.64607">
        <ele>253</ele>
        <time>2019-04-02T10:01:11Z</time>
      </trkpt>
      <trkpt lat="47.72759" lon="3.6461">
        <ele>253</ele>
        <time>2019-04-02T10:01:14Z</time>
      </trkpt>
      <trkpt lat="47.72759" lon="3.64618">
        <ele>253</ele>
        <time>2019-04-02T10:01:19Z</time>
      </trkpt>
      <trkpt lat="47.72756" lon="3.64625">
        <ele>252</ele>
        <time>2019-04-02T10:01:23Z</time>
      </trkpt>
      <trkpt lat="47.72752" lon="3.64631">
        <ele>253</ele>
        <time>2019-04-02T10:01:27Z</time>
      </trkpt>
      <trkpt lat="47.72749" lon="3.64636">
        <ele>253</ele>
        <time>2019-04-02T10:01:30Z</time>
      </trkpt>
      <trkpt lat="47.72745" lon="3.6464">
        <ele>253</ele>
        <time>2019-04-02T10:01:34Z</time>
      </trkpt>
      <trkpt lat="47.72743" lon="3.64642">
        <ele>254</ele>
        <time>2019-04-02T10:01:36Z</time>
      </trkpt>
      <trkpt lat="47.72739" lon="3.64646">
        <ele>254</ele>
        <time>2019-04-02T10:01:39Z</time>
      </trkpt>
      <trkpt lat="47.72737" lon="3.64648">
        <ele>253</ele>
        <time>2019-04-02T10:01:41Z</time>
      </trkpt>
      <trkpt lat="47.72735" lon="3.64651">
        <ele>253</ele>
        <time>2019-04-02T10:01:43Z</time>
      </trkpt>
      <trkpt lat="47.72731" lon="3.64654">
        <ele>254</ele>
        <time>2019-04-02T10:01:46Z</time>
      </trkpt>
      <trkpt lat="47.72729" lon="3.64657">
        <ele>253</ele>
        <time>2019-04-02T10:01:48Z</time>
      </trkpt>
      <trkpt lat="47.72726" lon="3.6466">
        <ele>254</ele>
        <time>2019-04-02T10:01:51Z</time>
      </trkpt>
      <trkpt lat="47.72722" lon="3.64664">
        <ele>254</ele>
        <time>2019-04-02T10:01:55Z</time>
      </trkpt>
      <trkpt lat="47.72719" lon="3.64671">
        <ele>254</ele>
        <time>2019-04-02T10:01:59Z</time>
      </trkpt>
      <trkpt lat="47.72714" lon="3.64675">
        <ele>254</ele>
        <time>2019-04-02T10:02:03Z</time>
      </trkpt>
      <trkpt lat="47.7271" lon="3.64681">
        <ele>254</ele>
        <time>2019-04-02T10:02:07Z</time>
      </trkpt>
      <trkpt lat="47.72705" lon="3.64686">
        <ele>254</ele>
        <time>2019-04-02T10:02:11Z</time>
      </trkpt>
      <trkpt lat="47.72703" lon="3.64688">
        <ele>254</ele>
        <time>2019-04-02T10:02:13Z</time>
      </trkpt>
      <trkpt lat="47.72701" lon="3.6469">
        <ele>255</ele>
        <time>2019-04-02T10:02:15Z</time>
      </trkpt>
      <trkpt lat="47.72698" lon="3.64693">
        <ele>256</ele>
        <time>2019-04-02T10:02:18Z</time>
      </trkpt>
      <trkpt lat="47.72696" lon="3.64695">
        <ele>256</ele>
        <time>2019-04-02T10:02:20Z</time>
      </trkpt>
      <trkpt lat="47.72693" lon="3.64698">
        <ele>256</ele>
        <time>2019-04-02T10:02:23Z</time>
      </trkpt>
      <trkpt lat="47.7269" lon="3.64701">
        <ele>256</ele>
        <time>2019-04-02T10:02:26Z</time>
      </trkpt>
      <trkpt lat="47.72688" lon="3.64703">
        <ele>256</ele>
        <time>2019-04-02T10:02:28Z</time>
      </trkpt>
      <trkpt lat="47.72685" lon="3.64707">
        <ele>257</ele>
        <time>2019-04-02T10:02:31Z</time>
      </trkpt>
      <trkpt lat="47.72682" lon="3.64711">
        <ele>257</ele>
        <time>2019-04-02T10:02:34Z</time>
      </trkpt>
      <trkpt lat="47.72679" lon="3.64715">
        <ele>257</ele>
        <time>2019-04-02T10:02:37Z</time>
      </trkpt>
      <trkpt lat="47.72676" lon="3.64719">
        <ele>256</ele>
        <time>2019-04-02T10:02:40Z</time>
      </trkpt>
      <trkpt lat="47.72674" lon="3.64721">
        <ele>256</ele>
        <time>2019-04-02T10:02:42Z</time>
      </trkpt>
      <trkpt lat="47.7267" lon="3.64725">
        <ele>257</ele>
        <time>2019-04-02T10:02:46Z</time>
      </trkpt>
      <trkpt lat="47.72665" lon="3.64731">
        <ele>257</ele>
        <time>2019-04-02T10:02:50Z</time>
      </trkpt>
      <trkpt lat="47.72663" lon="3.64735">
        <ele>257</ele>
        <time>2019-04-02T10:02:53Z</time>
      </trkpt>
      <trkpt lat="47.72661" lon="3.64737">
        <ele>257</ele>
        <time>2019-04-02T10:02:55Z</time>
      </trkpt>
      <trkpt lat="47.72658" lon="3.6474">
        <ele>257</ele>
        <time>2019-04-02T10:02:57Z</time>
      </trkpt>
      <trkpt lat="47.72655" lon="3.64743">
        <ele>258</ele>
        <time>2019-04-02T10:03:00Z</time>
      </trkpt>
      <trkpt lat="47.72653" lon="3.64745">
        <ele>257</ele>
        <time>2019-04-02T10:03:02Z</time>
      </trkpt>
      <trkpt lat="47.72649" lon="3.64751">
        <ele>258</ele>
        <time>2019-04-02T10:03:06Z</time>
      </trkpt>
      <trkpt lat="47.72645" lon="3.64756">
        <ele>258</ele>
        <time>2019-04-02T10:03:10Z</time>
      </trkpt>
      <trkpt lat="47.7264" lon="3.64761">
        <ele>260</ele>
        <time>2019-04-02T10:03:14Z</time>
      </trkpt>
      <trkpt lat="47.72636" lon="3.64764">
        <ele>260</ele>
        <time>2019-04-02T10:03:18Z</time>
      </trkpt>
      <trkpt lat="47.72634" lon="3.64767">
        <ele>261</ele>
        <time>2019-04-02T10:03:20Z</time>
      </trkpt>
      <trkpt lat="47.72632" lon="3.6477">
        <ele>260</ele>
        <time>2019-04-02T10:03:22Z</time>
      </trkpt>
      <trkpt lat="47.72625" lon="3.64774">
        <ele>261</ele>
        <time>2019-04-02T10:03:27Z</time>
      </trkpt>
      <trkpt lat="47.72621" lon="3.64776">
        <ele>261</ele>
        <time>2019-04-02T10:03:30Z</time>
      </trkpt>
      <trkpt lat="47.72619" lon="3.64778">
        <ele>261</ele>
        <time>2019-04-02T10:03:32Z</time>
      </trkpt>
      <trkpt lat="47.72614" lon="3.64781">
        <ele>262</ele>
        <time>2019-04-02T10:03:36Z</time>
      </trkpt>
      <trkpt lat="47.72611" lon="3.64783">
        <ele>264</ele>
        <time>2019-04-02T10:03:39Z</time>
      </trkpt>
      <trkpt lat="47.72606" lon="3.64785">
        <ele>263</ele>
        <time>2019-04-02T10:03:44Z</time>
      </trkpt>
      <trkpt lat="47.72604" lon="3.64786">
        <ele>264</ele>
        <time>2019-04-02T10:03:46Z</time>
      </trkpt>
      <trkpt lat="47.72601" lon="3.64787">
        <ele>264</ele>
        <time>2019-04-02T10:03:48Z</time>
      </trkpt>
      <trkpt lat="47.72598" lon="3.64789">
        <ele>264</ele>
        <time>2019-04-02T10:03:51Z</time>
      </trkpt>
      <trkpt lat="47.72595" lon="3.6479">
        <ele>264</ele>
        <time>2019-04-02T10:03:53Z</time>
      </trkpt>
      <trkpt lat="47.72593" lon="3.6479">
        <ele>264</ele>
        <time>2019-04-02T10:03:55Z</time>
      </trkpt>
      <trkpt lat="47.7259" lon="3.64791">
        <ele>265</ele>
        <time>2019-04-02T10:03:58Z</time>
      </trkpt>
      <trkpt lat="47.72586" lon="3.64792">
        <ele>265</ele>
        <time>2019-04-02T10:04:02Z</time>
      </trkpt>
      <trkpt lat="47.72581" lon="3.64793">
        <ele>266</ele>
        <time>2019-04-02T10:04:06Z</time>
      </trkpt>
      <trkpt lat="47.72576" lon="3.64794">
        <ele>267</ele>
        <time>2019-04-02T10:04:10Z</time>
      </trkpt>
      <trkpt lat="47.72572" lon="3.64796">
        <ele>266</ele>
        <time>2019-04-02T10:04:14Z</time>
      </trkpt>
      <trkpt lat="47.72566" lon="3.64798">
        <ele>266</ele>
        <time>2019-04-02T10:04:18Z</time>
      </trkpt>
      <trkpt lat="47.72563" lon="3.64799">
        <ele>267</ele>
        <time>2019-04-02T10:04:21Z</time>
      </trkpt>
      <trkpt lat="47.7256" lon="3.648">
        <ele>267</ele>
        <time>2019-04-02T10:04:23Z</time>
      </trkpt>
      <trkpt lat="47.72557" lon="3.64801">
        <ele>267</ele>
        <time>2019-04-02T10:04:26Z</time>
      </trkpt>
      <trkpt lat="47.72553" lon="3.64803">
        <ele>267</ele>
        <time>2019-04-02T10:04:29Z</time>
      </trkpt>
      <trkpt lat="47.72548" lon="3.64804">
        <ele>268</ele>
        <time>2019-04-02T10:04:33Z</time>
      </trkpt>
      <trkpt lat="47.72545" lon="3.64804">
        <ele>268</ele>
        <time>2019-04-02T10:04:35Z</time>
      </trkpt>
      <trkpt lat="47.72542" lon="3.64805">
        <ele>269</ele>
        <time>2019-04-02T10:04:38Z</time>
      </trkpt>
      <trkpt lat="47.72539" lon="3.64806">
        <ele>269</ele>
        <time>2019-04-02T10:04:40Z</time>
      </trkpt>
      <trkpt lat="47.72534" lon="3.64807">
        <ele>269</ele>
        <time>2019-04-02T10:04:44Z</time>
      </trkpt>
      <trkpt lat="47.72532" lon="3.64807">
        <ele>270</ele>
        <time>2019-04-02T10:04:46Z</time>
      </trkpt>
      <trkpt lat="47.72526" lon="3.64808">
        <ele>271</ele>
        <time>2019-04-02T10:04:51Z</time>
      </trkpt>
      <trkpt lat="47.72522" lon="3.64811">
        <ele>272</ele>
        <time>2019-04-02T10:04:55Z</time>
      </trkpt>
      <trkpt lat="47.72519" lon="3.64813">
        <ele>272</ele>
        <time>2019-04-02T10:04:58Z</time>
      </trkpt>
      <trkpt lat="47.72516" lon="3.64814">
        <ele>272</ele>
        <time>2019-04-02T10:05:00Z</time>
      </trkpt>
      <trkpt lat="47.72511" lon="3.64816">
        <ele>273</ele>
        <time>2019-04-02T10:05:04Z</time>
      </trkpt>
      <trkpt lat="47.72506" lon="3.64818">
        <ele>274</ele>
        <time>2019-04-02T10:05:08Z</time>
      </trkpt>
      <trkpt lat="47.72502" lon="3.6482">
        <ele>275</ele>
        <time>2019-04-02T10:05:11Z</time>
      </trkpt>
      <trkpt lat="47.725" lon="3.64821">
        <ele>276</ele>
        <time>2019-04-02T10:05:13Z</time>
      </trkpt>
      <trkpt lat="47.72497" lon="3.64823">
        <ele>276</ele>
        <time>2019-04-02T10:05:16Z</time>
      </trkpt>
      <trkpt lat="47.72495" lon="3.64824">
        <ele>276</ele>
        <time>2019-04-02T10:05:18Z</time>
      </trkpt>
      <trkpt lat="47.72492" lon="3.64825">
        <ele>277</ele>
        <time>2019-04-02T10:05:20Z</time>
      </trkpt>
      <trkpt lat="47.72488" lon="3.64827">
        <ele>277</ele>
        <time>2019-04-02T10:05:23Z</time>
      </trkpt>
      <trkpt lat="47.72483" lon="3.64831">
        <ele>277</ele>
        <time>2019-04-02T10:05:27Z</time>
      </trkpt>
      <trkpt lat="47.72478" lon="3.64834">
        <ele>277</ele>
        <time>2019-04-02T10:05:32Z</time>
      </trkpt>
      <trkpt lat="47.72473" lon="3.64835">
        <ele>277</ele>
        <time>2019-04-02T10:05:36Z</time>
      </trkpt>
      <trkpt lat="47.72472" lon="3.64838">
        <ele>278</ele>
        <time>2019-04-02T10:05:45Z</time>
      </trkpt>
      <trkpt lat="47.72467" lon="3.64843">
        <ele>278</ele>
        <time>2019-04-02T10:05:55Z</time>
      </trkpt>
      <trkpt lat="47.72464" lon="3.64851">
        <ele>278</ele>
        <time>2019-04-02T10:05:59Z</time>
      </trkpt>
      <trkpt lat="47.7246" lon="3.64856">
        <ele>278</ele>
        <time>2019-04-02T10:06:03Z</time>
      </trkpt>
      <trkpt lat="47.72458" lon="3.64859">
        <ele>279</ele>
        <time>2019-04-02T10:06:07Z</time>
      </trkpt>
      <trkpt lat="47.72454" lon="3.64865">
        <ele>281</ele>
        <time>2019-04-02T10:06:11Z</time>
      </trkpt>
      <trkpt lat="47.72449" lon="3.6487">
        <ele>281</ele>
        <time>2019-04-02T10:06:17Z</time>
      </trkpt>
      <trkpt lat="47.72446" lon="3.64877">
        <ele>281</ele>
        <time>2019-04-02T10:06:22Z</time>
      </trkpt>
      <trkpt lat="47.72443" lon="3.64883">
        <ele>282</ele>
        <time>2019-04-02T10:06:26Z</time>
      </trkpt>
      <trkpt lat="47.72441" lon="3.64888">
        <ele>282</ele>
        <time>2019-04-02T10:06:29Z</time>
      </trkpt>
      <trkpt lat="47.72439" lon="3.64891">
        <ele>282</ele>
        <time>2019-04-02T10:06:31Z</time>
      </trkpt>
      <trkpt lat="47.72436" lon="3.64895">
        <ele>283</ele>
        <time>2019-04-02T10:06:35Z</time>
      </trkpt>
      <trkpt lat="47.72433" lon="3.64899">
        <ele>282</ele>
        <time>2019-04-02T10:06:37Z</time>
      </trkpt>
      <trkpt lat="47.7243" lon="3.64905">
        <ele>283</ele>
        <time>2019-04-02T10:06:41Z</time>
      </trkpt>
      <trkpt lat="47.72428" lon="3.64908">
        <ele>284</ele>
        <time>2019-04-02T10:06:43Z</time>
      </trkpt>
      <trkpt lat="47.72426" lon="3.64911">
        <ele>284</ele>
        <time>2019-04-02T10:06:47Z</time>
      </trkpt>
      <trkpt lat="47.72424" lon="3.64915">
        <ele>285</ele>
        <time>2019-04-02T10:06:49Z</time>
      </trkpt>
      <trkpt lat="47.72422" lon="3.64918">
        <ele>285</ele>
        <time>2019-04-02T10:06:51Z</time>
      </trkpt>
      <trkpt lat="47.72419" lon="3.64923">
        <ele>285</ele>
        <time>2019-04-02T10:06:57Z</time>
      </trkpt>
      <trkpt lat="47.72418" lon="3.6493">
        <ele>284</ele>
        <time>2019-04-02T10:07:01Z</time>
      </trkpt>
      <trkpt lat="47.72414" lon="3.64938">
        <ele>285</ele>
        <time>2019-04-02T10:07:05Z</time>
      </trkpt>
      <trkpt lat="47.72412" lon="3.64943">
        <ele>286</ele>
        <time>2019-04-02T10:07:09Z</time>
      </trkpt>
      <trkpt lat="47.7241" lon="3.64946">
        <ele>287</ele>
        <time>2019-04-02T10:07:11Z</time>
      </trkpt>
      <trkpt lat="47.72409" lon="3.64949">
        <ele>286</ele>
        <time>2019-04-02T10:07:13Z</time>
      </trkpt>
      <trkpt lat="47.72406" lon="3.64953">
        <ele>288</ele>
        <time>2019-04-02T10:07:18Z</time>
      </trkpt>
      <trkpt lat="47.72401" lon="3.64958">
        <ele>288</ele>
        <time>2019-04-02T10:07:24Z</time>
      </trkpt>
      <trkpt lat="47.72398" lon="3.64965">
        <ele>290</ele>
        <time>2019-04-02T10:07:28Z</time>
      </trkpt>
      <trkpt lat="47.72396" lon="3.64973">
        <ele>290</ele>
        <time>2019-04-02T10:07:34Z</time>
      </trkpt>
      <trkpt lat="47.72393" lon="3.64979">
        <ele>291</ele>
        <time>2019-04-02T10:07:39Z</time>
      </trkpt>
      <trkpt lat="47.72391" lon="3.64987">
        <ele>292</ele>
        <time>2019-04-02T10:07:44Z</time>
      </trkpt>
      <trkpt lat="47.7239" lon="3.64991">
        <ele>293</ele>
        <time>2019-04-02T10:07:46Z</time>
      </trkpt>
      <trkpt lat="47.72389" lon="3.64996">
        <ele>293</ele>
        <time>2019-04-02T10:07:50Z</time>
      </trkpt>
      <trkpt lat="47.72389" lon="3.64999">
        <ele>291</ele>
        <time>2019-04-02T10:07:59Z</time>
      </trkpt>
      <trkpt lat="47.72386" lon="3.65006">
        <ele>297</ele>
        <time>2019-04-02T10:11:17Z</time>
      </trkpt>
      <trkpt lat="47.72384" lon="3.6501">
        <ele>297</ele>
        <time>2019-04-02T10:11:21Z</time>
      </trkpt>
      <trkpt lat="47.72381" lon="3.65016">
        <ele>297</ele>
        <time>2019-04-02T10:11:25Z</time>
      </trkpt>
      <trkpt lat="47.72379" lon="3.65019">
        <ele>297</ele>
        <time>2019-04-02T10:11:27Z</time>
      </trkpt>
      <trkpt lat="47.72377" lon="3.65022">
        <ele>298</ele>
        <time>2019-04-02T10:11:31Z</time>
      </trkpt>
      <trkpt lat="47.72375" lon="3.65028">
        <ele>299</ele>
        <time>2019-04-02T10:11:35Z</time>
      </trkpt>
      <trkpt lat="47.72373" lon="3.65032">
        <ele>299</ele>
        <time>2019-04-02T10:11:37Z</time>
      </trkpt>
      <trkpt lat="47.7237" lon="3.65038">
        <ele>300</ele>
        <time>2019-04-02T10:11:40Z</time>
      </trkpt>
      <trkpt lat="47.72369" lon="3.65041">
        <ele>300</ele>
        <time>2019-04-02T10:11:42Z</time>
      </trkpt>
      <trkpt lat="47.72367" lon="3.65047">
        <ele>300</ele>
        <time>2019-04-02T10:11:45Z</time>
      </trkpt>
      <trkpt lat="47.72364" lon="3.65054">
        <ele>301</ele>
        <time>2019-04-02T10:11:49Z</time>
      </trkpt>
      <trkpt lat="47.72362" lon="3.6506">
        <ele>302</ele>
        <time>2019-04-02T10:11:52Z</time>
      </trkpt>
      <trkpt lat="47.7236" lon="3.65067">
        <ele>301</ele>
        <time>2019-04-02T10:11:56Z</time>
      </trkpt>
      <trkpt lat="47.72358" lon="3.65075">
        <ele>300</ele>
        <time>2019-04-02T10:12:01Z</time>
      </trkpt>
      <trkpt lat="47.72357" lon="3.65078">
        <ele>299</ele>
        <time>2019-04-02T10:12:05Z</time>
      </trkpt>
      <trkpt lat="47.72354" lon="3.65087">
        <ele>299</ele>
        <time>2019-04-02T10:12:10Z</time>
      </trkpt>
      <trkpt lat="47.72353" lon="3.65089">
        <ele>299</ele>
        <time>2019-04-02T10:12:12Z</time>
      </trkpt>
      <trkpt lat="47.72351" lon="3.65094">
        <ele>299</ele>
        <time>2019-04-02T10:12:15Z</time>
      </trkpt>
      <trkpt lat="47.72349" lon="3.651">
        <ele>300</ele>
        <time>2019-04-02T10:12:18Z</time>
      </trkpt>
      <trkpt lat="47.72346" lon="3.65107">
        <ele>299</ele>
        <time>2019-04-02T10:12:22Z</time>
      </trkpt>
      <trkpt lat="47.72343" lon="3.65114">
        <ele>299</ele>
        <time>2019-04-02T10:12:26Z</time>
      </trkpt>
      <trkpt lat="47.7234" lon="3.65121">
        <ele>298</ele>
        <time>2019-04-02T10:12:31Z</time>
      </trkpt>
      <trkpt lat="47.72339" lon="3.65128">
        <ele>298</ele>
        <time>2019-04-02T10:12:34Z</time>
      </trkpt>
      <trkpt lat="47.72337" lon="3.65134">
        <ele>298</ele>
        <time>2019-04-02T10:12:38Z</time>
      </trkpt>
      <trkpt lat="47.72336" lon="3.65138">
        <ele>299</ele>
        <time>2019-04-02T10:12:40Z</time>
      </trkpt>
      <trkpt lat="47.72334" lon="3.65142">
        <ele>299</ele>
        <time>2019-04-02T10:12:43Z</time>
      </trkpt>
      <trkpt lat="47.72333" lon="3.65146">
        <ele>299</ele>
        <time>2019-04-02T10:12:45Z</time>
      </trkpt>
      <trkpt lat="47.72332" lon="3.65149">
        <ele>299</ele>
        <time>2019-04-02T10:12:47Z</time>
      </trkpt>
      <trkpt lat="47.72329" lon="3.65156">
        <ele>298</ele>
        <time>2019-04-02T10:12:51Z</time>
      </trkpt>
      <trkpt lat="47.72327" lon="3.65161">
        <ele>298</ele>
        <time>2019-04-02T10:12:54Z</time>
      </trkpt>
      <trkpt lat="47.72325" lon="3.65164">
        <ele>299</ele>
        <time>2019-04-02T10:12:56Z</time>
      </trkpt>
      <trkpt lat="47.72324" lon="3.65167">
        <ele>298</ele>
        <time>2019-04-02T10:12:58Z</time>
      </trkpt>
      <trkpt lat="47.72321" lon="3.65174">
        <ele>298</ele>
        <time>2019-04-02T10:13:02Z</time>
      </trkpt>
      <trkpt lat="47.72319" lon="3.65181">
        <ele>298</ele>
        <time>2019-04-02T10:13:05Z</time>
      </trkpt>
      <trkpt lat="47.72315" lon="3.65186">
        <ele>298</ele>
        <time>2019-04-02T10:13:09Z</time>
      </trkpt>
      <trkpt lat="47.72312" lon="3.65192">
        <ele>297</ele>
        <time>2019-04-02T10:13:13Z</time>
      </trkpt>
      <trkpt lat="47.7231" lon="3.65196">
        <ele>297</ele>
        <time>2019-04-02T10:13:16Z</time>
      </trkpt>
      <trkpt lat="47.72306" lon="3.652">
        <ele>298</ele>
        <time>2019-04-02T10:13:19Z</time>
      </trkpt>
      <trkpt lat="47.72303" lon="3.65206">
        <ele>298</ele>
        <time>2019-04-02T10:13:25Z</time>
      </trkpt>
      <trkpt lat="47.72299" lon="3.6521">
        <ele>299</ele>
        <time>2019-04-02T10:13:29Z</time>
      </trkpt>
      <trkpt lat="47.72295" lon="3.65213">
        <ele>299</ele>
        <time>2019-04-02T10:13:32Z</time>
      </trkpt>
      <trkpt lat="47.72292" lon="3.65219">
        <ele>299</ele>
        <time>2019-04-02T10:13:36Z</time>
      </trkpt>
      <trkpt lat="47.72287" lon="3.65224">
        <ele>299</ele>
        <time>2019-04-02T10:13:40Z</time>
      </trkpt>
      <trkpt lat="47.72284" lon="3.65229">
        <ele>299</ele>
        <time>2019-04-02T10:13:44Z</time>
      </trkpt>
      <trkpt lat="47.7228" lon="3.65233">
        <ele>299</ele>
        <time>2019-04-02T10:13:48Z</time>
      </trkpt>
      <trkpt lat="47.72279" lon="3.65236">
        <ele>300</ele>
        <time>2019-04-02T10:13:50Z</time>
      </trkpt>
      <trkpt lat="47.72276" lon="3.65239">
        <ele>300</ele>
        <time>2019-04-02T10:13:53Z</time>
      </trkpt>
      <trkpt lat="47.72273" lon="3.65245">
        <ele>300</ele>
        <time>2019-04-02T10:13:57Z</time>
      </trkpt>
      <trkpt lat="47.72272" lon="3.65248">
        <ele>299</ele>
        <time>2019-04-02T10:13:59Z</time>
      </trkpt>
      <trkpt lat="47.7227" lon="3.65252">
        <ele>299</ele>
        <time>2019-04-02T10:14:01Z</time>
      </trkpt>
      <trkpt lat="47.72268" lon="3.65255">
        <ele>299</ele>
        <time>2019-04-02T10:14:03Z</time>
      </trkpt>
      <trkpt lat="47.72266" lon="3.65259">
        <ele>299</ele>
        <time>2019-04-02T10:14:05Z</time>
      </trkpt>
      <trkpt lat="47.72264" lon="3.65264">
        <ele>300</ele>
        <time>2019-04-02T10:14:08Z</time>
      </trkpt>
      <trkpt lat="47.72263" lon="3.65267">
        <ele>299</ele>
        <time>2019-04-02T10:14:10Z</time>
      </trkpt>
      <trkpt lat="47.72261" lon="3.65273">
        <ele>299</ele>
        <time>2019-04-02T10:14:13Z</time>
      </trkpt>
      <trkpt lat="47.72259" lon="3.65276">
        <ele>299</ele>
        <time>2019-04-02T10:14:15Z</time>
      </trkpt>
      <trkpt lat="47.72258" lon="3.65284">
        <ele>299</ele>
        <time>2019-04-02T10:14:19Z</time>
      </trkpt>
      <trkpt lat="47.72257" lon="3.6529">
        <ele>299</ele>
        <time>2019-04-02T10:14:22Z</time>
      </trkpt>
      <trkpt lat="47.72254" lon="3.65297">
        <ele>300</ele>
        <time>2019-04-02T10:14:26Z</time>
      </trkpt>
      <trkpt lat="47.72252" lon="3.653">
        <ele>300</ele>
        <time>2019-04-02T10:14:28Z</time>
      </trkpt>
      <trkpt lat="47.72251" lon="3.65304">
        <ele>301</ele>
        <time>2019-04-02T10:14:30Z</time>
      </trkpt>
      <trkpt lat="47.72249" lon="3.65308">
        <ele>300</ele>
        <time>2019-04-02T10:14:32Z</time>
      </trkpt>
      <trkpt lat="47.72248" lon="3.65312">
        <ele>300</ele>
        <time>2019-04-02T10:14:34Z</time>
      </trkpt>
      <trkpt lat="47.72247" lon="3.65321">
        <ele>300</ele>
        <time>2019-04-02T10:14:38Z</time>
      </trkpt>
      <trkpt lat="47.72246" lon="3.65325">
        <ele>300</ele>
        <time>2019-04-02T10:14:40Z</time>
      </trkpt>
      <trkpt lat="47.72244" lon="3.65331">
        <ele>300</ele>
        <time>2019-04-02T10:14:43Z</time>
      </trkpt>
      <trkpt lat="47.72241" lon="3.65337">
        <ele>301</ele>
        <time>2019-04-02T10:14:47Z</time>
      </trkpt>
      <trkpt lat="47.7224" lon="3.6534">
        <ele>300</ele>
        <time>2019-04-02T10:14:49Z</time>
      </trkpt>
      <trkpt lat="47.72238" lon="3.65344">
        <ele>301</ele>
        <time>2019-04-02T10:14:52Z</time>
      </trkpt>
      <trkpt lat="47.72236" lon="3.6535">
        <ele>301</ele>
        <time>2019-04-02T10:14:55Z</time>
      </trkpt>
      <trkpt lat="47.72235" lon="3.65353">
        <ele>301</ele>
        <time>2019-04-02T10:14:57Z</time>
      </trkpt>
      <trkpt lat="47.72233" lon="3.65357">
        <ele>301</ele>
        <time>2019-04-02T10:14:59Z</time>
      </trkpt>
      <trkpt lat="47.72232" lon="3.65365">
        <ele>301</ele>
        <time>2019-04-02T10:15:03Z</time>
      </trkpt>
      <trkpt lat="47.7223" lon="3.6537">
        <ele>300</ele>
        <time>2019-04-02T10:15:06Z</time>
      </trkpt>
      <trkpt lat="47.72228" lon="3.65376">
        <ele>300</ele>
        <time>2019-04-02T10:15:10Z</time>
      </trkpt>
      <trkpt lat="47.72227" lon="3.6538">
        <ele>300</ele>
        <time>2019-04-02T10:15:12Z</time>
      </trkpt>
      <trkpt lat="47.72226" lon="3.65387">
        <ele>300</ele>
        <time>2019-04-02T10:15:16Z</time>
      </trkpt>
      <trkpt lat="47.72225" lon="3.65391">
        <ele>300</ele>
        <time>2019-04-02T10:15:18Z</time>
      </trkpt>
      <trkpt lat="47.72223" lon="3.65399">
        <ele>300</ele>
        <time>2019-04-02T10:15:22Z</time>
      </trkpt>
      <trkpt lat="47.72221" lon="3.65406">
        <ele>300</ele>
        <time>2019-04-02T10:15:26Z</time>
      </trkpt>
      <trkpt lat="47.72221" lon="3.6541">
        <ele>300</ele>
        <time>2019-04-02T10:15:28Z</time>
      </trkpt>
      <trkpt lat="47.7222" lon="3.65413">
        <ele>301</ele>
        <time>2019-04-02T10:15:30Z</time>
      </trkpt>
      <trkpt lat="47.72219" lon="3.65418">
        <ele>301</ele>
        <time>2019-04-02T10:15:33Z</time>
      </trkpt>
      <trkpt lat="47.72218" lon="3.65422">
        <ele>301</ele>
        <time>2019-04-02T10:15:35Z</time>
      </trkpt>
      <trkpt lat="47.72217" lon="3.65426">
        <ele>301</ele>
        <time>2019-04-02T10:15:37Z</time>
      </trkpt>
      <trkpt lat="47.72216" lon="3.65434">
        <ele>301</ele>
        <time>2019-04-02T10:15:41Z</time>
      </trkpt>
      <trkpt lat="47.72215" lon="3.65439">
        <ele>301</ele>
        <time>2019-04-02T10:15:43Z</time>
      </trkpt>
      <trkpt lat="47.72214" lon="3.65444">
        <ele>301</ele>
        <time>2019-04-02T10:15:45Z</time>
      </trkpt>
      <trkpt lat="47.72211" lon="3.65451">
        <ele>301</ele>
        <time>2019-04-02T10:15:49Z</time>
      </trkpt>
      <trkpt lat="47.72209" lon="3.65457">
        <ele>301</ele>
        <time>2019-04-02T10:15:52Z</time>
      </trkpt>
      <trkpt lat="47.72208" lon="3.65464">
        <ele>301</ele>
        <time>2019-04-02T10:15:56Z</time>
      </trkpt>
      <trkpt lat="47.72207" lon="3.65469">
        <ele>300</ele>
        <time>2019-04-02T10:15:59Z</time>
      </trkpt>
      <trkpt lat="47.72205" lon="3.65475">
        <ele>301</ele>
        <time>2019-04-02T10:16:02Z</time>
      </trkpt>
      <trkpt lat="47.72204" lon="3.65483">
        <ele>301</ele>
        <time>2019-04-02T10:16:06Z</time>
      </trkpt>
      <trkpt lat="47.72203" lon="3.65486">
        <ele>301</ele>
        <time>2019-04-02T10:16:08Z</time>
      </trkpt>
      <trkpt lat="47.72202" lon="3.65494">
        <ele>301</ele>
        <time>2019-04-02T10:16:12Z</time>
      </trkpt>
      <trkpt lat="47.72201" lon="3.65502">
        <ele>300</ele>
        <time>2019-04-02T10:16:16Z</time>
      </trkpt>
      <trkpt lat="47.72201" lon="3.65506">
        <ele>300</ele>
        <time>2019-04-02T10:16:18Z</time>
      </trkpt>
      <trkpt lat="47.722" lon="3.6551">
        <ele>301</ele>
        <time>2019-04-02T10:16:20Z</time>
      </trkpt>
      <trkpt lat="47.72198" lon="3.65516">
        <ele>302</ele>
        <time>2019-04-02T10:16:24Z</time>
      </trkpt>
      <trkpt lat="47.72198" lon="3.65524">
        <ele>301</ele>
        <time>2019-04-02T10:16:28Z</time>
      </trkpt>
      <trkpt lat="47.72197" lon="3.65528">
        <ele>301</ele>
        <time>2019-04-02T10:16:30Z</time>
      </trkpt>
      <trkpt lat="47.72197" lon="3.65532">
        <ele>301</ele>
        <time>2019-04-02T10:16:32Z</time>
      </trkpt>
      <trkpt lat="47.72197" lon="3.65536">
        <ele>301</ele>
        <time>2019-04-02T10:16:34Z</time>
      </trkpt>
      <trkpt lat="47.72196" lon="3.65539">
        <ele>301</ele>
        <time>2019-04-02T10:16:36Z</time>
      </trkpt>
      <trkpt lat="47.72196" lon="3.65543">
        <ele>301</ele>
        <time>2019-04-02T10:16:38Z</time>
      </trkpt>
      <trkpt lat="47.72196" lon="3.65551">
        <ele>302</ele>
        <time>2019-04-02T10:16:42Z</time>
      </trkpt>
      <trkpt lat="47.72195" lon="3.6556">
        <ele>301</ele>
        <time>2019-04-02T10:16:46Z</time>
      </trkpt>
      <trkpt lat="47.72195" lon="3.65567">
        <ele>302</ele>
        <time>2019-04-02T10:16:50Z</time>
      </trkpt>
      <trkpt lat="47.72195" lon="3.65571">
        <ele>302</ele>
        <time>2019-04-02T10:16:52Z</time>
      </trkpt>
      <trkpt lat="47.72196" lon="3.65577">
        <ele>301</ele>
        <time>2019-04-02T10:16:55Z</time>
      </trkpt>
      <trkpt lat="47.72195" lon="3.65585">
        <ele>301</ele>
        <time>2019-04-02T10:16:59Z</time>
      </trkpt>
      <trkpt lat="47.72195" lon="3.65589">
        <ele>301</ele>
        <time>2019-04-02T10:17:01Z</time>
      </trkpt>
      <trkpt lat="47.72196" lon="3.65597">
        <ele>301</ele>
        <time>2019-04-02T10:17:05Z</time>
      </trkpt>
      <trkpt lat="47.72196" lon="3.65601">
        <ele>302</ele>
        <time>2019-04-02T10:17:07Z</time>
      </trkpt>
      <trkpt lat="47.72196" lon="3.65608">
        <ele>302</ele>
        <time>2019-04-02T10:17:10Z</time>
      </trkpt>
      <trkpt lat="47.72197" lon="3.65614">
        <ele>302</ele>
        <time>2019-04-02T10:17:13Z</time>
      </trkpt>
      <trkpt lat="47.72197" lon="3.65618">
        <ele>303</ele>
        <time>2019-04-02T10:17:15Z</time>
      </trkpt>
      <trkpt lat="47.72196" lon="3.65626">
        <ele>303</ele>
        <time>2019-04-02T10:17:19Z</time>
      </trkpt>
      <trkpt lat="47.72198" lon="3.65632">
        <ele>303</ele>
        <time>2019-04-02T10:17:23Z</time>
      </trkpt>
      <trkpt lat="47.72198" lon="3.65643">
        <ele>303</ele>
        <time>2019-04-02T10:17:30Z</time>
      </trkpt>
      <trkpt lat="47.72198" lon="3.6565">
        <ele>303</ele>
        <time>2019-04-02T10:17:35Z</time>
      </trkpt>
      <trkpt lat="47.72201" lon="3.65658">
        <ele>304</ele>
        <time>2019-04-02T10:17:39Z</time>
      </trkpt>
      <trkpt lat="47.72202" lon="3.65667">
        <ele>303</ele>
        <time>2019-04-02T10:17:44Z</time>
      </trkpt>
      <trkpt lat="47.72204" lon="3.65675">
        <ele>301</ele>
        <time>2019-04-02T10:17:49Z</time>
      </trkpt>
      <trkpt lat="47.72205" lon="3.65682">
        <ele>302</ele>
        <time>2019-04-02T10:17:52Z</time>
      </trkpt>
      <trkpt lat="47.72206" lon="3.65688">
        <ele>302</ele>
        <time>2019-04-02T10:17:55Z</time>
      </trkpt>
      <trkpt lat="47.72207" lon="3.65692">
        <ele>301</ele>
        <time>2019-04-02T10:17:57Z</time>
      </trkpt>
      <trkpt lat="47.72208" lon="3.65699">
        <ele>301</ele>
        <time>2019-04-02T10:18:00Z</time>
      </trkpt>
      <trkpt lat="47.72209" lon="3.65706">
        <ele>301</ele>
        <time>2019-04-02T10:18:04Z</time>
      </trkpt>
      <trkpt lat="47.72211" lon="3.65714">
        <ele>302</ele>
        <time>2019-04-02T10:18:08Z</time>
      </trkpt>
      <trkpt lat="47.72212" lon="3.6572">
        <ele>301</ele>
        <time>2019-04-02T10:18:11Z</time>
      </trkpt>
      <trkpt lat="47.72213" lon="3.65725">
        <ele>302</ele>
        <time>2019-04-02T10:18:13Z</time>
      </trkpt>
      <trkpt lat="47.72214" lon="3.65729">
        <ele>303</ele>
        <time>2019-04-02T10:18:15Z</time>
      </trkpt>
      <trkpt lat="47.72216" lon="3.65736">
        <ele>302</ele>
        <time>2019-04-02T10:18:18Z</time>
      </trkpt>
      <trkpt lat="47.72218" lon="3.65744">
        <ele>302</ele>
        <time>2019-04-02T10:18:22Z</time>
      </trkpt>
      <trkpt lat="47.7222" lon="3.6575">
        <ele>302</ele>
        <time>2019-04-02T10:18:25Z</time>
      </trkpt>
      <trkpt lat="47.72221" lon="3.65756">
        <ele>301</ele>
        <time>2019-04-02T10:18:28Z</time>
      </trkpt>
      <trkpt lat="47.72221" lon="3.65763">
        <ele>301</ele>
        <time>2019-04-02T10:18:32Z</time>
      </trkpt>
      <trkpt lat="47.72222" lon="3.65772">
        <ele>303</ele>
        <time>2019-04-02T10:18:37Z</time>
      </trkpt>
      <trkpt lat="47.72223" lon="3.6578">
        <ele>302</ele>
        <time>2019-04-02T10:18:41Z</time>
      </trkpt>
      <trkpt lat="47.72224" lon="3.65785">
        <ele>302</ele>
        <time>2019-04-02T10:18:43Z</time>
      </trkpt>
      <trkpt lat="47.72224" lon="3.65789">
        <ele>302</ele>
        <time>2019-04-02T10:18:45Z</time>
      </trkpt>
      <trkpt lat="47.72225" lon="3.65797">
        <ele>301</ele>
        <time>2019-04-02T10:18:49Z</time>
      </trkpt>
      <trkpt lat="47.72226" lon="3.65805">
        <ele>301</ele>
        <time>2019-04-02T10:18:53Z</time>
      </trkpt>
      <trkpt lat="47.72227" lon="3.6581">
        <ele>301</ele>
        <time>2019-04-02T10:18:55Z</time>
      </trkpt>
      <trkpt lat="47.72229" lon="3.65816">
        <ele>301</ele>
        <time>2019-04-02T10:18:58Z</time>
      </trkpt>
      <trkpt lat="47.7223" lon="3.65824">
        <ele>302</ele>
        <time>2019-04-02T10:19:02Z</time>
      </trkpt>
      <trkpt lat="47.72231" lon="3.65829">
        <ele>302</ele>
        <time>2019-04-02T10:19:04Z</time>
      </trkpt>
      <trkpt lat="47.72231" lon="3.65835">
        <ele>302</ele>
        <time>2019-04-02T10:19:07Z</time>
      </trkpt>
      <trkpt lat="47.72231" lon="3.65839">
        <ele>302</ele>
        <time>2019-04-02T10:19:09Z</time>
      </trkpt>
      <trkpt lat="47.72232" lon="3.65847">
        <ele>303</ele>
        <time>2019-04-02T10:19:13Z</time>
      </trkpt>
      <trkpt lat="47.72234" lon="3.65854">
        <ele>303</ele>
        <time>2019-04-02T10:19:17Z</time>
      </trkpt>
      <trkpt lat="47.72235" lon="3.65864">
        <ele>304</ele>
        <time>2019-04-02T10:19:22Z</time>
      </trkpt>
      <trkpt lat="47.72237" lon="3.65871">
        <ele>303</ele>
        <time>2019-04-02T10:19:26Z</time>
      </trkpt>
      <trkpt lat="47.72238" lon="3.65879">
        <ele>304</ele>
        <time>2019-04-02T10:19:30Z</time>
      </trkpt>
      <trkpt lat="47.72239" lon="3.65887">
        <ele>304</ele>
        <time>2019-04-02T10:19:34Z</time>
      </trkpt>
      <trkpt lat="47.72241" lon="3.65895">
        <ele>303</ele>
        <time>2019-04-02T10:19:38Z</time>
      </trkpt>
      <trkpt lat="47.72242" lon="3.65902">
        <ele>304</ele>
        <time>2019-04-02T10:19:41Z</time>
      </trkpt>
      <trkpt lat="47.72242" lon="3.65906">
        <ele>304</ele>
        <time>2019-04-02T10:19:43Z</time>
      </trkpt>
      <trkpt lat="47.72245" lon="3.65913">
        <ele>303</ele>
        <time>2019-04-02T10:19:47Z</time>
      </trkpt>
      <trkpt lat="47.72246" lon="3.65917">
        <ele>303</ele>
        <time>2019-04-02T10:19:49Z</time>
      </trkpt>
      <trkpt lat="47.72247" lon="3.6592">
        <ele>303</ele>
        <time>2019-04-02T10:19:51Z</time>
      </trkpt>
      <trkpt lat="47.72248" lon="3.65924">
        <ele>302</ele>
        <time>2019-04-02T10:19:53Z</time>
      </trkpt>
      <trkpt lat="47.7225" lon="3.65934">
        <ele>302</ele>
        <time>2019-04-02T10:19:58Z</time>
      </trkpt>
      <trkpt lat="47.72251" lon="3.65938">
        <ele>302</ele>
        <time>2019-04-02T10:20:00Z</time>
      </trkpt>
      <trkpt lat="47.72251" lon="3.65942">
        <ele>302</ele>
        <time>2019-04-02T10:20:02Z</time>
      </trkpt>
      <trkpt lat="47.72252" lon="3.65946">
        <ele>302</ele>
        <time>2019-04-02T10:20:04Z</time>
      </trkpt>
      <trkpt lat="47.72254" lon="3.65953">
        <ele>303</ele>
        <time>2019-04-02T10:20:08Z</time>
      </trkpt>
      <trkpt lat="47.72255" lon="3.6596">
        <ele>303</ele>
        <time>2019-04-02T10:20:12Z</time>
      </trkpt>
      <trkpt lat="47.72255" lon="3.65964">
        <ele>302</ele>
        <time>2019-04-02T10:20:14Z</time>
      </trkpt>
      <trkpt lat="47.72257" lon="3.65972">
        <ele>302</ele>
        <time>2019-04-02T10:20:18Z</time>
      </trkpt>
      <trkpt lat="47.72258" lon="3.65981">
        <ele>302</ele>
        <time>2019-04-02T10:20:22Z</time>
      </trkpt>
      <trkpt lat="47.72259" lon="3.65987">
        <ele>302</ele>
        <time>2019-04-02T10:20:25Z</time>
      </trkpt>
      <trkpt lat="47.7226" lon="3.65991">
        <ele>302</ele>
        <time>2019-04-02T10:20:27Z</time>
      </trkpt>
      <trkpt lat="47.7226" lon="3.65995">
        <ele>302</ele>
        <time>2019-04-02T10:20:29Z</time>
      </trkpt>
      <trkpt lat="47.72261" lon="3.66001">
        <ele>302</ele>
        <time>2019-04-02T10:20:32Z</time>
      </trkpt>
      <trkpt lat="47.72262" lon="3.66009">
        <ele>303</ele>
        <time>2019-04-02T10:20:36Z</time>
      </trkpt>
      <trkpt lat="47.72263" lon="3.66017">
        <ele>302</ele>
        <time>2019-04-02T10:20:40Z</time>
      </trkpt>
      <trkpt lat="47.72264" lon="3.66024">
        <ele>301</ele>
        <time>2019-04-02T10:20:44Z</time>
      </trkpt>
      <trkpt lat="47.72264" lon="3.66033">
        <ele>301</ele>
        <time>2019-04-02T10:20:48Z</time>
      </trkpt>
      <trkpt lat="47.72264" lon="3.66038">
        <ele>301</ele>
        <time>2019-04-02T10:20:50Z</time>
      </trkpt>
      <trkpt lat="47.72264" lon="3.66042">
        <ele>302</ele>
        <time>2019-04-02T10:20:53Z</time>
      </trkpt>
      <trkpt lat="47.72264" lon="3.66046">
        <ele>303</ele>
        <time>2019-04-02T10:20:55Z</time>
      </trkpt>
      <trkpt lat="47.72264" lon="3.6605">
        <ele>303</ele>
        <time>2019-04-02T10:20:57Z</time>
      </trkpt>
      <trkpt lat="47.72264" lon="3.66058">
        <ele>304</ele>
        <time>2019-04-02T10:21:01Z</time>
      </trkpt>
      <trkpt lat="47.72264" lon="3.66062">
        <ele>304</ele>
        <time>2019-04-02T10:21:03Z</time>
      </trkpt>
      <trkpt lat="47.72264" lon="3.66069">
        <ele>305</ele>
        <time>2019-04-02T10:21:07Z</time>
      </trkpt>
      <trkpt lat="47.72264" lon="3.66077">
        <ele>305</ele>
        <time>2019-04-02T10:21:11Z</time>
      </trkpt>
      <trkpt lat="47.72264" lon="3.66081">
        <ele>305</ele>
        <time>2019-04-02T10:21:13Z</time>
      </trkpt>
      <trkpt lat="47.72265" lon="3.66085">
        <ele>304</ele>
        <time>2019-04-02T10:21:15Z</time>
      </trkpt>
      <trkpt lat="47.72265" lon="3.66089">
        <ele>305</ele>
        <time>2019-04-02T10:21:17Z</time>
      </trkpt>
      <trkpt lat="47.72265" lon="3.66094">
        <ele>304</ele>
        <time>2019-04-02T10:21:19Z</time>
      </trkpt>
      <trkpt lat="47.72266" lon="3.661">
        <ele>305</ele>
        <time>2019-04-02T10:21:22Z</time>
      </trkpt>
      <trkpt lat="47.72265" lon="3.66108">
        <ele>305</ele>
        <time>2019-04-02T10:21:26Z</time>
      </trkpt>
      <trkpt lat="47.72265" lon="3.66112">
        <ele>305</ele>
        <time>2019-04-02T10:21:28Z</time>
      </trkpt>
      <trkpt lat="47.72265" lon="3.66117">
        <ele>305</ele>
        <time>2019-04-02T10:21:30Z</time>
      </trkpt>
      <trkpt lat="47.72266" lon="3.66125">
        <ele>305</ele>
        <time>2019-04-02T10:21:34Z</time>
      </trkpt>
      <trkpt lat="47.72266" lon="3.6613">
        <ele>305</ele>
        <time>2019-04-02T10:21:36Z</time>
      </trkpt>
      <trkpt lat="47.72266" lon="3.66136">
        <ele>305</ele>
        <time>2019-04-02T10:21:39Z</time>
      </trkpt>
      <trkpt lat="47.72267" lon="3.66143">
        <ele>305</ele>
        <time>2019-04-02T10:21:42Z</time>
      </trkpt>
      <trkpt lat="47.72267" lon="3.66146">
        <ele>305</ele>
        <time>2019-04-02T10:21:44Z</time>
      </trkpt>
      <trkpt lat="47.72267" lon="3.6615">
        <ele>305</ele>
        <time>2019-04-02T10:21:46Z</time>
      </trkpt>
      <trkpt lat="47.72269" lon="3.66158">
        <ele>306</ele>
        <time>2019-04-02T10:21:50Z</time>
      </trkpt>
      <trkpt lat="47.72269" lon="3.66166">
        <ele>305</ele>
        <time>2019-04-02T10:21:54Z</time>
      </trkpt>
      <trkpt lat="47.7227" lon="3.66173">
        <ele>304</ele>
        <time>2019-04-02T10:21:57Z</time>
      </trkpt>
      <trkpt lat="47.72271" lon="3.66181">
        <ele>305</ele>
        <time>2019-04-02T10:22:02Z</time>
      </trkpt>
      <trkpt lat="47.72272" lon="3.66188">
        <ele>306</ele>
        <time>2019-04-02T10:22:06Z</time>
      </trkpt>
      <trkpt lat="47.72272" lon="3.66194">
        <ele>305</ele>
        <time>2019-04-02T10:22:09Z</time>
      </trkpt>
      <trkpt lat="47.72272" lon="3.66198">
        <ele>306</ele>
        <time>2019-04-02T10:22:11Z</time>
      </trkpt>
      <trkpt lat="47.72274" lon="3.66206">
        <ele>305</ele>
        <time>2019-04-02T10:22:15Z</time>
      </trkpt>
      <trkpt lat="47.72274" lon="3.66214">
        <ele>306</ele>
        <time>2019-04-02T10:22:19Z</time>
      </trkpt>
      <trkpt lat="47.72274" lon="3.66218">
        <ele>307</ele>
        <time>2019-04-02T10:22:21Z</time>
      </trkpt>
      <trkpt lat="47.72273" lon="3.66225">
        <ele>306</ele>
        <time>2019-04-02T10:22:24Z</time>
      </trkpt>
      <trkpt lat="47.72273" lon="3.66232">
        <ele>306</ele>
        <time>2019-04-02T10:22:27Z</time>
      </trkpt>
      <trkpt lat="47.72273" lon="3.66236">
        <ele>305</ele>
        <time>2019-04-02T10:22:29Z</time>
      </trkpt>
      <trkpt lat="47.72274" lon="3.6624">
        <ele>306</ele>
        <time>2019-04-02T10:22:31Z</time>
      </trkpt>
      <trkpt lat="47.72273" lon="3.66244">
        <ele>305</ele>
        <time>2019-04-02T10:22:33Z</time>
      </trkpt>
      <trkpt lat="47.72273" lon="3.66248">
        <ele>305</ele>
        <time>2019-04-02T10:22:35Z</time>
      </trkpt>
      <trkpt lat="47.72275" lon="3.66256">
        <ele>306</ele>
        <time>2019-04-02T10:22:39Z</time>
      </trkpt>
      <trkpt lat="47.72275" lon="3.66263">
        <ele>305</ele>
        <time>2019-04-02T10:22:42Z</time>
      </trkpt>
      <trkpt lat="47.72274" lon="3.66269">
        <ele>305</ele>
        <time>2019-04-02T10:22:45Z</time>
      </trkpt>
      <trkpt lat="47.72275" lon="3.66277">
        <ele>305</ele>
        <time>2019-04-02T10:22:49Z</time>
      </trkpt>
      <trkpt lat="47.72275" lon="3.66284">
        <ele>304</ele>
        <time>2019-04-02T10:22:52Z</time>
      </trkpt>
      <trkpt lat="47.72276" lon="3.66292">
        <ele>304</ele>
        <time>2019-04-02T10:22:56Z</time>
      </trkpt>
      <trkpt lat="47.72276" lon="3.66298">
        <ele>304</ele>
        <time>2019-04-02T10:22:59Z</time>
      </trkpt>
      <trkpt lat="47.72276" lon="3.66302">
        <ele>304</ele>
        <time>2019-04-02T10:23:01Z</time>
      </trkpt>
      <trkpt lat="47.72277" lon="3.6631">
        <ele>305</ele>
        <time>2019-04-02T10:23:05Z</time>
      </trkpt>
      <trkpt lat="47.72277" lon="3.66318">
        <ele>305</ele>
        <time>2019-04-02T10:23:08Z</time>
      </trkpt>
      <trkpt lat="47.72278" lon="3.66323">
        <ele>304</ele>
        <time>2019-04-02T10:23:11Z</time>
      </trkpt>
      <trkpt lat="47.72279" lon="3.6633">
        <ele>303</ele>
        <time>2019-04-02T10:23:14Z</time>
      </trkpt>
      <trkpt lat="47.72279" lon="3.6634">
        <ele>303</ele>
        <time>2019-04-02T10:23:19Z</time>
      </trkpt>
      <trkpt lat="47.72278" lon="3.66347">
        <ele>303</ele>
        <time>2019-04-02T10:23:23Z</time>
      </trkpt>
      <trkpt lat="47.72279" lon="3.66355">
        <ele>304</ele>
        <time>2019-04-02T10:23:27Z</time>
      </trkpt>
      <trkpt lat="47.72279" lon="3.66361">
        <ele>303</ele>
        <time>2019-04-02T10:23:30Z</time>
      </trkpt>
      <trkpt lat="47.72279" lon="3.66365">
        <ele>303</ele>
        <time>2019-04-02T10:23:32Z</time>
      </trkpt>
      <trkpt lat="47.72279" lon="3.66374">
        <ele>303</ele>
        <time>2019-04-02T10:23:36Z</time>
      </trkpt>
      <trkpt lat="47.7228" lon="3.66378">
        <ele>304</ele>
        <time>2019-04-02T10:23:38Z</time>
      </trkpt>
      <trkpt lat="47.7228" lon="3.66385">
        <ele>304</ele>
        <time>2019-04-02T10:23:41Z</time>
      </trkpt>
      <trkpt lat="47.7228" lon="3.66389">
        <ele>304</ele>
        <time>2019-04-02T10:23:43Z</time>
      </trkpt>
      <trkpt lat="47.72281" lon="3.66396">
        <ele>304</ele>
        <time>2019-04-02T10:23:47Z</time>
      </trkpt>
      <trkpt lat="47.72281" lon="3.66405">
        <ele>304</ele>
        <time>2019-04-02T10:23:51Z</time>
      </trkpt>
      <trkpt lat="47.72281" lon="3.66412">
        <ele>304</ele>
        <time>2019-04-02T10:23:54Z</time>
      </trkpt>
      <trkpt lat="47.72282" lon="3.66416">
        <ele>304</ele>
        <time>2019-04-02T10:23:56Z</time>
      </trkpt>
      <trkpt lat="47.72282" lon="3.66424">
        <ele>304</ele>
        <time>2019-04-02T10:24:00Z</time>
      </trkpt>
      <trkpt lat="47.72282" lon="3.66428">
        <ele>303</ele>
        <time>2019-04-02T10:24:02Z</time>
      </trkpt>
      <trkpt lat="47.72282" lon="3.66432">
        <ele>304</ele>
        <time>2019-04-02T10:24:04Z</time>
      </trkpt>
      <trkpt lat="47.72283" lon="3.66436">
        <ele>304</ele>
        <time>2019-04-02T10:24:06Z</time>
      </trkpt>
      <trkpt lat="47.72283" lon="3.6644">
        <ele>304</ele>
        <time>2019-04-02T10:24:08Z</time>
      </trkpt>
      <trkpt lat="47.72283" lon="3.66447">
        <ele>304</ele>
        <time>2019-04-02T10:24:11Z</time>
      </trkpt>
      <trkpt lat="47.72282" lon="3.66455">
        <ele>303</ele>
        <time>2019-04-02T10:24:15Z</time>
      </trkpt>
      <trkpt lat="47.72282" lon="3.66462">
        <ele>303</ele>
        <time>2019-04-02T10:24:19Z</time>
      </trkpt>
      <trkpt lat="47.72281" lon="3.6647">
        <ele>304</ele>
        <time>2019-04-02T10:24:23Z</time>
      </trkpt>
      <trkpt lat="47.72278" lon="3.66476">
        <ele>304</ele>
        <time>2019-04-02T10:24:28Z</time>
      </trkpt>
      <trkpt lat="47.72276" lon="3.66479">
        <ele>304</ele>
        <time>2019-04-02T10:24:30Z</time>
      </trkpt>
      <trkpt lat="47.72272" lon="3.66482">
        <ele>304</ele>
        <time>2019-04-02T10:24:34Z</time>
      </trkpt>
      <trkpt lat="47.72266" lon="3.66486">
        <ele>303</ele>
        <time>2019-04-02T10:24:39Z</time>
      </trkpt>
      <trkpt lat="47.72261" lon="3.66488">
        <ele>304</ele>
        <time>2019-04-02T10:24:43Z</time>
      </trkpt>
      <trkpt lat="47.72257" lon="3.6649">
        <ele>304</ele>
        <time>2019-04-02T10:24:46Z</time>
      </trkpt>
      <trkpt lat="47.72252" lon="3.66494">
        <ele>304</ele>
        <time>2019-04-02T10:24:51Z</time>
      </trkpt>
      <trkpt lat="47.72247" lon="3.66496">
        <ele>305</ele>
        <time>2019-04-02T10:24:55Z</time>
      </trkpt>
      <trkpt lat="47.72242" lon="3.66499">
        <ele>305</ele>
        <time>2019-04-02T10:24:59Z</time>
      </trkpt>
      <trkpt lat="47.72239" lon="3.66501">
        <ele>306</ele>
        <time>2019-04-02T10:25:02Z</time>
      </trkpt>
      <trkpt lat="47.72233" lon="3.66503">
        <ele>306</ele>
        <time>2019-04-02T10:25:06Z</time>
      </trkpt>
      <trkpt lat="47.72229" lon="3.66506">
        <ele>306</ele>
        <time>2019-04-02T10:25:10Z</time>
      </trkpt>
      <trkpt lat="47.72224" lon="3.66507">
        <ele>306</ele>
        <time>2019-04-02T10:25:13Z</time>
      </trkpt>
      <trkpt lat="47.72221" lon="3.66508">
        <ele>307</ele>
        <time>2019-04-02T10:25:15Z</time>
      </trkpt>
      <trkpt lat="47.72216" lon="3.66512">
        <ele>307</ele>
        <time>2019-04-02T10:25:19Z</time>
      </trkpt>
      <trkpt lat="47.72211" lon="3.66513">
        <ele>308</ele>
        <time>2019-04-02T10:25:23Z</time>
      </trkpt>
      <trkpt lat="47.72206" lon="3.66515">
        <ele>308</ele>
        <time>2019-04-02T10:25:27Z</time>
      </trkpt>
      <trkpt lat="47.72204" lon="3.66516">
        <ele>308</ele>
        <time>2019-04-02T10:25:29Z</time>
      </trkpt>
      <trkpt lat="47.722" lon="3.66519">
        <ele>308</ele>
        <time>2019-04-02T10:25:32Z</time>
      </trkpt>
      <trkpt lat="47.72196" lon="3.66521">
        <ele>307</ele>
        <time>2019-04-02T10:25:35Z</time>
      </trkpt>
      <trkpt lat="47.72191" lon="3.66525">
        <ele>307</ele>
        <time>2019-04-02T10:25:39Z</time>
      </trkpt>
      <trkpt lat="47.72186" lon="3.66528">
        <ele>309</ele>
        <time>2019-04-02T10:25:44Z</time>
      </trkpt>
      <trkpt lat="47.72181" lon="3.66529">
        <ele>309</ele>
        <time>2019-04-02T10:25:47Z</time>
      </trkpt>
      <trkpt lat="47.72179" lon="3.6653">
        <ele>308</ele>
        <time>2019-04-02T10:25:49Z</time>
      </trkpt>
      <trkpt lat="47.72174" lon="3.66533">
        <ele>309</ele>
        <time>2019-04-02T10:25:53Z</time>
      </trkpt>
      <trkpt lat="47.72168" lon="3.66536">
        <ele>309</ele>
        <time>2019-04-02T10:25:57Z</time>
      </trkpt>
      <trkpt lat="47.72166" lon="3.66537">
        <ele>309</ele>
        <time>2019-04-02T10:25:59Z</time>
      </trkpt>
      <trkpt lat="47.72162" lon="3.66539">
        <ele>309</ele>
        <time>2019-04-02T10:26:02Z</time>
      </trkpt>
      <trkpt lat="47.72162" lon="3.66539">
        <ele>309</ele>
        <time>2019-04-02T10:26:10Z</time>
      </trkpt>
      <trkpt lat="47.72162" lon="3.66539">
        <ele>309</ele>
        <time>2019-04-02T10:26:11Z</time>
      </trkpt>
      <trkpt lat="47.72158" lon="3.66543">
        <ele>310</ele>
        <time>2019-04-02T10:26:32Z</time>
      </trkpt>
      <trkpt lat="47.72151" lon="3.66545">
        <ele>310</ele>
        <time>2019-04-02T10:26:43Z</time>
      </trkpt>
      <trkpt lat="47.72148" lon="3.66545">
        <ele>310</ele>
        <time>2019-04-02T10:26:45Z</time>
      </trkpt>
      <trkpt lat="47.72145" lon="3.66546">
        <ele>310</ele>
        <time>2019-04-02T10:26:48Z</time>
      </trkpt>
      <trkpt lat="47.72138" lon="3.6655">
        <ele>311</ele>
        <time>2019-04-02T10:26:54Z</time>
      </trkpt>
      <trkpt lat="47.72134" lon="3.66552">
        <ele>311</ele>
        <time>2019-04-02T10:26:57Z</time>
      </trkpt>
      <trkpt lat="47.72128" lon="3.66555">
        <ele>311</ele>
        <time>2019-04-02T10:27:02Z</time>
      </trkpt>
      <trkpt lat="47.72124" lon="3.66557">
        <ele>311</ele>
        <time>2019-04-02T10:27:06Z</time>
      </trkpt>
      <trkpt lat="47.72121" lon="3.66559">
        <ele>311</ele>
        <time>2019-04-02T10:27:08Z</time>
      </trkpt>
      <trkpt lat="47.72119" lon="3.6656">
        <ele>311</ele>
        <time>2019-04-02T10:27:10Z</time>
      </trkpt>
      <trkpt lat="47.72116" lon="3.66562">
        <ele>311</ele>
        <time>2019-04-02T10:27:12Z</time>
      </trkpt>
      <trkpt lat="47.72114" lon="3.66564">
        <ele>311</ele>
        <time>2019-04-02T10:27:14Z</time>
      </trkpt>
      <trkpt lat="47.72109" lon="3.66565">
        <ele>310</ele>
        <time>2019-04-02T10:27:18Z</time>
      </trkpt>
      <trkpt lat="47.72104" lon="3.66568">
        <ele>310</ele>
        <time>2019-04-02T10:27:22Z</time>
      </trkpt>
      <trkpt lat="47.72102" lon="3.66569">
        <ele>310</ele>
        <time>2019-04-02T10:27:24Z</time>
      </trkpt>
      <trkpt lat="47.72097" lon="3.66571">
        <ele>310</ele>
        <time>2019-04-02T10:27:27Z</time>
      </trkpt>
      <trkpt lat="47.72092" lon="3.66575">
        <ele>310</ele>
        <time>2019-04-02T10:27:32Z</time>
      </trkpt>
      <trkpt lat="47.72087" lon="3.66578">
        <ele>310</ele>
        <time>2019-04-02T10:27:36Z</time>
      </trkpt>
      <trkpt lat="47.72083" lon="3.66583">
        <ele>310</ele>
        <time>2019-04-02T10:27:41Z</time>
      </trkpt>
      <trkpt lat="47.72077" lon="3.66584">
        <ele>311</ele>
        <time>2019-04-02T10:27:48Z</time>
      </trkpt>
      <trkpt lat="47.72075" lon="3.66585">
        <ele>311</ele>
        <time>2019-04-02T10:27:50Z</time>
      </trkpt>
      <trkpt lat="47.72071" lon="3.66587">
        <ele>310</ele>
        <time>2019-04-02T10:27:54Z</time>
      </trkpt>
      <trkpt lat="47.72068" lon="3.66589">
        <ele>310</ele>
        <time>2019-04-02T10:27:57Z</time>
      </trkpt>
      <trkpt lat="47.72065" lon="3.6659">
        <ele>311</ele>
        <time>2019-04-02T10:27:59Z</time>
      </trkpt>
      <trkpt lat="47.72061" lon="3.66593">
        <ele>312</ele>
        <time>2019-04-02T10:28:03Z</time>
      </trkpt>
      <trkpt lat="47.72056" lon="3.66596">
        <ele>311</ele>
        <time>2019-04-02T10:28:06Z</time>
      </trkpt>
      <trkpt lat="47.72053" lon="3.66601">
        <ele>310</ele>
        <time>2019-04-02T10:28:10Z</time>
      </trkpt>
      <trkpt lat="47.7205" lon="3.66607">
        <ele>309</ele>
        <time>2019-04-02T10:28:14Z</time>
      </trkpt>
      <trkpt lat="47.72048" lon="3.66611">
        <ele>309</ele>
        <time>2019-04-02T10:28:16Z</time>
      </trkpt>
      <trkpt lat="47.72046" lon="3.66614">
        <ele>309</ele>
        <time>2019-04-02T10:28:18Z</time>
      </trkpt>
      <trkpt lat="47.72044" lon="3.66622">
        <ele>307</ele>
        <time>2019-04-02T10:28:22Z</time>
      </trkpt>
      <trkpt lat="47.72041" lon="3.66627">
        <ele>307</ele>
        <time>2019-04-02T10:28:27Z</time>
      </trkpt>
      <trkpt lat="47.72035" lon="3.66634">
        <ele>307</ele>
        <time>2019-04-02T10:28:33Z</time>
      </trkpt>
      <trkpt lat="47.72032" lon="3.6664">
        <ele>305</ele>
        <time>2019-04-02T10:28:37Z</time>
      </trkpt>
      <trkpt lat="47.7203" lon="3.66644">
        <ele>305</ele>
        <time>2019-04-02T10:28:40Z</time>
      </trkpt>
      <trkpt lat="47.72028" lon="3.66647">
        <ele>305</ele>
        <time>2019-04-02T10:28:42Z</time>
      </trkpt>
      <trkpt lat="47.72023" lon="3.66651">
        <ele>304</ele>
        <time>2019-04-02T10:28:47Z</time>
      </trkpt>
      <trkpt lat="47.72021" lon="3.66653">
        <ele>304</ele>
        <time>2019-04-02T10:28:49Z</time>
      </trkpt>
      <trkpt lat="47.72018" lon="3.66657">
        <ele>303</ele>
        <time>2019-04-02T10:28:53Z</time>
      </trkpt>
      <trkpt lat="47.72016" lon="3.6666">
        <ele>303</ele>
        <time>2019-04-02T10:28:56Z</time>
      </trkpt>
      <trkpt lat="47.72012" lon="3.66664">
        <ele>304</ele>
        <time>2019-04-02T10:29:02Z</time>
      </trkpt>
      <trkpt lat="47.72009" lon="3.66672">
        <ele>304</ele>
        <time>2019-04-02T10:29:06Z</time>
      </trkpt>
      <trkpt lat="47.72004" lon="3.66678">
        <ele>303</ele>
        <time>2019-04-02T10:29:10Z</time>
      </trkpt>
      <trkpt lat="47.71999" lon="3.66685">
        <ele>302</ele>
        <time>2019-04-02T10:29:15Z</time>
      </trkpt>
      <trkpt lat="47.71995" lon="3.66689">
        <ele>301</ele>
        <time>2019-04-02T10:29:19Z</time>
      </trkpt>
      <trkpt lat="47.71992" lon="3.66692">
        <ele>300</ele>
        <time>2019-04-02T10:29:22Z</time>
      </trkpt>
      <trkpt lat="47.71989" lon="3.66695">
        <ele>299</ele>
        <time>2019-04-02T10:29:24Z</time>
      </trkpt>
      <trkpt lat="47.71983" lon="3.66697">
        <ele>298</ele>
        <time>2019-04-02T10:29:30Z</time>
      </trkpt>
      <trkpt lat="47.71978" lon="3.667">
        <ele>297</ele>
        <time>2019-04-02T10:29:35Z</time>
      </trkpt>
      <trkpt lat="47.71973" lon="3.66701">
        <ele>296</ele>
        <time>2019-04-02T10:29:40Z</time>
      </trkpt>
      <trkpt lat="47.71968" lon="3.66701">
        <ele>295</ele>
        <time>2019-04-02T10:29:44Z</time>
      </trkpt>
      <trkpt lat="47.71962" lon="3.66703">
        <ele>293</ele>
        <time>2019-04-02T10:29:49Z</time>
      </trkpt>
      <trkpt lat="47.71957" lon="3.66702">
        <ele>293</ele>
        <time>2019-04-02T10:29:53Z</time>
      </trkpt>
      <trkpt lat="47.71952" lon="3.66701">
        <ele>291</ele>
        <time>2019-04-02T10:29:57Z</time>
      </trkpt>
      <trkpt lat="47.71947" lon="3.667">
        <ele>290</ele>
        <time>2019-04-02T10:30:01Z</time>
      </trkpt>
      <trkpt lat="47.71943" lon="3.667">
        <ele>290</ele>
        <time>2019-04-02T10:30:04Z</time>
      </trkpt>
      <trkpt lat="47.7194" lon="3.667">
        <ele>290</ele>
        <time>2019-04-02T10:30:06Z</time>
      </trkpt>
      <trkpt lat="47.71935" lon="3.66697">
        <ele>288</ele>
        <time>2019-04-02T10:30:11Z</time>
      </trkpt>
      <trkpt lat="47.7193" lon="3.66694">
        <ele>287</ele>
        <time>2019-04-02T10:30:16Z</time>
      </trkpt>
      <trkpt lat="47.71926" lon="3.66692">
        <ele>287</ele>
        <time>2019-04-02T10:30:19Z</time>
      </trkpt>
      <trkpt lat="47.71923" lon="3.66689">
        <ele>287</ele>
        <time>2019-04-02T10:30:21Z</time>
      </trkpt>
      <trkpt lat="47.71921" lon="3.66688">
        <ele>286</ele>
        <time>2019-04-02T10:30:23Z</time>
      </trkpt>
      <trkpt lat="47.71918" lon="3.66687">
        <ele>286</ele>
        <time>2019-04-02T10:30:25Z</time>
      </trkpt>
      <trkpt lat="47.71916" lon="3.66685">
        <ele>284</ele>
        <time>2019-04-02T10:30:28Z</time>
      </trkpt>
      <trkpt lat="47.71912" lon="3.66682">
        <ele>283</ele>
        <time>2019-04-02T10:30:31Z</time>
      </trkpt>
      <trkpt lat="47.71907" lon="3.66679">
        <ele>283</ele>
        <time>2019-04-02T10:30:35Z</time>
      </trkpt>
      <trkpt lat="47.71902" lon="3.66676">
        <ele>283</ele>
        <time>2019-04-02T10:30:38Z</time>
      </trkpt>
      <trkpt lat="47.719" lon="3.66674">
        <ele>282</ele>
        <time>2019-04-02T10:30:40Z</time>
      </trkpt>
      <trkpt lat="47.71897" lon="3.66672">
        <ele>282</ele>
        <time>2019-04-02T10:30:42Z</time>
      </trkpt>
      <trkpt lat="47.71895" lon="3.6667">
        <ele>281</ele>
        <time>2019-04-02T10:30:44Z</time>
      </trkpt>
      <trkpt lat="47.7189" lon="3.66667">
        <ele>280</ele>
        <time>2019-04-02T10:30:48Z</time>
      </trkpt>
      <trkpt lat="47.71885" lon="3.66663">
        <ele>280</ele>
        <time>2019-04-02T10:30:52Z</time>
      </trkpt>
      <trkpt lat="47.7188" lon="3.6666">
        <ele>279</ele>
        <time>2019-04-02T10:30:56Z</time>
      </trkpt>
      <trkpt lat="47.71877" lon="3.66655">
        <ele>278</ele>
        <time>2019-04-02T10:31:00Z</time>
      </trkpt>
      <trkpt lat="47.71875" lon="3.66652">
        <ele>278</ele>
        <time>2019-04-02T10:31:02Z</time>
      </trkpt>
      <trkpt lat="47.7187" lon="3.66648">
        <ele>276</ele>
        <time>2019-04-02T10:31:06Z</time>
      </trkpt>
      <trkpt lat="47.71865" lon="3.66644">
        <ele>277</ele>
        <time>2019-04-02T10:31:10Z</time>
      </trkpt>
      <trkpt lat="47.71861" lon="3.6664">
        <ele>276</ele>
        <time>2019-04-02T10:31:13Z</time>
      </trkpt>
      <trkpt lat="47.71858" lon="3.66635">
        <ele>275</ele>
        <time>2019-04-02T10:31:17Z</time>
      </trkpt>
      <trkpt lat="47.71854" lon="3.66631">
        <ele>274</ele>
        <time>2019-04-02T10:31:21Z</time>
      </trkpt>
      <trkpt lat="47.71851" lon="3.66628">
        <ele>273</ele>
        <time>2019-04-02T10:31:24Z</time>
      </trkpt>
      <trkpt lat="47.71845" lon="3.66622">
        <ele>270</ele>
        <time>2019-04-02T10:31:30Z</time>
      </trkpt>
      <trkpt lat="47.71843" lon="3.6662">
        <ele>270</ele>
        <time>2019-04-02T10:31:32Z</time>
      </trkpt>
      <trkpt lat="47.7184" lon="3.66618">
        <ele>270</ele>
        <time>2019-04-02T10:31:34Z</time>
      </trkpt>
      <trkpt lat="47.71837" lon="3.66615">
        <ele>269</ele>
        <time>2019-04-02T10:31:37Z</time>
      </trkpt>
      <trkpt lat="47.71834" lon="3.66613">
        <ele>268</ele>
        <time>2019-04-02T10:31:39Z</time>
      </trkpt>
      <trkpt lat="47.7183" lon="3.66608">
        <ele>266</ele>
        <time>2019-04-02T10:31:43Z</time>
      </trkpt>
      <trkpt lat="47.71829" lon="3.66606">
        <ele>267</ele>
        <time>2019-04-02T10:31:45Z</time>
      </trkpt>
      <trkpt lat="47.71826" lon="3.66602">
        <ele>267</ele>
        <time>2019-04-02T10:31:49Z</time>
      </trkpt>
      <trkpt lat="47.71822" lon="3.66597">
        <ele>266</ele>
        <time>2019-04-02T10:31:53Z</time>
      </trkpt>
      <trkpt lat="47.7182" lon="3.66595">
        <ele>268</ele>
        <time>2019-04-02T10:31:55Z</time>
      </trkpt>
      <trkpt lat="47.71819" lon="3.66592">
        <ele>267</ele>
        <time>2019-04-02T10:31:57Z</time>
      </trkpt>
      <trkpt lat="47.71817" lon="3.6659">
        <ele>267</ele>
        <time>2019-04-02T10:31:59Z</time>
      </trkpt>
      <trkpt lat="47.71814" lon="3.66586">
        <ele>267</ele>
        <time>2019-04-02T10:32:02Z</time>
      </trkpt>
      <trkpt lat="47.71811" lon="3.66583">
        <ele>267</ele>
        <time>2019-04-02T10:32:04Z</time>
      </trkpt>
      <trkpt lat="47.7181" lon="3.66581">
        <ele>267</ele>
        <time>2019-04-02T10:32:06Z</time>
      </trkpt>
      <trkpt lat="47.71808" lon="3.66579">
        <ele>266</ele>
        <time>2019-04-02T10:32:08Z</time>
      </trkpt>
      <trkpt lat="47.71805" lon="3.66573">
        <ele>266</ele>
        <time>2019-04-02T10:32:12Z</time>
      </trkpt>
      <trkpt lat="47.71801" lon="3.66568">
        <ele>265</ele>
        <time>2019-04-02T10:32:16Z</time>
      </trkpt>
      <trkpt lat="47.71799" lon="3.66565">
        <ele>266</ele>
        <time>2019-04-02T10:32:18Z</time>
      </trkpt>
      <trkpt lat="47.71797" lon="3.66563">
        <ele>266</ele>
        <time>2019-04-02T10:32:20Z</time>
      </trkpt>
      <trkpt lat="47.71794" lon="3.66556">
        <ele>267</ele>
        <time>2019-04-02T10:32:24Z</time>
      </trkpt>
      <trkpt lat="47.7179" lon="3.66549">
        <ele>265</ele>
        <time>2019-04-02T10:32:29Z</time>
      </trkpt>
      <trkpt lat="47.71786" lon="3.66543">
        <ele>264</ele>
        <time>2019-04-02T10:32:33Z</time>
      </trkpt>
      <trkpt lat="47.71784" lon="3.6654">
        <ele>264</ele>
        <time>2019-04-02T10:32:35Z</time>
      </trkpt>
      <trkpt lat="47.7178" lon="3.66532">
        <ele>264</ele>
        <time>2019-04-02T10:32:40Z</time>
      </trkpt>
      <trkpt lat="47.71778" lon="3.66529">
        <ele>264</ele>
        <time>2019-04-02T10:32:42Z</time>
      </trkpt>
      <trkpt lat="47.71773" lon="3.66523">
        <ele>262</ele>
        <time>2019-04-02T10:32:46Z</time>
      </trkpt>
      <trkpt lat="47.7177" lon="3.66519">
        <ele>262</ele>
        <time>2019-04-02T10:32:49Z</time>
      </trkpt>
      <trkpt lat="47.71766" lon="3.66513">
        <ele>262</ele>
        <time>2019-04-02T10:32:54Z</time>
      </trkpt>
      <trkpt lat="47.71762" lon="3.66508">
        <ele>261</ele>
        <time>2019-04-02T10:32:58Z</time>
      </trkpt>
      <trkpt lat="47.71758" lon="3.66502">
        <ele>259</ele>
        <time>2019-04-02T10:33:02Z</time>
      </trkpt>
      <trkpt lat="47.71756" lon="3.66499">
        <ele>259</ele>
        <time>2019-04-02T10:33:04Z</time>
      </trkpt>
      <trkpt lat="47.71752" lon="3.66493">
        <ele>258</ele>
        <time>2019-04-02T10:33:09Z</time>
      </trkpt>
      <trkpt lat="47.71748" lon="3.66487">
        <ele>258</ele>
        <time>2019-04-02T10:33:14Z</time>
      </trkpt>
      <trkpt lat="47.71745" lon="3.66483">
        <ele>257</ele>
        <time>2019-04-02T10:33:18Z</time>
      </trkpt>
      <trkpt lat="47.71741" lon="3.66477">
        <ele>257</ele>
        <time>2019-04-02T10:33:22Z</time>
      </trkpt>
      <trkpt lat="47.71737" lon="3.66472">
        <ele>257</ele>
        <time>2019-04-02T10:33:26Z</time>
      </trkpt>
      <trkpt lat="47.71733" lon="3.66466">
        <ele>256</ele>
        <time>2019-04-02T10:33:31Z</time>
      </trkpt>
      <trkpt lat="47.71729" lon="3.66459">
        <ele>256</ele>
        <time>2019-04-02T10:33:35Z</time>
      </trkpt>
      <trkpt lat="47.71727" lon="3.66455">
        <ele>255</ele>
        <time>2019-04-02T10:33:37Z</time>
      </trkpt>
      <trkpt lat="47.71725" lon="3.66452">
        <ele>255</ele>
        <time>2019-04-02T10:33:39Z</time>
      </trkpt>
      <trkpt lat="47.71722" lon="3.66448">
        <ele>254</ele>
        <time>2019-04-02T10:33:42Z</time>
      </trkpt>
      <trkpt lat="47.71721" lon="3.66445">
        <ele>254</ele>
        <time>2019-04-02T10:33:44Z</time>
      </trkpt>
      <trkpt lat="47.71718" lon="3.6644">
        <ele>254</ele>
        <time>2019-04-02T10:33:48Z</time>
      </trkpt>
      <trkpt lat="47.71713" lon="3.66434">
        <ele>253</ele>
        <time>2019-04-02T10:33:53Z</time>
      </trkpt>
      <trkpt lat="47.71708" lon="3.66426">
        <ele>252</ele>
        <time>2019-04-02T10:33:58Z</time>
      </trkpt>
      <trkpt lat="47.71707" lon="3.66422">
        <ele>250</ele>
        <time>2019-04-02T10:34:00Z</time>
      </trkpt>
      <trkpt lat="47.71703" lon="3.66417">
        <ele>250</ele>
        <time>2019-04-02T10:34:04Z</time>
      </trkpt>
      <trkpt lat="47.71702" lon="3.66414">
        <ele>249</ele>
        <time>2019-04-02T10:34:06Z</time>
      </trkpt>
      <trkpt lat="47.717" lon="3.66411">
        <ele>249</ele>
        <time>2019-04-02T10:34:08Z</time>
      </trkpt>
      <trkpt lat="47.71696" lon="3.66407">
        <ele>248</ele>
        <time>2019-04-02T10:34:11Z</time>
      </trkpt>
      <trkpt lat="47.71694" lon="3.66405">
        <ele>248</ele>
        <time>2019-04-02T10:34:13Z</time>
      </trkpt>
      <trkpt lat="47.71691" lon="3.66399">
        <ele>247</ele>
        <time>2019-04-02T10:34:17Z</time>
      </trkpt>
      <trkpt lat="47.71688" lon="3.66395">
        <ele>247</ele>
        <time>2019-04-02T10:34:20Z</time>
      </trkpt>
      <trkpt lat="47.71684" lon="3.6639">
        <ele>246</ele>
        <time>2019-04-02T10:34:24Z</time>
      </trkpt>
      <trkpt lat="47.71681" lon="3.66386">
        <ele>244</ele>
        <time>2019-04-02T10:34:27Z</time>
      </trkpt>
      <trkpt lat="47.71677" lon="3.6638">
        <ele>242</ele>
        <time>2019-04-02T10:34:31Z</time>
      </trkpt>
      <trkpt lat="47.71673" lon="3.66376">
        <ele>241</ele>
        <time>2019-04-02T10:34:35Z</time>
      </trkpt>
      <trkpt lat="47.7167" lon="3.66371">
        <ele>241</ele>
        <time>2019-04-02T10:34:39Z</time>
      </trkpt>
      <trkpt lat="47.71667" lon="3.66368">
        <ele>240</ele>
        <time>2019-04-02T10:34:42Z</time>
      </trkpt>
      <trkpt lat="47.71664" lon="3.66366">
        <ele>240</ele>
        <time>2019-04-02T10:34:45Z</time>
      </trkpt>
      <trkpt lat="47.71661" lon="3.66363">
        <ele>240</ele>
        <time>2019-04-02T10:34:47Z</time>
      </trkpt>
      <trkpt lat="47.71657" lon="3.66361">
        <ele>239</ele>
        <time>2019-04-02T10:34:50Z</time>
      </trkpt>
      <trkpt lat="47.71652" lon="3.66357">
        <ele>239</ele>
        <time>2019-04-02T10:34:54Z</time>
      </trkpt>
      <trkpt lat="47.71648" lon="3.66355">
        <ele>236</ele>
        <time>2019-04-02T10:34:59Z</time>
      </trkpt>
      <trkpt lat="47.71643" lon="3.66354">
        <ele>236</ele>
        <time>2019-04-02T10:35:03Z</time>
      </trkpt>
      <trkpt lat="47.7164" lon="3.66354">
        <ele>235</ele>
        <time>2019-04-02T10:35:05Z</time>
      </trkpt>
      <trkpt lat="47.71637" lon="3.66353">
        <ele>235</ele>
        <time>2019-04-02T10:35:07Z</time>
      </trkpt>
      <trkpt lat="47.71632" lon="3.66353">
        <ele>234</ele>
        <time>2019-04-02T10:35:11Z</time>
      </trkpt>
      <trkpt lat="47.71626" lon="3.66354">
        <ele>234</ele>
        <time>2019-04-02T10:35:15Z</time>
      </trkpt>
      <trkpt lat="47.71623" lon="3.66355">
        <ele>234</ele>
        <time>2019-04-02T10:35:17Z</time>
      </trkpt>
      <trkpt lat="47.71621" lon="3.66355">
        <ele>234</ele>
        <time>2019-04-02T10:35:19Z</time>
      </trkpt>
      <trkpt lat="47.71617" lon="3.66356">
        <ele>233</ele>
        <time>2019-04-02T10:35:21Z</time>
      </trkpt>
      <trkpt lat="47.71613" lon="3.66356">
        <ele>233</ele>
        <time>2019-04-02T10:35:24Z</time>
      </trkpt>
      <trkpt lat="47.71608" lon="3.66359">
        <ele>233</ele>
        <time>2019-04-02T10:35:28Z</time>
      </trkpt>
      <trkpt lat="47.71604" lon="3.6636">
        <ele>233</ele>
        <time>2019-04-02T10:35:32Z</time>
      </trkpt>
      <trkpt lat="47.71598" lon="3.66363">
        <ele>232</ele>
        <time>2019-04-02T10:35:37Z</time>
      </trkpt>
      <trkpt lat="47.71593" lon="3.66365">
        <ele>231</ele>
        <time>2019-04-02T10:35:41Z</time>
      </trkpt>
      <trkpt lat="47.71589" lon="3.66369">
        <ele>231</ele>
        <time>2019-04-02T10:35:45Z</time>
      </trkpt>
      <trkpt lat="47.71585" lon="3.66374">
        <ele>230</ele>
        <time>2019-04-02T10:35:49Z</time>
      </trkpt>
      <trkpt lat="47.71582" lon="3.66379">
        <ele>230</ele>
        <time>2019-04-02T10:35:53Z</time>
      </trkpt>
      <trkpt lat="47.7158" lon="3.66382">
        <ele>229</ele>
        <time>2019-04-02T10:35:56Z</time>
      </trkpt>
      <trkpt lat="47.71577" lon="3.66389">
        <ele>229</ele>
        <time>2019-04-02T10:36:00Z</time>
      </trkpt>
      <trkpt lat="47.71576" lon="3.66392">
        <ele>229</ele>
        <time>2019-04-02T10:36:02Z</time>
      </trkpt>
      <trkpt lat="47.71574" lon="3.66396">
        <ele>229</ele>
        <time>2019-04-02T10:36:05Z</time>
      </trkpt>
      <trkpt lat="47.71572" lon="3.66402">
        <ele>227</ele>
        <time>2019-04-02T10:36:10Z</time>
      </trkpt>
      <trkpt lat="47.71571" lon="3.66405">
        <ele>226</ele>
        <time>2019-04-02T10:36:13Z</time>
      </trkpt>
      <trkpt lat="47.71569" lon="3.66413">
        <ele>227</ele>
        <time>2019-04-02T10:36:17Z</time>
      </trkpt>
      <trkpt lat="47.71566" lon="3.66419">
        <ele>226</ele>
        <time>2019-04-02T10:36:22Z</time>
      </trkpt>
      <trkpt lat="47.71564" lon="3.66424">
        <ele>224</ele>
        <time>2019-04-02T10:36:25Z</time>
      </trkpt>
      <trkpt lat="47.71562" lon="3.66429">
        <ele>224</ele>
        <time>2019-04-02T10:36:28Z</time>
      </trkpt>
      <trkpt lat="47.7156" lon="3.66435">
        <ele>223</ele>
        <time>2019-04-02T10:36:32Z</time>
      </trkpt>
      <trkpt lat="47.71558" lon="3.66442">
        <ele>223</ele>
        <time>2019-04-02T10:36:36Z</time>
      </trkpt>
      <trkpt lat="47.71556" lon="3.66447">
        <ele>222</ele>
        <time>2019-04-02T10:36:39Z</time>
      </trkpt>
      <trkpt lat="47.71554" lon="3.66451">
        <ele>222</ele>
        <time>2019-04-02T10:36:42Z</time>
      </trkpt>
      <trkpt lat="47.71552" lon="3.66455">
        <ele>221</ele>
        <time>2019-04-02T10:36:44Z</time>
      </trkpt>
      <trkpt lat="47.71551" lon="3.66457">
        <ele>221</ele>
        <time>2019-04-02T10:36:46Z</time>
      </trkpt>
      <trkpt lat="47.71549" lon="3.66461">
        <ele>221</ele>
        <time>2019-04-02T10:36:48Z</time>
      </trkpt>
      <trkpt lat="47.71548" lon="3.66466">
        <ele>221</ele>
        <time>2019-04-02T10:36:51Z</time>
      </trkpt>
      <trkpt lat="47.71546" lon="3.66469">
        <ele>220</ele>
        <time>2019-04-02T10:36:53Z</time>
      </trkpt>
      <trkpt lat="47.71545" lon="3.66474">
        <ele>220</ele>
        <time>2019-04-02T10:36:56Z</time>
      </trkpt>
      <trkpt lat="47.71543" lon="3.66477">
        <ele>220</ele>
        <time>2019-04-02T10:36:58Z</time>
      </trkpt>
      <trkpt lat="47.71542" lon="3.66481">
        <ele>220</ele>
        <time>2019-04-02T10:37:00Z</time>
      </trkpt>
      <trkpt lat="47.7154" lon="3.66484">
        <ele>220</ele>
        <time>2019-04-02T10:37:02Z</time>
      </trkpt>
      <trkpt lat="47.71536" lon="3.6649">
        <ele>221</ele>
        <time>2019-04-02T10:37:06Z</time>
      </trkpt>
      <trkpt lat="47.71535" lon="3.66492">
        <ele>222</ele>
        <time>2019-04-02T10:37:08Z</time>
      </trkpt>
      <trkpt lat="47.71532" lon="3.66495">
        <ele>221</ele>
        <time>2019-04-02T10:37:10Z</time>
      </trkpt>
      <trkpt lat="47.71528" lon="3.66499">
        <ele>221</ele>
        <time>2019-04-02T10:37:14Z</time>
      </trkpt>
      <trkpt lat="47.7152" lon="3.66503">
        <ele>221</ele>
        <time>2019-04-02T10:37:20Z</time>
      </trkpt>
      <trkpt lat="47.71517" lon="3.66505">
        <ele>220</ele>
        <time>2019-04-02T10:37:22Z</time>
      </trkpt>
      <trkpt lat="47.71512" lon="3.6651">
        <ele>219</ele>
        <time>2019-04-02T10:37:28Z</time>
      </trkpt>
      <trkpt lat="47.71506" lon="3.66511">
        <ele>219</ele>
        <time>2019-04-02T10:37:33Z</time>
      </trkpt>
      <trkpt lat="47.71501" lon="3.66513">
        <ele>215</ele>
        <time>2019-04-02T10:37:38Z</time>
      </trkpt>
      <trkpt lat="47.71497" lon="3.66517">
        <ele>213</ele>
        <time>2019-04-02T10:37:44Z</time>
      </trkpt>
      <trkpt lat="47.71496" lon="3.66521">
        <ele>213</ele>
        <time>2019-04-02T10:37:53Z</time>
      </trkpt>
      <trkpt lat="47.71492" lon="3.66516">
        <ele>209</ele>
        <time>2019-04-02T10:39:01Z</time>
      </trkpt>
      <trkpt lat="47.7149" lon="3.66513">
        <ele>210</ele>
        <time>2019-04-02T10:39:04Z</time>
      </trkpt>
      <trkpt lat="47.71486" lon="3.66516">
        <ele>210</ele>
        <time>2019-04-02T10:39:07Z</time>
      </trkpt>
      <trkpt lat="47.71482" lon="3.66523">
        <ele>210</ele>
        <time>2019-04-02T10:39:11Z</time>
      </trkpt>
      <trkpt lat="47.71479" lon="3.66527">
        <ele>210</ele>
        <time>2019-04-02T10:39:14Z</time>
      </trkpt>
      <trkpt lat="47.71478" lon="3.6653">
        <ele>211</ele>
        <time>2019-04-02T10:39:16Z</time>
      </trkpt>
      <trkpt lat="47.71476" lon="3.66533">
        <ele>211</ele>
        <time>2019-04-02T10:39:18Z</time>
      </trkpt>
      <trkpt lat="47.71474" lon="3.66537">
        <ele>212</ele>
        <time>2019-04-02T10:39:21Z</time>
      </trkpt>
      <trkpt lat="47.71472" lon="3.66543">
        <ele>210</ele>
        <time>2019-04-02T10:39:25Z</time>
      </trkpt>
      <trkpt lat="47.71471" lon="3.66547">
        <ele>210</ele>
        <time>2019-04-02T10:39:28Z</time>
      </trkpt>
      <trkpt lat="47.71467" lon="3.66552">
        <ele>211</ele>
        <time>2019-04-02T10:39:34Z</time>
      </trkpt>
      <trkpt lat="47.71464" lon="3.66557">
        <ele>212</ele>
        <time>2019-04-02T10:39:40Z</time>
      </trkpt>
      <trkpt lat="47.71461" lon="3.6656">
        <ele>213</ele>
        <time>2019-04-02T10:39:43Z</time>
      </trkpt>
      <trkpt lat="47.7146" lon="3.66562">
        <ele>213</ele>
        <time>2019-04-02T10:39:45Z</time>
      </trkpt>
      <trkpt lat="47.71457" lon="3.66574">
        <ele>213</ele>
        <time>2019-04-02T10:39:50Z</time>
      </trkpt>
      <trkpt lat="47.71456" lon="3.66578">
        <ele>214</ele>
        <time>2019-04-02T10:39:52Z</time>
      </trkpt>
      <trkpt lat="47.71456" lon="3.66586">
        <ele>214</ele>
        <time>2019-04-02T10:39:56Z</time>
      </trkpt>
      <trkpt lat="47.71456" lon="3.6659">
        <ele>213</ele>
        <time>2019-04-02T10:39:58Z</time>
      </trkpt>
      <trkpt lat="47.71454" lon="3.66596">
        <ele>213</ele>
        <time>2019-04-02T10:40:03Z</time>
      </trkpt>
      <trkpt lat="47.71455" lon="3.66603">
        <ele>213</ele>
        <time>2019-04-02T10:40:09Z</time>
      </trkpt>
      <trkpt lat="47.71457" lon="3.66608">
        <ele>213</ele>
        <time>2019-04-02T10:40:12Z</time>
      </trkpt>
      <trkpt lat="47.71456" lon="3.66618">
        <ele>214</ele>
        <time>2019-04-02T10:40:19Z</time>
      </trkpt>
      <trkpt lat="47.71449" lon="3.6662">
        <ele>216</ele>
        <time>2019-04-02T10:40:26Z</time>
      </trkpt>
      <trkpt lat="47.71444" lon="3.66624">
        <ele>218</ele>
        <time>2019-04-02T10:40:31Z</time>
      </trkpt>
      <trkpt lat="47.71442" lon="3.66631">
        <ele>219</ele>
        <time>2019-04-02T10:40:36Z</time>
      </trkpt>
      <trkpt lat="47.71441" lon="3.66635">
        <ele>218</ele>
        <time>2019-04-02T10:40:39Z</time>
      </trkpt>
      <trkpt lat="47.7144" lon="3.66639">
        <ele>218</ele>
        <time>2019-04-02T10:40:43Z</time>
      </trkpt>
      <trkpt lat="47.71439" lon="3.66643">
        <ele>218</ele>
        <time>2019-04-02T10:40:46Z</time>
      </trkpt>
      <trkpt lat="47.71438" lon="3.66647">
        <ele>218</ele>
        <time>2019-04-02T10:40:48Z</time>
      </trkpt>
      <trkpt lat="47.71436" lon="3.66652">
        <ele>218</ele>
        <time>2019-04-02T10:40:52Z</time>
      </trkpt>
      <trkpt lat="47.71436" lon="3.66652">
        <ele>218</ele>
        <time>2019-04-02T10:41:00Z</time>
      </trkpt>
      <trkpt lat="47.71436" lon="3.66652">
        <ele>218</ele>
        <time>2019-04-02T10:41:01Z</time>
      </trkpt>
      <trkpt lat="47.71442" lon="3.66667">
        <ele>224</ele>
        <time>2019-04-02T11:03:40Z</time>
      </trkpt>
      <trkpt lat="47.71436" lon="3.66675">
        <ele>223</ele>
        <time>2019-04-02T11:03:49Z</time>
      </trkpt>
      <trkpt lat="47.71437" lon="3.66681">
        <ele>220</ele>
        <time>2019-04-02T11:03:59Z</time>
      </trkpt>
      <trkpt lat="47.71437" lon="3.66681">
        <ele>220</ele>
        <time>2019-04-02T11:06:18Z</time>
      </trkpt>
      <trkpt lat="47.71442" lon="3.66654">
        <ele>219</ele>
        <time>2019-04-02T11:15:25Z</time>
      </trkpt>
      <trkpt lat="47.71439" lon="3.66647">
        <ele>218</ele>
        <time>2019-04-02T11:15:33Z</time>
      </trkpt>
      <trkpt lat="47.71437" lon="3.66641">
        <ele>218</ele>
        <time>2019-04-02T11:15:38Z</time>
      </trkpt>
      <trkpt lat="47.71435" lon="3.66635">
        <ele>218</ele>
        <time>2019-04-02T11:15:42Z</time>
      </trkpt>
      <trkpt lat="47.71431" lon="3.66631">
        <ele>218</ele>
        <time>2019-04-02T11:15:45Z</time>
      </trkpt>
      <trkpt lat="47.71428" lon="3.66629">
        <ele>217</ele>
        <time>2019-04-02T11:15:48Z</time>
      </trkpt>
      <trkpt lat="47.71426" lon="3.66627">
        <ele>217</ele>
        <time>2019-04-02T11:15:50Z</time>
      </trkpt>
      <trkpt lat="47.71424" lon="3.66626">
        <ele>217</ele>
        <time>2019-04-02T11:15:53Z</time>
      </trkpt>
      <trkpt lat="47.71418" lon="3.66625">
        <ele>219</ele>
        <time>2019-04-02T11:16:01Z</time>
      </trkpt>
      <trkpt lat="47.71413" lon="3.66625">
        <ele>221</ele>
        <time>2019-04-02T11:16:06Z</time>
      </trkpt>
      <trkpt lat="47.71408" lon="3.66626">
        <ele>220</ele>
        <time>2019-04-02T11:16:09Z</time>
      </trkpt>
      <trkpt lat="47.71403" lon="3.66625">
        <ele>222</ele>
        <time>2019-04-02T11:16:14Z</time>
      </trkpt>
      <trkpt lat="47.71398" lon="3.66626">
        <ele>223</ele>
        <time>2019-04-02T11:16:18Z</time>
      </trkpt>
      <trkpt lat="47.71393" lon="3.66625">
        <ele>224</ele>
        <time>2019-04-02T11:16:24Z</time>
      </trkpt>
      <trkpt lat="47.7139" lon="3.6662">
        <ele>224</ele>
        <time>2019-04-02T11:16:28Z</time>
      </trkpt>
      <trkpt lat="47.71389" lon="3.66613">
        <ele>227</ele>
        <time>2019-04-02T11:16:34Z</time>
      </trkpt>
      <trkpt lat="47.71387" lon="3.66608">
        <ele>227</ele>
        <time>2019-04-02T11:16:38Z</time>
      </trkpt>
      <trkpt lat="47.71387" lon="3.666">
        <ele>227</ele>
        <time>2019-04-02T11:16:42Z</time>
      </trkpt>
      <trkpt lat="47.71386" lon="3.66592">
        <ele>226</ele>
        <time>2019-04-02T11:16:48Z</time>
      </trkpt>
      <trkpt lat="47.71385" lon="3.66587">
        <ele>227</ele>
        <time>2019-04-02T11:16:50Z</time>
      </trkpt>
      <trkpt lat="47.71384" lon="3.66581">
        <ele>226</ele>
        <time>2019-04-02T11:16:53Z</time>
      </trkpt>
      <trkpt lat="47.71384" lon="3.66573">
        <ele>226</ele>
        <time>2019-04-02T11:16:58Z</time>
      </trkpt>
      <trkpt lat="47.71384" lon="3.66567">
        <ele>227</ele>
        <time>2019-04-02T11:17:02Z</time>
      </trkpt>
      <trkpt lat="47.71383" lon="3.6656">
        <ele>227</ele>
        <time>2019-04-02T11:17:06Z</time>
      </trkpt>
      <trkpt lat="47.71379" lon="3.66551">
        <ele>228</ele>
        <time>2019-04-02T11:17:15Z</time>
      </trkpt>
      <trkpt lat="47.71379" lon="3.66543">
        <ele>227</ele>
        <time>2019-04-02T11:17:20Z</time>
      </trkpt>
      <trkpt lat="47.71379" lon="3.6654">
        <ele>227</ele>
        <time>2019-04-02T11:17:23Z</time>
      </trkpt>
      <trkpt lat="47.71379" lon="3.66532">
        <ele>228</ele>
        <time>2019-04-02T11:17:29Z</time>
      </trkpt>
      <trkpt lat="47.71376" lon="3.66525">
        <ele>227</ele>
        <time>2019-04-02T11:17:35Z</time>
      </trkpt>
      <trkpt lat="47.71376" lon="3.66516">
        <ele>228</ele>
        <time>2019-04-02T11:17:42Z</time>
      </trkpt>
      <trkpt lat="47.71373" lon="3.66507">
        <ele>227</ele>
        <time>2019-04-02T11:17:47Z</time>
      </trkpt>
      <trkpt lat="47.71372" lon="3.66504">
        <ele>227</ele>
        <time>2019-04-02T11:17:49Z</time>
      </trkpt>
      <trkpt lat="47.71369" lon="3.66497">
        <ele>226</ele>
        <time>2019-04-02T11:17:53Z</time>
      </trkpt>
      <trkpt lat="47.71366" lon="3.66488">
        <ele>225</ele>
        <time>2019-04-02T11:17:59Z</time>
      </trkpt>
      <trkpt lat="47.71364" lon="3.6648">
        <ele>225</ele>
        <time>2019-04-02T11:18:04Z</time>
      </trkpt>
      <trkpt lat="47.71363" lon="3.66476">
        <ele>223</ele>
        <time>2019-04-02T11:18:07Z</time>
      </trkpt>
      <trkpt lat="47.7136" lon="3.66471">
        <ele>223</ele>
        <time>2019-04-02T11:18:11Z</time>
      </trkpt>
      <trkpt lat="47.71357" lon="3.66464">
        <ele>224</ele>
        <time>2019-04-02T11:18:16Z</time>
      </trkpt>
      <trkpt lat="47.71354" lon="3.66459">
        <ele>222</ele>
        <time>2019-04-02T11:18:22Z</time>
      </trkpt>
      <trkpt lat="47.71352" lon="3.66455">
        <ele>221</ele>
        <time>2019-04-02T11:18:25Z</time>
      </trkpt>
      <trkpt lat="47.7135" lon="3.66452">
        <ele>220</ele>
        <time>2019-04-02T11:18:28Z</time>
      </trkpt>
      <trkpt lat="47.71348" lon="3.66448">
        <ele>220</ele>
        <time>2019-04-02T11:18:48Z</time>
      </trkpt>
      <trkpt lat="47.71344" lon="3.66443">
        <ele>220</ele>
        <time>2019-04-02T11:18:53Z</time>
      </trkpt>
      <trkpt lat="47.71341" lon="3.66435">
        <ele>222</ele>
        <time>2019-04-02T11:19:11Z</time>
      </trkpt>
      <trkpt lat="47.71337" lon="3.66431">
        <ele>221</ele>
        <time>2019-04-02T11:19:16Z</time>
      </trkpt>
      <trkpt lat="47.7133" lon="3.66429">
        <ele>218</ele>
        <time>2019-04-02T11:19:23Z</time>
      </trkpt>
      <trkpt lat="47.71324" lon="3.66429">
        <ele>218</ele>
        <time>2019-04-02T11:19:26Z</time>
      </trkpt>
      <trkpt lat="47.71321" lon="3.66429">
        <ele>219</ele>
        <time>2019-04-02T11:19:29Z</time>
      </trkpt>
      <trkpt lat="47.71317" lon="3.6643">
        <ele>221</ele>
        <time>2019-04-02T11:19:32Z</time>
      </trkpt>
      <trkpt lat="47.71312" lon="3.66434">
        <ele>222</ele>
        <time>2019-04-02T11:19:37Z</time>
      </trkpt>
      <trkpt lat="47.71308" lon="3.66438">
        <ele>223</ele>
        <time>2019-04-02T11:19:42Z</time>
      </trkpt>
      <trkpt lat="47.71304" lon="3.66443">
        <ele>223</ele>
        <time>2019-04-02T11:19:46Z</time>
      </trkpt>
      <trkpt lat="47.71301" lon="3.66446">
        <ele>222</ele>
        <time>2019-04-02T11:19:49Z</time>
      </trkpt>
      <trkpt lat="47.71298" lon="3.66449">
        <ele>222</ele>
        <time>2019-04-02T11:19:52Z</time>
      </trkpt>
      <trkpt lat="47.71296" lon="3.66451">
        <ele>223</ele>
        <time>2019-04-02T11:19:54Z</time>
      </trkpt>
      <trkpt lat="47.71291" lon="3.66455">
        <ele>223</ele>
        <time>2019-04-02T11:19:58Z</time>
      </trkpt>
      <trkpt lat="47.71287" lon="3.6646">
        <ele>224</ele>
        <time>2019-04-02T11:20:04Z</time>
      </trkpt>
      <trkpt lat="47.71284" lon="3.66462">
        <ele>224</ele>
        <time>2019-04-02T11:20:08Z</time>
      </trkpt>
      <trkpt lat="47.71281" lon="3.66469">
        <ele>224</ele>
        <time>2019-04-02T11:20:12Z</time>
      </trkpt>
      <trkpt lat="47.71277" lon="3.66473">
        <ele>223</ele>
        <time>2019-04-02T11:20:16Z</time>
      </trkpt>
      <trkpt lat="47.71275" lon="3.66474">
        <ele>223</ele>
        <time>2019-04-02T11:20:18Z</time>
      </trkpt>
      <trkpt lat="47.71269" lon="3.66476">
        <ele>224</ele>
        <time>2019-04-02T11:20:23Z</time>
      </trkpt>
      <trkpt lat="47.71265" lon="3.66477">
        <ele>224</ele>
        <time>2019-04-02T11:20:27Z</time>
      </trkpt>
      <trkpt lat="47.71261" lon="3.66482">
        <ele>225</ele>
        <time>2019-04-02T11:20:31Z</time>
      </trkpt>
      <trkpt lat="47.71259" lon="3.66489">
        <ele>226</ele>
        <time>2019-04-02T11:20:36Z</time>
      </trkpt>
      <trkpt lat="47.71254" lon="3.66492">
        <ele>224</ele>
        <time>2019-04-02T11:20:41Z</time>
      </trkpt>
      <trkpt lat="47.71252" lon="3.66494">
        <ele>224</ele>
        <time>2019-04-02T11:20:43Z</time>
      </trkpt>
      <trkpt lat="47.71251" lon="3.66501">
        <ele>222</ele>
        <time>2019-04-02T11:20:48Z</time>
      </trkpt>
      <trkpt lat="47.71245" lon="3.665">
        <ele>222</ele>
        <time>2019-04-02T11:20:55Z</time>
      </trkpt>
      <trkpt lat="47.71241" lon="3.66502">
        <ele>223</ele>
        <time>2019-04-02T11:20:57Z</time>
      </trkpt>
      <trkpt lat="47.71237" lon="3.66504">
        <ele>225</ele>
        <time>2019-04-02T11:21:02Z</time>
      </trkpt>
      <trkpt lat="47.71232" lon="3.66505">
        <ele>227</ele>
        <time>2019-04-02T11:21:07Z</time>
      </trkpt>
      <trkpt lat="47.71228" lon="3.66508">
        <ele>226</ele>
        <time>2019-04-02T11:21:11Z</time>
      </trkpt>
      <trkpt lat="47.71223" lon="3.66512">
        <ele>228</ele>
        <time>2019-04-02T11:21:16Z</time>
      </trkpt>
      <trkpt lat="47.71218" lon="3.66516">
        <ele>229</ele>
        <time>2019-04-02T11:21:21Z</time>
      </trkpt>
      <trkpt lat="47.71214" lon="3.66521">
        <ele>228</ele>
        <time>2019-04-02T11:21:25Z</time>
      </trkpt>
      <trkpt lat="47.71212" lon="3.66523">
        <ele>228</ele>
        <time>2019-04-02T11:21:32Z</time>
      </trkpt>
      <trkpt lat="47.71207" lon="3.66525">
        <ele>228</ele>
        <time>2019-04-02T11:21:37Z</time>
      </trkpt>
      <trkpt lat="47.71202" lon="3.66527">
        <ele>229</ele>
        <time>2019-04-02T11:21:43Z</time>
      </trkpt>
      <trkpt lat="47.71199" lon="3.66532">
        <ele>227</ele>
        <time>2019-04-02T11:21:48Z</time>
      </trkpt>
      <trkpt lat="47.71195" lon="3.6654">
        <ele>225</ele>
        <time>2019-04-02T11:21:55Z</time>
      </trkpt>
      <trkpt lat="47.71193" lon="3.66546">
        <ele>227</ele>
        <time>2019-04-02T11:21:59Z</time>
      </trkpt>
      <trkpt lat="47.71191" lon="3.66553">
        <ele>226</ele>
        <time>2019-04-02T11:22:03Z</time>
      </trkpt>
      <trkpt lat="47.71189" lon="3.66558">
        <ele>227</ele>
        <time>2019-04-02T11:22:06Z</time>
      </trkpt>
      <trkpt lat="47.71185" lon="3.66562">
        <ele>227</ele>
        <time>2019-04-02T11:22:09Z</time>
      </trkpt>
      <trkpt lat="47.71183" lon="3.66569">
        <ele>229</ele>
        <time>2019-04-02T11:22:14Z</time>
      </trkpt>
      <trkpt lat="47.71181" lon="3.66572">
        <ele>229</ele>
        <time>2019-04-02T11:22:16Z</time>
      </trkpt>
      <trkpt lat="47.7118" lon="3.66576">
        <ele>229</ele>
        <time>2019-04-02T11:22:19Z</time>
      </trkpt>
      <trkpt lat="47.71178" lon="3.6658">
        <ele>230</ele>
        <time>2019-04-02T11:22:22Z</time>
      </trkpt>
      <trkpt lat="47.71175" lon="3.66586">
        <ele>229</ele>
        <time>2019-04-02T11:22:27Z</time>
      </trkpt>
      <trkpt lat="47.71173" lon="3.66589">
        <ele>230</ele>
        <time>2019-04-02T11:22:29Z</time>
      </trkpt>
      <trkpt lat="47.71171" lon="3.66593">
        <ele>230</ele>
        <time>2019-04-02T11:22:32Z</time>
      </trkpt>
      <trkpt lat="47.71169" lon="3.66595">
        <ele>231</ele>
        <time>2019-04-02T11:22:34Z</time>
      </trkpt>
      <trkpt lat="47.71164" lon="3.66602">
        <ele>233</ele>
        <time>2019-04-02T11:22:40Z</time>
      </trkpt>
      <trkpt lat="47.71161" lon="3.66607">
        <ele>234</ele>
        <time>2019-04-02T11:22:45Z</time>
      </trkpt>
      <trkpt lat="47.71158" lon="3.66613">
        <ele>234</ele>
        <time>2019-04-02T11:22:49Z</time>
      </trkpt>
      <trkpt lat="47.71154" lon="3.66619">
        <ele>236</ele>
        <time>2019-04-02T11:22:54Z</time>
      </trkpt>
      <trkpt lat="47.71151" lon="3.66625">
        <ele>236</ele>
        <time>2019-04-02T11:22:59Z</time>
      </trkpt>
      <trkpt lat="47.71147" lon="3.6663">
        <ele>236</ele>
        <time>2019-04-02T11:23:03Z</time>
      </trkpt>
      <trkpt lat="47.71145" lon="3.66633">
        <ele>236</ele>
        <time>2019-04-02T11:23:06Z</time>
      </trkpt>
      <trkpt lat="47.71141" lon="3.6664">
        <ele>235</ele>
        <time>2019-04-02T11:23:10Z</time>
      </trkpt>
      <trkpt lat="47.71138" lon="3.66647">
        <ele>236</ele>
        <time>2019-04-02T11:23:15Z</time>
      </trkpt>
      <trkpt lat="47.71135" lon="3.66652">
        <ele>236</ele>
        <time>2019-04-02T11:23:19Z</time>
      </trkpt>
      <trkpt lat="47.71131" lon="3.66656">
        <ele>237</ele>
        <time>2019-04-02T11:23:24Z</time>
      </trkpt>
      <trkpt lat="47.71129" lon="3.66659">
        <ele>238</ele>
        <time>2019-04-02T11:23:26Z</time>
      </trkpt>
      <trkpt lat="47.71126" lon="3.66664">
        <ele>239</ele>
        <time>2019-04-02T11:23:30Z</time>
      </trkpt>
      <trkpt lat="47.71123" lon="3.66669">
        <ele>239</ele>
        <time>2019-04-02T11:23:34Z</time>
      </trkpt>
      <trkpt lat="47.7112" lon="3.66673">
        <ele>240</ele>
        <time>2019-04-02T11:23:38Z</time>
      </trkpt>
      <trkpt lat="47.71117" lon="3.66677">
        <ele>241</ele>
        <time>2019-04-02T11:23:42Z</time>
      </trkpt>
      <trkpt lat="47.71113" lon="3.66682">
        <ele>241</ele>
        <time>2019-04-02T11:23:46Z</time>
      </trkpt>
      <trkpt lat="47.7111" lon="3.66688">
        <ele>242</ele>
        <time>2019-04-02T11:23:50Z</time>
      </trkpt>
      <trkpt lat="47.71108" lon="3.66691">
        <ele>244</ele>
        <time>2019-04-02T11:23:53Z</time>
      </trkpt>
      <trkpt lat="47.71106" lon="3.66694">
        <ele>244</ele>
        <time>2019-04-02T11:23:55Z</time>
      </trkpt>
      <trkpt lat="47.71104" lon="3.66697">
        <ele>243</ele>
        <time>2019-04-02T11:23:57Z</time>
      </trkpt>
      <trkpt lat="47.71103" lon="3.667">
        <ele>243</ele>
        <time>2019-04-02T11:23:59Z</time>
      </trkpt>
      <trkpt lat="47.71099" lon="3.66704">
        <ele>242</ele>
        <time>2019-04-02T11:24:03Z</time>
      </trkpt>
      <trkpt lat="47.71095" lon="3.6671">
        <ele>243</ele>
        <time>2019-04-02T11:24:08Z</time>
      </trkpt>
      <trkpt lat="47.71093" lon="3.66714">
        <ele>243</ele>
        <time>2019-04-02T11:24:12Z</time>
      </trkpt>
      <trkpt lat="47.7109" lon="3.66719">
        <ele>243</ele>
        <time>2019-04-02T11:24:16Z</time>
      </trkpt>
      <trkpt lat="47.71085" lon="3.66723">
        <ele>244</ele>
        <time>2019-04-02T11:24:21Z</time>
      </trkpt>
      <trkpt lat="47.71082" lon="3.66728">
        <ele>245</ele>
        <time>2019-04-02T11:24:26Z</time>
      </trkpt>
      <trkpt lat="47.71077" lon="3.66733">
        <ele>246</ele>
        <time>2019-04-02T11:24:30Z</time>
      </trkpt>
      <trkpt lat="47.71074" lon="3.66738">
        <ele>246</ele>
        <time>2019-04-02T11:24:34Z</time>
      </trkpt>
      <trkpt lat="47.71071" lon="3.66743">
        <ele>247</ele>
        <time>2019-04-02T11:24:38Z</time>
      </trkpt>
      <trkpt lat="47.71069" lon="3.66747">
        <ele>247</ele>
        <time>2019-04-02T11:24:42Z</time>
      </trkpt>
      <trkpt lat="47.71065" lon="3.66752">
        <ele>248</ele>
        <time>2019-04-02T11:24:46Z</time>
      </trkpt>
      <trkpt lat="47.71064" lon="3.66755">
        <ele>249</ele>
        <time>2019-04-02T11:24:48Z</time>
      </trkpt>
      <trkpt lat="47.7106" lon="3.6676">
        <ele>250</ele>
        <time>2019-04-02T11:24:52Z</time>
      </trkpt>
      <trkpt lat="47.71057" lon="3.66765">
        <ele>249</ele>
        <time>2019-04-02T11:24:55Z</time>
      </trkpt>
      <trkpt lat="47.71055" lon="3.66768">
        <ele>249</ele>
        <time>2019-04-02T11:24:58Z</time>
      </trkpt>
      <trkpt lat="47.71052" lon="3.66773">
        <ele>250</ele>
        <time>2019-04-02T11:25:01Z</time>
      </trkpt>
      <trkpt lat="47.71051" lon="3.66775">
        <ele>250</ele>
        <time>2019-04-02T11:25:03Z</time>
      </trkpt>
      <trkpt lat="47.71049" lon="3.66782">
        <ele>250</ele>
        <time>2019-04-02T11:25:07Z</time>
      </trkpt>
      <trkpt lat="47.71045" lon="3.66787">
        <ele>250</ele>
        <time>2019-04-02T11:25:12Z</time>
      </trkpt>
      <trkpt lat="47.71042" lon="3.66794">
        <ele>251</ele>
        <time>2019-04-02T11:25:17Z</time>
      </trkpt>
      <trkpt lat="47.7104" lon="3.66799">
        <ele>252</ele>
        <time>2019-04-02T11:25:20Z</time>
      </trkpt>
      <trkpt lat="47.71038" lon="3.66804">
        <ele>252</ele>
        <time>2019-04-02T11:25:23Z</time>
      </trkpt>
      <trkpt lat="47.71036" lon="3.66807">
        <ele>252</ele>
        <time>2019-04-02T11:25:25Z</time>
      </trkpt>
      <trkpt lat="47.71035" lon="3.6681">
        <ele>252</ele>
        <time>2019-04-02T11:25:27Z</time>
      </trkpt>
      <trkpt lat="47.71033" lon="3.66813">
        <ele>253</ele>
        <time>2019-04-02T11:25:29Z</time>
      </trkpt>
      <trkpt lat="47.71031" lon="3.66818">
        <ele>253</ele>
        <time>2019-04-02T11:25:32Z</time>
      </trkpt>
      <trkpt lat="47.71029" lon="3.66821">
        <ele>253</ele>
        <time>2019-04-02T11:25:34Z</time>
      </trkpt>
      <trkpt lat="47.71028" lon="3.66824">
        <ele>254</ele>
        <time>2019-04-02T11:25:36Z</time>
      </trkpt>
      <trkpt lat="47.71025" lon="3.6683">
        <ele>255</ele>
        <time>2019-04-02T11:25:40Z</time>
      </trkpt>
      <trkpt lat="47.71023" lon="3.66836">
        <ele>255</ele>
        <time>2019-04-02T11:25:44Z</time>
      </trkpt>
      <trkpt lat="47.71021" lon="3.6684">
        <ele>255</ele>
        <time>2019-04-02T11:25:47Z</time>
      </trkpt>
      <trkpt lat="47.71019" lon="3.66842">
        <ele>255</ele>
        <time>2019-04-02T11:25:49Z</time>
      </trkpt>
      <trkpt lat="47.71017" lon="3.66849">
        <ele>255</ele>
        <time>2019-04-02T11:25:53Z</time>
      </trkpt>
      <trkpt lat="47.71012" lon="3.66856">
        <ele>255</ele>
        <time>2019-04-02T11:25:59Z</time>
      </trkpt>
      <trkpt lat="47.71009" lon="3.66865">
        <ele>255</ele>
        <time>2019-04-02T11:26:05Z</time>
      </trkpt>
      <trkpt lat="47.71005" lon="3.66873">
        <ele>256</ele>
        <time>2019-04-02T11:26:10Z</time>
      </trkpt>
      <trkpt lat="47.71003" lon="3.66876">
        <ele>257</ele>
        <time>2019-04-02T11:26:12Z</time>
      </trkpt>
      <trkpt lat="47.71001" lon="3.66878">
        <ele>257</ele>
        <time>2019-04-02T11:26:14Z</time>
      </trkpt>
      <trkpt lat="47.70997" lon="3.66884">
        <ele>258</ele>
        <time>2019-04-02T11:26:19Z</time>
      </trkpt>
      <trkpt lat="47.70994" lon="3.66889">
        <ele>258</ele>
        <time>2019-04-02T11:26:23Z</time>
      </trkpt>
      <trkpt lat="47.70993" lon="3.66892">
        <ele>258</ele>
        <time>2019-04-02T11:26:25Z</time>
      </trkpt>
      <trkpt lat="47.70989" lon="3.66897">
        <ele>259</ele>
        <time>2019-04-02T11:26:29Z</time>
      </trkpt>
      <trkpt lat="47.70986" lon="3.66901">
        <ele>260</ele>
        <time>2019-04-02T11:26:33Z</time>
      </trkpt>
      <trkpt lat="47.70984" lon="3.66904">
        <ele>260</ele>
        <time>2019-04-02T11:26:35Z</time>
      </trkpt>
      <trkpt lat="47.7098" lon="3.66909">
        <ele>260</ele>
        <time>2019-04-02T11:26:39Z</time>
      </trkpt>
      <trkpt lat="47.70978" lon="3.66912">
        <ele>261</ele>
        <time>2019-04-02T11:26:42Z</time>
      </trkpt>
      <trkpt lat="47.70976" lon="3.66915">
        <ele>260</ele>
        <time>2019-04-02T11:26:44Z</time>
      </trkpt>
      <trkpt lat="47.70973" lon="3.66921">
        <ele>261</ele>
        <time>2019-04-02T11:26:49Z</time>
      </trkpt>
      <trkpt lat="47.7097" lon="3.66924">
        <ele>261</ele>
        <time>2019-04-02T11:26:52Z</time>
      </trkpt>
      <trkpt lat="47.70968" lon="3.66927">
        <ele>262</ele>
        <time>2019-04-02T11:26:55Z</time>
      </trkpt>
      <trkpt lat="47.70965" lon="3.66931">
        <ele>262</ele>
        <time>2019-04-02T11:26:58Z</time>
      </trkpt>
      <trkpt lat="47.70963" lon="3.66933">
        <ele>262</ele>
        <time>2019-04-02T11:27:00Z</time>
      </trkpt>
      <trkpt lat="47.7096" lon="3.66938">
        <ele>262</ele>
        <time>2019-04-02T11:27:04Z</time>
      </trkpt>
      <trkpt lat="47.70955" lon="3.66942">
        <ele>262</ele>
        <time>2019-04-02T11:27:08Z</time>
      </trkpt>
      <trkpt lat="47.70951" lon="3.66947">
        <ele>263</ele>
        <time>2019-04-02T11:27:13Z</time>
      </trkpt>
      <trkpt lat="47.70948" lon="3.6695">
        <ele>264</ele>
        <time>2019-04-02T11:27:16Z</time>
      </trkpt>
      <trkpt lat="47.70945" lon="3.66953">
        <ele>264</ele>
        <time>2019-04-02T11:27:19Z</time>
      </trkpt>
      <trkpt lat="47.70943" lon="3.66956">
        <ele>264</ele>
        <time>2019-04-02T11:27:21Z</time>
      </trkpt>
      <trkpt lat="47.7094" lon="3.66959">
        <ele>265</ele>
        <time>2019-04-02T11:27:24Z</time>
      </trkpt>
      <trkpt lat="47.70936" lon="3.66964">
        <ele>265</ele>
        <time>2019-04-02T11:27:28Z</time>
      </trkpt>
      <trkpt lat="47.70932" lon="3.66968">
        <ele>266</ele>
        <time>2019-04-02T11:27:33Z</time>
      </trkpt>
      <trkpt lat="47.70928" lon="3.66973">
        <ele>267</ele>
        <time>2019-04-02T11:27:37Z</time>
      </trkpt>
      <trkpt lat="47.70925" lon="3.66977">
        <ele>268</ele>
        <time>2019-04-02T11:27:41Z</time>
      </trkpt>
      <trkpt lat="47.70922" lon="3.66979">
        <ele>268</ele>
        <time>2019-04-02T11:27:43Z</time>
      </trkpt>
      <trkpt lat="47.70919" lon="3.66983">
        <ele>268</ele>
        <time>2019-04-02T11:27:47Z</time>
      </trkpt>
      <trkpt lat="47.70915" lon="3.66988">
        <ele>269</ele>
        <time>2019-04-02T11:27:52Z</time>
      </trkpt>
      <trkpt lat="47.70912" lon="3.66993">
        <ele>270</ele>
        <time>2019-04-02T11:27:56Z</time>
      </trkpt>
      <trkpt lat="47.70908" lon="3.66998">
        <ele>271</ele>
        <time>2019-04-02T11:28:00Z</time>
      </trkpt>
      <trkpt lat="47.70904" lon="3.67003">
        <ele>271</ele>
        <time>2019-04-02T11:28:05Z</time>
      </trkpt>
      <trkpt lat="47.70902" lon="3.67006">
        <ele>271</ele>
        <time>2019-04-02T11:28:07Z</time>
      </trkpt>
      <trkpt lat="47.70899" lon="3.67011">
        <ele>271</ele>
        <time>2019-04-02T11:28:11Z</time>
      </trkpt>
      <trkpt lat="47.70896" lon="3.67013">
        <ele>271</ele>
        <time>2019-04-02T11:28:13Z</time>
      </trkpt>
      <trkpt lat="47.70894" lon="3.67017">
        <ele>271</ele>
        <time>2019-04-02T11:28:17Z</time>
      </trkpt>
      <trkpt lat="47.70889" lon="3.67022">
        <ele>271</ele>
        <time>2019-04-02T11:28:21Z</time>
      </trkpt>
      <trkpt lat="47.70887" lon="3.67024">
        <ele>272</ele>
        <time>2019-04-02T11:28:24Z</time>
      </trkpt>
      <trkpt lat="47.70884" lon="3.67029">
        <ele>273</ele>
        <time>2019-04-02T11:28:28Z</time>
      </trkpt>
      <trkpt lat="47.70881" lon="3.67032">
        <ele>273</ele>
        <time>2019-04-02T11:28:30Z</time>
      </trkpt>
      <trkpt lat="47.70878" lon="3.67035">
        <ele>274</ele>
        <time>2019-04-02T11:28:33Z</time>
      </trkpt>
      <trkpt lat="47.70873" lon="3.67041">
        <ele>274</ele>
        <time>2019-04-02T11:28:39Z</time>
      </trkpt>
      <trkpt lat="47.70869" lon="3.67046">
        <ele>274</ele>
        <time>2019-04-02T11:28:44Z</time>
      </trkpt>
      <trkpt lat="47.70866" lon="3.6705">
        <ele>275</ele>
        <time>2019-04-02T11:28:48Z</time>
      </trkpt>
      <trkpt lat="47.70862" lon="3.67054">
        <ele>276</ele>
        <time>2019-04-02T11:28:51Z</time>
      </trkpt>
      <trkpt lat="47.7086" lon="3.67057">
        <ele>275</ele>
        <time>2019-04-02T11:28:54Z</time>
      </trkpt>
      <trkpt lat="47.70858" lon="3.6706">
        <ele>276</ele>
        <time>2019-04-02T11:28:57Z</time>
      </trkpt>
      <trkpt lat="47.70853" lon="3.67064">
        <ele>277</ele>
        <time>2019-04-02T11:29:01Z</time>
      </trkpt>
      <trkpt lat="47.7085" lon="3.67066">
        <ele>278</ele>
        <time>2019-04-02T11:29:04Z</time>
      </trkpt>
      <trkpt lat="47.70847" lon="3.67072">
        <ele>278</ele>
        <time>2019-04-02T11:29:08Z</time>
      </trkpt>
      <trkpt lat="47.70843" lon="3.67076">
        <ele>279</ele>
        <time>2019-04-02T11:29:12Z</time>
      </trkpt>
      <trkpt lat="47.70841" lon="3.67078">
        <ele>279</ele>
        <time>2019-04-02T11:29:14Z</time>
      </trkpt>
      <trkpt lat="47.70839" lon="3.6708">
        <ele>279</ele>
        <time>2019-04-02T11:29:16Z</time>
      </trkpt>
      <trkpt lat="47.70834" lon="3.67085">
        <ele>279</ele>
        <time>2019-04-02T11:29:20Z</time>
      </trkpt>
      <trkpt lat="47.70831" lon="3.67088">
        <ele>280</ele>
        <time>2019-04-02T11:29:24Z</time>
      </trkpt>
      <trkpt lat="47.70828" lon="3.67092">
        <ele>281</ele>
        <time>2019-04-02T11:29:28Z</time>
      </trkpt>
      <trkpt lat="47.70825" lon="3.67094">
        <ele>281</ele>
        <time>2019-04-02T11:29:31Z</time>
      </trkpt>
      <trkpt lat="47.70821" lon="3.67098">
        <ele>280</ele>
        <time>2019-04-02T11:29:35Z</time>
      </trkpt>
      <trkpt lat="47.70818" lon="3.67101">
        <ele>281</ele>
        <time>2019-04-02T11:29:39Z</time>
      </trkpt>
      <trkpt lat="47.70813" lon="3.67107">
        <ele>282</ele>
        <time>2019-04-02T11:29:44Z</time>
      </trkpt>
      <trkpt lat="47.70808" lon="3.6711">
        <ele>283</ele>
        <time>2019-04-02T11:29:48Z</time>
      </trkpt>
      <trkpt lat="47.70806" lon="3.67112">
        <ele>282</ele>
        <time>2019-04-02T11:29:51Z</time>
      </trkpt>
      <trkpt lat="47.70801" lon="3.67115">
        <ele>283</ele>
        <time>2019-04-02T11:29:55Z</time>
      </trkpt>
      <trkpt lat="47.70799" lon="3.67117">
        <ele>284</ele>
        <time>2019-04-02T11:29:58Z</time>
      </trkpt>
      <trkpt lat="47.70796" lon="3.6712">
        <ele>284</ele>
        <time>2019-04-02T11:30:01Z</time>
      </trkpt>
      <trkpt lat="47.70792" lon="3.67125">
        <ele>284</ele>
        <time>2019-04-02T11:30:06Z</time>
      </trkpt>
      <trkpt lat="47.70788" lon="3.67129">
        <ele>285</ele>
        <time>2019-04-02T11:30:10Z</time>
      </trkpt>
      <trkpt lat="47.70785" lon="3.67132">
        <ele>286</ele>
        <time>2019-04-02T11:30:13Z</time>
      </trkpt>
      <trkpt lat="47.70782" lon="3.67137">
        <ele>288</ele>
        <time>2019-04-02T11:30:18Z</time>
      </trkpt>
      <trkpt lat="47.70778" lon="3.67141">
        <ele>288</ele>
        <time>2019-04-02T11:30:22Z</time>
      </trkpt>
      <trkpt lat="47.70775" lon="3.67143">
        <ele>289</ele>
        <time>2019-04-02T11:30:25Z</time>
      </trkpt>
      <trkpt lat="47.70772" lon="3.67146">
        <ele>289</ele>
        <time>2019-04-02T11:30:28Z</time>
      </trkpt>
      <trkpt lat="47.70768" lon="3.6715">
        <ele>290</ele>
        <time>2019-04-02T11:30:33Z</time>
      </trkpt>
      <trkpt lat="47.70766" lon="3.67154">
        <ele>292</ele>
        <time>2019-04-02T11:30:36Z</time>
      </trkpt>
      <trkpt lat="47.70762" lon="3.6716">
        <ele>291</ele>
        <time>2019-04-02T11:30:41Z</time>
      </trkpt>
      <trkpt lat="47.7076" lon="3.67163">
        <ele>292</ele>
        <time>2019-04-02T11:30:44Z</time>
      </trkpt>
      <trkpt lat="47.70758" lon="3.67166">
        <ele>292</ele>
        <time>2019-04-02T11:30:47Z</time>
      </trkpt>
      <trkpt lat="47.70754" lon="3.67171">
        <ele>294</ele>
        <time>2019-04-02T11:30:52Z</time>
      </trkpt>
      <trkpt lat="47.70752" lon="3.67174">
        <ele>294</ele>
        <time>2019-04-02T11:30:55Z</time>
      </trkpt>
      <trkpt lat="47.7075" lon="3.67177">
        <ele>294</ele>
        <time>2019-04-02T11:30:58Z</time>
      </trkpt>
      <trkpt lat="47.70747" lon="3.67182">
        <ele>295</ele>
        <time>2019-04-02T11:31:02Z</time>
      </trkpt>
      <trkpt lat="47.70743" lon="3.67187">
        <ele>297</ele>
        <time>2019-04-02T11:31:07Z</time>
      </trkpt>
      <trkpt lat="47.7074" lon="3.67192">
        <ele>297</ele>
        <time>2019-04-02T11:31:11Z</time>
      </trkpt>
      <trkpt lat="47.70736" lon="3.67197">
        <ele>299</ele>
        <time>2019-04-02T11:31:16Z</time>
      </trkpt>
      <trkpt lat="47.70732" lon="3.67203">
        <ele>299</ele>
        <time>2019-04-02T11:31:21Z</time>
      </trkpt>
      <trkpt lat="47.70729" lon="3.67209">
        <ele>300</ele>
        <time>2019-04-02T11:31:26Z</time>
      </trkpt>
      <trkpt lat="47.70727" lon="3.67212">
        <ele>300</ele>
        <time>2019-04-02T11:31:28Z</time>
      </trkpt>
      <trkpt lat="47.70725" lon="3.67216">
        <ele>301</ele>
        <time>2019-04-02T11:31:32Z</time>
      </trkpt>
      <trkpt lat="47.70723" lon="3.67219">
        <ele>302</ele>
        <time>2019-04-02T11:31:35Z</time>
      </trkpt>
      <trkpt lat="47.7072" lon="3.67222">
        <ele>302</ele>
        <time>2019-04-02T11:31:38Z</time>
      </trkpt>
      <trkpt lat="47.70717" lon="3.67228">
        <ele>303</ele>
        <time>2019-04-02T11:31:43Z</time>
      </trkpt>
      <trkpt lat="47.70715" lon="3.67233">
        <ele>303</ele>
        <time>2019-04-02T11:31:47Z</time>
      </trkpt>
      <trkpt lat="47.70713" lon="3.67237">
        <ele>303</ele>
        <time>2019-04-02T11:31:50Z</time>
      </trkpt>
      <trkpt lat="47.70711" lon="3.67244">
        <ele>304</ele>
        <time>2019-04-02T11:31:55Z</time>
      </trkpt>
      <trkpt lat="47.70708" lon="3.6725">
        <ele>304</ele>
        <time>2019-04-02T11:31:59Z</time>
      </trkpt>
      <trkpt lat="47.70707" lon="3.67256">
        <ele>304</ele>
        <time>2019-04-02T11:32:04Z</time>
      </trkpt>
      <trkpt lat="47.70706" lon="3.67261">
        <ele>304</ele>
        <time>2019-04-02T11:32:07Z</time>
      </trkpt>
      <trkpt lat="47.70702" lon="3.67267">
        <ele>306</ele>
        <time>2019-04-02T11:32:14Z</time>
      </trkpt>
      <trkpt lat="47.70701" lon="3.67275">
        <ele>308</ele>
        <time>2019-04-02T11:32:19Z</time>
      </trkpt>
      <trkpt lat="47.70697" lon="3.6728">
        <ele>307</ele>
        <time>2019-04-02T11:32:22Z</time>
      </trkpt>
      <trkpt lat="47.70694" lon="3.67287">
        <ele>309</ele>
        <time>2019-04-02T11:32:27Z</time>
      </trkpt>
      <trkpt lat="47.70692" lon="3.67291">
        <ele>310</ele>
        <time>2019-04-02T11:32:30Z</time>
      </trkpt>
      <trkpt lat="47.70689" lon="3.67297">
        <ele>311</ele>
        <time>2019-04-02T11:32:35Z</time>
      </trkpt>
      <trkpt lat="47.70687" lon="3.67304">
        <ele>311</ele>
        <time>2019-04-02T11:32:39Z</time>
      </trkpt>
      <trkpt lat="47.70686" lon="3.67308">
        <ele>312</ele>
        <time>2019-04-02T11:32:41Z</time>
      </trkpt>
      <trkpt lat="47.70685" lon="3.67314">
        <ele>312</ele>
        <time>2019-04-02T11:32:44Z</time>
      </trkpt>
      <trkpt lat="47.70684" lon="3.6732">
        <ele>311</ele>
        <time>2019-04-02T11:32:47Z</time>
      </trkpt>
      <trkpt lat="47.70681" lon="3.67327">
        <ele>312</ele>
        <time>2019-04-02T11:32:52Z</time>
      </trkpt>
      <trkpt lat="47.70678" lon="3.67333">
        <ele>312</ele>
        <time>2019-04-02T11:32:56Z</time>
      </trkpt>
      <trkpt lat="47.70676" lon="3.67344">
        <ele>313</ele>
        <time>2019-04-02T11:33:01Z</time>
      </trkpt>
      <trkpt lat="47.70674" lon="3.67352">
        <ele>314</ele>
        <time>2019-04-02T11:33:07Z</time>
      </trkpt>
      <trkpt lat="47.70672" lon="3.67357">
        <ele>315</ele>
        <time>2019-04-02T11:33:10Z</time>
      </trkpt>
      <trkpt lat="47.70672" lon="3.67364">
        <ele>317</ele>
        <time>2019-04-02T11:33:14Z</time>
      </trkpt>
      <trkpt lat="47.70671" lon="3.67368">
        <ele>317</ele>
        <time>2019-04-02T11:33:16Z</time>
      </trkpt>
      <trkpt lat="47.70671" lon="3.67372">
        <ele>317</ele>
        <time>2019-04-02T11:33:18Z</time>
      </trkpt>
      <trkpt lat="47.7067" lon="3.67377">
        <ele>317</ele>
        <time>2019-04-02T11:33:21Z</time>
      </trkpt>
      <trkpt lat="47.70669" lon="3.67384">
        <ele>317</ele>
        <time>2019-04-02T11:33:26Z</time>
      </trkpt>
      <trkpt lat="47.70668" lon="3.67392">
        <ele>319</ele>
        <time>2019-04-02T11:33:31Z</time>
      </trkpt>
      <trkpt lat="47.70666" lon="3.67398">
        <ele>320</ele>
        <time>2019-04-02T11:33:35Z</time>
      </trkpt>
      <trkpt lat="47.70666" lon="3.67406">
        <ele>319</ele>
        <time>2019-04-02T11:33:39Z</time>
      </trkpt>
      <trkpt lat="47.70665" lon="3.67413">
        <ele>319</ele>
        <time>2019-04-02T11:33:43Z</time>
      </trkpt>
      <trkpt lat="47.70664" lon="3.67419">
        <ele>319</ele>
        <time>2019-04-02T11:33:46Z</time>
      </trkpt>
      <trkpt lat="47.70664" lon="3.67423">
        <ele>320</ele>
        <time>2019-04-02T11:33:48Z</time>
      </trkpt>
      <trkpt lat="47.70663" lon="3.67427">
        <ele>321</ele>
        <time>2019-04-02T11:33:51Z</time>
      </trkpt>
      <trkpt lat="47.70662" lon="3.67434">
        <ele>322</ele>
        <time>2019-04-02T11:33:55Z</time>
      </trkpt>
      <trkpt lat="47.70662" lon="3.67438">
        <ele>322</ele>
        <time>2019-04-02T11:33:57Z</time>
      </trkpt>
      <trkpt lat="47.70661" lon="3.67444">
        <ele>322</ele>
        <time>2019-04-02T11:34:01Z</time>
      </trkpt>
      <trkpt lat="47.7066" lon="3.67452">
        <ele>323</ele>
        <time>2019-04-02T11:34:05Z</time>
      </trkpt>
      <trkpt lat="47.70658" lon="3.67458">
        <ele>323</ele>
        <time>2019-04-02T11:34:09Z</time>
      </trkpt>
      <trkpt lat="47.70657" lon="3.67465">
        <ele>323</ele>
        <time>2019-04-02T11:34:13Z</time>
      </trkpt>
      <trkpt lat="47.70656" lon="3.67473">
        <ele>324</ele>
        <time>2019-04-02T11:34:17Z</time>
      </trkpt>
      <trkpt lat="47.70656" lon="3.67477">
        <ele>325</ele>
        <time>2019-04-02T11:34:19Z</time>
      </trkpt>
      <trkpt lat="47.70656" lon="3.67481">
        <ele>325</ele>
        <time>2019-04-02T11:34:21Z</time>
      </trkpt>
      <trkpt lat="47.70656" lon="3.67488">
        <ele>325</ele>
        <time>2019-04-02T11:34:25Z</time>
      </trkpt>
      <trkpt lat="47.70656" lon="3.67495">
        <ele>325</ele>
        <time>2019-04-02T11:34:29Z</time>
      </trkpt>
      <trkpt lat="47.70657" lon="3.67501">
        <ele>325</ele>
        <time>2019-04-02T11:34:32Z</time>
      </trkpt>
      <trkpt lat="47.70658" lon="3.67508">
        <ele>325</ele>
        <time>2019-04-02T11:34:35Z</time>
      </trkpt>
      <trkpt lat="47.70659" lon="3.67511">
        <ele>327</ele>
        <time>2019-04-02T11:34:37Z</time>
      </trkpt>
      <trkpt lat="47.70658" lon="3.6752">
        <ele>328</ele>
        <time>2019-04-02T11:34:43Z</time>
      </trkpt>
      <trkpt lat="47.7066" lon="3.67527">
        <ele>329</ele>
        <time>2019-04-02T11:34:47Z</time>
      </trkpt>
      <trkpt lat="47.70661" lon="3.67532">
        <ele>330</ele>
        <time>2019-04-02T11:34:50Z</time>
      </trkpt>
      <trkpt lat="47.70662" lon="3.6754">
        <ele>330</ele>
        <time>2019-04-02T11:34:54Z</time>
      </trkpt>
      <trkpt lat="47.70663" lon="3.67544">
        <ele>331</ele>
        <time>2019-04-02T11:34:56Z</time>
      </trkpt>
      <trkpt lat="47.70663" lon="3.67548">
        <ele>331</ele>
        <time>2019-04-02T11:34:58Z</time>
      </trkpt>
      <trkpt lat="47.70665" lon="3.67554">
        <ele>331</ele>
        <time>2019-04-02T11:35:02Z</time>
      </trkpt>
      <trkpt lat="47.70666" lon="3.6756">
        <ele>331</ele>
        <time>2019-04-02T11:35:06Z</time>
      </trkpt>
      <trkpt lat="47.70668" lon="3.67568">
        <ele>332</ele>
        <time>2019-04-02T11:35:11Z</time>
      </trkpt>
      <trkpt lat="47.7067" lon="3.67574">
        <ele>332</ele>
        <time>2019-04-02T11:35:14Z</time>
      </trkpt>
      <trkpt lat="47.70672" lon="3.67579">
        <ele>332</ele>
        <time>2019-04-02T11:35:17Z</time>
      </trkpt>
      <trkpt lat="47.70673" lon="3.67583">
        <ele>332</ele>
        <time>2019-04-02T11:35:20Z</time>
      </trkpt>
      <trkpt lat="47.70675" lon="3.67588">
        <ele>332</ele>
        <time>2019-04-02T11:35:23Z</time>
      </trkpt>
      <trkpt lat="47.70676" lon="3.67596">
        <ele>332</ele>
        <time>2019-04-02T11:35:27Z</time>
      </trkpt>
      <trkpt lat="47.70678" lon="3.67603">
        <ele>332</ele>
        <time>2019-04-02T11:35:31Z</time>
      </trkpt>
      <trkpt lat="47.70679" lon="3.67606">
        <ele>332</ele>
        <time>2019-04-02T11:35:33Z</time>
      </trkpt>
      <trkpt lat="47.7068" lon="3.67611">
        <ele>332</ele>
        <time>2019-04-02T11:35:36Z</time>
      </trkpt>
      <trkpt lat="47.70682" lon="3.67616">
        <ele>333</ele>
        <time>2019-04-02T11:35:38Z</time>
      </trkpt>
      <trkpt lat="47.70683" lon="3.67619">
        <ele>333</ele>
        <time>2019-04-02T11:35:40Z</time>
      </trkpt>
      <trkpt lat="47.70684" lon="3.67626">
        <ele>333</ele>
        <time>2019-04-02T11:35:44Z</time>
      </trkpt>
      <trkpt lat="47.70685" lon="3.67629">
        <ele>333</ele>
        <time>2019-04-02T11:35:46Z</time>
      </trkpt>
      <trkpt lat="47.70686" lon="3.67633">
        <ele>333</ele>
        <time>2019-04-02T11:35:48Z</time>
      </trkpt>
      <trkpt lat="47.70687" lon="3.67637">
        <ele>333</ele>
        <time>2019-04-02T11:35:50Z</time>
      </trkpt>
      <trkpt lat="47.70688" lon="3.6764">
        <ele>333</ele>
        <time>2019-04-02T11:35:52Z</time>
      </trkpt>
      <trkpt lat="47.7069" lon="3.67647">
        <ele>333</ele>
        <time>2019-04-02T11:35:56Z</time>
      </trkpt>
      <trkpt lat="47.70691" lon="3.67651">
        <ele>333</ele>
        <time>2019-04-02T11:35:58Z</time>
      </trkpt>
      <trkpt lat="47.70692" lon="3.67656">
        <ele>334</ele>
        <time>2019-04-02T11:36:01Z</time>
      </trkpt>
      <trkpt lat="47.70695" lon="3.67664">
        <ele>334</ele>
        <time>2019-04-02T11:36:06Z</time>
      </trkpt>
      <trkpt lat="47.70696" lon="3.6767">
        <ele>334</ele>
        <time>2019-04-02T11:36:10Z</time>
      </trkpt>
      <trkpt lat="47.70697" lon="3.67674">
        <ele>334</ele>
        <time>2019-04-02T11:36:12Z</time>
      </trkpt>
      <trkpt lat="47.70698" lon="3.67679">
        <ele>334</ele>
        <time>2019-04-02T11:36:15Z</time>
      </trkpt>
      <trkpt lat="47.70699" lon="3.67686">
        <ele>335</ele>
        <time>2019-04-02T11:36:19Z</time>
      </trkpt>
      <trkpt lat="47.707" lon="3.6769">
        <ele>335</ele>
        <time>2019-04-02T11:36:22Z</time>
      </trkpt>
      <trkpt lat="47.70702" lon="3.67701">
        <ele>335</ele>
        <time>2019-04-02T11:36:27Z</time>
      </trkpt>
      <trkpt lat="47.70703" lon="3.67704">
        <ele>334</ele>
        <time>2019-04-02T11:36:29Z</time>
      </trkpt>
      <trkpt lat="47.70703" lon="3.67708">
        <ele>334</ele>
        <time>2019-04-02T11:36:31Z</time>
      </trkpt>
      <trkpt lat="47.70704" lon="3.67711">
        <ele>334</ele>
        <time>2019-04-02T11:36:33Z</time>
      </trkpt>
      <trkpt lat="47.70705" lon="3.67715">
        <ele>335</ele>
        <time>2019-04-02T11:36:35Z</time>
      </trkpt>
      <trkpt lat="47.70705" lon="3.67719">
        <ele>335</ele>
        <time>2019-04-02T11:36:37Z</time>
      </trkpt>
      <trkpt lat="47.70707" lon="3.67725">
        <ele>336</ele>
        <time>2019-04-02T11:36:41Z</time>
      </trkpt>
      <trkpt lat="47.70708" lon="3.6773">
        <ele>336</ele>
        <time>2019-04-02T11:36:44Z</time>
      </trkpt>
      <trkpt lat="47.70709" lon="3.67734">
        <ele>336</ele>
        <time>2019-04-02T11:36:46Z</time>
      </trkpt>
      <trkpt lat="47.70709" lon="3.67737">
        <ele>336</ele>
        <time>2019-04-02T11:36:48Z</time>
      </trkpt>
      <trkpt lat="47.7071" lon="3.67741">
        <ele>336</ele>
        <time>2019-04-02T11:36:50Z</time>
      </trkpt>
      <trkpt lat="47.70711" lon="3.67746">
        <ele>336</ele>
        <time>2019-04-02T11:36:53Z</time>
      </trkpt>
      <trkpt lat="47.70712" lon="3.67749">
        <ele>336</ele>
        <time>2019-04-02T11:36:55Z</time>
      </trkpt>
      <trkpt lat="47.70712" lon="3.67752">
        <ele>336</ele>
        <time>2019-04-02T11:36:57Z</time>
      </trkpt>
      <trkpt lat="47.70713" lon="3.67756">
        <ele>336</ele>
        <time>2019-04-02T11:36:59Z</time>
      </trkpt>
      <trkpt lat="47.70714" lon="3.67763">
        <ele>337</ele>
        <time>2019-04-02T11:37:03Z</time>
      </trkpt>
      <trkpt lat="47.70715" lon="3.67766">
        <ele>337</ele>
        <time>2019-04-02T11:37:05Z</time>
      </trkpt>
      <trkpt lat="47.70715" lon="3.67773">
        <ele>338</ele>
        <time>2019-04-02T11:37:09Z</time>
      </trkpt>
      <trkpt lat="47.70716" lon="3.67776">
        <ele>338</ele>
        <time>2019-04-02T11:37:11Z</time>
      </trkpt>
      <trkpt lat="47.70716" lon="3.6778">
        <ele>338</ele>
        <time>2019-04-02T11:37:13Z</time>
      </trkpt>
      <trkpt lat="47.70718" lon="3.67788">
        <ele>339</ele>
        <time>2019-04-02T11:37:18Z</time>
      </trkpt>
      <trkpt lat="47.70719" lon="3.67792">
        <ele>339</ele>
        <time>2019-04-02T11:37:20Z</time>
      </trkpt>
      <trkpt lat="47.7072" lon="3.67798">
        <ele>339</ele>
        <time>2019-04-02T11:37:23Z</time>
      </trkpt>
      <trkpt lat="47.70721" lon="3.67806">
        <ele>338</ele>
        <time>2019-04-02T11:37:27Z</time>
      </trkpt>
      <trkpt lat="47.70722" lon="3.67811">
        <ele>339</ele>
        <time>2019-04-02T11:37:29Z</time>
      </trkpt>
      <trkpt lat="47.70723" lon="3.67815">
        <ele>339</ele>
        <time>2019-04-02T11:37:31Z</time>
      </trkpt>
      <trkpt lat="47.70723" lon="3.67823">
        <ele>341</ele>
        <time>2019-04-02T11:37:36Z</time>
      </trkpt>
      <trkpt lat="47.70724" lon="3.6783">
        <ele>341</ele>
        <time>2019-04-02T11:37:40Z</time>
      </trkpt>
      <trkpt lat="47.70724" lon="3.67833">
        <ele>341</ele>
        <time>2019-04-02T11:37:42Z</time>
      </trkpt>
      <trkpt lat="47.70725" lon="3.67838">
        <ele>341</ele>
        <time>2019-04-02T11:37:45Z</time>
      </trkpt>
      <trkpt lat="47.70725" lon="3.67842">
        <ele>341</ele>
        <time>2019-04-02T11:37:47Z</time>
      </trkpt>
      <trkpt lat="47.70726" lon="3.67847">
        <ele>342</ele>
        <time>2019-04-02T11:37:50Z</time>
      </trkpt>
      <trkpt lat="47.70726" lon="3.67851">
        <ele>342</ele>
        <time>2019-04-02T11:37:52Z</time>
      </trkpt>
      <trkpt lat="47.70726" lon="3.67858">
        <ele>342</ele>
        <time>2019-04-02T11:37:56Z</time>
      </trkpt>
      <trkpt lat="47.70726" lon="3.67862">
        <ele>341</ele>
        <time>2019-04-02T11:37:58Z</time>
      </trkpt>
      <trkpt lat="47.70727" lon="3.67869">
        <ele>342</ele>
        <time>2019-04-02T11:38:02Z</time>
      </trkpt>
      <trkpt lat="47.70727" lon="3.67872">
        <ele>341</ele>
        <time>2019-04-02T11:38:04Z</time>
      </trkpt>
      <trkpt lat="47.70727" lon="3.67879">
        <ele>341</ele>
        <time>2019-04-02T11:38:08Z</time>
      </trkpt>
      <trkpt lat="47.70727" lon="3.67884">
        <ele>341</ele>
        <time>2019-04-02T11:38:11Z</time>
      </trkpt>
      <trkpt lat="47.70728" lon="3.67889">
        <ele>341</ele>
        <time>2019-04-02T11:38:14Z</time>
      </trkpt>
      <trkpt lat="47.70728" lon="3.67893">
        <ele>341</ele>
        <time>2019-04-02T11:38:16Z</time>
      </trkpt>
      <trkpt lat="47.70729" lon="3.67899">
        <ele>340</ele>
        <time>2019-04-02T11:38:20Z</time>
      </trkpt>
      <trkpt lat="47.7073" lon="3.67907">
        <ele>341</ele>
        <time>2019-04-02T11:38:24Z</time>
      </trkpt>
      <trkpt lat="47.70731" lon="3.67911">
        <ele>341</ele>
        <time>2019-04-02T11:38:26Z</time>
      </trkpt>
      <trkpt lat="47.70731" lon="3.67914">
        <ele>341</ele>
        <time>2019-04-02T11:38:28Z</time>
      </trkpt>
      <trkpt lat="47.70732" lon="3.67919">
        <ele>341</ele>
        <time>2019-04-02T11:38:31Z</time>
      </trkpt>
      <trkpt lat="47.70733" lon="3.67925">
        <ele>341</ele>
        <time>2019-04-02T11:38:35Z</time>
      </trkpt>
      <trkpt lat="47.70734" lon="3.67932">
        <ele>342</ele>
        <time>2019-04-02T11:38:39Z</time>
      </trkpt>
      <trkpt lat="47.70735" lon="3.67941">
        <ele>343</ele>
        <time>2019-04-02T11:38:44Z</time>
      </trkpt>
      <trkpt lat="47.70736" lon="3.67945">
        <ele>343</ele>
        <time>2019-04-02T11:38:46Z</time>
      </trkpt>
      <trkpt lat="47.70737" lon="3.67951">
        <ele>344</ele>
        <time>2019-04-02T11:38:50Z</time>
      </trkpt>
      <trkpt lat="47.70738" lon="3.67955">
        <ele>344</ele>
        <time>2019-04-02T11:38:52Z</time>
      </trkpt>
      <trkpt lat="47.70739" lon="3.67961">
        <ele>343</ele>
        <time>2019-04-02T11:38:55Z</time>
      </trkpt>
      <trkpt lat="47.7074" lon="3.67966">
        <ele>344</ele>
        <time>2019-04-02T11:38:59Z</time>
      </trkpt>
      <trkpt lat="47.70741" lon="3.67971">
        <ele>344</ele>
        <time>2019-04-02T11:39:02Z</time>
      </trkpt>
      <trkpt lat="47.70742" lon="3.67975">
        <ele>345</ele>
        <time>2019-04-02T11:39:04Z</time>
      </trkpt>
      <trkpt lat="47.70742" lon="3.6798">
        <ele>344</ele>
        <time>2019-04-02T11:39:07Z</time>
      </trkpt>
      <trkpt lat="47.70744" lon="3.67986">
        <ele>344</ele>
        <time>2019-04-02T11:39:11Z</time>
      </trkpt>
      <trkpt lat="47.70744" lon="3.6799">
        <ele>344</ele>
        <time>2019-04-02T11:39:13Z</time>
      </trkpt>
      <trkpt lat="47.70745" lon="3.67993">
        <ele>344</ele>
        <time>2019-04-02T11:39:16Z</time>
      </trkpt>
      <trkpt lat="47.70746" lon="3.67996">
        <ele>343</ele>
        <time>2019-04-02T11:39:25Z</time>
      </trkpt>
      <trkpt lat="47.70744" lon="3.68007">
        <ele>341</ele>
        <time>2019-04-02T11:51:16Z</time>
      </trkpt>
      <trkpt lat="47.70744" lon="3.68014">
        <ele>342</ele>
        <time>2019-04-02T11:51:26Z</time>
      </trkpt>
      <trkpt lat="47.70745" lon="3.68018">
        <ele>343</ele>
        <time>2019-04-02T11:51:29Z</time>
      </trkpt>
      <trkpt lat="47.70745" lon="3.68026">
        <ele>343</ele>
        <time>2019-04-02T11:51:34Z</time>
      </trkpt>
      <trkpt lat="47.70744" lon="3.68033">
        <ele>344</ele>
        <time>2019-04-02T11:51:39Z</time>
      </trkpt>
      <trkpt lat="47.70744" lon="3.68037">
        <ele>345</ele>
        <time>2019-04-02T11:51:42Z</time>
      </trkpt>
      <trkpt lat="47.70741" lon="3.68045">
        <ele>347</ele>
        <time>2019-04-02T11:51:48Z</time>
      </trkpt>
      <trkpt lat="47.70741" lon="3.68053">
        <ele>348</ele>
        <time>2019-04-02T11:51:54Z</time>
      </trkpt>
      <trkpt lat="47.70739" lon="3.68062">
        <ele>347</ele>
        <time>2019-04-02T11:51:59Z</time>
      </trkpt>
      <trkpt lat="47.70738" lon="3.68066">
        <ele>348</ele>
        <time>2019-04-02T11:52:01Z</time>
      </trkpt>
      <trkpt lat="47.70739" lon="3.68076">
        <ele>348</ele>
        <time>2019-04-02T11:52:07Z</time>
      </trkpt>
      <trkpt lat="47.70737" lon="3.68084">
        <ele>348</ele>
        <time>2019-04-02T11:52:11Z</time>
      </trkpt>
      <trkpt lat="47.70737" lon="3.68095">
        <ele>348</ele>
        <time>2019-04-02T11:52:17Z</time>
      </trkpt>
      <trkpt lat="47.70737" lon="3.681">
        <ele>348</ele>
        <time>2019-04-02T11:52:19Z</time>
      </trkpt>
      <trkpt lat="47.70738" lon="3.68104">
        <ele>347</ele>
        <time>2019-04-02T11:52:21Z</time>
      </trkpt>
      <trkpt lat="47.70736" lon="3.68113">
        <ele>347</ele>
        <time>2019-04-02T11:52:26Z</time>
      </trkpt>
      <trkpt lat="47.70735" lon="3.68124">
        <ele>347</ele>
        <time>2019-04-02T11:52:33Z</time>
      </trkpt>
      <trkpt lat="47.70735" lon="3.68132">
        <ele>345</ele>
        <time>2019-04-02T11:52:38Z</time>
      </trkpt>
      <trkpt lat="47.70736" lon="3.6814">
        <ele>345</ele>
        <time>2019-04-02T11:52:42Z</time>
      </trkpt>
      <trkpt lat="47.70737" lon="3.68145">
        <ele>345</ele>
        <time>2019-04-02T11:52:45Z</time>
      </trkpt>
      <trkpt lat="47.70737" lon="3.68149">
        <ele>345</ele>
        <time>2019-04-02T11:52:47Z</time>
      </trkpt>
      <trkpt lat="47.70739" lon="3.68155">
        <ele>345</ele>
        <time>2019-04-02T11:52:51Z</time>
      </trkpt>
      <trkpt lat="47.70741" lon="3.68164">
        <ele>345</ele>
        <time>2019-04-02T11:52:55Z</time>
      </trkpt>
      <trkpt lat="47.70742" lon="3.68167">
        <ele>345</ele>
        <time>2019-04-02T11:52:57Z</time>
      </trkpt>
      <trkpt lat="47.70744" lon="3.68174">
        <ele>344</ele>
        <time>2019-04-02T11:53:01Z</time>
      </trkpt>
      <trkpt lat="47.70746" lon="3.68178">
        <ele>343</ele>
        <time>2019-04-02T11:53:03Z</time>
      </trkpt>
      <trkpt lat="47.70748" lon="3.68186">
        <ele>342</ele>
        <time>2019-04-02T11:53:07Z</time>
      </trkpt>
      <trkpt lat="47.70752" lon="3.68192">
        <ele>341</ele>
        <time>2019-04-02T11:53:11Z</time>
      </trkpt>
      <trkpt lat="47.70753" lon="3.68195">
        <ele>340</ele>
        <time>2019-04-02T11:53:13Z</time>
      </trkpt>
      <trkpt lat="47.70757" lon="3.68202">
        <ele>339</ele>
        <time>2019-04-02T11:53:18Z</time>
      </trkpt>
      <trkpt lat="47.70759" lon="3.68207">
        <ele>339</ele>
        <time>2019-04-02T11:53:21Z</time>
      </trkpt>
      <trkpt lat="47.70761" lon="3.68214">
        <ele>338</ele>
        <time>2019-04-02T11:53:25Z</time>
      </trkpt>
      <trkpt lat="47.70763" lon="3.68218">
        <ele>338</ele>
        <time>2019-04-02T11:53:27Z</time>
      </trkpt>
      <trkpt lat="47.70766" lon="3.68224">
        <ele>338</ele>
        <time>2019-04-02T11:53:31Z</time>
      </trkpt>
      <trkpt lat="47.70769" lon="3.6823">
        <ele>338</ele>
        <time>2019-04-02T11:53:36Z</time>
      </trkpt>
      <trkpt lat="47.70772" lon="3.68236">
        <ele>338</ele>
        <time>2019-04-02T11:53:40Z</time>
      </trkpt>
      <trkpt lat="47.70773" lon="3.6824">
        <ele>337</ele>
        <time>2019-04-02T11:53:42Z</time>
      </trkpt>
      <trkpt lat="47.70774" lon="3.68243">
        <ele>337</ele>
        <time>2019-04-02T11:53:44Z</time>
      </trkpt>
      <trkpt lat="47.70778" lon="3.68251">
        <ele>337</ele>
        <time>2019-04-02T11:53:49Z</time>
      </trkpt>
      <trkpt lat="47.70781" lon="3.68257">
        <ele>337</ele>
        <time>2019-04-02T11:53:53Z</time>
      </trkpt>
      <trkpt lat="47.70783" lon="3.68263">
        <ele>337</ele>
        <time>2019-04-02T11:53:57Z</time>
      </trkpt>
      <trkpt lat="47.70785" lon="3.68268">
        <ele>337</ele>
        <time>2019-04-02T11:54:00Z</time>
      </trkpt>
      <trkpt lat="47.70787" lon="3.68271">
        <ele>336</ele>
        <time>2019-04-02T11:54:02Z</time>
      </trkpt>
      <trkpt lat="47.70789" lon="3.68278">
        <ele>336</ele>
        <time>2019-04-02T11:54:05Z</time>
      </trkpt>
      <trkpt lat="47.70792" lon="3.68285">
        <ele>336</ele>
        <time>2019-04-02T11:54:09Z</time>
      </trkpt>
      <trkpt lat="47.70794" lon="3.68293">
        <ele>337</ele>
        <time>2019-04-02T11:54:13Z</time>
      </trkpt>
      <trkpt lat="47.70795" lon="3.68298">
        <ele>336</ele>
        <time>2019-04-02T11:54:17Z</time>
      </trkpt>
      <trkpt lat="47.70795" lon="3.68306">
        <ele>336</ele>
        <time>2019-04-02T11:54:21Z</time>
      </trkpt>
      <trkpt lat="47.70797" lon="3.68314">
        <ele>335</ele>
        <time>2019-04-02T11:54:26Z</time>
      </trkpt>
      <trkpt lat="47.70798" lon="3.68318">
        <ele>334</ele>
        <time>2019-04-02T11:54:28Z</time>
      </trkpt>
      <trkpt lat="47.70799" lon="3.68325">
        <ele>334</ele>
        <time>2019-04-02T11:54:32Z</time>
      </trkpt>
      <trkpt lat="47.70801" lon="3.68331">
        <ele>334</ele>
        <time>2019-04-02T11:54:36Z</time>
      </trkpt>
      <trkpt lat="47.70802" lon="3.68337">
        <ele>334</ele>
        <time>2019-04-02T11:54:39Z</time>
      </trkpt>
      <trkpt lat="47.70802" lon="3.68341">
        <ele>333</ele>
        <time>2019-04-02T11:54:41Z</time>
      </trkpt>
      <trkpt lat="47.70803" lon="3.68346">
        <ele>333</ele>
        <time>2019-04-02T11:54:43Z</time>
      </trkpt>
      <trkpt lat="47.70804" lon="3.68353">
        <ele>331</ele>
        <time>2019-04-02T11:54:47Z</time>
      </trkpt>
      <trkpt lat="47.70804" lon="3.68358">
        <ele>330</ele>
        <time>2019-04-02T11:54:50Z</time>
      </trkpt>
      <trkpt lat="47.70804" lon="3.68366">
        <ele>328</ele>
        <time>2019-04-02T11:54:55Z</time>
      </trkpt>
      <trkpt lat="47.70804" lon="3.68371">
        <ele>328</ele>
        <time>2019-04-02T11:54:58Z</time>
      </trkpt>
      <trkpt lat="47.70804" lon="3.68375">
        <ele>328</ele>
        <time>2019-04-02T11:55:00Z</time>
      </trkpt>
      <trkpt lat="47.70804" lon="3.68379">
        <ele>328</ele>
        <time>2019-04-02T11:55:02Z</time>
      </trkpt>
      <trkpt lat="47.70805" lon="3.68386">
        <ele>328</ele>
        <time>2019-04-02T11:55:06Z</time>
      </trkpt>
      <trkpt lat="47.70805" lon="3.6839">
        <ele>328</ele>
        <time>2019-04-02T11:55:08Z</time>
      </trkpt>
      <trkpt lat="47.70805" lon="3.68397">
        <ele>328</ele>
        <time>2019-04-02T11:55:11Z</time>
      </trkpt>
      <trkpt lat="47.70806" lon="3.68402">
        <ele>327</ele>
        <time>2019-04-02T11:55:14Z</time>
      </trkpt>
      <trkpt lat="47.70806" lon="3.68406">
        <ele>327</ele>
        <time>2019-04-02T11:55:16Z</time>
      </trkpt>
      <trkpt lat="47.70806" lon="3.68411">
        <ele>327</ele>
        <time>2019-04-02T11:55:18Z</time>
      </trkpt>
      <trkpt lat="47.70806" lon="3.68418">
        <ele>327</ele>
        <time>2019-04-02T11:55:22Z</time>
      </trkpt>
      <trkpt lat="47.70807" lon="3.68425">
        <ele>327</ele>
        <time>2019-04-02T11:55:26Z</time>
      </trkpt>
      <trkpt lat="47.70807" lon="3.68429">
        <ele>326</ele>
        <time>2019-04-02T11:55:28Z</time>
      </trkpt>
      <trkpt lat="47.70807" lon="3.68434">
        <ele>326</ele>
        <time>2019-04-02T11:55:31Z</time>
      </trkpt>
      <trkpt lat="47.70807" lon="3.68439">
        <ele>326</ele>
        <time>2019-04-02T11:55:34Z</time>
      </trkpt>
      <trkpt lat="47.70807" lon="3.68444">
        <ele>325</ele>
        <time>2019-04-02T11:55:37Z</time>
      </trkpt>
      <trkpt lat="47.70807" lon="3.68448">
        <ele>325</ele>
        <time>2019-04-02T11:55:39Z</time>
      </trkpt>
      <trkpt lat="47.70807" lon="3.68455">
        <ele>325</ele>
        <time>2019-04-02T11:55:43Z</time>
      </trkpt>
      <trkpt lat="47.70808" lon="3.68459">
        <ele>324</ele>
        <time>2019-04-02T11:55:45Z</time>
      </trkpt>
      <trkpt lat="47.70808" lon="3.68463">
        <ele>324</ele>
        <time>2019-04-02T11:55:47Z</time>
      </trkpt>
      <trkpt lat="47.70809" lon="3.68471">
        <ele>323</ele>
        <time>2019-04-02T11:55:51Z</time>
      </trkpt>
      <trkpt lat="47.7081" lon="3.68478">
        <ele>323</ele>
        <time>2019-04-02T11:55:56Z</time>
      </trkpt>
      <trkpt lat="47.7081" lon="3.68488">
        <ele>322</ele>
        <time>2019-04-02T11:56:02Z</time>
      </trkpt>
      <trkpt lat="47.7081" lon="3.68495">
        <ele>321</ele>
        <time>2019-04-02T11:56:06Z</time>
      </trkpt>
      <trkpt lat="47.70811" lon="3.68502">
        <ele>320</ele>
        <time>2019-04-02T11:56:10Z</time>
      </trkpt>
      <trkpt lat="47.7081" lon="3.68509">
        <ele>320</ele>
        <time>2019-04-02T11:56:14Z</time>
      </trkpt>
      <trkpt lat="47.70809" lon="3.68516">
        <ele>319</ele>
        <time>2019-04-02T11:56:18Z</time>
      </trkpt>
      <trkpt lat="47.70809" lon="3.68521">
        <ele>319</ele>
        <time>2019-04-02T11:56:20Z</time>
      </trkpt>
      <trkpt lat="47.70808" lon="3.6853">
        <ele>319</ele>
        <time>2019-04-02T11:56:25Z</time>
      </trkpt>
      <trkpt lat="47.70808" lon="3.68536">
        <ele>319</ele>
        <time>2019-04-02T11:56:29Z</time>
      </trkpt>
      <trkpt lat="47.70808" lon="3.6854">
        <ele>318</ele>
        <time>2019-04-02T11:56:31Z</time>
      </trkpt>
      <trkpt lat="47.70807" lon="3.68548">
        <ele>316</ele>
        <time>2019-04-02T11:56:36Z</time>
      </trkpt>
      <trkpt lat="47.70806" lon="3.68554">
        <ele>316</ele>
        <time>2019-04-02T11:56:39Z</time>
      </trkpt>
      <trkpt lat="47.70805" lon="3.6856">
        <ele>315</ele>
        <time>2019-04-02T11:56:42Z</time>
      </trkpt>
      <trkpt lat="47.70804" lon="3.68566">
        <ele>314</ele>
        <time>2019-04-02T11:56:45Z</time>
      </trkpt>
      <trkpt lat="47.70803" lon="3.6857">
        <ele>314</ele>
        <time>2019-04-02T11:56:47Z</time>
      </trkpt>
      <trkpt lat="47.70802" lon="3.68577">
        <ele>314</ele>
        <time>2019-04-02T11:56:51Z</time>
      </trkpt>
      <trkpt lat="47.70801" lon="3.68584">
        <ele>314</ele>
        <time>2019-04-02T11:56:55Z</time>
      </trkpt>
      <trkpt lat="47.708" lon="3.68592">
        <ele>313</ele>
        <time>2019-04-02T11:57:00Z</time>
      </trkpt>
      <trkpt lat="47.708" lon="3.68599">
        <ele>312</ele>
        <time>2019-04-02T11:57:03Z</time>
      </trkpt>
      <trkpt lat="47.708" lon="3.68603">
        <ele>312</ele>
        <time>2019-04-02T11:57:05Z</time>
      </trkpt>
      <trkpt lat="47.708" lon="3.68608">
        <ele>311</ele>
        <time>2019-04-02T11:57:08Z</time>
      </trkpt>
      <trkpt lat="47.70799" lon="3.68615">
        <ele>311</ele>
        <time>2019-04-02T11:57:12Z</time>
      </trkpt>
      <trkpt lat="47.70798" lon="3.6862">
        <ele>310</ele>
        <time>2019-04-02T11:57:15Z</time>
      </trkpt>
      <trkpt lat="47.70797" lon="3.68624">
        <ele>309</ele>
        <time>2019-04-02T11:57:17Z</time>
      </trkpt>
      <trkpt lat="47.70797" lon="3.68627">
        <ele>309</ele>
        <time>2019-04-02T11:57:19Z</time>
      </trkpt>
      <trkpt lat="47.70796" lon="3.68634">
        <ele>309</ele>
        <time>2019-04-02T11:57:23Z</time>
      </trkpt>
      <trkpt lat="47.70794" lon="3.68642">
        <ele>309</ele>
        <time>2019-04-02T11:57:28Z</time>
      </trkpt>
      <trkpt lat="47.70793" lon="3.68647">
        <ele>308</ele>
        <time>2019-04-02T11:57:31Z</time>
      </trkpt>
      <trkpt lat="47.70794" lon="3.68653">
        <ele>306</ele>
        <time>2019-04-02T11:57:41Z</time>
      </trkpt>
      <trkpt lat="47.70791" lon="3.6866">
        <ele>308</ele>
        <time>2019-04-02T11:58:26Z</time>
      </trkpt>
      <trkpt lat="47.70789" lon="3.68665">
        <ele>308</ele>
        <time>2019-04-02T11:58:30Z</time>
      </trkpt>
      <trkpt lat="47.70787" lon="3.68671">
        <ele>307</ele>
        <time>2019-04-02T11:58:34Z</time>
      </trkpt>
      <trkpt lat="47.70786" lon="3.68674">
        <ele>307</ele>
        <time>2019-04-02T11:58:36Z</time>
      </trkpt>
      <trkpt lat="47.70784" lon="3.68681">
        <ele>308</ele>
        <time>2019-04-02T11:58:41Z</time>
      </trkpt>
      <trkpt lat="47.70782" lon="3.68686">
        <ele>307</ele>
        <time>2019-04-02T11:58:44Z</time>
      </trkpt>
      <trkpt lat="47.7078" lon="3.68695">
        <ele>307</ele>
        <time>2019-04-02T11:58:50Z</time>
      </trkpt>
      <trkpt lat="47.70778" lon="3.687">
        <ele>307</ele>
        <time>2019-04-02T11:58:53Z</time>
      </trkpt>
      <trkpt lat="47.70774" lon="3.68704">
        <ele>307</ele>
        <time>2019-04-02T11:58:58Z</time>
      </trkpt>
      <trkpt lat="47.70768" lon="3.68707">
        <ele>307</ele>
        <time>2019-04-02T11:59:03Z</time>
      </trkpt>
      <trkpt lat="47.70763" lon="3.6871">
        <ele>308</ele>
        <time>2019-04-02T11:59:08Z</time>
      </trkpt>
      <trkpt lat="47.70758" lon="3.68712">
        <ele>308</ele>
        <time>2019-04-02T11:59:12Z</time>
      </trkpt>
      <trkpt lat="47.70755" lon="3.68713">
        <ele>308</ele>
        <time>2019-04-02T11:59:14Z</time>
      </trkpt>
      <trkpt lat="47.70751" lon="3.68715">
        <ele>308</ele>
        <time>2019-04-02T11:59:17Z</time>
      </trkpt>
      <trkpt lat="47.70747" lon="3.68716">
        <ele>308</ele>
        <time>2019-04-02T11:59:20Z</time>
      </trkpt>
      <trkpt lat="47.70743" lon="3.68719">
        <ele>307</ele>
        <time>2019-04-02T11:59:24Z</time>
      </trkpt>
      <trkpt lat="47.70741" lon="3.6872">
        <ele>306</ele>
        <time>2019-04-02T11:59:26Z</time>
      </trkpt>
      <trkpt lat="47.70738" lon="3.68722">
        <ele>306</ele>
        <time>2019-04-02T11:59:28Z</time>
      </trkpt>
      <trkpt lat="47.70735" lon="3.68724">
        <ele>306</ele>
        <time>2019-04-02T11:59:30Z</time>
      </trkpt>
      <trkpt lat="47.70732" lon="3.68725">
        <ele>306</ele>
        <time>2019-04-02T11:59:33Z</time>
      </trkpt>
      <trkpt lat="47.70729" lon="3.68727">
        <ele>306</ele>
        <time>2019-04-02T11:59:36Z</time>
      </trkpt>
      <trkpt lat="47.70726" lon="3.68728">
        <ele>306</ele>
        <time>2019-04-02T11:59:38Z</time>
      </trkpt>
      <trkpt lat="47.70723" lon="3.6873">
        <ele>306</ele>
        <time>2019-04-02T11:59:41Z</time>
      </trkpt>
      <trkpt lat="47.70719" lon="3.68733">
        <ele>305</ele>
        <time>2019-04-02T11:59:45Z</time>
      </trkpt>
      <trkpt lat="47.70713" lon="3.68735">
        <ele>305</ele>
        <time>2019-04-02T11:59:49Z</time>
      </trkpt>
      <trkpt lat="47.7071" lon="3.68736">
        <ele>305</ele>
        <time>2019-04-02T11:59:52Z</time>
      </trkpt>
      <trkpt lat="47.70705" lon="3.68738">
        <ele>304</ele>
        <time>2019-04-02T11:59:56Z</time>
      </trkpt>
      <trkpt lat="47.70699" lon="3.68739">
        <ele>304</ele>
        <time>2019-04-02T12:00:01Z</time>
      </trkpt>
      <trkpt lat="47.70696" lon="3.68739">
        <ele>303</ele>
        <time>2019-04-02T12:00:03Z</time>
      </trkpt>
      <trkpt lat="47.70692" lon="3.68739">
        <ele>303</ele>
        <time>2019-04-02T12:00:06Z</time>
      </trkpt>
      <trkpt lat="47.70689" lon="3.68739">
        <ele>303</ele>
        <time>2019-04-02T12:00:08Z</time>
      </trkpt>
      <trkpt lat="47.70685" lon="3.68739">
        <ele>302</ele>
        <time>2019-04-02T12:00:11Z</time>
      </trkpt>
      <trkpt lat="47.7068" lon="3.68738">
        <ele>301</ele>
        <time>2019-04-02T12:00:15Z</time>
      </trkpt>
      <trkpt lat="47.70675" lon="3.68738">
        <ele>300</ele>
        <time>2019-04-02T12:00:19Z</time>
      </trkpt>
      <trkpt lat="47.7067" lon="3.68738">
        <ele>301</ele>
        <time>2019-04-02T12:00:23Z</time>
      </trkpt>
      <trkpt lat="47.70665" lon="3.68737">
        <ele>301</ele>
        <time>2019-04-02T12:00:27Z</time>
      </trkpt>
      <trkpt lat="47.70659" lon="3.68738">
        <ele>301</ele>
        <time>2019-04-02T12:00:32Z</time>
      </trkpt>
      <trkpt lat="47.70654" lon="3.68738">
        <ele>301</ele>
        <time>2019-04-02T12:00:36Z</time>
      </trkpt>
      <trkpt lat="47.70651" lon="3.68738">
        <ele>300</ele>
        <time>2019-04-02T12:00:38Z</time>
      </trkpt>
      <trkpt lat="47.70647" lon="3.68737">
        <ele>300</ele>
        <time>2019-04-02T12:00:41Z</time>
      </trkpt>
      <trkpt lat="47.70642" lon="3.68736">
        <ele>300</ele>
        <time>2019-04-02T12:00:44Z</time>
      </trkpt>
      <trkpt lat="47.70638" lon="3.68737">
        <ele>300</ele>
        <time>2019-04-02T12:00:48Z</time>
      </trkpt>
      <trkpt lat="47.70633" lon="3.68737">
        <ele>299</ele>
        <time>2019-04-02T12:00:52Z</time>
      </trkpt>
      <trkpt lat="47.70628" lon="3.68737">
        <ele>299</ele>
        <time>2019-04-02T12:00:55Z</time>
      </trkpt>
      <trkpt lat="47.70626" lon="3.68737">
        <ele>299</ele>
        <time>2019-04-02T12:00:57Z</time>
      </trkpt>
      <trkpt lat="47.70622" lon="3.68737">
        <ele>300</ele>
        <time>2019-04-02T12:00:59Z</time>
      </trkpt>
      <trkpt lat="47.70618" lon="3.68736">
        <ele>298</ele>
        <time>2019-04-02T12:01:03Z</time>
      </trkpt>
      <trkpt lat="47.70612" lon="3.68736">
        <ele>297</ele>
        <time>2019-04-02T12:01:07Z</time>
      </trkpt>
      <trkpt lat="47.70609" lon="3.68736">
        <ele>297</ele>
        <time>2019-04-02T12:01:09Z</time>
      </trkpt>
      <trkpt lat="47.70603" lon="3.68734">
        <ele>297</ele>
        <time>2019-04-02T12:01:13Z</time>
      </trkpt>
      <trkpt lat="47.70598" lon="3.68735">
        <ele>297</ele>
        <time>2019-04-02T12:01:17Z</time>
      </trkpt>
      <trkpt lat="47.70596" lon="3.68736">
        <ele>297</ele>
        <time>2019-04-02T12:01:19Z</time>
      </trkpt>
      <trkpt lat="47.70591" lon="3.68735">
        <ele>297</ele>
        <time>2019-04-02T12:01:22Z</time>
      </trkpt>
      <trkpt lat="47.70589" lon="3.68734">
        <ele>297</ele>
        <time>2019-04-02T12:01:24Z</time>
      </trkpt>
      <trkpt lat="47.70583" lon="3.68734">
        <ele>298</ele>
        <time>2019-04-02T12:01:28Z</time>
      </trkpt>
      <trkpt lat="47.70579" lon="3.68734">
        <ele>298</ele>
        <time>2019-04-02T12:01:31Z</time>
      </trkpt>
      <trkpt lat="47.70574" lon="3.68733">
        <ele>297</ele>
        <time>2019-04-02T12:01:34Z</time>
      </trkpt>
      <trkpt lat="47.70568" lon="3.68734">
        <ele>296</ele>
        <time>2019-04-02T12:01:38Z</time>
      </trkpt>
      <trkpt lat="47.70563" lon="3.68732">
        <ele>295</ele>
        <time>2019-04-02T12:01:43Z</time>
      </trkpt>
      <trkpt lat="47.70557" lon="3.68731">
        <ele>295</ele>
        <time>2019-04-02T12:01:47Z</time>
      </trkpt>
      <trkpt lat="47.70554" lon="3.68731">
        <ele>295</ele>
        <time>2019-04-02T12:01:49Z</time>
      </trkpt>
      <trkpt lat="47.7055" lon="3.6873">
        <ele>294</ele>
        <time>2019-04-02T12:01:53Z</time>
      </trkpt>
      <trkpt lat="47.70544" lon="3.68728">
        <ele>294</ele>
        <time>2019-04-02T12:01:57Z</time>
      </trkpt>
      <trkpt lat="47.7054" lon="3.68727">
        <ele>295</ele>
        <time>2019-04-02T12:02:00Z</time>
      </trkpt>
      <trkpt lat="47.70535" lon="3.68727">
        <ele>295</ele>
        <time>2019-04-02T12:02:04Z</time>
      </trkpt>
      <trkpt lat="47.70533" lon="3.68726">
        <ele>295</ele>
        <time>2019-04-02T12:02:06Z</time>
      </trkpt>
      <trkpt lat="47.70529" lon="3.68725">
        <ele>295</ele>
        <time>2019-04-02T12:02:09Z</time>
      </trkpt>
      <trkpt lat="47.70524" lon="3.68726">
        <ele>294</ele>
        <time>2019-04-02T12:02:13Z</time>
      </trkpt>
      <trkpt lat="47.7052" lon="3.68724">
        <ele>294</ele>
        <time>2019-04-02T12:02:16Z</time>
      </trkpt>
      <trkpt lat="47.70517" lon="3.68724">
        <ele>293</ele>
        <time>2019-04-02T12:02:18Z</time>
      </trkpt>
      <trkpt lat="47.70514" lon="3.68723">
        <ele>294</ele>
        <time>2019-04-02T12:02:20Z</time>
      </trkpt>
      <trkpt lat="47.70512" lon="3.68722">
        <ele>293</ele>
        <time>2019-04-02T12:02:22Z</time>
      </trkpt>
      <trkpt lat="47.70507" lon="3.68721">
        <ele>293</ele>
        <time>2019-04-02T12:02:25Z</time>
      </trkpt>
      <trkpt lat="47.70502" lon="3.68721">
        <ele>292</ele>
        <time>2019-04-02T12:02:29Z</time>
      </trkpt>
      <trkpt lat="47.70499" lon="3.68721">
        <ele>292</ele>
        <time>2019-04-02T12:02:31Z</time>
      </trkpt>
      <trkpt lat="47.70496" lon="3.68721">
        <ele>293</ele>
        <time>2019-04-02T12:02:33Z</time>
      </trkpt>
      <trkpt lat="47.70492" lon="3.68721">
        <ele>293</ele>
        <time>2019-04-02T12:02:36Z</time>
      </trkpt>
      <trkpt lat="47.70488" lon="3.68721">
        <ele>293</ele>
        <time>2019-04-02T12:02:39Z</time>
      </trkpt>
      <trkpt lat="47.70484" lon="3.68722">
        <ele>293</ele>
        <time>2019-04-02T12:02:42Z</time>
      </trkpt>
      <trkpt lat="47.70479" lon="3.68723">
        <ele>293</ele>
        <time>2019-04-02T12:02:46Z</time>
      </trkpt>
      <trkpt lat="47.70473" lon="3.68723">
        <ele>292</ele>
        <time>2019-04-02T12:02:50Z</time>
      </trkpt>
      <trkpt lat="47.70467" lon="3.68723">
        <ele>292</ele>
        <time>2019-04-02T12:02:55Z</time>
      </trkpt>
      <trkpt lat="47.70463" lon="3.68723">
        <ele>292</ele>
        <time>2019-04-02T12:02:57Z</time>
      </trkpt>
      <trkpt lat="47.7046" lon="3.68723">
        <ele>292</ele>
        <time>2019-04-02T12:02:59Z</time>
      </trkpt>
      <trkpt lat="47.70454" lon="3.68722">
        <ele>291</ele>
        <time>2019-04-02T12:03:03Z</time>
      </trkpt>
      <trkpt lat="47.70452" lon="3.68722">
        <ele>291</ele>
        <time>2019-04-02T12:03:05Z</time>
      </trkpt>
      <trkpt lat="47.70446" lon="3.68723">
        <ele>290</ele>
        <time>2019-04-02T12:03:09Z</time>
      </trkpt>
      <trkpt lat="47.70442" lon="3.68723">
        <ele>290</ele>
        <time>2019-04-02T12:03:11Z</time>
      </trkpt>
      <trkpt lat="47.70435" lon="3.68724">
        <ele>290</ele>
        <time>2019-04-02T12:03:16Z</time>
      </trkpt>
      <trkpt lat="47.7043" lon="3.68723">
        <ele>289</ele>
        <time>2019-04-02T12:03:19Z</time>
      </trkpt>
      <trkpt lat="47.70425" lon="3.68723">
        <ele>288</ele>
        <time>2019-04-02T12:03:23Z</time>
      </trkpt>
      <trkpt lat="47.70422" lon="3.68724">
        <ele>288</ele>
        <time>2019-04-02T12:03:25Z</time>
      </trkpt>
      <trkpt lat="47.70419" lon="3.68724">
        <ele>288</ele>
        <time>2019-04-02T12:03:27Z</time>
      </trkpt>
      <trkpt lat="47.70413" lon="3.68722">
        <ele>288</ele>
        <time>2019-04-02T12:03:31Z</time>
      </trkpt>
      <trkpt lat="47.70411" lon="3.68722">
        <ele>288</ele>
        <time>2019-04-02T12:03:33Z</time>
      </trkpt>
      <trkpt lat="47.70405" lon="3.68722">
        <ele>288</ele>
        <time>2019-04-02T12:03:38Z</time>
      </trkpt>
      <trkpt lat="47.70402" lon="3.68722">
        <ele>287</ele>
        <time>2019-04-02T12:03:39Z</time>
      </trkpt>
      <trkpt lat="47.70397" lon="3.68722">
        <ele>287</ele>
        <time>2019-04-02T12:03:43Z</time>
      </trkpt>
      <trkpt lat="47.70391" lon="3.68721">
        <ele>287</ele>
        <time>2019-04-02T12:03:47Z</time>
      </trkpt>
      <trkpt lat="47.70388" lon="3.68721">
        <ele>287</ele>
        <time>2019-04-02T12:03:49Z</time>
      </trkpt>
      <trkpt lat="47.70383" lon="3.68721">
        <ele>288</ele>
        <time>2019-04-02T12:03:52Z</time>
      </trkpt>
      <trkpt lat="47.7038" lon="3.68721">
        <ele>288</ele>
        <time>2019-04-02T12:03:54Z</time>
      </trkpt>
      <trkpt lat="47.70378" lon="3.68721">
        <ele>288</ele>
        <time>2019-04-02T12:03:56Z</time>
      </trkpt>
      <trkpt lat="47.70375" lon="3.68721">
        <ele>287</ele>
        <time>2019-04-02T12:03:58Z</time>
      </trkpt>
      <trkpt lat="47.70369" lon="3.68721">
        <ele>286</ele>
        <time>2019-04-02T12:04:03Z</time>
      </trkpt>
      <trkpt lat="47.70364" lon="3.68721">
        <ele>286</ele>
        <time>2019-04-02T12:04:06Z</time>
      </trkpt>
      <trkpt lat="47.70358" lon="3.68721">
        <ele>284</ele>
        <time>2019-04-02T12:04:10Z</time>
      </trkpt>
      <trkpt lat="47.70355" lon="3.68721">
        <ele>284</ele>
        <time>2019-04-02T12:04:12Z</time>
      </trkpt>
      <trkpt lat="47.70351" lon="3.6872">
        <ele>284</ele>
        <time>2019-04-02T12:04:15Z</time>
      </trkpt>
      <trkpt lat="47.70348" lon="3.6872">
        <ele>284</ele>
        <time>2019-04-02T12:04:17Z</time>
      </trkpt>
      <trkpt lat="47.70345" lon="3.68719">
        <ele>284</ele>
        <time>2019-04-02T12:04:20Z</time>
      </trkpt>
      <trkpt lat="47.70339" lon="3.68718">
        <ele>284</ele>
        <time>2019-04-02T12:04:23Z</time>
      </trkpt>
      <trkpt lat="47.70335" lon="3.68717">
        <ele>284</ele>
        <time>2019-04-02T12:04:26Z</time>
      </trkpt>
      <trkpt lat="47.7033" lon="3.68717">
        <ele>283</ele>
        <time>2019-04-02T12:04:30Z</time>
      </trkpt>
      <trkpt lat="47.70327" lon="3.68717">
        <ele>283</ele>
        <time>2019-04-02T12:04:32Z</time>
      </trkpt>
      <trkpt lat="47.70321" lon="3.68715">
        <ele>284</ele>
        <time>2019-04-02T12:04:36Z</time>
      </trkpt>
      <trkpt lat="47.70316" lon="3.68715">
        <ele>283</ele>
        <time>2019-04-02T12:04:40Z</time>
      </trkpt>
      <trkpt lat="47.70312" lon="3.68715">
        <ele>283</ele>
        <time>2019-04-02T12:04:42Z</time>
      </trkpt>
      <trkpt lat="47.70309" lon="3.68715">
        <ele>282</ele>
        <time>2019-04-02T12:04:44Z</time>
      </trkpt>
      <trkpt lat="47.70305" lon="3.68714">
        <ele>282</ele>
        <time>2019-04-02T12:04:47Z</time>
      </trkpt>
      <trkpt lat="47.70302" lon="3.68713">
        <ele>282</ele>
        <time>2019-04-02T12:04:48Z</time>
      </trkpt>
      <trkpt lat="47.70299" lon="3.68712">
        <ele>282</ele>
        <time>2019-04-02T12:04:51Z</time>
      </trkpt>
      <trkpt lat="47.70296" lon="3.68711">
        <ele>282</ele>
        <time>2019-04-02T12:04:54Z</time>
      </trkpt>
      <trkpt lat="47.70293" lon="3.6871">
        <ele>282</ele>
        <time>2019-04-02T12:04:56Z</time>
      </trkpt>
      <trkpt lat="47.70288" lon="3.6871">
        <ele>282</ele>
        <time>2019-04-02T12:04:59Z</time>
      </trkpt>
      <trkpt lat="47.70285" lon="3.68709">
        <ele>283</ele>
        <time>2019-04-02T12:05:01Z</time>
      </trkpt>
      <trkpt lat="47.70281" lon="3.68708">
        <ele>283</ele>
        <time>2019-04-02T12:05:03Z</time>
      </trkpt>
      <trkpt lat="47.70278" lon="3.68707">
        <ele>283</ele>
        <time>2019-04-02T12:05:06Z</time>
      </trkpt>
      <trkpt lat="47.70275" lon="3.68706">
        <ele>282</ele>
        <time>2019-04-02T12:05:08Z</time>
      </trkpt>
      <trkpt lat="47.7027" lon="3.68703">
        <ele>282</ele>
        <time>2019-04-02T12:05:13Z</time>
      </trkpt>
      <trkpt lat="47.70266" lon="3.68703">
        <ele>282</ele>
        <time>2019-04-02T12:05:17Z</time>
      </trkpt>
      <trkpt lat="47.7026" lon="3.68704">
        <ele>282</ele>
        <time>2019-04-02T12:05:20Z</time>
      </trkpt>
      <trkpt lat="47.70256" lon="3.68703">
        <ele>282</ele>
        <time>2019-04-02T12:05:23Z</time>
      </trkpt>
      <trkpt lat="47.7025" lon="3.68699">
        <ele>282</ele>
        <time>2019-04-02T12:05:27Z</time>
      </trkpt>
      <trkpt lat="47.70245" lon="3.68698">
        <ele>282</ele>
        <time>2019-04-02T12:05:30Z</time>
      </trkpt>
      <trkpt lat="47.70241" lon="3.68697">
        <ele>282</ele>
        <time>2019-04-02T12:05:34Z</time>
      </trkpt>
      <trkpt lat="47.70237" lon="3.68696">
        <ele>282</ele>
        <time>2019-04-02T12:05:38Z</time>
      </trkpt>
      <trkpt lat="47.70234" lon="3.68696">
        <ele>282</ele>
        <time>2019-04-02T12:05:40Z</time>
      </trkpt>
      <trkpt lat="47.70232" lon="3.68696">
        <ele>282</ele>
        <time>2019-04-02T12:05:42Z</time>
      </trkpt>
      <trkpt lat="47.70227" lon="3.68694">
        <ele>282</ele>
        <time>2019-04-02T12:05:46Z</time>
      </trkpt>
      <trkpt lat="47.70223" lon="3.68693">
        <ele>282</ele>
        <time>2019-04-02T12:05:48Z</time>
      </trkpt>
      <trkpt lat="47.7022" lon="3.68693">
        <ele>282</ele>
        <time>2019-04-02T12:05:50Z</time>
      </trkpt>
      <trkpt lat="47.70215" lon="3.68693">
        <ele>281</ele>
        <time>2019-04-02T12:05:55Z</time>
      </trkpt>
      <trkpt lat="47.7021" lon="3.68691">
        <ele>281</ele>
        <time>2019-04-02T12:05:58Z</time>
      </trkpt>
      <trkpt lat="47.70207" lon="3.6869">
        <ele>281</ele>
        <time>2019-04-02T12:06:00Z</time>
      </trkpt>
      <trkpt lat="47.70202" lon="3.6869">
        <ele>280</ele>
        <time>2019-04-02T12:06:04Z</time>
      </trkpt>
      <trkpt lat="47.70196" lon="3.68689">
        <ele>280</ele>
        <time>2019-04-02T12:06:07Z</time>
      </trkpt>
      <trkpt lat="47.70193" lon="3.68688">
        <ele>280</ele>
        <time>2019-04-02T12:06:09Z</time>
      </trkpt>
      <trkpt lat="47.70191" lon="3.68688">
        <ele>280</ele>
        <time>2019-04-02T12:06:11Z</time>
      </trkpt>
      <trkpt lat="47.70187" lon="3.68685">
        <ele>279</ele>
        <time>2019-04-02T12:06:14Z</time>
      </trkpt>
      <trkpt lat="47.70182" lon="3.68682">
        <ele>279</ele>
        <time>2019-04-02T12:06:19Z</time>
      </trkpt>
      <trkpt lat="47.70178" lon="3.68681">
        <ele>278</ele>
        <time>2019-04-02T12:06:22Z</time>
      </trkpt>
      <trkpt lat="47.70174" lon="3.68679">
        <ele>278</ele>
        <time>2019-04-02T12:06:25Z</time>
      </trkpt>
      <trkpt lat="47.7017" lon="3.68678">
        <ele>277</ele>
        <time>2019-04-02T12:06:28Z</time>
      </trkpt>
      <trkpt lat="47.70166" lon="3.68677">
        <ele>276</ele>
        <time>2019-04-02T12:06:30Z</time>
      </trkpt>
      <trkpt lat="47.70161" lon="3.68677">
        <ele>275</ele>
        <time>2019-04-02T12:06:34Z</time>
      </trkpt>
      <trkpt lat="47.70158" lon="3.68676">
        <ele>274</ele>
        <time>2019-04-02T12:06:37Z</time>
      </trkpt>
      <trkpt lat="47.70153" lon="3.68676">
        <ele>275</ele>
        <time>2019-04-02T12:06:40Z</time>
      </trkpt>
      <trkpt lat="47.70148" lon="3.68678">
        <ele>274</ele>
        <time>2019-04-02T12:06:44Z</time>
      </trkpt>
      <trkpt lat="47.70144" lon="3.68679">
        <ele>274</ele>
        <time>2019-04-02T12:06:47Z</time>
      </trkpt>
      <trkpt lat="47.70139" lon="3.68678">
        <ele>274</ele>
        <time>2019-04-02T12:06:51Z</time>
      </trkpt>
      <trkpt lat="47.70136" lon="3.68678">
        <ele>274</ele>
        <time>2019-04-02T12:06:53Z</time>
      </trkpt>
      <trkpt lat="47.70133" lon="3.68679">
        <ele>273</ele>
        <time>2019-04-02T12:06:55Z</time>
      </trkpt>
      <trkpt lat="47.7013" lon="3.68679">
        <ele>273</ele>
        <time>2019-04-02T12:06:57Z</time>
      </trkpt>
      <trkpt lat="47.70126" lon="3.6868">
        <ele>272</ele>
        <time>2019-04-02T12:07:00Z</time>
      </trkpt>
      <trkpt lat="47.7012" lon="3.68683">
        <ele>272</ele>
        <time>2019-04-02T12:07:03Z</time>
      </trkpt>
      <trkpt lat="47.70115" lon="3.68684">
        <ele>272</ele>
        <time>2019-04-02T12:07:07Z</time>
      </trkpt>
      <trkpt lat="47.70113" lon="3.68685">
        <ele>271</ele>
        <time>2019-04-02T12:07:09Z</time>
      </trkpt>
      <trkpt lat="47.70108" lon="3.68687">
        <ele>270</ele>
        <time>2019-04-02T12:07:13Z</time>
      </trkpt>
      <trkpt lat="47.70106" lon="3.68688">
        <ele>270</ele>
        <time>2019-04-02T12:07:16Z</time>
      </trkpt>
      <trkpt lat="47.70103" lon="3.68689">
        <ele>270</ele>
        <time>2019-04-02T12:07:18Z</time>
      </trkpt>
      <trkpt lat="47.70099" lon="3.68691">
        <ele>270</ele>
        <time>2019-04-02T12:07:21Z</time>
      </trkpt>
      <trkpt lat="47.70096" lon="3.68692">
        <ele>269</ele>
        <time>2019-04-02T12:07:23Z</time>
      </trkpt>
      <trkpt lat="47.70091" lon="3.68695">
        <ele>269</ele>
        <time>2019-04-02T12:07:26Z</time>
      </trkpt>
      <trkpt lat="47.70088" lon="3.68697">
        <ele>269</ele>
        <time>2019-04-02T12:07:28Z</time>
      </trkpt>
      <trkpt lat="47.70086" lon="3.68698">
        <ele>269</ele>
        <time>2019-04-02T12:07:31Z</time>
      </trkpt>
      <trkpt lat="47.70083" lon="3.68699">
        <ele>269</ele>
        <time>2019-04-02T12:07:33Z</time>
      </trkpt>
      <trkpt lat="47.7008" lon="3.68701">
        <ele>269</ele>
        <time>2019-04-02T12:07:35Z</time>
      </trkpt>
      <trkpt lat="47.70078" lon="3.68703">
        <ele>269</ele>
        <time>2019-04-02T12:07:37Z</time>
      </trkpt>
      <trkpt lat="47.70075" lon="3.68705">
        <ele>269</ele>
        <time>2019-04-02T12:07:39Z</time>
      </trkpt>
      <trkpt lat="47.70072" lon="3.68707">
        <ele>269</ele>
        <time>2019-04-02T12:07:41Z</time>
      </trkpt>
      <trkpt lat="47.70069" lon="3.68709">
        <ele>269</ele>
        <time>2019-04-02T12:07:43Z</time>
      </trkpt>
      <trkpt lat="47.70066" lon="3.68711">
        <ele>269</ele>
        <time>2019-04-02T12:07:45Z</time>
      </trkpt>
      <trkpt lat="47.70064" lon="3.68712">
        <ele>269</ele>
        <time>2019-04-02T12:07:48Z</time>
      </trkpt>
      <trkpt lat="47.70061" lon="3.68714">
        <ele>269</ele>
        <time>2019-04-02T12:07:50Z</time>
      </trkpt>
      <trkpt lat="47.70057" lon="3.68716">
        <ele>268</ele>
        <time>2019-04-02T12:07:54Z</time>
      </trkpt>
      <trkpt lat="47.70053" lon="3.68719">
        <ele>268</ele>
        <time>2019-04-02T12:07:57Z</time>
      </trkpt>
      <trkpt lat="47.70048" lon="3.68722">
        <ele>267</ele>
        <time>2019-04-02T12:08:01Z</time>
      </trkpt>
      <trkpt lat="47.70046" lon="3.68724">
        <ele>267</ele>
        <time>2019-04-02T12:08:03Z</time>
      </trkpt>
      <trkpt lat="47.70043" lon="3.68726">
        <ele>267</ele>
        <time>2019-04-02T12:08:05Z</time>
      </trkpt>
      <trkpt lat="47.70041" lon="3.68727">
        <ele>266</ele>
        <time>2019-04-02T12:08:07Z</time>
      </trkpt>
      <trkpt lat="47.70036" lon="3.6873">
        <ele>266</ele>
        <time>2019-04-02T12:08:10Z</time>
      </trkpt>
      <trkpt lat="47.70032" lon="3.68733">
        <ele>266</ele>
        <time>2019-04-02T12:08:15Z</time>
      </trkpt>
      <trkpt lat="47.70027" lon="3.68736">
        <ele>265</ele>
        <time>2019-04-02T12:08:19Z</time>
      </trkpt>
      <trkpt lat="47.70024" lon="3.68738">
        <ele>264</ele>
        <time>2019-04-02T12:08:22Z</time>
      </trkpt>
      <trkpt lat="47.70019" lon="3.68741">
        <ele>265</ele>
        <time>2019-04-02T12:08:26Z</time>
      </trkpt>
      <trkpt lat="47.70016" lon="3.68743">
        <ele>264</ele>
        <time>2019-04-02T12:08:28Z</time>
      </trkpt>
      <trkpt lat="47.70011" lon="3.68746">
        <ele>264</ele>
        <time>2019-04-02T12:08:32Z</time>
      </trkpt>
      <trkpt lat="47.70008" lon="3.68747">
        <ele>263</ele>
        <time>2019-04-02T12:08:34Z</time>
      </trkpt>
      <trkpt lat="47.70006" lon="3.68748">
        <ele>264</ele>
        <time>2019-04-02T12:08:36Z</time>
      </trkpt>
      <trkpt lat="47.70001" lon="3.68751">
        <ele>263</ele>
        <time>2019-04-02T12:08:40Z</time>
      </trkpt>
      <trkpt lat="47.69996" lon="3.68753">
        <ele>263</ele>
        <time>2019-04-02T12:08:44Z</time>
      </trkpt>
      <trkpt lat="47.69991" lon="3.68757">
        <ele>263</ele>
        <time>2019-04-02T12:08:48Z</time>
      </trkpt>
      <trkpt lat="47.69987" lon="3.68759">
        <ele>262</ele>
        <time>2019-04-02T12:08:52Z</time>
      </trkpt>
      <trkpt lat="47.69984" lon="3.68761">
        <ele>262</ele>
        <time>2019-04-02T12:08:54Z</time>
      </trkpt>
      <trkpt lat="47.69982" lon="3.68762">
        <ele>262</ele>
        <time>2019-04-02T12:08:57Z</time>
      </trkpt>
      <trkpt lat="47.69976" lon="3.68765">
        <ele>262</ele>
        <time>2019-04-02T12:09:01Z</time>
      </trkpt>
      <trkpt lat="47.6997" lon="3.68768">
        <ele>261</ele>
        <time>2019-04-02T12:09:07Z</time>
      </trkpt>
      <trkpt lat="47.69968" lon="3.68769">
        <ele>261</ele>
        <time>2019-04-02T12:09:09Z</time>
      </trkpt>
      <trkpt lat="47.69964" lon="3.68773">
        <ele>261</ele>
        <time>2019-04-02T12:09:12Z</time>
      </trkpt>
      <trkpt lat="47.6996" lon="3.68776">
        <ele>260</ele>
        <time>2019-04-02T12:09:15Z</time>
      </trkpt>
      <trkpt lat="47.69955" lon="3.68777">
        <ele>259</ele>
        <time>2019-04-02T12:09:20Z</time>
      </trkpt>
      <trkpt lat="47.69948" lon="3.6878">
        <ele>259</ele>
        <time>2019-04-02T12:09:24Z</time>
      </trkpt>
      <trkpt lat="47.69946" lon="3.68782">
        <ele>259</ele>
        <time>2019-04-02T12:09:26Z</time>
      </trkpt>
      <trkpt lat="47.69941" lon="3.68786">
        <ele>258</ele>
        <time>2019-04-02T12:09:31Z</time>
      </trkpt>
      <trkpt lat="47.69937" lon="3.68789">
        <ele>258</ele>
        <time>2019-04-02T12:09:35Z</time>
      </trkpt>
      <trkpt lat="47.69933" lon="3.68793">
        <ele>257</ele>
        <time>2019-04-02T12:09:38Z</time>
      </trkpt>
      <trkpt lat="47.69929" lon="3.68797">
        <ele>256</ele>
        <time>2019-04-02T12:09:42Z</time>
      </trkpt>
      <trkpt lat="47.69927" lon="3.68799">
        <ele>256</ele>
        <time>2019-04-02T12:09:44Z</time>
      </trkpt>
      <trkpt lat="47.69923" lon="3.68806">
        <ele>255</ele>
        <time>2019-04-02T12:09:49Z</time>
      </trkpt>
      <trkpt lat="47.6992" lon="3.68809">
        <ele>256</ele>
        <time>2019-04-02T12:09:52Z</time>
      </trkpt>
      <trkpt lat="47.69918" lon="3.68812">
        <ele>255</ele>
        <time>2019-04-02T12:09:55Z</time>
      </trkpt>
      <trkpt lat="47.69917" lon="3.68814">
        <ele>255</ele>
        <time>2019-04-02T12:09:57Z</time>
      </trkpt>
      <trkpt lat="47.69915" lon="3.68817">
        <ele>254</ele>
        <time>2019-04-02T12:09:59Z</time>
      </trkpt>
      <trkpt lat="47.6991" lon="3.68821">
        <ele>254</ele>
        <time>2019-04-02T12:10:03Z</time>
      </trkpt>
      <trkpt lat="47.69908" lon="3.68823">
        <ele>253</ele>
        <time>2019-04-02T12:10:05Z</time>
      </trkpt>
      <trkpt lat="47.69905" lon="3.68825">
        <ele>253</ele>
        <time>2019-04-02T12:10:07Z</time>
      </trkpt>
      <trkpt lat="47.69903" lon="3.68828">
        <ele>252</ele>
        <time>2019-04-02T12:10:09Z</time>
      </trkpt>
      <trkpt lat="47.69901" lon="3.6883">
        <ele>252</ele>
        <time>2019-04-02T12:10:11Z</time>
      </trkpt>
      <trkpt lat="47.69898" lon="3.68832">
        <ele>252</ele>
        <time>2019-04-02T12:10:13Z</time>
      </trkpt>
      <trkpt lat="47.69896" lon="3.68834">
        <ele>252</ele>
        <time>2019-04-02T12:10:15Z</time>
      </trkpt>
      <trkpt lat="47.69891" lon="3.6884">
        <ele>250</ele>
        <time>2019-04-02T12:10:20Z</time>
      </trkpt>
      <trkpt lat="47.69886" lon="3.68845">
        <ele>250</ele>
        <time>2019-04-02T12:10:24Z</time>
      </trkpt>
      <trkpt lat="47.69883" lon="3.68848">
        <ele>250</ele>
        <time>2019-04-02T12:10:26Z</time>
      </trkpt>
      <trkpt lat="47.69879" lon="3.68851">
        <ele>250</ele>
        <time>2019-04-02T12:10:28Z</time>
      </trkpt>
      <trkpt lat="47.69875" lon="3.68855">
        <ele>249</ele>
        <time>2019-04-02T12:10:32Z</time>
      </trkpt>
      <trkpt lat="47.69871" lon="3.68859">
        <ele>249</ele>
        <time>2019-04-02T12:10:35Z</time>
      </trkpt>
      <trkpt lat="47.69866" lon="3.68863">
        <ele>248</ele>
        <time>2019-04-02T12:10:39Z</time>
      </trkpt>
      <trkpt lat="47.69863" lon="3.68866">
        <ele>247</ele>
        <time>2019-04-02T12:10:43Z</time>
      </trkpt>
      <trkpt lat="47.6986" lon="3.68869">
        <ele>247</ele>
        <time>2019-04-02T12:10:46Z</time>
      </trkpt>
      <trkpt lat="47.69856" lon="3.68875">
        <ele>247</ele>
        <time>2019-04-02T12:10:50Z</time>
      </trkpt>
      <trkpt lat="47.69851" lon="3.68878">
        <ele>246</ele>
        <time>2019-04-02T12:10:54Z</time>
      </trkpt>
      <trkpt lat="47.69847" lon="3.68883">
        <ele>245</ele>
        <time>2019-04-02T12:10:58Z</time>
      </trkpt>
      <trkpt lat="47.69843" lon="3.68887">
        <ele>245</ele>
        <time>2019-04-02T12:11:02Z</time>
      </trkpt>
      <trkpt lat="47.6984" lon="3.68888">
        <ele>245</ele>
        <time>2019-04-02T12:11:04Z</time>
      </trkpt>
      <trkpt lat="47.69838" lon="3.68891">
        <ele>244</ele>
        <time>2019-04-02T12:11:06Z</time>
      </trkpt>
      <trkpt lat="47.69833" lon="3.68894">
        <ele>244</ele>
        <time>2019-04-02T12:11:10Z</time>
      </trkpt>
      <trkpt lat="47.69831" lon="3.68896">
        <ele>244</ele>
        <time>2019-04-02T12:11:12Z</time>
      </trkpt>
      <trkpt lat="47.69826" lon="3.68898">
        <ele>243</ele>
        <time>2019-04-02T12:11:16Z</time>
      </trkpt>
      <trkpt lat="47.69821" lon="3.68902">
        <ele>243</ele>
        <time>2019-04-02T12:11:19Z</time>
      </trkpt>
      <trkpt lat="47.69819" lon="3.68903">
        <ele>242</ele>
        <time>2019-04-02T12:11:22Z</time>
      </trkpt>
      <trkpt lat="47.69817" lon="3.68905">
        <ele>241</ele>
        <time>2019-04-02T12:11:24Z</time>
      </trkpt>
      <trkpt lat="47.69812" lon="3.68908">
        <ele>241</ele>
        <time>2019-04-02T12:11:28Z</time>
      </trkpt>
      <trkpt lat="47.6981" lon="3.6891">
        <ele>241</ele>
        <time>2019-04-02T12:11:30Z</time>
      </trkpt>
      <trkpt lat="47.69807" lon="3.68912">
        <ele>240</ele>
        <time>2019-04-02T12:11:33Z</time>
      </trkpt>
      <trkpt lat="47.69804" lon="3.68915">
        <ele>240</ele>
        <time>2019-04-02T12:11:35Z</time>
      </trkpt>
      <trkpt lat="47.69801" lon="3.68917">
        <ele>240</ele>
        <time>2019-04-02T12:11:37Z</time>
      </trkpt>
      <trkpt lat="47.69799" lon="3.68919">
        <ele>239</ele>
        <time>2019-04-02T12:11:39Z</time>
      </trkpt>
      <trkpt lat="47.69796" lon="3.68921">
        <ele>239</ele>
        <time>2019-04-02T12:11:41Z</time>
      </trkpt>
      <trkpt lat="47.69793" lon="3.68924">
        <ele>238</ele>
        <time>2019-04-02T12:11:43Z</time>
      </trkpt>
      <trkpt lat="47.69789" lon="3.68927">
        <ele>237</ele>
        <time>2019-04-02T12:11:46Z</time>
      </trkpt>
      <trkpt lat="47.69786" lon="3.68929">
        <ele>237</ele>
        <time>2019-04-02T12:11:48Z</time>
      </trkpt>
      <trkpt lat="47.69784" lon="3.68931">
        <ele>237</ele>
        <time>2019-04-02T12:11:50Z</time>
      </trkpt>
      <trkpt lat="47.6978" lon="3.68933">
        <ele>236</ele>
        <time>2019-04-02T12:11:54Z</time>
      </trkpt>
      <trkpt lat="47.69775" lon="3.68937">
        <ele>236</ele>
        <time>2019-04-02T12:11:58Z</time>
      </trkpt>
      <trkpt lat="47.69771" lon="3.68939">
        <ele>235</ele>
        <time>2019-04-02T12:12:02Z</time>
      </trkpt>
      <trkpt lat="47.69766" lon="3.68944">
        <ele>234</ele>
        <time>2019-04-02T12:12:06Z</time>
      </trkpt>
      <trkpt lat="47.69764" lon="3.68946">
        <ele>234</ele>
        <time>2019-04-02T12:12:08Z</time>
      </trkpt>
      <trkpt lat="47.69759" lon="3.68948">
        <ele>233</ele>
        <time>2019-04-02T12:12:12Z</time>
      </trkpt>
      <trkpt lat="47.69755" lon="3.68952">
        <ele>233</ele>
        <time>2019-04-02T12:12:16Z</time>
      </trkpt>
      <trkpt lat="47.6975" lon="3.68957">
        <ele>232</ele>
        <time>2019-04-02T12:12:19Z</time>
      </trkpt>
      <trkpt lat="47.69748" lon="3.68959">
        <ele>232</ele>
        <time>2019-04-02T12:12:22Z</time>
      </trkpt>
      <trkpt lat="47.69744" lon="3.68963">
        <ele>232</ele>
        <time>2019-04-02T12:12:25Z</time>
      </trkpt>
      <trkpt lat="47.69738" lon="3.68969">
        <ele>231</ele>
        <time>2019-04-02T12:12:29Z</time>
      </trkpt>
      <trkpt lat="47.69735" lon="3.68974">
        <ele>229</ele>
        <time>2019-04-02T12:12:34Z</time>
      </trkpt>
      <trkpt lat="47.6973" lon="3.6898">
        <ele>228</ele>
        <time>2019-04-02T12:12:38Z</time>
      </trkpt>
      <trkpt lat="47.69726" lon="3.68985">
        <ele>227</ele>
        <time>2019-04-02T12:12:42Z</time>
      </trkpt>
      <trkpt lat="47.69724" lon="3.68987">
        <ele>227</ele>
        <time>2019-04-02T12:12:44Z</time>
      </trkpt>
      <trkpt lat="47.6972" lon="3.68994">
        <ele>227</ele>
        <time>2019-04-02T12:12:49Z</time>
      </trkpt>
      <trkpt lat="47.69716" lon="3.68999">
        <ele>227</ele>
        <time>2019-04-02T12:12:53Z</time>
      </trkpt>
      <trkpt lat="47.69714" lon="3.69002">
        <ele>227</ele>
        <time>2019-04-02T12:12:55Z</time>
      </trkpt>
      <trkpt lat="47.69711" lon="3.69005">
        <ele>226</ele>
        <time>2019-04-02T12:12:58Z</time>
      </trkpt>
      <trkpt lat="47.69707" lon="3.6901">
        <ele>225</ele>
        <time>2019-04-02T12:13:02Z</time>
      </trkpt>
      <trkpt lat="47.69705" lon="3.69012">
        <ele>225</ele>
        <time>2019-04-02T12:13:04Z</time>
      </trkpt>
      <trkpt lat="47.69703" lon="3.69015">
        <ele>225</ele>
        <time>2019-04-02T12:13:06Z</time>
      </trkpt>
      <trkpt lat="47.69701" lon="3.69017">
        <ele>225</ele>
        <time>2019-04-02T12:13:07Z</time>
      </trkpt>
      <trkpt lat="47.69696" lon="3.69024">
        <ele>225</ele>
        <time>2019-04-02T12:13:12Z</time>
      </trkpt>
      <trkpt lat="47.69694" lon="3.69026">
        <ele>224</ele>
        <time>2019-04-02T12:13:14Z</time>
      </trkpt>
      <trkpt lat="47.69692" lon="3.69029">
        <ele>224</ele>
        <time>2019-04-02T12:13:17Z</time>
      </trkpt>
      <trkpt lat="47.69686" lon="3.69034">
        <ele>223</ele>
        <time>2019-04-02T12:13:21Z</time>
      </trkpt>
      <trkpt lat="47.69682" lon="3.69038">
        <ele>222</ele>
        <time>2019-04-02T12:13:25Z</time>
      </trkpt>
      <trkpt lat="47.6968" lon="3.6904">
        <ele>222</ele>
        <time>2019-04-02T12:13:27Z</time>
      </trkpt>
      <trkpt lat="47.69675" lon="3.69042">
        <ele>222</ele>
        <time>2019-04-02T12:13:31Z</time>
      </trkpt>
      <trkpt lat="47.6967" lon="3.69045">
        <ele>223</ele>
        <time>2019-04-02T12:13:35Z</time>
      </trkpt>
      <trkpt lat="47.69665" lon="3.69047">
        <ele>223</ele>
        <time>2019-04-02T12:13:38Z</time>
      </trkpt>
      <trkpt lat="47.6966" lon="3.69048">
        <ele>223</ele>
        <time>2019-04-02T12:13:42Z</time>
      </trkpt>
      <trkpt lat="47.69654" lon="3.69049">
        <ele>222</ele>
        <time>2019-04-02T12:13:45Z</time>
      </trkpt>
      <trkpt lat="47.69651" lon="3.69049">
        <ele>221</ele>
        <time>2019-04-02T12:13:47Z</time>
      </trkpt>
      <trkpt lat="47.69647" lon="3.69049">
        <ele>219</ele>
        <time>2019-04-02T12:13:51Z</time>
      </trkpt>
      <trkpt lat="47.69644" lon="3.6905">
        <ele>219</ele>
        <time>2019-04-02T12:13:53Z</time>
      </trkpt>
      <trkpt lat="47.69642" lon="3.6905">
        <ele>218</ele>
        <time>2019-04-02T12:13:55Z</time>
      </trkpt>
      <trkpt lat="47.69637" lon="3.69049">
        <ele>217</ele>
        <time>2019-04-02T12:13:59Z</time>
      </trkpt>
      <trkpt lat="47.69633" lon="3.69049">
        <ele>216</ele>
        <time>2019-04-02T12:14:02Z</time>
      </trkpt>
      <trkpt lat="47.69628" lon="3.69046">
        <ele>216</ele>
        <time>2019-04-02T12:14:06Z</time>
      </trkpt>
      <trkpt lat="47.69624" lon="3.69043">
        <ele>215</ele>
        <time>2019-04-02T12:14:10Z</time>
      </trkpt>
      <trkpt lat="47.6962" lon="3.69041">
        <ele>215</ele>
        <time>2019-04-02T12:14:14Z</time>
      </trkpt>
      <trkpt lat="47.69617" lon="3.6904">
        <ele>215</ele>
        <time>2019-04-02T12:14:16Z</time>
      </trkpt>
      <trkpt lat="47.69613" lon="3.69037">
        <ele>215</ele>
        <time>2019-04-02T12:14:20Z</time>
      </trkpt>
      <trkpt lat="47.69606" lon="3.69035">
        <ele>214</ele>
        <time>2019-04-02T12:14:25Z</time>
      </trkpt>
      <trkpt lat="47.69602" lon="3.69034">
        <ele>213</ele>
        <time>2019-04-02T12:14:28Z</time>
      </trkpt>
      <trkpt lat="47.69599" lon="3.69033">
        <ele>214</ele>
        <time>2019-04-02T12:14:30Z</time>
      </trkpt>
      <trkpt lat="47.69595" lon="3.6903">
        <ele>213</ele>
        <time>2019-04-02T12:14:33Z</time>
      </trkpt>
      <trkpt lat="47.69592" lon="3.69028">
        <ele>214</ele>
        <time>2019-04-02T12:14:35Z</time>
      </trkpt>
      <trkpt lat="47.69589" lon="3.69026">
        <ele>213</ele>
        <time>2019-04-02T12:14:37Z</time>
      </trkpt>
      <trkpt lat="47.69585" lon="3.69025">
        <ele>213</ele>
        <time>2019-04-02T12:14:41Z</time>
      </trkpt>
      <trkpt lat="47.69581" lon="3.69024">
        <ele>212</ele>
        <time>2019-04-02T12:14:44Z</time>
      </trkpt>
      <trkpt lat="47.69576" lon="3.69021">
        <ele>211</ele>
        <time>2019-04-02T12:14:48Z</time>
      </trkpt>
      <trkpt lat="47.69572" lon="3.69019">
        <ele>212</ele>
        <time>2019-04-02T12:14:51Z</time>
      </trkpt>
      <trkpt lat="47.69569" lon="3.69018">
        <ele>211</ele>
        <time>2019-04-02T12:14:53Z</time>
      </trkpt>
      <trkpt lat="47.69567" lon="3.69017">
        <ele>211</ele>
        <time>2019-04-02T12:14:55Z</time>
      </trkpt>
      <trkpt lat="47.69563" lon="3.69015">
        <ele>211</ele>
        <time>2019-04-02T12:14:57Z</time>
      </trkpt>
      <trkpt lat="47.69558" lon="3.69009">
        <ele>211</ele>
        <time>2019-04-02T12:15:02Z</time>
      </trkpt>
      <trkpt lat="47.69554" lon="3.69006">
        <ele>210</ele>
        <time>2019-04-02T12:15:06Z</time>
      </trkpt>
      <trkpt lat="47.6955" lon="3.69004">
        <ele>209</ele>
        <time>2019-04-02T12:15:09Z</time>
      </trkpt>
      <trkpt lat="47.69545" lon="3.69002">
        <ele>209</ele>
        <time>2019-04-02T12:15:14Z</time>
      </trkpt>
      <trkpt lat="47.69541" lon="3.69">
        <ele>209</ele>
        <time>2019-04-02T12:15:18Z</time>
      </trkpt>
      <trkpt lat="47.69537" lon="3.68998">
        <ele>210</ele>
        <time>2019-04-02T12:15:21Z</time>
      </trkpt>
      <trkpt lat="47.69534" lon="3.68997">
        <ele>210</ele>
        <time>2019-04-02T12:15:23Z</time>
      </trkpt>
      <trkpt lat="47.69532" lon="3.68995">
        <ele>210</ele>
        <time>2019-04-02T12:15:25Z</time>
      </trkpt>
      <trkpt lat="47.69528" lon="3.68993">
        <ele>209</ele>
        <time>2019-04-02T12:15:28Z</time>
      </trkpt>
      <trkpt lat="47.69526" lon="3.68992">
        <ele>208</ele>
        <time>2019-04-02T12:15:30Z</time>
      </trkpt>
      <trkpt lat="47.69521" lon="3.68992">
        <ele>209</ele>
        <time>2019-04-02T12:15:34Z</time>
      </trkpt>
      <trkpt lat="47.69515" lon="3.68989">
        <ele>208</ele>
        <time>2019-04-02T12:15:38Z</time>
      </trkpt>
      <trkpt lat="47.69509" lon="3.68988">
        <ele>208</ele>
        <time>2019-04-02T12:15:42Z</time>
      </trkpt>
      <trkpt lat="47.69506" lon="3.68987">
        <ele>208</ele>
        <time>2019-04-02T12:15:44Z</time>
      </trkpt>
      <trkpt lat="47.69502" lon="3.68986">
        <ele>207</ele>
        <time>2019-04-02T12:15:47Z</time>
      </trkpt>
      <trkpt lat="47.69497" lon="3.68986">
        <ele>206</ele>
        <time>2019-04-02T12:15:51Z</time>
      </trkpt>
      <trkpt lat="47.69492" lon="3.68985">
        <ele>206</ele>
        <time>2019-04-02T12:15:55Z</time>
      </trkpt>
      <trkpt lat="47.69487" lon="3.68983">
        <ele>206</ele>
        <time>2019-04-02T12:15:58Z</time>
      </trkpt>
      <trkpt lat="47.69484" lon="3.68983">
        <ele>206</ele>
        <time>2019-04-02T12:16:00Z</time>
      </trkpt>
      <trkpt lat="47.69479" lon="3.68983">
        <ele>207</ele>
        <time>2019-04-02T12:16:04Z</time>
      </trkpt>
      <trkpt lat="47.69474" lon="3.68982">
        <ele>206</ele>
        <time>2019-04-02T12:16:08Z</time>
      </trkpt>
      <trkpt lat="47.6947" lon="3.68981">
        <ele>206</ele>
        <time>2019-04-02T12:16:10Z</time>
      </trkpt>
      <trkpt lat="47.69466" lon="3.6898">
        <ele>206</ele>
        <time>2019-04-02T12:16:13Z</time>
      </trkpt>
      <trkpt lat="47.6946" lon="3.68981">
        <ele>207</ele>
        <time>2019-04-02T12:16:17Z</time>
      </trkpt>
      <trkpt lat="47.69457" lon="3.68981">
        <ele>207</ele>
        <time>2019-04-02T12:16:19Z</time>
      </trkpt>
      <trkpt lat="47.69454" lon="3.68982">
        <ele>208</ele>
        <time>2019-04-02T12:16:21Z</time>
      </trkpt>
      <trkpt lat="47.69448" lon="3.68981">
        <ele>206</ele>
        <time>2019-04-02T12:16:25Z</time>
      </trkpt>
      <trkpt lat="47.69444" lon="3.68981">
        <ele>206</ele>
        <time>2019-04-02T12:16:28Z</time>
      </trkpt>
      <trkpt lat="47.69441" lon="3.68981">
        <ele>206</ele>
        <time>2019-04-02T12:16:30Z</time>
      </trkpt>
      <trkpt lat="47.69438" lon="3.68981">
        <ele>205</ele>
        <time>2019-04-02T12:16:32Z</time>
      </trkpt>
      <trkpt lat="47.69435" lon="3.6898">
        <ele>206</ele>
        <time>2019-04-02T12:16:35Z</time>
      </trkpt>
      <trkpt lat="47.69431" lon="3.68977">
        <ele>205</ele>
        <time>2019-04-02T12:16:39Z</time>
      </trkpt>
      <trkpt lat="47.69426" lon="3.68976">
        <ele>204</ele>
        <time>2019-04-02T12:16:43Z</time>
      </trkpt>
      <trkpt lat="47.69421" lon="3.68976">
        <ele>204</ele>
        <time>2019-04-02T12:16:46Z</time>
      </trkpt>
      <trkpt lat="47.69417" lon="3.68976">
        <ele>204</ele>
        <time>2019-04-02T12:16:49Z</time>
      </trkpt>
      <trkpt lat="47.69412" lon="3.68977">
        <ele>202</ele>
        <time>2019-04-02T12:16:53Z</time>
      </trkpt>
      <trkpt lat="47.69409" lon="3.68977">
        <ele>201</ele>
        <time>2019-04-02T12:16:55Z</time>
      </trkpt>
      <trkpt lat="47.69406" lon="3.68977">
        <ele>201</ele>
        <time>2019-04-02T12:16:57Z</time>
      </trkpt>
      <trkpt lat="47.69401" lon="3.68977">
        <ele>201</ele>
        <time>2019-04-02T12:17:00Z</time>
      </trkpt>
      <trkpt lat="47.69395" lon="3.68978">
        <ele>200</ele>
        <time>2019-04-02T12:17:04Z</time>
      </trkpt>
      <trkpt lat="47.6939" lon="3.68977">
        <ele>198</ele>
        <time>2019-04-02T12:17:08Z</time>
      </trkpt>
      <trkpt lat="47.69385" lon="3.68977">
        <ele>199</ele>
        <time>2019-04-02T12:17:11Z</time>
      </trkpt>
      <trkpt lat="47.69382" lon="3.68977">
        <ele>198</ele>
        <time>2019-04-02T12:17:13Z</time>
      </trkpt>
      <trkpt lat="47.6938" lon="3.68977">
        <ele>198</ele>
        <time>2019-04-02T12:17:15Z</time>
      </trkpt>
      <trkpt lat="47.69377" lon="3.68977">
        <ele>197</ele>
        <time>2019-04-02T12:17:17Z</time>
      </trkpt>
      <trkpt lat="47.69372" lon="3.68976">
        <ele>196</ele>
        <time>2019-04-02T12:17:21Z</time>
      </trkpt>
      <trkpt lat="47.69368" lon="3.68977">
        <ele>196</ele>
        <time>2019-04-02T12:17:24Z</time>
      </trkpt>
      <trkpt lat="47.69365" lon="3.68977">
        <ele>195</ele>
        <time>2019-04-02T12:17:26Z</time>
      </trkpt>
      <trkpt lat="47.6936" lon="3.68979">
        <ele>195</ele>
        <time>2019-04-02T12:17:30Z</time>
      </trkpt>
      <trkpt lat="47.69355" lon="3.68982">
        <ele>195</ele>
        <time>2019-04-02T12:17:34Z</time>
      </trkpt>
      <trkpt lat="47.69352" lon="3.68983">
        <ele>195</ele>
        <time>2019-04-02T12:17:36Z</time>
      </trkpt>
      <trkpt lat="47.69347" lon="3.68982">
        <ele>194</ele>
        <time>2019-04-02T12:17:39Z</time>
      </trkpt>
      <trkpt lat="47.69343" lon="3.68982">
        <ele>195</ele>
        <time>2019-04-02T12:17:42Z</time>
      </trkpt>
      <trkpt lat="47.69337" lon="3.68984">
        <ele>195</ele>
        <time>2019-04-02T12:17:46Z</time>
      </trkpt>
      <trkpt lat="47.69332" lon="3.68984">
        <ele>195</ele>
        <time>2019-04-02T12:17:50Z</time>
      </trkpt>
      <trkpt lat="47.69327" lon="3.68982">
        <ele>195</ele>
        <time>2019-04-02T12:17:54Z</time>
      </trkpt>
      <trkpt lat="47.69321" lon="3.68982">
        <ele>195</ele>
        <time>2019-04-02T12:17:58Z</time>
      </trkpt>
      <trkpt lat="47.69316" lon="3.68984">
        <ele>196</ele>
        <time>2019-04-02T12:18:01Z</time>
      </trkpt>
      <trkpt lat="47.69313" lon="3.68985">
        <ele>196</ele>
        <time>2019-04-02T12:18:04Z</time>
      </trkpt>
      <trkpt lat="47.69311" lon="3.68986">
        <ele>197</ele>
        <time>2019-04-02T12:18:06Z</time>
      </trkpt>
      <trkpt lat="47.69306" lon="3.68989">
        <ele>196</ele>
        <time>2019-04-02T12:18:10Z</time>
      </trkpt>
      <trkpt lat="47.69302" lon="3.6899">
        <ele>195</ele>
        <time>2019-04-02T12:18:14Z</time>
      </trkpt>
      <trkpt lat="47.69299" lon="3.68991">
        <ele>197</ele>
        <time>2019-04-02T12:18:16Z</time>
      </trkpt>
      <trkpt lat="47.69296" lon="3.68992">
        <ele>198</ele>
        <time>2019-04-02T12:18:18Z</time>
      </trkpt>
      <trkpt lat="47.69291" lon="3.68994">
        <ele>198</ele>
        <time>2019-04-02T12:18:21Z</time>
      </trkpt>
      <trkpt lat="47.69288" lon="3.68996">
        <ele>198</ele>
        <time>2019-04-02T12:18:23Z</time>
      </trkpt>
      <trkpt lat="47.69286" lon="3.68997">
        <ele>198</ele>
        <time>2019-04-02T12:18:25Z</time>
      </trkpt>
      <trkpt lat="47.69283" lon="3.68998">
        <ele>198</ele>
        <time>2019-04-02T12:18:28Z</time>
      </trkpt>
      <trkpt lat="47.69277" lon="3.69">
        <ele>199</ele>
        <time>2019-04-02T12:18:32Z</time>
      </trkpt>
      <trkpt lat="47.69274" lon="3.69001">
        <ele>199</ele>
        <time>2019-04-02T12:18:34Z</time>
      </trkpt>
      <trkpt lat="47.69268" lon="3.69002">
        <ele>199</ele>
        <time>2019-04-02T12:18:38Z</time>
      </trkpt>
      <trkpt lat="47.69265" lon="3.69002">
        <ele>199</ele>
        <time>2019-04-02T12:18:40Z</time>
      </trkpt>
      <trkpt lat="47.69263" lon="3.69002">
        <ele>200</ele>
        <time>2019-04-02T12:18:42Z</time>
      </trkpt>
      <trkpt lat="47.69258" lon="3.69003">
        <ele>200</ele>
        <time>2019-04-02T12:18:46Z</time>
      </trkpt>
      <trkpt lat="47.69252" lon="3.69004">
        <ele>201</ele>
        <time>2019-04-02T12:18:50Z</time>
      </trkpt>
      <trkpt lat="47.69248" lon="3.69001">
        <ele>201</ele>
        <time>2019-04-02T12:18:55Z</time>
      </trkpt>
      <trkpt lat="47.69242" lon="3.69003">
        <ele>201</ele>
        <time>2019-04-02T12:19:00Z</time>
      </trkpt>
      <trkpt lat="47.69235" lon="3.69006">
        <ele>201</ele>
        <time>2019-04-02T12:19:04Z</time>
      </trkpt>
      <trkpt lat="47.69229" lon="3.69007">
        <ele>201</ele>
        <time>2019-04-02T12:19:08Z</time>
      </trkpt>
      <trkpt lat="47.69227" lon="3.69008">
        <ele>202</ele>
        <time>2019-04-02T12:19:10Z</time>
      </trkpt>
      <trkpt lat="47.69222" lon="3.69009">
        <ele>201</ele>
        <time>2019-04-02T12:19:14Z</time>
      </trkpt>
      <trkpt lat="47.69217" lon="3.69009">
        <ele>202</ele>
        <time>2019-04-02T12:19:17Z</time>
      </trkpt>
      <trkpt lat="47.69214" lon="3.69009">
        <ele>202</ele>
        <time>2019-04-02T12:19:19Z</time>
      </trkpt>
      <trkpt lat="47.69209" lon="3.69011">
        <ele>202</ele>
        <time>2019-04-02T12:19:23Z</time>
      </trkpt>
      <trkpt lat="47.69204" lon="3.69015">
        <ele>201</ele>
        <time>2019-04-02T12:19:28Z</time>
      </trkpt>
      <trkpt lat="47.69199" lon="3.69015">
        <ele>201</ele>
        <time>2019-04-02T12:19:31Z</time>
      </trkpt>
      <trkpt lat="47.69196" lon="3.69015">
        <ele>200</ele>
        <time>2019-04-02T12:19:33Z</time>
      </trkpt>
      <trkpt lat="47.6919" lon="3.69015">
        <ele>201</ele>
        <time>2019-04-02T12:19:37Z</time>
      </trkpt>
      <trkpt lat="47.69184" lon="3.69018">
        <ele>201</ele>
        <time>2019-04-02T12:19:41Z</time>
      </trkpt>
      <trkpt lat="47.69178" lon="3.69019">
        <ele>201</ele>
        <time>2019-04-02T12:19:44Z</time>
      </trkpt>
      <trkpt lat="47.69173" lon="3.69017">
        <ele>201</ele>
        <time>2019-04-02T12:19:48Z</time>
      </trkpt>
      <trkpt lat="47.69168" lon="3.69017">
        <ele>200</ele>
        <time>2019-04-02T12:19:53Z</time>
      </trkpt>
      <trkpt lat="47.69163" lon="3.69019">
        <ele>200</ele>
        <time>2019-04-02T12:19:56Z</time>
      </trkpt>
      <trkpt lat="47.69158" lon="3.69018">
        <ele>199</ele>
        <time>2019-04-02T12:20:01Z</time>
      </trkpt>
      <trkpt lat="47.69154" lon="3.69019">
        <ele>198</ele>
        <time>2019-04-02T12:20:05Z</time>
      </trkpt>
      <trkpt lat="47.69148" lon="3.69018">
        <ele>198</ele>
        <time>2019-04-02T12:20:08Z</time>
      </trkpt>
      <trkpt lat="47.69142" lon="3.69016">
        <ele>197</ele>
        <time>2019-04-02T12:20:13Z</time>
      </trkpt>
      <trkpt lat="47.69135" lon="3.69016">
        <ele>196</ele>
        <time>2019-04-02T12:20:18Z</time>
      </trkpt>
      <trkpt lat="47.69132" lon="3.69016">
        <ele>195</ele>
        <time>2019-04-02T12:20:22Z</time>
      </trkpt>
      <trkpt lat="47.69129" lon="3.69016">
        <ele>195</ele>
        <time>2019-04-02T12:20:24Z</time>
      </trkpt>
      <trkpt lat="47.69124" lon="3.69016">
        <ele>195</ele>
        <time>2019-04-02T12:20:27Z</time>
      </trkpt>
      <trkpt lat="47.6912" lon="3.69015">
        <ele>195</ele>
        <time>2019-04-02T12:20:31Z</time>
      </trkpt>
      <trkpt lat="47.69114" lon="3.69015">
        <ele>196</ele>
        <time>2019-04-02T12:20:34Z</time>
      </trkpt>
      <trkpt lat="47.6911" lon="3.69014">
        <ele>196</ele>
        <time>2019-04-02T12:20:38Z</time>
      </trkpt>
      <trkpt lat="47.69103" lon="3.69014">
        <ele>196</ele>
        <time>2019-04-02T12:20:41Z</time>
      </trkpt>
      <trkpt lat="47.69096" lon="3.69014">
        <ele>196</ele>
        <time>2019-04-02T12:20:45Z</time>
      </trkpt>
      <trkpt lat="47.69092" lon="3.69014">
        <ele>196</ele>
        <time>2019-04-02T12:20:48Z</time>
      </trkpt>
      <trkpt lat="47.69086" lon="3.69015">
        <ele>195</ele>
        <time>2019-04-02T12:20:52Z</time>
      </trkpt>
      <trkpt lat="47.69082" lon="3.69015">
        <ele>197</ele>
        <time>2019-04-02T12:20:55Z</time>
      </trkpt>
      <trkpt lat="47.69077" lon="3.69013">
        <ele>197</ele>
        <time>2019-04-02T12:20:59Z</time>
      </trkpt>
      <trkpt lat="47.69074" lon="3.69012">
        <ele>197</ele>
        <time>2019-04-02T12:21:01Z</time>
      </trkpt>
      <trkpt lat="47.69069" lon="3.69013">
        <ele>196</ele>
        <time>2019-04-02T12:21:06Z</time>
      </trkpt>
      <trkpt lat="47.69067" lon="3.69013">
        <ele>196</ele>
        <time>2019-04-02T12:21:08Z</time>
      </trkpt>
      <trkpt lat="47.6906" lon="3.69013">
        <ele>194</ele>
        <time>2019-04-02T12:21:12Z</time>
      </trkpt>
      <trkpt lat="47.69057" lon="3.69012">
        <ele>193</ele>
        <time>2019-04-02T12:21:14Z</time>
      </trkpt>
      <trkpt lat="47.69052" lon="3.69013">
        <ele>194</ele>
        <time>2019-04-02T12:21:18Z</time>
      </trkpt>
      <trkpt lat="47.69047" lon="3.69011">
        <ele>192</ele>
        <time>2019-04-02T12:21:22Z</time>
      </trkpt>
      <trkpt lat="47.69041" lon="3.69009">
        <ele>191</ele>
        <time>2019-04-02T12:21:28Z</time>
      </trkpt>
      <trkpt lat="47.69036" lon="3.69008">
        <ele>191</ele>
        <time>2019-04-02T12:21:32Z</time>
      </trkpt>
      <trkpt lat="47.69031" lon="3.69008">
        <ele>190</ele>
        <time>2019-04-02T12:21:35Z</time>
      </trkpt>
      <trkpt lat="47.69026" lon="3.69007">
        <ele>189</ele>
        <time>2019-04-02T12:21:39Z</time>
      </trkpt>
      <trkpt lat="47.6902" lon="3.69003">
        <ele>189</ele>
        <time>2019-04-02T12:21:43Z</time>
      </trkpt>
      <trkpt lat="47.69017" lon="3.69002">
        <ele>188</ele>
        <time>2019-04-02T12:21:46Z</time>
      </trkpt>
      <trkpt lat="47.69011" lon="3.69001">
        <ele>188</ele>
        <time>2019-04-02T12:21:51Z</time>
      </trkpt>
      <trkpt lat="47.69009" lon="3.69001">
        <ele>188</ele>
        <time>2019-04-02T12:21:53Z</time>
      </trkpt>
      <trkpt lat="47.69006" lon="3.69001">
        <ele>187</ele>
        <time>2019-04-02T12:21:54Z</time>
      </trkpt>
      <trkpt lat="47.69" lon="3.69">
        <ele>187</ele>
        <time>2019-04-02T12:21:59Z</time>
      </trkpt>
      <trkpt lat="47.68997" lon="3.69">
        <ele>187</ele>
        <time>2019-04-02T12:22:02Z</time>
      </trkpt>
      <trkpt lat="47.68995" lon="3.69">
        <ele>186</ele>
        <time>2019-04-02T12:22:04Z</time>
      </trkpt>
      <trkpt lat="47.68991" lon="3.68999">
        <ele>186</ele>
        <time>2019-04-02T12:22:06Z</time>
      </trkpt>
      <trkpt lat="47.68987" lon="3.68998">
        <ele>186</ele>
        <time>2019-04-02T12:22:09Z</time>
      </trkpt>
      <trkpt lat="47.68984" lon="3.68997">
        <ele>186</ele>
        <time>2019-04-02T12:22:12Z</time>
      </trkpt>
      <trkpt lat="47.6898" lon="3.68996">
        <ele>185</ele>
        <time>2019-04-02T12:22:15Z</time>
      </trkpt>
      <trkpt lat="47.68974" lon="3.68996">
        <ele>184</ele>
        <time>2019-04-02T12:22:19Z</time>
      </trkpt>
      <trkpt lat="47.68971" lon="3.68996">
        <ele>184</ele>
        <time>2019-04-02T12:22:21Z</time>
      </trkpt>
      <trkpt lat="47.68967" lon="3.68993">
        <ele>184</ele>
        <time>2019-04-02T12:22:25Z</time>
      </trkpt>
      <trkpt lat="47.68963" lon="3.68991">
        <ele>184</ele>
        <time>2019-04-02T12:22:28Z</time>
      </trkpt>
      <trkpt lat="47.68961" lon="3.6899">
        <ele>184</ele>
        <time>2019-04-02T12:22:30Z</time>
      </trkpt>
      <trkpt lat="47.68957" lon="3.68988">
        <ele>184</ele>
        <time>2019-04-02T12:22:33Z</time>
      </trkpt>
      <trkpt lat="47.68955" lon="3.68987">
        <ele>184</ele>
        <time>2019-04-02T12:22:35Z</time>
      </trkpt>
      <trkpt lat="47.68953" lon="3.68986">
        <ele>183</ele>
        <time>2019-04-02T12:22:37Z</time>
      </trkpt>
      <trkpt lat="47.68948" lon="3.68985">
        <ele>183</ele>
        <time>2019-04-02T12:22:40Z</time>
      </trkpt>
      <trkpt lat="47.68944" lon="3.68982">
        <ele>184</ele>
        <time>2019-04-02T12:22:45Z</time>
      </trkpt>
      <trkpt lat="47.68938" lon="3.68981">
        <ele>183</ele>
        <time>2019-04-02T12:22:49Z</time>
      </trkpt>
      <trkpt lat="47.68935" lon="3.6898">
        <ele>182</ele>
        <time>2019-04-02T12:22:50Z</time>
      </trkpt>
      <trkpt lat="47.68932" lon="3.68979">
        <ele>182</ele>
        <time>2019-04-02T12:22:52Z</time>
      </trkpt>
      <trkpt lat="47.68929" lon="3.68978">
        <ele>182</ele>
        <time>2019-04-02T12:22:54Z</time>
      </trkpt>
      <trkpt lat="47.68925" lon="3.68978">
        <ele>181</ele>
        <time>2019-04-02T12:22:57Z</time>
      </trkpt>
      <trkpt lat="47.6892" lon="3.68977">
        <ele>181</ele>
        <time>2019-04-02T12:23:00Z</time>
      </trkpt>
      <trkpt lat="47.68918" lon="3.68976">
        <ele>180</ele>
        <time>2019-04-02T12:23:02Z</time>
      </trkpt>
      <trkpt lat="47.68915" lon="3.68976">
        <ele>180</ele>
        <time>2019-04-02T12:23:05Z</time>
      </trkpt>
      <trkpt lat="47.68911" lon="3.68975">
        <ele>181</ele>
        <time>2019-04-02T12:23:08Z</time>
      </trkpt>
      <trkpt lat="47.68906" lon="3.68973">
        <ele>181</ele>
        <time>2019-04-02T12:23:10Z</time>
      </trkpt>
      <trkpt lat="47.68903" lon="3.68973">
        <ele>182</ele>
        <time>2019-04-02T12:23:12Z</time>
      </trkpt>
      <trkpt lat="47.689" lon="3.68973">
        <ele>181</ele>
        <time>2019-04-02T12:23:15Z</time>
      </trkpt>
      <trkpt lat="47.68896" lon="3.68972">
        <ele>182</ele>
        <time>2019-04-02T12:23:18Z</time>
      </trkpt>
      <trkpt lat="47.68893" lon="3.68972">
        <ele>181</ele>
        <time>2019-04-02T12:23:19Z</time>
      </trkpt>
      <trkpt lat="47.6889" lon="3.68971">
        <ele>181</ele>
        <time>2019-04-02T12:23:22Z</time>
      </trkpt>
      <trkpt lat="47.68887" lon="3.6897">
        <ele>180</ele>
        <time>2019-04-02T12:23:24Z</time>
      </trkpt>
      <trkpt lat="47.68884" lon="3.6897">
        <ele>179</ele>
        <time>2019-04-02T12:23:27Z</time>
      </trkpt>
      <trkpt lat="47.68881" lon="3.68969">
        <ele>179</ele>
        <time>2019-04-02T12:23:29Z</time>
      </trkpt>
      <trkpt lat="47.68875" lon="3.68969">
        <ele>179</ele>
        <time>2019-04-02T12:23:32Z</time>
      </trkpt>
      <trkpt lat="47.6887" lon="3.68967">
        <ele>178</ele>
        <time>2019-04-02T12:23:36Z</time>
      </trkpt>
      <trkpt lat="47.68868" lon="3.68966">
        <ele>178</ele>
        <time>2019-04-02T12:23:38Z</time>
      </trkpt>
      <trkpt lat="47.68863" lon="3.68966">
        <ele>177</ele>
        <time>2019-04-02T12:23:43Z</time>
      </trkpt>
      <trkpt lat="47.6886" lon="3.68966">
        <ele>177</ele>
        <time>2019-04-02T12:23:45Z</time>
      </trkpt>
      <trkpt lat="47.68855" lon="3.68967">
        <ele>176</ele>
        <time>2019-04-02T12:23:48Z</time>
      </trkpt>
      <trkpt lat="47.68852" lon="3.68967">
        <ele>177</ele>
        <time>2019-04-02T12:23:50Z</time>
      </trkpt>
      <trkpt lat="47.68847" lon="3.68967">
        <ele>178</ele>
        <time>2019-04-02T12:23:54Z</time>
      </trkpt>
      <trkpt lat="47.68842" lon="3.68967">
        <ele>178</ele>
        <time>2019-04-02T12:23:59Z</time>
      </trkpt>
      <trkpt lat="47.68837" lon="3.68968">
        <ele>178</ele>
        <time>2019-04-02T12:24:03Z</time>
      </trkpt>
      <trkpt lat="47.68832" lon="3.6897">
        <ele>178</ele>
        <time>2019-04-02T12:24:07Z</time>
      </trkpt>
      <trkpt lat="47.68827" lon="3.68971">
        <ele>177</ele>
        <time>2019-04-02T12:24:09Z</time>
      </trkpt>
      <trkpt lat="47.68823" lon="3.68972">
        <ele>178</ele>
        <time>2019-04-02T12:24:11Z</time>
      </trkpt>
      <trkpt lat="47.6882" lon="3.68973">
        <ele>178</ele>
        <time>2019-04-02T12:24:13Z</time>
      </trkpt>
      <trkpt lat="47.68817" lon="3.68974">
        <ele>177</ele>
        <time>2019-04-02T12:24:15Z</time>
      </trkpt>
      <trkpt lat="47.68814" lon="3.68975">
        <ele>176</ele>
        <time>2019-04-02T12:24:17Z</time>
      </trkpt>
      <trkpt lat="47.68811" lon="3.68976">
        <ele>176</ele>
        <time>2019-04-02T12:24:20Z</time>
      </trkpt>
      <trkpt lat="47.68808" lon="3.68977">
        <ele>177</ele>
        <time>2019-04-02T12:24:23Z</time>
      </trkpt>
      <trkpt lat="47.68804" lon="3.68978">
        <ele>176</ele>
        <time>2019-04-02T12:24:26Z</time>
      </trkpt>
      <trkpt lat="47.688" lon="3.68979">
        <ele>176</ele>
        <time>2019-04-02T12:24:29Z</time>
      </trkpt>
      <trkpt lat="47.68797" lon="3.68979">
        <ele>177</ele>
        <time>2019-04-02T12:24:31Z</time>
      </trkpt>
      <trkpt lat="47.68792" lon="3.68981">
        <ele>177</ele>
        <time>2019-04-02T12:24:34Z</time>
      </trkpt>
      <trkpt lat="47.68787" lon="3.68982">
        <ele>178</ele>
        <time>2019-04-02T12:24:37Z</time>
      </trkpt>
      <trkpt lat="47.68783" lon="3.68982">
        <ele>178</ele>
        <time>2019-04-02T12:24:40Z</time>
      </trkpt>
      <trkpt lat="47.68781" lon="3.68982">
        <ele>178</ele>
        <time>2019-04-02T12:24:42Z</time>
      </trkpt>
      <trkpt lat="47.68776" lon="3.68986">
        <ele>178</ele>
        <time>2019-04-02T12:24:46Z</time>
      </trkpt>
      <trkpt lat="47.68773" lon="3.68992">
        <ele>179</ele>
        <time>2019-04-02T12:24:50Z</time>
      </trkpt>
      <trkpt lat="47.68768" lon="3.68995">
        <ele>179</ele>
        <time>2019-04-02T12:24:53Z</time>
      </trkpt>
      <trkpt lat="47.68763" lon="3.68998">
        <ele>180</ele>
        <time>2019-04-02T12:24:57Z</time>
      </trkpt>
      <trkpt lat="47.68759" lon="3.69">
        <ele>180</ele>
        <time>2019-04-02T12:25:00Z</time>
      </trkpt>
      <trkpt lat="47.68755" lon="3.69003">
        <ele>179</ele>
        <time>2019-04-02T12:25:03Z</time>
      </trkpt>
      <trkpt lat="47.68752" lon="3.69005">
        <ele>179</ele>
        <time>2019-04-02T12:25:05Z</time>
      </trkpt>
      <trkpt lat="47.68749" lon="3.69007">
        <ele>179</ele>
        <time>2019-04-02T12:25:07Z</time>
      </trkpt>
      <trkpt lat="47.68744" lon="3.69008">
        <ele>178</ele>
        <time>2019-04-02T12:25:10Z</time>
      </trkpt>
      <trkpt lat="47.68739" lon="3.69011">
        <ele>179</ele>
        <time>2019-04-02T12:25:14Z</time>
      </trkpt>
      <trkpt lat="47.68736" lon="3.69013">
        <ele>179</ele>
        <time>2019-04-02T12:25:16Z</time>
      </trkpt>
      <trkpt lat="47.68731" lon="3.69017">
        <ele>180</ele>
        <time>2019-04-02T12:25:20Z</time>
      </trkpt>
      <trkpt lat="47.68728" lon="3.69019">
        <ele>179</ele>
        <time>2019-04-02T12:25:22Z</time>
      </trkpt>
      <trkpt lat="47.68725" lon="3.69021">
        <ele>178</ele>
        <time>2019-04-02T12:25:25Z</time>
      </trkpt>
      <trkpt lat="47.68722" lon="3.69024">
        <ele>177</ele>
        <time>2019-04-02T12:25:28Z</time>
      </trkpt>
      <trkpt lat="47.6872" lon="3.69025">
        <ele>177</ele>
        <time>2019-04-02T12:25:30Z</time>
      </trkpt>
      <trkpt lat="47.68715" lon="3.69028">
        <ele>177</ele>
        <time>2019-04-02T12:25:33Z</time>
      </trkpt>
      <trkpt lat="47.6871" lon="3.6903">
        <ele>177</ele>
        <time>2019-04-02T12:25:38Z</time>
      </trkpt>
      <trkpt lat="47.68705" lon="3.6903">
        <ele>176</ele>
        <time>2019-04-02T12:25:41Z</time>
      </trkpt>
      <trkpt lat="47.687" lon="3.69032">
        <ele>176</ele>
        <time>2019-04-02T12:25:45Z</time>
      </trkpt>
      <trkpt lat="47.68695" lon="3.69032">
        <ele>175</ele>
        <time>2019-04-02T12:25:48Z</time>
      </trkpt>
      <trkpt lat="47.6869" lon="3.69031">
        <ele>177</ele>
        <time>2019-04-02T12:25:52Z</time>
      </trkpt>
      <trkpt lat="47.68686" lon="3.69031">
        <ele>178</ele>
        <time>2019-04-02T12:25:55Z</time>
      </trkpt>
      <trkpt lat="47.68682" lon="3.6903">
        <ele>178</ele>
        <time>2019-04-02T12:25:58Z</time>
      </trkpt>
      <trkpt lat="47.68677" lon="3.6903">
        <ele>178</ele>
        <time>2019-04-02T12:26:02Z</time>
      </trkpt>
      <trkpt lat="47.68674" lon="3.6903">
        <ele>178</ele>
        <time>2019-04-02T12:26:04Z</time>
      </trkpt>
      <trkpt lat="47.68669" lon="3.6903">
        <ele>177</ele>
        <time>2019-04-02T12:26:08Z</time>
      </trkpt>
      <trkpt lat="47.68665" lon="3.69031">
        <ele>178</ele>
        <time>2019-04-02T12:26:11Z</time>
      </trkpt>
      <trkpt lat="47.68661" lon="3.69031">
        <ele>178</ele>
        <time>2019-04-02T12:26:15Z</time>
      </trkpt>
      <trkpt lat="47.68658" lon="3.69031">
        <ele>180</ele>
        <time>2019-04-02T12:26:17Z</time>
      </trkpt>
      <trkpt lat="47.68653" lon="3.69029">
        <ele>180</ele>
        <time>2019-04-02T12:26:23Z</time>
      </trkpt>
      <trkpt lat="47.6865" lon="3.69028">
        <ele>181</ele>
        <time>2019-04-02T12:26:26Z</time>
      </trkpt>
      <trkpt lat="47.68643" lon="3.69025">
        <ele>179</ele>
        <time>2019-04-02T12:26:32Z</time>
      </trkpt>
      <trkpt lat="47.68637" lon="3.69026">
        <ele>179</ele>
        <time>2019-04-02T12:26:37Z</time>
      </trkpt>
      <trkpt lat="47.68635" lon="3.69027">
        <ele>178</ele>
        <time>2019-04-02T12:26:39Z</time>
      </trkpt>
      <trkpt lat="47.6863" lon="3.69029">
        <ele>177</ele>
        <time>2019-04-02T12:26:43Z</time>
      </trkpt>
      <trkpt lat="47.68624" lon="3.69028">
        <ele>177</ele>
        <time>2019-04-02T12:26:47Z</time>
      </trkpt>
      <trkpt lat="47.68619" lon="3.69027">
        <ele>179</ele>
        <time>2019-04-02T12:26:51Z</time>
      </trkpt>
      <trkpt lat="47.68614" lon="3.69029">
        <ele>180</ele>
        <time>2019-04-02T12:26:55Z</time>
      </trkpt>
      <trkpt lat="47.68606" lon="3.69028">
        <ele>181</ele>
        <time>2019-04-02T12:26:59Z</time>
      </trkpt>
      <trkpt lat="47.68601" lon="3.69029">
        <ele>179</ele>
        <time>2019-04-02T12:27:04Z</time>
      </trkpt>
      <trkpt lat="47.68595" lon="3.69032">
        <ele>180</ele>
        <time>2019-04-02T12:27:09Z</time>
      </trkpt>
      <trkpt lat="47.68593" lon="3.69033">
        <ele>180</ele>
        <time>2019-04-02T12:27:11Z</time>
      </trkpt>
      <trkpt lat="47.68588" lon="3.69036">
        <ele>180</ele>
        <time>2019-04-02T12:27:15Z</time>
      </trkpt>
      <trkpt lat="47.68583" lon="3.69037">
        <ele>179</ele>
        <time>2019-04-02T12:27:19Z</time>
      </trkpt>
      <trkpt lat="47.68579" lon="3.69039">
        <ele>178</ele>
        <time>2019-04-02T12:27:22Z</time>
      </trkpt>
      <trkpt lat="47.68575" lon="3.69042">
        <ele>177</ele>
        <time>2019-04-02T12:27:25Z</time>
      </trkpt>
      <trkpt lat="47.6857" lon="3.69043">
        <ele>178</ele>
        <time>2019-04-02T12:27:28Z</time>
      </trkpt>
      <trkpt lat="47.68563" lon="3.69047">
        <ele>177</ele>
        <time>2019-04-02T12:27:34Z</time>
      </trkpt>
      <trkpt lat="47.6856" lon="3.69048">
        <ele>175</ele>
        <time>2019-04-02T12:27:37Z</time>
      </trkpt>
      <trkpt lat="47.68555" lon="3.69052">
        <ele>174</ele>
        <time>2019-04-02T12:27:41Z</time>
      </trkpt>
      <trkpt lat="47.68552" lon="3.69054">
        <ele>174</ele>
        <time>2019-04-02T12:27:43Z</time>
      </trkpt>
      <trkpt lat="47.68549" lon="3.69055">
        <ele>174</ele>
        <time>2019-04-02T12:27:45Z</time>
      </trkpt>
      <trkpt lat="47.68544" lon="3.6906">
        <ele>173</ele>
        <time>2019-04-02T12:27:49Z</time>
      </trkpt>
      <trkpt lat="47.68539" lon="3.69063">
        <ele>173</ele>
        <time>2019-04-02T12:27:51Z</time>
      </trkpt>
      <trkpt lat="47.68536" lon="3.69065">
        <ele>173</ele>
        <time>2019-04-02T12:27:53Z</time>
      </trkpt>
      <trkpt lat="47.68533" lon="3.69067">
        <ele>173</ele>
        <time>2019-04-02T12:27:56Z</time>
      </trkpt>
      <trkpt lat="47.68531" lon="3.69069">
        <ele>174</ele>
        <time>2019-04-02T12:27:58Z</time>
      </trkpt>
      <trkpt lat="47.68527" lon="3.69071">
        <ele>174</ele>
        <time>2019-04-02T12:28:02Z</time>
      </trkpt>
      <trkpt lat="47.68523" lon="3.69073">
        <ele>173</ele>
        <time>2019-04-02T12:28:05Z</time>
      </trkpt>
      <trkpt lat="47.6852" lon="3.69074">
        <ele>173</ele>
        <time>2019-04-02T12:28:07Z</time>
      </trkpt>
      <trkpt lat="47.68517" lon="3.69076">
        <ele>174</ele>
        <time>2019-04-02T12:28:09Z</time>
      </trkpt>
      <trkpt lat="47.68512" lon="3.6908">
        <ele>175</ele>
        <time>2019-04-02T12:28:13Z</time>
      </trkpt>
      <trkpt lat="47.68509" lon="3.69082">
        <ele>175</ele>
        <time>2019-04-02T12:28:15Z</time>
      </trkpt>
      <trkpt lat="47.68505" lon="3.69085">
        <ele>175</ele>
        <time>2019-04-02T12:28:19Z</time>
      </trkpt>
      <trkpt lat="47.68503" lon="3.69087">
        <ele>176</ele>
        <time>2019-04-02T12:28:22Z</time>
      </trkpt>
      <trkpt lat="47.685" lon="3.69089">
        <ele>176</ele>
        <time>2019-04-02T12:28:24Z</time>
      </trkpt>
      <trkpt lat="47.68497" lon="3.6909">
        <ele>176</ele>
        <time>2019-04-02T12:28:26Z</time>
      </trkpt>
      <trkpt lat="47.68494" lon="3.69092">
        <ele>176</ele>
        <time>2019-04-02T12:28:28Z</time>
      </trkpt>
      <trkpt lat="47.68491" lon="3.69097">
        <ele>177</ele>
        <time>2019-04-02T12:28:32Z</time>
      </trkpt>
      <trkpt lat="47.68487" lon="3.69101">
        <ele>177</ele>
        <time>2019-04-02T12:28:36Z</time>
      </trkpt>
      <trkpt lat="47.68484" lon="3.69103">
        <ele>175</ele>
        <time>2019-04-02T12:28:41Z</time>
      </trkpt>
      <trkpt lat="47.68483" lon="3.69103">
        <ele>174</ele>
        <time>2019-04-02T12:28:49Z</time>
      </trkpt>
      <trkpt lat="47.68478" lon="3.69103">
        <ele>175</ele>
        <time>2019-04-02T12:28:54Z</time>
      </trkpt>
      <trkpt lat="47.68472" lon="3.691">
        <ele>176</ele>
        <time>2019-04-02T12:28:59Z</time>
      </trkpt>
      <trkpt lat="47.68467" lon="3.69103">
        <ele>177</ele>
        <time>2019-04-02T12:29:02Z</time>
      </trkpt>
      <trkpt lat="47.68465" lon="3.69105">
        <ele>177</ele>
        <time>2019-04-02T12:29:09Z</time>
      </trkpt>
      <trkpt lat="47.68466" lon="3.69105">
        <ele>175</ele>
        <time>2019-04-02T12:29:17Z</time>
      </trkpt>
      <trkpt lat="47.68462" lon="3.69084">
        <ele>172</ele>
        <time>2019-04-02T12:36:38Z</time>
      </trkpt>
      <trkpt lat="47.6846" lon="3.69078">
        <ele>172</ele>
        <time>2019-04-02T12:36:44Z</time>
      </trkpt>
      <trkpt lat="47.68457" lon="3.69072">
        <ele>170</ele>
        <time>2019-04-02T12:36:49Z</time>
      </trkpt>
      <trkpt lat="47.68452" lon="3.69068">
        <ele>172</ele>
        <time>2019-04-02T12:36:54Z</time>
      </trkpt>
      <trkpt lat="47.68449" lon="3.69065">
        <ele>173</ele>
        <time>2019-04-02T12:36:58Z</time>
      </trkpt>
      <trkpt lat="47.68444" lon="3.69063">
        <ele>174</ele>
        <time>2019-04-02T12:37:03Z</time>
      </trkpt>
      <trkpt lat="47.68441" lon="3.69065">
        <ele>175</ele>
        <time>2019-04-02T12:37:12Z</time>
      </trkpt>
      <trkpt lat="47.68436" lon="3.69066">
        <ele>175</ele>
        <time>2019-04-02T12:37:16Z</time>
      </trkpt>
      <trkpt lat="47.68431" lon="3.69067">
        <ele>177</ele>
        <time>2019-04-02T12:37:21Z</time>
      </trkpt>
      <trkpt lat="47.68427" lon="3.69072">
        <ele>179</ele>
        <time>2019-04-02T12:37:28Z</time>
      </trkpt>
      <trkpt lat="47.68423" lon="3.69076">
        <ele>181</ele>
        <time>2019-04-02T12:37:37Z</time>
      </trkpt>
      <trkpt lat="47.68418" lon="3.69078">
        <ele>182</ele>
        <time>2019-04-02T12:37:41Z</time>
      </trkpt>
      <trkpt lat="47.68413" lon="3.69083">
        <ele>181</ele>
        <time>2019-04-02T12:37:45Z</time>
      </trkpt>
      <trkpt lat="47.68407" lon="3.69084">
        <ele>178</ele>
        <time>2019-04-02T12:37:59Z</time>
      </trkpt>
      <trkpt lat="47.68403" lon="3.69085">
        <ele>178</ele>
        <time>2019-04-02T12:38:03Z</time>
      </trkpt>
      <trkpt lat="47.68398" lon="3.69088">
        <ele>177</ele>
        <time>2019-04-02T12:38:07Z</time>
      </trkpt>
      <trkpt lat="47.68395" lon="3.6909">
        <ele>176</ele>
        <time>2019-04-02T12:38:10Z</time>
      </trkpt>
      <trkpt lat="47.6839" lon="3.69091">
        <ele>176</ele>
        <time>2019-04-02T12:38:15Z</time>
      </trkpt>
      <trkpt lat="47.68388" lon="3.69092">
        <ele>175</ele>
        <time>2019-04-02T12:38:17Z</time>
      </trkpt>
      <trkpt lat="47.68383" lon="3.69095">
        <ele>172</ele>
        <time>2019-04-02T12:38:24Z</time>
      </trkpt>
      <trkpt lat="47.68378" lon="3.69096">
        <ele>173</ele>
        <time>2019-04-02T12:38:27Z</time>
      </trkpt>
      <trkpt lat="47.68375" lon="3.69097">
        <ele>172</ele>
        <time>2019-04-02T12:38:31Z</time>
      </trkpt>
      <trkpt lat="47.68367" lon="3.69097">
        <ele>171</ele>
        <time>2019-04-02T12:38:39Z</time>
      </trkpt>
      <trkpt lat="47.68361" lon="3.69094">
        <ele>172</ele>
        <time>2019-04-02T12:38:44Z</time>
      </trkpt>
      <trkpt lat="47.68356" lon="3.69094">
        <ele>171</ele>
        <time>2019-04-02T12:38:48Z</time>
      </trkpt>
      <trkpt lat="47.68351" lon="3.69095">
        <ele>171</ele>
        <time>2019-04-02T12:38:52Z</time>
      </trkpt>
      <trkpt lat="47.68346" lon="3.69095">
        <ele>171</ele>
        <time>2019-04-02T12:38:57Z</time>
      </trkpt>
      <trkpt lat="47.68341" lon="3.69092">
        <ele>171</ele>
        <time>2019-04-02T12:39:00Z</time>
      </trkpt>
      <trkpt lat="47.68337" lon="3.6909">
        <ele>170</ele>
        <time>2019-04-02T12:39:03Z</time>
      </trkpt>
      <trkpt lat="47.6833" lon="3.69086">
        <ele>169</ele>
        <time>2019-04-02T12:39:09Z</time>
      </trkpt>
      <trkpt lat="47.68325" lon="3.69085">
        <ele>168</ele>
        <time>2019-04-02T12:39:13Z</time>
      </trkpt>
      <trkpt lat="47.6832" lon="3.69083">
        <ele>168</ele>
        <time>2019-04-02T12:39:16Z</time>
      </trkpt>
      <trkpt lat="47.68314" lon="3.69083">
        <ele>167</ele>
        <time>2019-04-02T12:39:20Z</time>
      </trkpt>
      <trkpt lat="47.68312" lon="3.69082">
        <ele>167</ele>
        <time>2019-04-02T12:39:22Z</time>
      </trkpt>
      <trkpt lat="47.68309" lon="3.69082">
        <ele>167</ele>
        <time>2019-04-02T12:39:26Z</time>
      </trkpt>
      <trkpt lat="47.68304" lon="3.69082">
        <ele>167</ele>
        <time>2019-04-02T12:39:29Z</time>
      </trkpt>
      <trkpt lat="47.683" lon="3.69077">
        <ele>165</ele>
        <time>2019-04-02T12:39:34Z</time>
      </trkpt>
      <trkpt lat="47.68293" lon="3.69072">
        <ele>168</ele>
        <time>2019-04-02T12:39:43Z</time>
      </trkpt>
      <trkpt lat="47.68288" lon="3.6907">
        <ele>169</ele>
        <time>2019-04-02T12:39:48Z</time>
      </trkpt>
      <trkpt lat="47.68286" lon="3.6907">
        <ele>168</ele>
        <time>2019-04-02T12:39:51Z</time>
      </trkpt>
      <trkpt lat="47.68282" lon="3.69068">
        <ele>167</ele>
        <time>2019-04-02T12:39:55Z</time>
      </trkpt>
      <trkpt lat="47.6828" lon="3.69071">
        <ele>163</ele>
        <time>2019-04-02T12:40:03Z</time>
      </trkpt>
      <trkpt lat="47.68284" lon="3.69056">
        <ele>172</ele>
        <time>2019-04-02T12:42:26Z</time>
      </trkpt>
      <trkpt lat="47.68282" lon="3.69049">
        <ele>170</ele>
        <time>2019-04-02T12:42:30Z</time>
      </trkpt>
      <trkpt lat="47.6828" lon="3.69041">
        <ele>170</ele>
        <time>2019-04-02T12:42:36Z</time>
      </trkpt>
      <trkpt lat="47.68278" lon="3.69034">
        <ele>169</ele>
        <time>2019-04-02T12:42:42Z</time>
      </trkpt>
      <trkpt lat="47.68276" lon="3.69027">
        <ele>169</ele>
        <time>2019-04-02T12:42:45Z</time>
      </trkpt>
      <trkpt lat="47.68274" lon="3.6902">
        <ele>169</ele>
        <time>2019-04-02T12:42:49Z</time>
      </trkpt>
      <trkpt lat="47.68273" lon="3.69015">
        <ele>168</ele>
        <time>2019-04-02T12:42:53Z</time>
      </trkpt>
      <trkpt lat="47.68272" lon="3.69008">
        <ele>167</ele>
        <time>2019-04-02T12:42:57Z</time>
      </trkpt>
      <trkpt lat="47.6827" lon="3.69001">
        <ele>165</ele>
        <time>2019-04-02T12:43:02Z</time>
      </trkpt>
      <trkpt lat="47.68269" lon="3.68997">
        <ele>165</ele>
        <time>2019-04-02T12:43:05Z</time>
      </trkpt>
      <trkpt lat="47.68269" lon="3.6899">
        <ele>166</ele>
        <time>2019-04-02T12:43:10Z</time>
      </trkpt>
      <trkpt lat="47.68269" lon="3.68982">
        <ele>164</ele>
        <time>2019-04-02T12:43:14Z</time>
      </trkpt>
      <trkpt lat="47.68267" lon="3.68974">
        <ele>161</ele>
        <time>2019-04-02T12:43:18Z</time>
      </trkpt>
      <trkpt lat="47.68267" lon="3.68966">
        <ele>161</ele>
        <time>2019-04-02T12:43:24Z</time>
      </trkpt>
      <trkpt lat="47.68267" lon="3.68962">
        <ele>162</ele>
        <time>2019-04-02T12:43:27Z</time>
      </trkpt>
      <trkpt lat="47.68262" lon="3.68959">
        <ele>160</ele>
        <time>2019-04-02T12:43:33Z</time>
      </trkpt>
      <trkpt lat="47.68256" lon="3.6896">
        <ele>159</ele>
        <time>2019-04-02T12:43:38Z</time>
      </trkpt>
      <trkpt lat="47.6825" lon="3.68958">
        <ele>161</ele>
        <time>2019-04-02T12:43:42Z</time>
      </trkpt>
      <trkpt lat="47.68248" lon="3.68956">
        <ele>161</ele>
        <time>2019-04-02T12:43:44Z</time>
      </trkpt>
      <trkpt lat="47.68243" lon="3.68956">
        <ele>162</ele>
        <time>2019-04-02T12:43:48Z</time>
      </trkpt>
      <trkpt lat="47.6824" lon="3.68955">
        <ele>162</ele>
        <time>2019-04-02T12:43:50Z</time>
      </trkpt>
      <trkpt lat="47.68234" lon="3.68955">
        <ele>164</ele>
        <time>2019-04-02T12:43:55Z</time>
      </trkpt>
      <trkpt lat="47.68227" lon="3.68952">
        <ele>166</ele>
        <time>2019-04-02T12:44:02Z</time>
      </trkpt>
      <trkpt lat="47.68222" lon="3.68951">
        <ele>167</ele>
        <time>2019-04-02T12:44:05Z</time>
      </trkpt>
      <trkpt lat="47.68218" lon="3.68948">
        <ele>169</ele>
        <time>2019-04-02T12:44:10Z</time>
      </trkpt>
      <trkpt lat="47.68212" lon="3.68948">
        <ele>171</ele>
        <time>2019-04-02T12:44:15Z</time>
      </trkpt>
      <trkpt lat="47.68208" lon="3.68951">
        <ele>171</ele>
        <time>2019-04-02T12:44:22Z</time>
      </trkpt>
      <trkpt lat="47.68203" lon="3.68951">
        <ele>173</ele>
        <time>2019-04-02T12:44:26Z</time>
      </trkpt>
      <trkpt lat="47.68197" lon="3.68952">
        <ele>172</ele>
        <time>2019-04-02T12:44:28Z</time>
      </trkpt>
      <trkpt lat="47.68191" lon="3.68954">
        <ele>171</ele>
        <time>2019-04-02T12:44:32Z</time>
      </trkpt>
      <trkpt lat="47.68183" lon="3.68954">
        <ele>171</ele>
        <time>2019-04-02T12:44:38Z</time>
      </trkpt>
      <trkpt lat="47.68179" lon="3.68951">
        <ele>172</ele>
        <time>2019-04-02T12:44:42Z</time>
      </trkpt>
      <trkpt lat="47.68173" lon="3.68951">
        <ele>171</ele>
        <time>2019-04-02T12:44:47Z</time>
      </trkpt>
      <trkpt lat="47.68169" lon="3.68948">
        <ele>169</ele>
        <time>2019-04-02T12:44:54Z</time>
      </trkpt>
      <trkpt lat="47.68163" lon="3.68948">
        <ele>165</ele>
        <time>2019-04-02T12:45:02Z</time>
      </trkpt>
      <trkpt lat="47.68158" lon="3.68945">
        <ele>163</ele>
        <time>2019-04-02T12:45:06Z</time>
      </trkpt>
      <trkpt lat="47.68155" lon="3.68943">
        <ele>162</ele>
        <time>2019-04-02T12:45:08Z</time>
      </trkpt>
      <trkpt lat="47.6815" lon="3.68942">
        <ele>161</ele>
        <time>2019-04-02T12:45:14Z</time>
      </trkpt>
      <trkpt lat="47.68146" lon="3.68941">
        <ele>160</ele>
        <time>2019-04-02T12:45:17Z</time>
      </trkpt>
      <trkpt lat="47.68141" lon="3.68943">
        <ele>158</ele>
        <time>2019-04-02T12:45:20Z</time>
      </trkpt>
      <trkpt lat="47.68137" lon="3.68947">
        <ele>157</ele>
        <time>2019-04-02T12:45:23Z</time>
      </trkpt>
      <trkpt lat="47.68133" lon="3.68949">
        <ele>156</ele>
        <time>2019-04-02T12:45:26Z</time>
      </trkpt>
      <trkpt lat="47.6813" lon="3.68951">
        <ele>158</ele>
        <time>2019-04-02T12:45:29Z</time>
      </trkpt>
      <trkpt lat="47.68126" lon="3.68956">
        <ele>160</ele>
        <time>2019-04-02T12:45:33Z</time>
      </trkpt>
      <trkpt lat="47.68123" lon="3.68961">
        <ele>160</ele>
        <time>2019-04-02T12:45:37Z</time>
      </trkpt>
      <trkpt lat="47.6812" lon="3.68967">
        <ele>162</ele>
        <time>2019-04-02T12:45:40Z</time>
      </trkpt>
      <trkpt lat="47.68116" lon="3.68976">
        <ele>163</ele>
        <time>2019-04-02T12:45:46Z</time>
      </trkpt>
      <trkpt lat="47.68113" lon="3.68984">
        <ele>164</ele>
        <time>2019-04-02T12:45:50Z</time>
      </trkpt>
      <trkpt lat="47.68111" lon="3.68991">
        <ele>163</ele>
        <time>2019-04-02T12:45:54Z</time>
      </trkpt>
      <trkpt lat="47.68107" lon="3.68996">
        <ele>163</ele>
        <time>2019-04-02T12:45:59Z</time>
      </trkpt>
      <trkpt lat="47.68104" lon="3.68999">
        <ele>163</ele>
        <time>2019-04-02T12:46:02Z</time>
      </trkpt>
      <trkpt lat="47.68102" lon="3.69005">
        <ele>162</ele>
        <time>2019-04-02T12:46:06Z</time>
      </trkpt>
      <trkpt lat="47.68102" lon="3.69012">
        <ele>156</ele>
        <time>2019-04-02T12:46:12Z</time>
      </trkpt>
      <trkpt lat="47.68101" lon="3.6902">
        <ele>157</ele>
        <time>2019-04-02T12:46:18Z</time>
      </trkpt>
      <trkpt lat="47.68101" lon="3.69024">
        <ele>157</ele>
        <time>2019-04-02T12:46:20Z</time>
      </trkpt>
      <trkpt lat="47.68099" lon="3.69031">
        <ele>157</ele>
        <time>2019-04-02T12:46:26Z</time>
      </trkpt>
      <trkpt lat="47.68096" lon="3.69038">
        <ele>156</ele>
        <time>2019-04-02T12:46:31Z</time>
      </trkpt>
      <trkpt lat="47.68094" lon="3.69041">
        <ele>157</ele>
        <time>2019-04-02T12:46:33Z</time>
      </trkpt>
      <trkpt lat="47.68092" lon="3.69044">
        <ele>156</ele>
        <time>2019-04-02T12:46:36Z</time>
      </trkpt>
      <trkpt lat="47.6809" lon="3.69051">
        <ele>156</ele>
        <time>2019-04-02T12:46:41Z</time>
      </trkpt>
      <trkpt lat="47.68088" lon="3.69054">
        <ele>156</ele>
        <time>2019-04-02T12:46:43Z</time>
      </trkpt>
      <trkpt lat="47.68087" lon="3.69059">
        <ele>157</ele>
        <time>2019-04-02T12:46:46Z</time>
      </trkpt>
      <trkpt lat="47.68084" lon="3.69064">
        <ele>157</ele>
        <time>2019-04-02T12:46:50Z</time>
      </trkpt>
      <trkpt lat="47.68082" lon="3.69067">
        <ele>157</ele>
        <time>2019-04-02T12:46:52Z</time>
      </trkpt>
      <trkpt lat="47.68078" lon="3.69071">
        <ele>157</ele>
        <time>2019-04-02T12:46:58Z</time>
      </trkpt>
      <trkpt lat="47.68078" lon="3.69071">
        <ele>157</ele>
        <time>2019-04-02T12:47:07Z</time>
      </trkpt>
      <trkpt lat="47.68076" lon="3.69079">
        <ele>159</ele>
        <time>2019-04-02T12:48:38Z</time>
      </trkpt>
      <trkpt lat="47.68075" lon="3.69087">
        <ele>158</ele>
        <time>2019-04-02T12:48:43Z</time>
      </trkpt>
      <trkpt lat="47.68074" lon="3.69091">
        <ele>158</ele>
        <time>2019-04-02T12:48:45Z</time>
      </trkpt>
      <trkpt lat="47.68076" lon="3.691">
        <ele>158</ele>
        <time>2019-04-02T12:48:51Z</time>
      </trkpt>
      <trkpt lat="47.68077" lon="3.69109">
        <ele>160</ele>
        <time>2019-04-02T12:48:56Z</time>
      </trkpt>
      <trkpt lat="47.68076" lon="3.69116">
        <ele>160</ele>
        <time>2019-04-02T12:49:01Z</time>
      </trkpt>
      <trkpt lat="47.68071" lon="3.69122">
        <ele>160</ele>
        <time>2019-04-02T12:49:06Z</time>
      </trkpt>
      <trkpt lat="47.68066" lon="3.69124">
        <ele>162</ele>
        <time>2019-04-02T12:49:11Z</time>
      </trkpt>
      <trkpt lat="47.68061" lon="3.69125">
        <ele>162</ele>
        <time>2019-04-02T12:49:15Z</time>
      </trkpt>
      <trkpt lat="47.68057" lon="3.6913">
        <ele>162</ele>
        <time>2019-04-02T12:49:20Z</time>
      </trkpt>
      <trkpt lat="47.68055" lon="3.69132">
        <ele>162</ele>
        <time>2019-04-02T12:49:22Z</time>
      </trkpt>
      <trkpt lat="47.68051" lon="3.69138">
        <ele>162</ele>
        <time>2019-04-02T12:49:25Z</time>
      </trkpt>
      <trkpt lat="47.68049" lon="3.69143">
        <ele>162</ele>
        <time>2019-04-02T12:49:28Z</time>
      </trkpt>
      <trkpt lat="47.68044" lon="3.6915">
        <ele>160</ele>
        <time>2019-04-02T12:49:33Z</time>
      </trkpt>
      <trkpt lat="47.68041" lon="3.69157">
        <ele>159</ele>
        <time>2019-04-02T12:49:37Z</time>
      </trkpt>
      <trkpt lat="47.68037" lon="3.69163">
        <ele>160</ele>
        <time>2019-04-02T12:49:40Z</time>
      </trkpt>
      <trkpt lat="47.68034" lon="3.69167">
        <ele>160</ele>
        <time>2019-04-02T12:49:43Z</time>
      </trkpt>
      <trkpt lat="47.68031" lon="3.69171">
        <ele>160</ele>
        <time>2019-04-02T12:49:47Z</time>
      </trkpt>
      <trkpt lat="47.68028" lon="3.69175">
        <ele>160</ele>
        <time>2019-04-02T12:49:50Z</time>
      </trkpt>
      <trkpt lat="47.68025" lon="3.6918">
        <ele>161</ele>
        <time>2019-04-02T12:49:53Z</time>
      </trkpt>
      <trkpt lat="47.68021" lon="3.69186">
        <ele>161</ele>
        <time>2019-04-02T12:49:59Z</time>
      </trkpt>
      <trkpt lat="47.68016" lon="3.6919">
        <ele>161</ele>
        <time>2019-04-02T12:50:03Z</time>
      </trkpt>
      <trkpt lat="47.68013" lon="3.69195">
        <ele>161</ele>
        <time>2019-04-02T12:50:07Z</time>
      </trkpt>
      <trkpt lat="47.68011" lon="3.69198">
        <ele>161</ele>
        <time>2019-04-02T12:50:09Z</time>
      </trkpt>
      <trkpt lat="47.6801" lon="3.69202">
        <ele>160</ele>
        <time>2019-04-02T12:50:11Z</time>
      </trkpt>
      <trkpt lat="47.68008" lon="3.6921">
        <ele>162</ele>
        <time>2019-04-02T12:50:15Z</time>
      </trkpt>
      <trkpt lat="47.68006" lon="3.69216">
        <ele>162</ele>
        <time>2019-04-02T12:50:19Z</time>
      </trkpt>
      <trkpt lat="47.68004" lon="3.69219">
        <ele>162</ele>
        <time>2019-04-02T12:50:21Z</time>
      </trkpt>
      <trkpt lat="47.68003" lon="3.69224">
        <ele>164</ele>
        <time>2019-04-02T12:50:25Z</time>
      </trkpt>
      <trkpt lat="47.68002" lon="3.69226">
        <ele>163</ele>
        <time>2019-04-02T12:50:28Z</time>
      </trkpt>
      <trkpt lat="47.67997" lon="3.69234">
        <ele>164</ele>
        <time>2019-04-02T12:50:33Z</time>
      </trkpt>
      <trkpt lat="47.67996" lon="3.69238">
        <ele>165</ele>
        <time>2019-04-02T12:50:35Z</time>
      </trkpt>
      <trkpt lat="47.67993" lon="3.69244">
        <ele>166</ele>
        <time>2019-04-02T12:50:39Z</time>
      </trkpt>
      <trkpt lat="47.67991" lon="3.6925">
        <ele>167</ele>
        <time>2019-04-02T12:50:42Z</time>
      </trkpt>
      <trkpt lat="47.6799" lon="3.69257">
        <ele>169</ele>
        <time>2019-04-02T12:50:49Z</time>
      </trkpt>
      <trkpt lat="47.67987" lon="3.69263">
        <ele>171</ele>
        <time>2019-04-02T12:50:53Z</time>
      </trkpt>
      <trkpt lat="47.67982" lon="3.69268">
        <ele>171</ele>
        <time>2019-04-02T12:50:59Z</time>
      </trkpt>
      <trkpt lat="47.67976" lon="3.69272">
        <ele>173</ele>
        <time>2019-04-02T12:51:05Z</time>
      </trkpt>
      <trkpt lat="47.67972" lon="3.69275">
        <ele>174</ele>
        <time>2019-04-02T12:51:08Z</time>
      </trkpt>
      <trkpt lat="47.67967" lon="3.69277">
        <ele>175</ele>
        <time>2019-04-02T12:51:13Z</time>
      </trkpt>
      <trkpt lat="47.67962" lon="3.69281">
        <ele>174</ele>
        <time>2019-04-02T12:51:17Z</time>
      </trkpt>
      <trkpt lat="47.67959" lon="3.69284">
        <ele>174</ele>
        <time>2019-04-02T12:51:20Z</time>
      </trkpt>
      <trkpt lat="47.67954" lon="3.69286">
        <ele>173</ele>
        <time>2019-04-02T12:51:22Z</time>
      </trkpt>
      <trkpt lat="47.67951" lon="3.69287">
        <ele>174</ele>
        <time>2019-04-02T12:51:25Z</time>
      </trkpt>
      <trkpt lat="47.67949" lon="3.69289">
        <ele>174</ele>
        <time>2019-04-02T12:51:28Z</time>
      </trkpt>
      <trkpt lat="47.67943" lon="3.69291">
        <ele>174</ele>
        <time>2019-04-02T12:51:32Z</time>
      </trkpt>
      <trkpt lat="47.6794" lon="3.69297">
        <ele>173</ele>
        <time>2019-04-02T12:51:38Z</time>
      </trkpt>
      <trkpt lat="47.67934" lon="3.69298">
        <ele>173</ele>
        <time>2019-04-02T12:51:42Z</time>
      </trkpt>
      <trkpt lat="47.67928" lon="3.69298">
        <ele>172</ele>
        <time>2019-04-02T12:51:46Z</time>
      </trkpt>
      <trkpt lat="47.67925" lon="3.69298">
        <ele>173</ele>
        <time>2019-04-02T12:51:48Z</time>
      </trkpt>
      <trkpt lat="47.67923" lon="3.69298">
        <ele>173</ele>
        <time>2019-04-02T12:51:50Z</time>
      </trkpt>
      <trkpt lat="47.67918" lon="3.693">
        <ele>174</ele>
        <time>2019-04-02T12:51:53Z</time>
      </trkpt>
      <trkpt lat="47.67915" lon="3.69301">
        <ele>175</ele>
        <time>2019-04-02T12:51:56Z</time>
      </trkpt>
      <trkpt lat="47.67912" lon="3.69303">
        <ele>175</ele>
        <time>2019-04-02T12:51:59Z</time>
      </trkpt>
      <trkpt lat="47.67907" lon="3.69304">
        <ele>176</ele>
        <time>2019-04-02T12:52:03Z</time>
      </trkpt>
      <trkpt lat="47.67904" lon="3.69306">
        <ele>175</ele>
        <time>2019-04-02T12:52:07Z</time>
      </trkpt>
      <trkpt lat="47.67899" lon="3.6931">
        <ele>176</ele>
        <time>2019-04-02T12:52:12Z</time>
      </trkpt>
      <trkpt lat="47.67894" lon="3.69314">
        <ele>177</ele>
        <time>2019-04-02T12:52:16Z</time>
      </trkpt>
      <trkpt lat="47.67891" lon="3.6932">
        <ele>178</ele>
        <time>2019-04-02T12:52:19Z</time>
      </trkpt>
      <trkpt lat="47.6789" lon="3.69326">
        <ele>178</ele>
        <time>2019-04-02T12:52:23Z</time>
      </trkpt>
      <trkpt lat="47.67888" lon="3.69333">
        <ele>178</ele>
        <time>2019-04-02T12:52:26Z</time>
      </trkpt>
      <trkpt lat="47.67887" lon="3.69336">
        <ele>178</ele>
        <time>2019-04-02T12:52:28Z</time>
      </trkpt>
      <trkpt lat="47.67886" lon="3.69341">
        <ele>178</ele>
        <time>2019-04-02T12:52:31Z</time>
      </trkpt>
      <trkpt lat="47.67884" lon="3.69349">
        <ele>179</ele>
        <time>2019-04-02T12:52:35Z</time>
      </trkpt>
      <trkpt lat="47.67881" lon="3.69356">
        <ele>179</ele>
        <time>2019-04-02T12:52:40Z</time>
      </trkpt>
      <trkpt lat="47.67878" lon="3.69362">
        <ele>180</ele>
        <time>2019-04-02T12:52:44Z</time>
      </trkpt>
      <trkpt lat="47.67874" lon="3.69367">
        <ele>182</ele>
        <time>2019-04-02T12:52:50Z</time>
      </trkpt>
      <trkpt lat="47.67871" lon="3.69373">
        <ele>183</ele>
        <time>2019-04-02T12:52:58Z</time>
      </trkpt>
      <trkpt lat="47.67868" lon="3.69378">
        <ele>185</ele>
        <time>2019-04-02T12:53:03Z</time>
      </trkpt>
      <trkpt lat="47.67866" lon="3.69382">
        <ele>187</ele>
        <time>2019-04-02T12:53:07Z</time>
      </trkpt>
      <trkpt lat="47.67865" lon="3.69385">
        <ele>187</ele>
        <time>2019-04-02T12:53:09Z</time>
      </trkpt>
      <trkpt lat="47.67861" lon="3.69389">
        <ele>189</ele>
        <time>2019-04-02T12:53:13Z</time>
      </trkpt>
      <trkpt lat="47.67859" lon="3.69392">
        <ele>189</ele>
        <time>2019-04-02T12:53:15Z</time>
      </trkpt>
      <trkpt lat="47.67857" lon="3.69395">
        <ele>189</ele>
        <time>2019-04-02T12:53:18Z</time>
      </trkpt>
      <trkpt lat="47.67853" lon="3.694">
        <ele>190</ele>
        <time>2019-04-02T12:53:23Z</time>
      </trkpt>
      <trkpt lat="47.67851" lon="3.69403">
        <ele>189</ele>
        <time>2019-04-02T12:53:26Z</time>
      </trkpt>
      <trkpt lat="47.67848" lon="3.69411">
        <ele>191</ele>
        <time>2019-04-02T12:53:31Z</time>
      </trkpt>
      <trkpt lat="47.67845" lon="3.69417">
        <ele>191</ele>
        <time>2019-04-02T12:53:35Z</time>
      </trkpt>
      <trkpt lat="47.67841" lon="3.69426">
        <ele>194</ele>
        <time>2019-04-02T12:53:40Z</time>
      </trkpt>
      <trkpt lat="47.67837" lon="3.6943">
        <ele>193</ele>
        <time>2019-04-02T12:53:44Z</time>
      </trkpt>
      <trkpt lat="47.67835" lon="3.69437">
        <ele>196</ele>
        <time>2019-04-02T12:53:50Z</time>
      </trkpt>
      <trkpt lat="47.67834" lon="3.69444">
        <ele>197</ele>
        <time>2019-04-02T12:53:54Z</time>
      </trkpt>
      <trkpt lat="47.67833" lon="3.69448">
        <ele>196</ele>
        <time>2019-04-02T12:53:56Z</time>
      </trkpt>
      <trkpt lat="47.67831" lon="3.69455">
        <ele>198</ele>
        <time>2019-04-02T12:54:01Z</time>
      </trkpt>
      <trkpt lat="47.67829" lon="3.69463">
        <ele>200</ele>
        <time>2019-04-02T12:54:05Z</time>
      </trkpt>
      <trkpt lat="47.67829" lon="3.69467">
        <ele>201</ele>
        <time>2019-04-02T12:54:07Z</time>
      </trkpt>
      <trkpt lat="47.67828" lon="3.69472">
        <ele>201</ele>
        <time>2019-04-02T12:54:12Z</time>
      </trkpt>
      <trkpt lat="47.67827" lon="3.69478">
        <ele>201</ele>
        <time>2019-04-02T12:54:16Z</time>
      </trkpt>
      <trkpt lat="47.67823" lon="3.69486">
        <ele>202</ele>
        <time>2019-04-02T12:54:22Z</time>
      </trkpt>
      <trkpt lat="47.67822" lon="3.69493">
        <ele>202</ele>
        <time>2019-04-02T12:54:28Z</time>
      </trkpt>
      <trkpt lat="47.67821" lon="3.69497">
        <ele>202</ele>
        <time>2019-04-02T12:54:31Z</time>
      </trkpt>
      <trkpt lat="47.67821" lon="3.69501">
        <ele>202</ele>
        <time>2019-04-02T12:54:33Z</time>
      </trkpt>
      <trkpt lat="47.6782" lon="3.69507">
        <ele>201</ele>
        <time>2019-04-02T12:54:36Z</time>
      </trkpt>
      <trkpt lat="47.67819" lon="3.69511">
        <ele>201</ele>
        <time>2019-04-02T12:54:38Z</time>
      </trkpt>
      <trkpt lat="47.67817" lon="3.69517">
        <ele>202</ele>
        <time>2019-04-02T12:54:42Z</time>
      </trkpt>
      <trkpt lat="47.67815" lon="3.69523">
        <ele>201</ele>
        <time>2019-04-02T12:54:46Z</time>
      </trkpt>
      <trkpt lat="47.67814" lon="3.69526">
        <ele>200</ele>
        <time>2019-04-02T12:54:48Z</time>
      </trkpt>
      <trkpt lat="47.67813" lon="3.69534">
        <ele>201</ele>
        <time>2019-04-02T12:54:53Z</time>
      </trkpt>
      <trkpt lat="47.67811" lon="3.69543">
        <ele>204</ele>
        <time>2019-04-02T12:55:01Z</time>
      </trkpt>
      <trkpt lat="47.67809" lon="3.69551">
        <ele>208</ele>
        <time>2019-04-02T12:55:07Z</time>
      </trkpt>
      <trkpt lat="47.67808" lon="3.69555">
        <ele>209</ele>
        <time>2019-04-02T12:55:11Z</time>
      </trkpt>
      <trkpt lat="47.67805" lon="3.69564">
        <ele>211</ele>
        <time>2019-04-02T12:55:16Z</time>
      </trkpt>
      <trkpt lat="47.67803" lon="3.69571">
        <ele>212</ele>
        <time>2019-04-02T12:55:21Z</time>
      </trkpt>
      <trkpt lat="47.67802" lon="3.69579">
        <ele>214</ele>
        <time>2019-04-02T12:55:28Z</time>
      </trkpt>
      <trkpt lat="47.67803" lon="3.69587">
        <ele>216</ele>
        <time>2019-04-02T12:55:34Z</time>
      </trkpt>
      <trkpt lat="47.67801" lon="3.69593">
        <ele>217</ele>
        <time>2019-04-02T12:55:38Z</time>
      </trkpt>
      <trkpt lat="47.678" lon="3.69597">
        <ele>218</ele>
        <time>2019-04-02T12:55:40Z</time>
      </trkpt>
      <trkpt lat="47.67799" lon="3.69602">
        <ele>219</ele>
        <time>2019-04-02T12:55:43Z</time>
      </trkpt>
      <trkpt lat="47.67797" lon="3.69609">
        <ele>220</ele>
        <time>2019-04-02T12:55:49Z</time>
      </trkpt>
      <trkpt lat="47.67796" lon="3.69615">
        <ele>221</ele>
        <time>2019-04-02T12:55:53Z</time>
      </trkpt>
      <trkpt lat="47.67794" lon="3.69621">
        <ele>222</ele>
        <time>2019-04-02T12:55:57Z</time>
      </trkpt>
      <trkpt lat="47.67793" lon="3.69627">
        <ele>222</ele>
        <time>2019-04-02T12:55:59Z</time>
      </trkpt>
      <trkpt lat="47.67791" lon="3.69634">
        <ele>223</ele>
        <time>2019-04-02T12:56:06Z</time>
      </trkpt>
      <trkpt lat="47.67787" lon="3.69638">
        <ele>224</ele>
        <time>2019-04-02T12:56:11Z</time>
      </trkpt>
      <trkpt lat="47.67782" lon="3.6964">
        <ele>226</ele>
        <time>2019-04-02T12:56:20Z</time>
      </trkpt>
      <trkpt lat="47.67778" lon="3.69644">
        <ele>228</ele>
        <time>2019-04-02T12:56:26Z</time>
      </trkpt>
      <trkpt lat="47.67772" lon="3.69647">
        <ele>230</ele>
        <time>2019-04-02T12:56:34Z</time>
      </trkpt>
      <trkpt lat="47.67766" lon="3.69648">
        <ele>230</ele>
        <time>2019-04-02T12:56:40Z</time>
      </trkpt>
      <trkpt lat="47.67763" lon="3.69649">
        <ele>232</ele>
        <time>2019-04-02T12:56:44Z</time>
      </trkpt>
      <trkpt lat="47.67757" lon="3.69651">
        <ele>234</ele>
        <time>2019-04-02T12:56:52Z</time>
      </trkpt>
      <trkpt lat="47.67753" lon="3.69649">
        <ele>233</ele>
        <time>2019-04-02T12:56:56Z</time>
      </trkpt>
      <trkpt lat="47.67747" lon="3.69648">
        <ele>232</ele>
        <time>2019-04-02T12:57:01Z</time>
      </trkpt>
      <trkpt lat="47.67742" lon="3.69648">
        <ele>231</ele>
        <time>2019-04-02T12:57:05Z</time>
      </trkpt>
      <trkpt lat="47.67738" lon="3.69653">
        <ele>234</ele>
        <time>2019-04-02T12:57:13Z</time>
      </trkpt>
      <trkpt lat="47.67733" lon="3.69655">
        <ele>235</ele>
        <time>2019-04-02T12:57:18Z</time>
      </trkpt>
      <trkpt lat="47.67728" lon="3.69658">
        <ele>236</ele>
        <time>2019-04-02T12:57:21Z</time>
      </trkpt>
      <trkpt lat="47.67722" lon="3.69658">
        <ele>236</ele>
        <time>2019-04-02T12:57:24Z</time>
      </trkpt>
      <trkpt lat="47.67716" lon="3.69661">
        <ele>238</ele>
        <time>2019-04-02T12:57:30Z</time>
      </trkpt>
      <trkpt lat="47.67712" lon="3.69665">
        <ele>240</ele>
        <time>2019-04-02T12:57:37Z</time>
      </trkpt>
      <trkpt lat="47.67706" lon="3.69665">
        <ele>241</ele>
        <time>2019-04-02T12:57:41Z</time>
      </trkpt>
      <trkpt lat="47.67703" lon="3.69665">
        <ele>241</ele>
        <time>2019-04-02T12:57:43Z</time>
      </trkpt>
      <trkpt lat="47.67697" lon="3.69669">
        <ele>243</ele>
        <time>2019-04-02T12:57:48Z</time>
      </trkpt>
      <trkpt lat="47.67693" lon="3.6967">
        <ele>241</ele>
        <time>2019-04-02T12:57:51Z</time>
      </trkpt>
      <trkpt lat="47.67687" lon="3.69675">
        <ele>242</ele>
        <time>2019-04-02T12:57:56Z</time>
      </trkpt>
      <trkpt lat="47.67684" lon="3.69677">
        <ele>242</ele>
        <time>2019-04-02T12:57:58Z</time>
      </trkpt>
      <trkpt lat="47.67681" lon="3.69684">
        <ele>243</ele>
        <time>2019-04-02T12:58:02Z</time>
      </trkpt>
      <trkpt lat="47.6768" lon="3.69687">
        <ele>244</ele>
        <time>2019-04-02T12:58:04Z</time>
      </trkpt>
      <trkpt lat="47.67675" lon="3.69692">
        <ele>246</ele>
        <time>2019-04-02T12:58:09Z</time>
      </trkpt>
      <trkpt lat="47.67671" lon="3.69696">
        <ele>245</ele>
        <time>2019-04-02T12:58:14Z</time>
      </trkpt>
      <trkpt lat="47.67664" lon="3.69697">
        <ele>244</ele>
        <time>2019-04-02T12:58:20Z</time>
      </trkpt>
      <trkpt lat="47.67661" lon="3.69698">
        <ele>245</ele>
        <time>2019-04-02T12:58:22Z</time>
      </trkpt>
      <trkpt lat="47.67656" lon="3.69697">
        <ele>244</ele>
        <time>2019-04-02T12:58:26Z</time>
      </trkpt>
      <trkpt lat="47.67651" lon="3.69698">
        <ele>244</ele>
        <time>2019-04-02T12:58:31Z</time>
      </trkpt>
      <trkpt lat="47.67648" lon="3.69698">
        <ele>244</ele>
        <time>2019-04-02T12:58:34Z</time>
      </trkpt>
      <trkpt lat="47.67645" lon="3.69698">
        <ele>245</ele>
        <time>2019-04-02T12:58:37Z</time>
      </trkpt>
      <trkpt lat="47.67641" lon="3.69698">
        <ele>244</ele>
        <time>2019-04-02T12:58:42Z</time>
      </trkpt>
      <trkpt lat="47.67636" lon="3.69697">
        <ele>245</ele>
        <time>2019-04-02T12:58:47Z</time>
      </trkpt>
      <trkpt lat="47.67633" lon="3.69696">
        <ele>244</ele>
        <time>2019-04-02T12:58:49Z</time>
      </trkpt>
      <trkpt lat="47.67629" lon="3.69696">
        <ele>244</ele>
        <time>2019-04-02T12:58:52Z</time>
      </trkpt>
      <trkpt lat="47.67621" lon="3.697">
        <ele>243</ele>
        <time>2019-04-02T12:58:56Z</time>
      </trkpt>
      <trkpt lat="47.67617" lon="3.69702">
        <ele>241</ele>
        <time>2019-04-02T12:58:58Z</time>
      </trkpt>
      <trkpt lat="47.67613" lon="3.69705">
        <ele>241</ele>
        <time>2019-04-02T12:59:01Z</time>
      </trkpt>
      <trkpt lat="47.6761" lon="3.69707">
        <ele>242</ele>
        <time>2019-04-02T12:59:03Z</time>
      </trkpt>
      <trkpt lat="47.67607" lon="3.69713">
        <ele>242</ele>
        <time>2019-04-02T12:59:06Z</time>
      </trkpt>
      <trkpt lat="47.67604" lon="3.6972">
        <ele>243</ele>
        <time>2019-04-02T12:59:09Z</time>
      </trkpt>
      <trkpt lat="47.67603" lon="3.69724">
        <ele>241</ele>
        <time>2019-04-02T12:59:11Z</time>
      </trkpt>
      <trkpt lat="47.67603" lon="3.69731">
        <ele>240</ele>
        <time>2019-04-02T12:59:14Z</time>
      </trkpt>
      <trkpt lat="47.67604" lon="3.69739">
        <ele>240</ele>
        <time>2019-04-02T12:59:17Z</time>
      </trkpt>
      <trkpt lat="47.67604" lon="3.69747">
        <ele>240</ele>
        <time>2019-04-02T12:59:22Z</time>
      </trkpt>
      <trkpt lat="47.67605" lon="3.69754">
        <ele>242</ele>
        <time>2019-04-02T12:59:25Z</time>
      </trkpt>
      <trkpt lat="47.67607" lon="3.69761">
        <ele>242</ele>
        <time>2019-04-02T12:59:30Z</time>
      </trkpt>
      <trkpt lat="47.67608" lon="3.69765">
        <ele>242</ele>
        <time>2019-04-02T12:59:33Z</time>
      </trkpt>
      <trkpt lat="47.6761" lon="3.69776">
        <ele>242</ele>
        <time>2019-04-02T12:59:38Z</time>
      </trkpt>
      <trkpt lat="47.6761" lon="3.69779">
        <ele>242</ele>
        <time>2019-04-02T12:59:40Z</time>
      </trkpt>
      <trkpt lat="47.67611" lon="3.69786">
        <ele>242</ele>
        <time>2019-04-02T12:59:44Z</time>
      </trkpt>
      <trkpt lat="47.67614" lon="3.69793">
        <ele>242</ele>
        <time>2019-04-02T12:59:49Z</time>
      </trkpt>
      <trkpt lat="47.67614" lon="3.69793">
        <ele>242</ele>
        <time>2019-04-02T12:59:57Z</time>
      </trkpt>
      <trkpt lat="47.67614" lon="3.69793">
        <ele>242</ele>
        <time>2019-04-02T12:59:58Z</time>
      </trkpt>
      <trkpt lat="47.67617" lon="3.69808">
        <ele>240</ele>
        <time>2019-04-02T13:04:47Z</time>
      </trkpt>
      <trkpt lat="47.67612" lon="3.69814">
        <ele>241</ele>
        <time>2019-04-02T13:04:53Z</time>
      </trkpt>
      <trkpt lat="47.67608" lon="3.69818">
        <ele>242</ele>
        <time>2019-04-02T13:04:58Z</time>
      </trkpt>
      <trkpt lat="47.67604" lon="3.69823">
        <ele>241</ele>
        <time>2019-04-02T13:05:01Z</time>
      </trkpt>
      <trkpt lat="47.676" lon="3.6983">
        <ele>243</ele>
        <time>2019-04-02T13:05:06Z</time>
      </trkpt>
      <trkpt lat="47.67596" lon="3.69835">
        <ele>243</ele>
        <time>2019-04-02T13:05:11Z</time>
      </trkpt>
      <trkpt lat="47.67593" lon="3.69841">
        <ele>243</ele>
        <time>2019-04-02T13:05:15Z</time>
      </trkpt>
      <trkpt lat="47.6759" lon="3.69846">
        <ele>244</ele>
        <time>2019-04-02T13:05:18Z</time>
      </trkpt>
      <trkpt lat="47.67586" lon="3.69851">
        <ele>244</ele>
        <time>2019-04-02T13:05:22Z</time>
      </trkpt>
      <trkpt lat="47.67584" lon="3.69854">
        <ele>244</ele>
        <time>2019-04-02T13:05:24Z</time>
      </trkpt>
      <trkpt lat="47.67582" lon="3.6986">
        <ele>244</ele>
        <time>2019-04-02T13:05:29Z</time>
      </trkpt>
      <trkpt lat="47.6758" lon="3.69864">
        <ele>244</ele>
        <time>2019-04-02T13:05:31Z</time>
      </trkpt>
      <trkpt lat="47.67577" lon="3.69872">
        <ele>244</ele>
        <time>2019-04-02T13:05:37Z</time>
      </trkpt>
      <trkpt lat="47.67574" lon="3.69877">
        <ele>242</ele>
        <time>2019-04-02T13:05:42Z</time>
      </trkpt>
      <trkpt lat="47.6757" lon="3.69881">
        <ele>242</ele>
        <time>2019-04-02T13:05:46Z</time>
      </trkpt>
      <trkpt lat="47.67566" lon="3.69886">
        <ele>242</ele>
        <time>2019-04-02T13:05:48Z</time>
      </trkpt>
      <trkpt lat="47.67563" lon="3.69889">
        <ele>241</ele>
        <time>2019-04-02T13:05:51Z</time>
      </trkpt>
      <trkpt lat="47.67559" lon="3.69894">
        <ele>241</ele>
        <time>2019-04-02T13:05:55Z</time>
      </trkpt>
      <trkpt lat="47.67558" lon="3.69897">
        <ele>241</ele>
        <time>2019-04-02T13:05:58Z</time>
      </trkpt>
      <trkpt lat="47.67556" lon="3.699">
        <ele>242</ele>
        <time>2019-04-02T13:06:00Z</time>
      </trkpt>
      <trkpt lat="47.67552" lon="3.69904">
        <ele>241</ele>
        <time>2019-04-02T13:06:02Z</time>
      </trkpt>
      <trkpt lat="47.67548" lon="3.69909">
        <ele>241</ele>
        <time>2019-04-02T13:06:07Z</time>
      </trkpt>
      <trkpt lat="47.67544" lon="3.69913">
        <ele>240</ele>
        <time>2019-04-02T13:06:11Z</time>
      </trkpt>
      <trkpt lat="47.6754" lon="3.69918">
        <ele>240</ele>
        <time>2019-04-02T13:06:14Z</time>
      </trkpt>
      <trkpt lat="47.67538" lon="3.69921">
        <ele>240</ele>
        <time>2019-04-02T13:06:16Z</time>
      </trkpt>
      <trkpt lat="47.67537" lon="3.69923">
        <ele>241</ele>
        <time>2019-04-02T13:06:18Z</time>
      </trkpt>
      <trkpt lat="47.67534" lon="3.69928">
        <ele>240</ele>
        <time>2019-04-02T13:06:22Z</time>
      </trkpt>
      <trkpt lat="47.67531" lon="3.69931">
        <ele>240</ele>
        <time>2019-04-02T13:06:24Z</time>
      </trkpt>
      <trkpt lat="47.67529" lon="3.69934">
        <ele>240</ele>
        <time>2019-04-02T13:06:26Z</time>
      </trkpt>
      <trkpt lat="47.67524" lon="3.69938">
        <ele>239</ele>
        <time>2019-04-02T13:06:30Z</time>
      </trkpt>
      <trkpt lat="47.67521" lon="3.69942">
        <ele>239</ele>
        <time>2019-04-02T13:06:34Z</time>
      </trkpt>
      <trkpt lat="47.67518" lon="3.69946">
        <ele>238</ele>
        <time>2019-04-02T13:06:36Z</time>
      </trkpt>
      <trkpt lat="47.67516" lon="3.69949">
        <ele>239</ele>
        <time>2019-04-02T13:06:39Z</time>
      </trkpt>
      <trkpt lat="47.67514" lon="3.69952">
        <ele>239</ele>
        <time>2019-04-02T13:06:40Z</time>
      </trkpt>
      <trkpt lat="47.67513" lon="3.69955">
        <ele>240</ele>
        <time>2019-04-02T13:06:42Z</time>
      </trkpt>
      <trkpt lat="47.67511" lon="3.69958">
        <ele>240</ele>
        <time>2019-04-02T13:06:45Z</time>
      </trkpt>
      <trkpt lat="47.67508" lon="3.69962">
        <ele>240</ele>
        <time>2019-04-02T13:06:49Z</time>
      </trkpt>
      <trkpt lat="47.67505" lon="3.69967">
        <ele>241</ele>
        <time>2019-04-02T13:06:53Z</time>
      </trkpt>
      <trkpt lat="47.67503" lon="3.69969">
        <ele>240</ele>
        <time>2019-04-02T13:06:55Z</time>
      </trkpt>
      <trkpt lat="47.67498" lon="3.69974">
        <ele>239</ele>
        <time>2019-04-02T13:06:59Z</time>
      </trkpt>
      <trkpt lat="47.67495" lon="3.69979">
        <ele>240</ele>
        <time>2019-04-02T13:07:03Z</time>
      </trkpt>
      <trkpt lat="47.67491" lon="3.69983">
        <ele>238</ele>
        <time>2019-04-02T13:07:06Z</time>
      </trkpt>
      <trkpt lat="47.67489" lon="3.69985">
        <ele>238</ele>
        <time>2019-04-02T13:07:08Z</time>
      </trkpt>
      <trkpt lat="47.67486" lon="3.69991">
        <ele>239</ele>
        <time>2019-04-02T13:07:12Z</time>
      </trkpt>
      <trkpt lat="47.67482" lon="3.69994">
        <ele>238</ele>
        <time>2019-04-02T13:07:16Z</time>
      </trkpt>
      <trkpt lat="47.67476" lon="3.69999">
        <ele>238</ele>
        <time>2019-04-02T13:07:20Z</time>
      </trkpt>
      <trkpt lat="47.67473" lon="3.70005">
        <ele>238</ele>
        <time>2019-04-02T13:07:24Z</time>
      </trkpt>
      <trkpt lat="47.6747" lon="3.7001">
        <ele>239</ele>
        <time>2019-04-02T13:07:26Z</time>
      </trkpt>
      <trkpt lat="47.67466" lon="3.70014">
        <ele>240</ele>
        <time>2019-04-02T13:07:31Z</time>
      </trkpt>
      <trkpt lat="47.67463" lon="3.70017">
        <ele>240</ele>
        <time>2019-04-02T13:07:34Z</time>
      </trkpt>
      <trkpt lat="47.67458" lon="3.70022">
        <ele>240</ele>
        <time>2019-04-02T13:07:37Z</time>
      </trkpt>
      <trkpt lat="47.67455" lon="3.70025">
        <ele>240</ele>
        <time>2019-04-02T13:07:40Z</time>
      </trkpt>
      <trkpt lat="47.67453" lon="3.70027">
        <ele>241</ele>
        <time>2019-04-02T13:07:42Z</time>
      </trkpt>
      <trkpt lat="47.67451" lon="3.7003">
        <ele>241</ele>
        <time>2019-04-02T13:07:44Z</time>
      </trkpt>
      <trkpt lat="47.67447" lon="3.70033">
        <ele>241</ele>
        <time>2019-04-02T13:07:47Z</time>
      </trkpt>
      <trkpt lat="47.67443" lon="3.70039">
        <ele>241</ele>
        <time>2019-04-02T13:07:53Z</time>
      </trkpt>
      <trkpt lat="47.67441" lon="3.70043">
        <ele>241</ele>
        <time>2019-04-02T13:07:56Z</time>
      </trkpt>
      <trkpt lat="47.67436" lon="3.70048">
        <ele>242</ele>
        <time>2019-04-02T13:08:00Z</time>
      </trkpt>
      <trkpt lat="47.67434" lon="3.7005">
        <ele>242</ele>
        <time>2019-04-02T13:08:02Z</time>
      </trkpt>
      <trkpt lat="47.67431" lon="3.70054">
        <ele>243</ele>
        <time>2019-04-02T13:08:05Z</time>
      </trkpt>
      <trkpt lat="47.67427" lon="3.70057">
        <ele>242</ele>
        <time>2019-04-02T13:08:08Z</time>
      </trkpt>
      <trkpt lat="47.67422" lon="3.70059">
        <ele>244</ele>
        <time>2019-04-02T13:08:13Z</time>
      </trkpt>
      <trkpt lat="47.67419" lon="3.70061">
        <ele>243</ele>
        <time>2019-04-02T13:08:16Z</time>
      </trkpt>
      <trkpt lat="47.67415" lon="3.70063">
        <ele>243</ele>
        <time>2019-04-02T13:08:18Z</time>
      </trkpt>
      <trkpt lat="47.67411" lon="3.70065">
        <ele>243</ele>
        <time>2019-04-02T13:08:21Z</time>
      </trkpt>
      <trkpt lat="47.67406" lon="3.70069">
        <ele>244</ele>
        <time>2019-04-02T13:08:25Z</time>
      </trkpt>
      <trkpt lat="47.67403" lon="3.70071">
        <ele>245</ele>
        <time>2019-04-02T13:08:27Z</time>
      </trkpt>
      <trkpt lat="47.67399" lon="3.70076">
        <ele>244</ele>
        <time>2019-04-02T13:08:31Z</time>
      </trkpt>
      <trkpt lat="47.67396" lon="3.70078">
        <ele>244</ele>
        <time>2019-04-02T13:08:34Z</time>
      </trkpt>
      <trkpt lat="47.67393" lon="3.70082">
        <ele>245</ele>
        <time>2019-04-02T13:08:37Z</time>
      </trkpt>
      <trkpt lat="47.6739" lon="3.70085">
        <ele>244</ele>
        <time>2019-04-02T13:08:39Z</time>
      </trkpt>
      <trkpt lat="47.67387" lon="3.70088">
        <ele>244</ele>
        <time>2019-04-02T13:08:41Z</time>
      </trkpt>
      <trkpt lat="47.67382" lon="3.70093">
        <ele>245</ele>
        <time>2019-04-02T13:08:45Z</time>
      </trkpt>
      <trkpt lat="47.6738" lon="3.70096">
        <ele>245</ele>
        <time>2019-04-02T13:08:47Z</time>
      </trkpt>
      <trkpt lat="47.67375" lon="3.701">
        <ele>245</ele>
        <time>2019-04-02T13:08:50Z</time>
      </trkpt>
      <trkpt lat="47.67372" lon="3.70102">
        <ele>245</ele>
        <time>2019-04-02T13:08:52Z</time>
      </trkpt>
      <trkpt lat="47.67368" lon="3.70109">
        <ele>245</ele>
        <time>2019-04-02T13:08:56Z</time>
      </trkpt>
      <trkpt lat="47.67364" lon="3.70113">
        <ele>245</ele>
        <time>2019-04-02T13:09:00Z</time>
      </trkpt>
      <trkpt lat="47.67361" lon="3.70115">
        <ele>246</ele>
        <time>2019-04-02T13:09:02Z</time>
      </trkpt>
      <trkpt lat="47.67357" lon="3.7012">
        <ele>247</ele>
        <time>2019-04-02T13:09:07Z</time>
      </trkpt>
      <trkpt lat="47.67355" lon="3.70122">
        <ele>247</ele>
        <time>2019-04-02T13:09:09Z</time>
      </trkpt>
      <trkpt lat="47.67351" lon="3.70129">
        <ele>247</ele>
        <time>2019-04-02T13:09:13Z</time>
      </trkpt>
      <trkpt lat="47.67346" lon="3.70134">
        <ele>246</ele>
        <time>2019-04-02T13:09:16Z</time>
      </trkpt>
      <trkpt lat="47.67343" lon="3.70139">
        <ele>247</ele>
        <time>2019-04-02T13:09:20Z</time>
      </trkpt>
      <trkpt lat="47.67339" lon="3.70144">
        <ele>247</ele>
        <time>2019-04-02T13:09:24Z</time>
      </trkpt>
      <trkpt lat="47.67336" lon="3.7015">
        <ele>248</ele>
        <time>2019-04-02T13:09:29Z</time>
      </trkpt>
      <trkpt lat="47.67331" lon="3.70154">
        <ele>247</ele>
        <time>2019-04-02T13:09:33Z</time>
      </trkpt>
      <trkpt lat="47.67328" lon="3.7016">
        <ele>248</ele>
        <time>2019-04-02T13:09:37Z</time>
      </trkpt>
      <trkpt lat="47.67324" lon="3.70165">
        <ele>247</ele>
        <time>2019-04-02T13:09:41Z</time>
      </trkpt>
      <trkpt lat="47.6732" lon="3.70171">
        <ele>248</ele>
        <time>2019-04-02T13:09:44Z</time>
      </trkpt>
      <trkpt lat="47.67315" lon="3.70176">
        <ele>248</ele>
        <time>2019-04-02T13:09:49Z</time>
      </trkpt>
      <trkpt lat="47.67312" lon="3.70182">
        <ele>247</ele>
        <time>2019-04-02T13:09:52Z</time>
      </trkpt>
      <trkpt lat="47.6731" lon="3.70184">
        <ele>247</ele>
        <time>2019-04-02T13:09:54Z</time>
      </trkpt>
      <trkpt lat="47.67307" lon="3.70191">
        <ele>248</ele>
        <time>2019-04-02T13:09:58Z</time>
      </trkpt>
      <trkpt lat="47.67304" lon="3.70196">
        <ele>249</ele>
        <time>2019-04-02T13:10:02Z</time>
      </trkpt>
      <trkpt lat="47.673" lon="3.70203">
        <ele>249</ele>
        <time>2019-04-02T13:10:05Z</time>
      </trkpt>
      <trkpt lat="47.67296" lon="3.70208">
        <ele>248</ele>
        <time>2019-04-02T13:10:09Z</time>
      </trkpt>
      <trkpt lat="47.67292" lon="3.70215">
        <ele>248</ele>
        <time>2019-04-02T13:10:13Z</time>
      </trkpt>
      <trkpt lat="47.67289" lon="3.7022">
        <ele>248</ele>
        <time>2019-04-02T13:10:17Z</time>
      </trkpt>
      <trkpt lat="47.67287" lon="3.70224">
        <ele>249</ele>
        <time>2019-04-02T13:10:20Z</time>
      </trkpt>
      <trkpt lat="47.67284" lon="3.7023">
        <ele>248</ele>
        <time>2019-04-02T13:10:24Z</time>
      </trkpt>
      <trkpt lat="47.67281" lon="3.70236">
        <ele>248</ele>
        <time>2019-04-02T13:10:28Z</time>
      </trkpt>
      <trkpt lat="47.67278" lon="3.70241">
        <ele>249</ele>
        <time>2019-04-02T13:10:30Z</time>
      </trkpt>
      <trkpt lat="47.67275" lon="3.70245">
        <ele>247</ele>
        <time>2019-04-02T13:10:35Z</time>
      </trkpt>
      <trkpt lat="47.67272" lon="3.70251">
        <ele>247</ele>
        <time>2019-04-02T13:10:38Z</time>
      </trkpt>
      <trkpt lat="47.67271" lon="3.70253">
        <ele>246</ele>
        <time>2019-04-02T13:10:40Z</time>
      </trkpt>
      <trkpt lat="47.67267" lon="3.70259">
        <ele>247</ele>
        <time>2019-04-02T13:10:44Z</time>
      </trkpt>
      <trkpt lat="47.67263" lon="3.70263">
        <ele>247</ele>
        <time>2019-04-02T13:10:47Z</time>
      </trkpt>
      <trkpt lat="47.67262" lon="3.70266">
        <ele>247</ele>
        <time>2019-04-02T13:10:49Z</time>
      </trkpt>
      <trkpt lat="47.67259" lon="3.70273">
        <ele>246</ele>
        <time>2019-04-02T13:10:54Z</time>
      </trkpt>
      <trkpt lat="47.67257" lon="3.70277">
        <ele>246</ele>
        <time>2019-04-02T13:10:55Z</time>
      </trkpt>
      <trkpt lat="47.67253" lon="3.70282">
        <ele>246</ele>
        <time>2019-04-02T13:10:59Z</time>
      </trkpt>
      <trkpt lat="47.67249" lon="3.70289">
        <ele>245</ele>
        <time>2019-04-02T13:11:03Z</time>
      </trkpt>
      <trkpt lat="47.67245" lon="3.70292">
        <ele>244</ele>
        <time>2019-04-02T13:11:06Z</time>
      </trkpt>
      <trkpt lat="47.67241" lon="3.70297">
        <ele>244</ele>
        <time>2019-04-02T13:11:11Z</time>
      </trkpt>
      <trkpt lat="47.67237" lon="3.70304">
        <ele>244</ele>
        <time>2019-04-02T13:11:14Z</time>
      </trkpt>
      <trkpt lat="47.67234" lon="3.70309">
        <ele>245</ele>
        <time>2019-04-02T13:11:17Z</time>
      </trkpt>
      <trkpt lat="47.67228" lon="3.70314">
        <ele>244</ele>
        <time>2019-04-02T13:11:22Z</time>
      </trkpt>
      <trkpt lat="47.67224" lon="3.7032">
        <ele>243</ele>
        <time>2019-04-02T13:11:26Z</time>
      </trkpt>
      <trkpt lat="47.67221" lon="3.70324">
        <ele>243</ele>
        <time>2019-04-02T13:11:30Z</time>
      </trkpt>
      <trkpt lat="47.67219" lon="3.70326">
        <ele>242</ele>
        <time>2019-04-02T13:11:32Z</time>
      </trkpt>
      <trkpt lat="47.67216" lon="3.7033">
        <ele>243</ele>
        <time>2019-04-02T13:11:35Z</time>
      </trkpt>
      <trkpt lat="47.67213" lon="3.70336">
        <ele>243</ele>
        <time>2019-04-02T13:11:38Z</time>
      </trkpt>
      <trkpt lat="47.67209" lon="3.7034">
        <ele>243</ele>
        <time>2019-04-02T13:11:41Z</time>
      </trkpt>
      <trkpt lat="47.67206" lon="3.70344">
        <ele>243</ele>
        <time>2019-04-02T13:11:44Z</time>
      </trkpt>
      <trkpt lat="47.67202" lon="3.70349">
        <ele>241</ele>
        <time>2019-04-02T13:11:49Z</time>
      </trkpt>
      <trkpt lat="47.67198" lon="3.70353">
        <ele>240</ele>
        <time>2019-04-02T13:11:52Z</time>
      </trkpt>
      <trkpt lat="47.67196" lon="3.70355">
        <ele>240</ele>
        <time>2019-04-02T13:11:54Z</time>
      </trkpt>
      <trkpt lat="47.67193" lon="3.70361">
        <ele>239</ele>
        <time>2019-04-02T13:11:58Z</time>
      </trkpt>
      <trkpt lat="47.67188" lon="3.70367">
        <ele>240</ele>
        <time>2019-04-02T13:12:02Z</time>
      </trkpt>
      <trkpt lat="47.67184" lon="3.70371">
        <ele>239</ele>
        <time>2019-04-02T13:12:05Z</time>
      </trkpt>
      <trkpt lat="47.6718" lon="3.70377">
        <ele>238</ele>
        <time>2019-04-02T13:12:10Z</time>
      </trkpt>
      <trkpt lat="47.67178" lon="3.70379">
        <ele>238</ele>
        <time>2019-04-02T13:12:12Z</time>
      </trkpt>
      <trkpt lat="47.67174" lon="3.70384">
        <ele>237</ele>
        <time>2019-04-02T13:12:16Z</time>
      </trkpt>
      <trkpt lat="47.67172" lon="3.70387">
        <ele>236</ele>
        <time>2019-04-02T13:12:18Z</time>
      </trkpt>
      <trkpt lat="47.67169" lon="3.70391">
        <ele>235</ele>
        <time>2019-04-02T13:12:21Z</time>
      </trkpt>
      <trkpt lat="47.67166" lon="3.70398">
        <ele>233</ele>
        <time>2019-04-02T13:12:25Z</time>
      </trkpt>
      <trkpt lat="47.67165" lon="3.70402">
        <ele>233</ele>
        <time>2019-04-02T13:12:27Z</time>
      </trkpt>
      <trkpt lat="47.67162" lon="3.70407">
        <ele>232</ele>
        <time>2019-04-02T13:12:31Z</time>
      </trkpt>
      <trkpt lat="47.67158" lon="3.70411">
        <ele>231</ele>
        <time>2019-04-02T13:12:35Z</time>
      </trkpt>
      <trkpt lat="47.67155" lon="3.70413">
        <ele>231</ele>
        <time>2019-04-02T13:12:37Z</time>
      </trkpt>
      <trkpt lat="47.67151" lon="3.70417">
        <ele>231</ele>
        <time>2019-04-02T13:12:41Z</time>
      </trkpt>
      <trkpt lat="47.67148" lon="3.70424">
        <ele>231</ele>
        <time>2019-04-02T13:12:46Z</time>
      </trkpt>
      <trkpt lat="47.67146" lon="3.70426">
        <ele>231</ele>
        <time>2019-04-02T13:12:48Z</time>
      </trkpt>
      <trkpt lat="47.67143" lon="3.70433">
        <ele>231</ele>
        <time>2019-04-02T13:12:52Z</time>
      </trkpt>
      <trkpt lat="47.67141" lon="3.7044">
        <ele>231</ele>
        <time>2019-04-02T13:12:56Z</time>
      </trkpt>
      <trkpt lat="47.6714" lon="3.70443">
        <ele>231</ele>
        <time>2019-04-02T13:12:58Z</time>
      </trkpt>
      <trkpt lat="47.67139" lon="3.70446">
        <ele>232</ele>
        <time>2019-04-02T13:13:00Z</time>
      </trkpt>
      <trkpt lat="47.67136" lon="3.70451">
        <ele>232</ele>
        <time>2019-04-02T13:13:04Z</time>
      </trkpt>
      <trkpt lat="47.67133" lon="3.70458">
        <ele>231</ele>
        <time>2019-04-02T13:13:09Z</time>
      </trkpt>
      <trkpt lat="47.67131" lon="3.70461">
        <ele>231</ele>
        <time>2019-04-02T13:13:11Z</time>
      </trkpt>
      <trkpt lat="47.67129" lon="3.7047">
        <ele>231</ele>
        <time>2019-04-02T13:13:17Z</time>
      </trkpt>
      <trkpt lat="47.67128" lon="3.70475">
        <ele>229</ele>
        <time>2019-04-02T13:13:20Z</time>
      </trkpt>
      <trkpt lat="47.67126" lon="3.70481">
        <ele>228</ele>
        <time>2019-04-02T13:13:23Z</time>
      </trkpt>
      <trkpt lat="47.67124" lon="3.70488">
        <ele>227</ele>
        <time>2019-04-02T13:13:26Z</time>
      </trkpt>
      <trkpt lat="47.67123" lon="3.70496">
        <ele>226</ele>
        <time>2019-04-02T13:13:30Z</time>
      </trkpt>
      <trkpt lat="47.67123" lon="3.70501">
        <ele>226</ele>
        <time>2019-04-02T13:13:32Z</time>
      </trkpt>
      <trkpt lat="47.67121" lon="3.70508">
        <ele>225</ele>
        <time>2019-04-02T13:13:36Z</time>
      </trkpt>
      <trkpt lat="47.6712" lon="3.70515">
        <ele>225</ele>
        <time>2019-04-02T13:13:40Z</time>
      </trkpt>
      <trkpt lat="47.6712" lon="3.70518">
        <ele>225</ele>
        <time>2019-04-02T13:13:42Z</time>
      </trkpt>
      <trkpt lat="47.6712" lon="3.70522">
        <ele>225</ele>
        <time>2019-04-02T13:13:44Z</time>
      </trkpt>
      <trkpt lat="47.67119" lon="3.70528">
        <ele>225</ele>
        <time>2019-04-02T13:13:46Z</time>
      </trkpt>
      <trkpt lat="47.67119" lon="3.70532">
        <ele>225</ele>
        <time>2019-04-02T13:13:48Z</time>
      </trkpt>
      <trkpt lat="47.67118" lon="3.70536">
        <ele>225</ele>
        <time>2019-04-02T13:13:50Z</time>
      </trkpt>
      <trkpt lat="47.67118" lon="3.70541">
        <ele>225</ele>
        <time>2019-04-02T13:13:54Z</time>
      </trkpt>
      <trkpt lat="47.67116" lon="3.70548">
        <ele>224</ele>
        <time>2019-04-02T13:13:57Z</time>
      </trkpt>
      <trkpt lat="47.67114" lon="3.70553">
        <ele>223</ele>
        <time>2019-04-02T13:14:00Z</time>
      </trkpt>
      <trkpt lat="47.67112" lon="3.7056">
        <ele>222</ele>
        <time>2019-04-02T13:14:04Z</time>
      </trkpt>
      <trkpt lat="47.67111" lon="3.70564">
        <ele>222</ele>
        <time>2019-04-02T13:14:06Z</time>
      </trkpt>
      <trkpt lat="47.6711" lon="3.70567">
        <ele>221</ele>
        <time>2019-04-02T13:14:08Z</time>
      </trkpt>
      <trkpt lat="47.67108" lon="3.70574">
        <ele>220</ele>
        <time>2019-04-02T13:14:12Z</time>
      </trkpt>
      <trkpt lat="47.67106" lon="3.70581">
        <ele>220</ele>
        <time>2019-04-02T13:14:16Z</time>
      </trkpt>
      <trkpt lat="47.67105" lon="3.70585">
        <ele>219</ele>
        <time>2019-04-02T13:14:18Z</time>
      </trkpt>
      <trkpt lat="47.67104" lon="3.70591">
        <ele>219</ele>
        <time>2019-04-02T13:14:21Z</time>
      </trkpt>
      <trkpt lat="47.67102" lon="3.70598">
        <ele>218</ele>
        <time>2019-04-02T13:14:25Z</time>
      </trkpt>
      <trkpt lat="47.671" lon="3.70604">
        <ele>218</ele>
        <time>2019-04-02T13:14:29Z</time>
      </trkpt>
      <trkpt lat="47.67098" lon="3.7061">
        <ele>216</ele>
        <time>2019-04-02T13:14:32Z</time>
      </trkpt>
      <trkpt lat="47.67097" lon="3.70614">
        <ele>216</ele>
        <time>2019-04-02T13:14:34Z</time>
      </trkpt>
      <trkpt lat="47.67096" lon="3.70622">
        <ele>215</ele>
        <time>2019-04-02T13:14:38Z</time>
      </trkpt>
      <trkpt lat="47.67095" lon="3.70626">
        <ele>214</ele>
        <time>2019-04-02T13:14:41Z</time>
      </trkpt>
      <trkpt lat="47.67092" lon="3.70634">
        <ele>213</ele>
        <time>2019-04-02T13:14:45Z</time>
      </trkpt>
      <trkpt lat="47.67089" lon="3.7064">
        <ele>213</ele>
        <time>2019-04-02T13:14:49Z</time>
      </trkpt>
      <trkpt lat="47.67088" lon="3.70644">
        <ele>212</ele>
        <time>2019-04-02T13:14:51Z</time>
      </trkpt>
      <trkpt lat="47.67087" lon="3.70647">
        <ele>212</ele>
        <time>2019-04-02T13:14:53Z</time>
      </trkpt>
      <trkpt lat="47.67085" lon="3.7065">
        <ele>212</ele>
        <time>2019-04-02T13:14:55Z</time>
      </trkpt>
      <trkpt lat="47.67084" lon="3.70655">
        <ele>212</ele>
        <time>2019-04-02T13:14:58Z</time>
      </trkpt>
      <trkpt lat="47.6708" lon="3.70661">
        <ele>210</ele>
        <time>2019-04-02T13:15:02Z</time>
      </trkpt>
      <trkpt lat="47.67079" lon="3.70664">
        <ele>209</ele>
        <time>2019-04-02T13:15:04Z</time>
      </trkpt>
      <trkpt lat="47.67077" lon="3.70667">
        <ele>208</ele>
        <time>2019-04-02T13:15:06Z</time>
      </trkpt>
      <trkpt lat="47.67075" lon="3.70669">
        <ele>208</ele>
        <time>2019-04-02T13:15:08Z</time>
      </trkpt>
      <trkpt lat="47.67073" lon="3.70674">
        <ele>208</ele>
        <time>2019-04-02T13:15:11Z</time>
      </trkpt>
      <trkpt lat="47.6707" lon="3.70682">
        <ele>206</ele>
        <time>2019-04-02T13:15:16Z</time>
      </trkpt>
      <trkpt lat="47.67066" lon="3.70687">
        <ele>205</ele>
        <time>2019-04-02T13:15:20Z</time>
      </trkpt>
      <trkpt lat="47.67063" lon="3.70693">
        <ele>204</ele>
        <time>2019-04-02T13:15:24Z</time>
      </trkpt>
      <trkpt lat="47.67059" lon="3.70698">
        <ele>203</ele>
        <time>2019-04-02T13:15:29Z</time>
      </trkpt>
      <trkpt lat="47.67056" lon="3.70702">
        <ele>202</ele>
        <time>2019-04-02T13:15:32Z</time>
      </trkpt>
      <trkpt lat="47.67052" lon="3.70711">
        <ele>201</ele>
        <time>2019-04-02T13:15:37Z</time>
      </trkpt>
      <trkpt lat="47.67049" lon="3.70719">
        <ele>201</ele>
        <time>2019-04-02T13:15:43Z</time>
      </trkpt>
      <trkpt lat="47.67048" lon="3.70722">
        <ele>201</ele>
        <time>2019-04-02T13:15:45Z</time>
      </trkpt>
      <trkpt lat="47.67044" lon="3.70726">
        <ele>201</ele>
        <time>2019-04-02T13:15:49Z</time>
      </trkpt>
      <trkpt lat="47.67041" lon="3.70728">
        <ele>200</ele>
        <time>2019-04-02T13:15:52Z</time>
      </trkpt>
      <trkpt lat="47.67037" lon="3.70731">
        <ele>200</ele>
        <time>2019-04-02T13:15:55Z</time>
      </trkpt>
      <trkpt lat="47.67032" lon="3.70735">
        <ele>199</ele>
        <time>2019-04-02T13:15:59Z</time>
      </trkpt>
      <trkpt lat="47.67028" lon="3.70738">
        <ele>198</ele>
        <time>2019-04-02T13:16:03Z</time>
      </trkpt>
      <trkpt lat="47.67023" lon="3.70741">
        <ele>198</ele>
        <time>2019-04-02T13:16:06Z</time>
      </trkpt>
      <trkpt lat="47.67021" lon="3.70742">
        <ele>198</ele>
        <time>2019-04-02T13:16:08Z</time>
      </trkpt>
      <trkpt lat="47.67017" lon="3.70746">
        <ele>197</ele>
        <time>2019-04-02T13:16:11Z</time>
      </trkpt>
      <trkpt lat="47.67012" lon="3.70748">
        <ele>196</ele>
        <time>2019-04-02T13:16:15Z</time>
      </trkpt>
      <trkpt lat="47.67009" lon="3.70749">
        <ele>196</ele>
        <time>2019-04-02T13:16:17Z</time>
      </trkpt>
      <trkpt lat="47.67005" lon="3.70752">
        <ele>196</ele>
        <time>2019-04-02T13:16:21Z</time>
      </trkpt>
      <trkpt lat="47.67002" lon="3.70754">
        <ele>196</ele>
        <time>2019-04-02T13:16:23Z</time>
      </trkpt>
      <trkpt lat="47.66998" lon="3.70756">
        <ele>196</ele>
        <time>2019-04-02T13:16:26Z</time>
      </trkpt>
      <trkpt lat="47.66996" lon="3.70758">
        <ele>195</ele>
        <time>2019-04-02T13:16:28Z</time>
      </trkpt>
      <trkpt lat="47.66991" lon="3.7076">
        <ele>194</ele>
        <time>2019-04-02T13:16:32Z</time>
      </trkpt>
      <trkpt lat="47.66988" lon="3.70762">
        <ele>194</ele>
        <time>2019-04-02T13:16:34Z</time>
      </trkpt>
      <trkpt lat="47.66985" lon="3.70764">
        <ele>194</ele>
        <time>2019-04-02T13:16:36Z</time>
      </trkpt>
      <trkpt lat="47.66982" lon="3.70765">
        <ele>193</ele>
        <time>2019-04-02T13:16:38Z</time>
      </trkpt>
      <trkpt lat="47.66979" lon="3.70767">
        <ele>192</ele>
        <time>2019-04-02T13:16:40Z</time>
      </trkpt>
      <trkpt lat="47.66977" lon="3.70769">
        <ele>192</ele>
        <time>2019-04-02T13:16:42Z</time>
      </trkpt>
      <trkpt lat="47.66972" lon="3.70773">
        <ele>192</ele>
        <time>2019-04-02T13:16:46Z</time>
      </trkpt>
      <trkpt lat="47.66969" lon="3.70775">
        <ele>193</ele>
        <time>2019-04-02T13:16:49Z</time>
      </trkpt>
      <trkpt lat="47.66963" lon="3.70777">
        <ele>192</ele>
        <time>2019-04-02T13:16:53Z</time>
      </trkpt>
      <trkpt lat="47.6696" lon="3.70779">
        <ele>191</ele>
        <time>2019-04-02T13:16:56Z</time>
      </trkpt>
      <trkpt lat="47.66957" lon="3.70779">
        <ele>191</ele>
        <time>2019-04-02T13:16:58Z</time>
      </trkpt>
      <trkpt lat="47.66952" lon="3.70783">
        <ele>190</ele>
        <time>2019-04-02T13:17:02Z</time>
      </trkpt>
      <trkpt lat="47.66949" lon="3.70785">
        <ele>191</ele>
        <time>2019-04-02T13:17:04Z</time>
      </trkpt>
      <trkpt lat="47.66946" lon="3.70787">
        <ele>190</ele>
        <time>2019-04-02T13:17:07Z</time>
      </trkpt>
      <trkpt lat="47.66941" lon="3.70791">
        <ele>189</ele>
        <time>2019-04-02T13:17:11Z</time>
      </trkpt>
      <trkpt lat="47.66938" lon="3.70793">
        <ele>189</ele>
        <time>2019-04-02T13:17:13Z</time>
      </trkpt>
      <trkpt lat="47.66933" lon="3.70796">
        <ele>189</ele>
        <time>2019-04-02T13:17:17Z</time>
      </trkpt>
      <trkpt lat="47.66928" lon="3.70798">
        <ele>188</ele>
        <time>2019-04-02T13:17:20Z</time>
      </trkpt>
      <trkpt lat="47.66923" lon="3.70801">
        <ele>188</ele>
        <time>2019-04-02T13:17:25Z</time>
      </trkpt>
      <trkpt lat="47.66919" lon="3.70803">
        <ele>188</ele>
        <time>2019-04-02T13:17:28Z</time>
      </trkpt>
      <trkpt lat="47.66915" lon="3.70807">
        <ele>187</ele>
        <time>2019-04-02T13:17:32Z</time>
      </trkpt>
      <trkpt lat="47.6691" lon="3.7081">
        <ele>187</ele>
        <time>2019-04-02T13:17:36Z</time>
      </trkpt>
      <trkpt lat="47.66906" lon="3.70811">
        <ele>186</ele>
        <time>2019-04-02T13:17:37Z</time>
      </trkpt>
      <trkpt lat="47.66904" lon="3.70813">
        <ele>187</ele>
        <time>2019-04-02T13:17:40Z</time>
      </trkpt>
      <trkpt lat="47.66901" lon="3.70814">
        <ele>187</ele>
        <time>2019-04-02T13:17:42Z</time>
      </trkpt>
      <trkpt lat="47.66896" lon="3.70818">
        <ele>186</ele>
        <time>2019-04-02T13:17:46Z</time>
      </trkpt>
      <trkpt lat="47.66893" lon="3.7082">
        <ele>186</ele>
        <time>2019-04-02T13:17:49Z</time>
      </trkpt>
      <trkpt lat="47.6689" lon="3.70822">
        <ele>186</ele>
        <time>2019-04-02T13:17:51Z</time>
      </trkpt>
      <trkpt lat="47.66888" lon="3.70824">
        <ele>186</ele>
        <time>2019-04-02T13:17:53Z</time>
      </trkpt>
      <trkpt lat="47.66886" lon="3.70825">
        <ele>185</ele>
        <time>2019-04-02T13:17:55Z</time>
      </trkpt>
      <trkpt lat="47.66883" lon="3.70827">
        <ele>185</ele>
        <time>2019-04-02T13:17:57Z</time>
      </trkpt>
      <trkpt lat="47.66878" lon="3.70829">
        <ele>184</ele>
        <time>2019-04-02T13:18:00Z</time>
      </trkpt>
      <trkpt lat="47.66875" lon="3.7083">
        <ele>183</ele>
        <time>2019-04-02T13:18:03Z</time>
      </trkpt>
      <trkpt lat="47.6687" lon="3.70834">
        <ele>183</ele>
        <time>2019-04-02T13:18:07Z</time>
      </trkpt>
      <trkpt lat="47.66868" lon="3.70836">
        <ele>182</ele>
        <time>2019-04-02T13:18:09Z</time>
      </trkpt>
      <trkpt lat="47.66862" lon="3.70837">
        <ele>182</ele>
        <time>2019-04-02T13:18:13Z</time>
      </trkpt>
      <trkpt lat="47.66858" lon="3.7084">
        <ele>182</ele>
        <time>2019-04-02T13:18:16Z</time>
      </trkpt>
      <trkpt lat="47.66853" lon="3.70843">
        <ele>182</ele>
        <time>2019-04-02T13:18:20Z</time>
      </trkpt>
      <trkpt lat="47.6685" lon="3.70844">
        <ele>181</ele>
        <time>2019-04-02T13:18:21Z</time>
      </trkpt>
      <trkpt lat="47.66848" lon="3.70846">
        <ele>182</ele>
        <time>2019-04-02T13:18:24Z</time>
      </trkpt>
      <trkpt lat="47.66845" lon="3.70848">
        <ele>182</ele>
        <time>2019-04-02T13:18:25Z</time>
      </trkpt>
      <trkpt lat="47.66841" lon="3.70851">
        <ele>182</ele>
        <time>2019-04-02T13:18:28Z</time>
      </trkpt>
      <trkpt lat="47.66838" lon="3.70853">
        <ele>183</ele>
        <time>2019-04-02T13:18:32Z</time>
      </trkpt>
      <trkpt lat="47.66832" lon="3.70858">
        <ele>182</ele>
        <time>2019-04-02T13:18:36Z</time>
      </trkpt>
      <trkpt lat="47.66829" lon="3.7086">
        <ele>181</ele>
        <time>2019-04-02T13:18:38Z</time>
      </trkpt>
      <trkpt lat="47.66824" lon="3.70863">
        <ele>181</ele>
        <time>2019-04-02T13:18:43Z</time>
      </trkpt>
      <trkpt lat="47.6682" lon="3.70866">
        <ele>181</ele>
        <time>2019-04-02T13:18:46Z</time>
      </trkpt>
      <trkpt lat="47.66815" lon="3.70869">
        <ele>181</ele>
        <time>2019-04-02T13:18:49Z</time>
      </trkpt>
      <trkpt lat="47.66813" lon="3.70871">
        <ele>181</ele>
        <time>2019-04-02T13:18:51Z</time>
      </trkpt>
      <trkpt lat="47.66809" lon="3.70873">
        <ele>181</ele>
        <time>2019-04-02T13:18:54Z</time>
      </trkpt>
      <trkpt lat="47.66806" lon="3.70875">
        <ele>181</ele>
        <time>2019-04-02T13:18:56Z</time>
      </trkpt>
      <trkpt lat="47.66802" lon="3.70877">
        <ele>180</ele>
        <time>2019-04-02T13:18:59Z</time>
      </trkpt>
      <trkpt lat="47.66798" lon="3.70879">
        <ele>180</ele>
        <time>2019-04-02T13:19:02Z</time>
      </trkpt>
      <trkpt lat="47.66795" lon="3.70881">
        <ele>180</ele>
        <time>2019-04-02T13:19:05Z</time>
      </trkpt>
      <trkpt lat="47.66793" lon="3.70883">
        <ele>180</ele>
        <time>2019-04-02T13:19:07Z</time>
      </trkpt>
      <trkpt lat="47.66791" lon="3.70885">
        <ele>180</ele>
        <time>2019-04-02T13:19:09Z</time>
      </trkpt>
      <trkpt lat="47.66787" lon="3.70888">
        <ele>181</ele>
        <time>2019-04-02T13:19:12Z</time>
      </trkpt>
      <trkpt lat="47.66785" lon="3.7089">
        <ele>180</ele>
        <time>2019-04-02T13:19:14Z</time>
      </trkpt>
      <trkpt lat="47.6678" lon="3.70892">
        <ele>180</ele>
        <time>2019-04-02T13:19:18Z</time>
      </trkpt>
      <trkpt lat="47.66777" lon="3.70893">
        <ele>179</ele>
        <time>2019-04-02T13:19:20Z</time>
      </trkpt>
      <trkpt lat="47.66773" lon="3.70896">
        <ele>179</ele>
        <time>2019-04-02T13:19:23Z</time>
      </trkpt>
      <trkpt lat="47.66768" lon="3.70898">
        <ele>179</ele>
        <time>2019-04-02T13:19:27Z</time>
      </trkpt>
      <trkpt lat="47.66765" lon="3.70899">
        <ele>179</ele>
        <time>2019-04-02T13:19:30Z</time>
      </trkpt>
      <trkpt lat="47.6676" lon="3.709">
        <ele>178</ele>
        <time>2019-04-02T13:19:33Z</time>
      </trkpt>
      <trkpt lat="47.66757" lon="3.70901">
        <ele>179</ele>
        <time>2019-04-02T13:19:35Z</time>
      </trkpt>
      <trkpt lat="47.66754" lon="3.70902">
        <ele>179</ele>
        <time>2019-04-02T13:19:37Z</time>
      </trkpt>
      <trkpt lat="47.66751" lon="3.70904">
        <ele>178</ele>
        <time>2019-04-02T13:19:39Z</time>
      </trkpt>
      <trkpt lat="47.66746" lon="3.70904">
        <ele>178</ele>
        <time>2019-04-02T13:19:42Z</time>
      </trkpt>
      <trkpt lat="47.66744" lon="3.70905">
        <ele>178</ele>
        <time>2019-04-02T13:19:44Z</time>
      </trkpt>
      <trkpt lat="47.6674" lon="3.70905">
        <ele>177</ele>
        <time>2019-04-02T13:19:47Z</time>
      </trkpt>
      <trkpt lat="47.66737" lon="3.70905">
        <ele>177</ele>
        <time>2019-04-02T13:19:51Z</time>
      </trkpt>
      <trkpt lat="47.66734" lon="3.70905">
        <ele>177</ele>
        <time>2019-04-02T13:19:52Z</time>
      </trkpt>
      <trkpt lat="47.66732" lon="3.70906">
        <ele>177</ele>
        <time>2019-04-02T13:19:54Z</time>
      </trkpt>
      <trkpt lat="47.66729" lon="3.70906">
        <ele>176</ele>
        <time>2019-04-02T13:19:56Z</time>
      </trkpt>
      <trkpt lat="47.66726" lon="3.70907">
        <ele>175</ele>
        <time>2019-04-02T13:19:58Z</time>
      </trkpt>
      <trkpt lat="47.66724" lon="3.70907">
        <ele>175</ele>
        <time>2019-04-02T13:20:00Z</time>
      </trkpt>
      <trkpt lat="47.6672" lon="3.70907">
        <ele>175</ele>
        <time>2019-04-02T13:20:02Z</time>
      </trkpt>
      <trkpt lat="47.66717" lon="3.70907">
        <ele>174</ele>
        <time>2019-04-02T13:20:04Z</time>
      </trkpt>
      <trkpt lat="47.66715" lon="3.70908">
        <ele>174</ele>
        <time>2019-04-02T13:20:06Z</time>
      </trkpt>
      <trkpt lat="47.66711" lon="3.70909">
        <ele>174</ele>
        <time>2019-04-02T13:20:09Z</time>
      </trkpt>
      <trkpt lat="47.66709" lon="3.70909">
        <ele>175</ele>
        <time>2019-04-02T13:20:12Z</time>
      </trkpt>
      <trkpt lat="47.66706" lon="3.7091">
        <ele>175</ele>
        <time>2019-04-02T13:20:14Z</time>
      </trkpt>
      <trkpt lat="47.66701" lon="3.7091">
        <ele>175</ele>
        <time>2019-04-02T13:20:18Z</time>
      </trkpt>
      <trkpt lat="47.66695" lon="3.70912">
        <ele>175</ele>
        <time>2019-04-02T13:20:22Z</time>
      </trkpt>
      <trkpt lat="47.66692" lon="3.70912">
        <ele>175</ele>
        <time>2019-04-02T13:20:24Z</time>
      </trkpt>
      <trkpt lat="47.66689" lon="3.70913">
        <ele>174</ele>
        <time>2019-04-02T13:20:27Z</time>
      </trkpt>
      <trkpt lat="47.66684" lon="3.70914">
        <ele>174</ele>
        <time>2019-04-02T13:20:31Z</time>
      </trkpt>
      <trkpt lat="47.66681" lon="3.70914">
        <ele>174</ele>
        <time>2019-04-02T13:20:32Z</time>
      </trkpt>
      <trkpt lat="47.66678" lon="3.70914">
        <ele>174</ele>
        <time>2019-04-02T13:20:34Z</time>
      </trkpt>
      <trkpt lat="47.66675" lon="3.70914">
        <ele>174</ele>
        <time>2019-04-02T13:20:36Z</time>
      </trkpt>
      <trkpt lat="47.66673" lon="3.70914">
        <ele>174</ele>
        <time>2019-04-02T13:20:39Z</time>
      </trkpt>
      <trkpt lat="47.66668" lon="3.70914">
        <ele>173</ele>
        <time>2019-04-02T13:20:41Z</time>
      </trkpt>
      <trkpt lat="47.66662" lon="3.70915">
        <ele>174</ele>
        <time>2019-04-02T13:20:46Z</time>
      </trkpt>
      <trkpt lat="47.66659" lon="3.70915">
        <ele>174</ele>
        <time>2019-04-02T13:20:49Z</time>
      </trkpt>
      <trkpt lat="47.66656" lon="3.70915">
        <ele>173</ele>
        <time>2019-04-02T13:20:51Z</time>
      </trkpt>
      <trkpt lat="47.66653" lon="3.70916">
        <ele>173</ele>
        <time>2019-04-02T13:20:54Z</time>
      </trkpt>
      <trkpt lat="47.66647" lon="3.70916">
        <ele>173</ele>
        <time>2019-04-02T13:20:58Z</time>
      </trkpt>
      <trkpt lat="47.66642" lon="3.70917">
        <ele>171</ele>
        <time>2019-04-02T13:21:01Z</time>
      </trkpt>
      <trkpt lat="47.66639" lon="3.70918">
        <ele>171</ele>
        <time>2019-04-02T13:21:03Z</time>
      </trkpt>
      <trkpt lat="47.66636" lon="3.70919">
        <ele>171</ele>
        <time>2019-04-02T13:21:06Z</time>
      </trkpt>
      <trkpt lat="47.66631" lon="3.70919">
        <ele>171</ele>
        <time>2019-04-02T13:21:10Z</time>
      </trkpt>
      <trkpt lat="47.66626" lon="3.70921">
        <ele>171</ele>
        <time>2019-04-02T13:21:14Z</time>
      </trkpt>
      <trkpt lat="47.66621" lon="3.7092">
        <ele>172</ele>
        <time>2019-04-02T13:21:18Z</time>
      </trkpt>
      <trkpt lat="47.66618" lon="3.70919">
        <ele>172</ele>
        <time>2019-04-02T13:21:20Z</time>
      </trkpt>
      <trkpt lat="47.66615" lon="3.70919">
        <ele>172</ele>
        <time>2019-04-02T13:21:23Z</time>
      </trkpt>
      <trkpt lat="47.66612" lon="3.70918">
        <ele>171</ele>
        <time>2019-04-02T13:21:26Z</time>
      </trkpt>
      <trkpt lat="47.66607" lon="3.70916">
        <ele>172</ele>
        <time>2019-04-02T13:21:31Z</time>
      </trkpt>
      <trkpt lat="47.66599" lon="3.70914">
        <ele>171</ele>
        <time>2019-04-02T13:21:38Z</time>
      </trkpt>
      <trkpt lat="47.66594" lon="3.70916">
        <ele>170</ele>
        <time>2019-04-02T13:21:43Z</time>
      </trkpt>
      <trkpt lat="47.66593" lon="3.70915">
        <ele>171</ele>
        <time>2019-04-02T13:21:52Z</time>
      </trkpt>
      <trkpt lat="47.66588" lon="3.70923">
        <ele>167</ele>
        <time>2019-04-02T13:23:59Z</time>
      </trkpt>
      <trkpt lat="47.66585" lon="3.70927">
        <ele>167</ele>
        <time>2019-04-02T13:24:02Z</time>
      </trkpt>
      <trkpt lat="47.66583" lon="3.7093">
        <ele>167</ele>
        <time>2019-04-02T13:24:04Z</time>
      </trkpt>
      <trkpt lat="47.66581" lon="3.70933">
        <ele>167</ele>
        <time>2019-04-02T13:24:06Z</time>
      </trkpt>
      <trkpt lat="47.6658" lon="3.70941">
        <ele>167</ele>
        <time>2019-04-02T13:24:11Z</time>
      </trkpt>
      <trkpt lat="47.6658" lon="3.70949">
        <ele>168</ele>
        <time>2019-04-02T13:24:15Z</time>
      </trkpt>
      <trkpt lat="47.66581" lon="3.70954">
        <ele>168</ele>
        <time>2019-04-02T13:24:18Z</time>
      </trkpt>
      <trkpt lat="47.66581" lon="3.7096">
        <ele>169</ele>
        <time>2019-04-02T13:24:21Z</time>
      </trkpt>
      <trkpt lat="47.66581" lon="3.70968">
        <ele>169</ele>
        <time>2019-04-02T13:24:26Z</time>
      </trkpt>
      <trkpt lat="47.6658" lon="3.70972">
        <ele>169</ele>
        <time>2019-04-02T13:24:28Z</time>
      </trkpt>
      <trkpt lat="47.66581" lon="3.70979">
        <ele>170</ele>
        <time>2019-04-02T13:24:32Z</time>
      </trkpt>
      <trkpt lat="47.66576" lon="3.70986">
        <ele>168</ele>
        <time>2019-04-02T13:24:38Z</time>
      </trkpt>
      <trkpt lat="47.66572" lon="3.70986">
        <ele>167</ele>
        <time>2019-04-02T13:24:44Z</time>
      </trkpt>
      <trkpt lat="47.66569" lon="3.70986">
        <ele>168</ele>
        <time>2019-04-02T13:24:47Z</time>
      </trkpt>
      <trkpt lat="47.66564" lon="3.70985">
        <ele>168</ele>
        <time>2019-04-02T13:24:51Z</time>
      </trkpt>
      <trkpt lat="47.66561" lon="3.70985">
        <ele>167</ele>
        <time>2019-04-02T13:24:53Z</time>
      </trkpt>
      <trkpt lat="47.66559" lon="3.70984">
        <ele>167</ele>
        <time>2019-04-02T13:24:55Z</time>
      </trkpt>
      <trkpt lat="47.66554" lon="3.70983">
        <ele>167</ele>
        <time>2019-04-02T13:24:58Z</time>
      </trkpt>
      <trkpt lat="47.66552" lon="3.70982">
        <ele>167</ele>
        <time>2019-04-02T13:25:01Z</time>
      </trkpt>
      <trkpt lat="47.66549" lon="3.70982">
        <ele>166</ele>
        <time>2019-04-02T13:25:03Z</time>
      </trkpt>
      <trkpt lat="47.66546" lon="3.70981">
        <ele>166</ele>
        <time>2019-04-02T13:25:04Z</time>
      </trkpt>
      <trkpt lat="47.6654" lon="3.7098">
        <ele>166</ele>
        <time>2019-04-02T13:25:08Z</time>
      </trkpt>
      <trkpt lat="47.66536" lon="3.70979">
        <ele>165</ele>
        <time>2019-04-02T13:25:12Z</time>
      </trkpt>
      <trkpt lat="47.66533" lon="3.70978">
        <ele>165</ele>
        <time>2019-04-02T13:25:14Z</time>
      </trkpt>
      <trkpt lat="47.66528" lon="3.70977">
        <ele>164</ele>
        <time>2019-04-02T13:25:18Z</time>
      </trkpt>
      <trkpt lat="47.66525" lon="3.70977">
        <ele>164</ele>
        <time>2019-04-02T13:25:20Z</time>
      </trkpt>
      <trkpt lat="47.66521" lon="3.70975">
        <ele>164</ele>
        <time>2019-04-02T13:25:23Z</time>
      </trkpt>
      <trkpt lat="47.66517" lon="3.70975">
        <ele>164</ele>
        <time>2019-04-02T13:25:26Z</time>
      </trkpt>
      <trkpt lat="47.66511" lon="3.70973">
        <ele>165</ele>
        <time>2019-04-02T13:25:32Z</time>
      </trkpt>
      <trkpt lat="47.66504" lon="3.70972">
        <ele>164</ele>
        <time>2019-04-02T13:25:36Z</time>
      </trkpt>
      <trkpt lat="47.66499" lon="3.70971">
        <ele>164</ele>
        <time>2019-04-02T13:25:39Z</time>
      </trkpt>
      <trkpt lat="47.66497" lon="3.70971">
        <ele>164</ele>
        <time>2019-04-02T13:25:42Z</time>
      </trkpt>
      <trkpt lat="47.66494" lon="3.7097">
        <ele>164</ele>
        <time>2019-04-02T13:25:44Z</time>
      </trkpt>
      <trkpt lat="47.66489" lon="3.70969">
        <ele>163</ele>
        <time>2019-04-02T13:25:48Z</time>
      </trkpt>
      <trkpt lat="47.66485" lon="3.70968">
        <ele>163</ele>
        <time>2019-04-02T13:25:52Z</time>
      </trkpt>
      <trkpt lat="47.6648" lon="3.70966">
        <ele>163</ele>
        <time>2019-04-02T13:25:54Z</time>
      </trkpt>
      <trkpt lat="47.66477" lon="3.70965">
        <ele>163</ele>
        <time>2019-04-02T13:25:57Z</time>
      </trkpt>
      <trkpt lat="47.66475" lon="3.70964">
        <ele>163</ele>
        <time>2019-04-02T13:25:59Z</time>
      </trkpt>
      <trkpt lat="47.6647" lon="3.70963">
        <ele>163</ele>
        <time>2019-04-02T13:26:03Z</time>
      </trkpt>
      <trkpt lat="47.66467" lon="3.70962">
        <ele>163</ele>
        <time>2019-04-02T13:26:05Z</time>
      </trkpt>
      <trkpt lat="47.66465" lon="3.70962">
        <ele>163</ele>
        <time>2019-04-02T13:26:07Z</time>
      </trkpt>
      <trkpt lat="47.66462" lon="3.70961">
        <ele>162</ele>
        <time>2019-04-02T13:26:09Z</time>
      </trkpt>
      <trkpt lat="47.66458" lon="3.70961">
        <ele>162</ele>
        <time>2019-04-02T13:26:12Z</time>
      </trkpt>
      <trkpt lat="47.66453" lon="3.7096">
        <ele>162</ele>
        <time>2019-04-02T13:26:17Z</time>
      </trkpt>
      <trkpt lat="47.66449" lon="3.70959">
        <ele>162</ele>
        <time>2019-04-02T13:26:20Z</time>
      </trkpt>
      <trkpt lat="47.66446" lon="3.70958">
        <ele>162</ele>
        <time>2019-04-02T13:26:22Z</time>
      </trkpt>
      <trkpt lat="47.66441" lon="3.70958">
        <ele>162</ele>
        <time>2019-04-02T13:26:25Z</time>
      </trkpt>
      <trkpt lat="47.66437" lon="3.70957">
        <ele>162</ele>
        <time>2019-04-02T13:26:27Z</time>
      </trkpt>
      <trkpt lat="47.66434" lon="3.70956">
        <ele>161</ele>
        <time>2019-04-02T13:26:29Z</time>
      </trkpt>
      <trkpt lat="47.66431" lon="3.70956">
        <ele>161</ele>
        <time>2019-04-02T13:26:31Z</time>
      </trkpt>
      <trkpt lat="47.66426" lon="3.70955">
        <ele>160</ele>
        <time>2019-04-02T13:26:34Z</time>
      </trkpt>
      <trkpt lat="47.6642" lon="3.70954">
        <ele>159</ele>
        <time>2019-04-02T13:26:39Z</time>
      </trkpt>
      <trkpt lat="47.66415" lon="3.70952">
        <ele>159</ele>
        <time>2019-04-02T13:26:42Z</time>
      </trkpt>
      <trkpt lat="47.66412" lon="3.70952">
        <ele>159</ele>
        <time>2019-04-02T13:26:44Z</time>
      </trkpt>
      <trkpt lat="47.66409" lon="3.70951">
        <ele>159</ele>
        <time>2019-04-02T13:26:46Z</time>
      </trkpt>
      <trkpt lat="47.66406" lon="3.70951">
        <ele>159</ele>
        <time>2019-04-02T13:26:48Z</time>
      </trkpt>
      <trkpt lat="47.66402" lon="3.70951">
        <ele>159</ele>
        <time>2019-04-02T13:26:52Z</time>
      </trkpt>
      <trkpt lat="47.66397" lon="3.70949">
        <ele>158</ele>
        <time>2019-04-02T13:26:56Z</time>
      </trkpt>
      <trkpt lat="47.66391" lon="3.70947">
        <ele>159</ele>
        <time>2019-04-02T13:27:00Z</time>
      </trkpt>
      <trkpt lat="47.66387" lon="3.70946">
        <ele>158</ele>
        <time>2019-04-02T13:27:02Z</time>
      </trkpt>
      <trkpt lat="47.66384" lon="3.70945">
        <ele>158</ele>
        <time>2019-04-02T13:27:04Z</time>
      </trkpt>
      <trkpt lat="47.66382" lon="3.70945">
        <ele>158</ele>
        <time>2019-04-02T13:27:06Z</time>
      </trkpt>
      <trkpt lat="47.66377" lon="3.70944">
        <ele>159</ele>
        <time>2019-04-02T13:27:10Z</time>
      </trkpt>
      <trkpt lat="47.66372" lon="3.70944">
        <ele>158</ele>
        <time>2019-04-02T13:27:13Z</time>
      </trkpt>
      <trkpt lat="47.66369" lon="3.70943">
        <ele>158</ele>
        <time>2019-04-02T13:27:15Z</time>
      </trkpt>
      <trkpt lat="47.66364" lon="3.7094">
        <ele>158</ele>
        <time>2019-04-02T13:27:19Z</time>
      </trkpt>
      <trkpt lat="47.66361" lon="3.70939">
        <ele>158</ele>
        <time>2019-04-02T13:27:22Z</time>
      </trkpt>
      <trkpt lat="47.66356" lon="3.70939">
        <ele>159</ele>
        <time>2019-04-02T13:27:26Z</time>
      </trkpt>
      <trkpt lat="47.66351" lon="3.70938">
        <ele>159</ele>
        <time>2019-04-02T13:27:30Z</time>
      </trkpt>
      <trkpt lat="47.66348" lon="3.70937">
        <ele>159</ele>
        <time>2019-04-02T13:27:33Z</time>
      </trkpt>
      <trkpt lat="47.66344" lon="3.70937">
        <ele>160</ele>
        <time>2019-04-02T13:27:36Z</time>
      </trkpt>
      <trkpt lat="47.66342" lon="3.70936">
        <ele>160</ele>
        <time>2019-04-02T13:27:39Z</time>
      </trkpt>
      <trkpt lat="47.66338" lon="3.70935">
        <ele>159</ele>
        <time>2019-04-02T13:27:42Z</time>
      </trkpt>
      <trkpt lat="47.66333" lon="3.70932">
        <ele>159</ele>
        <time>2019-04-02T13:27:46Z</time>
      </trkpt>
      <trkpt lat="47.66329" lon="3.70931">
        <ele>159</ele>
        <time>2019-04-02T13:27:49Z</time>
      </trkpt>
      <trkpt lat="47.66326" lon="3.70929">
        <ele>159</ele>
        <time>2019-04-02T13:27:52Z</time>
      </trkpt>
      <trkpt lat="47.66323" lon="3.70929">
        <ele>159</ele>
        <time>2019-04-02T13:27:54Z</time>
      </trkpt>
      <trkpt lat="47.66318" lon="3.70928">
        <ele>160</ele>
        <time>2019-04-02T13:27:57Z</time>
      </trkpt>
      <trkpt lat="47.66313" lon="3.70927">
        <ele>160</ele>
        <time>2019-04-02T13:28:01Z</time>
      </trkpt>
      <trkpt lat="47.66311" lon="3.70927">
        <ele>161</ele>
        <time>2019-04-02T13:28:03Z</time>
      </trkpt>
      <trkpt lat="47.66306" lon="3.70925">
        <ele>161</ele>
        <time>2019-04-02T13:28:08Z</time>
      </trkpt>
      <trkpt lat="47.66301" lon="3.70925">
        <ele>159</ele>
        <time>2019-04-02T13:28:12Z</time>
      </trkpt>
      <trkpt lat="47.66295" lon="3.70926">
        <ele>158</ele>
        <time>2019-04-02T13:28:17Z</time>
      </trkpt>
      <trkpt lat="47.66292" lon="3.70927">
        <ele>159</ele>
        <time>2019-04-02T13:28:20Z</time>
      </trkpt>
      <trkpt lat="47.66288" lon="3.70924">
        <ele>160</ele>
        <time>2019-04-02T13:28:25Z</time>
      </trkpt>
      <trkpt lat="47.66285" lon="3.70922">
        <ele>160</ele>
        <time>2019-04-02T13:28:27Z</time>
      </trkpt>
      <trkpt lat="47.66281" lon="3.70921">
        <ele>160</ele>
        <time>2019-04-02T13:28:31Z</time>
      </trkpt>
      <trkpt lat="47.66276" lon="3.70919">
        <ele>161</ele>
        <time>2019-04-02T13:28:35Z</time>
      </trkpt>
      <trkpt lat="47.66272" lon="3.70917">
        <ele>161</ele>
        <time>2019-04-02T13:28:38Z</time>
      </trkpt>
      <trkpt lat="47.66267" lon="3.70917">
        <ele>160</ele>
        <time>2019-04-02T13:28:42Z</time>
      </trkpt>
      <trkpt lat="47.66264" lon="3.70916">
        <ele>159</ele>
        <time>2019-04-02T13:28:45Z</time>
      </trkpt>
      <trkpt lat="47.66258" lon="3.70915">
        <ele>160</ele>
        <time>2019-04-02T13:28:50Z</time>
      </trkpt>
      <trkpt lat="47.66256" lon="3.70914">
        <ele>160</ele>
        <time>2019-04-02T13:28:53Z</time>
      </trkpt>
      <trkpt lat="47.66253" lon="3.70914">
        <ele>160</ele>
        <time>2019-04-02T13:28:55Z</time>
      </trkpt>
      <trkpt lat="47.6625" lon="3.70913">
        <ele>160</ele>
        <time>2019-04-02T13:28:57Z</time>
      </trkpt>
      <trkpt lat="47.66246" lon="3.70913">
        <ele>161</ele>
        <time>2019-04-02T13:29:01Z</time>
      </trkpt>
      <trkpt lat="47.66243" lon="3.70913">
        <ele>160</ele>
        <time>2019-04-02T13:29:04Z</time>
      </trkpt>
      <trkpt lat="47.66238" lon="3.70912">
        <ele>159</ele>
        <time>2019-04-02T13:29:08Z</time>
      </trkpt>
      <trkpt lat="47.66235" lon="3.70912">
        <ele>159</ele>
        <time>2019-04-02T13:29:10Z</time>
      </trkpt>
      <trkpt lat="47.66231" lon="3.70911">
        <ele>159</ele>
        <time>2019-04-02T13:29:13Z</time>
      </trkpt>
      <trkpt lat="47.66228" lon="3.7091">
        <ele>160</ele>
        <time>2019-04-02T13:29:16Z</time>
      </trkpt>
      <trkpt lat="47.66223" lon="3.70908">
        <ele>160</ele>
        <time>2019-04-02T13:29:21Z</time>
      </trkpt>
      <trkpt lat="47.66217" lon="3.70905">
        <ele>160</ele>
        <time>2019-04-02T13:29:27Z</time>
      </trkpt>
      <trkpt lat="47.66214" lon="3.70904">
        <ele>160</ele>
        <time>2019-04-02T13:29:29Z</time>
      </trkpt>
      <trkpt lat="47.66211" lon="3.70902">
        <ele>161</ele>
        <time>2019-04-02T13:29:32Z</time>
      </trkpt>
      <trkpt lat="47.66206" lon="3.70901">
        <ele>161</ele>
        <time>2019-04-02T13:29:35Z</time>
      </trkpt>
      <trkpt lat="47.66201" lon="3.70901">
        <ele>161</ele>
        <time>2019-04-02T13:29:39Z</time>
      </trkpt>
      <trkpt lat="47.66198" lon="3.709">
        <ele>162</ele>
        <time>2019-04-02T13:29:42Z</time>
      </trkpt>
      <trkpt lat="47.66193" lon="3.70898">
        <ele>162</ele>
        <time>2019-04-02T13:29:47Z</time>
      </trkpt>
      <trkpt lat="47.66189" lon="3.70896">
        <ele>162</ele>
        <time>2019-04-02T13:29:50Z</time>
      </trkpt>
      <trkpt lat="47.66185" lon="3.70895">
        <ele>162</ele>
        <time>2019-04-02T13:29:53Z</time>
      </trkpt>
      <trkpt lat="47.6618" lon="3.70896">
        <ele>162</ele>
        <time>2019-04-02T13:29:57Z</time>
      </trkpt>
      <trkpt lat="47.66173" lon="3.709">
        <ele>162</ele>
        <time>2019-04-02T13:30:03Z</time>
      </trkpt>
      <trkpt lat="47.66169" lon="3.70906">
        <ele>162</ele>
        <time>2019-04-02T13:30:07Z</time>
      </trkpt>
      <trkpt lat="47.66167" lon="3.70913">
        <ele>162</ele>
        <time>2019-04-02T13:30:11Z</time>
      </trkpt>
      <trkpt lat="47.66167" lon="3.70922">
        <ele>161</ele>
        <time>2019-04-02T13:30:15Z</time>
      </trkpt>
      <trkpt lat="47.66168" lon="3.7093">
        <ele>162</ele>
        <time>2019-04-02T13:30:20Z</time>
      </trkpt>
      <trkpt lat="47.66169" lon="3.70934">
        <ele>163</ele>
        <time>2019-04-02T13:30:28Z</time>
      </trkpt>
      <trkpt lat="47.66169" lon="3.70937">
        <ele>162</ele>
        <time>2019-04-02T13:30:30Z</time>
      </trkpt>
      <trkpt lat="47.66172" lon="3.70945">
        <ele>162</ele>
        <time>2019-04-02T13:30:35Z</time>
      </trkpt>
      <trkpt lat="47.66174" lon="3.70952">
        <ele>162</ele>
        <time>2019-04-02T13:30:40Z</time>
      </trkpt>
      <trkpt lat="47.66176" lon="3.70956">
        <ele>163</ele>
        <time>2019-04-02T13:30:42Z</time>
      </trkpt>
      <trkpt lat="47.66179" lon="3.70962">
        <ele>163</ele>
        <time>2019-04-02T13:30:46Z</time>
      </trkpt>
      <trkpt lat="47.66179" lon="3.7097">
        <ele>163</ele>
        <time>2019-04-02T13:30:50Z</time>
      </trkpt>
      <trkpt lat="47.66179" lon="3.70979">
        <ele>163</ele>
        <time>2019-04-02T13:30:54Z</time>
      </trkpt>
      <trkpt lat="47.66179" lon="3.70987">
        <ele>163</ele>
        <time>2019-04-02T13:30:58Z</time>
      </trkpt>
      <trkpt lat="47.66179" lon="3.7099">
        <ele>163</ele>
        <time>2019-04-02T13:31:00Z</time>
      </trkpt>
      <trkpt lat="47.66179" lon="3.70998">
        <ele>161</ele>
        <time>2019-04-02T13:31:04Z</time>
      </trkpt>
      <trkpt lat="47.66178" lon="3.71006">
        <ele>159</ele>
        <time>2019-04-02T13:31:08Z</time>
      </trkpt>
      <trkpt lat="47.66177" lon="3.7101">
        <ele>158</ele>
        <time>2019-04-02T13:31:10Z</time>
      </trkpt>
      <trkpt lat="47.66177" lon="3.71015">
        <ele>159</ele>
        <time>2019-04-02T13:31:13Z</time>
      </trkpt>
      <trkpt lat="47.66177" lon="3.71025">
        <ele>159</ele>
        <time>2019-04-02T13:31:19Z</time>
      </trkpt>
      <trkpt lat="47.66176" lon="3.71032">
        <ele>159</ele>
        <time>2019-04-02T13:31:23Z</time>
      </trkpt>
      <trkpt lat="47.66177" lon="3.71041">
        <ele>159</ele>
        <time>2019-04-02T13:31:26Z</time>
      </trkpt>
      <trkpt lat="47.66178" lon="3.71048">
        <ele>159</ele>
        <time>2019-04-02T13:31:31Z</time>
      </trkpt>
      <trkpt lat="47.66178" lon="3.71052">
        <ele>160</ele>
        <time>2019-04-02T13:31:33Z</time>
      </trkpt>
      <trkpt lat="47.66179" lon="3.71055">
        <ele>160</ele>
        <time>2019-04-02T13:31:35Z</time>
      </trkpt>
      <trkpt lat="47.66178" lon="3.71064">
        <ele>160</ele>
        <time>2019-04-02T13:31:39Z</time>
      </trkpt>
      <trkpt lat="47.66176" lon="3.71071">
        <ele>158</ele>
        <time>2019-04-02T13:31:43Z</time>
      </trkpt>
      <trkpt lat="47.66171" lon="3.71078">
        <ele>160</ele>
        <time>2019-04-02T13:31:48Z</time>
      </trkpt>
      <trkpt lat="47.6617" lon="3.71084">
        <ele>160</ele>
        <time>2019-04-02T13:31:51Z</time>
      </trkpt>
      <trkpt lat="47.6617" lon="3.71093">
        <ele>158</ele>
        <time>2019-04-02T13:31:56Z</time>
      </trkpt>
      <trkpt lat="47.66167" lon="3.71098">
        <ele>156</ele>
        <time>2019-04-02T13:32:00Z</time>
      </trkpt>
      <trkpt lat="47.66165" lon="3.71101">
        <ele>156</ele>
        <time>2019-04-02T13:32:03Z</time>
      </trkpt>
      <trkpt lat="47.66161" lon="3.71105">
        <ele>156</ele>
        <time>2019-04-02T13:32:07Z</time>
      </trkpt>
      <trkpt lat="47.66155" lon="3.7111">
        <ele>156</ele>
        <time>2019-04-02T13:32:13Z</time>
      </trkpt>
      <trkpt lat="47.6615" lon="3.71112">
        <ele>157</ele>
        <time>2019-04-02T13:32:18Z</time>
      </trkpt>
      <trkpt lat="47.66146" lon="3.71114">
        <ele>157</ele>
        <time>2019-04-02T13:32:22Z</time>
      </trkpt>
      <trkpt lat="47.66144" lon="3.71115">
        <ele>157</ele>
        <time>2019-04-02T13:32:24Z</time>
      </trkpt>
      <trkpt lat="47.6614" lon="3.71119">
        <ele>157</ele>
        <time>2019-04-02T13:32:28Z</time>
      </trkpt>
      <trkpt lat="47.66135" lon="3.71121">
        <ele>158</ele>
        <time>2019-04-02T13:32:32Z</time>
      </trkpt>
      <trkpt lat="47.66133" lon="3.71122">
        <ele>159</ele>
        <time>2019-04-02T13:32:34Z</time>
      </trkpt>
      <trkpt lat="47.66126" lon="3.71125">
        <ele>158</ele>
        <time>2019-04-02T13:32:39Z</time>
      </trkpt>
      <trkpt lat="47.66121" lon="3.71126">
        <ele>157</ele>
        <time>2019-04-02T13:32:42Z</time>
      </trkpt>
      <trkpt lat="47.66116" lon="3.7113">
        <ele>157</ele>
        <time>2019-04-02T13:32:45Z</time>
      </trkpt>
      <trkpt lat="47.66113" lon="3.71133">
        <ele>155</ele>
        <time>2019-04-02T13:32:47Z</time>
      </trkpt>
      <trkpt lat="47.6611" lon="3.71136">
        <ele>155</ele>
        <time>2019-04-02T13:32:49Z</time>
      </trkpt>
      <trkpt lat="47.66108" lon="3.71138">
        <ele>155</ele>
        <time>2019-04-02T13:32:51Z</time>
      </trkpt>
      <trkpt lat="47.66104" lon="3.71141">
        <ele>154</ele>
        <time>2019-04-02T13:32:54Z</time>
      </trkpt>
      <trkpt lat="47.661" lon="3.71145">
        <ele>155</ele>
        <time>2019-04-02T13:32:59Z</time>
      </trkpt>
      <trkpt lat="47.66098" lon="3.71148">
        <ele>156</ele>
        <time>2019-04-02T13:33:01Z</time>
      </trkpt>
      <trkpt lat="47.66094" lon="3.71151">
        <ele>155</ele>
        <time>2019-04-02T13:33:04Z</time>
      </trkpt>
      <trkpt lat="47.66088" lon="3.71154">
        <ele>155</ele>
        <time>2019-04-02T13:33:09Z</time>
      </trkpt>
      <trkpt lat="47.66085" lon="3.71155">
        <ele>154</ele>
        <time>2019-04-02T13:33:11Z</time>
      </trkpt>
      <trkpt lat="47.66081" lon="3.71158">
        <ele>156</ele>
        <time>2019-04-02T13:33:16Z</time>
      </trkpt>
      <trkpt lat="47.66075" lon="3.71165">
        <ele>157</ele>
        <time>2019-04-02T13:33:20Z</time>
      </trkpt>
      <trkpt lat="47.66071" lon="3.71169">
        <ele>157</ele>
        <time>2019-04-02T13:33:23Z</time>
      </trkpt>
      <trkpt lat="47.66066" lon="3.71171">
        <ele>157</ele>
        <time>2019-04-02T13:33:27Z</time>
      </trkpt>
      <trkpt lat="47.66062" lon="3.71175">
        <ele>159</ele>
        <time>2019-04-02T13:33:32Z</time>
      </trkpt>
      <trkpt lat="47.66059" lon="3.71177">
        <ele>159</ele>
        <time>2019-04-02T13:33:35Z</time>
      </trkpt>
      <trkpt lat="47.66057" lon="3.71183">
        <ele>159</ele>
        <time>2019-04-02T13:33:38Z</time>
      </trkpt>
      <trkpt lat="47.66052" lon="3.71191">
        <ele>160</ele>
        <time>2019-04-02T13:33:43Z</time>
      </trkpt>
      <trkpt lat="47.6605" lon="3.71194">
        <ele>161</ele>
        <time>2019-04-02T13:33:46Z</time>
      </trkpt>
      <trkpt lat="47.66046" lon="3.712">
        <ele>161</ele>
        <time>2019-04-02T13:33:49Z</time>
      </trkpt>
      <trkpt lat="47.66044" lon="3.71203">
        <ele>162</ele>
        <time>2019-04-02T13:33:51Z</time>
      </trkpt>
      <trkpt lat="47.66041" lon="3.7121">
        <ele>163</ele>
        <time>2019-04-02T13:33:56Z</time>
      </trkpt>
      <trkpt lat="47.66039" lon="3.71213">
        <ele>163</ele>
        <time>2019-04-02T13:33:59Z</time>
      </trkpt>
      <trkpt lat="47.66036" lon="3.71219">
        <ele>163</ele>
        <time>2019-04-02T13:34:03Z</time>
      </trkpt>
      <trkpt lat="47.66033" lon="3.71225">
        <ele>163</ele>
        <time>2019-04-02T13:34:06Z</time>
      </trkpt>
      <trkpt lat="47.66032" lon="3.71228">
        <ele>162</ele>
        <time>2019-04-02T13:34:08Z</time>
      </trkpt>
      <trkpt lat="47.66028" lon="3.71233">
        <ele>162</ele>
        <time>2019-04-02T13:34:12Z</time>
      </trkpt>
      <trkpt lat="47.66024" lon="3.71238">
        <ele>162</ele>
        <time>2019-04-02T13:34:16Z</time>
      </trkpt>
      <trkpt lat="47.6602" lon="3.71242">
        <ele>163</ele>
        <time>2019-04-02T13:34:19Z</time>
      </trkpt>
      <trkpt lat="47.66018" lon="3.71244">
        <ele>163</ele>
        <time>2019-04-02T13:34:21Z</time>
      </trkpt>
      <trkpt lat="47.66016" lon="3.71247">
        <ele>162</ele>
        <time>2019-04-02T13:34:24Z</time>
      </trkpt>
      <trkpt lat="47.66013" lon="3.71249">
        <ele>163</ele>
        <time>2019-04-02T13:34:26Z</time>
      </trkpt>
      <trkpt lat="47.66011" lon="3.71251">
        <ele>162</ele>
        <time>2019-04-02T13:34:28Z</time>
      </trkpt>
      <trkpt lat="47.66009" lon="3.71252">
        <ele>162</ele>
        <time>2019-04-02T13:34:30Z</time>
      </trkpt>
      <trkpt lat="47.66006" lon="3.71254">
        <ele>163</ele>
        <time>2019-04-02T13:34:32Z</time>
      </trkpt>
      <trkpt lat="47.66004" lon="3.71256">
        <ele>163</ele>
        <time>2019-04-02T13:34:34Z</time>
      </trkpt>
      <trkpt lat="47.66" lon="3.71258">
        <ele>163</ele>
        <time>2019-04-02T13:34:36Z</time>
      </trkpt>
      <trkpt lat="47.65997" lon="3.7126">
        <ele>164</ele>
        <time>2019-04-02T13:34:39Z</time>
      </trkpt>
      <trkpt lat="47.65993" lon="3.71265">
        <ele>163</ele>
        <time>2019-04-02T13:34:43Z</time>
      </trkpt>
      <trkpt lat="47.65989" lon="3.71268">
        <ele>165</ele>
        <time>2019-04-02T13:34:47Z</time>
      </trkpt>
      <trkpt lat="47.65984" lon="3.7127">
        <ele>165</ele>
        <time>2019-04-02T13:34:52Z</time>
      </trkpt>
      <trkpt lat="47.65979" lon="3.71275">
        <ele>166</ele>
        <time>2019-04-02T13:34:56Z</time>
      </trkpt>
      <trkpt lat="47.65976" lon="3.71277">
        <ele>167</ele>
        <time>2019-04-02T13:34:59Z</time>
      </trkpt>
      <trkpt lat="47.65973" lon="3.71283">
        <ele>168</ele>
        <time>2019-04-02T13:35:03Z</time>
      </trkpt>
      <trkpt lat="47.65971" lon="3.7129">
        <ele>169</ele>
        <time>2019-04-02T13:35:06Z</time>
      </trkpt>
      <trkpt lat="47.6597" lon="3.713">
        <ele>168</ele>
        <time>2019-04-02T13:35:10Z</time>
      </trkpt>
      <trkpt lat="47.65967" lon="3.71307">
        <ele>168</ele>
        <time>2019-04-02T13:35:15Z</time>
      </trkpt>
      <trkpt lat="47.65966" lon="3.71314">
        <ele>170</ele>
        <time>2019-04-02T13:35:19Z</time>
      </trkpt>
      <trkpt lat="47.65965" lon="3.7132">
        <ele>170</ele>
        <time>2019-04-02T13:35:21Z</time>
      </trkpt>
      <trkpt lat="47.65964" lon="3.71325">
        <ele>169</ele>
        <time>2019-04-02T13:35:23Z</time>
      </trkpt>
      <trkpt lat="47.65963" lon="3.7133">
        <ele>170</ele>
        <time>2019-04-02T13:35:25Z</time>
      </trkpt>
      <trkpt lat="47.65962" lon="3.71334">
        <ele>170</ele>
        <time>2019-04-02T13:35:27Z</time>
      </trkpt>
      <trkpt lat="47.65961" lon="3.71339">
        <ele>170</ele>
        <time>2019-04-02T13:35:29Z</time>
      </trkpt>
      <trkpt lat="47.6596" lon="3.71343">
        <ele>169</ele>
        <time>2019-04-02T13:35:31Z</time>
      </trkpt>
      <trkpt lat="47.6596" lon="3.71348">
        <ele>169</ele>
        <time>2019-04-02T13:35:34Z</time>
      </trkpt>
      <trkpt lat="47.65957" lon="3.71355">
        <ele>168</ele>
        <time>2019-04-02T13:35:38Z</time>
      </trkpt>
      <trkpt lat="47.65954" lon="3.71362">
        <ele>168</ele>
        <time>2019-04-02T13:35:42Z</time>
      </trkpt>
      <trkpt lat="47.65951" lon="3.71368">
        <ele>166</ele>
        <time>2019-04-02T13:35:45Z</time>
      </trkpt>
      <trkpt lat="47.65949" lon="3.71375">
        <ele>167</ele>
        <time>2019-04-02T13:35:48Z</time>
      </trkpt>
      <trkpt lat="47.65947" lon="3.71378">
        <ele>167</ele>
        <time>2019-04-02T13:35:50Z</time>
      </trkpt>
      <trkpt lat="47.65945" lon="3.71385">
        <ele>166</ele>
        <time>2019-04-02T13:35:54Z</time>
      </trkpt>
      <trkpt lat="47.65945" lon="3.71388">
        <ele>166</ele>
        <time>2019-04-02T13:35:56Z</time>
      </trkpt>
      <trkpt lat="47.65943" lon="3.71394">
        <ele>166</ele>
        <time>2019-04-02T13:36:00Z</time>
      </trkpt>
      <trkpt lat="47.6594" lon="3.714">
        <ele>167</ele>
        <time>2019-04-02T13:36:04Z</time>
      </trkpt>
      <trkpt lat="47.65937" lon="3.71408">
        <ele>168</ele>
        <time>2019-04-02T13:36:07Z</time>
      </trkpt>
      <trkpt lat="47.65934" lon="3.71414">
        <ele>167</ele>
        <time>2019-04-02T13:36:12Z</time>
      </trkpt>
      <trkpt lat="47.65932" lon="3.71418">
        <ele>168</ele>
        <time>2019-04-02T13:36:14Z</time>
      </trkpt>
      <trkpt lat="47.6593" lon="3.71424">
        <ele>168</ele>
        <time>2019-04-02T13:36:18Z</time>
      </trkpt>
      <trkpt lat="47.65927" lon="3.71431">
        <ele>167</ele>
        <time>2019-04-02T13:36:22Z</time>
      </trkpt>
      <trkpt lat="47.65925" lon="3.71434">
        <ele>167</ele>
        <time>2019-04-02T13:36:24Z</time>
      </trkpt>
      <trkpt lat="47.65923" lon="3.71442">
        <ele>167</ele>
        <time>2019-04-02T13:36:27Z</time>
      </trkpt>
      <trkpt lat="47.65921" lon="3.71448">
        <ele>167</ele>
        <time>2019-04-02T13:36:31Z</time>
      </trkpt>
      <trkpt lat="47.6592" lon="3.71452">
        <ele>167</ele>
        <time>2019-04-02T13:36:32Z</time>
      </trkpt>
      <trkpt lat="47.65918" lon="3.71458">
        <ele>166</ele>
        <time>2019-04-02T13:36:36Z</time>
      </trkpt>
      <trkpt lat="47.65918" lon="3.71463">
        <ele>166</ele>
        <time>2019-04-02T13:36:38Z</time>
      </trkpt>
      <trkpt lat="47.65915" lon="3.71469">
        <ele>166</ele>
        <time>2019-04-02T13:36:41Z</time>
      </trkpt>
      <trkpt lat="47.65914" lon="3.71474">
        <ele>165</ele>
        <time>2019-04-02T13:36:44Z</time>
      </trkpt>
      <trkpt lat="47.65913" lon="3.71477">
        <ele>164</ele>
        <time>2019-04-02T13:36:46Z</time>
      </trkpt>
      <trkpt lat="47.65912" lon="3.71481">
        <ele>165</ele>
        <time>2019-04-02T13:36:48Z</time>
      </trkpt>
      <trkpt lat="47.65911" lon="3.71484">
        <ele>165</ele>
        <time>2019-04-02T13:36:50Z</time>
      </trkpt>
      <trkpt lat="47.65909" lon="3.71491">
        <ele>165</ele>
        <time>2019-04-02T13:36:53Z</time>
      </trkpt>
      <trkpt lat="47.65908" lon="3.71496">
        <ele>164</ele>
        <time>2019-04-02T13:36:55Z</time>
      </trkpt>
      <trkpt lat="47.65907" lon="3.715">
        <ele>164</ele>
        <time>2019-04-02T13:36:58Z</time>
      </trkpt>
      <trkpt lat="47.65905" lon="3.71506">
        <ele>165</ele>
        <time>2019-04-02T13:37:01Z</time>
      </trkpt>
      <trkpt lat="47.65901" lon="3.7151">
        <ele>164</ele>
        <time>2019-04-02T13:37:03Z</time>
      </trkpt>
      <trkpt lat="47.65899" lon="3.71513">
        <ele>163</ele>
        <time>2019-04-02T13:37:05Z</time>
      </trkpt>
      <trkpt lat="47.65896" lon="3.71516">
        <ele>164</ele>
        <time>2019-04-02T13:37:09Z</time>
      </trkpt>
      <trkpt lat="47.65893" lon="3.71522">
        <ele>164</ele>
        <time>2019-04-02T13:37:11Z</time>
      </trkpt>
      <trkpt lat="47.65892" lon="3.71524">
        <ele>165</ele>
        <time>2019-04-02T13:37:13Z</time>
      </trkpt>
      <trkpt lat="47.65889" lon="3.71528">
        <ele>166</ele>
        <time>2019-04-02T13:37:16Z</time>
      </trkpt>
      <trkpt lat="47.65887" lon="3.71536">
        <ele>167</ele>
        <time>2019-04-02T13:37:20Z</time>
      </trkpt>
      <trkpt lat="47.65884" lon="3.71541">
        <ele>167</ele>
        <time>2019-04-02T13:37:23Z</time>
      </trkpt>
      <trkpt lat="47.6588" lon="3.71547">
        <ele>168</ele>
        <time>2019-04-02T13:37:27Z</time>
      </trkpt>
      <trkpt lat="47.65877" lon="3.71553">
        <ele>169</ele>
        <time>2019-04-02T13:37:32Z</time>
      </trkpt>
      <trkpt lat="47.65874" lon="3.7156">
        <ele>169</ele>
        <time>2019-04-02T13:37:36Z</time>
      </trkpt>
      <trkpt lat="47.65869" lon="3.71566">
        <ele>169</ele>
        <time>2019-04-02T13:37:40Z</time>
      </trkpt>
      <trkpt lat="47.65865" lon="3.71572">
        <ele>169</ele>
        <time>2019-04-02T13:37:44Z</time>
      </trkpt>
      <trkpt lat="47.65862" lon="3.71577">
        <ele>169</ele>
        <time>2019-04-02T13:37:47Z</time>
      </trkpt>
      <trkpt lat="47.6586" lon="3.71582">
        <ele>168</ele>
        <time>2019-04-02T13:37:51Z</time>
      </trkpt>
      <trkpt lat="47.65857" lon="3.71587">
        <ele>169</ele>
        <time>2019-04-02T13:37:54Z</time>
      </trkpt>
      <trkpt lat="47.65856" lon="3.71591">
        <ele>168</ele>
        <time>2019-04-02T13:37:55Z</time>
      </trkpt>
      <trkpt lat="47.65854" lon="3.71594">
        <ele>168</ele>
        <time>2019-04-02T13:37:57Z</time>
      </trkpt>
      <trkpt lat="47.65852" lon="3.71598">
        <ele>168</ele>
        <time>2019-04-02T13:37:59Z</time>
      </trkpt>
      <trkpt lat="47.65849" lon="3.71605">
        <ele>168</ele>
        <time>2019-04-02T13:38:03Z</time>
      </trkpt>
      <trkpt lat="47.65846" lon="3.7161">
        <ele>169</ele>
        <time>2019-04-02T13:38:07Z</time>
      </trkpt>
      <trkpt lat="47.65843" lon="3.71617">
        <ele>169</ele>
        <time>2019-04-02T13:38:11Z</time>
      </trkpt>
      <trkpt lat="47.65841" lon="3.71622">
        <ele>169</ele>
        <time>2019-04-02T13:38:14Z</time>
      </trkpt>
      <trkpt lat="47.65838" lon="3.71627">
        <ele>169</ele>
        <time>2019-04-02T13:38:17Z</time>
      </trkpt>
      <trkpt lat="47.65836" lon="3.71631">
        <ele>169</ele>
        <time>2019-04-02T13:38:19Z</time>
      </trkpt>
      <trkpt lat="47.65832" lon="3.71636">
        <ele>169</ele>
        <time>2019-04-02T13:38:23Z</time>
      </trkpt>
      <trkpt lat="47.6583" lon="3.7164">
        <ele>169</ele>
        <time>2019-04-02T13:38:25Z</time>
      </trkpt>
      <trkpt lat="47.65827" lon="3.71647">
        <ele>168</ele>
        <time>2019-04-02T13:38:29Z</time>
      </trkpt>
      <trkpt lat="47.65824" lon="3.71654">
        <ele>168</ele>
        <time>2019-04-02T13:38:33Z</time>
      </trkpt>
      <trkpt lat="47.65823" lon="3.71657">
        <ele>168</ele>
        <time>2019-04-02T13:38:35Z</time>
      </trkpt>
      <trkpt lat="47.6582" lon="3.71663">
        <ele>167</ele>
        <time>2019-04-02T13:38:39Z</time>
      </trkpt>
      <trkpt lat="47.65818" lon="3.71666">
        <ele>167</ele>
        <time>2019-04-02T13:38:41Z</time>
      </trkpt>
      <trkpt lat="47.65816" lon="3.71669">
        <ele>167</ele>
        <time>2019-04-02T13:38:44Z</time>
      </trkpt>
      <trkpt lat="47.65815" lon="3.71672">
        <ele>168</ele>
        <time>2019-04-02T13:38:46Z</time>
      </trkpt>
      <trkpt lat="47.65812" lon="3.71677">
        <ele>167</ele>
        <time>2019-04-02T13:38:49Z</time>
      </trkpt>
      <trkpt lat="47.6581" lon="3.71683">
        <ele>167</ele>
        <time>2019-04-02T13:38:52Z</time>
      </trkpt>
      <trkpt lat="47.65807" lon="3.7169">
        <ele>167</ele>
        <time>2019-04-02T13:38:56Z</time>
      </trkpt>
      <trkpt lat="47.65806" lon="3.71694">
        <ele>167</ele>
        <time>2019-04-02T13:38:58Z</time>
      </trkpt>
      <trkpt lat="47.65803" lon="3.71701">
        <ele>168</ele>
        <time>2019-04-02T13:39:02Z</time>
      </trkpt>
      <trkpt lat="47.65801" lon="3.71704">
        <ele>168</ele>
        <time>2019-04-02T13:39:04Z</time>
      </trkpt>
      <trkpt lat="47.658" lon="3.71707">
        <ele>169</ele>
        <time>2019-04-02T13:39:06Z</time>
      </trkpt>
      <trkpt lat="47.65797" lon="3.71714">
        <ele>169</ele>
        <time>2019-04-02T13:39:10Z</time>
      </trkpt>
      <trkpt lat="47.65795" lon="3.71718">
        <ele>169</ele>
        <time>2019-04-02T13:39:12Z</time>
      </trkpt>
      <trkpt lat="47.65794" lon="3.71722">
        <ele>169</ele>
        <time>2019-04-02T13:39:14Z</time>
      </trkpt>
      <trkpt lat="47.65792" lon="3.71726">
        <ele>168</ele>
        <time>2019-04-02T13:39:16Z</time>
      </trkpt>
      <trkpt lat="47.65791" lon="3.71729">
        <ele>169</ele>
        <time>2019-04-02T13:39:18Z</time>
      </trkpt>
      <trkpt lat="47.65788" lon="3.71734">
        <ele>168</ele>
        <time>2019-04-02T13:39:21Z</time>
      </trkpt>
      <trkpt lat="47.65786" lon="3.71741">
        <ele>169</ele>
        <time>2019-04-02T13:39:25Z</time>
      </trkpt>
      <trkpt lat="47.65785" lon="3.71745">
        <ele>169</ele>
        <time>2019-04-02T13:39:27Z</time>
      </trkpt>
      <trkpt lat="47.65783" lon="3.71754">
        <ele>170</ele>
        <time>2019-04-02T13:39:31Z</time>
      </trkpt>
      <trkpt lat="47.6578" lon="3.71761">
        <ele>170</ele>
        <time>2019-04-02T13:39:34Z</time>
      </trkpt>
      <trkpt lat="47.65779" lon="3.71768">
        <ele>170</ele>
        <time>2019-04-02T13:39:37Z</time>
      </trkpt>
      <trkpt lat="47.65776" lon="3.71773">
        <ele>170</ele>
        <time>2019-04-02T13:39:40Z</time>
      </trkpt>
      <trkpt lat="47.65775" lon="3.71776">
        <ele>171</ele>
        <time>2019-04-02T13:39:42Z</time>
      </trkpt>
      <trkpt lat="47.65772" lon="3.71783">
        <ele>170</ele>
        <time>2019-04-02T13:39:45Z</time>
      </trkpt>
      <trkpt lat="47.6577" lon="3.71788">
        <ele>170</ele>
        <time>2019-04-02T13:39:48Z</time>
      </trkpt>
      <trkpt lat="47.65768" lon="3.71794">
        <ele>171</ele>
        <time>2019-04-02T13:39:51Z</time>
      </trkpt>
      <trkpt lat="47.65767" lon="3.71799">
        <ele>171</ele>
        <time>2019-04-02T13:39:54Z</time>
      </trkpt>
      <trkpt lat="47.65765" lon="3.71806">
        <ele>172</ele>
        <time>2019-04-02T13:39:58Z</time>
      </trkpt>
      <trkpt lat="47.65764" lon="3.71813">
        <ele>172</ele>
        <time>2019-04-02T13:40:01Z</time>
      </trkpt>
      <trkpt lat="47.65762" lon="3.71821">
        <ele>173</ele>
        <time>2019-04-02T13:40:05Z</time>
      </trkpt>
      <trkpt lat="47.6576" lon="3.71827">
        <ele>173</ele>
        <time>2019-04-02T13:40:08Z</time>
      </trkpt>
      <trkpt lat="47.65759" lon="3.71833">
        <ele>173</ele>
        <time>2019-04-02T13:40:11Z</time>
      </trkpt>
      <trkpt lat="47.65758" lon="3.71837">
        <ele>173</ele>
        <time>2019-04-02T13:40:13Z</time>
      </trkpt>
      <trkpt lat="47.65757" lon="3.71841">
        <ele>173</ele>
        <time>2019-04-02T13:40:15Z</time>
      </trkpt>
      <trkpt lat="47.65756" lon="3.71846">
        <ele>173</ele>
        <time>2019-04-02T13:40:18Z</time>
      </trkpt>
      <trkpt lat="47.65755" lon="3.71849">
        <ele>173</ele>
        <time>2019-04-02T13:40:20Z</time>
      </trkpt>
      <trkpt lat="47.65753" lon="3.71856">
        <ele>173</ele>
        <time>2019-04-02T13:40:24Z</time>
      </trkpt>
      <trkpt lat="47.65751" lon="3.71862">
        <ele>173</ele>
        <time>2019-04-02T13:40:27Z</time>
      </trkpt>
      <trkpt lat="47.6575" lon="3.71866">
        <ele>172</ele>
        <time>2019-04-02T13:40:29Z</time>
      </trkpt>
      <trkpt lat="47.65749" lon="3.71874">
        <ele>173</ele>
        <time>2019-04-02T13:40:32Z</time>
      </trkpt>
      <trkpt lat="47.65747" lon="3.71882">
        <ele>173</ele>
        <time>2019-04-02T13:40:37Z</time>
      </trkpt>
      <trkpt lat="47.65746" lon="3.71886">
        <ele>173</ele>
        <time>2019-04-02T13:40:39Z</time>
      </trkpt>
      <trkpt lat="47.65745" lon="3.7189">
        <ele>173</ele>
        <time>2019-04-02T13:40:40Z</time>
      </trkpt>
      <trkpt lat="47.65744" lon="3.71896">
        <ele>174</ele>
        <time>2019-04-02T13:40:44Z</time>
      </trkpt>
      <trkpt lat="47.65742" lon="3.71902">
        <ele>173</ele>
        <time>2019-04-02T13:40:47Z</time>
      </trkpt>
      <trkpt lat="47.65741" lon="3.71906">
        <ele>173</ele>
        <time>2019-04-02T13:40:49Z</time>
      </trkpt>
      <trkpt lat="47.65739" lon="3.71916">
        <ele>173</ele>
        <time>2019-04-02T13:40:54Z</time>
      </trkpt>
      <trkpt lat="47.65738" lon="3.7192">
        <ele>173</ele>
        <time>2019-04-02T13:40:55Z</time>
      </trkpt>
      <trkpt lat="47.65737" lon="3.71924">
        <ele>174</ele>
        <time>2019-04-02T13:40:58Z</time>
      </trkpt>
      <trkpt lat="47.65736" lon="3.71927">
        <ele>174</ele>
        <time>2019-04-02T13:41:00Z</time>
      </trkpt>
      <trkpt lat="47.65735" lon="3.71936">
        <ele>173</ele>
        <time>2019-04-02T13:41:03Z</time>
      </trkpt>
      <trkpt lat="47.65732" lon="3.71943">
        <ele>173</ele>
        <time>2019-04-02T13:41:08Z</time>
      </trkpt>
      <trkpt lat="47.6573" lon="3.71951">
        <ele>173</ele>
        <time>2019-04-02T13:41:11Z</time>
      </trkpt>
      <trkpt lat="47.65729" lon="3.71955">
        <ele>173</ele>
        <time>2019-04-02T13:41:13Z</time>
      </trkpt>
      <trkpt lat="47.65728" lon="3.71961">
        <ele>174</ele>
        <time>2019-04-02T13:41:16Z</time>
      </trkpt>
      <trkpt lat="47.65727" lon="3.71968">
        <ele>174</ele>
        <time>2019-04-02T13:41:20Z</time>
      </trkpt>
      <trkpt lat="47.65725" lon="3.71976">
        <ele>174</ele>
        <time>2019-04-02T13:41:24Z</time>
      </trkpt>
      <trkpt lat="47.65724" lon="3.71984">
        <ele>174</ele>
        <time>2019-04-02T13:41:28Z</time>
      </trkpt>
      <trkpt lat="47.65723" lon="3.71989">
        <ele>175</ele>
        <time>2019-04-02T13:41:31Z</time>
      </trkpt>
      <trkpt lat="47.65722" lon="3.71993">
        <ele>174</ele>
        <time>2019-04-02T13:41:33Z</time>
      </trkpt>
      <trkpt lat="47.65722" lon="3.71997">
        <ele>175</ele>
        <time>2019-04-02T13:41:34Z</time>
      </trkpt>
      <trkpt lat="47.6572" lon="3.72004">
        <ele>175</ele>
        <time>2019-04-02T13:41:38Z</time>
      </trkpt>
      <trkpt lat="47.65718" lon="3.72012">
        <ele>176</ele>
        <time>2019-04-02T13:41:42Z</time>
      </trkpt>
      <trkpt lat="47.65716" lon="3.7202">
        <ele>176</ele>
        <time>2019-04-02T13:41:46Z</time>
      </trkpt>
      <trkpt lat="47.65715" lon="3.72027">
        <ele>176</ele>
        <time>2019-04-02T13:41:49Z</time>
      </trkpt>
      <trkpt lat="47.65714" lon="3.72031">
        <ele>175</ele>
        <time>2019-04-02T13:41:51Z</time>
      </trkpt>
      <trkpt lat="47.65713" lon="3.72034">
        <ele>175</ele>
        <time>2019-04-02T13:41:54Z</time>
      </trkpt>
      <trkpt lat="47.65711" lon="3.72042">
        <ele>174</ele>
        <time>2019-04-02T13:41:58Z</time>
      </trkpt>
      <trkpt lat="47.6571" lon="3.72049">
        <ele>174</ele>
        <time>2019-04-02T13:42:02Z</time>
      </trkpt>
      <trkpt lat="47.65708" lon="3.72056">
        <ele>174</ele>
        <time>2019-04-02T13:42:06Z</time>
      </trkpt>
      <trkpt lat="47.65706" lon="3.72059">
        <ele>174</ele>
        <time>2019-04-02T13:42:08Z</time>
      </trkpt>
      <trkpt lat="47.65704" lon="3.7207">
        <ele>175</ele>
        <time>2019-04-02T13:42:12Z</time>
      </trkpt>
      <trkpt lat="47.65702" lon="3.72079">
        <ele>174</ele>
        <time>2019-04-02T13:42:16Z</time>
      </trkpt>
      <trkpt lat="47.65702" lon="3.72083">
        <ele>174</ele>
        <time>2019-04-02T13:42:18Z</time>
      </trkpt>
      <trkpt lat="47.65699" lon="3.72091">
        <ele>174</ele>
        <time>2019-04-02T13:42:22Z</time>
      </trkpt>
      <trkpt lat="47.65698" lon="3.72098">
        <ele>173</ele>
        <time>2019-04-02T13:42:26Z</time>
      </trkpt>
      <trkpt lat="47.65697" lon="3.72103">
        <ele>173</ele>
        <time>2019-04-02T13:42:28Z</time>
      </trkpt>
      <trkpt lat="47.65697" lon="3.72109">
        <ele>172</ele>
        <time>2019-04-02T13:42:31Z</time>
      </trkpt>
      <trkpt lat="47.65695" lon="3.72117">
        <ele>171</ele>
        <time>2019-04-02T13:42:36Z</time>
      </trkpt>
      <trkpt lat="47.65693" lon="3.72125">
        <ele>171</ele>
        <time>2019-04-02T13:42:39Z</time>
      </trkpt>
      <trkpt lat="47.65692" lon="3.72129">
        <ele>172</ele>
        <time>2019-04-02T13:42:41Z</time>
      </trkpt>
      <trkpt lat="47.65692" lon="3.72133">
        <ele>172</ele>
        <time>2019-04-02T13:42:43Z</time>
      </trkpt>
      <trkpt lat="47.65689" lon="3.7214">
        <ele>171</ele>
        <time>2019-04-02T13:42:47Z</time>
      </trkpt>
      <trkpt lat="47.65688" lon="3.72144">
        <ele>171</ele>
        <time>2019-04-02T13:42:49Z</time>
      </trkpt>
      <trkpt lat="47.65686" lon="3.72152">
        <ele>171</ele>
        <time>2019-04-02T13:42:53Z</time>
      </trkpt>
      <trkpt lat="47.65684" lon="3.72158">
        <ele>171</ele>
        <time>2019-04-02T13:42:56Z</time>
      </trkpt>
      <trkpt lat="47.65683" lon="3.72162">
        <ele>172</ele>
        <time>2019-04-02T13:42:58Z</time>
      </trkpt>
      <trkpt lat="47.65681" lon="3.72168">
        <ele>172</ele>
        <time>2019-04-02T13:43:02Z</time>
      </trkpt>
      <trkpt lat="47.65679" lon="3.72176">
        <ele>173</ele>
        <time>2019-04-02T13:43:06Z</time>
      </trkpt>
      <trkpt lat="47.65677" lon="3.72182">
        <ele>173</ele>
        <time>2019-04-02T13:43:09Z</time>
      </trkpt>
      <trkpt lat="47.65675" lon="3.72188">
        <ele>172</ele>
        <time>2019-04-02T13:43:12Z</time>
      </trkpt>
      <trkpt lat="47.65674" lon="3.72191">
        <ele>172</ele>
        <time>2019-04-02T13:43:14Z</time>
      </trkpt>
      <trkpt lat="47.65672" lon="3.72195">
        <ele>172</ele>
        <time>2019-04-02T13:43:16Z</time>
      </trkpt>
      <trkpt lat="47.65671" lon="3.72199">
        <ele>172</ele>
        <time>2019-04-02T13:43:18Z</time>
      </trkpt>
      <trkpt lat="47.65669" lon="3.72202">
        <ele>172</ele>
        <time>2019-04-02T13:43:20Z</time>
      </trkpt>
      <trkpt lat="47.65667" lon="3.7221">
        <ele>173</ele>
        <time>2019-04-02T13:43:24Z</time>
      </trkpt>
      <trkpt lat="47.65665" lon="3.72215">
        <ele>173</ele>
        <time>2019-04-02T13:43:27Z</time>
      </trkpt>
      <trkpt lat="47.65664" lon="3.72218">
        <ele>173</ele>
        <time>2019-04-02T13:43:29Z</time>
      </trkpt>
      <trkpt lat="47.65662" lon="3.72222">
        <ele>173</ele>
        <time>2019-04-02T13:43:31Z</time>
      </trkpt>
      <trkpt lat="47.6566" lon="3.72228">
        <ele>174</ele>
        <time>2019-04-02T13:43:34Z</time>
      </trkpt>
      <trkpt lat="47.65659" lon="3.72232">
        <ele>174</ele>
        <time>2019-04-02T13:43:37Z</time>
      </trkpt>
      <trkpt lat="47.65656" lon="3.72237">
        <ele>174</ele>
        <time>2019-04-02T13:43:41Z</time>
      </trkpt>
      <trkpt lat="47.65653" lon="3.72245">
        <ele>175</ele>
        <time>2019-04-02T13:43:44Z</time>
      </trkpt>
      <trkpt lat="47.6565" lon="3.72252">
        <ele>175</ele>
        <time>2019-04-02T13:43:48Z</time>
      </trkpt>
      <trkpt lat="47.65647" lon="3.72258">
        <ele>174</ele>
        <time>2019-04-02T13:43:51Z</time>
      </trkpt>
      <trkpt lat="47.65645" lon="3.72266">
        <ele>175</ele>
        <time>2019-04-02T13:43:56Z</time>
      </trkpt>
      <trkpt lat="47.65642" lon="3.72274">
        <ele>175</ele>
        <time>2019-04-02T13:44:00Z</time>
      </trkpt>
      <trkpt lat="47.6564" lon="3.72278">
        <ele>175</ele>
        <time>2019-04-02T13:44:02Z</time>
      </trkpt>
      <trkpt lat="47.65639" lon="3.72282">
        <ele>175</ele>
        <time>2019-04-02T13:44:04Z</time>
      </trkpt>
      <trkpt lat="47.65636" lon="3.72288">
        <ele>175</ele>
        <time>2019-04-02T13:44:08Z</time>
      </trkpt>
      <trkpt lat="47.65633" lon="3.72295">
        <ele>175</ele>
        <time>2019-04-02T13:44:12Z</time>
      </trkpt>
      <trkpt lat="47.65632" lon="3.72299">
        <ele>176</ele>
        <time>2019-04-02T13:44:14Z</time>
      </trkpt>
      <trkpt lat="47.6563" lon="3.72303">
        <ele>176</ele>
        <time>2019-04-02T13:44:16Z</time>
      </trkpt>
      <trkpt lat="47.65628" lon="3.72311">
        <ele>177</ele>
        <time>2019-04-02T13:44:20Z</time>
      </trkpt>
      <trkpt lat="47.65627" lon="3.72315">
        <ele>178</ele>
        <time>2019-04-02T13:44:22Z</time>
      </trkpt>
      <trkpt lat="47.65625" lon="3.72318">
        <ele>178</ele>
        <time>2019-04-02T13:44:24Z</time>
      </trkpt>
      <trkpt lat="47.65623" lon="3.72323">
        <ele>177</ele>
        <time>2019-04-02T13:44:27Z</time>
      </trkpt>
      <trkpt lat="47.65621" lon="3.72327">
        <ele>177</ele>
        <time>2019-04-02T13:44:29Z</time>
      </trkpt>
      <trkpt lat="47.65619" lon="3.72334">
        <ele>177</ele>
        <time>2019-04-02T13:44:33Z</time>
      </trkpt>
      <trkpt lat="47.65618" lon="3.72337">
        <ele>177</ele>
        <time>2019-04-02T13:44:35Z</time>
      </trkpt>
      <trkpt lat="47.65617" lon="3.72341">
        <ele>177</ele>
        <time>2019-04-02T13:44:37Z</time>
      </trkpt>
      <trkpt lat="47.65614" lon="3.72348">
        <ele>177</ele>
        <time>2019-04-02T13:44:41Z</time>
      </trkpt>
      <trkpt lat="47.65613" lon="3.72351">
        <ele>178</ele>
        <time>2019-04-02T13:44:43Z</time>
      </trkpt>
      <trkpt lat="47.65611" lon="3.72355">
        <ele>178</ele>
        <time>2019-04-02T13:44:45Z</time>
      </trkpt>
      <trkpt lat="47.65608" lon="3.72361">
        <ele>177</ele>
        <time>2019-04-02T13:44:48Z</time>
      </trkpt>
      <trkpt lat="47.65606" lon="3.72369">
        <ele>178</ele>
        <time>2019-04-02T13:44:53Z</time>
      </trkpt>
      <trkpt lat="47.65603" lon="3.72376">
        <ele>177</ele>
        <time>2019-04-02T13:44:57Z</time>
      </trkpt>
      <trkpt lat="47.65601" lon="3.7238">
        <ele>177</ele>
        <time>2019-04-02T13:44:59Z</time>
      </trkpt>
      <trkpt lat="47.65599" lon="3.72384">
        <ele>178</ele>
        <time>2019-04-02T13:45:01Z</time>
      </trkpt>
      <trkpt lat="47.65596" lon="3.7239">
        <ele>178</ele>
        <time>2019-04-02T13:45:05Z</time>
      </trkpt>
      <trkpt lat="47.65592" lon="3.72397">
        <ele>179</ele>
        <time>2019-04-02T13:45:09Z</time>
      </trkpt>
      <trkpt lat="47.6559" lon="3.72404">
        <ele>178</ele>
        <time>2019-04-02T13:45:12Z</time>
      </trkpt>
      <trkpt lat="47.65587" lon="3.7241">
        <ele>177</ele>
        <time>2019-04-02T13:45:16Z</time>
      </trkpt>
      <trkpt lat="47.65584" lon="3.72414">
        <ele>176</ele>
        <time>2019-04-02T13:45:19Z</time>
      </trkpt>
      <trkpt lat="47.65582" lon="3.72418">
        <ele>176</ele>
        <time>2019-04-02T13:45:21Z</time>
      </trkpt>
      <trkpt lat="47.6558" lon="3.72421">
        <ele>176</ele>
        <time>2019-04-02T13:45:23Z</time>
      </trkpt>
      <trkpt lat="47.65579" lon="3.72424">
        <ele>175</ele>
        <time>2019-04-02T13:45:25Z</time>
      </trkpt>
      <trkpt lat="47.65576" lon="3.72427">
        <ele>175</ele>
        <time>2019-04-02T13:45:27Z</time>
      </trkpt>
      <trkpt lat="47.65574" lon="3.7243">
        <ele>175</ele>
        <time>2019-04-02T13:45:29Z</time>
      </trkpt>
      <trkpt lat="47.6557" lon="3.72435">
        <ele>174</ele>
        <time>2019-04-02T13:45:33Z</time>
      </trkpt>
      <trkpt lat="47.65567" lon="3.7244">
        <ele>174</ele>
        <time>2019-04-02T13:45:37Z</time>
      </trkpt>
      <trkpt lat="47.65565" lon="3.72443">
        <ele>174</ele>
        <time>2019-04-02T13:45:38Z</time>
      </trkpt>
      <trkpt lat="47.65563" lon="3.72446">
        <ele>175</ele>
        <time>2019-04-02T13:45:40Z</time>
      </trkpt>
      <trkpt lat="47.6556" lon="3.72451">
        <ele>175</ele>
        <time>2019-04-02T13:45:43Z</time>
      </trkpt>
      <trkpt lat="47.65557" lon="3.72459">
        <ele>174</ele>
        <time>2019-04-02T13:45:48Z</time>
      </trkpt>
      <trkpt lat="47.65556" lon="3.72463">
        <ele>173</ele>
        <time>2019-04-02T13:45:50Z</time>
      </trkpt>
      <trkpt lat="47.65553" lon="3.72468">
        <ele>175</ele>
        <time>2019-04-02T13:45:53Z</time>
      </trkpt>
      <trkpt lat="47.65551" lon="3.72472">
        <ele>175</ele>
        <time>2019-04-02T13:45:54Z</time>
      </trkpt>
      <trkpt lat="47.65549" lon="3.72476">
        <ele>175</ele>
        <time>2019-04-02T13:45:56Z</time>
      </trkpt>
      <trkpt lat="47.65545" lon="3.72482">
        <ele>175</ele>
        <time>2019-04-02T13:46:01Z</time>
      </trkpt>
      <trkpt lat="47.65541" lon="3.72488">
        <ele>174</ele>
        <time>2019-04-02T13:46:05Z</time>
      </trkpt>
      <trkpt lat="47.65538" lon="3.72493">
        <ele>174</ele>
        <time>2019-04-02T13:46:08Z</time>
      </trkpt>
      <trkpt lat="47.65535" lon="3.72497">
        <ele>174</ele>
        <time>2019-04-02T13:46:11Z</time>
      </trkpt>
      <trkpt lat="47.6553" lon="3.72502">
        <ele>174</ele>
        <time>2019-04-02T13:46:15Z</time>
      </trkpt>
      <trkpt lat="47.65527" lon="3.72508">
        <ele>173</ele>
        <time>2019-04-02T13:46:19Z</time>
      </trkpt>
      <trkpt lat="47.65522" lon="3.72513">
        <ele>173</ele>
        <time>2019-04-02T13:46:23Z</time>
      </trkpt>
      <trkpt lat="47.65519" lon="3.72517">
        <ele>173</ele>
        <time>2019-04-02T13:46:26Z</time>
      </trkpt>
      <trkpt lat="47.65516" lon="3.7252">
        <ele>172</ele>
        <time>2019-04-02T13:46:28Z</time>
      </trkpt>
      <trkpt lat="47.65513" lon="3.72524">
        <ele>172</ele>
        <time>2019-04-02T13:46:32Z</time>
      </trkpt>
      <trkpt lat="47.65508" lon="3.72528">
        <ele>172</ele>
        <time>2019-04-02T13:46:36Z</time>
      </trkpt>
      <trkpt lat="47.65504" lon="3.72532">
        <ele>172</ele>
        <time>2019-04-02T13:46:40Z</time>
      </trkpt>
      <trkpt lat="47.65501" lon="3.72535">
        <ele>172</ele>
        <time>2019-04-02T13:46:42Z</time>
      </trkpt>
      <trkpt lat="47.65498" lon="3.72538">
        <ele>173</ele>
        <time>2019-04-02T13:46:46Z</time>
      </trkpt>
      <trkpt lat="47.65493" lon="3.72541">
        <ele>173</ele>
        <time>2019-04-02T13:46:52Z</time>
      </trkpt>
      <trkpt lat="47.65489" lon="3.72546">
        <ele>173</ele>
        <time>2019-04-02T13:46:56Z</time>
      </trkpt>
      <trkpt lat="47.65483" lon="3.72549">
        <ele>173</ele>
        <time>2019-04-02T13:47:01Z</time>
      </trkpt>
      <trkpt lat="47.65481" lon="3.7255">
        <ele>173</ele>
        <time>2019-04-02T13:47:03Z</time>
      </trkpt>
      <trkpt lat="47.65476" lon="3.72551">
        <ele>171</ele>
        <time>2019-04-02T13:47:06Z</time>
      </trkpt>
      <trkpt lat="47.65473" lon="3.72551">
        <ele>171</ele>
        <time>2019-04-02T13:47:08Z</time>
      </trkpt>
      <trkpt lat="47.6547" lon="3.72552">
        <ele>171</ele>
        <time>2019-04-02T13:47:10Z</time>
      </trkpt>
      <trkpt lat="47.65467" lon="3.72553">
        <ele>170</ele>
        <time>2019-04-02T13:47:12Z</time>
      </trkpt>
      <trkpt lat="47.65461" lon="3.72558">
        <ele>169</ele>
        <time>2019-04-02T13:47:17Z</time>
      </trkpt>
      <trkpt lat="47.65457" lon="3.72562">
        <ele>169</ele>
        <time>2019-04-02T13:47:21Z</time>
      </trkpt>
      <trkpt lat="47.65453" lon="3.72565">
        <ele>168</ele>
        <time>2019-04-02T13:47:25Z</time>
      </trkpt>
      <trkpt lat="47.65449" lon="3.72568">
        <ele>167</ele>
        <time>2019-04-02T13:47:28Z</time>
      </trkpt>
      <trkpt lat="47.65442" lon="3.72571">
        <ele>167</ele>
        <time>2019-04-02T13:47:32Z</time>
      </trkpt>
      <trkpt lat="47.65437" lon="3.72572">
        <ele>169</ele>
        <time>2019-04-02T13:47:37Z</time>
      </trkpt>
      <trkpt lat="47.65433" lon="3.72576">
        <ele>169</ele>
        <time>2019-04-02T13:47:40Z</time>
      </trkpt>
      <trkpt lat="47.6543" lon="3.72578">
        <ele>170</ele>
        <time>2019-04-02T13:47:41Z</time>
      </trkpt>
      <trkpt lat="47.65425" lon="3.7258">
        <ele>169</ele>
        <time>2019-04-02T13:47:45Z</time>
      </trkpt>
      <trkpt lat="47.65421" lon="3.72581">
        <ele>170</ele>
        <time>2019-04-02T13:47:47Z</time>
      </trkpt>
      <trkpt lat="47.65417" lon="3.72585">
        <ele>168</ele>
        <time>2019-04-02T13:47:52Z</time>
      </trkpt>
      <trkpt lat="47.65415" lon="3.72587">
        <ele>167</ele>
        <time>2019-04-02T13:47:53Z</time>
      </trkpt>
      <trkpt lat="47.65411" lon="3.7259">
        <ele>166</ele>
        <time>2019-04-02T13:47:57Z</time>
      </trkpt>
      <trkpt lat="47.65405" lon="3.72594">
        <ele>165</ele>
        <time>2019-04-02T13:48:02Z</time>
      </trkpt>
      <trkpt lat="47.65402" lon="3.72596">
        <ele>164</ele>
        <time>2019-04-02T13:48:04Z</time>
      </trkpt>
      <trkpt lat="47.65397" lon="3.726">
        <ele>163</ele>
        <time>2019-04-02T13:48:08Z</time>
      </trkpt>
      <trkpt lat="47.65392" lon="3.72602">
        <ele>163</ele>
        <time>2019-04-02T13:48:12Z</time>
      </trkpt>
      <trkpt lat="47.65387" lon="3.72604">
        <ele>164</ele>
        <time>2019-04-02T13:48:15Z</time>
      </trkpt>
      <trkpt lat="47.65381" lon="3.72606">
        <ele>163</ele>
        <time>2019-04-02T13:48:18Z</time>
      </trkpt>
      <trkpt lat="47.65376" lon="3.72607">
        <ele>162</ele>
        <time>2019-04-02T13:48:21Z</time>
      </trkpt>
      <trkpt lat="47.65371" lon="3.72608">
        <ele>161</ele>
        <time>2019-04-02T13:48:26Z</time>
      </trkpt>
      <trkpt lat="47.65369" lon="3.72609">
        <ele>161</ele>
        <time>2019-04-02T13:48:27Z</time>
      </trkpt>
      <trkpt lat="47.65363" lon="3.7261">
        <ele>161</ele>
        <time>2019-04-02T13:48:31Z</time>
      </trkpt>
      <trkpt lat="47.6536" lon="3.7261">
        <ele>160</ele>
        <time>2019-04-02T13:48:34Z</time>
      </trkpt>
      <trkpt lat="47.65354" lon="3.72612">
        <ele>159</ele>
        <time>2019-04-02T13:48:38Z</time>
      </trkpt>
      <trkpt lat="47.6535" lon="3.72613">
        <ele>159</ele>
        <time>2019-04-02T13:48:42Z</time>
      </trkpt>
      <trkpt lat="47.65347" lon="3.72613">
        <ele>160</ele>
        <time>2019-04-02T13:48:44Z</time>
      </trkpt>
      <trkpt lat="47.65344" lon="3.72614">
        <ele>160</ele>
        <time>2019-04-02T13:48:46Z</time>
      </trkpt>
      <trkpt lat="47.65341" lon="3.72615">
        <ele>160</ele>
        <time>2019-04-02T13:48:48Z</time>
      </trkpt>
      <trkpt lat="47.65336" lon="3.72617">
        <ele>160</ele>
        <time>2019-04-02T13:48:52Z</time>
      </trkpt>
      <trkpt lat="47.65331" lon="3.72619">
        <ele>160</ele>
        <time>2019-04-02T13:48:55Z</time>
      </trkpt>
      <trkpt lat="47.65326" lon="3.72619">
        <ele>159</ele>
        <time>2019-04-02T13:48:59Z</time>
      </trkpt>
      <trkpt lat="47.65319" lon="3.72621">
        <ele>160</ele>
        <time>2019-04-02T13:49:03Z</time>
      </trkpt>
      <trkpt lat="47.65314" lon="3.72621">
        <ele>160</ele>
        <time>2019-04-02T13:49:07Z</time>
      </trkpt>
      <trkpt lat="47.65309" lon="3.72623">
        <ele>162</ele>
        <time>2019-04-02T13:49:10Z</time>
      </trkpt>
      <trkpt lat="47.65304" lon="3.72626">
        <ele>162</ele>
        <time>2019-04-02T13:49:13Z</time>
      </trkpt>
      <trkpt lat="47.65298" lon="3.72629">
        <ele>161</ele>
        <time>2019-04-02T13:49:17Z</time>
      </trkpt>
      <trkpt lat="47.65296" lon="3.7263">
        <ele>160</ele>
        <time>2019-04-02T13:49:19Z</time>
      </trkpt>
      <trkpt lat="47.6529" lon="3.72632">
        <ele>158</ele>
        <time>2019-04-02T13:49:24Z</time>
      </trkpt>
      <trkpt lat="47.65287" lon="3.72633">
        <ele>159</ele>
        <time>2019-04-02T13:49:26Z</time>
      </trkpt>
      <trkpt lat="47.65281" lon="3.72634">
        <ele>160</ele>
        <time>2019-04-02T13:49:31Z</time>
      </trkpt>
      <trkpt lat="47.65273" lon="3.72637">
        <ele>160</ele>
        <time>2019-04-02T13:49:36Z</time>
      </trkpt>
      <trkpt lat="47.65266" lon="3.72636">
        <ele>159</ele>
        <time>2019-04-02T13:49:41Z</time>
      </trkpt>
      <trkpt lat="47.65262" lon="3.72635">
        <ele>159</ele>
        <time>2019-04-02T13:49:42Z</time>
      </trkpt>
      <trkpt lat="47.65259" lon="3.72634">
        <ele>160</ele>
        <time>2019-04-02T13:49:44Z</time>
      </trkpt>
      <trkpt lat="47.65255" lon="3.72634">
        <ele>162</ele>
        <time>2019-04-02T13:49:50Z</time>
      </trkpt>
      <trkpt lat="47.6525" lon="3.72633">
        <ele>162</ele>
        <time>2019-04-02T13:49:53Z</time>
      </trkpt>
      <trkpt lat="47.65246" lon="3.72632">
        <ele>162</ele>
        <time>2019-04-02T13:49:57Z</time>
      </trkpt>
      <trkpt lat="47.65241" lon="3.7263">
        <ele>161</ele>
        <time>2019-04-02T13:50:00Z</time>
      </trkpt>
      <trkpt lat="47.65237" lon="3.72627">
        <ele>162</ele>
        <time>2019-04-02T13:50:03Z</time>
      </trkpt>
      <trkpt lat="47.65231" lon="3.72626">
        <ele>163</ele>
        <time>2019-04-02T13:50:07Z</time>
      </trkpt>
      <trkpt lat="47.65227" lon="3.72624">
        <ele>164</ele>
        <time>2019-04-02T13:50:10Z</time>
      </trkpt>
      <trkpt lat="47.65222" lon="3.72626">
        <ele>165</ele>
        <time>2019-04-02T13:50:13Z</time>
      </trkpt>
      <trkpt lat="47.65214" lon="3.72626">
        <ele>165</ele>
        <time>2019-04-02T13:50:18Z</time>
      </trkpt>
      <trkpt lat="47.65211" lon="3.72626">
        <ele>165</ele>
        <time>2019-04-02T13:50:23Z</time>
      </trkpt>
      <trkpt lat="47.65206" lon="3.72626">
        <ele>166</ele>
        <time>2019-04-02T13:50:25Z</time>
      </trkpt>
      <trkpt lat="47.65203" lon="3.72625">
        <ele>166</ele>
        <time>2019-04-02T13:50:26Z</time>
      </trkpt>
      <trkpt lat="47.65198" lon="3.72623">
        <ele>168</ele>
        <time>2019-04-02T13:50:32Z</time>
      </trkpt>
      <trkpt lat="47.65191" lon="3.72622">
        <ele>169</ele>
        <time>2019-04-02T13:50:36Z</time>
      </trkpt>
      <trkpt lat="47.65186" lon="3.72622">
        <ele>168</ele>
        <time>2019-04-02T13:50:39Z</time>
      </trkpt>
      <trkpt lat="47.6518" lon="3.72621">
        <ele>168</ele>
        <time>2019-04-02T13:50:42Z</time>
      </trkpt>
      <trkpt lat="47.65176" lon="3.72619">
        <ele>168</ele>
        <time>2019-04-02T13:50:45Z</time>
      </trkpt>
      <trkpt lat="47.65173" lon="3.72618">
        <ele>168</ele>
        <time>2019-04-02T13:50:48Z</time>
      </trkpt>
      <trkpt lat="47.65168" lon="3.72616">
        <ele>168</ele>
        <time>2019-04-02T13:50:52Z</time>
      </trkpt>
      <trkpt lat="47.65162" lon="3.72617">
        <ele>166</ele>
        <time>2019-04-02T13:50:58Z</time>
      </trkpt>
      <trkpt lat="47.65157" lon="3.72617">
        <ele>165</ele>
        <time>2019-04-02T13:51:02Z</time>
      </trkpt>
      <trkpt lat="47.65154" lon="3.72617">
        <ele>164</ele>
        <time>2019-04-02T13:51:04Z</time>
      </trkpt>
      <trkpt lat="47.65148" lon="3.72616">
        <ele>165</ele>
        <time>2019-04-02T13:51:08Z</time>
      </trkpt>
      <trkpt lat="47.65143" lon="3.72614">
        <ele>167</ele>
        <time>2019-04-02T13:51:13Z</time>
      </trkpt>
      <trkpt lat="47.65135" lon="3.72613">
        <ele>167</ele>
        <time>2019-04-02T13:51:18Z</time>
      </trkpt>
      <trkpt lat="47.65129" lon="3.72613">
        <ele>168</ele>
        <time>2019-04-02T13:51:21Z</time>
      </trkpt>
      <trkpt lat="47.65124" lon="3.72612">
        <ele>168</ele>
        <time>2019-04-02T13:51:24Z</time>
      </trkpt>
      <trkpt lat="47.65119" lon="3.72613">
        <ele>169</ele>
        <time>2019-04-02T13:51:29Z</time>
      </trkpt>
      <trkpt lat="47.65109" lon="3.7261">
        <ele>168</ele>
        <time>2019-04-02T13:51:33Z</time>
      </trkpt>
      <trkpt lat="47.65103" lon="3.72609">
        <ele>170</ele>
        <time>2019-04-02T13:51:38Z</time>
      </trkpt>
      <trkpt lat="47.65098" lon="3.72607">
        <ele>169</ele>
        <time>2019-04-02T13:51:41Z</time>
      </trkpt>
      <trkpt lat="47.65091" lon="3.72607">
        <ele>169</ele>
        <time>2019-04-02T13:51:45Z</time>
      </trkpt>
      <trkpt lat="47.65086" lon="3.72605">
        <ele>169</ele>
        <time>2019-04-02T13:51:47Z</time>
      </trkpt>
      <trkpt lat="47.65082" lon="3.72606">
        <ele>169</ele>
        <time>2019-04-02T13:51:51Z</time>
      </trkpt>
      <trkpt lat="47.65079" lon="3.72606">
        <ele>169</ele>
        <time>2019-04-02T13:51:53Z</time>
      </trkpt>
      <trkpt lat="47.65074" lon="3.72604">
        <ele>167</ele>
        <time>2019-04-02T13:51:57Z</time>
      </trkpt>
      <trkpt lat="47.65069" lon="3.72604">
        <ele>168</ele>
        <time>2019-04-02T13:52:00Z</time>
      </trkpt>
      <trkpt lat="47.65067" lon="3.72603">
        <ele>168</ele>
        <time>2019-04-02T13:52:02Z</time>
      </trkpt>
      <trkpt lat="47.65062" lon="3.72602">
        <ele>168</ele>
        <time>2019-04-02T13:52:07Z</time>
      </trkpt>
      <trkpt lat="47.65057" lon="3.726">
        <ele>169</ele>
        <time>2019-04-02T13:52:10Z</time>
      </trkpt>
      <trkpt lat="47.6505" lon="3.72597">
        <ele>169</ele>
        <time>2019-04-02T13:52:16Z</time>
      </trkpt>
      <trkpt lat="47.65043" lon="3.72594">
        <ele>169</ele>
        <time>2019-04-02T13:52:21Z</time>
      </trkpt>
      <trkpt lat="47.65038" lon="3.72592">
        <ele>169</ele>
        <time>2019-04-02T13:52:24Z</time>
      </trkpt>
      <trkpt lat="47.65032" lon="3.72593">
        <ele>167</ele>
        <time>2019-04-02T13:52:27Z</time>
      </trkpt>
      <trkpt lat="47.65027" lon="3.7259">
        <ele>168</ele>
        <time>2019-04-02T13:52:31Z</time>
      </trkpt>
      <trkpt lat="47.65021" lon="3.72588">
        <ele>167</ele>
        <time>2019-04-02T13:52:35Z</time>
      </trkpt>
      <trkpt lat="47.65016" lon="3.72587">
        <ele>168</ele>
        <time>2019-04-02T13:52:38Z</time>
      </trkpt>
      <trkpt lat="47.65013" lon="3.72586">
        <ele>169</ele>
        <time>2019-04-02T13:52:40Z</time>
      </trkpt>
      <trkpt lat="47.65009" lon="3.72585">
        <ele>169</ele>
        <time>2019-04-02T13:52:43Z</time>
      </trkpt>
      <trkpt lat="47.65005" lon="3.72582">
        <ele>169</ele>
        <time>2019-04-02T13:52:45Z</time>
      </trkpt>
      <trkpt lat="47.65" lon="3.72581">
        <ele>170</ele>
        <time>2019-04-02T13:52:47Z</time>
      </trkpt>
      <trkpt lat="47.64997" lon="3.7258">
        <ele>170</ele>
        <time>2019-04-02T13:52:49Z</time>
      </trkpt>
      <trkpt lat="47.64991" lon="3.72576">
        <ele>171</ele>
        <time>2019-04-02T13:52:55Z</time>
      </trkpt>
      <trkpt lat="47.64985" lon="3.72575">
        <ele>172</ele>
        <time>2019-04-02T13:52:57Z</time>
      </trkpt>
      <trkpt lat="47.6498" lon="3.72572">
        <ele>172</ele>
        <time>2019-04-02T13:53:00Z</time>
      </trkpt>
      <trkpt lat="47.64977" lon="3.72571">
        <ele>173</ele>
        <time>2019-04-02T13:53:02Z</time>
      </trkpt>
      <trkpt lat="47.64972" lon="3.72569">
        <ele>174</ele>
        <time>2019-04-02T13:53:05Z</time>
      </trkpt>
      <trkpt lat="47.64964" lon="3.72568">
        <ele>176</ele>
        <time>2019-04-02T13:53:11Z</time>
      </trkpt>
      <trkpt lat="47.64959" lon="3.72564">
        <ele>176</ele>
        <time>2019-04-02T13:53:14Z</time>
      </trkpt>
      <trkpt lat="47.64955" lon="3.7256">
        <ele>176</ele>
        <time>2019-04-02T13:53:17Z</time>
      </trkpt>
      <trkpt lat="47.6495" lon="3.72559">
        <ele>178</ele>
        <time>2019-04-02T13:53:21Z</time>
      </trkpt>
      <trkpt lat="47.64945" lon="3.72557">
        <ele>179</ele>
        <time>2019-04-02T13:53:27Z</time>
      </trkpt>
      <trkpt lat="47.6494" lon="3.72554">
        <ele>180</ele>
        <time>2019-04-02T13:53:31Z</time>
      </trkpt>
      <trkpt lat="47.64936" lon="3.72551">
        <ele>182</ele>
        <time>2019-04-02T13:53:35Z</time>
      </trkpt>
      <trkpt lat="47.64931" lon="3.7255">
        <ele>182</ele>
        <time>2019-04-02T13:53:38Z</time>
      </trkpt>
      <trkpt lat="47.64926" lon="3.72548">
        <ele>183</ele>
        <time>2019-04-02T13:53:41Z</time>
      </trkpt>
      <trkpt lat="47.64924" lon="3.72547">
        <ele>184</ele>
        <time>2019-04-02T13:53:43Z</time>
      </trkpt>
      <trkpt lat="47.64919" lon="3.72544">
        <ele>185</ele>
        <time>2019-04-02T13:53:46Z</time>
      </trkpt>
      <trkpt lat="47.64915" lon="3.72544">
        <ele>186</ele>
        <time>2019-04-02T13:53:49Z</time>
      </trkpt>
      <trkpt lat="47.6491" lon="3.7254">
        <ele>189</ele>
        <time>2019-04-02T13:53:52Z</time>
      </trkpt>
      <trkpt lat="47.64903" lon="3.72538">
        <ele>190</ele>
        <time>2019-04-02T13:53:57Z</time>
      </trkpt>
      <trkpt lat="47.64897" lon="3.72535">
        <ele>189</ele>
        <time>2019-04-02T13:54:02Z</time>
      </trkpt>
      <trkpt lat="47.64892" lon="3.72533">
        <ele>191</ele>
        <time>2019-04-02T13:54:07Z</time>
      </trkpt>
      <trkpt lat="47.64885" lon="3.72531">
        <ele>192</ele>
        <time>2019-04-02T13:54:12Z</time>
      </trkpt>
      <trkpt lat="47.64878" lon="3.72528">
        <ele>193</ele>
        <time>2019-04-02T13:54:16Z</time>
      </trkpt>
      <trkpt lat="47.64873" lon="3.72528">
        <ele>194</ele>
        <time>2019-04-02T13:54:19Z</time>
      </trkpt>
      <trkpt lat="47.64868" lon="3.72527">
        <ele>195</ele>
        <time>2019-04-02T13:54:22Z</time>
      </trkpt>
      <trkpt lat="47.64861" lon="3.72526">
        <ele>197</ele>
        <time>2019-04-02T13:54:27Z</time>
      </trkpt>
      <trkpt lat="47.64858" lon="3.72525">
        <ele>197</ele>
        <time>2019-04-02T13:54:30Z</time>
      </trkpt>
      <trkpt lat="47.64853" lon="3.72523">
        <ele>199</ele>
        <time>2019-04-02T13:54:34Z</time>
      </trkpt>
      <trkpt lat="47.64846" lon="3.72523">
        <ele>198</ele>
        <time>2019-04-02T13:54:37Z</time>
      </trkpt>
      <trkpt lat="47.64841" lon="3.7252">
        <ele>197</ele>
        <time>2019-04-02T13:54:40Z</time>
      </trkpt>
      <trkpt lat="47.64835" lon="3.72518">
        <ele>198</ele>
        <time>2019-04-02T13:54:44Z</time>
      </trkpt>
      <trkpt lat="47.64832" lon="3.72517">
        <ele>198</ele>
        <time>2019-04-02T13:54:46Z</time>
      </trkpt>
      <trkpt lat="47.64828" lon="3.72514">
        <ele>198</ele>
        <time>2019-04-02T13:54:49Z</time>
      </trkpt>
      <trkpt lat="47.64824" lon="3.72511">
        <ele>198</ele>
        <time>2019-04-02T13:54:54Z</time>
      </trkpt>
      <trkpt lat="47.64816" lon="3.72508">
        <ele>199</ele>
        <time>2019-04-02T13:54:59Z</time>
      </trkpt>
      <trkpt lat="47.64809" lon="3.72505">
        <ele>200</ele>
        <time>2019-04-02T13:55:02Z</time>
      </trkpt>
      <trkpt lat="47.64805" lon="3.72506">
        <ele>202</ele>
        <time>2019-04-02T13:55:06Z</time>
      </trkpt>
      <trkpt lat="47.64799" lon="3.72505">
        <ele>202</ele>
        <time>2019-04-02T13:55:10Z</time>
      </trkpt>
      <trkpt lat="47.64793" lon="3.72501">
        <ele>202</ele>
        <time>2019-04-02T13:55:14Z</time>
      </trkpt>
      <trkpt lat="47.64787" lon="3.72499">
        <ele>202</ele>
        <time>2019-04-02T13:55:17Z</time>
      </trkpt>
      <trkpt lat="47.64783" lon="3.72497">
        <ele>203</ele>
        <time>2019-04-02T13:55:20Z</time>
      </trkpt>
      <trkpt lat="47.64775" lon="3.72493">
        <ele>205</ele>
        <time>2019-04-02T13:55:26Z</time>
      </trkpt>
      <trkpt lat="47.64769" lon="3.72493">
        <ele>205</ele>
        <time>2019-04-02T13:55:29Z</time>
      </trkpt>
      <trkpt lat="47.64767" lon="3.72493">
        <ele>204</ele>
        <time>2019-04-02T13:55:31Z</time>
      </trkpt>
      <trkpt lat="47.6476" lon="3.7249">
        <ele>204</ele>
        <time>2019-04-02T13:55:35Z</time>
      </trkpt>
      <trkpt lat="47.64756" lon="3.72488">
        <ele>205</ele>
        <time>2019-04-02T13:55:37Z</time>
      </trkpt>
      <trkpt lat="47.64751" lon="3.72487">
        <ele>206</ele>
        <time>2019-04-02T13:55:40Z</time>
      </trkpt>
      <trkpt lat="47.64744" lon="3.72487">
        <ele>206</ele>
        <time>2019-04-02T13:55:44Z</time>
      </trkpt>
      <trkpt lat="47.6474" lon="3.72486">
        <ele>205</ele>
        <time>2019-04-02T13:55:48Z</time>
      </trkpt>
      <trkpt lat="47.64735" lon="3.72485">
        <ele>204</ele>
        <time>2019-04-02T13:55:51Z</time>
      </trkpt>
      <trkpt lat="47.64729" lon="3.72486">
        <ele>205</ele>
        <time>2019-04-02T13:55:56Z</time>
      </trkpt>
      <trkpt lat="47.64724" lon="3.72487">
        <ele>204</ele>
        <time>2019-04-02T13:55:58Z</time>
      </trkpt>
      <trkpt lat="47.64718" lon="3.72486">
        <ele>204</ele>
        <time>2019-04-02T13:56:02Z</time>
      </trkpt>
      <trkpt lat="47.64713" lon="3.72488">
        <ele>204</ele>
        <time>2019-04-02T13:56:06Z</time>
      </trkpt>
      <trkpt lat="47.64708" lon="3.72487">
        <ele>204</ele>
        <time>2019-04-02T13:56:09Z</time>
      </trkpt>
      <trkpt lat="47.64704" lon="3.72486">
        <ele>204</ele>
        <time>2019-04-02T13:56:12Z</time>
      </trkpt>
      <trkpt lat="47.647" lon="3.72486">
        <ele>204</ele>
        <time>2019-04-02T13:56:15Z</time>
      </trkpt>
      <trkpt lat="47.64695" lon="3.72488">
        <ele>204</ele>
        <time>2019-04-02T13:56:21Z</time>
      </trkpt>
      <trkpt lat="47.64691" lon="3.72489">
        <ele>203</ele>
        <time>2019-04-02T13:56:23Z</time>
      </trkpt>
      <trkpt lat="47.64686" lon="3.72488">
        <ele>203</ele>
        <time>2019-04-02T13:56:26Z</time>
      </trkpt>
      <trkpt lat="47.64679" lon="3.7249">
        <ele>202</ele>
        <time>2019-04-02T13:56:30Z</time>
      </trkpt>
      <trkpt lat="47.64675" lon="3.72489">
        <ele>203</ele>
        <time>2019-04-02T13:56:33Z</time>
      </trkpt>
      <trkpt lat="47.6467" lon="3.72491">
        <ele>202</ele>
        <time>2019-04-02T13:56:36Z</time>
      </trkpt>
      <trkpt lat="47.64665" lon="3.72491">
        <ele>204</ele>
        <time>2019-04-02T13:56:40Z</time>
      </trkpt>
      <trkpt lat="47.64656" lon="3.72495">
        <ele>204</ele>
        <time>2019-04-02T13:56:45Z</time>
      </trkpt>
      <trkpt lat="47.6465" lon="3.72497">
        <ele>204</ele>
        <time>2019-04-02T13:56:48Z</time>
      </trkpt>
      <trkpt lat="47.64646" lon="3.725">
        <ele>202</ele>
        <time>2019-04-02T13:56:51Z</time>
      </trkpt>
      <trkpt lat="47.64644" lon="3.72502">
        <ele>202</ele>
        <time>2019-04-02T13:56:53Z</time>
      </trkpt>
      <trkpt lat="47.64641" lon="3.72505">
        <ele>203</ele>
        <time>2019-04-02T13:56:55Z</time>
      </trkpt>
      <trkpt lat="47.64636" lon="3.72508">
        <ele>200</ele>
        <time>2019-04-02T13:57:01Z</time>
      </trkpt>
      <trkpt lat="47.64629" lon="3.72506">
        <ele>199</ele>
        <time>2019-04-02T13:57:06Z</time>
      </trkpt>
      <trkpt lat="47.64624" lon="3.72507">
        <ele>200</ele>
        <time>2019-04-02T13:57:10Z</time>
      </trkpt>
      <trkpt lat="47.64619" lon="3.72511">
        <ele>201</ele>
        <time>2019-04-02T13:57:15Z</time>
      </trkpt>
      <trkpt lat="47.64616" lon="3.72512">
        <ele>201</ele>
        <time>2019-04-02T13:57:19Z</time>
      </trkpt>
      <trkpt lat="47.64613" lon="3.72515">
        <ele>200</ele>
        <time>2019-04-02T13:57:22Z</time>
      </trkpt>
      <trkpt lat="47.64608" lon="3.72519">
        <ele>200</ele>
        <time>2019-04-02T13:57:26Z</time>
      </trkpt>
      <trkpt lat="47.64601" lon="3.7252">
        <ele>200</ele>
        <time>2019-04-02T13:57:32Z</time>
      </trkpt>
      <trkpt lat="47.64596" lon="3.72525">
        <ele>201</ele>
        <time>2019-04-02T13:57:36Z</time>
      </trkpt>
      <trkpt lat="47.64588" lon="3.72528">
        <ele>202</ele>
        <time>2019-04-02T13:57:41Z</time>
      </trkpt>
      <trkpt lat="47.64583" lon="3.72529">
        <ele>201</ele>
        <time>2019-04-02T13:57:45Z</time>
      </trkpt>
      <trkpt lat="47.6458" lon="3.7253">
        <ele>201</ele>
        <time>2019-04-02T13:57:47Z</time>
      </trkpt>
      <trkpt lat="47.64576" lon="3.72533">
        <ele>201</ele>
        <time>2019-04-02T13:57:50Z</time>
      </trkpt>
      <trkpt lat="47.64572" lon="3.72534">
        <ele>201</ele>
        <time>2019-04-02T13:57:53Z</time>
      </trkpt>
      <trkpt lat="47.64567" lon="3.72539">
        <ele>201</ele>
        <time>2019-04-02T13:57:57Z</time>
      </trkpt>
      <trkpt lat="47.64562" lon="3.72542">
        <ele>200</ele>
        <time>2019-04-02T13:58:01Z</time>
      </trkpt>
      <trkpt lat="47.64555" lon="3.72544">
        <ele>200</ele>
        <time>2019-04-02T13:58:06Z</time>
      </trkpt>
      <trkpt lat="47.64547" lon="3.72548">
        <ele>201</ele>
        <time>2019-04-02T13:58:12Z</time>
      </trkpt>
      <trkpt lat="47.64542" lon="3.72551">
        <ele>200</ele>
        <time>2019-04-02T13:58:15Z</time>
      </trkpt>
      <trkpt lat="47.64538" lon="3.72556">
        <ele>201</ele>
        <time>2019-04-02T13:58:20Z</time>
      </trkpt>
      <trkpt lat="47.64533" lon="3.72559">
        <ele>202</ele>
        <time>2019-04-02T13:58:23Z</time>
      </trkpt>
      <trkpt lat="47.64527" lon="3.72561">
        <ele>201</ele>
        <time>2019-04-02T13:58:26Z</time>
      </trkpt>
      <trkpt lat="47.64524" lon="3.72562">
        <ele>201</ele>
        <time>2019-04-02T13:58:28Z</time>
      </trkpt>
      <trkpt lat="47.64519" lon="3.72564">
        <ele>201</ele>
        <time>2019-04-02T13:58:32Z</time>
      </trkpt>
      <trkpt lat="47.64513" lon="3.72566">
        <ele>201</ele>
        <time>2019-04-02T13:58:36Z</time>
      </trkpt>
      <trkpt lat="47.64511" lon="3.72567">
        <ele>201</ele>
        <time>2019-04-02T13:58:38Z</time>
      </trkpt>
      <trkpt lat="47.64506" lon="3.7257">
        <ele>201</ele>
        <time>2019-04-02T13:58:43Z</time>
      </trkpt>
      <trkpt lat="47.645" lon="3.7257">
        <ele>201</ele>
        <time>2019-04-02T13:58:47Z</time>
      </trkpt>
      <trkpt lat="47.64495" lon="3.72575">
        <ele>201</ele>
        <time>2019-04-02T13:58:51Z</time>
      </trkpt>
      <trkpt lat="47.64492" lon="3.72578">
        <ele>201</ele>
        <time>2019-04-02T13:58:54Z</time>
      </trkpt>
      <trkpt lat="47.64487" lon="3.72583">
        <ele>200</ele>
        <time>2019-04-02T13:58:57Z</time>
      </trkpt>
      <trkpt lat="47.6448" lon="3.72587">
        <ele>199</ele>
        <time>2019-04-02T13:59:01Z</time>
      </trkpt>
      <trkpt lat="47.64477" lon="3.72591">
        <ele>198</ele>
        <time>2019-04-02T13:59:03Z</time>
      </trkpt>
      <trkpt lat="47.64472" lon="3.72593">
        <ele>198</ele>
        <time>2019-04-02T13:59:06Z</time>
      </trkpt>
      <trkpt lat="47.64468" lon="3.72597">
        <ele>198</ele>
        <time>2019-04-02T13:59:09Z</time>
      </trkpt>
      <trkpt lat="47.64466" lon="3.726">
        <ele>198</ele>
        <time>2019-04-02T13:59:12Z</time>
      </trkpt>
      <trkpt lat="47.64464" lon="3.72607">
        <ele>198</ele>
        <time>2019-04-02T13:59:19Z</time>
      </trkpt>
      <trkpt lat="47.64465" lon="3.72611">
        <ele>197</ele>
        <time>2019-04-02T13:59:28Z</time>
      </trkpt>
      <trkpt lat="47.64463" lon="3.72605">
        <ele>195</ele>
        <time>2019-04-02T14:10:46Z</time>
      </trkpt>
      <trkpt lat="47.64456" lon="3.7261">
        <ele>196</ele>
        <time>2019-04-02T14:10:53Z</time>
      </trkpt>
      <trkpt lat="47.64452" lon="3.72612">
        <ele>197</ele>
        <time>2019-04-02T14:10:58Z</time>
      </trkpt>
      <trkpt lat="47.64449" lon="3.72613">
        <ele>198</ele>
        <time>2019-04-02T14:11:01Z</time>
      </trkpt>
      <trkpt lat="47.64445" lon="3.72618">
        <ele>198</ele>
        <time>2019-04-02T14:11:07Z</time>
      </trkpt>
      <trkpt lat="47.64441" lon="3.7262">
        <ele>199</ele>
        <time>2019-04-02T14:11:13Z</time>
      </trkpt>
      <trkpt lat="47.64436" lon="3.72627">
        <ele>199</ele>
        <time>2019-04-02T14:11:17Z</time>
      </trkpt>
      <trkpt lat="47.64432" lon="3.72631">
        <ele>200</ele>
        <time>2019-04-02T14:11:22Z</time>
      </trkpt>
      <trkpt lat="47.64428" lon="3.72637">
        <ele>200</ele>
        <time>2019-04-02T14:11:27Z</time>
      </trkpt>
      <trkpt lat="47.64421" lon="3.72642">
        <ele>200</ele>
        <time>2019-04-02T14:11:32Z</time>
      </trkpt>
      <trkpt lat="47.64418" lon="3.72644">
        <ele>201</ele>
        <time>2019-04-02T14:11:36Z</time>
      </trkpt>
      <trkpt lat="47.64414" lon="3.72648">
        <ele>201</ele>
        <time>2019-04-02T14:11:42Z</time>
      </trkpt>
      <trkpt lat="47.64407" lon="3.72652">
        <ele>202</ele>
        <time>2019-04-02T14:11:49Z</time>
      </trkpt>
      <trkpt lat="47.64403" lon="3.72653">
        <ele>202</ele>
        <time>2019-04-02T14:11:52Z</time>
      </trkpt>
      <trkpt lat="47.64398" lon="3.72658">
        <ele>202</ele>
        <time>2019-04-02T14:11:58Z</time>
      </trkpt>
      <trkpt lat="47.64394" lon="3.72663">
        <ele>202</ele>
        <time>2019-04-02T14:12:02Z</time>
      </trkpt>
      <trkpt lat="47.6439" lon="3.72669">
        <ele>202</ele>
        <time>2019-04-02T14:12:06Z</time>
      </trkpt>
      <trkpt lat="47.64386" lon="3.72674">
        <ele>203</ele>
        <time>2019-04-02T14:12:10Z</time>
      </trkpt>
      <trkpt lat="47.64383" lon="3.7268">
        <ele>202</ele>
        <time>2019-04-02T14:12:14Z</time>
      </trkpt>
      <trkpt lat="47.64379" lon="3.72685">
        <ele>202</ele>
        <time>2019-04-02T14:12:18Z</time>
      </trkpt>
      <trkpt lat="47.64374" lon="3.7269">
        <ele>201</ele>
        <time>2019-04-02T14:12:23Z</time>
      </trkpt>
      <trkpt lat="47.64369" lon="3.72695">
        <ele>200</ele>
        <time>2019-04-02T14:12:27Z</time>
      </trkpt>
      <trkpt lat="47.64366" lon="3.72702">
        <ele>199</ele>
        <time>2019-04-02T14:12:32Z</time>
      </trkpt>
      <trkpt lat="47.64364" lon="3.72705">
        <ele>200</ele>
        <time>2019-04-02T14:12:34Z</time>
      </trkpt>
      <trkpt lat="47.64361" lon="3.7271">
        <ele>199</ele>
        <time>2019-04-02T14:12:37Z</time>
      </trkpt>
      <trkpt lat="47.64358" lon="3.72715">
        <ele>199</ele>
        <time>2019-04-02T14:12:40Z</time>
      </trkpt>
      <trkpt lat="47.64355" lon="3.7272">
        <ele>197</ele>
        <time>2019-04-02T14:12:44Z</time>
      </trkpt>
      <trkpt lat="47.64352" lon="3.72723">
        <ele>198</ele>
        <time>2019-04-02T14:12:47Z</time>
      </trkpt>
      <trkpt lat="47.64351" lon="3.7273">
        <ele>198</ele>
        <time>2019-04-02T14:12:52Z</time>
      </trkpt>
      <trkpt lat="47.64348" lon="3.72735">
        <ele>198</ele>
        <time>2019-04-02T14:12:56Z</time>
      </trkpt>
      <trkpt lat="47.64343" lon="3.72739">
        <ele>198</ele>
        <time>2019-04-02T14:13:01Z</time>
      </trkpt>
      <trkpt lat="47.64339" lon="3.7274">
        <ele>199</ele>
        <time>2019-04-02T14:13:03Z</time>
      </trkpt>
      <trkpt lat="47.64335" lon="3.72745">
        <ele>198</ele>
        <time>2019-04-02T14:13:07Z</time>
      </trkpt>
      <trkpt lat="47.64332" lon="3.72751">
        <ele>198</ele>
        <time>2019-04-02T14:13:11Z</time>
      </trkpt>
      <trkpt lat="47.64328" lon="3.72757">
        <ele>198</ele>
        <time>2019-04-02T14:13:15Z</time>
      </trkpt>
      <trkpt lat="47.64326" lon="3.7276">
        <ele>197</ele>
        <time>2019-04-02T14:13:17Z</time>
      </trkpt>
      <trkpt lat="47.64321" lon="3.72769">
        <ele>197</ele>
        <time>2019-04-02T14:13:22Z</time>
      </trkpt>
      <trkpt lat="47.64318" lon="3.72774">
        <ele>196</ele>
        <time>2019-04-02T14:13:25Z</time>
      </trkpt>
      <trkpt lat="47.64315" lon="3.72781">
        <ele>196</ele>
        <time>2019-04-02T14:13:30Z</time>
      </trkpt>
      <trkpt lat="47.64312" lon="3.72786">
        <ele>195</ele>
        <time>2019-04-02T14:13:33Z</time>
      </trkpt>
      <trkpt lat="47.64308" lon="3.72794">
        <ele>194</ele>
        <time>2019-04-02T14:13:40Z</time>
      </trkpt>
      <trkpt lat="47.64305" lon="3.72801">
        <ele>194</ele>
        <time>2019-04-02T14:13:47Z</time>
      </trkpt>
      <trkpt lat="47.64301" lon="3.72806">
        <ele>192</ele>
        <time>2019-04-02T14:13:50Z</time>
      </trkpt>
      <trkpt lat="47.64298" lon="3.72813">
        <ele>192</ele>
        <time>2019-04-02T14:13:54Z</time>
      </trkpt>
      <trkpt lat="47.64296" lon="3.72816">
        <ele>191</ele>
        <time>2019-04-02T14:13:56Z</time>
      </trkpt>
      <trkpt lat="47.64295" lon="3.72823">
        <ele>191</ele>
        <time>2019-04-02T14:14:00Z</time>
      </trkpt>
      <trkpt lat="47.64291" lon="3.72827">
        <ele>190</ele>
        <time>2019-04-02T14:14:04Z</time>
      </trkpt>
      <trkpt lat="47.64287" lon="3.72832">
        <ele>191</ele>
        <time>2019-04-02T14:14:09Z</time>
      </trkpt>
      <trkpt lat="47.64281" lon="3.72837">
        <ele>190</ele>
        <time>2019-04-02T14:14:13Z</time>
      </trkpt>
      <trkpt lat="47.64278" lon="3.72842">
        <ele>189</ele>
        <time>2019-04-02T14:14:18Z</time>
      </trkpt>
      <trkpt lat="47.64273" lon="3.72843">
        <ele>188</ele>
        <time>2019-04-02T14:14:21Z</time>
      </trkpt>
      <trkpt lat="47.64268" lon="3.72846">
        <ele>187</ele>
        <time>2019-04-02T14:14:28Z</time>
      </trkpt>
      <trkpt lat="47.64264" lon="3.72848">
        <ele>186</ele>
        <time>2019-04-02T14:14:31Z</time>
      </trkpt>
      <trkpt lat="47.64257" lon="3.72848">
        <ele>187</ele>
        <time>2019-04-02T14:14:37Z</time>
      </trkpt>
      <trkpt lat="47.64251" lon="3.72848">
        <ele>187</ele>
        <time>2019-04-02T14:14:41Z</time>
      </trkpt>
      <trkpt lat="47.64247" lon="3.72847">
        <ele>188</ele>
        <time>2019-04-02T14:14:45Z</time>
      </trkpt>
      <trkpt lat="47.6424" lon="3.72847">
        <ele>187</ele>
        <time>2019-04-02T14:14:51Z</time>
      </trkpt>
      <trkpt lat="47.64238" lon="3.72848">
        <ele>186</ele>
        <time>2019-04-02T14:14:53Z</time>
      </trkpt>
      <trkpt lat="47.64233" lon="3.72846">
        <ele>185</ele>
        <time>2019-04-02T14:15:02Z</time>
      </trkpt>
      <trkpt lat="47.64228" lon="3.72844">
        <ele>185</ele>
        <time>2019-04-02T14:15:06Z</time>
      </trkpt>
      <trkpt lat="47.64224" lon="3.72838">
        <ele>183</ele>
        <time>2019-04-02T14:15:11Z</time>
      </trkpt>
      <trkpt lat="47.64218" lon="3.72831">
        <ele>183</ele>
        <time>2019-04-02T14:15:16Z</time>
      </trkpt>
      <trkpt lat="47.64214" lon="3.72828">
        <ele>182</ele>
        <time>2019-04-02T14:15:19Z</time>
      </trkpt>
      <trkpt lat="47.6421" lon="3.72826">
        <ele>183</ele>
        <time>2019-04-02T14:15:23Z</time>
      </trkpt>
      <trkpt lat="47.64205" lon="3.7283">
        <ele>182</ele>
        <time>2019-04-02T14:15:26Z</time>
      </trkpt>
      <trkpt lat="47.64203" lon="3.72832">
        <ele>182</ele>
        <time>2019-04-02T14:15:28Z</time>
      </trkpt>
      <trkpt lat="47.642" lon="3.72834">
        <ele>182</ele>
        <time>2019-04-02T14:15:30Z</time>
      </trkpt>
      <trkpt lat="47.64198" lon="3.7284">
        <ele>181</ele>
        <time>2019-04-02T14:15:34Z</time>
      </trkpt>
      <trkpt lat="47.64196" lon="3.72844">
        <ele>180</ele>
        <time>2019-04-02T14:15:36Z</time>
      </trkpt>
      <trkpt lat="47.64194" lon="3.72852">
        <ele>181</ele>
        <time>2019-04-02T14:15:40Z</time>
      </trkpt>
      <trkpt lat="47.64194" lon="3.72863">
        <ele>177</ele>
        <time>2019-04-02T14:15:45Z</time>
      </trkpt>
      <trkpt lat="47.64193" lon="3.72869">
        <ele>176</ele>
        <time>2019-04-02T14:15:48Z</time>
      </trkpt>
      <trkpt lat="47.6419" lon="3.72877">
        <ele>178</ele>
        <time>2019-04-02T14:15:54Z</time>
      </trkpt>
      <trkpt lat="47.64188" lon="3.72886">
        <ele>175</ele>
        <time>2019-04-02T14:15:58Z</time>
      </trkpt>
      <trkpt lat="47.64188" lon="3.72895">
        <ele>174</ele>
        <time>2019-04-02T14:16:02Z</time>
      </trkpt>
      <trkpt lat="47.64188" lon="3.72901">
        <ele>173</ele>
        <time>2019-04-02T14:16:06Z</time>
      </trkpt>
      <trkpt lat="47.64187" lon="3.72908">
        <ele>173</ele>
        <time>2019-04-02T14:16:10Z</time>
      </trkpt>
      <trkpt lat="47.64186" lon="3.72916">
        <ele>175</ele>
        <time>2019-04-02T14:16:15Z</time>
      </trkpt>
      <trkpt lat="47.64187" lon="3.72924">
        <ele>175</ele>
        <time>2019-04-02T14:16:21Z</time>
      </trkpt>
      <trkpt lat="47.64188" lon="3.72933">
        <ele>176</ele>
        <time>2019-04-02T14:16:25Z</time>
      </trkpt>
      <trkpt lat="47.64185" lon="3.72941">
        <ele>178</ele>
        <time>2019-04-02T14:16:31Z</time>
      </trkpt>
      <trkpt lat="47.64182" lon="3.72947">
        <ele>178</ele>
        <time>2019-04-02T14:16:35Z</time>
      </trkpt>
      <trkpt lat="47.6418" lon="3.72952">
        <ele>179</ele>
        <time>2019-04-02T14:16:40Z</time>
      </trkpt>
      <trkpt lat="47.64178" lon="3.72956">
        <ele>180</ele>
        <time>2019-04-02T14:16:42Z</time>
      </trkpt>
      <trkpt lat="47.64173" lon="3.72963">
        <ele>179</ele>
        <time>2019-04-02T14:16:47Z</time>
      </trkpt>
      <trkpt lat="47.6417" lon="3.7297">
        <ele>178</ele>
        <time>2019-04-02T14:16:51Z</time>
      </trkpt>
      <trkpt lat="47.64167" lon="3.72977">
        <ele>177</ele>
        <time>2019-04-02T14:16:55Z</time>
      </trkpt>
      <trkpt lat="47.64164" lon="3.72984">
        <ele>176</ele>
        <time>2019-04-02T14:17:00Z</time>
      </trkpt>
      <trkpt lat="47.64162" lon="3.72991">
        <ele>177</ele>
        <time>2019-04-02T14:17:04Z</time>
      </trkpt>
      <trkpt lat="47.64159" lon="3.72997">
        <ele>176</ele>
        <time>2019-04-02T14:17:08Z</time>
      </trkpt>
      <trkpt lat="47.64156" lon="3.73006">
        <ele>175</ele>
        <time>2019-04-02T14:17:12Z</time>
      </trkpt>
      <trkpt lat="47.64153" lon="3.73012">
        <ele>175</ele>
        <time>2019-04-02T14:17:16Z</time>
      </trkpt>
      <trkpt lat="47.6415" lon="3.73019">
        <ele>174</ele>
        <time>2019-04-02T14:17:21Z</time>
      </trkpt>
      <trkpt lat="47.64145" lon="3.73025">
        <ele>175</ele>
        <time>2019-04-02T14:17:26Z</time>
      </trkpt>
      <trkpt lat="47.64144" lon="3.73032">
        <ele>174</ele>
        <time>2019-04-02T14:17:30Z</time>
      </trkpt>
      <trkpt lat="47.64141" lon="3.73039">
        <ele>177</ele>
        <time>2019-04-02T14:17:36Z</time>
      </trkpt>
      <trkpt lat="47.6414" lon="3.73043">
        <ele>177</ele>
        <time>2019-04-02T14:17:40Z</time>
      </trkpt>
      <trkpt lat="47.64138" lon="3.73048">
        <ele>177</ele>
        <time>2019-04-02T14:17:42Z</time>
      </trkpt>
      <trkpt lat="47.64133" lon="3.73055">
        <ele>178</ele>
        <time>2019-04-02T14:17:48Z</time>
      </trkpt>
      <trkpt lat="47.64131" lon="3.73058">
        <ele>178</ele>
        <time>2019-04-02T14:17:51Z</time>
      </trkpt>
      <trkpt lat="47.6413" lon="3.73061">
        <ele>178</ele>
        <time>2019-04-02T14:17:53Z</time>
      </trkpt>
      <trkpt lat="47.64128" lon="3.73065">
        <ele>178</ele>
        <time>2019-04-02T14:17:55Z</time>
      </trkpt>
      <trkpt lat="47.64125" lon="3.7307">
        <ele>179</ele>
        <time>2019-04-02T14:17:58Z</time>
      </trkpt>
      <trkpt lat="47.64122" lon="3.73076">
        <ele>178</ele>
        <time>2019-04-02T14:18:02Z</time>
      </trkpt>
      <trkpt lat="47.64117" lon="3.73085">
        <ele>176</ele>
        <time>2019-04-02T14:18:09Z</time>
      </trkpt>
      <trkpt lat="47.64114" lon="3.73089">
        <ele>176</ele>
        <time>2019-04-02T14:18:11Z</time>
      </trkpt>
      <trkpt lat="47.64112" lon="3.73092">
        <ele>175</ele>
        <time>2019-04-02T14:18:13Z</time>
      </trkpt>
      <trkpt lat="47.6411" lon="3.73098">
        <ele>177</ele>
        <time>2019-04-02T14:18:18Z</time>
      </trkpt>
      <trkpt lat="47.64104" lon="3.73104">
        <ele>178</ele>
        <time>2019-04-02T14:18:23Z</time>
      </trkpt>
      <trkpt lat="47.64102" lon="3.73111">
        <ele>177</ele>
        <time>2019-04-02T14:18:28Z</time>
      </trkpt>
      <trkpt lat="47.64101" lon="3.73119">
        <ele>177</ele>
        <time>2019-04-02T14:18:32Z</time>
      </trkpt>
      <trkpt lat="47.64096" lon="3.73126">
        <ele>177</ele>
        <time>2019-04-02T14:18:37Z</time>
      </trkpt>
      <trkpt lat="47.64093" lon="3.73131">
        <ele>177</ele>
        <time>2019-04-02T14:18:39Z</time>
      </trkpt>
      <trkpt lat="47.64091" lon="3.73134">
        <ele>176</ele>
        <time>2019-04-02T14:18:41Z</time>
      </trkpt>
      <trkpt lat="47.64088" lon="3.73141">
        <ele>177</ele>
        <time>2019-04-02T14:18:48Z</time>
      </trkpt>
      <trkpt lat="47.64084" lon="3.73145">
        <ele>176</ele>
        <time>2019-04-02T14:18:52Z</time>
      </trkpt>
      <trkpt lat="47.64079" lon="3.73152">
        <ele>177</ele>
        <time>2019-04-02T14:18:58Z</time>
      </trkpt>
      <trkpt lat="47.64076" lon="3.73157">
        <ele>176</ele>
        <time>2019-04-02T14:19:01Z</time>
      </trkpt>
      <trkpt lat="47.64073" lon="3.73161">
        <ele>176</ele>
        <time>2019-04-02T14:19:04Z</time>
      </trkpt>
      <trkpt lat="47.6407" lon="3.73165">
        <ele>176</ele>
        <time>2019-04-02T14:19:07Z</time>
      </trkpt>
      <trkpt lat="47.64065" lon="3.73174">
        <ele>175</ele>
        <time>2019-04-02T14:19:13Z</time>
      </trkpt>
      <trkpt lat="47.64062" lon="3.73181">
        <ele>175</ele>
        <time>2019-04-02T14:19:17Z</time>
      </trkpt>
      <trkpt lat="47.64059" lon="3.73187">
        <ele>176</ele>
        <time>2019-04-02T14:19:20Z</time>
      </trkpt>
      <trkpt lat="47.64054" lon="3.73191">
        <ele>175</ele>
        <time>2019-04-02T14:19:26Z</time>
      </trkpt>
      <trkpt lat="47.6405" lon="3.73197">
        <ele>174</ele>
        <time>2019-04-02T14:19:29Z</time>
      </trkpt>
      <trkpt lat="47.64047" lon="3.732">
        <ele>174</ele>
        <time>2019-04-02T14:19:32Z</time>
      </trkpt>
      <trkpt lat="47.64042" lon="3.73204">
        <ele>174</ele>
        <time>2019-04-02T14:19:37Z</time>
      </trkpt>
      <trkpt lat="47.64038" lon="3.73207">
        <ele>174</ele>
        <time>2019-04-02T14:19:40Z</time>
      </trkpt>
      <trkpt lat="47.64035" lon="3.73213">
        <ele>174</ele>
        <time>2019-04-02T14:19:44Z</time>
      </trkpt>
      <trkpt lat="47.64031" lon="3.73217">
        <ele>174</ele>
        <time>2019-04-02T14:19:47Z</time>
      </trkpt>
      <trkpt lat="47.64029" lon="3.73219">
        <ele>173</ele>
        <time>2019-04-02T14:19:49Z</time>
      </trkpt>
      <trkpt lat="47.64024" lon="3.73223">
        <ele>173</ele>
        <time>2019-04-02T14:19:54Z</time>
      </trkpt>
      <trkpt lat="47.64021" lon="3.73228">
        <ele>173</ele>
        <time>2019-04-02T14:19:57Z</time>
      </trkpt>
      <trkpt lat="47.64018" lon="3.73233">
        <ele>172</ele>
        <time>2019-04-02T14:20:00Z</time>
      </trkpt>
      <trkpt lat="47.64015" lon="3.73238">
        <ele>172</ele>
        <time>2019-04-02T14:20:03Z</time>
      </trkpt>
      <trkpt lat="47.64012" lon="3.73244">
        <ele>171</ele>
        <time>2019-04-02T14:20:07Z</time>
      </trkpt>
      <trkpt lat="47.64008" lon="3.73249">
        <ele>170</ele>
        <time>2019-04-02T14:20:11Z</time>
      </trkpt>
      <trkpt lat="47.64003" lon="3.73254">
        <ele>170</ele>
        <time>2019-04-02T14:20:16Z</time>
      </trkpt>
      <trkpt lat="47.63999" lon="3.73258">
        <ele>170</ele>
        <time>2019-04-02T14:20:19Z</time>
      </trkpt>
      <trkpt lat="47.63997" lon="3.73264">
        <ele>168</ele>
        <time>2019-04-02T14:20:23Z</time>
      </trkpt>
      <trkpt lat="47.63997" lon="3.73272">
        <ele>168</ele>
        <time>2019-04-02T14:20:28Z</time>
      </trkpt>
      <trkpt lat="47.63993" lon="3.73277">
        <ele>169</ele>
        <time>2019-04-02T14:20:32Z</time>
      </trkpt>
      <trkpt lat="47.63988" lon="3.73279">
        <ele>168</ele>
        <time>2019-04-02T14:20:36Z</time>
      </trkpt>
      <trkpt lat="47.63985" lon="3.73279">
        <ele>167</ele>
        <time>2019-04-02T14:20:38Z</time>
      </trkpt>
      <trkpt lat="47.63982" lon="3.73285">
        <ele>167</ele>
        <time>2019-04-02T14:20:43Z</time>
      </trkpt>
      <trkpt lat="47.63978" lon="3.7329">
        <ele>168</ele>
        <time>2019-04-02T14:20:48Z</time>
      </trkpt>
      <trkpt lat="47.63975" lon="3.73294">
        <ele>168</ele>
        <time>2019-04-02T14:20:54Z</time>
      </trkpt>
      <trkpt lat="47.63973" lon="3.733">
        <ele>167</ele>
        <time>2019-04-02T14:20:57Z</time>
      </trkpt>
      <trkpt lat="47.63968" lon="3.73304">
        <ele>166</ele>
        <time>2019-04-02T14:21:01Z</time>
      </trkpt>
      <trkpt lat="47.63962" lon="3.73308">
        <ele>166</ele>
        <time>2019-04-02T14:21:05Z</time>
      </trkpt>
      <trkpt lat="47.63958" lon="3.73313">
        <ele>165</ele>
        <time>2019-04-02T14:21:08Z</time>
      </trkpt>
      <trkpt lat="47.63954" lon="3.73314">
        <ele>165</ele>
        <time>2019-04-02T14:21:11Z</time>
      </trkpt>
      <trkpt lat="47.63948" lon="3.73319">
        <ele>165</ele>
        <time>2019-04-02T14:21:15Z</time>
      </trkpt>
      <trkpt lat="47.63944" lon="3.73322">
        <ele>166</ele>
        <time>2019-04-02T14:21:19Z</time>
      </trkpt>
      <trkpt lat="47.6394" lon="3.73326">
        <ele>166</ele>
        <time>2019-04-02T14:21:24Z</time>
      </trkpt>
      <trkpt lat="47.63937" lon="3.73328">
        <ele>167</ele>
        <time>2019-04-02T14:21:26Z</time>
      </trkpt>
      <trkpt lat="47.63933" lon="3.73332">
        <ele>167</ele>
        <time>2019-04-02T14:21:31Z</time>
      </trkpt>
      <trkpt lat="47.63928" lon="3.7334">
        <ele>168</ele>
        <time>2019-04-02T14:21:37Z</time>
      </trkpt>
      <trkpt lat="47.63923" lon="3.73345">
        <ele>167</ele>
        <time>2019-04-02T14:21:41Z</time>
      </trkpt>
      <trkpt lat="47.63921" lon="3.73347">
        <ele>167</ele>
        <time>2019-04-02T14:21:43Z</time>
      </trkpt>
      <trkpt lat="47.63919" lon="3.73349">
        <ele>167</ele>
        <time>2019-04-02T14:21:46Z</time>
      </trkpt>
      <trkpt lat="47.63915" lon="3.73351">
        <ele>166</ele>
        <time>2019-04-02T14:21:50Z</time>
      </trkpt>
      <trkpt lat="47.63911" lon="3.73354">
        <ele>167</ele>
        <time>2019-04-02T14:21:52Z</time>
      </trkpt>
      <trkpt lat="47.63907" lon="3.73356">
        <ele>166</ele>
        <time>2019-04-02T14:21:55Z</time>
      </trkpt>
      <trkpt lat="47.63904" lon="3.73357">
        <ele>167</ele>
        <time>2019-04-02T14:21:57Z</time>
      </trkpt>
      <trkpt lat="47.63902" lon="3.73358">
        <ele>168</ele>
        <time>2019-04-02T14:21:59Z</time>
      </trkpt>
      <trkpt lat="47.63898" lon="3.73363">
        <ele>169</ele>
        <time>2019-04-02T14:22:02Z</time>
      </trkpt>
      <trkpt lat="47.63896" lon="3.73366">
        <ele>169</ele>
        <time>2019-04-02T14:22:05Z</time>
      </trkpt>
      <trkpt lat="47.63891" lon="3.73372">
        <ele>169</ele>
        <time>2019-04-02T14:22:10Z</time>
      </trkpt>
      <trkpt lat="47.63886" lon="3.73376">
        <ele>170</ele>
        <time>2019-04-02T14:22:14Z</time>
      </trkpt>
      <trkpt lat="47.63881" lon="3.73379">
        <ele>170</ele>
        <time>2019-04-02T14:22:17Z</time>
      </trkpt>
      <trkpt lat="47.63879" lon="3.7338">
        <ele>170</ele>
        <time>2019-04-02T14:22:20Z</time>
      </trkpt>
      <trkpt lat="47.63875" lon="3.73384">
        <ele>170</ele>
        <time>2019-04-02T14:22:24Z</time>
      </trkpt>
      <trkpt lat="47.63872" lon="3.73387">
        <ele>171</ele>
        <time>2019-04-02T14:22:25Z</time>
      </trkpt>
      <trkpt lat="47.63869" lon="3.73389">
        <ele>170</ele>
        <time>2019-04-02T14:22:28Z</time>
      </trkpt>
      <trkpt lat="47.63866" lon="3.73395">
        <ele>171</ele>
        <time>2019-04-02T14:22:32Z</time>
      </trkpt>
      <trkpt lat="47.63864" lon="3.73399">
        <ele>171</ele>
        <time>2019-04-02T14:22:35Z</time>
      </trkpt>
      <trkpt lat="47.6386" lon="3.73401">
        <ele>173</ele>
        <time>2019-04-02T14:22:40Z</time>
      </trkpt>
      <trkpt lat="47.63854" lon="3.73406">
        <ele>173</ele>
        <time>2019-04-02T14:22:45Z</time>
      </trkpt>
      <trkpt lat="47.6385" lon="3.73411">
        <ele>174</ele>
        <time>2019-04-02T14:22:50Z</time>
      </trkpt>
      <trkpt lat="47.63848" lon="3.73413">
        <ele>174</ele>
        <time>2019-04-02T14:22:52Z</time>
      </trkpt>
      <trkpt lat="47.63843" lon="3.73416">
        <ele>174</ele>
        <time>2019-04-02T14:22:56Z</time>
      </trkpt>
      <trkpt lat="47.63838" lon="3.7342">
        <ele>173</ele>
        <time>2019-04-02T14:22:59Z</time>
      </trkpt>
      <trkpt lat="47.63835" lon="3.73423">
        <ele>174</ele>
        <time>2019-04-02T14:23:04Z</time>
      </trkpt>
      <trkpt lat="47.63831" lon="3.73426">
        <ele>174</ele>
        <time>2019-04-02T14:23:08Z</time>
      </trkpt>
      <trkpt lat="47.63826" lon="3.73429">
        <ele>174</ele>
        <time>2019-04-02T14:23:13Z</time>
      </trkpt>
      <trkpt lat="47.63821" lon="3.73433">
        <ele>175</ele>
        <time>2019-04-02T14:23:17Z</time>
      </trkpt>
      <trkpt lat="47.63815" lon="3.73437">
        <ele>174</ele>
        <time>2019-04-02T14:23:21Z</time>
      </trkpt>
      <trkpt lat="47.6381" lon="3.7344">
        <ele>175</ele>
        <time>2019-04-02T14:23:26Z</time>
      </trkpt>
      <trkpt lat="47.63805" lon="3.73444">
        <ele>175</ele>
        <time>2019-04-02T14:23:29Z</time>
      </trkpt>
      <trkpt lat="47.638" lon="3.73446">
        <ele>176</ele>
        <time>2019-04-02T14:23:33Z</time>
      </trkpt>
      <trkpt lat="47.63797" lon="3.73452">
        <ele>176</ele>
        <time>2019-04-02T14:23:37Z</time>
      </trkpt>
      <trkpt lat="47.63791" lon="3.73457">
        <ele>177</ele>
        <time>2019-04-02T14:23:41Z</time>
      </trkpt>
      <trkpt lat="47.63788" lon="3.73459">
        <ele>176</ele>
        <time>2019-04-02T14:23:43Z</time>
      </trkpt>
      <trkpt lat="47.63785" lon="3.73465">
        <ele>177</ele>
        <time>2019-04-02T14:23:47Z</time>
      </trkpt>
      <trkpt lat="47.63781" lon="3.73469">
        <ele>177</ele>
        <time>2019-04-02T14:23:50Z</time>
      </trkpt>
      <trkpt lat="47.63776" lon="3.73476">
        <ele>177</ele>
        <time>2019-04-02T14:23:56Z</time>
      </trkpt>
      <trkpt lat="47.63774" lon="3.7348">
        <ele>177</ele>
        <time>2019-04-02T14:23:59Z</time>
      </trkpt>
      <trkpt lat="47.6377" lon="3.73488">
        <ele>179</ele>
        <time>2019-04-02T14:24:05Z</time>
      </trkpt>
      <trkpt lat="47.63769" lon="3.73495">
        <ele>178</ele>
        <time>2019-04-02T14:24:08Z</time>
      </trkpt>
      <trkpt lat="47.63769" lon="3.73499">
        <ele>178</ele>
        <time>2019-04-02T14:24:10Z</time>
      </trkpt>
      <trkpt lat="47.63767" lon="3.73505">
        <ele>179</ele>
        <time>2019-04-02T14:24:14Z</time>
      </trkpt>
      <trkpt lat="47.63765" lon="3.73509">
        <ele>179</ele>
        <time>2019-04-02T14:24:16Z</time>
      </trkpt>
      <trkpt lat="47.63764" lon="3.73518">
        <ele>178</ele>
        <time>2019-04-02T14:24:22Z</time>
      </trkpt>
      <trkpt lat="47.63762" lon="3.73524">
        <ele>177</ele>
        <time>2019-04-02T14:24:25Z</time>
      </trkpt>
      <trkpt lat="47.6376" lon="3.73528">
        <ele>176</ele>
        <time>2019-04-02T14:24:27Z</time>
      </trkpt>
      <trkpt lat="47.63757" lon="3.73534">
        <ele>175</ele>
        <time>2019-04-02T14:24:31Z</time>
      </trkpt>
      <trkpt lat="47.63755" lon="3.73542">
        <ele>174</ele>
        <time>2019-04-02T14:24:35Z</time>
      </trkpt>
      <trkpt lat="47.63751" lon="3.73549">
        <ele>174</ele>
        <time>2019-04-02T14:24:39Z</time>
      </trkpt>
      <trkpt lat="47.63747" lon="3.73553">
        <ele>174</ele>
        <time>2019-04-02T14:24:42Z</time>
      </trkpt>
      <trkpt lat="47.63744" lon="3.73558">
        <ele>173</ele>
        <time>2019-04-02T14:24:45Z</time>
      </trkpt>
      <trkpt lat="47.63741" lon="3.73563">
        <ele>172</ele>
        <time>2019-04-02T14:24:48Z</time>
      </trkpt>
      <trkpt lat="47.63739" lon="3.7357">
        <ele>172</ele>
        <time>2019-04-02T14:24:52Z</time>
      </trkpt>
      <trkpt lat="47.63737" lon="3.73576">
        <ele>171</ele>
        <time>2019-04-02T14:24:55Z</time>
      </trkpt>
      <trkpt lat="47.63733" lon="3.73586">
        <ele>171</ele>
        <time>2019-04-02T14:25:01Z</time>
      </trkpt>
      <trkpt lat="47.63728" lon="3.73595">
        <ele>172</ele>
        <time>2019-04-02T14:25:09Z</time>
      </trkpt>
      <trkpt lat="47.63724" lon="3.73603">
        <ele>172</ele>
        <time>2019-04-02T14:25:15Z</time>
      </trkpt>
      <trkpt lat="47.63721" lon="3.73608">
        <ele>172</ele>
        <time>2019-04-02T14:25:18Z</time>
      </trkpt>
      <trkpt lat="47.63719" lon="3.73611">
        <ele>173</ele>
        <time>2019-04-02T14:25:20Z</time>
      </trkpt>
      <trkpt lat="47.63716" lon="3.73618">
        <ele>173</ele>
        <time>2019-04-02T14:25:25Z</time>
      </trkpt>
      <trkpt lat="47.63715" lon="3.73622">
        <ele>172</ele>
        <time>2019-04-02T14:25:28Z</time>
      </trkpt>
      <trkpt lat="47.63712" lon="3.73629">
        <ele>172</ele>
        <time>2019-04-02T14:25:31Z</time>
      </trkpt>
      <trkpt lat="47.63709" lon="3.73635">
        <ele>172</ele>
        <time>2019-04-02T14:25:33Z</time>
      </trkpt>
      <trkpt lat="47.63707" lon="3.73641">
        <ele>174</ele>
        <time>2019-04-02T14:25:36Z</time>
      </trkpt>
      <trkpt lat="47.63704" lon="3.7365">
        <ele>172</ele>
        <time>2019-04-02T14:25:43Z</time>
      </trkpt>
      <trkpt lat="47.637" lon="3.73657">
        <ele>172</ele>
        <time>2019-04-02T14:25:47Z</time>
      </trkpt>
      <trkpt lat="47.63697" lon="3.73664">
        <ele>173</ele>
        <time>2019-04-02T14:25:51Z</time>
      </trkpt>
      <trkpt lat="47.63695" lon="3.73669">
        <ele>174</ele>
        <time>2019-04-02T14:25:54Z</time>
      </trkpt>
      <trkpt lat="47.63694" lon="3.73676">
        <ele>175</ele>
        <time>2019-04-02T14:25:59Z</time>
      </trkpt>
      <trkpt lat="47.6369" lon="3.7368">
        <ele>175</ele>
        <time>2019-04-02T14:26:02Z</time>
      </trkpt>
      <trkpt lat="47.63687" lon="3.73688">
        <ele>174</ele>
        <time>2019-04-02T14:26:07Z</time>
      </trkpt>
      <trkpt lat="47.63685" lon="3.73694">
        <ele>174</ele>
        <time>2019-04-02T14:26:10Z</time>
      </trkpt>
      <trkpt lat="47.63682" lon="3.73699">
        <ele>173</ele>
        <time>2019-04-02T14:26:13Z</time>
      </trkpt>
      <trkpt lat="47.63678" lon="3.73707">
        <ele>172</ele>
        <time>2019-04-02T14:26:18Z</time>
      </trkpt>
      <trkpt lat="47.63674" lon="3.73713">
        <ele>173</ele>
        <time>2019-04-02T14:26:22Z</time>
      </trkpt>
      <trkpt lat="47.63671" lon="3.73718">
        <ele>172</ele>
        <time>2019-04-02T14:26:25Z</time>
      </trkpt>
      <trkpt lat="47.63668" lon="3.7372">
        <ele>171</ele>
        <time>2019-04-02T14:26:27Z</time>
      </trkpt>
      <trkpt lat="47.63665" lon="3.73724">
        <ele>172</ele>
        <time>2019-04-02T14:26:30Z</time>
      </trkpt>
      <trkpt lat="47.63661" lon="3.73727">
        <ele>171</ele>
        <time>2019-04-02T14:26:33Z</time>
      </trkpt>
      <trkpt lat="47.63656" lon="3.73733">
        <ele>169</ele>
        <time>2019-04-02T14:26:37Z</time>
      </trkpt>
      <trkpt lat="47.63651" lon="3.73735">
        <ele>169</ele>
        <time>2019-04-02T14:26:41Z</time>
      </trkpt>
      <trkpt lat="47.63646" lon="3.73737">
        <ele>169</ele>
        <time>2019-04-02T14:26:44Z</time>
      </trkpt>
      <trkpt lat="47.63644" lon="3.73737">
        <ele>169</ele>
        <time>2019-04-02T14:26:46Z</time>
      </trkpt>
      <trkpt lat="47.6364" lon="3.73741">
        <ele>168</ele>
        <time>2019-04-02T14:26:52Z</time>
      </trkpt>
      <trkpt lat="47.63636" lon="3.73745">
        <ele>168</ele>
        <time>2019-04-02T14:26:55Z</time>
      </trkpt>
      <trkpt lat="47.63629" lon="3.73749">
        <ele>168</ele>
        <time>2019-04-02T14:27:00Z</time>
      </trkpt>
      <trkpt lat="47.63624" lon="3.73752">
        <ele>168</ele>
        <time>2019-04-02T14:27:04Z</time>
      </trkpt>
      <trkpt lat="47.63619" lon="3.73756">
        <ele>169</ele>
        <time>2019-04-02T14:27:10Z</time>
      </trkpt>
      <trkpt lat="47.63615" lon="3.73759">
        <ele>170</ele>
        <time>2019-04-02T14:27:15Z</time>
      </trkpt>
      <trkpt lat="47.63611" lon="3.73761">
        <ele>170</ele>
        <time>2019-04-02T14:27:17Z</time>
      </trkpt>
      <trkpt lat="47.63605" lon="3.73762">
        <ele>169</ele>
        <time>2019-04-02T14:27:20Z</time>
      </trkpt>
      <trkpt lat="47.63599" lon="3.73766">
        <ele>167</ele>
        <time>2019-04-02T14:27:25Z</time>
      </trkpt>
      <trkpt lat="47.63596" lon="3.73769">
        <ele>168</ele>
        <time>2019-04-02T14:27:28Z</time>
      </trkpt>
      <trkpt lat="47.63591" lon="3.73771">
        <ele>169</ele>
        <time>2019-04-02T14:27:33Z</time>
      </trkpt>
      <trkpt lat="47.63585" lon="3.73777">
        <ele>168</ele>
        <time>2019-04-02T14:27:39Z</time>
      </trkpt>
      <trkpt lat="47.63583" lon="3.73779">
        <ele>166</ele>
        <time>2019-04-02T14:27:41Z</time>
      </trkpt>
      <trkpt lat="47.63577" lon="3.73782">
        <ele>167</ele>
        <time>2019-04-02T14:27:45Z</time>
      </trkpt>
      <trkpt lat="47.63575" lon="3.73784">
        <ele>168</ele>
        <time>2019-04-02T14:27:47Z</time>
      </trkpt>
      <trkpt lat="47.63569" lon="3.73785">
        <ele>169</ele>
        <time>2019-04-02T14:27:51Z</time>
      </trkpt>
      <trkpt lat="47.63565" lon="3.73787">
        <ele>169</ele>
        <time>2019-04-02T14:27:55Z</time>
      </trkpt>
      <trkpt lat="47.63563" lon="3.73788">
        <ele>169</ele>
        <time>2019-04-02T14:27:58Z</time>
      </trkpt>
      <trkpt lat="47.63558" lon="3.7379">
        <ele>170</ele>
        <time>2019-04-02T14:28:01Z</time>
      </trkpt>
      <trkpt lat="47.63555" lon="3.73791">
        <ele>171</ele>
        <time>2019-04-02T14:28:04Z</time>
      </trkpt>
      <trkpt lat="47.63551" lon="3.73794">
        <ele>169</ele>
        <time>2019-04-02T14:28:07Z</time>
      </trkpt>
      <trkpt lat="47.63547" lon="3.73796">
        <ele>169</ele>
        <time>2019-04-02T14:28:10Z</time>
      </trkpt>
      <trkpt lat="47.63542" lon="3.73796">
        <ele>169</ele>
        <time>2019-04-02T14:28:14Z</time>
      </trkpt>
      <trkpt lat="47.63538" lon="3.73795">
        <ele>169</ele>
        <time>2019-04-02T14:28:17Z</time>
      </trkpt>
      <trkpt lat="47.63535" lon="3.73795">
        <ele>169</ele>
        <time>2019-04-02T14:28:19Z</time>
      </trkpt>
      <trkpt lat="47.6353" lon="3.73797">
        <ele>170</ele>
        <time>2019-04-02T14:28:25Z</time>
      </trkpt>
      <trkpt lat="47.63522" lon="3.73796">
        <ele>170</ele>
        <time>2019-04-02T14:28:31Z</time>
      </trkpt>
      <trkpt lat="47.63518" lon="3.73795">
        <ele>173</ele>
        <time>2019-04-02T14:28:35Z</time>
      </trkpt>
      <trkpt lat="47.63511" lon="3.73796">
        <ele>173</ele>
        <time>2019-04-02T14:28:40Z</time>
      </trkpt>
      <trkpt lat="47.63509" lon="3.73796">
        <ele>173</ele>
        <time>2019-04-02T14:28:42Z</time>
      </trkpt>
      <trkpt lat="47.63504" lon="3.73794">
        <ele>173</ele>
        <time>2019-04-02T14:28:47Z</time>
      </trkpt>
      <trkpt lat="47.63499" lon="3.73795">
        <ele>174</ele>
        <time>2019-04-02T14:28:53Z</time>
      </trkpt>
      <trkpt lat="47.63492" lon="3.73797">
        <ele>176</ele>
        <time>2019-04-02T14:28:58Z</time>
      </trkpt>
      <trkpt lat="47.63487" lon="3.73798">
        <ele>176</ele>
        <time>2019-04-02T14:29:01Z</time>
      </trkpt>
      <trkpt lat="47.63484" lon="3.73798">
        <ele>176</ele>
        <time>2019-04-02T14:29:03Z</time>
      </trkpt>
      <trkpt lat="47.63481" lon="3.73799">
        <ele>176</ele>
        <time>2019-04-02T14:29:05Z</time>
      </trkpt>
      <trkpt lat="47.63473" lon="3.73799">
        <ele>178</ele>
        <time>2019-04-02T14:29:09Z</time>
      </trkpt>
      <trkpt lat="47.63468" lon="3.738">
        <ele>177</ele>
        <time>2019-04-02T14:29:12Z</time>
      </trkpt>
      <trkpt lat="47.63465" lon="3.738">
        <ele>177</ele>
        <time>2019-04-02T14:29:15Z</time>
      </trkpt>
      <trkpt lat="47.6346" lon="3.73801">
        <ele>178</ele>
        <time>2019-04-02T14:29:20Z</time>
      </trkpt>
      <trkpt lat="47.63455" lon="3.73802">
        <ele>180</ele>
        <time>2019-04-02T14:29:24Z</time>
      </trkpt>
      <trkpt lat="47.6345" lon="3.73802">
        <ele>181</ele>
        <time>2019-04-02T14:29:27Z</time>
      </trkpt>
      <trkpt lat="47.63445" lon="3.73804">
        <ele>182</ele>
        <time>2019-04-02T14:29:32Z</time>
      </trkpt>
      <trkpt lat="47.63439" lon="3.73808">
        <ele>182</ele>
        <time>2019-04-02T14:29:36Z</time>
      </trkpt>
      <trkpt lat="47.63432" lon="3.73808">
        <ele>183</ele>
        <time>2019-04-02T14:29:39Z</time>
      </trkpt>
      <trkpt lat="47.63429" lon="3.73808">
        <ele>183</ele>
        <time>2019-04-02T14:29:42Z</time>
      </trkpt>
      <trkpt lat="47.63425" lon="3.73809">
        <ele>182</ele>
        <time>2019-04-02T14:29:45Z</time>
      </trkpt>
      <trkpt lat="47.63419" lon="3.73811">
        <ele>182</ele>
        <time>2019-04-02T14:29:51Z</time>
      </trkpt>
      <trkpt lat="47.63414" lon="3.73813">
        <ele>181</ele>
        <time>2019-04-02T14:29:54Z</time>
      </trkpt>
      <trkpt lat="47.63412" lon="3.73814">
        <ele>181</ele>
        <time>2019-04-02T14:29:56Z</time>
      </trkpt>
      <trkpt lat="47.63409" lon="3.73815">
        <ele>180</ele>
        <time>2019-04-02T14:29:59Z</time>
      </trkpt>
      <trkpt lat="47.63405" lon="3.73815">
        <ele>180</ele>
        <time>2019-04-02T14:30:03Z</time>
      </trkpt>
      <trkpt lat="47.63399" lon="3.73816">
        <ele>180</ele>
        <time>2019-04-02T14:30:07Z</time>
      </trkpt>
      <trkpt lat="47.63393" lon="3.73818">
        <ele>180</ele>
        <time>2019-04-02T14:30:12Z</time>
      </trkpt>
      <trkpt lat="47.6339" lon="3.73819">
        <ele>182</ele>
        <time>2019-04-02T14:30:15Z</time>
      </trkpt>
      <trkpt lat="47.63386" lon="3.7382">
        <ele>182</ele>
        <time>2019-04-02T14:30:18Z</time>
      </trkpt>
      <trkpt lat="47.6338" lon="3.73824">
        <ele>181</ele>
        <time>2019-04-02T14:30:23Z</time>
      </trkpt>
      <trkpt lat="47.63376" lon="3.73827">
        <ele>182</ele>
        <time>2019-04-02T14:30:26Z</time>
      </trkpt>
      <trkpt lat="47.63371" lon="3.7383">
        <ele>181</ele>
        <time>2019-04-02T14:30:30Z</time>
      </trkpt>
      <trkpt lat="47.63369" lon="3.73832">
        <ele>181</ele>
        <time>2019-04-02T14:30:33Z</time>
      </trkpt>
      <trkpt lat="47.63364" lon="3.73834">
        <ele>181</ele>
        <time>2019-04-02T14:30:36Z</time>
      </trkpt>
      <trkpt lat="47.63362" lon="3.73836">
        <ele>181</ele>
        <time>2019-04-02T14:30:38Z</time>
      </trkpt>
      <trkpt lat="47.63359" lon="3.73837">
        <ele>180</ele>
        <time>2019-04-02T14:30:40Z</time>
      </trkpt>
      <trkpt lat="47.63353" lon="3.73842">
        <ele>177</ele>
        <time>2019-04-02T14:30:45Z</time>
      </trkpt>
      <trkpt lat="47.6335" lon="3.73845">
        <ele>178</ele>
        <time>2019-04-02T14:30:48Z</time>
      </trkpt>
      <trkpt lat="47.63343" lon="3.73849">
        <ele>178</ele>
        <time>2019-04-02T14:30:54Z</time>
      </trkpt>
      <trkpt lat="47.63339" lon="3.73851">
        <ele>178</ele>
        <time>2019-04-02T14:30:59Z</time>
      </trkpt>
      <trkpt lat="47.63336" lon="3.73852">
        <ele>179</ele>
        <time>2019-04-02T14:31:00Z</time>
      </trkpt>
      <trkpt lat="47.63333" lon="3.73853">
        <ele>178</ele>
        <time>2019-04-02T14:31:02Z</time>
      </trkpt>
      <trkpt lat="47.6333" lon="3.73855">
        <ele>178</ele>
        <time>2019-04-02T14:31:04Z</time>
      </trkpt>
      <trkpt lat="47.63326" lon="3.73856">
        <ele>177</ele>
        <time>2019-04-02T14:31:06Z</time>
      </trkpt>
      <trkpt lat="47.63323" lon="3.73857">
        <ele>176</ele>
        <time>2019-04-02T14:31:08Z</time>
      </trkpt>
      <trkpt lat="47.63319" lon="3.73861">
        <ele>176</ele>
        <time>2019-04-02T14:31:11Z</time>
      </trkpt>
      <trkpt lat="47.63314" lon="3.73863">
        <ele>175</ele>
        <time>2019-04-02T14:31:16Z</time>
      </trkpt>
      <trkpt lat="47.6331" lon="3.73868">
        <ele>176</ele>
        <time>2019-04-02T14:31:20Z</time>
      </trkpt>
      <trkpt lat="47.63305" lon="3.73871">
        <ele>178</ele>
        <time>2019-04-02T14:31:23Z</time>
      </trkpt>
      <trkpt lat="47.633" lon="3.73875">
        <ele>175</ele>
        <time>2019-04-02T14:31:28Z</time>
      </trkpt>
      <trkpt lat="47.63294" lon="3.73877">
        <ele>176</ele>
        <time>2019-04-02T14:31:30Z</time>
      </trkpt>
      <trkpt lat="47.6329" lon="3.73879">
        <ele>174</ele>
        <time>2019-04-02T14:31:34Z</time>
      </trkpt>
      <trkpt lat="47.63285" lon="3.73882">
        <ele>173</ele>
        <time>2019-04-02T14:31:38Z</time>
      </trkpt>
      <trkpt lat="47.6328" lon="3.73884">
        <ele>173</ele>
        <time>2019-04-02T14:31:40Z</time>
      </trkpt>
      <trkpt lat="47.63275" lon="3.73887">
        <ele>172</ele>
        <time>2019-04-02T14:31:45Z</time>
      </trkpt>
      <trkpt lat="47.63269" lon="3.73892">
        <ele>172</ele>
        <time>2019-04-02T14:31:48Z</time>
      </trkpt>
      <trkpt lat="47.63266" lon="3.73894">
        <ele>171</ele>
        <time>2019-04-02T14:31:52Z</time>
      </trkpt>
      <trkpt lat="47.63261" lon="3.73896">
        <ele>171</ele>
        <time>2019-04-02T14:31:56Z</time>
      </trkpt>
      <trkpt lat="47.63257" lon="3.73898">
        <ele>172</ele>
        <time>2019-04-02T14:32:01Z</time>
      </trkpt>
      <trkpt lat="47.63251" lon="3.73899">
        <ele>172</ele>
        <time>2019-04-02T14:32:06Z</time>
      </trkpt>
      <trkpt lat="47.63248" lon="3.739">
        <ele>172</ele>
        <time>2019-04-02T14:32:09Z</time>
      </trkpt>
      <trkpt lat="47.63243" lon="3.73899">
        <ele>172</ele>
        <time>2019-04-02T14:32:13Z</time>
      </trkpt>
      <trkpt lat="47.63238" lon="3.73899">
        <ele>173</ele>
        <time>2019-04-02T14:32:17Z</time>
      </trkpt>
      <trkpt lat="47.63232" lon="3.73899">
        <ele>172</ele>
        <time>2019-04-02T14:32:22Z</time>
      </trkpt>
      <trkpt lat="47.63223" lon="3.739">
        <ele>174</ele>
        <time>2019-04-02T14:32:27Z</time>
      </trkpt>
      <trkpt lat="47.63219" lon="3.73901">
        <ele>174</ele>
        <time>2019-04-02T14:32:30Z</time>
      </trkpt>
      <trkpt lat="47.63214" lon="3.73901">
        <ele>174</ele>
        <time>2019-04-02T14:32:33Z</time>
      </trkpt>
      <trkpt lat="47.63209" lon="3.73902">
        <ele>174</ele>
        <time>2019-04-02T14:32:37Z</time>
      </trkpt>
      <trkpt lat="47.63206" lon="3.73902">
        <ele>175</ele>
        <time>2019-04-02T14:32:40Z</time>
      </trkpt>
      <trkpt lat="47.63203" lon="3.73903">
        <ele>174</ele>
        <time>2019-04-02T14:32:43Z</time>
      </trkpt>
      <trkpt lat="47.63196" lon="3.73901">
        <ele>174</ele>
        <time>2019-04-02T14:32:49Z</time>
      </trkpt>
      <trkpt lat="47.63189" lon="3.739">
        <ele>174</ele>
        <time>2019-04-02T14:32:54Z</time>
      </trkpt>
      <trkpt lat="47.63184" lon="3.73898">
        <ele>176</ele>
        <time>2019-04-02T14:32:59Z</time>
      </trkpt>
      <trkpt lat="47.63177" lon="3.73898">
        <ele>174</ele>
        <time>2019-04-02T14:33:04Z</time>
      </trkpt>
      <trkpt lat="47.63173" lon="3.73897">
        <ele>174</ele>
        <time>2019-04-02T14:33:06Z</time>
      </trkpt>
      <trkpt lat="47.63168" lon="3.73895">
        <ele>174</ele>
        <time>2019-04-02T14:33:09Z</time>
      </trkpt>
      <trkpt lat="47.63161" lon="3.73895">
        <ele>174</ele>
        <time>2019-04-02T14:33:16Z</time>
      </trkpt>
      <trkpt lat="47.63155" lon="3.73896">
        <ele>175</ele>
        <time>2019-04-02T14:33:22Z</time>
      </trkpt>
      <trkpt lat="47.63151" lon="3.73896">
        <ele>174</ele>
        <time>2019-04-02T14:33:25Z</time>
      </trkpt>
      <trkpt lat="47.63145" lon="3.73895">
        <ele>175</ele>
        <time>2019-04-02T14:33:30Z</time>
      </trkpt>
      <trkpt lat="47.6314" lon="3.73895">
        <ele>176</ele>
        <time>2019-04-02T14:33:34Z</time>
      </trkpt>
      <trkpt lat="47.63136" lon="3.73894">
        <ele>176</ele>
        <time>2019-04-02T14:33:38Z</time>
      </trkpt>
      <trkpt lat="47.6313" lon="3.73894">
        <ele>177</ele>
        <time>2019-04-02T14:33:43Z</time>
      </trkpt>
      <trkpt lat="47.63125" lon="3.73893">
        <ele>177</ele>
        <time>2019-04-02T14:33:45Z</time>
      </trkpt>
      <trkpt lat="47.63113" lon="3.7389">
        <ele>179</ele>
        <time>2019-04-02T14:33:52Z</time>
      </trkpt>
      <trkpt lat="47.6311" lon="3.7389">
        <ele>178</ele>
        <time>2019-04-02T14:33:55Z</time>
      </trkpt>
      <trkpt lat="47.63105" lon="3.73887">
        <ele>177</ele>
        <time>2019-04-02T14:33:59Z</time>
      </trkpt>
      <trkpt lat="47.631" lon="3.73886">
        <ele>175</ele>
        <time>2019-04-02T14:34:03Z</time>
      </trkpt>
      <trkpt lat="47.63094" lon="3.73885">
        <ele>175</ele>
        <time>2019-04-02T14:34:07Z</time>
      </trkpt>
      <trkpt lat="47.63091" lon="3.73883">
        <ele>174</ele>
        <time>2019-04-02T14:34:09Z</time>
      </trkpt>
      <trkpt lat="47.63087" lon="3.73882">
        <ele>174</ele>
        <time>2019-04-02T14:34:11Z</time>
      </trkpt>
      <trkpt lat="47.63082" lon="3.73879">
        <ele>173</ele>
        <time>2019-04-02T14:34:16Z</time>
      </trkpt>
      <trkpt lat="47.63077" lon="3.73876">
        <ele>171</ele>
        <time>2019-04-02T14:34:19Z</time>
      </trkpt>
      <trkpt lat="47.63075" lon="3.73875">
        <ele>170</ele>
        <time>2019-04-02T14:34:21Z</time>
      </trkpt>
      <trkpt lat="47.63072" lon="3.73874">
        <ele>169</ele>
        <time>2019-04-02T14:34:23Z</time>
      </trkpt>
      <trkpt lat="47.63067" lon="3.73871">
        <ele>171</ele>
        <time>2019-04-02T14:34:29Z</time>
      </trkpt>
      <trkpt lat="47.63063" lon="3.73868">
        <ele>171</ele>
        <time>2019-04-02T14:34:32Z</time>
      </trkpt>
      <trkpt lat="47.63058" lon="3.73863">
        <ele>172</ele>
        <time>2019-04-02T14:34:35Z</time>
      </trkpt>
      <trkpt lat="47.63054" lon="3.7386">
        <ele>173</ele>
        <time>2019-04-02T14:34:38Z</time>
      </trkpt>
      <trkpt lat="47.63049" lon="3.73859">
        <ele>174</ele>
        <time>2019-04-02T14:34:41Z</time>
      </trkpt>
      <trkpt lat="47.63043" lon="3.73857">
        <ele>174</ele>
        <time>2019-04-02T14:34:46Z</time>
      </trkpt>
      <trkpt lat="47.6304" lon="3.73855">
        <ele>173</ele>
        <time>2019-04-02T14:34:48Z</time>
      </trkpt>
      <trkpt lat="47.63035" lon="3.73852">
        <ele>172</ele>
        <time>2019-04-02T14:34:51Z</time>
      </trkpt>
      <trkpt lat="47.63029" lon="3.7385">
        <ele>172</ele>
        <time>2019-04-02T14:34:55Z</time>
      </trkpt>
      <trkpt lat="47.63024" lon="3.73849">
        <ele>174</ele>
        <time>2019-04-02T14:34:59Z</time>
      </trkpt>
      <trkpt lat="47.63018" lon="3.73846">
        <ele>175</ele>
        <time>2019-04-02T14:35:03Z</time>
      </trkpt>
      <trkpt lat="47.63013" lon="3.73843">
        <ele>175</ele>
        <time>2019-04-02T14:35:08Z</time>
      </trkpt>
      <trkpt lat="47.63007" lon="3.73838">
        <ele>175</ele>
        <time>2019-04-02T14:35:14Z</time>
      </trkpt>
      <trkpt lat="47.63001" lon="3.73835">
        <ele>175</ele>
        <time>2019-04-02T14:35:18Z</time>
      </trkpt>
      <trkpt lat="47.62997" lon="3.73833">
        <ele>175</ele>
        <time>2019-04-02T14:35:20Z</time>
      </trkpt>
      <trkpt lat="47.62994" lon="3.73832">
        <ele>174</ele>
        <time>2019-04-02T14:35:22Z</time>
      </trkpt>
      <trkpt lat="47.62992" lon="3.7383">
        <ele>174</ele>
        <time>2019-04-02T14:35:24Z</time>
      </trkpt>
      <trkpt lat="47.62987" lon="3.73826">
        <ele>174</ele>
        <time>2019-04-02T14:35:29Z</time>
      </trkpt>
      <trkpt lat="47.62982" lon="3.73824">
        <ele>176</ele>
        <time>2019-04-02T14:35:33Z</time>
      </trkpt>
      <trkpt lat="47.62976" lon="3.73822">
        <ele>177</ele>
        <time>2019-04-02T14:35:37Z</time>
      </trkpt>
      <trkpt lat="47.62972" lon="3.73821">
        <ele>177</ele>
        <time>2019-04-02T14:35:40Z</time>
      </trkpt>
      <trkpt lat="47.62967" lon="3.73818">
        <ele>178</ele>
        <time>2019-04-02T14:35:45Z</time>
      </trkpt>
      <trkpt lat="47.62962" lon="3.73816">
        <ele>176</ele>
        <time>2019-04-02T14:35:50Z</time>
      </trkpt>
      <trkpt lat="47.62956" lon="3.73815">
        <ele>176</ele>
        <time>2019-04-02T14:35:55Z</time>
      </trkpt>
      <trkpt lat="47.62951" lon="3.73812">
        <ele>175</ele>
        <time>2019-04-02T14:35:58Z</time>
      </trkpt>
      <trkpt lat="47.62946" lon="3.73809">
        <ele>174</ele>
        <time>2019-04-02T14:36:01Z</time>
      </trkpt>
      <trkpt lat="47.6294" lon="3.73806">
        <ele>173</ele>
        <time>2019-04-02T14:36:05Z</time>
      </trkpt>
      <trkpt lat="47.62934" lon="3.73803">
        <ele>172</ele>
        <time>2019-04-02T14:36:09Z</time>
      </trkpt>
      <trkpt lat="47.6293" lon="3.73802">
        <ele>169</ele>
        <time>2019-04-02T14:36:14Z</time>
      </trkpt>
      <trkpt lat="47.62925" lon="3.73801">
        <ele>169</ele>
        <time>2019-04-02T14:36:17Z</time>
      </trkpt>
      <trkpt lat="47.62918" lon="3.73796">
        <ele>166</ele>
        <time>2019-04-02T14:36:23Z</time>
      </trkpt>
      <trkpt lat="47.62914" lon="3.73793">
        <ele>166</ele>
        <time>2019-04-02T14:36:25Z</time>
      </trkpt>
      <trkpt lat="47.62908" lon="3.73791">
        <ele>166</ele>
        <time>2019-04-02T14:36:27Z</time>
      </trkpt>
      <trkpt lat="47.62904" lon="3.73789">
        <ele>164</ele>
        <time>2019-04-02T14:36:29Z</time>
      </trkpt>
      <trkpt lat="47.62899" lon="3.73786">
        <ele>165</ele>
        <time>2019-04-02T14:36:33Z</time>
      </trkpt>
      <trkpt lat="47.62891" lon="3.73781">
        <ele>165</ele>
        <time>2019-04-02T14:36:39Z</time>
      </trkpt>
      <trkpt lat="47.62889" lon="3.73779">
        <ele>164</ele>
        <time>2019-04-02T14:36:41Z</time>
      </trkpt>
      <trkpt lat="47.62887" lon="3.73778">
        <ele>165</ele>
        <time>2019-04-02T14:36:43Z</time>
      </trkpt>
      <trkpt lat="47.62884" lon="3.73776">
        <ele>165</ele>
        <time>2019-04-02T14:36:45Z</time>
      </trkpt>
      <trkpt lat="47.62879" lon="3.73775">
        <ele>166</ele>
        <time>2019-04-02T14:36:51Z</time>
      </trkpt>
      <trkpt lat="47.62874" lon="3.73773">
        <ele>166</ele>
        <time>2019-04-02T14:36:55Z</time>
      </trkpt>
      <trkpt lat="47.62869" lon="3.73771">
        <ele>167</ele>
        <time>2019-04-02T14:36:59Z</time>
      </trkpt>
      <trkpt lat="47.62864" lon="3.73769">
        <ele>168</ele>
        <time>2019-04-02T14:37:03Z</time>
      </trkpt>
      <trkpt lat="47.62861" lon="3.73768">
        <ele>167</ele>
        <time>2019-04-02T14:37:05Z</time>
      </trkpt>
      <trkpt lat="47.62853" lon="3.73765">
        <ele>166</ele>
        <time>2019-04-02T14:37:10Z</time>
      </trkpt>
      <trkpt lat="47.62848" lon="3.73763">
        <ele>167</ele>
        <time>2019-04-02T14:37:12Z</time>
      </trkpt>
      <trkpt lat="47.62843" lon="3.73761">
        <ele>166</ele>
        <time>2019-04-02T14:37:16Z</time>
      </trkpt>
      <trkpt lat="47.62835" lon="3.7376">
        <ele>165</ele>
        <time>2019-04-02T14:37:21Z</time>
      </trkpt>
      <trkpt lat="47.62831" lon="3.73759">
        <ele>166</ele>
        <time>2019-04-02T14:37:24Z</time>
      </trkpt>
      <trkpt lat="47.62825" lon="3.73758">
        <ele>167</ele>
        <time>2019-04-02T14:37:28Z</time>
      </trkpt>
      <trkpt lat="47.62819" lon="3.73756">
        <ele>168</ele>
        <time>2019-04-02T14:37:31Z</time>
      </trkpt>
      <trkpt lat="47.62816" lon="3.73756">
        <ele>168</ele>
        <time>2019-04-02T14:37:33Z</time>
      </trkpt>
      <trkpt lat="47.62811" lon="3.73754">
        <ele>167</ele>
        <time>2019-04-02T14:37:37Z</time>
      </trkpt>
      <trkpt lat="47.62806" lon="3.73754">
        <ele>167</ele>
        <time>2019-04-02T14:37:40Z</time>
      </trkpt>
      <trkpt lat="47.62803" lon="3.73755">
        <ele>167</ele>
        <time>2019-04-02T14:37:42Z</time>
      </trkpt>
      <trkpt lat="47.62798" lon="3.73754">
        <ele>167</ele>
        <time>2019-04-02T14:37:44Z</time>
      </trkpt>
      <trkpt lat="47.62793" lon="3.73753">
        <ele>168</ele>
        <time>2019-04-02T14:37:47Z</time>
      </trkpt>
      <trkpt lat="47.62789" lon="3.73751">
        <ele>167</ele>
        <time>2019-04-02T14:37:50Z</time>
      </trkpt>
      <trkpt lat="47.62783" lon="3.73752">
        <ele>165</ele>
        <time>2019-04-02T14:37:54Z</time>
      </trkpt>
      <trkpt lat="47.62778" lon="3.7375">
        <ele>166</ele>
        <time>2019-04-02T14:37:59Z</time>
      </trkpt>
      <trkpt lat="47.62773" lon="3.73749">
        <ele>166</ele>
        <time>2019-04-02T14:38:04Z</time>
      </trkpt>
      <trkpt lat="47.62766" lon="3.73748">
        <ele>164</ele>
        <time>2019-04-02T14:38:08Z</time>
      </trkpt>
      <trkpt lat="47.62763" lon="3.73748">
        <ele>165</ele>
        <time>2019-04-02T14:38:10Z</time>
      </trkpt>
      <trkpt lat="47.62759" lon="3.7375">
        <ele>164</ele>
        <time>2019-04-02T14:38:13Z</time>
      </trkpt>
      <trkpt lat="47.62753" lon="3.73749">
        <ele>163</ele>
        <time>2019-04-02T14:38:16Z</time>
      </trkpt>
      <trkpt lat="47.6275" lon="3.73749">
        <ele>164</ele>
        <time>2019-04-02T14:38:18Z</time>
      </trkpt>
      <trkpt lat="47.62747" lon="3.73749">
        <ele>163</ele>
        <time>2019-04-02T14:38:20Z</time>
      </trkpt>
      <trkpt lat="47.62741" lon="3.73749">
        <ele>163</ele>
        <time>2019-04-02T14:38:24Z</time>
      </trkpt>
      <trkpt lat="47.62736" lon="3.73749">
        <ele>163</ele>
        <time>2019-04-02T14:38:27Z</time>
      </trkpt>
      <trkpt lat="47.6273" lon="3.73748">
        <ele>163</ele>
        <time>2019-04-02T14:38:33Z</time>
      </trkpt>
      <trkpt lat="47.62724" lon="3.73746">
        <ele>162</ele>
        <time>2019-04-02T14:38:37Z</time>
      </trkpt>
      <trkpt lat="47.62721" lon="3.73746">
        <ele>162</ele>
        <time>2019-04-02T14:38:38Z</time>
      </trkpt>
      <trkpt lat="47.62716" lon="3.73746">
        <ele>163</ele>
        <time>2019-04-02T14:38:42Z</time>
      </trkpt>
      <trkpt lat="47.62711" lon="3.73743">
        <ele>162</ele>
        <time>2019-04-02T14:38:45Z</time>
      </trkpt>
      <trkpt lat="47.62706" lon="3.73743">
        <ele>164</ele>
        <time>2019-04-02T14:38:50Z</time>
      </trkpt>
      <trkpt lat="47.62702" lon="3.73744">
        <ele>165</ele>
        <time>2019-04-02T14:38:52Z</time>
      </trkpt>
      <trkpt lat="47.62697" lon="3.73744">
        <ele>165</ele>
        <time>2019-04-02T14:38:55Z</time>
      </trkpt>
      <trkpt lat="47.62691" lon="3.73743">
        <ele>165</ele>
        <time>2019-04-02T14:38:59Z</time>
      </trkpt>
      <trkpt lat="47.62686" lon="3.73744">
        <ele>165</ele>
        <time>2019-04-02T14:39:03Z</time>
      </trkpt>
      <trkpt lat="47.62681" lon="3.73743">
        <ele>165</ele>
        <time>2019-04-02T14:39:06Z</time>
      </trkpt>
      <trkpt lat="47.62678" lon="3.73743">
        <ele>164</ele>
        <time>2019-04-02T14:39:09Z</time>
      </trkpt>
      <trkpt lat="47.62674" lon="3.73744">
        <ele>162</ele>
        <time>2019-04-02T14:39:13Z</time>
      </trkpt>
      <trkpt lat="47.62668" lon="3.73744">
        <ele>162</ele>
        <time>2019-04-02T14:39:17Z</time>
      </trkpt>
      <trkpt lat="47.62663" lon="3.73743">
        <ele>161</ele>
        <time>2019-04-02T14:39:21Z</time>
      </trkpt>
      <trkpt lat="47.62659" lon="3.73743">
        <ele>162</ele>
        <time>2019-04-02T14:39:23Z</time>
      </trkpt>
      <trkpt lat="47.62656" lon="3.73743">
        <ele>162</ele>
        <time>2019-04-02T14:39:25Z</time>
      </trkpt>
      <trkpt lat="47.62651" lon="3.73741">
        <ele>163</ele>
        <time>2019-04-02T14:39:28Z</time>
      </trkpt>
      <trkpt lat="47.62644" lon="3.7374">
        <ele>161</ele>
        <time>2019-04-02T14:39:33Z</time>
      </trkpt>
      <trkpt lat="47.62641" lon="3.73741">
        <ele>162</ele>
        <time>2019-04-02T14:39:35Z</time>
      </trkpt>
      <trkpt lat="47.62637" lon="3.73741">
        <ele>162</ele>
        <time>2019-04-02T14:39:38Z</time>
      </trkpt>
      <trkpt lat="47.62632" lon="3.7374">
        <ele>161</ele>
        <time>2019-04-02T14:39:42Z</time>
      </trkpt>
      <trkpt lat="47.62626" lon="3.73741">
        <ele>159</ele>
        <time>2019-04-02T14:39:47Z</time>
      </trkpt>
      <trkpt lat="47.62621" lon="3.7374">
        <ele>159</ele>
        <time>2019-04-02T14:39:51Z</time>
      </trkpt>
      <trkpt lat="47.62619" lon="3.7374">
        <ele>159</ele>
        <time>2019-04-02T14:39:53Z</time>
      </trkpt>
      <trkpt lat="47.62616" lon="3.73739">
        <ele>161</ele>
        <time>2019-04-02T14:39:55Z</time>
      </trkpt>
      <trkpt lat="47.62611" lon="3.73736">
        <ele>162</ele>
        <time>2019-04-02T14:39:58Z</time>
      </trkpt>
      <trkpt lat="47.62608" lon="3.73735">
        <ele>163</ele>
        <time>2019-04-02T14:40:00Z</time>
      </trkpt>
      <trkpt lat="47.62603" lon="3.73734">
        <ele>163</ele>
        <time>2019-04-02T14:40:04Z</time>
      </trkpt>
      <trkpt lat="47.62597" lon="3.73733">
        <ele>163</ele>
        <time>2019-04-02T14:40:08Z</time>
      </trkpt>
      <trkpt lat="47.62591" lon="3.73732">
        <ele>164</ele>
        <time>2019-04-02T14:40:12Z</time>
      </trkpt>
      <trkpt lat="47.62587" lon="3.73731">
        <ele>164</ele>
        <time>2019-04-02T14:40:14Z</time>
      </trkpt>
      <trkpt lat="47.62582" lon="3.73731">
        <ele>165</ele>
        <time>2019-04-02T14:40:17Z</time>
      </trkpt>
      <trkpt lat="47.62577" lon="3.73731">
        <ele>165</ele>
        <time>2019-04-02T14:40:20Z</time>
      </trkpt>
      <trkpt lat="47.62574" lon="3.73731">
        <ele>165</ele>
        <time>2019-04-02T14:40:22Z</time>
      </trkpt>
      <trkpt lat="47.6257" lon="3.7373">
        <ele>165</ele>
        <time>2019-04-02T14:40:24Z</time>
      </trkpt>
      <trkpt lat="47.62566" lon="3.7373">
        <ele>165</ele>
        <time>2019-04-02T14:40:26Z</time>
      </trkpt>
      <trkpt lat="47.62562" lon="3.73731">
        <ele>165</ele>
        <time>2019-04-02T14:40:28Z</time>
      </trkpt>
      <trkpt lat="47.62559" lon="3.73731">
        <ele>166</ele>
        <time>2019-04-02T14:40:30Z</time>
      </trkpt>
      <trkpt lat="47.62554" lon="3.73733">
        <ele>166</ele>
        <time>2019-04-02T14:40:34Z</time>
      </trkpt>
      <trkpt lat="47.62551" lon="3.73734">
        <ele>167</ele>
        <time>2019-04-02T14:40:37Z</time>
      </trkpt>
      <trkpt lat="47.62546" lon="3.73736">
        <ele>166</ele>
        <time>2019-04-02T14:40:40Z</time>
      </trkpt>
      <trkpt lat="47.62539" lon="3.73737">
        <ele>166</ele>
        <time>2019-04-02T14:40:43Z</time>
      </trkpt>
      <trkpt lat="47.62534" lon="3.7374">
        <ele>166</ele>
        <time>2019-04-02T14:40:47Z</time>
      </trkpt>
      <trkpt lat="47.62527" lon="3.7374">
        <ele>167</ele>
        <time>2019-04-02T14:40:51Z</time>
      </trkpt>
      <trkpt lat="47.62521" lon="3.73743">
        <ele>168</ele>
        <time>2019-04-02T14:40:55Z</time>
      </trkpt>
      <trkpt lat="47.62517" lon="3.73746">
        <ele>169</ele>
        <time>2019-04-02T14:40:59Z</time>
      </trkpt>
      <trkpt lat="47.6251" lon="3.73748">
        <ele>168</ele>
        <time>2019-04-02T14:41:04Z</time>
      </trkpt>
      <trkpt lat="47.62506" lon="3.7375">
        <ele>166</ele>
        <time>2019-04-02T14:41:07Z</time>
      </trkpt>
      <trkpt lat="47.625" lon="3.7375">
        <ele>165</ele>
        <time>2019-04-02T14:41:11Z</time>
      </trkpt>
      <trkpt lat="47.62494" lon="3.73753">
        <ele>166</ele>
        <time>2019-04-02T14:41:13Z</time>
      </trkpt>
      <trkpt lat="47.62491" lon="3.73754">
        <ele>166</ele>
        <time>2019-04-02T14:41:16Z</time>
      </trkpt>
      <trkpt lat="47.62484" lon="3.73756">
        <ele>166</ele>
        <time>2019-04-02T14:41:20Z</time>
      </trkpt>
      <trkpt lat="47.6248" lon="3.73758">
        <ele>165</ele>
        <time>2019-04-02T14:41:23Z</time>
      </trkpt>
      <trkpt lat="47.62476" lon="3.7376">
        <ele>165</ele>
        <time>2019-04-02T14:41:25Z</time>
      </trkpt>
      <trkpt lat="47.62472" lon="3.73762">
        <ele>166</ele>
        <time>2019-04-02T14:41:27Z</time>
      </trkpt>
      <trkpt lat="47.62466" lon="3.73766">
        <ele>165</ele>
        <time>2019-04-02T14:41:30Z</time>
      </trkpt>
      <trkpt lat="47.62463" lon="3.73768">
        <ele>166</ele>
        <time>2019-04-02T14:41:32Z</time>
      </trkpt>
      <trkpt lat="47.6246" lon="3.7377">
        <ele>166</ele>
        <time>2019-04-02T14:41:34Z</time>
      </trkpt>
      <trkpt lat="47.62455" lon="3.73774">
        <ele>166</ele>
        <time>2019-04-02T14:41:38Z</time>
      </trkpt>
      <trkpt lat="47.62451" lon="3.73779">
        <ele>164</ele>
        <time>2019-04-02T14:41:41Z</time>
      </trkpt>
      <trkpt lat="47.62449" lon="3.73781">
        <ele>164</ele>
        <time>2019-04-02T14:41:42Z</time>
      </trkpt>
      <trkpt lat="47.62445" lon="3.73785">
        <ele>165</ele>
        <time>2019-04-02T14:41:46Z</time>
      </trkpt>
      <trkpt lat="47.6244" lon="3.73788">
        <ele>165</ele>
        <time>2019-04-02T14:41:51Z</time>
      </trkpt>
      <trkpt lat="47.62435" lon="3.7379">
        <ele>165</ele>
        <time>2019-04-02T14:41:54Z</time>
      </trkpt>
      <trkpt lat="47.6243" lon="3.73792">
        <ele>166</ele>
        <time>2019-04-02T14:41:57Z</time>
      </trkpt>
      <trkpt lat="47.62427" lon="3.73793">
        <ele>166</ele>
        <time>2019-04-02T14:41:59Z</time>
      </trkpt>
      <trkpt lat="47.62422" lon="3.73796">
        <ele>165</ele>
        <time>2019-04-02T14:42:02Z</time>
      </trkpt>
      <trkpt lat="47.62417" lon="3.738">
        <ele>165</ele>
        <time>2019-04-02T14:42:05Z</time>
      </trkpt>
      <trkpt lat="47.62412" lon="3.73803">
        <ele>165</ele>
        <time>2019-04-02T14:42:08Z</time>
      </trkpt>
      <trkpt lat="47.62406" lon="3.73805">
        <ele>164</ele>
        <time>2019-04-02T14:42:12Z</time>
      </trkpt>
      <trkpt lat="47.62401" lon="3.73806">
        <ele>164</ele>
        <time>2019-04-02T14:42:14Z</time>
      </trkpt>
      <trkpt lat="47.62397" lon="3.73808">
        <ele>164</ele>
        <time>2019-04-02T14:42:18Z</time>
      </trkpt>
      <trkpt lat="47.62394" lon="3.73809">
        <ele>164</ele>
        <time>2019-04-02T14:42:20Z</time>
      </trkpt>
      <trkpt lat="47.62391" lon="3.7381">
        <ele>164</ele>
        <time>2019-04-02T14:42:21Z</time>
      </trkpt>
      <trkpt lat="47.62386" lon="3.73814">
        <ele>165</ele>
        <time>2019-04-02T14:42:24Z</time>
      </trkpt>
      <trkpt lat="47.62383" lon="3.73816">
        <ele>166</ele>
        <time>2019-04-02T14:42:26Z</time>
      </trkpt>
      <trkpt lat="47.62378" lon="3.73819">
        <ele>165</ele>
        <time>2019-04-02T14:42:29Z</time>
      </trkpt>
      <trkpt lat="47.62373" lon="3.7382">
        <ele>166</ele>
        <time>2019-04-02T14:42:32Z</time>
      </trkpt>
      <trkpt lat="47.62371" lon="3.73821">
        <ele>166</ele>
        <time>2019-04-02T14:42:34Z</time>
      </trkpt>
      <trkpt lat="47.62367" lon="3.73822">
        <ele>166</ele>
        <time>2019-04-02T14:42:36Z</time>
      </trkpt>
      <trkpt lat="47.62364" lon="3.73823">
        <ele>166</ele>
        <time>2019-04-02T14:42:38Z</time>
      </trkpt>
      <trkpt lat="47.62362" lon="3.73825">
        <ele>166</ele>
        <time>2019-04-02T14:42:41Z</time>
      </trkpt>
      <trkpt lat="47.62357" lon="3.73827">
        <ele>165</ele>
        <time>2019-04-02T14:42:45Z</time>
      </trkpt>
      <trkpt lat="47.62354" lon="3.73832">
        <ele>166</ele>
        <time>2019-04-02T14:42:49Z</time>
      </trkpt>
      <trkpt lat="47.62351" lon="3.73837">
        <ele>165</ele>
        <time>2019-04-02T14:42:51Z</time>
      </trkpt>
      <trkpt lat="47.62349" lon="3.7384">
        <ele>166</ele>
        <time>2019-04-02T14:42:53Z</time>
      </trkpt>
      <trkpt lat="47.62347" lon="3.73848">
        <ele>165</ele>
        <time>2019-04-02T14:42:57Z</time>
      </trkpt>
      <trkpt lat="47.62346" lon="3.73852">
        <ele>166</ele>
        <time>2019-04-02T14:42:59Z</time>
      </trkpt>
      <trkpt lat="47.62341" lon="3.73864">
        <ele>166</ele>
        <time>2019-04-02T14:43:04Z</time>
      </trkpt>
      <trkpt lat="47.62339" lon="3.73871">
        <ele>165</ele>
        <time>2019-04-02T14:43:07Z</time>
      </trkpt>
      <trkpt lat="47.62336" lon="3.73876">
        <ele>164</ele>
        <time>2019-04-02T14:43:10Z</time>
      </trkpt>
      <trkpt lat="47.6233" lon="3.73884">
        <ele>165</ele>
        <time>2019-04-02T14:43:16Z</time>
      </trkpt>
      <trkpt lat="47.62326" lon="3.73889">
        <ele>166</ele>
        <time>2019-04-02T14:43:19Z</time>
      </trkpt>
      <trkpt lat="47.62324" lon="3.73892">
        <ele>165</ele>
        <time>2019-04-02T14:43:21Z</time>
      </trkpt>
      <trkpt lat="47.62321" lon="3.73895">
        <ele>166</ele>
        <time>2019-04-02T14:43:24Z</time>
      </trkpt>
      <trkpt lat="47.62316" lon="3.73898">
        <ele>166</ele>
        <time>2019-04-02T14:43:27Z</time>
      </trkpt>
      <trkpt lat="47.62313" lon="3.739">
        <ele>166</ele>
        <time>2019-04-02T14:43:29Z</time>
      </trkpt>
      <trkpt lat="47.62309" lon="3.73903">
        <ele>165</ele>
        <time>2019-04-02T14:43:32Z</time>
      </trkpt>
      <trkpt lat="47.62306" lon="3.73905">
        <ele>166</ele>
        <time>2019-04-02T14:43:35Z</time>
      </trkpt>
      <trkpt lat="47.62301" lon="3.73907">
        <ele>165</ele>
        <time>2019-04-02T14:43:38Z</time>
      </trkpt>
      <trkpt lat="47.62297" lon="3.73912">
        <ele>166</ele>
        <time>2019-04-02T14:43:42Z</time>
      </trkpt>
      <trkpt lat="47.62293" lon="3.73918">
        <ele>168</ele>
        <time>2019-04-02T14:43:47Z</time>
      </trkpt>
      <trkpt lat="47.6229" lon="3.73922">
        <ele>168</ele>
        <time>2019-04-02T14:43:50Z</time>
      </trkpt>
      <trkpt lat="47.62286" lon="3.73924">
        <ele>169</ele>
        <time>2019-04-02T14:43:59Z</time>
      </trkpt>
      <trkpt lat="47.62281" lon="3.73926">
        <ele>163</ele>
        <time>2019-04-02T14:46:26Z</time>
      </trkpt>
      <trkpt lat="47.62279" lon="3.73927">
        <ele>162</ele>
        <time>2019-04-02T14:46:29Z</time>
      </trkpt>
      <trkpt lat="47.62276" lon="3.73932">
        <ele>162</ele>
        <time>2019-04-02T14:46:34Z</time>
      </trkpt>
      <trkpt lat="47.62273" lon="3.73939">
        <ele>164</ele>
        <time>2019-04-02T14:46:39Z</time>
      </trkpt>
      <trkpt lat="47.62269" lon="3.73944">
        <ele>167</ele>
        <time>2019-04-02T14:46:44Z</time>
      </trkpt>
      <trkpt lat="47.62266" lon="3.73948">
        <ele>170</ele>
        <time>2019-04-02T14:46:47Z</time>
      </trkpt>
      <trkpt lat="47.62263" lon="3.73952">
        <ele>170</ele>
        <time>2019-04-02T14:46:49Z</time>
      </trkpt>
      <trkpt lat="47.6226" lon="3.73956">
        <ele>169</ele>
        <time>2019-04-02T14:46:53Z</time>
      </trkpt>
      <trkpt lat="47.62256" lon="3.7396">
        <ele>169</ele>
        <time>2019-04-02T14:46:58Z</time>
      </trkpt>
      <trkpt lat="47.62254" lon="3.73962">
        <ele>170</ele>
        <time>2019-04-02T14:47:00Z</time>
      </trkpt>
      <trkpt lat="47.62251" lon="3.73965">
        <ele>170</ele>
        <time>2019-04-02T14:47:03Z</time>
      </trkpt>
      <trkpt lat="47.62248" lon="3.73967">
        <ele>170</ele>
        <time>2019-04-02T14:47:06Z</time>
      </trkpt>
      <trkpt lat="47.62244" lon="3.73971">
        <ele>171</ele>
        <time>2019-04-02T14:47:09Z</time>
      </trkpt>
      <trkpt lat="47.6224" lon="3.73975">
        <ele>172</ele>
        <time>2019-04-02T14:47:15Z</time>
      </trkpt>
      <trkpt lat="47.62238" lon="3.73978">
        <ele>173</ele>
        <time>2019-04-02T14:47:18Z</time>
      </trkpt>
      <trkpt lat="47.62235" lon="3.73982">
        <ele>174</ele>
        <time>2019-04-02T14:47:20Z</time>
      </trkpt>
      <trkpt lat="47.62232" lon="3.73986">
        <ele>174</ele>
        <time>2019-04-02T14:47:24Z</time>
      </trkpt>
      <trkpt lat="47.62228" lon="3.73993">
        <ele>174</ele>
        <time>2019-04-02T14:47:28Z</time>
      </trkpt>
      <trkpt lat="47.62223" lon="3.73998">
        <ele>176</ele>
        <time>2019-04-02T14:47:33Z</time>
      </trkpt>
      <trkpt lat="47.6222" lon="3.74001">
        <ele>176</ele>
        <time>2019-04-02T14:47:36Z</time>
      </trkpt>
      <trkpt lat="47.62218" lon="3.74004">
        <ele>177</ele>
        <time>2019-04-02T14:47:38Z</time>
      </trkpt>
      <trkpt lat="47.62216" lon="3.74006">
        <ele>177</ele>
        <time>2019-04-02T14:47:40Z</time>
      </trkpt>
      <trkpt lat="47.62213" lon="3.74009">
        <ele>177</ele>
        <time>2019-04-02T14:47:41Z</time>
      </trkpt>
      <trkpt lat="47.62209" lon="3.74011">
        <ele>175</ele>
        <time>2019-04-02T14:47:46Z</time>
      </trkpt>
      <trkpt lat="47.62206" lon="3.74016">
        <ele>174</ele>
        <time>2019-04-02T14:47:50Z</time>
      </trkpt>
      <trkpt lat="47.62203" lon="3.74021">
        <ele>175</ele>
        <time>2019-04-02T14:47:52Z</time>
      </trkpt>
      <trkpt lat="47.62202" lon="3.74024">
        <ele>175</ele>
        <time>2019-04-02T14:47:54Z</time>
      </trkpt>
      <trkpt lat="47.62198" lon="3.74028">
        <ele>176</ele>
        <time>2019-04-02T14:47:58Z</time>
      </trkpt>
      <trkpt lat="47.62196" lon="3.7403">
        <ele>176</ele>
        <time>2019-04-02T14:48:00Z</time>
      </trkpt>
      <trkpt lat="47.62193" lon="3.74032">
        <ele>177</ele>
        <time>2019-04-02T14:48:02Z</time>
      </trkpt>
      <trkpt lat="47.62188" lon="3.74037">
        <ele>177</ele>
        <time>2019-04-02T14:48:06Z</time>
      </trkpt>
      <trkpt lat="47.62185" lon="3.74042">
        <ele>177</ele>
        <time>2019-04-02T14:48:10Z</time>
      </trkpt>
      <trkpt lat="47.6218" lon="3.74046">
        <ele>174</ele>
        <time>2019-04-02T14:48:15Z</time>
      </trkpt>
      <trkpt lat="47.62177" lon="3.74049">
        <ele>174</ele>
        <time>2019-04-02T14:48:18Z</time>
      </trkpt>
      <trkpt lat="47.62174" lon="3.74053">
        <ele>173</ele>
        <time>2019-04-02T14:48:22Z</time>
      </trkpt>
      <trkpt lat="47.62168" lon="3.74056">
        <ele>173</ele>
        <time>2019-04-02T14:48:25Z</time>
      </trkpt>
      <trkpt lat="47.62165" lon="3.74059">
        <ele>174</ele>
        <time>2019-04-02T14:48:28Z</time>
      </trkpt>
      <trkpt lat="47.6216" lon="3.74063">
        <ele>173</ele>
        <time>2019-04-02T14:48:32Z</time>
      </trkpt>
      <trkpt lat="47.62157" lon="3.7407">
        <ele>172</ele>
        <time>2019-04-02T14:48:38Z</time>
      </trkpt>
      <trkpt lat="47.62156" lon="3.74073">
        <ele>172</ele>
        <time>2019-04-02T14:48:39Z</time>
      </trkpt>
      <trkpt lat="47.62153" lon="3.74078">
        <ele>171</ele>
        <time>2019-04-02T14:48:44Z</time>
      </trkpt>
      <trkpt lat="47.6215" lon="3.74085">
        <ele>169</ele>
        <time>2019-04-02T14:48:49Z</time>
      </trkpt>
      <trkpt lat="47.62145" lon="3.74085">
        <ele>169</ele>
        <time>2019-04-02T14:48:55Z</time>
      </trkpt>
      <trkpt lat="47.6214" lon="3.74084">
        <ele>169</ele>
        <time>2019-04-02T14:49:01Z</time>
      </trkpt>
      <trkpt lat="47.62137" lon="3.74084">
        <ele>170</ele>
        <time>2019-04-02T14:49:03Z</time>
      </trkpt>
      <trkpt lat="47.62132" lon="3.74085">
        <ele>172</ele>
        <time>2019-04-02T14:49:08Z</time>
      </trkpt>
      <trkpt lat="47.62126" lon="3.74085">
        <ele>172</ele>
        <time>2019-04-02T14:49:15Z</time>
      </trkpt>
      <trkpt lat="47.62123" lon="3.74085">
        <ele>172</ele>
        <time>2019-04-02T14:49:17Z</time>
      </trkpt>
      <trkpt lat="47.62121" lon="3.74084">
        <ele>173</ele>
        <time>2019-04-02T14:49:20Z</time>
      </trkpt>
      <trkpt lat="47.62118" lon="3.74085">
        <ele>173</ele>
        <time>2019-04-02T14:49:23Z</time>
      </trkpt>
      <trkpt lat="47.62115" lon="3.74085">
        <ele>173</ele>
        <time>2019-04-02T14:49:25Z</time>
      </trkpt>
      <trkpt lat="47.6211" lon="3.74087">
        <ele>172</ele>
        <time>2019-04-02T14:49:28Z</time>
      </trkpt>
      <trkpt lat="47.62102" lon="3.7409">
        <ele>174</ele>
        <time>2019-04-02T14:49:35Z</time>
      </trkpt>
      <trkpt lat="47.62097" lon="3.74094">
        <ele>174</ele>
        <time>2019-04-02T14:49:38Z</time>
      </trkpt>
      <trkpt lat="47.6209" lon="3.74096">
        <ele>174</ele>
        <time>2019-04-02T14:49:44Z</time>
      </trkpt>
      <trkpt lat="47.62088" lon="3.74097">
        <ele>174</ele>
        <time>2019-04-02T14:49:46Z</time>
      </trkpt>
      <trkpt lat="47.62081" lon="3.74096">
        <ele>173</ele>
        <time>2019-04-02T14:49:49Z</time>
      </trkpt>
      <trkpt lat="47.62079" lon="3.74097">
        <ele>172</ele>
        <time>2019-04-02T14:49:50Z</time>
      </trkpt>
      <trkpt lat="47.62072" lon="3.74099">
        <ele>169</ele>
        <time>2019-04-02T14:49:54Z</time>
      </trkpt>
      <trkpt lat="47.62068" lon="3.74103">
        <ele>170</ele>
        <time>2019-04-02T14:49:59Z</time>
      </trkpt>
      <trkpt lat="47.62063" lon="3.74105">
        <ele>171</ele>
        <time>2019-04-02T14:50:03Z</time>
      </trkpt>
      <trkpt lat="47.62056" lon="3.74105">
        <ele>171</ele>
        <time>2019-04-02T14:50:08Z</time>
      </trkpt>
      <trkpt lat="47.6205" lon="3.74108">
        <ele>173</ele>
        <time>2019-04-02T14:50:15Z</time>
      </trkpt>
      <trkpt lat="47.62045" lon="3.74107">
        <ele>172</ele>
        <time>2019-04-02T14:50:19Z</time>
      </trkpt>
      <trkpt lat="47.6204" lon="3.74109">
        <ele>174</ele>
        <time>2019-04-02T14:50:23Z</time>
      </trkpt>
      <trkpt lat="47.62036" lon="3.74111">
        <ele>174</ele>
        <time>2019-04-02T14:50:25Z</time>
      </trkpt>
      <trkpt lat="47.62034" lon="3.74112">
        <ele>174</ele>
        <time>2019-04-02T14:50:26Z</time>
      </trkpt>
      <trkpt lat="47.62029" lon="3.74115">
        <ele>174</ele>
        <time>2019-04-02T14:50:29Z</time>
      </trkpt>
      <trkpt lat="47.62025" lon="3.74118">
        <ele>174</ele>
        <time>2019-04-02T14:50:32Z</time>
      </trkpt>
      <trkpt lat="47.62021" lon="3.74118">
        <ele>172</ele>
        <time>2019-04-02T14:50:37Z</time>
      </trkpt>
      <trkpt lat="47.62017" lon="3.74122">
        <ele>174</ele>
        <time>2019-04-02T14:50:41Z</time>
      </trkpt>
      <trkpt lat="47.6201" lon="3.74124">
        <ele>174</ele>
        <time>2019-04-02T14:50:46Z</time>
      </trkpt>
      <trkpt lat="47.62003" lon="3.74126">
        <ele>172</ele>
        <time>2019-04-02T14:50:50Z</time>
      </trkpt>
      <trkpt lat="47.61998" lon="3.7413">
        <ele>171</ele>
        <time>2019-04-02T14:50:55Z</time>
      </trkpt>
      <trkpt lat="47.61996" lon="3.74132">
        <ele>170</ele>
        <time>2019-04-02T14:50:57Z</time>
      </trkpt>
      <trkpt lat="47.61996" lon="3.74132">
        <ele>170</ele>
        <time>2019-04-02T14:51:05Z</time>
      </trkpt>
      <trkpt lat="47.61994" lon="3.7414">
        <ele>168</ele>
        <time>2019-04-02T14:51:06Z</time>
      </trkpt>
      <trkpt lat="47.61993" lon="3.74143">
        <ele>168</ele>
        <time>2019-04-02T14:51:09Z</time>
      </trkpt>
      <trkpt lat="47.61993" lon="3.74143">
        <ele>121.8</ele>
        <time>2019-04-02T14:51:27Z</time>
      </trkpt>
      <trkpt lat="47.61993" lon="3.74143">
        <ele>121.8</ele>
        <time>2019-04-02T14:51:29Z</time>
      </trkpt>
    </trkseg>
  </trk>
</gpx>